<?xml version='1.0' encoding='UTF-8'?><gpx version="1.1" creator="JPX - https://github.com/jenetics/jpx" xmlns="http://www.topografix.com/GPX/1/1"><trk><trkseg><trkpt lat="46.1198896" lon="13.5242451"><ele>155.0</ele><time>2026-05-03T07:00:26.155Z</time></trkpt><trkpt lat="46.1199717" lon="13.5242168"><ele>155.0</ele><time>2026-05-03T07:00:29.155Z</time></trkpt><trkpt lat="46.1200261" lon="13.5241427"><ele>155.0</ele><time>2026-05-03T07:00:32.155Z</time></trkpt><trkpt lat="46.1200948" lon="13.5241478"><ele>155.0</ele><time>2026-05-03T07:02:26.155Z</time></trkpt><trkpt lat="46.1201807" lon="13.5243496"><ele>155.0</ele><time>2026-05-03T07:06:03.154Z</time></trkpt><trkpt lat="46.1201813" lon="13.5245181"><ele>155.0</ele><time>2026-05-03T07:06:05.153Z</time></trkpt><trkpt lat="46.1201766" lon="13.5246407"><ele>155.0</ele><time>2026-05-03T07:06:06.153Z</time></trkpt><trkpt lat="46.1201736" lon="13.5247822"><ele>155.0</ele><time>2026-05-03T07:06:07.154Z</time></trkpt><trkpt lat="46.1201795" lon="13.5249345"><ele>155.0</ele><time>2026-05-03T07:06:08.153Z</time></trkpt><trkpt lat="46.120192" lon="13.5250932"><ele>155.0</ele><time>2026-05-03T07:06:09.154Z</time></trkpt><trkpt lat="46.1202113" lon="13.5252552"><ele>155.4</ele><time>2026-05-03T07:06:10.154Z</time></trkpt><trkpt lat="46.120231" lon="13.5254166"><ele>155.8</ele><time>2026-05-03T07:06:11.154Z</time></trkpt><trkpt lat="46.1202486" lon="13.52557"><ele>156.2</ele><time>2026-05-03T07:06:12.154Z</time></trkpt><trkpt lat="46.1202646" lon="13.525722"><ele>156.6</ele><time>2026-05-03T07:06:13.154Z</time></trkpt><trkpt lat="46.1202952" lon="13.5258677"><ele>157.0</ele><time>2026-05-03T07:06:14.153Z</time></trkpt><trkpt lat="46.1203454" lon="13.5259908"><ele>157.0</ele><time>2026-05-03T07:06:15.154Z</time></trkpt><trkpt lat="46.1203994" lon="13.5260937"><ele>157.0</ele><time>2026-05-03T07:06:16.154Z</time></trkpt><trkpt lat="46.1204564" lon="13.5261911"><ele>157.0</ele><time>2026-05-03T07:06:17.153Z</time></trkpt><trkpt lat="46.1204995" lon="13.5263027"><ele>157.0</ele><time>2026-05-03T07:06:18.153Z</time></trkpt><trkpt lat="46.120523" lon="13.526432"><ele>157.0</ele><time>2026-05-03T07:06:19.154Z</time></trkpt><trkpt lat="46.1205183" lon="13.5265739"><ele>158.0</ele><time>2026-05-03T07:06:20.153Z</time></trkpt><trkpt lat="46.1204929" lon="13.5267343"><ele>159.0</ele><time>2026-05-03T07:06:21.154Z</time></trkpt><trkpt lat="46.1204607" lon="13.5268953"><ele>160.0</ele><time>2026-05-03T07:06:22.154Z</time></trkpt><trkpt lat="46.1204163" lon="13.5270601"><ele>161.0</ele><time>2026-05-03T07:06:23.154Z</time></trkpt><trkpt lat="46.1203786" lon="13.5272344"><ele>161.0</ele><time>2026-05-03T07:06:24.154Z</time></trkpt><trkpt lat="46.120353" lon="13.5274092"><ele>161.0</ele><time>2026-05-03T07:06:25.154Z</time></trkpt><trkpt lat="46.1203357" lon="13.5275835"><ele>161.0</ele><time>2026-05-03T07:06:26.154Z</time></trkpt><trkpt lat="46.1203174" lon="13.5277548"><ele>161.0</ele><time>2026-05-03T07:06:27.154Z</time></trkpt><trkpt lat="46.1203101" lon="13.5279208"><ele>161.20000000000002</ele><time>2026-05-03T07:06:28.154Z</time></trkpt><trkpt lat="46.1203132" lon="13.528088"><ele>161.4</ele><time>2026-05-03T07:06:29.154Z</time></trkpt><trkpt lat="46.1203301" lon="13.5282457"><ele>161.6</ele><time>2026-05-03T07:06:30.154Z</time></trkpt><trkpt lat="46.1203483" lon="13.5284022"><ele>161.8</ele><time>2026-05-03T07:06:31.154Z</time></trkpt><trkpt lat="46.1203677" lon="13.5285407"><ele>162.0</ele><time>2026-05-03T07:06:32.154Z</time></trkpt><trkpt lat="46.120385" lon="13.5286632"><ele>161.71428571428572</ele><time>2026-05-03T07:06:33.154Z</time></trkpt><trkpt lat="46.1203975" lon="13.5287626"><ele>161.42857142857142</ele><time>2026-05-03T07:06:34.154Z</time></trkpt><trkpt lat="46.1203934" lon="13.5288659"><ele>161.14285714285714</ele><time>2026-05-03T07:06:35.154Z</time></trkpt><trkpt lat="46.1203623" lon="13.5289593"><ele>160.85714285714286</ele><time>2026-05-03T07:06:36.153Z</time></trkpt><trkpt lat="46.1203067" lon="13.5290385"><ele>160.57142857142858</ele><time>2026-05-03T07:06:37.154Z</time></trkpt><trkpt lat="46.1202469" lon="13.5291055"><ele>160.28571428571428</ele><time>2026-05-03T07:06:38.153Z</time></trkpt><trkpt lat="46.1201992" lon="13.5291857"><ele>160.0</ele><time>2026-05-03T07:06:39.153Z</time></trkpt><trkpt lat="46.12016" lon="13.5292639"><ele>160.0</ele><time>2026-05-03T07:06:40.153Z</time></trkpt><trkpt lat="46.1201287" lon="13.5293561"><ele>160.0</ele><time>2026-05-03T07:06:41.154Z</time></trkpt><trkpt lat="46.1201059" lon="13.5294631"><ele>160.0</ele><time>2026-05-03T07:06:42.153Z</time></trkpt><trkpt lat="46.1200881" lon="13.5295803"><ele>160.0</ele><time>2026-05-03T07:06:43.153Z</time></trkpt><trkpt lat="46.1200554" lon="13.5297025"><ele>160.0</ele><time>2026-05-03T07:06:44.154Z</time></trkpt><trkpt lat="46.1199975" lon="13.5298371"><ele>160.0</ele><time>2026-05-03T07:06:45.154Z</time></trkpt><trkpt lat="46.1199307" lon="13.5299523"><ele>161.16666666666669</ele><time>2026-05-03T07:06:46.153Z</time></trkpt><trkpt lat="46.1198474" lon="13.5300357"><ele>162.33333333333334</ele><time>2026-05-03T07:06:47.153Z</time></trkpt><trkpt lat="46.1197593" lon="13.5300871"><ele>163.5</ele><time>2026-05-03T07:06:48.154Z</time></trkpt><trkpt lat="46.1196768" lon="13.5301179"><ele>164.66666666666666</ele><time>2026-05-03T07:06:49.153Z</time></trkpt><trkpt lat="46.1195963" lon="13.5301196"><ele>165.83333333333331</ele><time>2026-05-03T07:06:50.154Z</time></trkpt><trkpt lat="46.119511" lon="13.5301099"><ele>167.0</ele><time>2026-05-03T07:06:51.154Z</time></trkpt><trkpt lat="46.1194162" lon="13.5301133"><ele>167.0</ele><time>2026-05-03T07:06:52.153Z</time></trkpt><trkpt lat="46.1193199" lon="13.5301416"><ele>167.0</ele><time>2026-05-03T07:06:53.154Z</time></trkpt><trkpt lat="46.1192339" lon="13.5301775"><ele>167.0</ele><time>2026-05-03T07:06:54.153Z</time></trkpt><trkpt lat="46.1191624" lon="13.5302129"><ele>167.0</ele><time>2026-05-03T07:06:55.154Z</time></trkpt><trkpt lat="46.1190922" lon="13.530251"><ele>167.0</ele><time>2026-05-03T07:06:56.153Z</time></trkpt><trkpt lat="46.1189939" lon="13.5302724"><ele>167.0</ele><time>2026-05-03T07:06:58.154Z</time></trkpt><trkpt lat="46.1189492" lon="13.5301594"><ele>167.2</ele><time>2026-05-03T07:07:00.153Z</time></trkpt><trkpt lat="46.1189545" lon="13.5300592"><ele>167.39999999999998</ele><time>2026-05-03T07:07:01.153Z</time></trkpt><trkpt lat="46.1189514" lon="13.5299278"><ele>167.60000000000002</ele><time>2026-05-03T07:07:02.154Z</time></trkpt><trkpt lat="46.1189474" lon="13.5297772"><ele>167.8</ele><time>2026-05-03T07:07:03.154Z</time></trkpt><trkpt lat="46.1189438" lon="13.5296182"><ele>168.0</ele><time>2026-05-03T07:07:04.154Z</time></trkpt><trkpt lat="46.1189474" lon="13.5294551"><ele>167.4</ele><time>2026-05-03T07:07:05.153Z</time></trkpt><trkpt lat="46.1189639" lon="13.5293159"><ele>166.8</ele><time>2026-05-03T07:07:06.154Z</time></trkpt><trkpt lat="46.118986" lon="13.5291903"><ele>166.2</ele><time>2026-05-03T07:07:07.154Z</time></trkpt><trkpt lat="46.1190127" lon="13.5290579"><ele>165.6</ele><time>2026-05-03T07:07:08.153Z</time></trkpt><trkpt lat="46.1190259" lon="13.5289252"><ele>165.0</ele><time>2026-05-03T07:07:09.154Z</time></trkpt><trkpt lat="46.1190297" lon="13.5287914"><ele>164.4</ele><time>2026-05-03T07:07:10.154Z</time></trkpt><trkpt lat="46.1190167" lon="13.5286535"><ele>163.8</ele><time>2026-05-03T07:07:11.153Z</time></trkpt><trkpt lat="46.1189907" lon="13.5285094"><ele>163.2</ele><time>2026-05-03T07:07:12.154Z</time></trkpt><trkpt lat="46.1189666" lon="13.5283706"><ele>162.6</ele><time>2026-05-03T07:07:13.153Z</time></trkpt><trkpt lat="46.1189459" lon="13.5282227"><ele>162.0</ele><time>2026-05-03T07:07:14.153Z</time></trkpt><trkpt lat="46.1189311" lon="13.5280961"><ele>162.0</ele><time>2026-05-03T07:07:15.154Z</time></trkpt><trkpt lat="46.1189184" lon="13.5279825"><ele>162.0</ele><time>2026-05-03T07:07:16.154Z</time></trkpt><trkpt lat="46.1189029" lon="13.5278752"><ele>162.0</ele><time>2026-05-03T07:07:17.154Z</time></trkpt><trkpt lat="46.1188871" lon="13.5277593"><ele>162.0</ele><time>2026-05-03T07:07:18.154Z</time></trkpt><trkpt lat="46.1188652" lon="13.5276309"><ele>162.0</ele><time>2026-05-03T07:07:19.154Z</time></trkpt><trkpt lat="46.1188292" lon="13.5275038"><ele>162.0</ele><time>2026-05-03T07:07:20.153Z</time></trkpt><trkpt lat="46.1187837" lon="13.5273841"><ele>161.4</ele><time>2026-05-03T07:07:21.154Z</time></trkpt><trkpt lat="46.1187318" lon="13.527277"><ele>160.79999999999998</ele><time>2026-05-03T07:07:22.154Z</time></trkpt><trkpt lat="46.1186723" lon="13.5271737"><ele>160.2</ele><time>2026-05-03T07:07:23.153Z</time></trkpt><trkpt lat="46.1186073" lon="13.5270658"><ele>159.6</ele><time>2026-05-03T07:07:24.154Z</time></trkpt><trkpt lat="46.1185366" lon="13.5269488"><ele>159.0</ele><time>2026-05-03T07:07:25.154Z</time></trkpt><trkpt lat="46.1184589" lon="13.5268199"><ele>158.75</ele><time>2026-05-03T07:07:26.154Z</time></trkpt><trkpt lat="46.1183755" lon="13.526679"><ele>158.5</ele><time>2026-05-03T07:07:27.154Z</time></trkpt><trkpt lat="46.1183015" lon="13.5265318"><ele>158.25</ele><time>2026-05-03T07:07:28.154Z</time></trkpt><trkpt lat="46.1182267" lon="13.5263871"><ele>158.0</ele><time>2026-05-03T07:07:29.154Z</time></trkpt><trkpt lat="46.1181536" lon="13.5262521"><ele>160.75</ele><time>2026-05-03T07:07:30.154Z</time></trkpt><trkpt lat="46.1180802" lon="13.5261208"><ele>163.5</ele><time>2026-05-03T07:07:31.153Z</time></trkpt><trkpt lat="46.1180055" lon="13.5259957"><ele>166.25</ele><time>2026-05-03T07:07:32.154Z</time></trkpt><trkpt lat="46.1179409" lon="13.5258679"><ele>169.0</ele><time>2026-05-03T07:07:33.153Z</time></trkpt><trkpt lat="46.1178816" lon="13.5257368"><ele>169.0</ele><time>2026-05-03T07:07:34.154Z</time></trkpt><trkpt lat="46.1178255" lon="13.5256026"><ele>169.0</ele><time>2026-05-03T07:07:35.154Z</time></trkpt><trkpt lat="46.1177733" lon="13.5254555"><ele>169.0</ele><time>2026-05-03T07:07:36.154Z</time></trkpt><trkpt lat="46.1177212" lon="13.5252926"><ele>169.0</ele><time>2026-05-03T07:07:37.154Z</time></trkpt><trkpt lat="46.1176643" lon="13.5251306"><ele>167.39999999999998</ele><time>2026-05-03T07:07:38.154Z</time></trkpt><trkpt lat="46.1176135" lon="13.5249784"><ele>165.8</ele><time>2026-05-03T07:07:39.154Z</time></trkpt><trkpt lat="46.1175698" lon="13.5248363"><ele>164.2</ele><time>2026-05-03T07:07:40.153Z</time></trkpt><trkpt lat="46.1175196" lon="13.5246857"><ele>162.60000000000002</ele><time>2026-05-03T07:07:41.154Z</time></trkpt><trkpt lat="46.1174779" lon="13.5245409"><ele>161.0</ele><time>2026-05-03T07:07:42.154Z</time></trkpt><trkpt lat="46.117429" lon="13.5243817"><ele>159.25</ele><time>2026-05-03T07:07:43.154Z</time></trkpt><trkpt lat="46.117352" lon="13.5242173"><ele>157.5</ele><time>2026-05-03T07:07:44.153Z</time></trkpt><trkpt lat="46.1172571" lon="13.5240722"><ele>155.75</ele><time>2026-05-03T07:07:45.154Z</time></trkpt><trkpt lat="46.1171557" lon="13.5239383"><ele>154.0</ele><time>2026-05-03T07:07:46.153Z</time></trkpt><trkpt lat="46.1170575" lon="13.5238031"><ele>153.5</ele><time>2026-05-03T07:07:47.154Z</time></trkpt><trkpt lat="46.1169639" lon="13.5236539"><ele>153.0</ele><time>2026-05-03T07:07:48.154Z</time></trkpt><trkpt lat="46.1168803" lon="13.5235001"><ele>152.5</ele><time>2026-05-03T07:07:49.154Z</time></trkpt><trkpt lat="46.1168031" lon="13.5233399"><ele>152.0</ele><time>2026-05-03T07:07:50.154Z</time></trkpt><trkpt lat="46.1167296" lon="13.5231791"><ele>152.0</ele><time>2026-05-03T07:07:51.154Z</time></trkpt><trkpt lat="46.1166608" lon="13.5230193"><ele>152.0</ele><time>2026-05-03T07:07:52.154Z</time></trkpt><trkpt lat="46.116599" lon="13.522867"><ele>152.0</ele><time>2026-05-03T07:07:53.154Z</time></trkpt><trkpt lat="46.1165503" lon="13.522724"><ele>152.0</ele><time>2026-05-03T07:07:54.153Z</time></trkpt><trkpt lat="46.1165125" lon="13.5225837"><ele>152.0</ele><time>2026-05-03T07:07:55.154Z</time></trkpt><trkpt lat="46.1164879" lon="13.5224741"><ele>152.0</ele><time>2026-05-03T07:07:56.153Z</time></trkpt><trkpt lat="46.116473" lon="13.522379"><ele>152.0</ele><time>2026-05-03T07:07:57.154Z</time></trkpt><trkpt lat="46.1164747" lon="13.5221728"><ele>152.0</ele><time>2026-05-03T07:07:59.154Z</time></trkpt><trkpt lat="46.1165058" lon="13.5220792"><ele>152.0</ele><time>2026-05-03T07:08:00.154Z</time></trkpt><trkpt lat="46.1165471" lon="13.5219863"><ele>152.0</ele><time>2026-05-03T07:08:01.154Z</time></trkpt><trkpt lat="46.1166079" lon="13.5219205"><ele>152.0</ele><time>2026-05-03T07:08:02.153Z</time></trkpt><trkpt lat="46.1166747" lon="13.5218633"><ele>152.0</ele><time>2026-05-03T07:08:03.153Z</time></trkpt><trkpt lat="46.1167462" lon="13.5218205"><ele>152.0</ele><time>2026-05-03T07:08:04.154Z</time></trkpt><trkpt lat="46.1168113" lon="13.521789"><ele>152.0</ele><time>2026-05-03T07:08:05.153Z</time></trkpt><trkpt lat="46.1168865" lon="13.5217709"><ele>152.0</ele><time>2026-05-03T07:08:06.153Z</time></trkpt><trkpt lat="46.1169708" lon="13.5217671"><ele>152.0</ele><time>2026-05-03T07:08:07.154Z</time></trkpt><trkpt lat="46.1170647" lon="13.521774"><ele>152.0</ele><time>2026-05-03T07:08:08.154Z</time></trkpt><trkpt lat="46.1171688" lon="13.5217966"><ele>152.0</ele><time>2026-05-03T07:08:09.154Z</time></trkpt><trkpt lat="46.1172827" lon="13.5218196"><ele>152.0</ele><time>2026-05-03T07:08:10.154Z</time></trkpt><trkpt lat="46.1173833" lon="13.5218273"><ele>152.0</ele><time>2026-05-03T07:08:11.154Z</time></trkpt><trkpt lat="46.1174679" lon="13.5218365"><ele>152.0</ele><time>2026-05-03T07:08:12.153Z</time></trkpt><trkpt lat="46.1175367" lon="13.5218426"><ele>152.2</ele><time>2026-05-03T07:08:13.154Z</time></trkpt><trkpt lat="46.117648" lon="13.5218295"><ele>152.39999999999998</ele><time>2026-05-03T07:08:15.153Z</time></trkpt><trkpt lat="46.1177775" lon="13.521831"><ele>152.60000000000002</ele><time>2026-05-03T07:08:17.153Z</time></trkpt><trkpt lat="46.1178507" lon="13.5218372"><ele>152.8</ele><time>2026-05-03T07:08:18.154Z</time></trkpt><trkpt lat="46.1179447" lon="13.521859"><ele>153.0</ele><time>2026-05-03T07:08:20.154Z</time></trkpt><trkpt lat="46.1180197" lon="13.5218225"><ele>153.0</ele><time>2026-05-03T07:08:28.154Z</time></trkpt><trkpt lat="46.1180417" lon="13.5217215"><ele>153.0</ele><time>2026-05-03T07:08:31.154Z</time></trkpt><trkpt lat="46.1180712" lon="13.52159"><ele>153.0</ele><time>2026-05-03T07:08:33.154Z</time></trkpt><trkpt lat="46.1181201" lon="13.5214751"><ele>153.0</ele><time>2026-05-03T07:08:35.154Z</time></trkpt><trkpt lat="46.1181345" lon="13.5213767"><ele>153.0</ele><time>2026-05-03T07:08:36.154Z</time></trkpt><trkpt lat="46.1181547" lon="13.5212902"><ele>153.0</ele><time>2026-05-03T07:08:37.153Z</time></trkpt><trkpt lat="46.118153" lon="13.5211671"><ele>153.0</ele><time>2026-05-03T07:08:39.154Z</time></trkpt><trkpt lat="46.1180878" lon="13.5210539"><ele>153.0</ele><time>2026-05-03T07:08:41.153Z</time></trkpt><trkpt lat="46.1180275" lon="13.5210005"><ele>153.0</ele><time>2026-05-03T07:08:42.153Z</time></trkpt><trkpt lat="46.1179616" lon="13.5209387"><ele>153.0</ele><time>2026-05-03T07:08:43.154Z</time></trkpt><trkpt lat="46.1178899" lon="13.5208746"><ele>153.0</ele><time>2026-05-03T07:08:44.154Z</time></trkpt><trkpt lat="46.1178206" lon="13.5208068"><ele>153.0</ele><time>2026-05-03T07:08:45.153Z</time></trkpt><trkpt lat="46.1177593" lon="13.5207421"><ele>153.0</ele><time>2026-05-03T07:08:46.154Z</time></trkpt><trkpt lat="46.1176951" lon="13.5206614"><ele>153.0</ele><time>2026-05-03T07:08:47.153Z</time></trkpt><trkpt lat="46.1176345" lon="13.5205748"><ele>153.0</ele><time>2026-05-03T07:08:48.154Z</time></trkpt><trkpt lat="46.1175809" lon="13.5204896"><ele>153.0</ele><time>2026-05-03T07:08:49.154Z</time></trkpt><trkpt lat="46.117536" lon="13.5204142"><ele>153.0</ele><time>2026-05-03T07:08:50.153Z</time></trkpt><trkpt lat="46.1174998" lon="13.5203373"><ele>153.0</ele><time>2026-05-03T07:08:51.153Z</time></trkpt><trkpt lat="46.1174718" lon="13.5202388"><ele>152.8</ele><time>2026-05-03T07:08:52.154Z</time></trkpt><trkpt lat="46.1174439" lon="13.5201126"><ele>152.60000000000002</ele><time>2026-05-03T07:08:53.154Z</time></trkpt><trkpt lat="46.1174092" lon="13.5199901"><ele>152.39999999999998</ele><time>2026-05-03T07:08:54.154Z</time></trkpt><trkpt lat="46.1173724" lon="13.5198668"><ele>152.2</ele><time>2026-05-03T07:08:55.154Z</time></trkpt><trkpt lat="46.117325" lon="13.5197321"><ele>152.0</ele><time>2026-05-03T07:08:56.153Z</time></trkpt><trkpt lat="46.1172829" lon="13.519633"><ele>152.4</ele><time>2026-05-03T07:08:57.154Z</time></trkpt><trkpt lat="46.1171935" lon="13.5195248"><ele>152.79999999999998</ele><time>2026-05-03T07:08:59.153Z</time></trkpt><trkpt lat="46.1171199" lon="13.5194602"><ele>153.2</ele><time>2026-05-03T07:09:00.154Z</time></trkpt><trkpt lat="46.1170349" lon="13.5193961"><ele>153.6</ele><time>2026-05-03T07:09:01.154Z</time></trkpt><trkpt lat="46.116976" lon="13.5193531"><ele>154.0</ele><time>2026-05-03T07:09:02.153Z</time></trkpt><trkpt lat="46.1168909" lon="13.5192927"><ele>154.0</ele><time>2026-05-03T07:09:04.153Z</time></trkpt><trkpt lat="46.1167919" lon="13.5192206"><ele>154.0</ele><time>2026-05-03T07:09:06.154Z</time></trkpt><trkpt lat="46.1167192" lon="13.5191574"><ele>154.0</ele><time>2026-05-03T07:09:07.153Z</time></trkpt><trkpt lat="46.1166375" lon="13.5190988"><ele>154.0</ele><time>2026-05-03T07:09:08.154Z</time></trkpt><trkpt lat="46.1165192" lon="13.5189766"><ele>154.0</ele><time>2026-05-03T07:09:10.154Z</time></trkpt><trkpt lat="46.1164629" lon="13.5189152"><ele>153.4</ele><time>2026-05-03T07:09:11.153Z</time></trkpt><trkpt lat="46.1163672" lon="13.51877"><ele>152.8</ele><time>2026-05-03T07:09:13.154Z</time></trkpt><trkpt lat="46.1163043" lon="13.5186861"><ele>152.2</ele><time>2026-05-03T07:09:14.154Z</time></trkpt><trkpt lat="46.1162338" lon="13.5186278"><ele>151.6</ele><time>2026-05-03T07:09:15.154Z</time></trkpt><trkpt lat="46.1161708" lon="13.5185813"><ele>151.0</ele><time>2026-05-03T07:09:16.154Z</time></trkpt><trkpt lat="46.1161023" lon="13.5185386"><ele>151.0</ele><time>2026-05-03T07:09:17.154Z</time></trkpt><trkpt lat="46.1160251" lon="13.5184984"><ele>151.0</ele><time>2026-05-03T07:09:18.154Z</time></trkpt><trkpt lat="46.1159554" lon="13.5184548"><ele>151.0</ele><time>2026-05-03T07:09:19.153Z</time></trkpt><trkpt lat="46.1158769" lon="13.5183951"><ele>151.0</ele><time>2026-05-03T07:09:20.154Z</time></trkpt><trkpt lat="46.1157673" lon="13.518281"><ele>151.0</ele><time>2026-05-03T07:09:21.154Z</time></trkpt><trkpt lat="46.1156764" lon="13.5182011"><ele>151.0</ele><time>2026-05-03T07:09:22.154Z</time></trkpt><trkpt lat="46.1156015" lon="13.5181288"><ele>151.0</ele><time>2026-05-03T07:09:23.154Z</time></trkpt><trkpt lat="46.1155413" lon="13.5180564"><ele>151.0</ele><time>2026-05-03T07:09:24.154Z</time></trkpt><trkpt lat="46.115497" lon="13.5179793"><ele>151.0</ele><time>2026-05-03T07:09:25.153Z</time></trkpt><trkpt lat="46.1154359" lon="13.5178672"><ele>151.0</ele><time>2026-05-03T07:09:26.153Z</time></trkpt><trkpt lat="46.1153718" lon="13.5177669"><ele>151.0</ele><time>2026-05-03T07:09:27.154Z</time></trkpt><trkpt lat="46.1153215" lon="13.5176451"><ele>151.2</ele><time>2026-05-03T07:09:28.154Z</time></trkpt><trkpt lat="46.1152544" lon="13.5175442"><ele>151.39999999999998</ele><time>2026-05-03T07:09:29.154Z</time></trkpt><trkpt lat="46.115179" lon="13.5174351"><ele>151.6</ele><time>2026-05-03T07:09:30.153Z</time></trkpt><trkpt lat="46.1151131" lon="13.5173548"><ele>151.79999999999998</ele><time>2026-05-03T07:09:31.154Z</time></trkpt><trkpt lat="46.1150465" lon="13.517269"><ele>152.0</ele><time>2026-05-03T07:09:32.154Z</time></trkpt><trkpt lat="46.1149883" lon="13.5171665"><ele>151.6</ele><time>2026-05-03T07:09:33.154Z</time></trkpt><trkpt lat="46.1149146" lon="13.5170362"><ele>151.2</ele><time>2026-05-03T07:09:34.154Z</time></trkpt><trkpt lat="46.1148531" lon="13.5169219"><ele>150.8</ele><time>2026-05-03T07:09:35.154Z</time></trkpt><trkpt lat="46.1147973" lon="13.5168187"><ele>150.4</ele><time>2026-05-03T07:09:36.154Z</time></trkpt><trkpt lat="46.1147469" lon="13.5167306"><ele>150.0</ele><time>2026-05-03T07:09:37.154Z</time></trkpt><trkpt lat="46.1146951" lon="13.5166136"><ele>153.66666666666666</ele><time>2026-05-03T07:09:38.154Z</time></trkpt><trkpt lat="46.1146603" lon="13.5164971"><ele>157.33333333333334</ele><time>2026-05-03T07:09:39.153Z</time></trkpt><trkpt lat="46.1146263" lon="13.5163852"><ele>161.0</ele><time>2026-05-03T07:09:40.153Z</time></trkpt><trkpt lat="46.1146008" lon="13.5162639"><ele>164.66666666666669</ele><time>2026-05-03T07:09:41.153Z</time></trkpt><trkpt lat="46.114576" lon="13.5161481"><ele>168.33333333333334</ele><time>2026-05-03T07:09:42.154Z</time></trkpt><trkpt lat="46.1145401" lon="13.5160349"><ele>172.0</ele><time>2026-05-03T07:09:43.153Z</time></trkpt><trkpt lat="46.1145041" lon="13.515937"><ele>172.0</ele><time>2026-05-03T07:09:44.154Z</time></trkpt><trkpt lat="46.1144595" lon="13.5157904"><ele>172.0</ele><time>2026-05-03T07:09:46.154Z</time></trkpt><trkpt lat="46.1144602" lon="13.5155995"><ele>172.0</ele><time>2026-05-03T07:09:48.154Z</time></trkpt><trkpt lat="46.1144705" lon="13.5154767"><ele>172.0</ele><time>2026-05-03T07:09:49.154Z</time></trkpt><trkpt lat="46.1144522" lon="13.5153337"><ele>172.0</ele><time>2026-05-03T07:09:50.153Z</time></trkpt><trkpt lat="46.1144506" lon="13.5151626"><ele>171.5</ele><time>2026-05-03T07:09:51.154Z</time></trkpt><trkpt lat="46.1144403" lon="13.5150296"><ele>171.0</ele><time>2026-05-03T07:09:52.154Z</time></trkpt><trkpt lat="46.1144309" lon="13.5149047"><ele>170.5</ele><time>2026-05-03T07:09:53.153Z</time></trkpt><trkpt lat="46.1144235" lon="13.5147871"><ele>170.0</ele><time>2026-05-03T07:09:54.152Z</time></trkpt><trkpt lat="46.1144182" lon="13.5146811"><ele>169.5</ele><time>2026-05-03T07:09:55.153Z</time></trkpt><trkpt lat="46.1144026" lon="13.514576"><ele>169.0</ele><time>2026-05-03T07:09:56.153Z</time></trkpt><trkpt lat="46.1143764" lon="13.5144534"><ele>168.33333333333334</ele><time>2026-05-03T07:09:57.152Z</time></trkpt><trkpt lat="46.114354" lon="13.5143283"><ele>167.66666666666669</ele><time>2026-05-03T07:09:58.153Z</time></trkpt><trkpt lat="46.1143369" lon="13.5142079"><ele>167.0</ele><time>2026-05-03T07:09:59.152Z</time></trkpt><trkpt lat="46.1143244" lon="13.5140874"><ele>166.33333333333334</ele><time>2026-05-03T07:10:00.153Z</time></trkpt><trkpt lat="46.1143081" lon="13.5139805"><ele>165.66666666666666</ele><time>2026-05-03T07:10:01.153Z</time></trkpt><trkpt lat="46.1142824" lon="13.5138822"><ele>165.0</ele><time>2026-05-03T07:10:02.152Z</time></trkpt><trkpt lat="46.1142372" lon="13.5137859"><ele>164.4</ele><time>2026-05-03T07:10:03.152Z</time></trkpt><trkpt lat="46.1141848" lon="13.5136617"><ele>163.8</ele><time>2026-05-03T07:10:04.153Z</time></trkpt><trkpt lat="46.1141455" lon="13.5135395"><ele>163.2</ele><time>2026-05-03T07:10:05.153Z</time></trkpt><trkpt lat="46.1141118" lon="13.5134312"><ele>162.6</ele><time>2026-05-03T07:10:06.153Z</time></trkpt><trkpt lat="46.1140721" lon="13.5133054"><ele>162.0</ele><time>2026-05-03T07:10:07.152Z</time></trkpt><trkpt lat="46.1140604" lon="13.5131834"><ele>164.8</ele><time>2026-05-03T07:10:08.152Z</time></trkpt><trkpt lat="46.1140505" lon="13.5130618"><ele>167.6</ele><time>2026-05-03T07:10:09.153Z</time></trkpt><trkpt lat="46.1140161" lon="13.5128792"><ele>170.4</ele><time>2026-05-03T07:10:10.153Z</time></trkpt><trkpt lat="46.1140109" lon="13.512773"><ele>173.20000000000002</ele><time>2026-05-03T07:10:11.153Z</time></trkpt><trkpt lat="46.113984" lon="13.5126295"><ele>176.0</ele><time>2026-05-03T07:10:12.153Z</time></trkpt><trkpt lat="46.1139586" lon="13.5124986"><ele>176.0</ele><time>2026-05-03T07:10:13.152Z</time></trkpt><trkpt lat="46.1139185" lon="13.5123405"><ele>176.0</ele><time>2026-05-03T07:10:14.152Z</time></trkpt><trkpt lat="46.1138737" lon="13.5121815"><ele>176.0</ele><time>2026-05-03T07:10:15.152Z</time></trkpt><trkpt lat="46.1138468" lon="13.5120488"><ele>176.0</ele><time>2026-05-03T07:10:16.153Z</time></trkpt><trkpt lat="46.1138237" lon="13.5119401"><ele>176.0</ele><time>2026-05-03T07:10:17.153Z</time></trkpt><trkpt lat="46.1138013" lon="13.5118234"><ele>173.4</ele><time>2026-05-03T07:10:18.153Z</time></trkpt><trkpt lat="46.1138042" lon="13.5117194"><ele>170.8</ele><time>2026-05-03T07:10:19.153Z</time></trkpt><trkpt lat="46.1138216" lon="13.5115645"><ele>168.20000000000002</ele><time>2026-05-03T07:10:20.153Z</time></trkpt><trkpt lat="46.1138293" lon="13.5114058"><ele>165.60000000000002</ele><time>2026-05-03T07:10:21.153Z</time></trkpt><trkpt lat="46.1138282" lon="13.5112408"><ele>163.0</ele><time>2026-05-03T07:10:22.153Z</time></trkpt><trkpt lat="46.1138383" lon="13.5110925"><ele>163.0</ele><time>2026-05-03T07:10:23.153Z</time></trkpt><trkpt lat="46.1138407" lon="13.5109532"><ele>163.0</ele><time>2026-05-03T07:10:24.152Z</time></trkpt><trkpt lat="46.1138368" lon="13.5108039"><ele>163.0</ele><time>2026-05-03T07:10:25.153Z</time></trkpt><trkpt lat="46.1138223" lon="13.5106425"><ele>163.0</ele><time>2026-05-03T07:10:26.153Z</time></trkpt><trkpt lat="46.1138095" lon="13.510486"><ele>163.0</ele><time>2026-05-03T07:10:27.152Z</time></trkpt><trkpt lat="46.1137968" lon="13.5103158"><ele>163.0</ele><time>2026-05-03T07:10:28.152Z</time></trkpt><trkpt lat="46.1137843" lon="13.5101403"><ele>163.0</ele><time>2026-05-03T07:10:29.153Z</time></trkpt><trkpt lat="46.1137755" lon="13.509987"><ele>163.0</ele><time>2026-05-03T07:10:30.153Z</time></trkpt><trkpt lat="46.1137652" lon="13.5098508"><ele>163.0</ele><time>2026-05-03T07:10:31.152Z</time></trkpt><trkpt lat="46.1137557" lon="13.509726"><ele>163.0</ele><time>2026-05-03T07:10:32.153Z</time></trkpt><trkpt lat="46.1137506" lon="13.5096184"><ele>162.0</ele><time>2026-05-03T07:10:33.153Z</time></trkpt><trkpt lat="46.1137404" lon="13.509449"><ele>161.0</ele><time>2026-05-03T07:10:35.153Z</time></trkpt><trkpt lat="46.1137778" lon="13.5093419"><ele>160.0</ele><time>2026-05-03T07:10:37.152Z</time></trkpt><trkpt lat="46.1138631" lon="13.5092782"><ele>159.0</ele><time>2026-05-03T07:10:39.153Z</time></trkpt><trkpt lat="46.1139464" lon="13.50923"><ele>158.0</ele><time>2026-05-03T07:10:41.153Z</time></trkpt><trkpt lat="46.1139732" lon="13.5091026"><ele>158.0</ele><time>2026-05-03T07:10:44.153Z</time></trkpt><trkpt lat="46.1139167" lon="13.5089862"><ele>158.0</ele><time>2026-05-03T07:10:46.152Z</time></trkpt><trkpt lat="46.1138226" lon="13.5088496"><ele>158.0</ele><time>2026-05-03T07:10:48.153Z</time></trkpt><trkpt lat="46.1137726" lon="13.5087713"><ele>158.0</ele><time>2026-05-03T07:10:49.153Z</time></trkpt><trkpt lat="46.1137194" lon="13.5086906"><ele>158.0</ele><time>2026-05-03T07:10:50.153Z</time></trkpt><trkpt lat="46.11366" lon="13.508607"><ele>157.4</ele><time>2026-05-03T07:10:51.153Z</time></trkpt><trkpt lat="46.1136025" lon="13.5085244"><ele>156.8</ele><time>2026-05-03T07:10:52.153Z</time></trkpt><trkpt lat="46.1135419" lon="13.5084273"><ele>156.2</ele><time>2026-05-03T07:10:53.153Z</time></trkpt><trkpt lat="46.1134807" lon="13.5083203"><ele>155.6</ele><time>2026-05-03T07:10:54.152Z</time></trkpt><trkpt lat="46.1134195" lon="13.5082052"><ele>155.0</ele><time>2026-05-03T07:10:55.152Z</time></trkpt><trkpt lat="46.1133651" lon="13.5080783"><ele>155.0</ele><time>2026-05-03T07:10:56.153Z</time></trkpt><trkpt lat="46.1133342" lon="13.5079303"><ele>155.0</ele><time>2026-05-03T07:10:57.152Z</time></trkpt><trkpt lat="46.1133166" lon="13.5077771"><ele>155.0</ele><time>2026-05-03T07:10:58.153Z</time></trkpt><trkpt lat="46.1132955" lon="13.5076614"><ele>155.0</ele><time>2026-05-03T07:10:59.153Z</time></trkpt><trkpt lat="46.1132394" lon="13.5075052"><ele>155.0</ele><time>2026-05-03T07:11:01.153Z</time></trkpt><trkpt lat="46.1131989" lon="13.5074167"><ele>158.33333333333331</ele><time>2026-05-03T07:11:02.153Z</time></trkpt><trkpt lat="46.1131596" lon="13.5073267"><ele>161.66666666666666</ele><time>2026-05-03T07:11:03.152Z</time></trkpt><trkpt lat="46.113118" lon="13.5072254"><ele>165.0</ele><time>2026-05-03T07:11:04.153Z</time></trkpt><trkpt lat="46.1130687" lon="13.5071114"><ele>168.33333333333334</ele><time>2026-05-03T07:11:05.153Z</time></trkpt><trkpt lat="46.1130136" lon="13.5069988"><ele>171.66666666666669</ele><time>2026-05-03T07:11:06.153Z</time></trkpt><trkpt lat="46.112965" lon="13.5069246"><ele>175.0</ele><time>2026-05-03T07:11:07.153Z</time></trkpt><trkpt lat="46.112903" lon="13.5068508"><ele>175.0</ele><time>2026-05-03T07:11:08.153Z</time></trkpt><trkpt lat="46.1128346" lon="13.5067847"><ele>175.0</ele><time>2026-05-03T07:11:09.153Z</time></trkpt><trkpt lat="46.1127554" lon="13.5067225"><ele>175.0</ele><time>2026-05-03T07:11:10.153Z</time></trkpt><trkpt lat="46.1126811" lon="13.5066403"><ele>175.0</ele><time>2026-05-03T07:11:11.153Z</time></trkpt><trkpt lat="46.1126171" lon="13.5065316"><ele>175.0</ele><time>2026-05-03T07:11:12.153Z</time></trkpt><trkpt lat="46.1125534" lon="13.506399"><ele>175.0</ele><time>2026-05-03T07:11:13.153Z</time></trkpt><trkpt lat="46.1124748" lon="13.5062826"><ele>175.0</ele><time>2026-05-03T07:11:14.153Z</time></trkpt><trkpt lat="46.1123925" lon="13.5061663"><ele>175.0</ele><time>2026-05-03T07:11:15.152Z</time></trkpt><trkpt lat="46.1123081" lon="13.5060463"><ele>175.0</ele><time>2026-05-03T07:11:16.153Z</time></trkpt><trkpt lat="46.11223" lon="13.5059195"><ele>172.6</ele><time>2026-05-03T07:11:17.153Z</time></trkpt><trkpt lat="46.1121498" lon="13.5057925"><ele>170.2</ele><time>2026-05-03T07:11:18.152Z</time></trkpt><trkpt lat="46.1120674" lon="13.5056696"><ele>167.8</ele><time>2026-05-03T07:11:19.153Z</time></trkpt><trkpt lat="46.1120012" lon="13.5055556"><ele>165.4</ele><time>2026-05-03T07:11:20.153Z</time></trkpt><trkpt lat="46.1119386" lon="13.5054504"><ele>163.0</ele><time>2026-05-03T07:11:21.153Z</time></trkpt><trkpt lat="46.1118905" lon="13.5053461"><ele>160.4</ele><time>2026-05-03T07:11:22.153Z</time></trkpt><trkpt lat="46.1118517" lon="13.5052298"><ele>157.8</ele><time>2026-05-03T07:11:23.152Z</time></trkpt><trkpt lat="46.1118313" lon="13.5051149"><ele>155.2</ele><time>2026-05-03T07:11:24.153Z</time></trkpt><trkpt lat="46.1118383" lon="13.5049954"><ele>152.6</ele><time>2026-05-03T07:11:25.153Z</time></trkpt><trkpt lat="46.1118745" lon="13.504857"><ele>150.0</ele><time>2026-05-03T07:11:26.152Z</time></trkpt><trkpt lat="46.1119282" lon="13.5047019"><ele>150.0</ele><time>2026-05-03T07:11:27.153Z</time></trkpt><trkpt lat="46.1119861" lon="13.5045314"><ele>150.0</ele><time>2026-05-03T07:11:28.152Z</time></trkpt><trkpt lat="46.1120421" lon="13.5043585"><ele>150.0</ele><time>2026-05-03T07:11:29.153Z</time></trkpt><trkpt lat="46.1120968" lon="13.5042052"><ele>150.0</ele><time>2026-05-03T07:11:30.153Z</time></trkpt><trkpt lat="46.1121459" lon="13.5040598"><ele>150.0</ele><time>2026-05-03T07:11:31.153Z</time></trkpt><trkpt lat="46.1121927" lon="13.5039293"><ele>150.0</ele><time>2026-05-03T07:11:32.153Z</time></trkpt><trkpt lat="46.1122345" lon="13.5038089"><ele>150.0</ele><time>2026-05-03T07:11:33.152Z</time></trkpt><trkpt lat="46.1122626" lon="13.5036851"><ele>150.0</ele><time>2026-05-03T07:11:34.153Z</time></trkpt><trkpt lat="46.1122783" lon="13.5035594"><ele>150.0</ele><time>2026-05-03T07:11:35.153Z</time></trkpt><trkpt lat="46.1122842" lon="13.5034356"><ele>150.0</ele><time>2026-05-03T07:11:36.153Z</time></trkpt><trkpt lat="46.1122831" lon="13.5033335"><ele>150.0</ele><time>2026-05-03T07:11:37.153Z</time></trkpt><trkpt lat="46.1123159" lon="13.5031956"><ele>150.0</ele><time>2026-05-03T07:11:39.153Z</time></trkpt><trkpt lat="46.1123924" lon="13.5031388"><ele>150.0</ele><time>2026-05-03T07:11:41.152Z</time></trkpt><trkpt lat="46.1124746" lon="13.5031315"><ele>150.0</ele><time>2026-05-03T07:11:42.153Z</time></trkpt><trkpt lat="46.1125704" lon="13.503121"><ele>150.0</ele><time>2026-05-03T07:11:43.153Z</time></trkpt><trkpt lat="46.1126543" lon="13.5030917"><ele>150.0</ele><time>2026-05-03T07:11:44.153Z</time></trkpt><trkpt lat="46.1127268" lon="13.5030466"><ele>150.0</ele><time>2026-05-03T07:11:46.153Z</time></trkpt><trkpt lat="46.1128036" lon="13.5029895"><ele>150.0</ele><time>2026-05-03T07:11:47.153Z</time></trkpt><trkpt lat="46.1128792" lon="13.5029277"><ele>150.0</ele><time>2026-05-03T07:11:48.153Z</time></trkpt><trkpt lat="46.1129458" lon="13.5028492"><ele>150.0</ele><time>2026-05-03T07:11:49.153Z</time></trkpt><trkpt lat="46.1130119" lon="13.5027471"><ele>150.0</ele><time>2026-05-03T07:11:50.152Z</time></trkpt><trkpt lat="46.113083" lon="13.5026519"><ele>149.8</ele><time>2026-05-03T07:11:51.153Z</time></trkpt><trkpt lat="46.1131498" lon="13.502547"><ele>149.6</ele><time>2026-05-03T07:11:52.152Z</time></trkpt><trkpt lat="46.113216" lon="13.5024371"><ele>149.4</ele><time>2026-05-03T07:11:53.153Z</time></trkpt><trkpt lat="46.1132757" lon="13.5023222"><ele>149.2</ele><time>2026-05-03T07:11:54.153Z</time></trkpt><trkpt lat="46.1133272" lon="13.5022064"><ele>149.0</ele><time>2026-05-03T07:11:55.153Z</time></trkpt><trkpt lat="46.113367" lon="13.502072"><ele>150.6</ele><time>2026-05-03T07:11:56.153Z</time></trkpt><trkpt lat="46.1133959" lon="13.5019352"><ele>152.2</ele><time>2026-05-03T07:11:57.153Z</time></trkpt><trkpt lat="46.1134301" lon="13.5018141"><ele>153.79999999999998</ele><time>2026-05-03T07:11:58.153Z</time></trkpt><trkpt lat="46.1134786" lon="13.5016871"><ele>155.4</ele><time>2026-05-03T07:11:59.152Z</time></trkpt><trkpt lat="46.1135297" lon="13.501575"><ele>157.0</ele><time>2026-05-03T07:12:00.153Z</time></trkpt><trkpt lat="46.1135772" lon="13.5014553"><ele>157.0</ele><time>2026-05-03T07:12:01.153Z</time></trkpt><trkpt lat="46.1136295" lon="13.5013224"><ele>157.0</ele><time>2026-05-03T07:12:02.153Z</time></trkpt><trkpt lat="46.1136785" lon="13.5011909"><ele>157.0</ele><time>2026-05-03T07:12:03.153Z</time></trkpt><trkpt lat="46.1137191" lon="13.5010531"><ele>157.0</ele><time>2026-05-03T07:12:04.153Z</time></trkpt><trkpt lat="46.1137553" lon="13.5009054"><ele>157.0</ele><time>2026-05-03T07:12:05.153Z</time></trkpt><trkpt lat="46.1137811" lon="13.5007641"><ele>155.5</ele><time>2026-05-03T07:12:06.152Z</time></trkpt><trkpt lat="46.1138009" lon="13.5006034"><ele>154.0</ele><time>2026-05-03T07:12:07.153Z</time></trkpt><trkpt lat="46.1138194" lon="13.5004314"><ele>152.5</ele><time>2026-05-03T07:12:08.153Z</time></trkpt><trkpt lat="46.1138364" lon="13.5002593"><ele>151.0</ele><time>2026-05-03T07:12:09.152Z</time></trkpt><trkpt lat="46.1138543" lon="13.5000898"><ele>149.25</ele><time>2026-05-03T07:12:10.153Z</time></trkpt><trkpt lat="46.1138754" lon="13.4999198"><ele>147.5</ele><time>2026-05-03T07:12:11.153Z</time></trkpt><trkpt lat="46.113891" lon="13.499743"><ele>145.75</ele><time>2026-05-03T07:12:12.153Z</time></trkpt><trkpt lat="46.1139095" lon="13.4995631"><ele>144.0</ele><time>2026-05-03T07:12:13.153Z</time></trkpt><trkpt lat="46.1139297" lon="13.4993714"><ele>143.5</ele><time>2026-05-03T07:12:14.153Z</time></trkpt><trkpt lat="46.1139522" lon="13.4991752"><ele>143.0</ele><time>2026-05-03T07:12:15.153Z</time></trkpt><trkpt lat="46.1139715" lon="13.4989772"><ele>142.5</ele><time>2026-05-03T07:12:16.153Z</time></trkpt><trkpt lat="46.1139926" lon="13.498786"><ele>142.0</ele><time>2026-05-03T07:12:17.152Z</time></trkpt><trkpt lat="46.1140108" lon="13.4985941"><ele>141.75</ele><time>2026-05-03T07:12:18.153Z</time></trkpt><trkpt lat="46.114035" lon="13.4984107"><ele>141.5</ele><time>2026-05-03T07:12:19.153Z</time></trkpt><trkpt lat="46.114057" lon="13.4982175"><ele>141.25</ele><time>2026-05-03T07:12:20.153Z</time></trkpt><trkpt lat="46.1140805" lon="13.49802"><ele>141.0</ele><time>2026-05-03T07:12:21.153Z</time></trkpt><trkpt lat="46.114097" lon="13.4978352"><ele>141.0</ele><time>2026-05-03T07:12:22.153Z</time></trkpt><trkpt lat="46.114114" lon="13.4976481"><ele>141.0</ele><time>2026-05-03T07:12:23.152Z</time></trkpt><trkpt lat="46.1141309" lon="13.4974605"><ele>141.0</ele><time>2026-05-03T07:12:24.153Z</time></trkpt><trkpt lat="46.1141465" lon="13.4972706"><ele>141.0</ele><time>2026-05-03T07:12:25.152Z</time></trkpt><trkpt lat="46.1141617" lon="13.4970861"><ele>140.5</ele><time>2026-05-03T07:12:26.153Z</time></trkpt><trkpt lat="46.114183" lon="13.496902"><ele>140.0</ele><time>2026-05-03T07:12:27.153Z</time></trkpt><trkpt lat="46.114205" lon="13.4967142"><ele>139.5</ele><time>2026-05-03T07:12:28.152Z</time></trkpt><trkpt lat="46.1142274" lon="13.496524"><ele>139.0</ele><time>2026-05-03T07:12:29.153Z</time></trkpt><trkpt lat="46.1142454" lon="13.4963278"><ele>139.5</ele><time>2026-05-03T07:12:30.153Z</time></trkpt><trkpt lat="46.1142649" lon="13.4961387"><ele>140.0</ele><time>2026-05-03T07:12:31.153Z</time></trkpt><trkpt lat="46.1142851" lon="13.4959659"><ele>140.5</ele><time>2026-05-03T07:12:32.153Z</time></trkpt><trkpt lat="46.1143059" lon="13.4957877"><ele>141.0</ele><time>2026-05-03T07:12:33.153Z</time></trkpt><trkpt lat="46.1143308" lon="13.4956104"><ele>141.0</ele><time>2026-05-03T07:12:34.153Z</time></trkpt><trkpt lat="46.1143483" lon="13.4954267"><ele>141.0</ele><time>2026-05-03T07:12:35.153Z</time></trkpt><trkpt lat="46.1143594" lon="13.4952457"><ele>141.0</ele><time>2026-05-03T07:12:36.153Z</time></trkpt><trkpt lat="46.1143602" lon="13.4950749"><ele>141.0</ele><time>2026-05-03T07:12:37.153Z</time></trkpt><trkpt lat="46.1143547" lon="13.4948911"><ele>140.6</ele><time>2026-05-03T07:12:38.152Z</time></trkpt><trkpt lat="46.1143452" lon="13.4947098"><ele>140.2</ele><time>2026-05-03T07:12:39.153Z</time></trkpt><trkpt lat="46.1143302" lon="13.4945539"><ele>139.8</ele><time>2026-05-03T07:12:40.152Z</time></trkpt><trkpt lat="46.1143119" lon="13.4944063"><ele>139.4</ele><time>2026-05-03T07:12:41.152Z</time></trkpt><trkpt lat="46.1142885" lon="13.4942511"><ele>139.0</ele><time>2026-05-03T07:12:42.153Z</time></trkpt><trkpt lat="46.1142514" lon="13.49409"><ele>138.75</ele><time>2026-05-03T07:12:43.153Z</time></trkpt><trkpt lat="46.1141998" lon="13.4939081"><ele>138.5</ele><time>2026-05-03T07:12:44.153Z</time></trkpt><trkpt lat="46.1141528" lon="13.4937292"><ele>138.25</ele><time>2026-05-03T07:12:45.153Z</time></trkpt><trkpt lat="46.1141123" lon="13.4935501"><ele>138.0</ele><time>2026-05-03T07:12:46.152Z</time></trkpt><trkpt lat="46.1140636" lon="13.4933764"><ele>138.0</ele><time>2026-05-03T07:12:47.153Z</time></trkpt><trkpt lat="46.1140176" lon="13.4932065"><ele>138.0</ele><time>2026-05-03T07:12:48.153Z</time></trkpt><trkpt lat="46.113965" lon="13.4930426"><ele>138.0</ele><time>2026-05-03T07:12:49.153Z</time></trkpt><trkpt lat="46.1139192" lon="13.4928753"><ele>138.0</ele><time>2026-05-03T07:12:50.153Z</time></trkpt><trkpt lat="46.1138732" lon="13.4927145"><ele>138.0</ele><time>2026-05-03T07:12:51.153Z</time></trkpt><trkpt lat="46.1138359" lon="13.4925615"><ele>138.0</ele><time>2026-05-03T07:12:52.152Z</time></trkpt><trkpt lat="46.1137977" lon="13.4924149"><ele>138.0</ele><time>2026-05-03T07:12:53.153Z</time></trkpt><trkpt lat="46.1137611" lon="13.4922831"><ele>138.0</ele><time>2026-05-03T07:12:54.152Z</time></trkpt><trkpt lat="46.1137258" lon="13.4921592"><ele>138.0</ele><time>2026-05-03T07:12:55.153Z</time></trkpt><trkpt lat="46.113691" lon="13.492056"><ele>138.0</ele><time>2026-05-03T07:12:56.152Z</time></trkpt><trkpt lat="46.1136549" lon="13.4919588"><ele>138.0</ele><time>2026-05-03T07:12:57.153Z</time></trkpt><trkpt lat="46.1136046" lon="13.4918745"><ele>138.0</ele><time>2026-05-03T07:12:58.153Z</time></trkpt><trkpt lat="46.1134862" lon="13.4918234"><ele>138.0</ele><time>2026-05-03T07:13:00.152Z</time></trkpt><trkpt lat="46.1133962" lon="13.4917965"><ele>138.0</ele><time>2026-05-03T07:13:01.153Z</time></trkpt><trkpt lat="46.1133126" lon="13.4917683"><ele>138.0</ele><time>2026-05-03T07:13:02.153Z</time></trkpt><trkpt lat="46.113239" lon="13.4917518"><ele>138.0</ele><time>2026-05-03T07:13:03.153Z</time></trkpt><trkpt lat="46.1131271" lon="13.4917664"><ele>138.0</ele><time>2026-05-03T07:13:05.153Z</time></trkpt><trkpt lat="46.1130276" lon="13.4917495"><ele>138.0</ele><time>2026-05-03T07:13:07.153Z</time></trkpt><trkpt lat="46.1129396" lon="13.4916278"><ele>138.0</ele><time>2026-05-03T07:13:09.153Z</time></trkpt><trkpt lat="46.1128996" lon="13.4915158"><ele>141.83333333333334</ele><time>2026-05-03T07:13:10.153Z</time></trkpt><trkpt lat="46.1128676" lon="13.4913841"><ele>145.66666666666666</ele><time>2026-05-03T07:13:11.153Z</time></trkpt><trkpt lat="46.1128375" lon="13.4912645"><ele>149.5</ele><time>2026-05-03T07:13:12.153Z</time></trkpt><trkpt lat="46.1128152" lon="13.4911542"><ele>153.33333333333331</ele><time>2026-05-03T07:13:13.152Z</time></trkpt><trkpt lat="46.112816" lon="13.4910388"><ele>157.16666666666666</ele><time>2026-05-03T07:13:14.153Z</time></trkpt><trkpt lat="46.1128241" lon="13.4909127"><ele>161.0</ele><time>2026-05-03T07:13:15.152Z</time></trkpt><trkpt lat="46.112832" lon="13.4907732"><ele>162.8</ele><time>2026-05-03T07:13:16.152Z</time></trkpt><trkpt lat="46.1128448" lon="13.4906218"><ele>164.60000000000002</ele><time>2026-05-03T07:13:17.153Z</time></trkpt><trkpt lat="46.1128539" lon="13.4904725"><ele>166.4</ele><time>2026-05-03T07:13:18.153Z</time></trkpt><trkpt lat="46.1128579" lon="13.4903304"><ele>168.2</ele><time>2026-05-03T07:13:19.153Z</time></trkpt><trkpt lat="46.1128647" lon="13.4901894"><ele>170.0</ele><time>2026-05-03T07:13:20.153Z</time></trkpt><trkpt lat="46.1128811" lon="13.4900464"><ele>171.2</ele><time>2026-05-03T07:13:21.153Z</time></trkpt><trkpt lat="46.112898" lon="13.4898943"><ele>172.4</ele><time>2026-05-03T07:13:22.152Z</time></trkpt><trkpt lat="46.1129174" lon="13.4897537"><ele>173.60000000000002</ele><time>2026-05-03T07:13:23.152Z</time></trkpt><trkpt lat="46.1129387" lon="13.4896234"><ele>174.8</ele><time>2026-05-03T07:13:24.153Z</time></trkpt><trkpt lat="46.1129589" lon="13.4894889"><ele>176.0</ele><time>2026-05-03T07:13:25.153Z</time></trkpt><trkpt lat="46.1129756" lon="13.4893657"><ele>176.5</ele><time>2026-05-03T07:13:26.153Z</time></trkpt><trkpt lat="46.1129781" lon="13.4892443"><ele>177.0</ele><time>2026-05-03T07:13:27.153Z</time></trkpt><trkpt lat="46.1129726" lon="13.4891104"><ele>177.5</ele><time>2026-05-03T07:13:28.153Z</time></trkpt><trkpt lat="46.1129661" lon="13.4889787"><ele>178.0</ele><time>2026-05-03T07:13:29.152Z</time></trkpt><trkpt lat="46.1129576" lon="13.488852"><ele>178.5</ele><time>2026-05-03T07:13:30.153Z</time></trkpt><trkpt lat="46.1129355" lon="13.4887426"><ele>179.0</ele><time>2026-05-03T07:13:31.153Z</time></trkpt><trkpt lat="46.1128868" lon="13.4886453"><ele>176.79999999999998</ele><time>2026-05-03T07:13:32.153Z</time></trkpt><trkpt lat="46.1128105" lon="13.4885541"><ele>174.6</ele><time>2026-05-03T07:13:33.152Z</time></trkpt><trkpt lat="46.1127331" lon="13.488454"><ele>172.4</ele><time>2026-05-03T07:13:34.153Z</time></trkpt><trkpt lat="46.1126668" lon="13.4883467"><ele>170.2</ele><time>2026-05-03T07:13:35.153Z</time></trkpt><trkpt lat="46.1126016" lon="13.4882551"><ele>168.0</ele><time>2026-05-03T07:13:36.152Z</time></trkpt><trkpt lat="46.112534" lon="13.4881737"><ele>168.0</ele><time>2026-05-03T07:13:37.152Z</time></trkpt><trkpt lat="46.1124655" lon="13.4881184"><ele>168.0</ele><time>2026-05-03T07:13:38.153Z</time></trkpt><trkpt lat="46.1123929" lon="13.4880685"><ele>168.0</ele><time>2026-05-03T07:13:39.153Z</time></trkpt><trkpt lat="46.1123128" lon="13.488024"><ele>168.0</ele><time>2026-05-03T07:13:40.153Z</time></trkpt><trkpt lat="46.1122332" lon="13.4879988"><ele>168.0</ele><time>2026-05-03T07:13:41.153Z</time></trkpt><trkpt lat="46.1121551" lon="13.4879782"><ele>168.0</ele><time>2026-05-03T07:13:42.153Z</time></trkpt><trkpt lat="46.1120856" lon="13.4879275"><ele>169.85714285714286</ele><time>2026-05-03T07:13:43.153Z</time></trkpt><trkpt lat="46.1120116" lon="13.4878816"><ele>171.71428571428572</ele><time>2026-05-03T07:13:44.152Z</time></trkpt><trkpt lat="46.1119515" lon="13.4878272"><ele>173.57142857142856</ele><time>2026-05-03T07:13:45.153Z</time></trkpt><trkpt lat="46.1118905" lon="13.4877832"><ele>175.42857142857144</ele><time>2026-05-03T07:13:46.152Z</time></trkpt><trkpt lat="46.1118291" lon="13.4877352"><ele>177.28571428571428</ele><time>2026-05-03T07:13:47.152Z</time></trkpt><trkpt lat="46.11177" lon="13.4876662"><ele>179.14285714285714</ele><time>2026-05-03T07:13:48.153Z</time></trkpt><trkpt lat="46.111714" lon="13.4875801"><ele>181.0</ele><time>2026-05-03T07:13:49.153Z</time></trkpt><trkpt lat="46.1116646" lon="13.487504"><ele>183.4</ele><time>2026-05-03T07:13:50.153Z</time></trkpt><trkpt lat="46.111565" lon="13.4874369"><ele>185.8</ele><time>2026-05-03T07:13:52.152Z</time></trkpt><trkpt lat="46.1115019" lon="13.487414"><ele>188.20000000000002</ele><time>2026-05-03T07:13:53.152Z</time></trkpt><trkpt lat="46.1114316" lon="13.4874136"><ele>190.60000000000002</ele><time>2026-05-03T07:13:54.153Z</time></trkpt><trkpt lat="46.1113687" lon="13.4874014"><ele>193.0</ele><time>2026-05-03T07:13:55.153Z</time></trkpt><trkpt lat="46.1112494" lon="13.4872924"><ele>192.99999999999997</ele><time>2026-05-03T07:13:57.153Z</time></trkpt><trkpt lat="46.1111783" lon="13.4872176"><ele>193.0</ele><time>2026-05-03T07:13:58.153Z</time></trkpt><trkpt lat="46.1111071" lon="13.4871637"><ele>193.0</ele><time>2026-05-03T07:13:59.153Z</time></trkpt><trkpt lat="46.1110354" lon="13.4871019"><ele>193.0</ele><time>2026-05-03T07:14:00.152Z</time></trkpt><trkpt lat="46.1109557" lon="13.4870403"><ele>192.99999999999997</ele><time>2026-05-03T07:14:01.153Z</time></trkpt><trkpt lat="46.1108689" lon="13.4869809"><ele>193.0</ele><time>2026-05-03T07:14:02.153Z</time></trkpt><trkpt lat="46.1107876" lon="13.4869207"><ele>195.33333333333331</ele><time>2026-05-03T07:14:03.153Z</time></trkpt><trkpt lat="46.1107152" lon="13.4868639"><ele>197.66666666666666</ele><time>2026-05-03T07:14:04.152Z</time></trkpt><trkpt lat="46.1106551" lon="13.4868109"><ele>200.0</ele><time>2026-05-03T07:14:05.153Z</time></trkpt><trkpt lat="46.1106115" lon="13.486742"><ele>202.33333333333331</ele><time>2026-05-03T07:14:06.153Z</time></trkpt><trkpt lat="46.1105513" lon="13.4866119"><ele>204.66666666666666</ele><time>2026-05-03T07:14:08.152Z</time></trkpt><trkpt lat="46.1104845" lon="13.4865043"><ele>207.0</ele><time>2026-05-03T07:14:10.153Z</time></trkpt><trkpt lat="46.1103733" lon="13.4864259"><ele>207.0</ele><time>2026-05-03T07:14:12.152Z</time></trkpt><trkpt lat="46.1102692" lon="13.4863726"><ele>207.0</ele><time>2026-05-03T07:14:14.152Z</time></trkpt><trkpt lat="46.1101835" lon="13.4862852"><ele>207.0</ele><time>2026-05-03T07:14:16.152Z</time></trkpt><trkpt lat="46.1101434" lon="13.486209"><ele>207.0</ele><time>2026-05-03T07:14:17.152Z</time></trkpt><trkpt lat="46.1100778" lon="13.4860923"><ele>207.0</ele><time>2026-05-03T07:14:19.152Z</time></trkpt><trkpt lat="46.1100196" lon="13.4861602"><ele>207.0</ele><time>2026-05-03T07:14:21.152Z</time></trkpt><trkpt lat="46.1100419" lon="13.4862781"><ele>207.0</ele><time>2026-05-03T07:14:23.152Z</time></trkpt><trkpt lat="46.1100601" lon="13.4864134"><ele>207.0</ele><time>2026-05-03T07:14:25.152Z</time></trkpt><trkpt lat="46.1100654" lon="13.4865651"><ele>207.0</ele><time>2026-05-03T07:14:27.152Z</time></trkpt><trkpt lat="46.1100814" lon="13.4867046"><ele>207.0</ele><time>2026-05-03T07:14:29.152Z</time></trkpt><trkpt lat="46.1101058" lon="13.4868573"><ele>207.0</ele><time>2026-05-03T07:14:31.152Z</time></trkpt><trkpt lat="46.1101354" lon="13.4870232"><ele>207.0</ele><time>2026-05-03T07:14:33.151Z</time></trkpt><trkpt lat="46.1101689" lon="13.4872041"><ele>207.0</ele><time>2026-05-03T07:14:35.152Z</time></trkpt><trkpt lat="46.1101968" lon="13.48731"><ele>207.0</ele><time>2026-05-03T07:14:36.152Z</time></trkpt><trkpt lat="46.1102257" lon="13.4874146"><ele>207.0</ele><time>2026-05-03T07:14:37.152Z</time></trkpt><trkpt lat="46.1102453" lon="13.4875099"><ele>209.5</ele><time>2026-05-03T07:14:38.152Z</time></trkpt><trkpt lat="46.1102669" lon="13.4876703"><ele>212.0</ele><time>2026-05-03T07:14:40.152Z</time></trkpt><trkpt lat="46.1103123" lon="13.487791"><ele>214.5</ele><time>2026-05-03T07:14:42.152Z</time></trkpt><trkpt lat="46.1103948" lon="13.4879288"><ele>217.0</ele><time>2026-05-03T07:14:44.152Z</time></trkpt><trkpt lat="46.1104652" lon="13.4880619"><ele>221.0</ele><time>2026-05-03T07:14:46.152Z</time></trkpt><trkpt lat="46.1105124" lon="13.4882477"><ele>225.0</ele><time>2026-05-03T07:14:48.152Z</time></trkpt><trkpt lat="46.1105436" lon="13.4883546"><ele>229.0</ele><time>2026-05-03T07:14:49.151Z</time></trkpt><trkpt lat="46.1105691" lon="13.4884597"><ele>233.0</ele><time>2026-05-03T07:14:50.152Z</time></trkpt><trkpt lat="46.1105999" lon="13.4885675"><ele>237.0</ele><time>2026-05-03T07:14:51.152Z</time></trkpt><trkpt lat="46.1106314" lon="13.4886675"><ele>235.5</ele><time>2026-05-03T07:14:52.152Z</time></trkpt><trkpt lat="46.1106694" lon="13.4887879"><ele>234.0</ele><time>2026-05-03T07:14:53.152Z</time></trkpt><trkpt lat="46.1107046" lon="13.4888963"><ele>232.5</ele><time>2026-05-03T07:14:54.151Z</time></trkpt><trkpt lat="46.1107332" lon="13.4889899"><ele>231.0</ele><time>2026-05-03T07:14:55.152Z</time></trkpt><trkpt lat="46.1107597" lon="13.4890762"><ele>229.5</ele><time>2026-05-03T07:14:56.151Z</time></trkpt><trkpt lat="46.1108273" lon="13.4891774"><ele>228.0</ele><time>2026-05-03T07:14:58.152Z</time></trkpt><trkpt lat="46.1109248" lon="13.489272"><ele>228.0</ele><time>2026-05-03T07:15:00.152Z</time></trkpt><trkpt lat="46.1109892" lon="13.4893965"><ele>228.0</ele><time>2026-05-03T07:15:02.152Z</time></trkpt><trkpt lat="46.1110443" lon="13.4895408"><ele>228.0</ele><time>2026-05-03T07:15:04.152Z</time></trkpt><trkpt lat="46.1110796" lon="13.4896978"><ele>228.0</ele><time>2026-05-03T07:15:06.152Z</time></trkpt><trkpt lat="46.1111091" lon="13.4898549"><ele>228.0</ele><time>2026-05-03T07:15:08.152Z</time></trkpt><trkpt lat="46.1111549" lon="13.4899969"><ele>231.4</ele><time>2026-05-03T07:15:10.152Z</time></trkpt><trkpt lat="46.1112018" lon="13.4901334"><ele>234.8</ele><time>2026-05-03T07:15:12.152Z</time></trkpt><trkpt lat="46.1112387" lon="13.4902864"><ele>238.2</ele><time>2026-05-03T07:15:14.152Z</time></trkpt><trkpt lat="46.1112456" lon="13.4904254"><ele>241.6</ele><time>2026-05-03T07:15:16.152Z</time></trkpt><trkpt lat="46.1112296" lon="13.490569"><ele>245.0</ele><time>2026-05-03T07:15:18.152Z</time></trkpt><trkpt lat="46.111197" lon="13.4907222"><ele>246.71428571428572</ele><time>2026-05-03T07:15:20.152Z</time></trkpt><trkpt lat="46.111183" lon="13.4908163"><ele>248.42857142857144</ele><time>2026-05-03T07:15:21.152Z</time></trkpt><trkpt lat="46.1111642" lon="13.4909313"><ele>250.14285714285714</ele><time>2026-05-03T07:15:22.152Z</time></trkpt><trkpt lat="46.1111585" lon="13.4910269"><ele>251.85714285714286</ele><time>2026-05-03T07:15:23.152Z</time></trkpt><trkpt lat="46.1111349" lon="13.4911139"><ele>253.57142857142858</ele><time>2026-05-03T07:15:24.152Z</time></trkpt><trkpt lat="46.1111133" lon="13.4912119"><ele>255.28571428571428</ele><time>2026-05-03T07:15:25.152Z</time></trkpt><trkpt lat="46.1110949" lon="13.4913145"><ele>257.0</ele><time>2026-05-03T07:15:26.151Z</time></trkpt><trkpt lat="46.1110775" lon="13.491404"><ele>258.0</ele><time>2026-05-03T07:15:27.152Z</time></trkpt><trkpt lat="46.1110544" lon="13.4914989"><ele>259.0</ele><time>2026-05-03T07:15:28.152Z</time></trkpt><trkpt lat="46.111025" lon="13.4915901"><ele>260.0</ele><time>2026-05-03T07:15:29.152Z</time></trkpt><trkpt lat="46.1109852" lon="13.4916836"><ele>261.0</ele><time>2026-05-03T07:15:30.151Z</time></trkpt><trkpt lat="46.1109375" lon="13.4917836"><ele>262.0</ele><time>2026-05-03T07:15:31.152Z</time></trkpt><trkpt lat="46.1108907" lon="13.4918946"><ele>263.0</ele><time>2026-05-03T07:15:32.152Z</time></trkpt><trkpt lat="46.1108498" lon="13.4920036"><ele>261.85714285714283</ele><time>2026-05-03T07:15:33.151Z</time></trkpt><trkpt lat="46.1108107" lon="13.4921032"><ele>260.71428571428567</ele><time>2026-05-03T07:15:34.151Z</time></trkpt><trkpt lat="46.1107733" lon="13.4921966"><ele>259.57142857142856</ele><time>2026-05-03T07:15:35.152Z</time></trkpt><trkpt lat="46.1107494" lon="13.4923017"><ele>258.42857142857144</ele><time>2026-05-03T07:15:36.151Z</time></trkpt><trkpt lat="46.1107242" lon="13.4923922"><ele>257.28571428571433</ele><time>2026-05-03T07:15:37.152Z</time></trkpt><trkpt lat="46.1107082" lon="13.4924831"><ele>256.14285714285717</ele><time>2026-05-03T07:15:38.151Z</time></trkpt><trkpt lat="46.1106892" lon="13.4925753"><ele>255.0</ele><time>2026-05-03T07:15:39.152Z</time></trkpt><trkpt lat="46.1106641" lon="13.4926799"><ele>258.8333333333333</ele><time>2026-05-03T07:15:40.152Z</time></trkpt><trkpt lat="46.110629" lon="13.4927898"><ele>262.6666666666667</ele><time>2026-05-03T07:15:41.152Z</time></trkpt><trkpt lat="46.110597" lon="13.4928923"><ele>266.5</ele><time>2026-05-03T07:15:42.152Z</time></trkpt><trkpt lat="46.1105718" lon="13.492981"><ele>270.33333333333337</ele><time>2026-05-03T07:15:43.152Z</time></trkpt><trkpt lat="46.1105468" lon="13.4930736"><ele>274.1666666666667</ele><time>2026-05-03T07:15:44.152Z</time></trkpt><trkpt lat="46.1104938" lon="13.4932114"><ele>278.0</ele><time>2026-05-03T07:15:46.152Z</time></trkpt><trkpt lat="46.1104025" lon="13.4932826"><ele>278.0</ele><time>2026-05-03T07:15:48.151Z</time></trkpt><trkpt lat="46.1103421" lon="13.4933125"><ele>278.0</ele><time>2026-05-03T07:15:49.152Z</time></trkpt><trkpt lat="46.1102817" lon="13.4933405"><ele>278.0</ele><time>2026-05-03T07:15:50.152Z</time></trkpt><trkpt lat="46.1101723" lon="13.4933758"><ele>278.0</ele><time>2026-05-03T07:15:52.152Z</time></trkpt><trkpt lat="46.1101059" lon="13.4934013"><ele>278.0</ele><time>2026-05-03T07:15:53.151Z</time></trkpt><trkpt lat="46.1100292" lon="13.4934263"><ele>278.0</ele><time>2026-05-03T07:15:54.152Z</time></trkpt><trkpt lat="46.1099523" lon="13.4934384"><ele>279.33333333333337</ele><time>2026-05-03T07:15:55.152Z</time></trkpt><trkpt lat="46.1098794" lon="13.4934473"><ele>280.6666666666667</ele><time>2026-05-03T07:15:56.152Z</time></trkpt><trkpt lat="46.1098007" lon="13.4934573"><ele>282.0</ele><time>2026-05-03T07:15:57.152Z</time></trkpt><trkpt lat="46.1097033" lon="13.4934704"><ele>283.3333333333333</ele><time>2026-05-03T07:15:58.151Z</time></trkpt><trkpt lat="46.1096096" lon="13.4934895"><ele>284.66666666666663</ele><time>2026-05-03T07:15:59.152Z</time></trkpt><trkpt lat="46.1095414" lon="13.4935221"><ele>286.0</ele><time>2026-05-03T07:16:00.152Z</time></trkpt><trkpt lat="46.1094733" lon="13.4935486"><ele>286.0</ele><time>2026-05-03T07:16:01.151Z</time></trkpt><trkpt lat="46.1093998" lon="13.4935611"><ele>286.0</ele><time>2026-05-03T07:16:02.152Z</time></trkpt><trkpt lat="46.1093274" lon="13.4935591"><ele>286.0</ele><time>2026-05-03T07:16:03.151Z</time></trkpt><trkpt lat="46.1092127" lon="13.4935427"><ele>286.0</ele><time>2026-05-03T07:16:05.151Z</time></trkpt><trkpt lat="46.109138" lon="13.4935175"><ele>286.0</ele><time>2026-05-03T07:16:07.152Z</time></trkpt><trkpt lat="46.1091525" lon="13.4934142"><ele>286.0</ele><time>2026-05-03T07:16:11.152Z</time></trkpt><trkpt lat="46.1092231" lon="13.4934168"><ele>286.0</ele><time>2026-05-03T07:16:13.151Z</time></trkpt><trkpt lat="46.1093374" lon="13.4933793"><ele>286.0</ele><time>2026-05-03T07:16:15.151Z</time></trkpt><trkpt lat="46.1094103" lon="13.4933432"><ele>286.0</ele><time>2026-05-03T07:16:16.152Z</time></trkpt><trkpt lat="46.109476" lon="13.4933122"><ele>286.0</ele><time>2026-05-03T07:16:17.152Z</time></trkpt><trkpt lat="46.1095512" lon="13.4932758"><ele>286.0</ele><time>2026-05-03T07:16:18.152Z</time></trkpt><trkpt lat="46.10961" lon="13.4932324"><ele>286.0</ele><time>2026-05-03T07:16:19.152Z</time></trkpt><trkpt lat="46.1096778" lon="13.4931656"><ele>286.0</ele><time>2026-05-03T07:16:20.152Z</time></trkpt><trkpt lat="46.1097349" lon="13.4930906"><ele>286.0</ele><time>2026-05-03T07:16:21.152Z</time></trkpt><trkpt lat="46.1097868" lon="13.493012"><ele>286.0</ele><time>2026-05-03T07:16:22.152Z</time></trkpt><trkpt lat="46.1098287" lon="13.492927"><ele>286.0</ele><time>2026-05-03T07:16:23.152Z</time></trkpt><trkpt lat="46.1098543" lon="13.4928255"><ele>286.0</ele><time>2026-05-03T07:16:24.152Z</time></trkpt><trkpt lat="46.1098726" lon="13.4927117"><ele>286.0</ele><time>2026-05-03T07:16:25.151Z</time></trkpt><trkpt lat="46.1098853" lon="13.4925854"><ele>287.3333333333333</ele><time>2026-05-03T07:16:26.152Z</time></trkpt><trkpt lat="46.1099001" lon="13.4924468"><ele>288.66666666666663</ele><time>2026-05-03T07:16:27.151Z</time></trkpt><trkpt lat="46.1099153" lon="13.4923229"><ele>290.0</ele><time>2026-05-03T07:16:28.152Z</time></trkpt><trkpt lat="46.1099244" lon="13.4922024"><ele>291.3333333333333</ele><time>2026-05-03T07:16:29.152Z</time></trkpt><trkpt lat="46.1099255" lon="13.492099"><ele>292.6666666666667</ele><time>2026-05-03T07:16:30.152Z</time></trkpt><trkpt lat="46.1099117" lon="13.4919902"><ele>294.0</ele><time>2026-05-03T07:16:31.152Z</time></trkpt><trkpt lat="46.1098882" lon="13.4918698"><ele>297.0</ele><time>2026-05-03T07:16:32.151Z</time></trkpt><trkpt lat="46.1098638" lon="13.4917543"><ele>300.0</ele><time>2026-05-03T07:16:33.151Z</time></trkpt><trkpt lat="46.1098384" lon="13.4916554"><ele>303.0</ele><time>2026-05-03T07:16:34.152Z</time></trkpt><trkpt lat="46.1097739" lon="13.4915191"><ele>306.0</ele><time>2026-05-03T07:16:36.152Z</time></trkpt><trkpt lat="46.1096858" lon="13.4914372"><ele>309.0</ele><time>2026-05-03T07:16:38.151Z</time></trkpt><trkpt lat="46.1096149" lon="13.4914121"><ele>312.0</ele><time>2026-05-03T07:16:39.152Z</time></trkpt><trkpt lat="46.1095372" lon="13.4914036"><ele>312.0</ele><time>2026-05-03T07:16:40.152Z</time></trkpt><trkpt lat="46.1094584" lon="13.4913773"><ele>312.0</ele><time>2026-05-03T07:16:41.152Z</time></trkpt><trkpt lat="46.1093857" lon="13.491334"><ele>312.0</ele><time>2026-05-03T07:16:42.151Z</time></trkpt><trkpt lat="46.1093091" lon="13.491273"><ele>312.0</ele><time>2026-05-03T07:16:43.152Z</time></trkpt><trkpt lat="46.109236" lon="13.4911932"><ele>312.0</ele><time>2026-05-03T07:16:44.152Z</time></trkpt><trkpt lat="46.109177" lon="13.4911161"><ele>312.0</ele><time>2026-05-03T07:16:45.151Z</time></trkpt><trkpt lat="46.1091404" lon="13.4910361"><ele>312.14285714285717</ele><time>2026-05-03T07:16:46.152Z</time></trkpt><trkpt lat="46.1091133" lon="13.4909353"><ele>312.2857142857143</ele><time>2026-05-03T07:16:47.151Z</time></trkpt><trkpt lat="46.1090899" lon="13.4908451"><ele>312.42857142857144</ele><time>2026-05-03T07:16:48.152Z</time></trkpt><trkpt lat="46.1090768" lon="13.4907284"><ele>312.57142857142856</ele><time>2026-05-03T07:16:49.152Z</time></trkpt><trkpt lat="46.1090622" lon="13.4906074"><ele>312.7142857142857</ele><time>2026-05-03T07:16:50.152Z</time></trkpt><trkpt lat="46.1090628" lon="13.490512"><ele>312.85714285714283</ele><time>2026-05-03T07:16:51.151Z</time></trkpt><trkpt lat="46.1090549" lon="13.4904201"><ele>313.0</ele><time>2026-05-03T07:16:52.152Z</time></trkpt><trkpt lat="46.1090491" lon="13.4903233"><ele>312.0</ele><time>2026-05-03T07:16:53.152Z</time></trkpt><trkpt lat="46.1090356" lon="13.4902142"><ele>311.0</ele><time>2026-05-03T07:16:54.152Z</time></trkpt><trkpt lat="46.1090296" lon="13.4901075"><ele>310.0</ele><time>2026-05-03T07:16:55.152Z</time></trkpt><trkpt lat="46.109017" lon="13.4900062"><ele>309.0</ele><time>2026-05-03T07:16:56.151Z</time></trkpt><trkpt lat="46.1089974" lon="13.4899017"><ele>308.0</ele><time>2026-05-03T07:16:57.152Z</time></trkpt><trkpt lat="46.1089799" lon="13.4898016"><ele>307.0</ele><time>2026-05-03T07:16:58.152Z</time></trkpt><trkpt lat="46.1089498" lon="13.4897152"><ele>306.0</ele><time>2026-05-03T07:16:59.152Z</time></trkpt><trkpt lat="46.1088712" lon="13.4895916"><ele>306.0</ele><time>2026-05-03T07:17:01.152Z</time></trkpt><trkpt lat="46.1087711" lon="13.4894921"><ele>306.0</ele><time>2026-05-03T07:17:03.152Z</time></trkpt><trkpt lat="46.1086955" lon="13.4894322"><ele>306.0</ele><time>2026-05-03T07:17:04.152Z</time></trkpt><trkpt lat="46.1086135" lon="13.4893835"><ele>306.0</ele><time>2026-05-03T07:17:05.152Z</time></trkpt><trkpt lat="46.1085219" lon="13.4893416"><ele>306.0</ele><time>2026-05-03T07:17:06.152Z</time></trkpt><trkpt lat="46.108441" lon="13.4892942"><ele>306.0</ele><time>2026-05-03T07:17:07.152Z</time></trkpt><trkpt lat="46.1083834" lon="13.4892471"><ele>306.0</ele><time>2026-05-03T07:17:08.152Z</time></trkpt><trkpt lat="46.1083184" lon="13.489191"><ele>306.0</ele><time>2026-05-03T07:17:09.152Z</time></trkpt><trkpt lat="46.1082321" lon="13.4890809"><ele>306.0</ele><time>2026-05-03T07:17:11.151Z</time></trkpt><trkpt lat="46.1081873" lon="13.4889231"><ele>306.0</ele><time>2026-05-03T07:17:13.152Z</time></trkpt><trkpt lat="46.108192" lon="13.4887426"><ele>305.0</ele><time>2026-05-03T07:17:15.152Z</time></trkpt><trkpt lat="46.1082091" lon="13.4886393"><ele>304.0</ele><time>2026-05-03T07:17:16.152Z</time></trkpt><trkpt lat="46.1082129" lon="13.4885298"><ele>303.0</ele><time>2026-05-03T07:17:17.152Z</time></trkpt><trkpt lat="46.1082282" lon="13.4884229"><ele>302.0</ele><time>2026-05-03T07:17:18.152Z</time></trkpt><trkpt lat="46.1082385" lon="13.4883175"><ele>301.0</ele><time>2026-05-03T07:17:19.152Z</time></trkpt><trkpt lat="46.1082455" lon="13.4882238"><ele>300.0</ele><time>2026-05-03T07:17:20.151Z</time></trkpt><trkpt lat="46.1082565" lon="13.4881135"><ele>299.0</ele><time>2026-05-03T07:17:21.151Z</time></trkpt><trkpt lat="46.1082763" lon="13.4879988"><ele>299.5</ele><time>2026-05-03T07:17:22.151Z</time></trkpt><trkpt lat="46.1082917" lon="13.4878831"><ele>300.0</ele><time>2026-05-03T07:17:23.151Z</time></trkpt><trkpt lat="46.1083001" lon="13.4877713"><ele>300.5</ele><time>2026-05-03T07:17:24.152Z</time></trkpt><trkpt lat="46.1083192" lon="13.4876596"><ele>301.0</ele><time>2026-05-03T07:17:25.152Z</time></trkpt><trkpt lat="46.1083201" lon="13.4875483"><ele>301.5</ele><time>2026-05-03T07:17:26.152Z</time></trkpt><trkpt lat="46.1083315" lon="13.487433"><ele>302.0</ele><time>2026-05-03T07:17:27.152Z</time></trkpt><trkpt lat="46.1083451" lon="13.4873202"><ele>302.0</ele><time>2026-05-03T07:17:28.151Z</time></trkpt><trkpt lat="46.108343" lon="13.4871996"><ele>302.0</ele><time>2026-05-03T07:17:29.151Z</time></trkpt><trkpt lat="46.1083343" lon="13.4870608"><ele>302.0</ele><time>2026-05-03T07:17:30.152Z</time></trkpt><trkpt lat="46.1083136" lon="13.4869256"><ele>302.0</ele><time>2026-05-03T07:17:31.152Z</time></trkpt><trkpt lat="46.1082961" lon="13.4868023"><ele>302.0</ele><time>2026-05-03T07:17:32.151Z</time></trkpt><trkpt lat="46.1082777" lon="13.4866778"><ele>300.83333333333337</ele><time>2026-05-03T07:17:33.152Z</time></trkpt><trkpt lat="46.1082629" lon="13.486543"><ele>299.6666666666667</ele><time>2026-05-03T07:17:34.152Z</time></trkpt><trkpt lat="46.1082509" lon="13.4864141"><ele>298.5</ele><time>2026-05-03T07:17:35.152Z</time></trkpt><trkpt lat="46.1082447" lon="13.4862921"><ele>297.3333333333333</ele><time>2026-05-03T07:17:36.151Z</time></trkpt><trkpt lat="46.1082412" lon="13.4861843"><ele>296.16666666666663</ele><time>2026-05-03T07:17:37.152Z</time></trkpt><trkpt lat="46.1082292" lon="13.4860806"><ele>295.0</ele><time>2026-05-03T07:17:38.151Z</time></trkpt><trkpt lat="46.1082157" lon="13.4859901"><ele>300.8333333333333</ele><time>2026-05-03T07:17:39.152Z</time></trkpt><trkpt lat="46.1082007" lon="13.485892"><ele>306.66666666666663</ele><time>2026-05-03T07:17:40.152Z</time></trkpt><trkpt lat="46.108172" lon="13.4857972"><ele>312.5</ele><time>2026-05-03T07:17:41.152Z</time></trkpt><trkpt lat="46.108132" lon="13.4857159"><ele>318.3333333333333</ele><time>2026-05-03T07:17:42.152Z</time></trkpt><trkpt lat="46.108093" lon="13.4856247"><ele>324.1666666666667</ele><time>2026-05-03T07:17:43.152Z</time></trkpt><trkpt lat="46.1080483" lon="13.4855246"><ele>330.0</ele><time>2026-05-03T07:17:44.152Z</time></trkpt><trkpt lat="46.1080031" lon="13.4854202"><ele>330.0</ele><time>2026-05-03T07:17:45.151Z</time></trkpt><trkpt lat="46.1079686" lon="13.4853076"><ele>330.0</ele><time>2026-05-03T07:17:46.152Z</time></trkpt><trkpt lat="46.1079344" lon="13.4851994"><ele>330.0</ele><time>2026-05-03T07:17:47.152Z</time></trkpt><trkpt lat="46.1079007" lon="13.4850829"><ele>330.0</ele><time>2026-05-03T07:17:48.152Z</time></trkpt><trkpt lat="46.1078736" lon="13.4849559"><ele>330.0</ele><time>2026-05-03T07:17:49.151Z</time></trkpt><trkpt lat="46.1078434" lon="13.4848493"><ele>330.0</ele><time>2026-05-03T07:17:50.152Z</time></trkpt><trkpt lat="46.1078284" lon="13.4847345"><ele>330.0</ele><time>2026-05-03T07:17:51.151Z</time></trkpt><trkpt lat="46.1078159" lon="13.4846271"><ele>330.0</ele><time>2026-05-03T07:17:52.152Z</time></trkpt><trkpt lat="46.1078107" lon="13.4845197"><ele>330.0</ele><time>2026-05-03T07:17:53.152Z</time></trkpt><trkpt lat="46.1078206" lon="13.4844053"><ele>330.0</ele><time>2026-05-03T07:17:54.151Z</time></trkpt><trkpt lat="46.1078327" lon="13.484285"><ele>330.0</ele><time>2026-05-03T07:17:55.152Z</time></trkpt><trkpt lat="46.1078457" lon="13.4841686"><ele>330.0</ele><time>2026-05-03T07:17:56.152Z</time></trkpt><trkpt lat="46.1078535" lon="13.4840487"><ele>331.1666666666667</ele><time>2026-05-03T07:17:57.152Z</time></trkpt><trkpt lat="46.1078627" lon="13.4839323"><ele>332.3333333333333</ele><time>2026-05-03T07:17:58.152Z</time></trkpt><trkpt lat="46.1078803" lon="13.4838242"><ele>333.5</ele><time>2026-05-03T07:17:59.152Z</time></trkpt><trkpt lat="46.1079165" lon="13.4837219"><ele>334.66666666666663</ele><time>2026-05-03T07:18:00.152Z</time></trkpt><trkpt lat="46.1079642" lon="13.4836158"><ele>335.8333333333333</ele><time>2026-05-03T07:18:01.151Z</time></trkpt><trkpt lat="46.1080064" lon="13.4835002"><ele>337.0</ele><time>2026-05-03T07:18:02.152Z</time></trkpt><trkpt lat="46.1080472" lon="13.4833741"><ele>337.0</ele><time>2026-05-03T07:18:03.152Z</time></trkpt><trkpt lat="46.1080805" lon="13.4832443"><ele>337.0</ele><time>2026-05-03T07:18:04.152Z</time></trkpt><trkpt lat="46.1080888" lon="13.4831028"><ele>337.0</ele><time>2026-05-03T07:18:05.152Z</time></trkpt><trkpt lat="46.1080875" lon="13.4829552"><ele>337.0</ele><time>2026-05-03T07:18:06.152Z</time></trkpt><trkpt lat="46.1080748" lon="13.48283"><ele>337.0</ele><time>2026-05-03T07:18:07.151Z</time></trkpt><trkpt lat="46.1080673" lon="13.4827343"><ele>337.0</ele><time>2026-05-03T07:18:08.152Z</time></trkpt><trkpt lat="46.1080773" lon="13.4826432"><ele>337.0</ele><time>2026-05-03T07:18:09.151Z</time></trkpt><trkpt lat="46.1081023" lon="13.4824661"><ele>337.0</ele><time>2026-05-03T07:18:11.152Z</time></trkpt><trkpt lat="46.1080684" lon="13.482303"><ele>337.0</ele><time>2026-05-03T07:18:13.151Z</time></trkpt><trkpt lat="46.1080002" lon="13.4821379"><ele>337.0</ele><time>2026-05-03T07:18:15.151Z</time></trkpt><trkpt lat="46.10795" lon="13.4820293"><ele>334.0</ele><time>2026-05-03T07:18:16.15Z</time></trkpt><trkpt lat="46.1078855" lon="13.4819148"><ele>331.0</ele><time>2026-05-03T07:18:17.151Z</time></trkpt><trkpt lat="46.1078236" lon="13.481811"><ele>328.0</ele><time>2026-05-03T07:18:18.15Z</time></trkpt><trkpt lat="46.1077664" lon="13.4817314"><ele>325.0</ele><time>2026-05-03T07:18:19.151Z</time></trkpt><trkpt lat="46.1077172" lon="13.4816396"><ele>322.0</ele><time>2026-05-03T07:18:20.151Z</time></trkpt><trkpt lat="46.1076678" lon="13.4815508"><ele>319.0</ele><time>2026-05-03T07:18:21.151Z</time></trkpt><trkpt lat="46.1076218" lon="13.4814548"><ele>319.0</ele><time>2026-05-03T07:18:22.15Z</time></trkpt><trkpt lat="46.1075792" lon="13.4813516"><ele>319.0</ele><time>2026-05-03T07:18:23.151Z</time></trkpt><trkpt lat="46.1075384" lon="13.4812262"><ele>319.0</ele><time>2026-05-03T07:18:24.15Z</time></trkpt><trkpt lat="46.1075028" lon="13.4811027"><ele>319.0</ele><time>2026-05-03T07:18:25.151Z</time></trkpt><trkpt lat="46.1074709" lon="13.4809697"><ele>319.0</ele><time>2026-05-03T07:18:26.15Z</time></trkpt><trkpt lat="46.107441" lon="13.4808564"><ele>318.5</ele><time>2026-05-03T07:18:27.151Z</time></trkpt><trkpt lat="46.1074169" lon="13.4807478"><ele>318.0</ele><time>2026-05-03T07:18:28.151Z</time></trkpt><trkpt lat="46.1073955" lon="13.4806318"><ele>317.5</ele><time>2026-05-03T07:18:29.15Z</time></trkpt><trkpt lat="46.1073778" lon="13.4805256"><ele>317.0</ele><time>2026-05-03T07:18:30.151Z</time></trkpt><trkpt lat="46.1073599" lon="13.480418"><ele>316.5</ele><time>2026-05-03T07:18:31.151Z</time></trkpt><trkpt lat="46.1073394" lon="13.4803189"><ele>316.0</ele><time>2026-05-03T07:18:32.151Z</time></trkpt><trkpt lat="46.1073135" lon="13.4801738"><ele>311.3333333333333</ele><time>2026-05-03T07:18:34.151Z</time></trkpt><trkpt lat="46.1072901" lon="13.4800749"><ele>306.66666666666663</ele><time>2026-05-03T07:18:36.151Z</time></trkpt><trkpt lat="46.1072353" lon="13.4799961"><ele>302.0</ele><time>2026-05-03T07:20:29.151Z</time></trkpt><trkpt lat="46.1071729" lon="13.4799683"><ele>297.3333333333333</ele><time>2026-05-03T07:20:31.151Z</time></trkpt><trkpt lat="46.1070846" lon="13.4799618"><ele>292.6666666666667</ele><time>2026-05-03T07:20:33.151Z</time></trkpt><trkpt lat="46.1069477" lon="13.4799758"><ele>288.0</ele><time>2026-05-03T07:20:35.151Z</time></trkpt><trkpt lat="46.1068633" lon="13.4799918"><ele>288.00000000000006</ele><time>2026-05-03T07:20:36.15Z</time></trkpt><trkpt lat="46.1067915" lon="13.4800053"><ele>288.0</ele><time>2026-05-03T07:20:37.15Z</time></trkpt><trkpt lat="46.1067252" lon="13.4800206"><ele>288.0</ele><time>2026-05-03T07:20:38.151Z</time></trkpt><trkpt lat="46.1066601" lon="13.4800387"><ele>288.0</ele><time>2026-05-03T07:20:39.151Z</time></trkpt><trkpt lat="46.1065978" lon="13.4800546"><ele>288.0</ele><time>2026-05-03T07:20:40.151Z</time></trkpt><trkpt lat="46.1065318" lon="13.4800737"><ele>288.00000000000006</ele><time>2026-05-03T07:20:41.151Z</time></trkpt><trkpt lat="46.1064648" lon="13.4801061"><ele>288.0</ele><time>2026-05-03T07:20:42.151Z</time></trkpt><trkpt lat="46.106401" lon="13.4801487"><ele>289.6666666666667</ele><time>2026-05-03T07:20:43.151Z</time></trkpt><trkpt lat="46.1063264" lon="13.4802099"><ele>291.3333333333333</ele><time>2026-05-03T07:20:44.15Z</time></trkpt><trkpt lat="46.1062515" lon="13.4802738"><ele>293.0</ele><time>2026-05-03T07:20:45.151Z</time></trkpt><trkpt lat="46.1061749" lon="13.4803344"><ele>294.66666666666663</ele><time>2026-05-03T07:20:46.151Z</time></trkpt><trkpt lat="46.1060973" lon="13.4803938"><ele>296.3333333333333</ele><time>2026-05-03T07:20:47.15Z</time></trkpt><trkpt lat="46.1060178" lon="13.4804596"><ele>298.0</ele><time>2026-05-03T07:20:48.151Z</time></trkpt><trkpt lat="46.1059397" lon="13.4805184"><ele>298.0</ele><time>2026-05-03T07:20:49.15Z</time></trkpt><trkpt lat="46.1058718" lon="13.4805841"><ele>298.0</ele><time>2026-05-03T07:20:50.151Z</time></trkpt><trkpt lat="46.1058015" lon="13.4806461"><ele>298.0</ele><time>2026-05-03T07:20:51.151Z</time></trkpt><trkpt lat="46.1057326" lon="13.4807154"><ele>298.0</ele><time>2026-05-03T07:20:52.15Z</time></trkpt><trkpt lat="46.1056652" lon="13.4807905"><ele>298.0</ele><time>2026-05-03T07:20:53.15Z</time></trkpt><trkpt lat="46.1056008" lon="13.4808689"><ele>298.0</ele><time>2026-05-03T07:20:54.15Z</time></trkpt><trkpt lat="46.1055431" lon="13.4809385"><ele>299.8333333333333</ele><time>2026-05-03T07:20:55.151Z</time></trkpt><trkpt lat="46.1054942" lon="13.4810044"><ele>301.66666666666663</ele><time>2026-05-03T07:20:56.15Z</time></trkpt><trkpt lat="46.1054053" lon="13.4810598"><ele>303.5</ele><time>2026-05-03T07:20:58.15Z</time></trkpt><trkpt lat="46.1053323" lon="13.4810079"><ele>305.3333333333333</ele><time>2026-05-03T07:21:00.151Z</time></trkpt><trkpt lat="46.1053064" lon="13.4808511"><ele>307.1666666666667</ele><time>2026-05-03T07:21:02.15Z</time></trkpt><trkpt lat="46.1053082" lon="13.480746"><ele>309.0</ele><time>2026-05-03T07:21:03.151Z</time></trkpt><trkpt lat="46.1053101" lon="13.4806243"><ele>309.0</ele><time>2026-05-03T07:21:04.151Z</time></trkpt><trkpt lat="46.10531" lon="13.4804774"><ele>309.0</ele><time>2026-05-03T07:21:05.151Z</time></trkpt><trkpt lat="46.1053121" lon="13.4803554"><ele>309.0</ele><time>2026-05-03T07:21:06.15Z</time></trkpt><trkpt lat="46.1053189" lon="13.4802319"><ele>309.0</ele><time>2026-05-03T07:21:07.151Z</time></trkpt><trkpt lat="46.1053315" lon="13.4801099"><ele>309.0</ele><time>2026-05-03T07:21:08.151Z</time></trkpt><trkpt lat="46.1053408" lon="13.4800001"><ele>309.0</ele><time>2026-05-03T07:21:09.15Z</time></trkpt><trkpt lat="46.1053504" lon="13.4798235"><ele>305.4</ele><time>2026-05-03T07:21:11.151Z</time></trkpt><trkpt lat="46.1053488" lon="13.4797306"><ele>301.79999999999995</ele><time>2026-05-03T07:21:12.15Z</time></trkpt><trkpt lat="46.1052919" lon="13.4795814"><ele>298.20000000000005</ele><time>2026-05-03T07:21:14.15Z</time></trkpt><trkpt lat="46.1051807" lon="13.4794696"><ele>294.6</ele><time>2026-05-03T07:21:16.151Z</time></trkpt><trkpt lat="46.1051085" lon="13.4794341"><ele>291.0</ele><time>2026-05-03T07:21:17.15Z</time></trkpt><trkpt lat="46.1050331" lon="13.4794032"><ele>287.2</ele><time>2026-05-03T07:21:18.151Z</time></trkpt><trkpt lat="46.1049536" lon="13.4793816"><ele>283.40000000000003</ele><time>2026-05-03T07:21:19.151Z</time></trkpt><trkpt lat="46.1048073" lon="13.4793008"><ele>279.6</ele><time>2026-05-03T07:21:21.15Z</time></trkpt><trkpt lat="46.1047415" lon="13.479258"><ele>275.8</ele><time>2026-05-03T07:21:22.151Z</time></trkpt><trkpt lat="46.1046578" lon="13.479197"><ele>272.0</ele><time>2026-05-03T07:21:24.151Z</time></trkpt><trkpt lat="46.1046296" lon="13.4791136"><ele>272.0</ele><time>2026-05-03T07:21:25.151Z</time></trkpt><trkpt lat="46.1046181" lon="13.4789913"><ele>272.0</ele><time>2026-05-03T07:21:26.15Z</time></trkpt><trkpt lat="46.104594" lon="13.4788373"><ele>272.0</ele><time>2026-05-03T07:21:27.151Z</time></trkpt><trkpt lat="46.1045575" lon="13.4786605"><ele>272.0</ele><time>2026-05-03T07:21:28.15Z</time></trkpt><trkpt lat="46.1045148" lon="13.4784787"><ele>269.25</ele><time>2026-05-03T07:21:29.151Z</time></trkpt><trkpt lat="46.1044728" lon="13.4782962"><ele>266.5</ele><time>2026-05-03T07:21:30.151Z</time></trkpt><trkpt lat="46.1044366" lon="13.4781311"><ele>263.75</ele><time>2026-05-03T07:21:31.15Z</time></trkpt><trkpt lat="46.1043905" lon="13.4779854"><ele>261.0</ele><time>2026-05-03T07:21:32.151Z</time></trkpt><trkpt lat="46.1043649" lon="13.4778397"><ele>258.0</ele><time>2026-05-03T07:21:33.15Z</time></trkpt><trkpt lat="46.1043529" lon="13.4777111"><ele>255.00000000000003</ele><time>2026-05-03T07:21:34.151Z</time></trkpt><trkpt lat="46.1042928" lon="13.4775596"><ele>252.00000000000003</ele><time>2026-05-03T07:21:36.15Z</time></trkpt><trkpt lat="46.1042225" lon="13.4775219"><ele>249.0</ele><time>2026-05-03T07:21:37.15Z</time></trkpt><trkpt lat="46.1041412" lon="13.4775204"><ele>246.0</ele><time>2026-05-03T07:21:38.151Z</time></trkpt><trkpt lat="46.1040382" lon="13.4775535"><ele>243.4</ele><time>2026-05-03T07:21:39.151Z</time></trkpt><trkpt lat="46.1039416" lon="13.4775933"><ele>240.8</ele><time>2026-05-03T07:21:40.151Z</time></trkpt><trkpt lat="46.1038586" lon="13.4776348"><ele>238.20000000000002</ele><time>2026-05-03T07:21:41.15Z</time></trkpt><trkpt lat="46.1037853" lon="13.4777159"><ele>235.60000000000002</ele><time>2026-05-03T07:21:42.15Z</time></trkpt><trkpt lat="46.1037104" lon="13.4778563"><ele>233.0</ele><time>2026-05-03T07:21:43.151Z</time></trkpt><trkpt lat="46.1036397" lon="13.4780134"><ele>233.0</ele><time>2026-05-03T07:21:44.15Z</time></trkpt><trkpt lat="46.1035817" lon="13.478159"><ele>233.0</ele><time>2026-05-03T07:21:45.151Z</time></trkpt><trkpt lat="46.1035281" lon="13.4783081"><ele>233.0</ele><time>2026-05-03T07:21:46.15Z</time></trkpt><trkpt lat="46.1034738" lon="13.4784411"><ele>233.0</ele><time>2026-05-03T07:21:47.151Z</time></trkpt><trkpt lat="46.103412" lon="13.4785643"><ele>233.0</ele><time>2026-05-03T07:21:48.151Z</time></trkpt><trkpt lat="46.1033583" lon="13.4786963"><ele>235.75</ele><time>2026-05-03T07:21:49.151Z</time></trkpt><trkpt lat="46.1033027" lon="13.4788336"><ele>238.5</ele><time>2026-05-03T07:21:50.151Z</time></trkpt><trkpt lat="46.1032444" lon="13.4789734"><ele>241.25</ele><time>2026-05-03T07:21:51.15Z</time></trkpt><trkpt lat="46.1031927" lon="13.4791243"><ele>244.0</ele><time>2026-05-03T07:21:52.151Z</time></trkpt><trkpt lat="46.1031484" lon="13.4792792"><ele>239.25</ele><time>2026-05-03T07:21:53.151Z</time></trkpt><trkpt lat="46.1030997" lon="13.4794259"><ele>234.5</ele><time>2026-05-03T07:21:54.15Z</time></trkpt><trkpt lat="46.103047" lon="13.479581"><ele>229.75</ele><time>2026-05-03T07:21:55.151Z</time></trkpt><trkpt lat="46.1029699" lon="13.4797136"><ele>225.0</ele><time>2026-05-03T07:21:56.151Z</time></trkpt><trkpt lat="46.1028837" lon="13.4798317"><ele>225.0</ele><time>2026-05-03T07:21:57.151Z</time></trkpt><trkpt lat="46.1027981" lon="13.4799405"><ele>225.0</ele><time>2026-05-03T07:21:58.151Z</time></trkpt><trkpt lat="46.1027112" lon="13.4800309"><ele>225.0</ele><time>2026-05-03T07:21:59.151Z</time></trkpt><trkpt lat="46.1026133" lon="13.4801024"><ele>225.0</ele><time>2026-05-03T07:22:00.151Z</time></trkpt><trkpt lat="46.1025014" lon="13.4801788"><ele>220.75</ele><time>2026-05-03T07:22:01.151Z</time></trkpt><trkpt lat="46.102379" lon="13.4802667"><ele>216.5</ele><time>2026-05-03T07:22:02.151Z</time></trkpt><trkpt lat="46.1022707" lon="13.4803662"><ele>212.25</ele><time>2026-05-03T07:22:03.151Z</time></trkpt><trkpt lat="46.1021727" lon="13.4804633"><ele>208.0</ele><time>2026-05-03T07:22:04.151Z</time></trkpt><trkpt lat="46.102077" lon="13.4805676"><ele>208.0</ele><time>2026-05-03T07:22:05.151Z</time></trkpt><trkpt lat="46.1019946" lon="13.4806823"><ele>208.0</ele><time>2026-05-03T07:22:06.151Z</time></trkpt><trkpt lat="46.1019222" lon="13.4808154"><ele>208.0</ele><time>2026-05-03T07:22:07.151Z</time></trkpt><trkpt lat="46.1018557" lon="13.480949"><ele>208.0</ele><time>2026-05-03T07:22:08.151Z</time></trkpt><trkpt lat="46.1018051" lon="13.4810873"><ele>207.99999999999997</ele><time>2026-05-03T07:22:09.151Z</time></trkpt><trkpt lat="46.1017771" lon="13.4812266"><ele>208.0</ele><time>2026-05-03T07:22:10.151Z</time></trkpt><trkpt lat="46.1017452" lon="13.4813413"><ele>208.0</ele><time>2026-05-03T07:22:11.15Z</time></trkpt><trkpt lat="46.1017222" lon="13.4814285"><ele>208.0</ele><time>2026-05-03T07:22:12.151Z</time></trkpt><trkpt lat="46.1016941" lon="13.4815153"><ele>207.99999999999997</ele><time>2026-05-03T07:22:13.151Z</time></trkpt><trkpt lat="46.101572" lon="13.4815333"><ele>208.0</ele><time>2026-05-03T07:22:15.151Z</time></trkpt><trkpt lat="46.1014801" lon="13.4815008"><ele>207.8</ele><time>2026-05-03T07:22:16.151Z</time></trkpt><trkpt lat="46.1013926" lon="13.4815047"><ele>207.60000000000002</ele><time>2026-05-03T07:22:17.151Z</time></trkpt><trkpt lat="46.1013179" lon="13.4815495"><ele>207.39999999999998</ele><time>2026-05-03T07:22:18.151Z</time></trkpt><trkpt lat="46.1012441" lon="13.4816654"><ele>207.2</ele><time>2026-05-03T07:22:19.15Z</time></trkpt><trkpt lat="46.1011787" lon="13.4817476"><ele>207.0</ele><time>2026-05-03T07:22:20.15Z</time></trkpt><trkpt lat="46.1011061" lon="13.4818205"><ele>207.0</ele><time>2026-05-03T07:22:21.151Z</time></trkpt><trkpt lat="46.101016" lon="13.4818878"><ele>207.0</ele><time>2026-05-03T07:22:22.151Z</time></trkpt><trkpt lat="46.1009113" lon="13.4819269"><ele>207.0</ele><time>2026-05-03T07:22:23.151Z</time></trkpt><trkpt lat="46.1008151" lon="13.4819278"><ele>207.0</ele><time>2026-05-03T07:22:24.151Z</time></trkpt><trkpt lat="46.1007193" lon="13.4818891"><ele>207.0</ele><time>2026-05-03T07:22:25.15Z</time></trkpt><trkpt lat="46.1006213" lon="13.4818259"><ele>205.8</ele><time>2026-05-03T07:22:26.151Z</time></trkpt><trkpt lat="46.100543" lon="13.4817483"><ele>204.6</ele><time>2026-05-03T07:22:27.151Z</time></trkpt><trkpt lat="46.100471" lon="13.4816816"><ele>203.4</ele><time>2026-05-03T07:22:28.15Z</time></trkpt><trkpt lat="46.1004113" lon="13.4815863"><ele>202.20000000000002</ele><time>2026-05-03T07:22:29.151Z</time></trkpt><trkpt lat="46.1003633" lon="13.4814601"><ele>201.0</ele><time>2026-05-03T07:22:30.151Z</time></trkpt><trkpt lat="46.1003053" lon="13.4813468"><ele>197.0</ele><time>2026-05-03T07:22:31.151Z</time></trkpt><trkpt lat="46.1002518" lon="13.4812357"><ele>193.0</ele><time>2026-05-03T07:22:32.151Z</time></trkpt><trkpt lat="46.1002123" lon="13.48116"><ele>189.0</ele><time>2026-05-03T07:22:33.15Z</time></trkpt><trkpt lat="46.1001566" lon="13.4810988"><ele>185.0</ele><time>2026-05-03T07:22:34.151Z</time></trkpt><trkpt lat="46.1000183" lon="13.4811149"><ele>181.0</ele><time>2026-05-03T07:22:36.15Z</time></trkpt><trkpt lat="46.0999398" lon="13.4812006"><ele>180.0</ele><time>2026-05-03T07:22:37.15Z</time></trkpt><trkpt lat="46.0998782" lon="13.4813026"><ele>179.0</ele><time>2026-05-03T07:22:38.15Z</time></trkpt><trkpt lat="46.0998266" lon="13.4814022"><ele>178.0</ele><time>2026-05-03T07:22:39.15Z</time></trkpt><trkpt lat="46.0997727" lon="13.4814806"><ele>177.0</ele><time>2026-05-03T07:22:40.15Z</time></trkpt><trkpt lat="46.099709" lon="13.4815314"><ele>176.0</ele><time>2026-05-03T07:22:41.15Z</time></trkpt><trkpt lat="46.0996368" lon="13.4815488"><ele>175.0</ele><time>2026-05-03T07:22:42.15Z</time></trkpt><trkpt lat="46.0995213" lon="13.4814699"><ele>175.0</ele><time>2026-05-03T07:22:44.15Z</time></trkpt><trkpt lat="46.0995202" lon="13.4813684"><ele>175.0</ele><time>2026-05-03T07:22:45.15Z</time></trkpt><trkpt lat="46.0995614" lon="13.4812687"><ele>175.0</ele><time>2026-05-03T07:22:46.15Z</time></trkpt><trkpt lat="46.0996395" lon="13.4811744"><ele>175.0</ele><time>2026-05-03T07:22:47.15Z</time></trkpt><trkpt lat="46.09972" lon="13.4810711"><ele>175.0</ele><time>2026-05-03T07:22:48.15Z</time></trkpt><trkpt lat="46.0997794" lon="13.4809536"><ele>174.16666666666669</ele><time>2026-05-03T07:22:49.15Z</time></trkpt><trkpt lat="46.099823" lon="13.4808349"><ele>173.33333333333334</ele><time>2026-05-03T07:22:50.149Z</time></trkpt><trkpt lat="46.0998587" lon="13.4807227"><ele>172.5</ele><time>2026-05-03T07:22:51.15Z</time></trkpt><trkpt lat="46.0999098" lon="13.4806262"><ele>171.66666666666666</ele><time>2026-05-03T07:22:52.15Z</time></trkpt><trkpt lat="46.0999892" lon="13.480557"><ele>170.83333333333331</ele><time>2026-05-03T07:22:53.15Z</time></trkpt><trkpt lat="46.1000696" lon="13.4805393"><ele>170.0</ele><time>2026-05-03T07:22:54.15Z</time></trkpt><trkpt lat="46.1001407" lon="13.4805733"><ele>172.2</ele><time>2026-05-03T07:22:55.15Z</time></trkpt><trkpt lat="46.1001924" lon="13.4806608"><ele>174.4</ele><time>2026-05-03T07:22:56.15Z</time></trkpt><trkpt lat="46.1002387" lon="13.4807782"><ele>176.60000000000002</ele><time>2026-05-03T07:22:57.15Z</time></trkpt><trkpt lat="46.1002999" lon="13.480884"><ele>178.8</ele><time>2026-05-03T07:22:58.149Z</time></trkpt><trkpt lat="46.1003806" lon="13.4809739"><ele>181.0</ele><time>2026-05-03T07:22:59.15Z</time></trkpt><trkpt lat="46.1004791" lon="13.4810491"><ele>181.0</ele><time>2026-05-03T07:23:00.15Z</time></trkpt><trkpt lat="46.1005569" lon="13.4810997"><ele>181.0</ele><time>2026-05-03T07:23:01.15Z</time></trkpt><trkpt lat="46.1006243" lon="13.4811366"><ele>181.0</ele><time>2026-05-03T07:23:02.15Z</time></trkpt><trkpt lat="46.1006945" lon="13.4811382"><ele>181.0</ele><time>2026-05-03T07:23:03.15Z</time></trkpt><trkpt lat="46.1007958" lon="13.481032"><ele>181.0</ele><time>2026-05-03T07:23:05.15Z</time></trkpt><trkpt lat="46.100828" lon="13.4809207"><ele>181.0</ele><time>2026-05-03T07:23:06.15Z</time></trkpt><trkpt lat="46.1008623" lon="13.4807597"><ele>181.25</ele><time>2026-05-03T07:23:07.15Z</time></trkpt><trkpt lat="46.1009106" lon="13.4805904"><ele>181.5</ele><time>2026-05-03T07:23:08.15Z</time></trkpt><trkpt lat="46.1009489" lon="13.4804276"><ele>181.75</ele><time>2026-05-03T07:23:09.15Z</time></trkpt><trkpt lat="46.1009779" lon="13.4802658"><ele>182.0</ele><time>2026-05-03T07:23:10.15Z</time></trkpt><trkpt lat="46.1009982" lon="13.4800876"><ele>178.6</ele><time>2026-05-03T07:23:11.15Z</time></trkpt><trkpt lat="46.1010267" lon="13.4799144"><ele>175.2</ele><time>2026-05-03T07:23:12.149Z</time></trkpt><trkpt lat="46.1010455" lon="13.4797613"><ele>171.8</ele><time>2026-05-03T07:23:13.15Z</time></trkpt><trkpt lat="46.1010777" lon="13.4796702"><ele>168.4</ele><time>2026-05-03T07:23:14.149Z</time></trkpt><trkpt lat="46.101097" lon="13.4795415"><ele>165.0</ele><time>2026-05-03T07:23:15.149Z</time></trkpt><trkpt lat="46.1011295" lon="13.4794254"><ele>164.16666666666666</ele><time>2026-05-03T07:23:16.149Z</time></trkpt><trkpt lat="46.1011863" lon="13.4793286"><ele>163.33333333333334</ele><time>2026-05-03T07:23:17.15Z</time></trkpt><trkpt lat="46.1012544" lon="13.479264"><ele>162.5</ele><time>2026-05-03T07:23:18.15Z</time></trkpt><trkpt lat="46.1013263" lon="13.4792245"><ele>161.66666666666669</ele><time>2026-05-03T07:23:19.15Z</time></trkpt><trkpt lat="46.1013999" lon="13.479185"><ele>160.83333333333334</ele><time>2026-05-03T07:23:20.149Z</time></trkpt><trkpt lat="46.1014668" lon="13.4791226"><ele>160.0</ele><time>2026-05-03T07:23:21.149Z</time></trkpt><trkpt lat="46.1015227" lon="13.4790464"><ele>160.33333333333334</ele><time>2026-05-03T07:23:22.15Z</time></trkpt><trkpt lat="46.1015834" lon="13.4789709"><ele>160.66666666666669</ele><time>2026-05-03T07:23:23.149Z</time></trkpt><trkpt lat="46.1016384" lon="13.4788796"><ele>161.0</ele><time>2026-05-03T07:23:24.149Z</time></trkpt><trkpt lat="46.1016812" lon="13.4787712"><ele>161.33333333333334</ele><time>2026-05-03T07:23:25.15Z</time></trkpt><trkpt lat="46.101726" lon="13.4786476"><ele>161.66666666666666</ele><time>2026-05-03T07:23:26.15Z</time></trkpt><trkpt lat="46.101767" lon="13.4785136"><ele>162.0</ele><time>2026-05-03T07:23:27.15Z</time></trkpt><trkpt lat="46.1017928" lon="13.4783728"><ele>162.0</ele><time>2026-05-03T07:23:28.15Z</time></trkpt><trkpt lat="46.101807" lon="13.4782401"><ele>162.0</ele><time>2026-05-03T07:23:29.149Z</time></trkpt><trkpt lat="46.1018315" lon="13.4780955"><ele>162.0</ele><time>2026-05-03T07:23:30.15Z</time></trkpt><trkpt lat="46.1018525" lon="13.477941"><ele>162.0</ele><time>2026-05-03T07:23:31.15Z</time></trkpt><trkpt lat="46.1018538" lon="13.4777778"><ele>162.0</ele><time>2026-05-03T07:23:32.15Z</time></trkpt><trkpt lat="46.1018359" lon="13.4775958"><ele>161.4</ele><time>2026-05-03T07:23:33.15Z</time></trkpt><trkpt lat="46.1018321" lon="13.4774339"><ele>160.79999999999998</ele><time>2026-05-03T07:23:34.15Z</time></trkpt><trkpt lat="46.1018395" lon="13.4772851"><ele>160.2</ele><time>2026-05-03T07:23:35.15Z</time></trkpt><trkpt lat="46.1018536" lon="13.4771298"><ele>159.6</ele><time>2026-05-03T07:23:36.149Z</time></trkpt><trkpt lat="46.1018596" lon="13.4769589"><ele>159.0</ele><time>2026-05-03T07:23:37.15Z</time></trkpt><trkpt lat="46.1018545" lon="13.4767815"><ele>159.0</ele><time>2026-05-03T07:23:38.149Z</time></trkpt><trkpt lat="46.1018434" lon="13.4766195"><ele>159.0</ele><time>2026-05-03T07:23:39.15Z</time></trkpt><trkpt lat="46.1018363" lon="13.4764711"><ele>159.0</ele><time>2026-05-03T07:23:40.15Z</time></trkpt><trkpt lat="46.1018401" lon="13.4763372"><ele>159.0</ele><time>2026-05-03T07:23:41.15Z</time></trkpt><trkpt lat="46.1018553" lon="13.4762229"><ele>159.0</ele><time>2026-05-03T07:23:42.149Z</time></trkpt><trkpt lat="46.1018694" lon="13.4761187"><ele>159.0</ele><time>2026-05-03T07:23:43.149Z</time></trkpt><trkpt lat="46.1018736" lon="13.4760135"><ele>159.0</ele><time>2026-05-03T07:23:44.15Z</time></trkpt><trkpt lat="46.101864" lon="13.4759052"><ele>159.0</ele><time>2026-05-03T07:23:45.15Z</time></trkpt><trkpt lat="46.1018472" lon="13.475789"><ele>159.0</ele><time>2026-05-03T07:23:46.15Z</time></trkpt><trkpt lat="46.1018249" lon="13.4756502"><ele>159.0</ele><time>2026-05-03T07:23:47.15Z</time></trkpt><trkpt lat="46.1018145" lon="13.4755545"><ele>159.0</ele><time>2026-05-03T07:23:48.15Z</time></trkpt><trkpt lat="46.1018098" lon="13.4754419"><ele>158.83333333333334</ele><time>2026-05-03T07:23:50.15Z</time></trkpt><trkpt lat="46.101799" lon="13.4753375"><ele>158.66666666666666</ele><time>2026-05-03T07:23:53.149Z</time></trkpt><trkpt lat="46.1017417" lon="13.4752355"><ele>158.5</ele><time>2026-05-03T07:23:56.15Z</time></trkpt><trkpt lat="46.1016376" lon="13.4751205"><ele>158.33333333333331</ele><time>2026-05-03T07:23:58.15Z</time></trkpt><trkpt lat="46.1015783" lon="13.4750443"><ele>158.16666666666666</ele><time>2026-05-03T07:23:59.15Z</time></trkpt><trkpt lat="46.1015347" lon="13.4749682"><ele>158.0</ele><time>2026-05-03T07:24:00.15Z</time></trkpt><trkpt lat="46.1014837" lon="13.4748858"><ele>157.20000000000002</ele><time>2026-05-03T07:24:01.15Z</time></trkpt><trkpt lat="46.1014252" lon="13.474805"><ele>156.4</ele><time>2026-05-03T07:24:02.15Z</time></trkpt><trkpt lat="46.1013424" lon="13.4747279"><ele>155.60000000000002</ele><time>2026-05-03T07:24:03.149Z</time></trkpt><trkpt lat="46.1012475" lon="13.4746584"><ele>154.8</ele><time>2026-05-03T07:24:04.149Z</time></trkpt><trkpt lat="46.1011441" lon="13.4745828"><ele>154.0</ele><time>2026-05-03T07:24:05.15Z</time></trkpt><trkpt lat="46.1010381" lon="13.4745092"><ele>154.0</ele><time>2026-05-03T07:24:06.15Z</time></trkpt><trkpt lat="46.1009302" lon="13.4744394"><ele>154.0</ele><time>2026-05-03T07:24:07.15Z</time></trkpt><trkpt lat="46.1008214" lon="13.4743678"><ele>154.0</ele><time>2026-05-03T07:24:08.15Z</time></trkpt><trkpt lat="46.1007142" lon="13.4742959"><ele>154.0</ele><time>2026-05-03T07:24:09.15Z</time></trkpt><trkpt lat="46.100614" lon="13.4742384"><ele>153.5</ele><time>2026-05-03T07:24:10.15Z</time></trkpt><trkpt lat="46.1005135" lon="13.4741857"><ele>153.0</ele><time>2026-05-03T07:24:11.149Z</time></trkpt><trkpt lat="46.1004092" lon="13.4741308"><ele>152.5</ele><time>2026-05-03T07:24:12.15Z</time></trkpt><trkpt lat="46.10028" lon="13.4740873"><ele>152.0</ele><time>2026-05-03T07:24:13.15Z</time></trkpt><trkpt lat="46.1001692" lon="13.4740602"><ele>152.0</ele><time>2026-05-03T07:24:14.15Z</time></trkpt><trkpt lat="46.1000608" lon="13.4740444"><ele>152.0</ele><time>2026-05-03T07:24:15.149Z</time></trkpt><trkpt lat="46.0999577" lon="13.474014"><ele>152.0</ele><time>2026-05-03T07:24:16.149Z</time></trkpt><trkpt lat="46.0998546" lon="13.4739642"><ele>152.0</ele><time>2026-05-03T07:24:17.15Z</time></trkpt><trkpt lat="46.0997514" lon="13.473926"><ele>152.0</ele><time>2026-05-03T07:24:18.149Z</time></trkpt><trkpt lat="46.099643" lon="13.4739037"><ele>151.6</ele><time>2026-05-03T07:24:19.15Z</time></trkpt><trkpt lat="46.0995301" lon="13.4738924"><ele>151.2</ele><time>2026-05-03T07:24:20.15Z</time></trkpt><trkpt lat="46.0994293" lon="13.4738519"><ele>150.8</ele><time>2026-05-03T07:24:21.149Z</time></trkpt><trkpt lat="46.0993381" lon="13.4737618"><ele>150.4</ele><time>2026-05-03T07:24:22.15Z</time></trkpt><trkpt lat="46.0992674" lon="13.473629"><ele>150.0</ele><time>2026-05-03T07:24:23.15Z</time></trkpt><trkpt lat="46.0992149" lon="13.4734627"><ele>150.0</ele><time>2026-05-03T07:24:24.15Z</time></trkpt><trkpt lat="46.0991912" lon="13.473272"><ele>150.0</ele><time>2026-05-03T07:24:25.15Z</time></trkpt><trkpt lat="46.0991877" lon="13.4730904"><ele>150.0</ele><time>2026-05-03T07:24:26.15Z</time></trkpt><trkpt lat="46.099193" lon="13.4729233"><ele>150.0</ele><time>2026-05-03T07:24:27.15Z</time></trkpt><trkpt lat="46.0991991" lon="13.472764"><ele>149.8</ele><time>2026-05-03T07:24:28.15Z</time></trkpt><trkpt lat="46.0992046" lon="13.4726086"><ele>149.6</ele><time>2026-05-03T07:24:29.15Z</time></trkpt><trkpt lat="46.0992136" lon="13.4724616"><ele>149.4</ele><time>2026-05-03T07:24:30.149Z</time></trkpt><trkpt lat="46.0992053" lon="13.4723056"><ele>149.2</ele><time>2026-05-03T07:24:31.15Z</time></trkpt><trkpt lat="46.0991579" lon="13.4721398"><ele>149.0</ele><time>2026-05-03T07:24:32.15Z</time></trkpt><trkpt lat="46.0990857" lon="13.4719636"><ele>148.5</ele><time>2026-05-03T07:24:33.15Z</time></trkpt><trkpt lat="46.0990068" lon="13.471785"><ele>148.0</ele><time>2026-05-03T07:24:34.149Z</time></trkpt><trkpt lat="46.098937" lon="13.4716073"><ele>147.5</ele><time>2026-05-03T07:24:35.15Z</time></trkpt><trkpt lat="46.0988732" lon="13.4714313"><ele>147.0</ele><time>2026-05-03T07:24:36.149Z</time></trkpt><trkpt lat="46.0988106" lon="13.4712474"><ele>146.33333333333334</ele><time>2026-05-03T07:24:37.15Z</time></trkpt><trkpt lat="46.0987481" lon="13.4710575"><ele>145.66666666666669</ele><time>2026-05-03T07:24:38.15Z</time></trkpt><trkpt lat="46.0986931" lon="13.4708569"><ele>145.0</ele><time>2026-05-03T07:24:39.15Z</time></trkpt><trkpt lat="46.0986449" lon="13.4706431"><ele>145.25</ele><time>2026-05-03T07:24:40.15Z</time></trkpt><trkpt lat="46.0986" lon="13.4704305"><ele>145.5</ele><time>2026-05-03T07:24:41.15Z</time></trkpt><trkpt lat="46.0985595" lon="13.4702304"><ele>145.75</ele><time>2026-05-03T07:24:42.15Z</time></trkpt><trkpt lat="46.0985213" lon="13.4700328"><ele>146.0</ele><time>2026-05-03T07:24:43.15Z</time></trkpt><trkpt lat="46.0984923" lon="13.4698383"><ele>146.0</ele><time>2026-05-03T07:24:44.15Z</time></trkpt><trkpt lat="46.0984907" lon="13.4696316"><ele>146.0</ele><time>2026-05-03T07:24:45.149Z</time></trkpt><trkpt lat="46.0985205" lon="13.469403"><ele>146.0</ele><time>2026-05-03T07:24:46.15Z</time></trkpt><trkpt lat="46.0985726" lon="13.4691871"><ele>146.0</ele><time>2026-05-03T07:24:47.15Z</time></trkpt><trkpt lat="46.0986302" lon="13.4689737"><ele>146.0</ele><time>2026-05-03T07:24:48.149Z</time></trkpt><trkpt lat="46.0986901" lon="13.4687463"><ele>146.0</ele><time>2026-05-03T07:24:49.15Z</time></trkpt><trkpt lat="46.0987518" lon="13.4685139"><ele>146.0</ele><time>2026-05-03T07:24:50.15Z</time></trkpt><trkpt lat="46.0988085" lon="13.4682728"><ele>146.0</ele><time>2026-05-03T07:24:51.149Z</time></trkpt><trkpt lat="46.0988716" lon="13.4680329"><ele>146.0</ele><time>2026-05-03T07:24:52.15Z</time></trkpt><trkpt lat="46.0989383" lon="13.4677889"><ele>145.66666666666666</ele><time>2026-05-03T07:24:53.15Z</time></trkpt><trkpt lat="46.0990028" lon="13.4675466"><ele>145.33333333333334</ele><time>2026-05-03T07:24:54.149Z</time></trkpt><trkpt lat="46.0990646" lon="13.4673019"><ele>145.0</ele><time>2026-05-03T07:24:55.15Z</time></trkpt><trkpt lat="46.0991229" lon="13.4670638"><ele>145.0</ele><time>2026-05-03T07:24:56.149Z</time></trkpt><trkpt lat="46.0991856" lon="13.4668224"><ele>145.0</ele><time>2026-05-03T07:24:57.15Z</time></trkpt><trkpt lat="46.0992519" lon="13.4665714"><ele>145.0</ele><time>2026-05-03T07:24:58.149Z</time></trkpt><trkpt lat="46.0993175" lon="13.4663208"><ele>144.66666666666669</ele><time>2026-05-03T07:24:59.15Z</time></trkpt><trkpt lat="46.0993826" lon="13.4660616"><ele>144.33333333333334</ele><time>2026-05-03T07:25:00.149Z</time></trkpt><trkpt lat="46.0994463" lon="13.465802"><ele>144.0</ele><time>2026-05-03T07:25:01.15Z</time></trkpt><trkpt lat="46.0995058" lon="13.4655454"><ele>144.0</ele><time>2026-05-03T07:25:02.15Z</time></trkpt><trkpt lat="46.0995557" lon="13.4653078"><ele>144.0</ele><time>2026-05-03T07:25:03.149Z</time></trkpt><trkpt lat="46.0996024" lon="13.4650814"><ele>144.0</ele><time>2026-05-03T07:25:04.149Z</time></trkpt><trkpt lat="46.0996406" lon="13.4648702"><ele>144.0</ele><time>2026-05-03T07:25:05.149Z</time></trkpt><trkpt lat="46.0996759" lon="13.4646784"><ele>144.0</ele><time>2026-05-03T07:25:06.149Z</time></trkpt><trkpt lat="46.0997132" lon="13.464496"><ele>144.0</ele><time>2026-05-03T07:25:07.149Z</time></trkpt><trkpt lat="46.0997414" lon="13.4643365"><ele>144.0</ele><time>2026-05-03T07:25:08.149Z</time></trkpt><trkpt lat="46.0997591" lon="13.4641953"><ele>144.16666666666666</ele><time>2026-05-03T07:25:09.15Z</time></trkpt><trkpt lat="46.0997717" lon="13.4640621"><ele>144.33333333333334</ele><time>2026-05-03T07:25:10.15Z</time></trkpt><trkpt lat="46.0997794" lon="13.4639469"><ele>144.5</ele><time>2026-05-03T07:25:11.149Z</time></trkpt><trkpt lat="46.0997857" lon="13.4638548"><ele>144.66666666666669</ele><time>2026-05-03T07:25:12.15Z</time></trkpt><trkpt lat="46.0998158" lon="13.463739"><ele>144.83333333333334</ele><time>2026-05-03T07:25:14.15Z</time></trkpt><trkpt lat="46.0998414" lon="13.4636097"><ele>145.0</ele><time>2026-05-03T07:25:25.149Z</time></trkpt><trkpt lat="46.0998057" lon="13.4635219"><ele>145.25</ele><time>2026-05-03T07:25:26.15Z</time></trkpt><trkpt lat="46.0997453" lon="13.4634103"><ele>145.5</ele><time>2026-05-03T07:25:27.149Z</time></trkpt><trkpt lat="46.0996717" lon="13.4632779"><ele>145.75</ele><time>2026-05-03T07:25:28.15Z</time></trkpt><trkpt lat="46.099595" lon="13.4631213"><ele>146.0</ele><time>2026-05-03T07:25:29.15Z</time></trkpt><trkpt lat="46.099521" lon="13.4629384"><ele>146.0</ele><time>2026-05-03T07:25:30.149Z</time></trkpt><trkpt lat="46.0994474" lon="13.4627276"><ele>146.0</ele><time>2026-05-03T07:25:31.15Z</time></trkpt><trkpt lat="46.0993566" lon="13.4625099"><ele>146.0</ele><time>2026-05-03T07:25:32.15Z</time></trkpt><trkpt lat="46.0992757" lon="13.4622937"><ele>145.66666666666666</ele><time>2026-05-03T07:25:33.15Z</time></trkpt><trkpt lat="46.0991972" lon="13.4620649"><ele>145.33333333333334</ele><time>2026-05-03T07:25:34.149Z</time></trkpt><trkpt lat="46.0991245" lon="13.4618266"><ele>145.0</ele><time>2026-05-03T07:25:35.15Z</time></trkpt><trkpt lat="46.0990469" lon="13.4615809"><ele>145.0</ele><time>2026-05-03T07:25:36.15Z</time></trkpt><trkpt lat="46.0989734" lon="13.46133"><ele>145.0</ele><time>2026-05-03T07:25:37.149Z</time></trkpt><trkpt lat="46.0988982" lon="13.4610737"><ele>145.0</ele><time>2026-05-03T07:25:38.149Z</time></trkpt><trkpt lat="46.0988218" lon="13.4608195"><ele>144.66666666666669</ele><time>2026-05-03T07:25:39.15Z</time></trkpt><trkpt lat="46.0987439" lon="13.460558"><ele>144.33333333333334</ele><time>2026-05-03T07:25:40.149Z</time></trkpt><trkpt lat="46.0986677" lon="13.4602945"><ele>144.0</ele><time>2026-05-03T07:25:41.15Z</time></trkpt><trkpt lat="46.0985984" lon="13.460029"><ele>143.66666666666666</ele><time>2026-05-03T07:25:42.15Z</time></trkpt><trkpt lat="46.0985322" lon="13.4597618"><ele>143.33333333333331</ele><time>2026-05-03T07:25:43.149Z</time></trkpt><trkpt lat="46.0984683" lon="13.4594936"><ele>143.0</ele><time>2026-05-03T07:25:44.15Z</time></trkpt><trkpt lat="46.0984058" lon="13.4592237"><ele>142.66666666666666</ele><time>2026-05-03T07:25:45.149Z</time></trkpt><trkpt lat="46.0983408" lon="13.4589528"><ele>142.33333333333334</ele><time>2026-05-03T07:25:46.15Z</time></trkpt><trkpt lat="46.0982721" lon="13.4586834"><ele>142.0</ele><time>2026-05-03T07:25:47.15Z</time></trkpt><trkpt lat="46.0982086" lon="13.4584113"><ele>141.33333333333334</ele><time>2026-05-03T07:25:48.149Z</time></trkpt><trkpt lat="46.0981504" lon="13.4581567"><ele>140.66666666666666</ele><time>2026-05-03T07:25:49.15Z</time></trkpt><trkpt lat="46.0980926" lon="13.4579083"><ele>140.0</ele><time>2026-05-03T07:25:50.15Z</time></trkpt><trkpt lat="46.0980387" lon="13.4576721"><ele>140.0</ele><time>2026-05-03T07:25:51.15Z</time></trkpt><trkpt lat="46.0979815" lon="13.4574454"><ele>140.0</ele><time>2026-05-03T07:25:52.149Z</time></trkpt><trkpt lat="46.0979275" lon="13.457231"><ele>140.0</ele><time>2026-05-03T07:25:53.15Z</time></trkpt><trkpt lat="46.0978703" lon="13.4570031"><ele>140.33333333333331</ele><time>2026-05-03T07:25:54.15Z</time></trkpt><trkpt lat="46.0978065" lon="13.4567675"><ele>140.66666666666666</ele><time>2026-05-03T07:25:55.15Z</time></trkpt><trkpt lat="46.0977266" lon="13.4565269"><ele>141.0</ele><time>2026-05-03T07:25:56.149Z</time></trkpt><trkpt lat="46.0976386" lon="13.4562865"><ele>141.0</ele><time>2026-05-03T07:25:57.149Z</time></trkpt><trkpt lat="46.0975432" lon="13.4560385"><ele>141.0</ele><time>2026-05-03T07:25:58.15Z</time></trkpt><trkpt lat="46.0974504" lon="13.4557895"><ele>141.0</ele><time>2026-05-03T07:25:59.15Z</time></trkpt><trkpt lat="46.0973559" lon="13.4555355"><ele>141.33333333333334</ele><time>2026-05-03T07:26:00.15Z</time></trkpt><trkpt lat="46.0972586" lon="13.4552721"><ele>141.66666666666669</ele><time>2026-05-03T07:26:01.15Z</time></trkpt><trkpt lat="46.0971597" lon="13.4550204"><ele>142.0</ele><time>2026-05-03T07:26:02.15Z</time></trkpt><trkpt lat="46.0970621" lon="13.4547728"><ele>141.33333333333334</ele><time>2026-05-03T07:26:03.149Z</time></trkpt><trkpt lat="46.0969535" lon="13.4545352"><ele>140.66666666666666</ele><time>2026-05-03T07:26:04.149Z</time></trkpt><trkpt lat="46.0968426" lon="13.4543011"><ele>140.0</ele><time>2026-05-03T07:26:05.15Z</time></trkpt><trkpt lat="46.0967309" lon="13.454073"><ele>140.0</ele><time>2026-05-03T07:26:06.15Z</time></trkpt><trkpt lat="46.0966203" lon="13.4538458"><ele>140.0</ele><time>2026-05-03T07:26:07.15Z</time></trkpt><trkpt lat="46.0965118" lon="13.4536197"><ele>140.0</ele><time>2026-05-03T07:26:08.15Z</time></trkpt><trkpt lat="46.0964036" lon="13.4534"><ele>140.0</ele><time>2026-05-03T07:26:09.15Z</time></trkpt><trkpt lat="46.0962912" lon="13.4531875"><ele>140.0</ele><time>2026-05-03T07:26:10.15Z</time></trkpt><trkpt lat="46.0961699" lon="13.4529868"><ele>140.0</ele><time>2026-05-03T07:26:11.15Z</time></trkpt><trkpt lat="46.0960441" lon="13.4527976"><ele>140.33333333333331</ele><time>2026-05-03T07:26:12.15Z</time></trkpt><trkpt lat="46.0959226" lon="13.4526199"><ele>140.66666666666666</ele><time>2026-05-03T07:26:13.15Z</time></trkpt><trkpt lat="46.0958092" lon="13.4524501"><ele>141.0</ele><time>2026-05-03T07:26:14.149Z</time></trkpt><trkpt lat="46.0957056" lon="13.4522814"><ele>140.33333333333334</ele><time>2026-05-03T07:26:15.15Z</time></trkpt><trkpt lat="46.0956028" lon="13.4520947"><ele>139.66666666666669</ele><time>2026-05-03T07:26:16.149Z</time></trkpt><trkpt lat="46.0955078" lon="13.4519051"><ele>139.0</ele><time>2026-05-03T07:26:17.15Z</time></trkpt><trkpt lat="46.0954114" lon="13.4517117"><ele>139.0</ele><time>2026-05-03T07:26:18.15Z</time></trkpt><trkpt lat="46.0952951" lon="13.4515241"><ele>139.0</ele><time>2026-05-03T07:26:19.149Z</time></trkpt><trkpt lat="46.0951644" lon="13.4513584"><ele>139.0</ele><time>2026-05-03T07:26:20.149Z</time></trkpt><trkpt lat="46.0950209" lon="13.4511757"><ele>138.33333333333334</ele><time>2026-05-03T07:26:21.15Z</time></trkpt><trkpt lat="46.0948865" lon="13.4510117"><ele>137.66666666666666</ele><time>2026-05-03T07:26:22.149Z</time></trkpt><trkpt lat="46.0947543" lon="13.4508527"><ele>137.0</ele><time>2026-05-03T07:26:23.15Z</time></trkpt><trkpt lat="46.0946272" lon="13.4507"><ele>137.0</ele><time>2026-05-03T07:26:24.15Z</time></trkpt><trkpt lat="46.0945067" lon="13.4505538"><ele>137.0</ele><time>2026-05-03T07:26:25.15Z</time></trkpt><trkpt lat="46.0943899" lon="13.4504133"><ele>137.0</ele><time>2026-05-03T07:26:26.15Z</time></trkpt><trkpt lat="46.0942758" lon="13.4502731"><ele>137.33333333333331</ele><time>2026-05-03T07:26:27.15Z</time></trkpt><trkpt lat="46.0941578" lon="13.4501257"><ele>137.66666666666666</ele><time>2026-05-03T07:26:28.15Z</time></trkpt><trkpt lat="46.0940215" lon="13.4499697"><ele>138.0</ele><time>2026-05-03T07:26:29.149Z</time></trkpt><trkpt lat="46.0938776" lon="13.4498018"><ele>135.66666666666666</ele><time>2026-05-03T07:26:30.15Z</time></trkpt><trkpt lat="46.0937344" lon="13.4496105"><ele>133.33333333333331</ele><time>2026-05-03T07:26:31.15Z</time></trkpt><trkpt lat="46.093603" lon="13.4493969"><ele>131.0</ele><time>2026-05-03T07:26:32.15Z</time></trkpt><trkpt lat="46.0934797" lon="13.4491588"><ele>131.0</ele><time>2026-05-03T07:26:33.15Z</time></trkpt><trkpt lat="46.0933721" lon="13.4489078"><ele>131.0</ele><time>2026-05-03T07:26:34.149Z</time></trkpt><trkpt lat="46.0932663" lon="13.4486781"><ele>131.0</ele><time>2026-05-03T07:26:35.15Z</time></trkpt><trkpt lat="46.0931665" lon="13.4484602"><ele>134.0</ele><time>2026-05-03T07:26:36.15Z</time></trkpt><trkpt lat="46.093069" lon="13.4482531"><ele>137.0</ele><time>2026-05-03T07:26:37.15Z</time></trkpt><trkpt lat="46.0929731" lon="13.4480607"><ele>140.0</ele><time>2026-05-03T07:26:38.149Z</time></trkpt><trkpt lat="46.0928787" lon="13.4478787"><ele>140.0</ele><time>2026-05-03T07:26:39.15Z</time></trkpt><trkpt lat="46.0927828" lon="13.4476997"><ele>140.0</ele><time>2026-05-03T07:26:40.15Z</time></trkpt><trkpt lat="46.0926894" lon="13.447527"><ele>140.0</ele><time>2026-05-03T07:26:41.149Z</time></trkpt><trkpt lat="46.0925981" lon="13.447355"><ele>140.0</ele><time>2026-05-03T07:26:42.15Z</time></trkpt><trkpt lat="46.0925158" lon="13.4471955"><ele>140.0</ele><time>2026-05-03T07:26:43.15Z</time></trkpt><trkpt lat="46.0924448" lon="13.4470553"><ele>140.0</ele><time>2026-05-03T07:26:44.149Z</time></trkpt><trkpt lat="46.0923885" lon="13.4469523"><ele>140.0</ele><time>2026-05-03T07:26:45.15Z</time></trkpt><trkpt lat="46.0923344" lon="13.4468728"><ele>140.0</ele><time>2026-05-03T07:26:46.15Z</time></trkpt><trkpt lat="46.092279" lon="13.4468141"><ele>140.4</ele><time>2026-05-03T07:26:47.149Z</time></trkpt><trkpt lat="46.0922206" lon="13.4467742"><ele>140.8</ele><time>2026-05-03T07:26:48.15Z</time></trkpt><trkpt lat="46.0921062" lon="13.4467058"><ele>141.2</ele><time>2026-05-03T07:26:50.149Z</time></trkpt><trkpt lat="46.0920493" lon="13.4466578"><ele>141.6</ele><time>2026-05-03T07:26:51.148Z</time></trkpt><trkpt lat="46.0919551" lon="13.4465557"><ele>142.0</ele><time>2026-05-03T07:26:53.149Z</time></trkpt><trkpt lat="46.0918662" lon="13.4465124"><ele>142.0</ele><time>2026-05-03T07:26:55.149Z</time></trkpt><trkpt lat="46.0918079" lon="13.4465667"><ele>142.0</ele><time>2026-05-03T07:26:57.149Z</time></trkpt><trkpt lat="46.0917823" lon="13.4466829"><ele>142.0</ele><time>2026-05-03T07:27:18.149Z</time></trkpt><trkpt lat="46.0917422" lon="13.4468094"><ele>142.0</ele><time>2026-05-03T07:27:20.149Z</time></trkpt><trkpt lat="46.0917182" lon="13.4468988"><ele>142.0</ele><time>2026-05-03T07:27:21.149Z</time></trkpt><trkpt lat="46.0916773" lon="13.4469981"><ele>142.0</ele><time>2026-05-03T07:27:22.149Z</time></trkpt><trkpt lat="46.0916211" lon="13.4470966"><ele>141.79999999999998</ele><time>2026-05-03T07:27:23.149Z</time></trkpt><trkpt lat="46.0915443" lon="13.4471904"><ele>141.6</ele><time>2026-05-03T07:27:24.149Z</time></trkpt><trkpt lat="46.091463" lon="13.4473006"><ele>141.39999999999998</ele><time>2026-05-03T07:27:25.149Z</time></trkpt><trkpt lat="46.0913777" lon="13.4474121"><ele>141.2</ele><time>2026-05-03T07:27:26.148Z</time></trkpt><trkpt lat="46.0912924" lon="13.4475246"><ele>141.0</ele><time>2026-05-03T07:27:27.149Z</time></trkpt><trkpt lat="46.0912027" lon="13.4476431"><ele>141.0</ele><time>2026-05-03T07:27:28.149Z</time></trkpt><trkpt lat="46.091121" lon="13.4477877"><ele>141.0</ele><time>2026-05-03T07:27:29.149Z</time></trkpt><trkpt lat="46.0910562" lon="13.4479576"><ele>141.0</ele><time>2026-05-03T07:27:30.148Z</time></trkpt><trkpt lat="46.090995" lon="13.4481198"><ele>141.0</ele><time>2026-05-03T07:27:31.149Z</time></trkpt><trkpt lat="46.0909277" lon="13.4482813"><ele>141.25</ele><time>2026-05-03T07:27:32.149Z</time></trkpt><trkpt lat="46.0908512" lon="13.4484401"><ele>141.5</ele><time>2026-05-03T07:27:33.148Z</time></trkpt><trkpt lat="46.0907615" lon="13.4485901"><ele>141.75</ele><time>2026-05-03T07:27:34.148Z</time></trkpt><trkpt lat="46.0906668" lon="13.4487364"><ele>142.0</ele><time>2026-05-03T07:27:35.149Z</time></trkpt><trkpt lat="46.0905602" lon="13.4488807"><ele>142.0</ele><time>2026-05-03T07:27:36.148Z</time></trkpt><trkpt lat="46.0904554" lon="13.449034"><ele>142.0</ele><time>2026-05-03T07:27:37.149Z</time></trkpt><trkpt lat="46.0903522" lon="13.4491925"><ele>142.0</ele><time>2026-05-03T07:27:38.148Z</time></trkpt><trkpt lat="46.0902468" lon="13.4493414"><ele>142.0</ele><time>2026-05-03T07:27:39.149Z</time></trkpt><trkpt lat="46.0901372" lon="13.4494836"><ele>142.0</ele><time>2026-05-03T07:27:40.149Z</time></trkpt><trkpt lat="46.0900328" lon="13.4496246"><ele>142.0</ele><time>2026-05-03T07:27:41.149Z</time></trkpt><trkpt lat="46.0899386" lon="13.4497643"><ele>142.0</ele><time>2026-05-03T07:27:42.148Z</time></trkpt><trkpt lat="46.0898523" lon="13.449896"><ele>142.0</ele><time>2026-05-03T07:27:43.149Z</time></trkpt><trkpt lat="46.0897798" lon="13.4500113"><ele>141.6</ele><time>2026-05-03T07:27:44.148Z</time></trkpt><trkpt lat="46.0897011" lon="13.4501006"><ele>141.2</ele><time>2026-05-03T07:27:45.148Z</time></trkpt><trkpt lat="46.0896124" lon="13.4501763"><ele>140.8</ele><time>2026-05-03T07:27:46.149Z</time></trkpt><trkpt lat="46.0895109" lon="13.4502452"><ele>140.4</ele><time>2026-05-03T07:27:47.149Z</time></trkpt><trkpt lat="46.0894061" lon="13.4503177"><ele>140.0</ele><time>2026-05-03T07:27:48.149Z</time></trkpt><trkpt lat="46.0892976" lon="13.450395"><ele>140.25</ele><time>2026-05-03T07:27:49.149Z</time></trkpt><trkpt lat="46.0891886" lon="13.4504784"><ele>140.5</ele><time>2026-05-03T07:27:50.149Z</time></trkpt><trkpt lat="46.0890841" lon="13.4505569"><ele>140.75</ele><time>2026-05-03T07:27:51.149Z</time></trkpt><trkpt lat="46.0889794" lon="13.4506311"><ele>141.0</ele><time>2026-05-03T07:27:52.148Z</time></trkpt><trkpt lat="46.0888699" lon="13.4506994"><ele>141.2</ele><time>2026-05-03T07:27:53.148Z</time></trkpt><trkpt lat="46.0887559" lon="13.450771"><ele>141.39999999999998</ele><time>2026-05-03T07:27:54.148Z</time></trkpt><trkpt lat="46.0886554" lon="13.4508458"><ele>141.6</ele><time>2026-05-03T07:27:55.149Z</time></trkpt><trkpt lat="46.0885748" lon="13.4509315"><ele>141.79999999999998</ele><time>2026-05-03T07:27:56.149Z</time></trkpt><trkpt lat="46.0885137" lon="13.4510344"><ele>142.0</ele><time>2026-05-03T07:27:57.148Z</time></trkpt><trkpt lat="46.0884607" lon="13.4511324"><ele>142.0</ele><time>2026-05-03T07:27:58.148Z</time></trkpt><trkpt lat="46.0883944" lon="13.4512118"><ele>142.0</ele><time>2026-05-03T07:27:59.149Z</time></trkpt><trkpt lat="46.0883073" lon="13.4512534"><ele>142.0</ele><time>2026-05-03T07:28:00.149Z</time></trkpt><trkpt lat="46.0882113" lon="13.4512589"><ele>142.0</ele><time>2026-05-03T07:28:01.149Z</time></trkpt><trkpt lat="46.0881111" lon="13.4512464"><ele>142.0</ele><time>2026-05-03T07:28:02.149Z</time></trkpt><trkpt lat="46.0880071" lon="13.4512328"><ele>142.0</ele><time>2026-05-03T07:28:03.149Z</time></trkpt><trkpt lat="46.0878944" lon="13.4512308"><ele>142.0</ele><time>2026-05-03T07:28:04.149Z</time></trkpt><trkpt lat="46.0877835" lon="13.4512426"><ele>142.0</ele><time>2026-05-03T07:28:05.149Z</time></trkpt><trkpt lat="46.0876705" lon="13.4512733"><ele>142.0</ele><time>2026-05-03T07:28:06.149Z</time></trkpt><trkpt lat="46.087557" lon="13.451307"><ele>143.25</ele><time>2026-05-03T07:28:07.148Z</time></trkpt><trkpt lat="46.0874385" lon="13.4513509"><ele>144.5</ele><time>2026-05-03T07:28:08.149Z</time></trkpt><trkpt lat="46.087319" lon="13.451402"><ele>145.75</ele><time>2026-05-03T07:28:09.149Z</time></trkpt><trkpt lat="46.0871958" lon="13.4514469"><ele>147.0</ele><time>2026-05-03T07:28:10.149Z</time></trkpt><trkpt lat="46.0870735" lon="13.4514913"><ele>147.0</ele><time>2026-05-03T07:28:11.149Z</time></trkpt><trkpt lat="46.0869527" lon="13.4515451"><ele>147.0</ele><time>2026-05-03T07:28:12.148Z</time></trkpt><trkpt lat="46.0868376" lon="13.451609"><ele>147.0</ele><time>2026-05-03T07:28:13.149Z</time></trkpt><trkpt lat="46.0867369" lon="13.4516802"><ele>147.0</ele><time>2026-05-03T07:28:14.149Z</time></trkpt><trkpt lat="46.0866441" lon="13.4517437"><ele>146.2</ele><time>2026-05-03T07:28:15.149Z</time></trkpt><trkpt lat="46.0865562" lon="13.4518043"><ele>145.39999999999998</ele><time>2026-05-03T07:28:16.149Z</time></trkpt><trkpt lat="46.0864718" lon="13.4518527"><ele>144.60000000000002</ele><time>2026-05-03T07:28:17.148Z</time></trkpt><trkpt lat="46.0863742" lon="13.4518992"><ele>143.8</ele><time>2026-05-03T07:28:18.148Z</time></trkpt><trkpt lat="46.0862642" lon="13.4519664"><ele>143.0</ele><time>2026-05-03T07:28:19.149Z</time></trkpt><trkpt lat="46.086138" lon="13.4520343"><ele>143.0</ele><time>2026-05-03T07:28:20.148Z</time></trkpt><trkpt lat="46.0860063" lon="13.4521011"><ele>143.0</ele><time>2026-05-03T07:28:21.149Z</time></trkpt><trkpt lat="46.0858716" lon="13.4521677"><ele>143.0</ele><time>2026-05-03T07:28:22.149Z</time></trkpt><trkpt lat="46.0857342" lon="13.4522405"><ele>143.0</ele><time>2026-05-03T07:28:23.148Z</time></trkpt><trkpt lat="46.0855957" lon="13.452315"><ele>142.5</ele><time>2026-05-03T07:28:24.149Z</time></trkpt><trkpt lat="46.0854597" lon="13.452389"><ele>142.0</ele><time>2026-05-03T07:28:25.149Z</time></trkpt><trkpt lat="46.085323" lon="13.4524601"><ele>141.5</ele><time>2026-05-03T07:28:26.149Z</time></trkpt><trkpt lat="46.0851858" lon="13.4525344"><ele>141.0</ele><time>2026-05-03T07:28:27.148Z</time></trkpt><trkpt lat="46.0850434" lon="13.452606"><ele>140.33333333333334</ele><time>2026-05-03T07:28:28.149Z</time></trkpt><trkpt lat="46.0848997" lon="13.452674"><ele>139.66666666666669</ele><time>2026-05-03T07:28:29.149Z</time></trkpt><trkpt lat="46.0847538" lon="13.4527455"><ele>139.0</ele><time>2026-05-03T07:28:30.149Z</time></trkpt><trkpt lat="46.0846062" lon="13.4528151"><ele>139.0</ele><time>2026-05-03T07:28:31.149Z</time></trkpt><trkpt lat="46.0844595" lon="13.4528832"><ele>139.0</ele><time>2026-05-03T07:28:32.149Z</time></trkpt><trkpt lat="46.0843152" lon="13.4529429"><ele>139.0</ele><time>2026-05-03T07:28:33.149Z</time></trkpt><trkpt lat="46.0841778" lon="13.4529828"><ele>139.0</ele><time>2026-05-03T07:28:34.148Z</time></trkpt><trkpt lat="46.0840409" lon="13.452997"><ele>140.0</ele><time>2026-05-03T07:28:35.149Z</time></trkpt><trkpt lat="46.0838949" lon="13.4530047"><ele>141.0</ele><time>2026-05-03T07:28:36.149Z</time></trkpt><trkpt lat="46.083748" lon="13.4530292"><ele>142.0</ele><time>2026-05-03T07:28:37.148Z</time></trkpt><trkpt lat="46.0835972" lon="13.4530536"><ele>143.0</ele><time>2026-05-03T07:28:38.148Z</time></trkpt><trkpt lat="46.0834472" lon="13.4530957"><ele>143.0</ele><time>2026-05-03T07:28:39.148Z</time></trkpt><trkpt lat="46.0833011" lon="13.4531557"><ele>143.0</ele><time>2026-05-03T07:28:40.149Z</time></trkpt><trkpt lat="46.0831516" lon="13.4532076"><ele>143.0</ele><time>2026-05-03T07:28:41.149Z</time></trkpt><trkpt lat="46.0830143" lon="13.4532637"><ele>143.0</ele><time>2026-05-03T07:28:42.148Z</time></trkpt><trkpt lat="46.0828826" lon="13.4533262"><ele>144.0</ele><time>2026-05-03T07:28:43.148Z</time></trkpt><trkpt lat="46.0827624" lon="13.4533816"><ele>145.0</ele><time>2026-05-03T07:28:44.149Z</time></trkpt><trkpt lat="46.0826438" lon="13.4534121"><ele>146.0</ele><time>2026-05-03T07:28:45.148Z</time></trkpt><trkpt lat="46.0825194" lon="13.4534125"><ele>147.0</ele><time>2026-05-03T07:28:46.148Z</time></trkpt><trkpt lat="46.0823885" lon="13.4533682"><ele>147.5</ele><time>2026-05-03T07:28:47.149Z</time></trkpt><trkpt lat="46.0822607" lon="13.4532917"><ele>148.0</ele><time>2026-05-03T07:28:48.148Z</time></trkpt><trkpt lat="46.0821408" lon="13.4532058"><ele>148.5</ele><time>2026-05-03T07:28:49.149Z</time></trkpt><trkpt lat="46.0820265" lon="13.4531185"><ele>149.0</ele><time>2026-05-03T07:28:50.149Z</time></trkpt><trkpt lat="46.0819201" lon="13.4530248"><ele>147.5</ele><time>2026-05-03T07:28:51.149Z</time></trkpt><trkpt lat="46.0818299" lon="13.4529221"><ele>146.0</ele><time>2026-05-03T07:28:52.149Z</time></trkpt><trkpt lat="46.0817355" lon="13.4528357"><ele>144.5</ele><time>2026-05-03T07:28:53.149Z</time></trkpt><trkpt lat="46.0816325" lon="13.4527724"><ele>143.0</ele><time>2026-05-03T07:28:54.149Z</time></trkpt><trkpt lat="46.0815183" lon="13.4527321"><ele>142.0</ele><time>2026-05-03T07:28:55.148Z</time></trkpt><trkpt lat="46.0813962" lon="13.4527097"><ele>141.0</ele><time>2026-05-03T07:28:56.149Z</time></trkpt><trkpt lat="46.0812798" lon="13.4527233"><ele>140.0</ele><time>2026-05-03T07:28:57.149Z</time></trkpt><trkpt lat="46.0811696" lon="13.4527845"><ele>139.0</ele><time>2026-05-03T07:28:58.149Z</time></trkpt><trkpt lat="46.0810643" lon="13.4528921"><ele>139.0</ele><time>2026-05-03T07:28:59.149Z</time></trkpt><trkpt lat="46.0809675" lon="13.4530164"><ele>139.0</ele><time>2026-05-03T07:29:00.149Z</time></trkpt><trkpt lat="46.0808729" lon="13.4531355"><ele>139.0</ele><time>2026-05-03T07:29:01.148Z</time></trkpt><trkpt lat="46.0807802" lon="13.4532422"><ele>139.0</ele><time>2026-05-03T07:29:02.149Z</time></trkpt><trkpt lat="46.0806967" lon="13.4533483"><ele>139.0</ele><time>2026-05-03T07:29:03.148Z</time></trkpt><trkpt lat="46.0806257" lon="13.4534443"><ele>139.0</ele><time>2026-05-03T07:29:04.148Z</time></trkpt><trkpt lat="46.0805631" lon="13.4535234"><ele>139.0</ele><time>2026-05-03T07:29:05.149Z</time></trkpt><trkpt lat="46.0805028" lon="13.4535777"><ele>139.0</ele><time>2026-05-03T07:29:06.149Z</time></trkpt><trkpt lat="46.0804383" lon="13.4535895"><ele>139.0</ele><time>2026-05-03T07:29:07.148Z</time></trkpt><trkpt lat="46.080381" lon="13.4535499"><ele>139.0</ele><time>2026-05-03T07:29:08.148Z</time></trkpt><trkpt lat="46.0803368" lon="13.4534573"><ele>139.0</ele><time>2026-05-03T07:29:09.149Z</time></trkpt><trkpt lat="46.0803037" lon="13.4533226"><ele>139.0</ele><time>2026-05-03T07:29:10.148Z</time></trkpt><trkpt lat="46.0802772" lon="13.4531631"><ele>139.0</ele><time>2026-05-03T07:29:11.148Z</time></trkpt><trkpt lat="46.0802527" lon="13.4529884"><ele>139.0</ele><time>2026-05-03T07:29:12.148Z</time></trkpt><trkpt lat="46.080232" lon="13.4528069"><ele>139.0</ele><time>2026-05-03T07:29:13.149Z</time></trkpt><trkpt lat="46.0802112" lon="13.4526338"><ele>139.0</ele><time>2026-05-03T07:29:14.149Z</time></trkpt><trkpt lat="46.0801884" lon="13.4524684"><ele>139.0</ele><time>2026-05-03T07:29:15.148Z</time></trkpt><trkpt lat="46.0801809" lon="13.4522926"><ele>139.0</ele><time>2026-05-03T07:29:16.148Z</time></trkpt><trkpt lat="46.0801678" lon="13.4521257"><ele>139.5</ele><time>2026-05-03T07:29:17.149Z</time></trkpt><trkpt lat="46.0801262" lon="13.4519653"><ele>140.0</ele><time>2026-05-03T07:29:18.148Z</time></trkpt><trkpt lat="46.0800602" lon="13.4518113"><ele>140.5</ele><time>2026-05-03T07:29:19.148Z</time></trkpt><trkpt lat="46.0799874" lon="13.451681"><ele>141.0</ele><time>2026-05-03T07:29:20.148Z</time></trkpt><trkpt lat="46.0799159" lon="13.4515757"><ele>142.66666666666666</ele><time>2026-05-03T07:29:21.149Z</time></trkpt><trkpt lat="46.0798525" lon="13.4514832"><ele>144.33333333333334</ele><time>2026-05-03T07:29:22.149Z</time></trkpt><trkpt lat="46.0797982" lon="13.4514061"><ele>146.0</ele><time>2026-05-03T07:29:23.149Z</time></trkpt><trkpt lat="46.0797399" lon="13.4513028"><ele>147.66666666666669</ele><time>2026-05-03T07:29:25.149Z</time></trkpt><trkpt lat="46.0796918" lon="13.4512366"><ele>149.33333333333334</ele><time>2026-05-03T07:29:35.149Z</time></trkpt><trkpt lat="46.0796009" lon="13.4512476"><ele>151.0</ele><time>2026-05-03T07:29:44.149Z</time></trkpt><trkpt lat="46.079523" lon="13.4513809"><ele>151.0</ele><time>2026-05-03T07:29:46.149Z</time></trkpt><trkpt lat="46.0794719" lon="13.4514658"><ele>151.0</ele><time>2026-05-03T07:29:47.149Z</time></trkpt><trkpt lat="46.0794261" lon="13.4515722"><ele>151.0</ele><time>2026-05-03T07:29:48.149Z</time></trkpt><trkpt lat="46.0793778" lon="13.4517075"><ele>151.0</ele><time>2026-05-03T07:29:49.148Z</time></trkpt><trkpt lat="46.0793234" lon="13.4518535"><ele>151.0</ele><time>2026-05-03T07:29:50.149Z</time></trkpt><trkpt lat="46.0792647" lon="13.452"><ele>150.0</ele><time>2026-05-03T07:29:51.149Z</time></trkpt><trkpt lat="46.0791964" lon="13.4521532"><ele>149.0</ele><time>2026-05-03T07:29:52.149Z</time></trkpt><trkpt lat="46.0791284" lon="13.4523259"><ele>148.0</ele><time>2026-05-03T07:29:53.149Z</time></trkpt><trkpt lat="46.0790601" lon="13.4525062"><ele>147.0</ele><time>2026-05-03T07:29:54.149Z</time></trkpt><trkpt lat="46.0789887" lon="13.4526766"><ele>148.0</ele><time>2026-05-03T07:29:55.148Z</time></trkpt><trkpt lat="46.0789111" lon="13.4528417"><ele>149.0</ele><time>2026-05-03T07:29:56.149Z</time></trkpt><trkpt lat="46.0788267" lon="13.4529978"><ele>150.0</ele><time>2026-05-03T07:29:57.148Z</time></trkpt><trkpt lat="46.0787265" lon="13.4531553"><ele>151.0</ele><time>2026-05-03T07:29:58.148Z</time></trkpt><trkpt lat="46.0786235" lon="13.4533146"><ele>151.0</ele><time>2026-05-03T07:29:59.149Z</time></trkpt><trkpt lat="46.0785181" lon="13.4534678"><ele>151.0</ele><time>2026-05-03T07:30:00.148Z</time></trkpt><trkpt lat="46.0784101" lon="13.4536273"><ele>151.0</ele><time>2026-05-03T07:30:01.149Z</time></trkpt><trkpt lat="46.0783033" lon="13.4537879"><ele>155.66666666666669</ele><time>2026-05-03T07:30:02.148Z</time></trkpt><trkpt lat="46.0781925" lon="13.4539497"><ele>160.33333333333334</ele><time>2026-05-03T07:30:03.149Z</time></trkpt><trkpt lat="46.078083" lon="13.4541107"><ele>165.0</ele><time>2026-05-03T07:30:04.148Z</time></trkpt><trkpt lat="46.0779752" lon="13.4542681"><ele>165.0</ele><time>2026-05-03T07:30:05.149Z</time></trkpt><trkpt lat="46.0778688" lon="13.4544339"><ele>165.0</ele><time>2026-05-03T07:30:06.149Z</time></trkpt><trkpt lat="46.0777564" lon="13.4545986"><ele>165.0</ele><time>2026-05-03T07:30:07.149Z</time></trkpt><trkpt lat="46.0776431" lon="13.454752"><ele>161.0</ele><time>2026-05-03T07:30:08.149Z</time></trkpt><trkpt lat="46.0775275" lon="13.4548936"><ele>157.0</ele><time>2026-05-03T07:30:09.149Z</time></trkpt><trkpt lat="46.0774019" lon="13.4550269"><ele>153.0</ele><time>2026-05-03T07:30:10.149Z</time></trkpt><trkpt lat="46.0772712" lon="13.4551367"><ele>153.0</ele><time>2026-05-03T07:30:11.149Z</time></trkpt><trkpt lat="46.0771281" lon="13.4552372"><ele>153.0</ele><time>2026-05-03T07:30:12.149Z</time></trkpt><trkpt lat="46.0769838" lon="13.4553418"><ele>153.0</ele><time>2026-05-03T07:30:13.148Z</time></trkpt><trkpt lat="46.0768376" lon="13.4554603"><ele>152.66666666666666</ele><time>2026-05-03T07:30:14.148Z</time></trkpt><trkpt lat="46.0766855" lon="13.4555811"><ele>152.33333333333331</ele><time>2026-05-03T07:30:15.149Z</time></trkpt><trkpt lat="46.0765336" lon="13.4557065"><ele>152.0</ele><time>2026-05-03T07:30:16.148Z</time></trkpt><trkpt lat="46.0763823" lon="13.4558297"><ele>150.66666666666666</ele><time>2026-05-03T07:30:17.149Z</time></trkpt><trkpt lat="46.0762443" lon="13.4559602"><ele>149.33333333333334</ele><time>2026-05-03T07:30:18.149Z</time></trkpt><trkpt lat="46.0761049" lon="13.4560719"><ele>148.0</ele><time>2026-05-03T07:30:19.149Z</time></trkpt><trkpt lat="46.075964" lon="13.4561912"><ele>146.66666666666669</ele><time>2026-05-03T07:30:20.148Z</time></trkpt><trkpt lat="46.0758209" lon="13.4563214"><ele>145.33333333333334</ele><time>2026-05-03T07:30:21.149Z</time></trkpt><trkpt lat="46.0756811" lon="13.4564631"><ele>144.0</ele><time>2026-05-03T07:30:22.149Z</time></trkpt><trkpt lat="46.0755508" lon="13.4566124"><ele>143.0</ele><time>2026-05-03T07:30:23.148Z</time></trkpt><trkpt lat="46.0754207" lon="13.4567659"><ele>142.0</ele><time>2026-05-03T07:30:24.148Z</time></trkpt><trkpt lat="46.0752832" lon="13.4569274"><ele>141.0</ele><time>2026-05-03T07:30:25.148Z</time></trkpt><trkpt lat="46.0751468" lon="13.4570843"><ele>141.33333333333334</ele><time>2026-05-03T07:30:26.148Z</time></trkpt><trkpt lat="46.0750245" lon="13.4572368"><ele>141.66666666666669</ele><time>2026-05-03T07:30:27.149Z</time></trkpt><trkpt lat="46.0748959" lon="13.457375"><ele>142.0</ele><time>2026-05-03T07:30:28.148Z</time></trkpt><trkpt lat="46.0747666" lon="13.4575273"><ele>141.0</ele><time>2026-05-03T07:30:29.148Z</time></trkpt><trkpt lat="46.0746347" lon="13.4576881"><ele>140.0</ele><time>2026-05-03T07:30:30.149Z</time></trkpt><trkpt lat="46.0745012" lon="13.4578521"><ele>139.0</ele><time>2026-05-03T07:30:31.148Z</time></trkpt><trkpt lat="46.0743699" lon="13.4580175"><ele>139.0</ele><time>2026-05-03T07:30:32.149Z</time></trkpt><trkpt lat="46.0742387" lon="13.4581846"><ele>139.0</ele><time>2026-05-03T07:30:33.149Z</time></trkpt><trkpt lat="46.0741115" lon="13.458342"><ele>139.0</ele><time>2026-05-03T07:30:34.149Z</time></trkpt><trkpt lat="46.07398" lon="13.4585024"><ele>137.0</ele><time>2026-05-03T07:30:35.149Z</time></trkpt><trkpt lat="46.0738448" lon="13.4586631"><ele>135.0</ele><time>2026-05-03T07:30:36.148Z</time></trkpt><trkpt lat="46.073713" lon="13.4588253"><ele>133.0</ele><time>2026-05-03T07:30:37.149Z</time></trkpt><trkpt lat="46.073585" lon="13.4589912"><ele>133.0</ele><time>2026-05-03T07:30:38.148Z</time></trkpt><trkpt lat="46.0734562" lon="13.4591595"><ele>133.0</ele><time>2026-05-03T07:30:39.149Z</time></trkpt><trkpt lat="46.073334" lon="13.4593247"><ele>133.0</ele><time>2026-05-03T07:30:40.149Z</time></trkpt><trkpt lat="46.0732025" lon="13.4595083"><ele>132.33333333333334</ele><time>2026-05-03T07:30:41.148Z</time></trkpt><trkpt lat="46.0730731" lon="13.4596814"><ele>131.66666666666666</ele><time>2026-05-03T07:30:42.149Z</time></trkpt><trkpt lat="46.0729468" lon="13.4598503"><ele>131.0</ele><time>2026-05-03T07:30:43.149Z</time></trkpt><trkpt lat="46.0728234" lon="13.4600246"><ele>131.0</ele><time>2026-05-03T07:30:44.149Z</time></trkpt><trkpt lat="46.0726961" lon="13.4601988"><ele>131.0</ele><time>2026-05-03T07:30:45.149Z</time></trkpt><trkpt lat="46.0725696" lon="13.4603755"><ele>131.0</ele><time>2026-05-03T07:30:46.149Z</time></trkpt><trkpt lat="46.0724429" lon="13.4605492"><ele>131.33333333333331</ele><time>2026-05-03T07:30:47.148Z</time></trkpt><trkpt lat="46.0723176" lon="13.4607173"><ele>131.66666666666666</ele><time>2026-05-03T07:30:48.148Z</time></trkpt><trkpt lat="46.0722035" lon="13.4608728"><ele>132.0</ele><time>2026-05-03T07:30:49.148Z</time></trkpt><trkpt lat="46.0720808" lon="13.4610347"><ele>132.0</ele><time>2026-05-03T07:30:50.149Z</time></trkpt><trkpt lat="46.0719665" lon="13.4611908"><ele>132.0</ele><time>2026-05-03T07:30:51.149Z</time></trkpt><trkpt lat="46.0718561" lon="13.4613388"><ele>132.0</ele><time>2026-05-03T07:30:52.149Z</time></trkpt><trkpt lat="46.0717465" lon="13.4614802"><ele>132.0</ele><time>2026-05-03T07:30:53.149Z</time></trkpt><trkpt lat="46.0716378" lon="13.4616262"><ele>132.0</ele><time>2026-05-03T07:30:54.148Z</time></trkpt><trkpt lat="46.0715244" lon="13.4617849"><ele>132.0</ele><time>2026-05-03T07:30:55.148Z</time></trkpt><trkpt lat="46.0714102" lon="13.4619337"><ele>132.0</ele><time>2026-05-03T07:30:56.149Z</time></trkpt><trkpt lat="46.0712931" lon="13.4620779"><ele>132.0</ele><time>2026-05-03T07:30:57.149Z</time></trkpt><trkpt lat="46.0711806" lon="13.4622199"><ele>132.0</ele><time>2026-05-03T07:30:58.148Z</time></trkpt><trkpt lat="46.071075" lon="13.462354"><ele>132.0</ele><time>2026-05-03T07:30:59.148Z</time></trkpt><trkpt lat="46.0709785" lon="13.4624803"><ele>131.75</ele><time>2026-05-03T07:31:00.147Z</time></trkpt><trkpt lat="46.0708799" lon="13.4625955"><ele>131.5</ele><time>2026-05-03T07:31:01.148Z</time></trkpt><trkpt lat="46.0707762" lon="13.4626888"><ele>131.25</ele><time>2026-05-03T07:31:02.148Z</time></trkpt><trkpt lat="46.0706628" lon="13.4627615"><ele>131.0</ele><time>2026-05-03T07:31:03.148Z</time></trkpt><trkpt lat="46.0705529" lon="13.4628217"><ele>130.33333333333331</ele><time>2026-05-03T07:31:04.148Z</time></trkpt><trkpt lat="46.0704615" lon="13.4628696"><ele>129.66666666666666</ele><time>2026-05-03T07:31:05.148Z</time></trkpt><trkpt lat="46.0703733" lon="13.4629212"><ele>129.0</ele><time>2026-05-03T07:31:06.148Z</time></trkpt><trkpt lat="46.0707203" lon="13.4629566"><ele>128.6</ele><time>2026-05-03T07:31:09.147Z</time></trkpt><trkpt lat="46.0706851" lon="13.4630667"><ele>128.2</ele><time>2026-05-03T07:31:10.148Z</time></trkpt><trkpt lat="46.0706213" lon="13.4631901"><ele>127.79999999999998</ele><time>2026-05-03T07:31:11.147Z</time></trkpt><trkpt lat="46.0705541" lon="13.4633125"><ele>127.39999999999999</ele><time>2026-05-03T07:31:12.147Z</time></trkpt><trkpt lat="46.0704917" lon="13.463454"><ele>127.0</ele><time>2026-05-03T07:31:13.148Z</time></trkpt><trkpt lat="46.0704429" lon="13.4636069"><ele>127.0</ele><time>2026-05-03T07:31:14.148Z</time></trkpt><trkpt lat="46.0704179" lon="13.4637573"><ele>127.0</ele><time>2026-05-03T07:31:15.148Z</time></trkpt><trkpt lat="46.0704011" lon="13.4639195"><ele>127.0</ele><time>2026-05-03T07:31:16.148Z</time></trkpt><trkpt lat="46.0704008" lon="13.4640855"><ele>127.0</ele><time>2026-05-03T07:31:17.147Z</time></trkpt><trkpt lat="46.0704227" lon="13.4642509"><ele>127.25</ele><time>2026-05-03T07:31:18.147Z</time></trkpt><trkpt lat="46.0704519" lon="13.4644266"><ele>127.5</ele><time>2026-05-03T07:31:19.147Z</time></trkpt><trkpt lat="46.0704764" lon="13.464594"><ele>127.75</ele><time>2026-05-03T07:31:20.148Z</time></trkpt><trkpt lat="46.070497" lon="13.464754"><ele>128.0</ele><time>2026-05-03T07:31:21.148Z</time></trkpt><trkpt lat="46.0705192" lon="13.4648987"><ele>127.60000000000001</ele><time>2026-05-03T07:31:22.148Z</time></trkpt><trkpt lat="46.0705267" lon="13.4650244"><ele>127.20000000000002</ele><time>2026-05-03T07:31:23.148Z</time></trkpt><trkpt lat="46.0705073" lon="13.4651554"><ele>126.8</ele><time>2026-05-03T07:31:24.148Z</time></trkpt><trkpt lat="46.0704641" lon="13.4652973"><ele>126.4</ele><time>2026-05-03T07:31:25.148Z</time></trkpt><trkpt lat="46.0704146" lon="13.4654293"><ele>126.0</ele><time>2026-05-03T07:31:26.147Z</time></trkpt><trkpt lat="46.0703666" lon="13.4655765"><ele>125.75</ele><time>2026-05-03T07:31:27.148Z</time></trkpt><trkpt lat="46.0703185" lon="13.4657317"><ele>125.5</ele><time>2026-05-03T07:31:28.148Z</time></trkpt><trkpt lat="46.0702708" lon="13.4658904"><ele>125.25</ele><time>2026-05-03T07:31:29.148Z</time></trkpt><trkpt lat="46.0702273" lon="13.4660475"><ele>125.0</ele><time>2026-05-03T07:31:30.147Z</time></trkpt><trkpt lat="46.0701757" lon="13.4661991"><ele>124.99999999999999</ele><time>2026-05-03T07:31:31.147Z</time></trkpt><trkpt lat="46.0701263" lon="13.4663421"><ele>125.0</ele><time>2026-05-03T07:31:32.148Z</time></trkpt><trkpt lat="46.0700835" lon="13.4664775"><ele>125.0</ele><time>2026-05-03T07:31:33.147Z</time></trkpt><trkpt lat="46.0700495" lon="13.466592"><ele>125.0</ele><time>2026-05-03T07:31:34.148Z</time></trkpt><trkpt lat="46.070016" lon="13.4666829"><ele>124.99999999999999</ele><time>2026-05-03T07:31:35.147Z</time></trkpt><trkpt lat="46.0699677" lon="13.4667491"><ele>125.0</ele><time>2026-05-03T07:31:36.147Z</time></trkpt><trkpt lat="46.069912" lon="13.4667927"><ele>124.99999999999999</ele><time>2026-05-03T07:31:37.148Z</time></trkpt><trkpt lat="46.0698448" lon="13.4668231"><ele>125.0</ele><time>2026-05-03T07:31:38.148Z</time></trkpt><trkpt lat="46.0697686" lon="13.4668209"><ele>125.0</ele><time>2026-05-03T07:31:39.148Z</time></trkpt><trkpt lat="46.0696776" lon="13.466811"><ele>125.0</ele><time>2026-05-03T07:31:40.147Z</time></trkpt><trkpt lat="46.0695842" lon="13.4668009"><ele>124.99999999999999</ele><time>2026-05-03T07:31:41.148Z</time></trkpt><trkpt lat="46.0694829" lon="13.4667957"><ele>125.0</ele><time>2026-05-03T07:31:42.148Z</time></trkpt><trkpt lat="46.0693787" lon="13.4667798"><ele>125.0</ele><time>2026-05-03T07:31:43.148Z</time></trkpt><trkpt lat="46.0692727" lon="13.466772"><ele>125.0</ele><time>2026-05-03T07:31:44.147Z</time></trkpt><trkpt lat="46.0691633" lon="13.4667753"><ele>125.0</ele><time>2026-05-03T07:31:45.147Z</time></trkpt><trkpt lat="46.0690593" lon="13.466797"><ele>125.0</ele><time>2026-05-03T07:31:46.147Z</time></trkpt><trkpt lat="46.0689699" lon="13.4668315"><ele>125.0</ele><time>2026-05-03T07:31:47.148Z</time></trkpt><trkpt lat="46.0688928" lon="13.4668913"><ele>126.0</ele><time>2026-05-03T07:31:48.148Z</time></trkpt><trkpt lat="46.0688246" lon="13.4669897"><ele>127.0</ele><time>2026-05-03T07:31:49.147Z</time></trkpt><trkpt lat="46.068758" lon="13.4671036"><ele>128.0</ele><time>2026-05-03T07:31:50.148Z</time></trkpt><trkpt lat="46.0686877" lon="13.4672368"><ele>129.0</ele><time>2026-05-03T07:31:51.147Z</time></trkpt><trkpt lat="46.0686186" lon="13.4673788"><ele>130.0</ele><time>2026-05-03T07:31:52.148Z</time></trkpt><trkpt lat="46.0685453" lon="13.4675371"><ele>130.0</ele><time>2026-05-03T07:31:53.148Z</time></trkpt><trkpt lat="46.0684663" lon="13.4676991"><ele>130.0</ele><time>2026-05-03T07:31:54.148Z</time></trkpt><trkpt lat="46.0683829" lon="13.4678732"><ele>130.0</ele><time>2026-05-03T07:31:55.148Z</time></trkpt><trkpt lat="46.0682981" lon="13.4680493"><ele>130.0</ele><time>2026-05-03T07:31:56.148Z</time></trkpt><trkpt lat="46.0682099" lon="13.46823"><ele>132.33333333333334</ele><time>2026-05-03T07:31:57.148Z</time></trkpt><trkpt lat="46.0681187" lon="13.4684102"><ele>134.66666666666666</ele><time>2026-05-03T07:31:58.147Z</time></trkpt><trkpt lat="46.0680264" lon="13.4685903"><ele>137.0</ele><time>2026-05-03T07:31:59.148Z</time></trkpt><trkpt lat="46.0679328" lon="13.4687657"><ele>135.66666666666666</ele><time>2026-05-03T07:32:00.148Z</time></trkpt><trkpt lat="46.067839" lon="13.4689396"><ele>134.33333333333334</ele><time>2026-05-03T07:32:01.148Z</time></trkpt><trkpt lat="46.0677486" lon="13.469114"><ele>133.0</ele><time>2026-05-03T07:32:02.148Z</time></trkpt><trkpt lat="46.0676649" lon="13.4692971"><ele>133.0</ele><time>2026-05-03T07:32:03.148Z</time></trkpt><trkpt lat="46.0675943" lon="13.4694844"><ele>133.0</ele><time>2026-05-03T07:32:04.147Z</time></trkpt><trkpt lat="46.0675303" lon="13.4696779"><ele>133.0</ele><time>2026-05-03T07:32:05.147Z</time></trkpt><trkpt lat="46.0674632" lon="13.4698616"><ele>133.0</ele><time>2026-05-03T07:32:06.148Z</time></trkpt><trkpt lat="46.0673989" lon="13.4700481"><ele>132.25</ele><time>2026-05-03T07:32:07.148Z</time></trkpt><trkpt lat="46.0673326" lon="13.4702309"><ele>131.5</ele><time>2026-05-03T07:32:08.148Z</time></trkpt><trkpt lat="46.067266" lon="13.4703796"><ele>130.75</ele><time>2026-05-03T07:32:09.148Z</time></trkpt><trkpt lat="46.0671833" lon="13.4704882"><ele>130.0</ele><time>2026-05-03T07:32:10.148Z</time></trkpt><trkpt lat="46.0670941" lon="13.4705852"><ele>130.0</ele><time>2026-05-03T07:32:11.148Z</time></trkpt><trkpt lat="46.0670019" lon="13.4706984"><ele>130.0</ele><time>2026-05-03T07:32:12.148Z</time></trkpt><trkpt lat="46.0668993" lon="13.4708386"><ele>130.0</ele><time>2026-05-03T07:32:13.148Z</time></trkpt><trkpt lat="46.0668041" lon="13.4710028"><ele>130.0</ele><time>2026-05-03T07:32:14.147Z</time></trkpt><trkpt lat="46.0667131" lon="13.4711772"><ele>127.66666666666667</ele><time>2026-05-03T07:32:15.148Z</time></trkpt><trkpt lat="46.066623" lon="13.4713597"><ele>125.33333333333334</ele><time>2026-05-03T07:32:16.148Z</time></trkpt><trkpt lat="46.0665255" lon="13.471547"><ele>123.0</ele><time>2026-05-03T07:32:17.147Z</time></trkpt><trkpt lat="46.0664277" lon="13.4717333"><ele>123.0</ele><time>2026-05-03T07:32:18.147Z</time></trkpt><trkpt lat="46.0663326" lon="13.4719075"><ele>123.0</ele><time>2026-05-03T07:32:19.147Z</time></trkpt><trkpt lat="46.0662423" lon="13.4720958"><ele>123.0</ele><time>2026-05-03T07:32:20.148Z</time></trkpt><trkpt lat="46.0661498" lon="13.4722642"><ele>124.0</ele><time>2026-05-03T07:32:21.148Z</time></trkpt><trkpt lat="46.0660612" lon="13.4724309"><ele>125.0</ele><time>2026-05-03T07:32:22.148Z</time></trkpt><trkpt lat="46.0659811" lon="13.4725905"><ele>126.0</ele><time>2026-05-03T07:32:23.147Z</time></trkpt><trkpt lat="46.065904" lon="13.4727392"><ele>127.0</ele><time>2026-05-03T07:32:24.148Z</time></trkpt><trkpt lat="46.0658356" lon="13.472887"><ele>126.6</ele><time>2026-05-03T07:32:25.148Z</time></trkpt><trkpt lat="46.0657659" lon="13.4730225"><ele>126.19999999999999</ele><time>2026-05-03T07:32:26.148Z</time></trkpt><trkpt lat="46.0656952" lon="13.4731473"><ele>125.8</ele><time>2026-05-03T07:32:27.148Z</time></trkpt><trkpt lat="46.0656259" lon="13.4732614"><ele>125.4</ele><time>2026-05-03T07:32:28.148Z</time></trkpt><trkpt lat="46.0655581" lon="13.4733706"><ele>125.0</ele><time>2026-05-03T07:32:29.148Z</time></trkpt><trkpt lat="46.0654896" lon="13.4734635"><ele>124.99999999999999</ele><time>2026-05-03T07:32:30.148Z</time></trkpt><trkpt lat="46.0654297" lon="13.4735406"><ele>125.0</ele><time>2026-05-03T07:32:31.148Z</time></trkpt><trkpt lat="46.0653725" lon="13.47359"><ele>125.0</ele><time>2026-05-03T07:32:32.148Z</time></trkpt><trkpt lat="46.0652876" lon="13.473606"><ele>125.0</ele><time>2026-05-03T07:32:34.148Z</time></trkpt><trkpt lat="46.0652228" lon="13.4735612"><ele>124.99999999999999</ele><time>2026-05-03T07:32:36.147Z</time></trkpt><trkpt lat="46.0651601" lon="13.4733943"><ele>125.0</ele><time>2026-05-03T07:32:38.148Z</time></trkpt><trkpt lat="46.0651305" lon="13.4733015"><ele>124.99999999999999</ele><time>2026-05-03T07:32:39.148Z</time></trkpt><trkpt lat="46.0650982" lon="13.4732019"><ele>125.0</ele><time>2026-05-03T07:32:40.148Z</time></trkpt><trkpt lat="46.0650669" lon="13.4730898"><ele>125.0</ele><time>2026-05-03T07:32:41.148Z</time></trkpt><trkpt lat="46.0650318" lon="13.472973"><ele>125.0</ele><time>2026-05-03T07:32:42.148Z</time></trkpt><trkpt lat="46.0650048" lon="13.4728448"><ele>124.99999999999999</ele><time>2026-05-03T07:32:43.147Z</time></trkpt><trkpt lat="46.0649822" lon="13.4727254"><ele>125.0</ele><time>2026-05-03T07:32:44.148Z</time></trkpt><trkpt lat="46.0649614" lon="13.472591"><ele>124.6</ele><time>2026-05-03T07:32:45.147Z</time></trkpt><trkpt lat="46.0649364" lon="13.4724596"><ele>124.2</ele><time>2026-05-03T07:32:46.147Z</time></trkpt><trkpt lat="46.06491" lon="13.4723273"><ele>123.80000000000001</ele><time>2026-05-03T07:32:47.148Z</time></trkpt><trkpt lat="46.0648868" lon="13.4721858"><ele>123.4</ele><time>2026-05-03T07:32:48.148Z</time></trkpt><trkpt lat="46.0648625" lon="13.4720478"><ele>123.0</ele><time>2026-05-03T07:32:49.147Z</time></trkpt><trkpt lat="46.0648401" lon="13.471909"><ele>124.0</ele><time>2026-05-03T07:32:50.147Z</time></trkpt><trkpt lat="46.0648198" lon="13.4717607"><ele>125.00000000000001</ele><time>2026-05-03T07:32:51.148Z</time></trkpt><trkpt lat="46.0648029" lon="13.4716087"><ele>126.00000000000001</ele><time>2026-05-03T07:32:52.147Z</time></trkpt><trkpt lat="46.0647944" lon="13.4714628"><ele>127.0</ele><time>2026-05-03T07:32:53.148Z</time></trkpt><trkpt lat="46.064796" lon="13.4713238"><ele>128.0</ele><time>2026-05-03T07:32:54.147Z</time></trkpt><trkpt lat="46.0647968" lon="13.4711802"><ele>129.20000000000002</ele><time>2026-05-03T07:32:55.147Z</time></trkpt><trkpt lat="46.0647952" lon="13.4710321"><ele>130.4</ele><time>2026-05-03T07:32:56.147Z</time></trkpt><trkpt lat="46.0647977" lon="13.4709045"><ele>131.60000000000002</ele><time>2026-05-03T07:32:57.148Z</time></trkpt><trkpt lat="46.0648013" lon="13.4707861"><ele>132.8</ele><time>2026-05-03T07:32:58.148Z</time></trkpt><trkpt lat="46.0648088" lon="13.4706574"><ele>134.0</ele><time>2026-05-03T07:32:59.148Z</time></trkpt><trkpt lat="46.0648256" lon="13.4705227"><ele>133.4</ele><time>2026-05-03T07:33:00.148Z</time></trkpt><trkpt lat="46.0648461" lon="13.4703874"><ele>132.8</ele><time>2026-05-03T07:33:01.147Z</time></trkpt><trkpt lat="46.0648667" lon="13.4702552"><ele>132.2</ele><time>2026-05-03T07:33:02.148Z</time></trkpt><trkpt lat="46.0648898" lon="13.4701216"><ele>131.6</ele><time>2026-05-03T07:33:03.148Z</time></trkpt><trkpt lat="46.0649138" lon="13.469989"><ele>131.0</ele><time>2026-05-03T07:33:04.148Z</time></trkpt><trkpt lat="46.0649442" lon="13.4698619"><ele>130.33333333333331</ele><time>2026-05-03T07:33:05.148Z</time></trkpt><trkpt lat="46.064971" lon="13.4697478"><ele>129.66666666666666</ele><time>2026-05-03T07:33:06.148Z</time></trkpt><trkpt lat="46.0649964" lon="13.4696297"><ele>129.0</ele><time>2026-05-03T07:33:07.147Z</time></trkpt><trkpt lat="46.0650006" lon="13.4695083"><ele>128.33333333333334</ele><time>2026-05-03T07:33:08.147Z</time></trkpt><trkpt lat="46.0649912" lon="13.4693926"><ele>127.66666666666667</ele><time>2026-05-03T07:33:09.148Z</time></trkpt><trkpt lat="46.0649749" lon="13.4692731"><ele>127.0</ele><time>2026-05-03T07:33:10.148Z</time></trkpt><trkpt lat="46.0649501" lon="13.469146"><ele>126.50000000000001</ele><time>2026-05-03T07:33:11.147Z</time></trkpt><trkpt lat="46.0649254" lon="13.4690184"><ele>126.0</ele><time>2026-05-03T07:33:12.148Z</time></trkpt><trkpt lat="46.0649015" lon="13.4689038"><ele>125.5</ele><time>2026-05-03T07:33:13.147Z</time></trkpt><trkpt lat="46.0648741" lon="13.4688153"><ele>125.0</ele><time>2026-05-03T07:33:14.148Z</time></trkpt><trkpt lat="46.0648414" lon="13.4687208"><ele>124.50000000000001</ele><time>2026-05-03T07:33:15.148Z</time></trkpt><trkpt lat="46.0648016" lon="13.4686499"><ele>124.0</ele><time>2026-05-03T07:33:16.148Z</time></trkpt><trkpt lat="46.064677" lon="13.4686032"><ele>124.0</ele><time>2026-05-03T07:33:18.148Z</time></trkpt><trkpt lat="46.0646047" lon="13.4686105"><ele>124.0</ele><time>2026-05-03T07:33:19.147Z</time></trkpt><trkpt lat="46.0644822" lon="13.4686072"><ele>124.0</ele><time>2026-05-03T07:33:21.147Z</time></trkpt><trkpt lat="46.0643831" lon="13.4685284"><ele>124.0</ele><time>2026-05-03T07:33:23.148Z</time></trkpt><trkpt lat="46.064328" lon="13.4684691"><ele>124.0</ele><time>2026-05-03T07:33:24.148Z</time></trkpt><trkpt lat="46.0642726" lon="13.4683914"><ele>124.0</ele><time>2026-05-03T07:33:25.148Z</time></trkpt><trkpt lat="46.0642241" lon="13.4683164"><ele>124.00000000000001</ele><time>2026-05-03T07:33:26.148Z</time></trkpt><trkpt lat="46.0641754" lon="13.4682296"><ele>124.0</ele><time>2026-05-03T07:33:27.148Z</time></trkpt><trkpt lat="46.0641451" lon="13.4681389"><ele>124.0</ele><time>2026-05-03T07:33:28.148Z</time></trkpt><trkpt lat="46.0641217" lon="13.4680399"><ele>124.00000000000001</ele><time>2026-05-03T07:33:29.147Z</time></trkpt><trkpt lat="46.0640999" lon="13.4679533"><ele>124.0</ele><time>2026-05-03T07:33:30.147Z</time></trkpt><trkpt lat="46.0640591" lon="13.4678765"><ele>124.0</ele><time>2026-05-03T07:33:31.148Z</time></trkpt><trkpt lat="46.0640114" lon="13.4678018"><ele>123.66666666666667</ele><time>2026-05-03T07:33:32.147Z</time></trkpt><trkpt lat="46.0639384" lon="13.4677355"><ele>123.33333333333334</ele><time>2026-05-03T07:33:33.148Z</time></trkpt><trkpt lat="46.0638716" lon="13.4676746"><ele>123.0</ele><time>2026-05-03T07:33:34.148Z</time></trkpt><trkpt lat="46.0638031" lon="13.4676218"><ele>122.66666666666666</ele><time>2026-05-03T07:33:35.148Z</time></trkpt><trkpt lat="46.0637337" lon="13.4675618"><ele>122.33333333333333</ele><time>2026-05-03T07:33:36.147Z</time></trkpt><trkpt lat="46.0636689" lon="13.4675087"><ele>122.0</ele><time>2026-05-03T07:33:37.148Z</time></trkpt><trkpt lat="46.0635925" lon="13.4674631"><ele>121.99999999999999</ele><time>2026-05-03T07:33:38.148Z</time></trkpt><trkpt lat="46.0635105" lon="13.4674191"><ele>122.0</ele><time>2026-05-03T07:33:39.148Z</time></trkpt><trkpt lat="46.0634131" lon="13.4673906"><ele>122.0</ele><time>2026-05-03T07:33:40.148Z</time></trkpt><trkpt lat="46.0633397" lon="13.4673523"><ele>122.0</ele><time>2026-05-03T07:33:41.148Z</time></trkpt><trkpt lat="46.0632692" lon="13.4673226"><ele>121.99999999999999</ele><time>2026-05-03T07:33:42.148Z</time></trkpt><trkpt lat="46.0631969" lon="13.4672827"><ele>122.0</ele><time>2026-05-03T07:33:43.147Z</time></trkpt><trkpt lat="46.063128" lon="13.4672115"><ele>122.16666666666666</ele><time>2026-05-03T07:33:44.148Z</time></trkpt><trkpt lat="46.0630689" lon="13.467122"><ele>122.33333333333333</ele><time>2026-05-03T07:33:45.148Z</time></trkpt><trkpt lat="46.0630055" lon="13.4670382"><ele>122.5</ele><time>2026-05-03T07:33:46.148Z</time></trkpt><trkpt lat="46.0629353" lon="13.4669542"><ele>122.66666666666666</ele><time>2026-05-03T07:33:47.148Z</time></trkpt><trkpt lat="46.0628618" lon="13.4668976"><ele>122.83333333333333</ele><time>2026-05-03T07:33:48.148Z</time></trkpt><trkpt lat="46.0627793" lon="13.4668603"><ele>123.0</ele><time>2026-05-03T07:33:49.147Z</time></trkpt><trkpt lat="46.0626983" lon="13.4668281"><ele>123.0</ele><time>2026-05-03T07:33:50.148Z</time></trkpt><trkpt lat="46.0626112" lon="13.4667769"><ele>123.0</ele><time>2026-05-03T07:33:51.147Z</time></trkpt><trkpt lat="46.0625267" lon="13.4667379"><ele>123.0</ele><time>2026-05-03T07:33:52.148Z</time></trkpt><trkpt lat="46.0624523" lon="13.4666978"><ele>123.0</ele><time>2026-05-03T07:33:53.147Z</time></trkpt><trkpt lat="46.062383" lon="13.466645"><ele>123.0</ele><time>2026-05-03T07:33:54.147Z</time></trkpt><trkpt lat="46.0623178" lon="13.4665753"><ele>123.0</ele><time>2026-05-03T07:33:55.148Z</time></trkpt><trkpt lat="46.0622528" lon="13.4664955"><ele>122.33333333333333</ele><time>2026-05-03T07:33:56.147Z</time></trkpt><trkpt lat="46.0621952" lon="13.4664348"><ele>121.66666666666666</ele><time>2026-05-03T07:33:57.148Z</time></trkpt><trkpt lat="46.0620835" lon="13.4663678"><ele>121.0</ele><time>2026-05-03T07:33:59.147Z</time></trkpt><trkpt lat="46.0619798" lon="13.4663431"><ele>120.33333333333333</ele><time>2026-05-03T07:34:01.147Z</time></trkpt><trkpt lat="46.0619099" lon="13.4663279"><ele>119.66666666666666</ele><time>2026-05-03T07:34:03.148Z</time></trkpt><trkpt lat="46.0618464" lon="13.4663196"><ele>119.0</ele><time>2026-05-03T07:34:05.147Z</time></trkpt><trkpt lat="46.0617701" lon="13.4663062"><ele>119.0</ele><time>2026-05-03T07:34:07.147Z</time></trkpt><trkpt lat="46.0617029" lon="13.4662754"><ele>119.0</ele><time>2026-05-03T07:34:08.148Z</time></trkpt><trkpt lat="46.0616218" lon="13.4662301"><ele>119.0</ele><time>2026-05-03T07:34:09.148Z</time></trkpt><trkpt lat="46.0615506" lon="13.4661967"><ele>119.0</ele><time>2026-05-03T07:34:10.148Z</time></trkpt><trkpt lat="46.0614395" lon="13.4661963"><ele>119.0</ele><time>2026-05-03T07:34:12.147Z</time></trkpt><trkpt lat="46.0613333" lon="13.4661765"><ele>119.0</ele><time>2026-05-03T07:34:14.148Z</time></trkpt><trkpt lat="46.0612385" lon="13.4661892"><ele>119.0</ele><time>2026-05-03T07:34:16.147Z</time></trkpt><trkpt lat="46.0611243" lon="13.4661527"><ele>119.0</ele><time>2026-05-03T07:34:18.147Z</time></trkpt><trkpt lat="46.0610163" lon="13.4660765"><ele>119.0</ele><time>2026-05-03T07:34:20.148Z</time></trkpt><trkpt lat="46.0609647" lon="13.4659951"><ele>119.0</ele><time>2026-05-03T07:34:21.147Z</time></trkpt><trkpt lat="46.0609222" lon="13.4659158"><ele>118.99999999999999</ele><time>2026-05-03T07:34:22.147Z</time></trkpt><trkpt lat="46.0608867" lon="13.4658273"><ele>119.0</ele><time>2026-05-03T07:34:23.148Z</time></trkpt><trkpt lat="46.0608526" lon="13.4657251"><ele>119.0</ele><time>2026-05-03T07:34:24.148Z</time></trkpt><trkpt lat="46.060821" lon="13.4656096"><ele>119.0</ele><time>2026-05-03T07:34:25.147Z</time></trkpt><trkpt lat="46.0607947" lon="13.4654964"><ele>118.99999999999999</ele><time>2026-05-03T07:34:26.147Z</time></trkpt><trkpt lat="46.0607679" lon="13.4653782"><ele>119.0</ele><time>2026-05-03T07:34:27.148Z</time></trkpt><trkpt lat="46.0607456" lon="13.4652598"><ele>118.33333333333333</ele><time>2026-05-03T07:34:28.148Z</time></trkpt><trkpt lat="46.060729" lon="13.4651593"><ele>117.66666666666666</ele><time>2026-05-03T07:34:29.148Z</time></trkpt><trkpt lat="46.0607043" lon="13.4650623"><ele>117.0</ele><time>2026-05-03T07:34:30.147Z</time></trkpt><trkpt lat="46.0606673" lon="13.4649728"><ele>116.33333333333334</ele><time>2026-05-03T07:34:31.148Z</time></trkpt><trkpt lat="46.0606153" lon="13.4648889"><ele>115.66666666666667</ele><time>2026-05-03T07:34:32.147Z</time></trkpt><trkpt lat="46.0605546" lon="13.4648167"><ele>115.0</ele><time>2026-05-03T07:34:33.147Z</time></trkpt><trkpt lat="46.0604839" lon="13.4647555"><ele>115.0</ele><time>2026-05-03T07:34:34.148Z</time></trkpt><trkpt lat="46.0604022" lon="13.4646932"><ele>115.0</ele><time>2026-05-03T07:34:35.147Z</time></trkpt><trkpt lat="46.0603209" lon="13.4646199"><ele>115.0</ele><time>2026-05-03T07:34:36.148Z</time></trkpt><trkpt lat="46.0602454" lon="13.4645409"><ele>115.0</ele><time>2026-05-03T07:34:37.148Z</time></trkpt><trkpt lat="46.060177" lon="13.4644421"><ele>115.0</ele><time>2026-05-03T07:34:38.147Z</time></trkpt><trkpt lat="46.0601112" lon="13.4643282"><ele>115.0</ele><time>2026-05-03T07:34:39.148Z</time></trkpt><trkpt lat="46.0600538" lon="13.4642071"><ele>115.0</ele><time>2026-05-03T07:34:40.148Z</time></trkpt><trkpt lat="46.0600024" lon="13.4640896"><ele>115.0</ele><time>2026-05-03T07:34:41.148Z</time></trkpt><trkpt lat="46.059952" lon="13.4639641"><ele>115.0</ele><time>2026-05-03T07:34:42.147Z</time></trkpt><trkpt lat="46.0598925" lon="13.4638327"><ele>115.0</ele><time>2026-05-03T07:34:43.148Z</time></trkpt><trkpt lat="46.0598301" lon="13.4637177"><ele>115.0</ele><time>2026-05-03T07:34:44.148Z</time></trkpt><trkpt lat="46.0597609" lon="13.4636093"><ele>115.0</ele><time>2026-05-03T07:34:45.147Z</time></trkpt><trkpt lat="46.0596884" lon="13.4634924"><ele>115.0</ele><time>2026-05-03T07:34:46.147Z</time></trkpt><trkpt lat="46.0596153" lon="13.463354"><ele>115.0</ele><time>2026-05-03T07:34:47.148Z</time></trkpt><trkpt lat="46.0595515" lon="13.4632198"><ele>115.0</ele><time>2026-05-03T07:34:48.148Z</time></trkpt><trkpt lat="46.0594999" lon="13.4631002"><ele>115.00000000000001</ele><time>2026-05-03T07:34:49.148Z</time></trkpt><trkpt lat="46.0594534" lon="13.4629849"><ele>115.0</ele><time>2026-05-03T07:34:50.148Z</time></trkpt><trkpt lat="46.0594033" lon="13.4628749"><ele>115.0</ele><time>2026-05-03T07:34:51.148Z</time></trkpt><trkpt lat="46.0593568" lon="13.4627813"><ele>115.0</ele><time>2026-05-03T07:34:52.148Z</time></trkpt><trkpt lat="46.0593066" lon="13.4626898"><ele>115.00000000000001</ele><time>2026-05-03T07:34:53.148Z</time></trkpt><trkpt lat="46.059238" lon="13.4625987"><ele>115.0</ele><time>2026-05-03T07:34:54.148Z</time></trkpt><trkpt lat="46.0591617" lon="13.4625152"><ele>115.0</ele><time>2026-05-03T07:34:55.148Z</time></trkpt><trkpt lat="46.0591006" lon="13.4624402"><ele>115.0</ele><time>2026-05-03T07:34:56.148Z</time></trkpt><trkpt lat="46.0590545" lon="13.4623612"><ele>115.0</ele><time>2026-05-03T07:34:57.148Z</time></trkpt><trkpt lat="46.0589878" lon="13.462183"><ele>115.0</ele><time>2026-05-03T07:34:59.148Z</time></trkpt><trkpt lat="46.0589379" lon="13.4620692"><ele>115.0</ele><time>2026-05-03T07:35:00.148Z</time></trkpt><trkpt lat="46.0588881" lon="13.4619523"><ele>115.00000000000001</ele><time>2026-05-03T07:35:01.148Z</time></trkpt><trkpt lat="46.0588339" lon="13.4618526"><ele>115.0</ele><time>2026-05-03T07:35:02.148Z</time></trkpt><trkpt lat="46.0587799" lon="13.4617589"><ele>115.0</ele><time>2026-05-03T07:35:03.147Z</time></trkpt><trkpt lat="46.0587183" lon="13.4616869"><ele>115.0</ele><time>2026-05-03T07:35:04.147Z</time></trkpt><trkpt lat="46.0586338" lon="13.4616506"><ele>115.00000000000001</ele><time>2026-05-03T07:35:05.146Z</time></trkpt><trkpt lat="46.0585611" lon="13.4616237"><ele>115.0</ele><time>2026-05-03T07:35:06.147Z</time></trkpt><trkpt lat="46.0584768" lon="13.4615859"><ele>115.0</ele><time>2026-05-03T07:35:07.147Z</time></trkpt><trkpt lat="46.0583872" lon="13.461545"><ele>115.0</ele><time>2026-05-03T07:35:08.147Z</time></trkpt><trkpt lat="46.058292" lon="13.4614914"><ele>115.0</ele><time>2026-05-03T07:35:09.147Z</time></trkpt><trkpt lat="46.0582021" lon="13.4614325"><ele>115.0</ele><time>2026-05-03T07:35:10.147Z</time></trkpt><trkpt lat="46.0581226" lon="13.4613684"><ele>115.0</ele><time>2026-05-03T07:35:11.147Z</time></trkpt><trkpt lat="46.0580452" lon="13.4613129"><ele>114.83333333333334</ele><time>2026-05-03T07:35:12.147Z</time></trkpt><trkpt lat="46.057971" lon="13.4612676"><ele>114.66666666666667</ele><time>2026-05-03T07:35:13.147Z</time></trkpt><trkpt lat="46.0579009" lon="13.4612239"><ele>114.5</ele><time>2026-05-03T07:35:14.147Z</time></trkpt><trkpt lat="46.0578386" lon="13.4611704"><ele>114.33333333333334</ele><time>2026-05-03T07:35:15.147Z</time></trkpt><trkpt lat="46.0577754" lon="13.4611003"><ele>114.16666666666667</ele><time>2026-05-03T07:35:16.147Z</time></trkpt><trkpt lat="46.057722" lon="13.4610143"><ele>114.0</ele><time>2026-05-03T07:35:17.147Z</time></trkpt><trkpt lat="46.0576791" lon="13.4609227"><ele>114.0</ele><time>2026-05-03T07:35:18.147Z</time></trkpt><trkpt lat="46.0576443" lon="13.4608249"><ele>114.0</ele><time>2026-05-03T07:35:19.147Z</time></trkpt><trkpt lat="46.0576169" lon="13.4607247"><ele>114.0</ele><time>2026-05-03T07:35:20.147Z</time></trkpt><trkpt lat="46.0575883" lon="13.4606185"><ele>114.0</ele><time>2026-05-03T07:35:21.147Z</time></trkpt><trkpt lat="46.0575651" lon="13.4605186"><ele>114.0</ele><time>2026-05-03T07:35:22.147Z</time></trkpt><trkpt lat="46.0575399" lon="13.460429"><ele>114.0</ele><time>2026-05-03T07:35:23.147Z</time></trkpt><trkpt lat="46.0575047" lon="13.4602613"><ele>114.0</ele><time>2026-05-03T07:35:25.147Z</time></trkpt><trkpt lat="46.0575156" lon="13.4600783"><ele>114.0</ele><time>2026-05-03T07:35:27.146Z</time></trkpt><trkpt lat="46.0575502" lon="13.4599809"><ele>114.0</ele><time>2026-05-03T07:35:28.146Z</time></trkpt><trkpt lat="46.0575703" lon="13.4598771"><ele>114.0</ele><time>2026-05-03T07:35:29.146Z</time></trkpt><trkpt lat="46.0575773" lon="13.4597714"><ele>114.0</ele><time>2026-05-03T07:35:30.146Z</time></trkpt><trkpt lat="46.0575637" lon="13.4596537"><ele>114.0</ele><time>2026-05-03T07:35:31.147Z</time></trkpt><trkpt lat="46.0575543" lon="13.4595363"><ele>114.0</ele><time>2026-05-03T07:35:32.146Z</time></trkpt><trkpt lat="46.0575431" lon="13.4594196"><ele>114.0</ele><time>2026-05-03T07:35:33.146Z</time></trkpt><trkpt lat="46.0575343" lon="13.4592886"><ele>114.0</ele><time>2026-05-03T07:35:34.147Z</time></trkpt><trkpt lat="46.0575327" lon="13.4591459"><ele>114.0</ele><time>2026-05-03T07:35:35.147Z</time></trkpt><trkpt lat="46.057535" lon="13.4589888"><ele>114.0</ele><time>2026-05-03T07:35:36.147Z</time></trkpt><trkpt lat="46.0575369" lon="13.4588369"><ele>114.2</ele><time>2026-05-03T07:35:37.146Z</time></trkpt><trkpt lat="46.057534" lon="13.4586904"><ele>114.4</ele><time>2026-05-03T07:35:38.147Z</time></trkpt><trkpt lat="46.0575356" lon="13.4585421"><ele>114.6</ele><time>2026-05-03T07:35:39.147Z</time></trkpt><trkpt lat="46.0575423" lon="13.4583977"><ele>114.8</ele><time>2026-05-03T07:35:40.147Z</time></trkpt><trkpt lat="46.0575508" lon="13.4582555"><ele>115.0</ele><time>2026-05-03T07:35:41.146Z</time></trkpt><trkpt lat="46.0575568" lon="13.4581112"><ele>115.00000000000001</ele><time>2026-05-03T07:35:42.147Z</time></trkpt><trkpt lat="46.0575601" lon="13.4579779"><ele>115.0</ele><time>2026-05-03T07:35:43.147Z</time></trkpt><trkpt lat="46.0575583" lon="13.4578644"><ele>115.0</ele><time>2026-05-03T07:35:44.146Z</time></trkpt><trkpt lat="46.0575512" lon="13.4577561"><ele>115.0</ele><time>2026-05-03T07:35:45.147Z</time></trkpt><trkpt lat="46.057538" lon="13.4576133"><ele>115.00000000000001</ele><time>2026-05-03T07:35:47.146Z</time></trkpt><trkpt lat="46.0574592" lon="13.4576272"><ele>115.0</ele><time>2026-05-03T07:36:07.147Z</time></trkpt><trkpt lat="46.0574032" lon="13.4576699"><ele>115.16666666666667</ele><time>2026-05-03T07:36:08.146Z</time></trkpt><trkpt lat="46.0573506" lon="13.457731"><ele>115.33333333333334</ele><time>2026-05-03T07:36:09.147Z</time></trkpt><trkpt lat="46.0572879" lon="13.4578019"><ele>115.5</ele><time>2026-05-03T07:36:10.147Z</time></trkpt><trkpt lat="46.0572077" lon="13.4578759"><ele>115.66666666666666</ele><time>2026-05-03T07:36:11.147Z</time></trkpt><trkpt lat="46.0571175" lon="13.4579449"><ele>115.83333333333333</ele><time>2026-05-03T07:36:12.146Z</time></trkpt><trkpt lat="46.0570243" lon="13.4580141"><ele>116.0</ele><time>2026-05-03T07:36:13.147Z</time></trkpt><trkpt lat="46.0569313" lon="13.4581048"><ele>116.0</ele><time>2026-05-03T07:36:14.146Z</time></trkpt><trkpt lat="46.0568306" lon="13.458192"><ele>116.0</ele><time>2026-05-03T07:36:15.147Z</time></trkpt><trkpt lat="46.056724" lon="13.45828"><ele>116.0</ele><time>2026-05-03T07:36:16.147Z</time></trkpt><trkpt lat="46.0566072" lon="13.4583775"><ele>116.0</ele><time>2026-05-03T07:36:17.146Z</time></trkpt><trkpt lat="46.0564925" lon="13.4584813"><ele>115.5</ele><time>2026-05-03T07:36:18.146Z</time></trkpt><trkpt lat="46.056377" lon="13.4585892"><ele>115.0</ele><time>2026-05-03T07:36:19.146Z</time></trkpt><trkpt lat="46.0562568" lon="13.4586996"><ele>114.5</ele><time>2026-05-03T07:36:20.147Z</time></trkpt><trkpt lat="46.0561301" lon="13.458815"><ele>114.0</ele><time>2026-05-03T07:36:21.147Z</time></trkpt><trkpt lat="46.0560003" lon="13.4589245"><ele>114.0</ele><time>2026-05-03T07:36:22.147Z</time></trkpt><trkpt lat="46.0558724" lon="13.4590404"><ele>114.0</ele><time>2026-05-03T07:36:23.147Z</time></trkpt><trkpt lat="46.0557454" lon="13.4591535"><ele>114.0</ele><time>2026-05-03T07:36:24.147Z</time></trkpt><trkpt lat="46.0556121" lon="13.4592701"><ele>113.66666666666666</ele><time>2026-05-03T07:36:25.147Z</time></trkpt><trkpt lat="46.0554774" lon="13.4593922"><ele>113.33333333333333</ele><time>2026-05-03T07:36:26.146Z</time></trkpt><trkpt lat="46.0553424" lon="13.4595093"><ele>113.0</ele><time>2026-05-03T07:36:27.146Z</time></trkpt><trkpt lat="46.055202" lon="13.4596325"><ele>113.0</ele><time>2026-05-03T07:36:28.146Z</time></trkpt><trkpt lat="46.055062" lon="13.4597592"><ele>113.0</ele><time>2026-05-03T07:36:29.147Z</time></trkpt><trkpt lat="46.0549216" lon="13.4598829"><ele>113.0</ele><time>2026-05-03T07:36:30.147Z</time></trkpt><trkpt lat="46.054781" lon="13.460006"><ele>113.0</ele><time>2026-05-03T07:36:31.147Z</time></trkpt><trkpt lat="46.054651" lon="13.4601282"><ele>113.0</ele><time>2026-05-03T07:36:32.147Z</time></trkpt><trkpt lat="46.0545224" lon="13.4602717"><ele>113.0</ele><time>2026-05-03T07:36:33.147Z</time></trkpt><trkpt lat="46.0543996" lon="13.4604276"><ele>113.0</ele><time>2026-05-03T07:36:34.147Z</time></trkpt><trkpt lat="46.0542838" lon="13.4606002"><ele>113.0</ele><time>2026-05-03T07:36:35.147Z</time></trkpt><trkpt lat="46.0541817" lon="13.4607638"><ele>113.0</ele><time>2026-05-03T07:36:36.147Z</time></trkpt><trkpt lat="46.0540867" lon="13.4609301"><ele>113.0</ele><time>2026-05-03T07:36:37.147Z</time></trkpt><trkpt lat="46.0539996" lon="13.4610911"><ele>113.0</ele><time>2026-05-03T07:36:38.147Z</time></trkpt><trkpt lat="46.0539196" lon="13.4612383"><ele>113.0</ele><time>2026-05-03T07:36:39.146Z</time></trkpt><trkpt lat="46.0538423" lon="13.4613848"><ele>113.0</ele><time>2026-05-03T07:36:40.147Z</time></trkpt><trkpt lat="46.0537697" lon="13.4615194"><ele>113.5</ele><time>2026-05-03T07:36:41.147Z</time></trkpt><trkpt lat="46.0536997" lon="13.4616516"><ele>114.0</ele><time>2026-05-03T07:36:42.147Z</time></trkpt><trkpt lat="46.0536212" lon="13.4617741"><ele>114.5</ele><time>2026-05-03T07:36:43.146Z</time></trkpt><trkpt lat="46.0535301" lon="13.4618818"><ele>115.0</ele><time>2026-05-03T07:36:44.147Z</time></trkpt><trkpt lat="46.0534083" lon="13.4619595"><ele>114.5</ele><time>2026-05-03T07:36:45.146Z</time></trkpt><trkpt lat="46.0532747" lon="13.4619734"><ele>114.0</ele><time>2026-05-03T07:36:46.147Z</time></trkpt><trkpt lat="46.0531291" lon="13.4619575"><ele>113.5</ele><time>2026-05-03T07:36:47.147Z</time></trkpt><trkpt lat="46.0529831" lon="13.4619422"><ele>113.0</ele><time>2026-05-03T07:36:48.146Z</time></trkpt><trkpt lat="46.0528424" lon="13.4619249"><ele>113.0</ele><time>2026-05-03T07:36:49.146Z</time></trkpt><trkpt lat="46.0527088" lon="13.4619083"><ele>113.0</ele><time>2026-05-03T07:36:50.146Z</time></trkpt><trkpt lat="46.0525784" lon="13.4618853"><ele>113.0</ele><time>2026-05-03T07:36:51.146Z</time></trkpt><trkpt lat="46.0524452" lon="13.461865"><ele>113.0</ele><time>2026-05-03T07:36:52.147Z</time></trkpt><trkpt lat="46.0523134" lon="13.4618468"><ele>113.80000000000001</ele><time>2026-05-03T07:36:53.147Z</time></trkpt><trkpt lat="46.0521793" lon="13.4618414"><ele>114.60000000000001</ele><time>2026-05-03T07:36:54.147Z</time></trkpt><trkpt lat="46.0520542" lon="13.4618453"><ele>115.39999999999999</ele><time>2026-05-03T07:36:55.146Z</time></trkpt><trkpt lat="46.051951" lon="13.4618604"><ele>116.19999999999999</ele><time>2026-05-03T07:36:56.146Z</time></trkpt><trkpt lat="46.0518765" lon="13.461881"><ele>117.0</ele><time>2026-05-03T07:36:57.147Z</time></trkpt><trkpt lat="46.0517628" lon="13.4619277"><ele>117.0</ele><time>2026-05-03T07:36:59.146Z</time></trkpt><trkpt lat="46.0516973" lon="13.4619643"><ele>117.0</ele><time>2026-05-03T07:37:00.147Z</time></trkpt><trkpt lat="46.0516275" lon="13.4620125"><ele>117.0</ele><time>2026-05-03T07:37:01.147Z</time></trkpt><trkpt lat="46.0515559" lon="13.4620556"><ele>117.0</ele><time>2026-05-03T07:37:02.146Z</time></trkpt><trkpt lat="46.0514802" lon="13.4620954"><ele>117.0</ele><time>2026-05-03T07:37:03.147Z</time></trkpt><trkpt lat="46.0514134" lon="13.4621307"><ele>117.0</ele><time>2026-05-03T07:37:04.146Z</time></trkpt><trkpt lat="46.0513031" lon="13.4621961"><ele>116.0</ele><time>2026-05-03T07:37:06.146Z</time></trkpt><trkpt lat="46.0512817" lon="13.462324"><ele>114.99999999999999</ele><time>2026-05-03T07:37:08.147Z</time></trkpt><trkpt lat="46.0512591" lon="13.4625207"><ele>113.99999999999999</ele><time>2026-05-03T07:37:10.147Z</time></trkpt><trkpt lat="46.051243" lon="13.462654"><ele>113.0</ele><time>2026-05-03T07:37:11.147Z</time></trkpt><trkpt lat="46.0512086" lon="13.4627972"><ele>112.0</ele><time>2026-05-03T07:37:12.146Z</time></trkpt><trkpt lat="46.051164" lon="13.462944"><ele>112.25</ele><time>2026-05-03T07:37:13.147Z</time></trkpt><trkpt lat="46.0511239" lon="13.4630968"><ele>112.5</ele><time>2026-05-03T07:37:14.147Z</time></trkpt><trkpt lat="46.0510906" lon="13.4632526"><ele>112.75</ele><time>2026-05-03T07:37:15.147Z</time></trkpt><trkpt lat="46.0510666" lon="13.4634118"><ele>113.0</ele><time>2026-05-03T07:37:16.147Z</time></trkpt><trkpt lat="46.0510493" lon="13.4635691"><ele>113.0</ele><time>2026-05-03T07:37:17.147Z</time></trkpt><trkpt lat="46.0510378" lon="13.4637113"><ele>113.00000000000001</ele><time>2026-05-03T07:37:18.146Z</time></trkpt><trkpt lat="46.051041" lon="13.4638485"><ele>113.00000000000001</ele><time>2026-05-03T07:37:19.147Z</time></trkpt><trkpt lat="46.0510612" lon="13.4639901"><ele>113.0</ele><time>2026-05-03T07:37:20.147Z</time></trkpt><trkpt lat="46.0511111" lon="13.4641289"><ele>113.0</ele><time>2026-05-03T07:37:21.147Z</time></trkpt><trkpt lat="46.0511705" lon="13.4642857"><ele>115.25</ele><time>2026-05-03T07:37:22.147Z</time></trkpt><trkpt lat="46.0512306" lon="13.4644541"><ele>117.5</ele><time>2026-05-03T07:37:23.146Z</time></trkpt><trkpt lat="46.0512845" lon="13.4646389"><ele>119.75</ele><time>2026-05-03T07:37:24.146Z</time></trkpt><trkpt lat="46.0513316" lon="13.4648344"><ele>122.0</ele><time>2026-05-03T07:37:25.146Z</time></trkpt><trkpt lat="46.0513772" lon="13.4650231"><ele>123.25</ele><time>2026-05-03T07:37:26.146Z</time></trkpt><trkpt lat="46.0514274" lon="13.4652051"><ele>124.5</ele><time>2026-05-03T07:37:27.147Z</time></trkpt><trkpt lat="46.0514839" lon="13.4653808"><ele>125.75</ele><time>2026-05-03T07:37:28.146Z</time></trkpt><trkpt lat="46.0515442" lon="13.4655819"><ele>127.0</ele><time>2026-05-03T07:37:29.146Z</time></trkpt><trkpt lat="46.0515987" lon="13.4657879"><ele>127.0</ele><time>2026-05-03T07:37:30.147Z</time></trkpt><trkpt lat="46.0516551" lon="13.4659817"><ele>127.0</ele><time>2026-05-03T07:37:31.147Z</time></trkpt><trkpt lat="46.0517142" lon="13.4661567"><ele>127.0</ele><time>2026-05-03T07:37:32.147Z</time></trkpt><trkpt lat="46.0517701" lon="13.4663149"><ele>127.0</ele><time>2026-05-03T07:37:33.147Z</time></trkpt><trkpt lat="46.0518248" lon="13.466465"><ele>128.0</ele><time>2026-05-03T07:37:34.146Z</time></trkpt><trkpt lat="46.0518693" lon="13.4665971"><ele>129.0</ele><time>2026-05-03T07:37:35.147Z</time></trkpt><trkpt lat="46.051911" lon="13.466724"><ele>130.0</ele><time>2026-05-03T07:37:36.147Z</time></trkpt><trkpt lat="46.0519505" lon="13.4668469"><ele>131.0</ele><time>2026-05-03T07:37:37.147Z</time></trkpt><trkpt lat="46.0519812" lon="13.4669688"><ele>132.0</ele><time>2026-05-03T07:37:38.147Z</time></trkpt><trkpt lat="46.0520057" lon="13.4670981"><ele>132.4</ele><time>2026-05-03T07:37:39.146Z</time></trkpt><trkpt lat="46.0520065" lon="13.4672352"><ele>132.79999999999998</ele><time>2026-05-03T07:37:40.146Z</time></trkpt><trkpt lat="46.0519883" lon="13.467356"><ele>133.2</ele><time>2026-05-03T07:37:41.147Z</time></trkpt><trkpt lat="46.051956" lon="13.467491"><ele>133.6</ele><time>2026-05-03T07:37:42.147Z</time></trkpt><trkpt lat="46.0519424" lon="13.4676381"><ele>134.0</ele><time>2026-05-03T07:37:43.147Z</time></trkpt><trkpt lat="46.0519435" lon="13.4677996"><ele>135.2</ele><time>2026-05-03T07:37:44.146Z</time></trkpt><trkpt lat="46.051979" lon="13.4679492"><ele>136.4</ele><time>2026-05-03T07:37:45.147Z</time></trkpt><trkpt lat="46.0520152" lon="13.4680879"><ele>137.6</ele><time>2026-05-03T07:37:46.147Z</time></trkpt><trkpt lat="46.0520331" lon="13.4682206"><ele>138.8</ele><time>2026-05-03T07:37:47.146Z</time></trkpt><trkpt lat="46.0520366" lon="13.4683404"><ele>140.0</ele><time>2026-05-03T07:37:48.147Z</time></trkpt><trkpt lat="46.0520284" lon="13.4684484"><ele>140.0</ele><time>2026-05-03T07:37:49.147Z</time></trkpt><trkpt lat="46.0520062" lon="13.4685333"><ele>140.0</ele><time>2026-05-03T07:37:50.147Z</time></trkpt><trkpt lat="46.0519117" lon="13.4686045"><ele>140.0</ele><time>2026-05-03T07:37:52.147Z</time></trkpt><trkpt lat="46.0518468" lon="13.4686112"><ele>140.0</ele><time>2026-05-03T07:37:53.147Z</time></trkpt><trkpt lat="46.0517797" lon="13.4686023"><ele>140.0</ele><time>2026-05-03T07:37:54.146Z</time></trkpt><trkpt lat="46.0516746" lon="13.4685851"><ele>140.0</ele><time>2026-05-03T07:37:56.146Z</time></trkpt><trkpt lat="46.0516206" lon="13.4686388"><ele>140.0</ele><time>2026-05-03T07:37:58.147Z</time></trkpt><trkpt lat="46.0516592" lon="13.4687115"><ele>140.0</ele><time>2026-05-03T07:38:00.147Z</time></trkpt><trkpt lat="46.0517645" lon="13.4687173"><ele>140.0</ele><time>2026-05-03T07:38:02.147Z</time></trkpt><trkpt lat="46.051875" lon="13.4688013"><ele>140.0</ele><time>2026-05-03T07:38:04.146Z</time></trkpt><trkpt lat="46.0519801" lon="13.4688662"><ele>140.0</ele><time>2026-05-03T07:38:06.147Z</time></trkpt><trkpt lat="46.0520746" lon="13.4688138"><ele>140.0</ele><time>2026-05-03T07:38:08.146Z</time></trkpt><trkpt lat="46.0521607" lon="13.4687051"><ele>140.0</ele><time>2026-05-03T07:38:10.146Z</time></trkpt><trkpt lat="46.0522065" lon="13.4686126"><ele>140.0</ele><time>2026-05-03T07:38:11.146Z</time></trkpt><trkpt lat="46.0522481" lon="13.4685205"><ele>140.0</ele><time>2026-05-03T07:38:12.147Z</time></trkpt><trkpt lat="46.0522914" lon="13.4684448"><ele>140.0</ele><time>2026-05-03T07:38:13.147Z</time></trkpt><trkpt lat="46.0523693" lon="13.4683672"><ele>140.0</ele><time>2026-05-03T07:38:15.146Z</time></trkpt><trkpt lat="46.0524531" lon="13.4684008"><ele>141.0</ele><time>2026-05-03T07:38:17.146Z</time></trkpt><trkpt lat="46.0525109" lon="13.4684542"><ele>142.0</ele><time>2026-05-03T07:38:18.147Z</time></trkpt><trkpt lat="46.0525771" lon="13.4685095"><ele>143.0</ele><time>2026-05-03T07:38:19.147Z</time></trkpt><trkpt lat="46.0526486" lon="13.4685614"><ele>144.0</ele><time>2026-05-03T07:38:20.147Z</time></trkpt><trkpt lat="46.0527148" lon="13.4686092"><ele>145.0</ele><time>2026-05-03T07:38:21.146Z</time></trkpt><trkpt lat="46.052789" lon="13.4686619"><ele>146.0</ele><time>2026-05-03T07:38:22.147Z</time></trkpt><trkpt lat="46.0528701" lon="13.4687339"><ele>145.8</ele><time>2026-05-03T07:38:23.146Z</time></trkpt><trkpt lat="46.0529554" lon="13.4688273"><ele>145.6</ele><time>2026-05-03T07:38:24.147Z</time></trkpt><trkpt lat="46.0530369" lon="13.4689258"><ele>145.4</ele><time>2026-05-03T07:38:25.146Z</time></trkpt><trkpt lat="46.0531071" lon="13.4690099"><ele>145.2</ele><time>2026-05-03T07:38:26.147Z</time></trkpt><trkpt lat="46.0531704" lon="13.4690851"><ele>145.0</ele><time>2026-05-03T07:38:27.147Z</time></trkpt><trkpt lat="46.0532352" lon="13.4691575"><ele>145.4</ele><time>2026-05-03T07:38:28.147Z</time></trkpt><trkpt lat="46.0533015" lon="13.4692296"><ele>145.8</ele><time>2026-05-03T07:38:29.147Z</time></trkpt><trkpt lat="46.0533812" lon="13.4693032"><ele>146.2</ele><time>2026-05-03T07:38:30.146Z</time></trkpt><trkpt lat="46.053481" lon="13.4693773"><ele>146.6</ele><time>2026-05-03T07:38:31.147Z</time></trkpt><trkpt lat="46.0535922" lon="13.4694476"><ele>147.0</ele><time>2026-05-03T07:38:32.147Z</time></trkpt><trkpt lat="46.0537014" lon="13.4695248"><ele>147.0</ele><time>2026-05-03T07:38:33.146Z</time></trkpt><trkpt lat="46.0538052" lon="13.4695923"><ele>147.0</ele><time>2026-05-03T07:38:34.147Z</time></trkpt><trkpt lat="46.0539082" lon="13.4696513"><ele>147.0</ele><time>2026-05-03T07:38:35.147Z</time></trkpt><trkpt lat="46.0540028" lon="13.4697174"><ele>147.0</ele><time>2026-05-03T07:38:36.147Z</time></trkpt><trkpt lat="46.0540992" lon="13.4697897"><ele>147.0</ele><time>2026-05-03T07:38:37.146Z</time></trkpt><trkpt lat="46.0541846" lon="13.4698572"><ele>145.66666666666666</ele><time>2026-05-03T07:38:38.146Z</time></trkpt><trkpt lat="46.054257" lon="13.4699121"><ele>144.33333333333334</ele><time>2026-05-03T07:38:39.147Z</time></trkpt><trkpt lat="46.0543189" lon="13.4699545"><ele>143.0</ele><time>2026-05-03T07:38:40.147Z</time></trkpt><trkpt lat="46.0543769" lon="13.4699904"><ele>141.66666666666669</ele><time>2026-05-03T07:38:41.147Z</time></trkpt><trkpt lat="46.0544437" lon="13.4700711"><ele>140.33333333333334</ele><time>2026-05-03T07:38:43.146Z</time></trkpt><trkpt lat="46.0544145" lon="13.4701859"><ele>139.0</ele><time>2026-05-03T07:38:45.147Z</time></trkpt><trkpt lat="46.0543601" lon="13.4702664"><ele>139.0</ele><time>2026-05-03T07:38:46.147Z</time></trkpt><trkpt lat="46.0543018" lon="13.4703529"><ele>139.0</ele><time>2026-05-03T07:38:47.147Z</time></trkpt><trkpt lat="46.0542485" lon="13.470431"><ele>139.0</ele><time>2026-05-03T07:38:48.146Z</time></trkpt><trkpt lat="46.0541835" lon="13.4705319"><ele>139.0</ele><time>2026-05-03T07:38:50.147Z</time></trkpt><trkpt lat="46.0541835" lon="13.4706415"><ele>139.0</ele><time>2026-05-03T07:38:52.146Z</time></trkpt><trkpt lat="46.0542681" lon="13.4707056"><ele>139.0</ele><time>2026-05-03T07:38:54.147Z</time></trkpt><trkpt lat="46.054319" lon="13.4708387"><ele>138.0</ele><time>2026-05-03T07:38:56.147Z</time></trkpt><trkpt lat="46.0542589" lon="13.470957"><ele>137.0</ele><time>2026-05-03T07:38:58.146Z</time></trkpt><trkpt lat="46.0541205" lon="13.4709269"><ele>136.0</ele><time>2026-05-03T07:39:00.147Z</time></trkpt><trkpt lat="46.05405" lon="13.4709291"><ele>135.0</ele><time>2026-05-03T07:39:01.146Z</time></trkpt><trkpt lat="46.0539761" lon="13.4709668"><ele>134.0</ele><time>2026-05-03T07:39:02.147Z</time></trkpt><trkpt lat="46.0538859" lon="13.4710207"><ele>132.83333333333331</ele><time>2026-05-03T07:39:03.147Z</time></trkpt><trkpt lat="46.0537884" lon="13.4710473"><ele>131.66666666666666</ele><time>2026-05-03T07:39:04.146Z</time></trkpt><trkpt lat="46.0537041" lon="13.471071"><ele>130.5</ele><time>2026-05-03T07:39:05.147Z</time></trkpt><trkpt lat="46.0536291" lon="13.4710833"><ele>129.33333333333334</ele><time>2026-05-03T07:39:06.147Z</time></trkpt><trkpt lat="46.0535495" lon="13.4710929"><ele>128.16666666666669</ele><time>2026-05-03T07:39:07.146Z</time></trkpt><trkpt lat="46.053459" lon="13.4710722"><ele>127.0</ele><time>2026-05-03T07:39:08.147Z</time></trkpt><trkpt lat="46.0533661" lon="13.4710313"><ele>126.39999999999999</ele><time>2026-05-03T07:39:09.147Z</time></trkpt><trkpt lat="46.053277" lon="13.4709975"><ele>125.79999999999998</ele><time>2026-05-03T07:39:10.146Z</time></trkpt><trkpt lat="46.0531959" lon="13.4709682"><ele>125.2</ele><time>2026-05-03T07:39:11.147Z</time></trkpt><trkpt lat="46.0531262" lon="13.4709353"><ele>124.6</ele><time>2026-05-03T07:39:12.147Z</time></trkpt><trkpt lat="46.0530135" lon="13.4709733"><ele>124.0</ele><time>2026-05-03T07:39:14.147Z</time></trkpt><trkpt lat="46.0529993" lon="13.4711579"><ele>121.6</ele><time>2026-05-03T07:39:16.146Z</time></trkpt><trkpt lat="46.0530085" lon="13.4713001"><ele>119.2</ele><time>2026-05-03T07:39:17.147Z</time></trkpt><trkpt lat="46.0530104" lon="13.4714391"><ele>116.79999999999998</ele><time>2026-05-03T07:39:18.147Z</time></trkpt><trkpt lat="46.0530146" lon="13.4715539"><ele>114.39999999999999</ele><time>2026-05-03T07:39:19.146Z</time></trkpt><trkpt lat="46.053056" lon="13.4717029"><ele>112.0</ele><time>2026-05-03T07:39:21.146Z</time></trkpt><trkpt lat="46.0531185" lon="13.4717519"><ele>112.00000000000001</ele><time>2026-05-03T07:39:22.146Z</time></trkpt><trkpt lat="46.0531942" lon="13.4717873"><ele>112.0</ele><time>2026-05-03T07:39:23.146Z</time></trkpt><trkpt lat="46.0532736" lon="13.4718275"><ele>112.0</ele><time>2026-05-03T07:39:24.146Z</time></trkpt><trkpt lat="46.053343" lon="13.4718649"><ele>112.0</ele><time>2026-05-03T07:39:25.146Z</time></trkpt><trkpt lat="46.0534051" lon="13.4719032"><ele>112.00000000000001</ele><time>2026-05-03T07:39:26.146Z</time></trkpt><trkpt lat="46.0535111" lon="13.4719627"><ele>112.0</ele><time>2026-05-03T07:39:28.146Z</time></trkpt><trkpt lat="46.0535756" lon="13.472068"><ele>112.83333333333334</ele><time>2026-05-03T07:39:30.146Z</time></trkpt><trkpt lat="46.0535408" lon="13.4722486"><ele>113.66666666666667</ele><time>2026-05-03T07:39:32.146Z</time></trkpt><trkpt lat="46.0535001" lon="13.4723197"><ele>114.5</ele><time>2026-05-03T07:39:33.146Z</time></trkpt><trkpt lat="46.0534127" lon="13.4723625"><ele>115.33333333333334</ele><time>2026-05-03T07:39:35.145Z</time></trkpt><trkpt lat="46.0533485" lon="13.4723536"><ele>116.16666666666667</ele><time>2026-05-03T07:39:36.146Z</time></trkpt><trkpt lat="46.0532532" lon="13.4723336"><ele>117.0</ele><time>2026-05-03T07:39:37.146Z</time></trkpt><trkpt lat="46.0531474" lon="13.4722845"><ele>117.0</ele><time>2026-05-03T07:39:38.146Z</time></trkpt><trkpt lat="46.0530601" lon="13.4722261"><ele>116.99999999999999</ele><time>2026-05-03T07:39:39.146Z</time></trkpt><trkpt lat="46.0529782" lon="13.4721645"><ele>116.99999999999999</ele><time>2026-05-03T07:39:40.146Z</time></trkpt><trkpt lat="46.0528919" lon="13.4721109"><ele>117.0</ele><time>2026-05-03T07:39:41.145Z</time></trkpt><trkpt lat="46.0527876" lon="13.4720869"><ele>117.0</ele><time>2026-05-03T07:39:42.146Z</time></trkpt><trkpt lat="46.0526843" lon="13.4720751"><ele>116.39999999999999</ele><time>2026-05-03T07:39:43.146Z</time></trkpt><trkpt lat="46.0525796" lon="13.4720748"><ele>115.79999999999998</ele><time>2026-05-03T07:39:44.146Z</time></trkpt><trkpt lat="46.0524799" lon="13.4720678"><ele>115.2</ele><time>2026-05-03T07:39:45.146Z</time></trkpt><trkpt lat="46.0523756" lon="13.4720544"><ele>114.6</ele><time>2026-05-03T07:39:46.146Z</time></trkpt><trkpt lat="46.052266" lon="13.4720531"><ele>114.0</ele><time>2026-05-03T07:39:47.146Z</time></trkpt><trkpt lat="46.0521736" lon="13.4720638"><ele>114.0</ele><time>2026-05-03T07:39:48.145Z</time></trkpt><trkpt lat="46.0520913" lon="13.4721013"><ele>114.0</ele><time>2026-05-03T07:39:49.145Z</time></trkpt><trkpt lat="46.0520134" lon="13.472137"><ele>114.0</ele><time>2026-05-03T07:39:50.146Z</time></trkpt><trkpt lat="46.0519402" lon="13.4721543"><ele>114.0</ele><time>2026-05-03T07:39:51.145Z</time></trkpt><trkpt lat="46.0518696" lon="13.4721286"><ele>114.0</ele><time>2026-05-03T07:39:52.146Z</time></trkpt><trkpt lat="46.0517909" lon="13.4720839"><ele>114.0</ele><time>2026-05-03T07:39:53.146Z</time></trkpt><trkpt lat="46.0516964" lon="13.4720461"><ele>114.2</ele><time>2026-05-03T07:39:54.146Z</time></trkpt><trkpt lat="46.0515986" lon="13.4720305"><ele>114.4</ele><time>2026-05-03T07:39:55.146Z</time></trkpt><trkpt lat="46.0514931" lon="13.4720172"><ele>114.6</ele><time>2026-05-03T07:39:56.146Z</time></trkpt><trkpt lat="46.051393" lon="13.471994"><ele>114.8</ele><time>2026-05-03T07:39:57.146Z</time></trkpt><trkpt lat="46.0512996" lon="13.4719666"><ele>115.0</ele><time>2026-05-03T07:39:58.145Z</time></trkpt><trkpt lat="46.0512009" lon="13.4719522"><ele>115.0</ele><time>2026-05-03T07:39:59.146Z</time></trkpt><trkpt lat="46.0510906" lon="13.4719559"><ele>115.0</ele><time>2026-05-03T07:40:00.146Z</time></trkpt><trkpt lat="46.050975" lon="13.4719774"><ele>115.0</ele><time>2026-05-03T07:40:01.145Z</time></trkpt><trkpt lat="46.0508616" lon="13.4720122"><ele>115.0</ele><time>2026-05-03T07:40:02.146Z</time></trkpt><trkpt lat="46.0507491" lon="13.4720465"><ele>115.50000000000001</ele><time>2026-05-03T07:40:03.146Z</time></trkpt><trkpt lat="46.0506556" lon="13.4720659"><ele>116.0</ele><time>2026-05-03T07:40:04.146Z</time></trkpt><trkpt lat="46.0505705" lon="13.4721001"><ele>116.5</ele><time>2026-05-03T07:40:05.146Z</time></trkpt><trkpt lat="46.0504994" lon="13.4721329"><ele>117.0</ele><time>2026-05-03T07:40:06.146Z</time></trkpt><trkpt lat="46.0504374" lon="13.4721797"><ele>117.50000000000001</ele><time>2026-05-03T07:40:07.146Z</time></trkpt><trkpt lat="46.0503777" lon="13.4722269"><ele>118.0</ele><time>2026-05-03T07:40:08.146Z</time></trkpt><trkpt lat="46.0502719" lon="13.4723202"><ele>118.16666666666667</ele><time>2026-05-03T07:40:10.145Z</time></trkpt><trkpt lat="46.0502152" lon="13.4723838"><ele>118.33333333333334</ele><time>2026-05-03T07:40:11.146Z</time></trkpt><trkpt lat="46.0501477" lon="13.4724566"><ele>118.5</ele><time>2026-05-03T07:40:12.146Z</time></trkpt><trkpt lat="46.0500766" lon="13.4725261"><ele>118.66666666666666</ele><time>2026-05-03T07:40:13.146Z</time></trkpt><trkpt lat="46.050003" lon="13.4725963"><ele>118.83333333333333</ele><time>2026-05-03T07:40:14.146Z</time></trkpt><trkpt lat="46.0499242" lon="13.4726646"><ele>119.0</ele><time>2026-05-03T07:40:15.146Z</time></trkpt><trkpt lat="46.0498452" lon="13.4727288"><ele>119.0</ele><time>2026-05-03T07:40:16.145Z</time></trkpt><trkpt lat="46.0497649" lon="13.4727931"><ele>119.0</ele><time>2026-05-03T07:40:17.146Z</time></trkpt><trkpt lat="46.0496844" lon="13.4728672"><ele>119.0</ele><time>2026-05-03T07:40:18.146Z</time></trkpt><trkpt lat="46.0496051" lon="13.472949"><ele>119.0</ele><time>2026-05-03T07:40:19.145Z</time></trkpt><trkpt lat="46.0495217" lon="13.4730365"><ele>119.0</ele><time>2026-05-03T07:40:20.146Z</time></trkpt><trkpt lat="46.0494446" lon="13.4731261"><ele>117.80000000000001</ele><time>2026-05-03T07:40:21.146Z</time></trkpt><trkpt lat="46.0493785" lon="13.4732183"><ele>116.60000000000001</ele><time>2026-05-03T07:40:22.146Z</time></trkpt><trkpt lat="46.0493151" lon="13.473315"><ele>115.4</ele><time>2026-05-03T07:40:23.146Z</time></trkpt><trkpt lat="46.0492501" lon="13.4734158"><ele>114.2</ele><time>2026-05-03T07:40:24.145Z</time></trkpt><trkpt lat="46.0491844" lon="13.4735141"><ele>113.0</ele><time>2026-05-03T07:40:25.146Z</time></trkpt><trkpt lat="46.0491243" lon="13.4736122"><ele>112.99999999999999</ele><time>2026-05-03T07:40:26.146Z</time></trkpt><trkpt lat="46.0490578" lon="13.4737142"><ele>113.0</ele><time>2026-05-03T07:40:27.146Z</time></trkpt><trkpt lat="46.0489942" lon="13.4738053"><ele>113.0</ele><time>2026-05-03T07:40:28.145Z</time></trkpt><trkpt lat="46.0489297" lon="13.4738897"><ele>113.0</ele><time>2026-05-03T07:40:29.146Z</time></trkpt><trkpt lat="46.048863" lon="13.4739629"><ele>112.99999999999999</ele><time>2026-05-03T07:40:30.146Z</time></trkpt><trkpt lat="46.0488007" lon="13.4740338"><ele>113.0</ele><time>2026-05-03T07:40:31.145Z</time></trkpt><trkpt lat="46.0487328" lon="13.4741019"><ele>111.99999999999999</ele><time>2026-05-03T07:40:32.146Z</time></trkpt><trkpt lat="46.0486649" lon="13.4741642"><ele>111.0</ele><time>2026-05-03T07:40:33.146Z</time></trkpt><trkpt lat="46.0485837" lon="13.474216"><ele>110.0</ele><time>2026-05-03T07:40:34.145Z</time></trkpt><trkpt lat="46.0485074" lon="13.4742662"><ele>109.0</ele><time>2026-05-03T07:40:35.146Z</time></trkpt><trkpt lat="46.048433" lon="13.4743315"><ele>107.99999999999999</ele><time>2026-05-03T07:40:36.145Z</time></trkpt><trkpt lat="46.0483664" lon="13.474404"><ele>107.0</ele><time>2026-05-03T07:40:37.145Z</time></trkpt><trkpt lat="46.0483059" lon="13.4744916"><ele>107.6</ele><time>2026-05-03T07:40:38.146Z</time></trkpt><trkpt lat="46.0482473" lon="13.4745934"><ele>108.19999999999999</ele><time>2026-05-03T07:40:39.145Z</time></trkpt><trkpt lat="46.0481905" lon="13.4746974"><ele>108.8</ele><time>2026-05-03T07:40:40.146Z</time></trkpt><trkpt lat="46.0481345" lon="13.4748216"><ele>109.4</ele><time>2026-05-03T07:40:41.146Z</time></trkpt><trkpt lat="46.0480769" lon="13.4749495"><ele>110.0</ele><time>2026-05-03T07:40:42.146Z</time></trkpt><trkpt lat="46.0480225" lon="13.4750673"><ele>110.0</ele><time>2026-05-03T07:40:43.145Z</time></trkpt><trkpt lat="46.047967" lon="13.4751821"><ele>110.0</ele><time>2026-05-03T07:40:44.146Z</time></trkpt><trkpt lat="46.0479035" lon="13.4753012"><ele>110.0</ele><time>2026-05-03T07:40:45.146Z</time></trkpt><trkpt lat="46.0478388" lon="13.4754185"><ele>110.0</ele><time>2026-05-03T07:40:46.145Z</time></trkpt><trkpt lat="46.0477788" lon="13.475523"><ele>110.0</ele><time>2026-05-03T07:40:47.146Z</time></trkpt><trkpt lat="46.0477226" lon="13.4756252"><ele>109.2</ele><time>2026-05-03T07:40:48.146Z</time></trkpt><trkpt lat="46.0476628" lon="13.475714"><ele>108.4</ele><time>2026-05-03T07:40:49.146Z</time></trkpt><trkpt lat="46.0475985" lon="13.475795"><ele>107.6</ele><time>2026-05-03T07:40:50.146Z</time></trkpt><trkpt lat="46.0475222" lon="13.4759077"><ele>106.8</ele><time>2026-05-03T07:40:51.146Z</time></trkpt><trkpt lat="46.0474488" lon="13.4760223"><ele>106.0</ele><time>2026-05-03T07:40:52.145Z</time></trkpt><trkpt lat="46.0473753" lon="13.4761448"><ele>106.0</ele><time>2026-05-03T07:40:53.146Z</time></trkpt><trkpt lat="46.0473058" lon="13.4762638"><ele>106.0</ele><time>2026-05-03T07:40:54.145Z</time></trkpt><trkpt lat="46.0472187" lon="13.4763813"><ele>106.0</ele><time>2026-05-03T07:40:55.146Z</time></trkpt><trkpt lat="46.0471173" lon="13.4764972"><ele>106.0</ele><time>2026-05-03T07:40:56.146Z</time></trkpt><trkpt lat="46.0470121" lon="13.4766064"><ele>104.75</ele><time>2026-05-03T07:40:57.146Z</time></trkpt><trkpt lat="46.0469155" lon="13.4767114"><ele>103.5</ele><time>2026-05-03T07:40:58.146Z</time></trkpt><trkpt lat="46.0468298" lon="13.4768083"><ele>102.25</ele><time>2026-05-03T07:40:59.146Z</time></trkpt><trkpt lat="46.0467352" lon="13.4769025"><ele>101.0</ele><time>2026-05-03T07:41:00.146Z</time></trkpt><trkpt lat="46.0466378" lon="13.4769868"><ele>101.75</ele><time>2026-05-03T07:41:01.146Z</time></trkpt><trkpt lat="46.0465335" lon="13.47705"><ele>102.5</ele><time>2026-05-03T07:41:02.145Z</time></trkpt><trkpt lat="46.046421" lon="13.4771012"><ele>103.25</ele><time>2026-05-03T07:41:03.146Z</time></trkpt><trkpt lat="46.0463038" lon="13.4771484"><ele>104.0</ele><time>2026-05-03T07:41:04.146Z</time></trkpt><trkpt lat="46.0461828" lon="13.477195"><ele>104.0</ele><time>2026-05-03T07:41:05.146Z</time></trkpt><trkpt lat="46.0460743" lon="13.477236"><ele>104.0</ele><time>2026-05-03T07:41:06.146Z</time></trkpt><trkpt lat="46.045982" lon="13.4772789"><ele>104.0</ele><time>2026-05-03T07:41:07.145Z</time></trkpt><trkpt lat="46.0459004" lon="13.4773193"><ele>104.0</ele><time>2026-05-03T07:41:08.146Z</time></trkpt><trkpt lat="46.0458275" lon="13.4773793"><ele>104.0</ele><time>2026-05-03T07:41:09.146Z</time></trkpt><trkpt lat="46.0457776" lon="13.4774858"><ele>104.33333333333333</ele><time>2026-05-03T07:41:10.146Z</time></trkpt><trkpt lat="46.0457461" lon="13.4776082"><ele>104.66666666666666</ele><time>2026-05-03T07:41:11.145Z</time></trkpt><trkpt lat="46.0457331" lon="13.477735"><ele>105.0</ele><time>2026-05-03T07:41:12.145Z</time></trkpt><trkpt lat="46.0457329" lon="13.4778555"><ele>105.33333333333334</ele><time>2026-05-03T07:41:13.145Z</time></trkpt><trkpt lat="46.0457226" lon="13.4779685"><ele>105.66666666666667</ele><time>2026-05-03T07:41:14.146Z</time></trkpt><trkpt lat="46.0457176" lon="13.4780627"><ele>106.0</ele><time>2026-05-03T07:41:15.146Z</time></trkpt><trkpt lat="46.0457198" lon="13.4781995"><ele>106.0</ele><time>2026-05-03T07:41:17.146Z</time></trkpt><trkpt lat="46.0456998" lon="13.4783034"><ele>106.0</ele><time>2026-05-03T07:41:20.146Z</time></trkpt><trkpt lat="46.0456232" lon="13.4783141"><ele>106.0</ele><time>2026-05-03T07:41:22.145Z</time></trkpt><trkpt lat="46.0455297" lon="13.4782641"><ele>106.0</ele><time>2026-05-03T07:41:24.146Z</time></trkpt><trkpt lat="46.0453877" lon="13.478227"><ele>106.0</ele><time>2026-05-03T07:41:26.146Z</time></trkpt><trkpt lat="46.0453017" lon="13.4782169"><ele>106.0</ele><time>2026-05-03T07:41:27.145Z</time></trkpt><trkpt lat="46.0452039" lon="13.4781919"><ele>106.0</ele><time>2026-05-03T07:41:28.146Z</time></trkpt><trkpt lat="46.0451085" lon="13.4781441"><ele>106.0</ele><time>2026-05-03T07:41:29.146Z</time></trkpt><trkpt lat="46.045013" lon="13.4780887"><ele>106.0</ele><time>2026-05-03T07:41:30.146Z</time></trkpt><trkpt lat="46.0449041" lon="13.4780392"><ele>106.0</ele><time>2026-05-03T07:41:31.146Z</time></trkpt><trkpt lat="46.0447948" lon="13.4780011"><ele>105.25</ele><time>2026-05-03T07:41:32.146Z</time></trkpt><trkpt lat="46.0446813" lon="13.4779695"><ele>104.5</ele><time>2026-05-03T07:41:33.146Z</time></trkpt><trkpt lat="46.0445598" lon="13.4779291"><ele>103.75</ele><time>2026-05-03T07:41:34.146Z</time></trkpt><trkpt lat="46.0444346" lon="13.4778923"><ele>103.0</ele><time>2026-05-03T07:41:35.146Z</time></trkpt><trkpt lat="46.0443056" lon="13.4778711"><ele>103.0</ele><time>2026-05-03T07:41:36.146Z</time></trkpt><trkpt lat="46.044184" lon="13.477855"><ele>103.0</ele><time>2026-05-03T07:41:37.146Z</time></trkpt><trkpt lat="46.0440642" lon="13.4778471"><ele>103.0</ele><time>2026-05-03T07:41:38.145Z</time></trkpt><trkpt lat="46.0439633" lon="13.4778577"><ele>103.0</ele><time>2026-05-03T07:41:39.145Z</time></trkpt><trkpt lat="46.0438733" lon="13.4778899"><ele>103.0</ele><time>2026-05-03T07:41:40.146Z</time></trkpt><trkpt lat="46.0437939" lon="13.4779412"><ele>103.0</ele><time>2026-05-03T07:41:41.146Z</time></trkpt><trkpt lat="46.0437212" lon="13.47798"><ele>103.0</ele><time>2026-05-03T07:41:42.146Z</time></trkpt><trkpt lat="46.0436274" lon="13.4780068"><ele>103.0</ele><time>2026-05-03T07:41:44.146Z</time></trkpt><trkpt lat="46.0435292" lon="13.4779597"><ele>103.0</ele><time>2026-05-03T07:41:46.146Z</time></trkpt><trkpt lat="46.043468" lon="13.4778776"><ele>103.0</ele><time>2026-05-03T07:41:47.146Z</time></trkpt><trkpt lat="46.0433988" lon="13.4777504"><ele>102.75</ele><time>2026-05-03T07:41:48.146Z</time></trkpt><trkpt lat="46.0433147" lon="13.4776355"><ele>102.5</ele><time>2026-05-03T07:41:49.145Z</time></trkpt><trkpt lat="46.0432136" lon="13.4775487"><ele>102.25</ele><time>2026-05-03T07:41:50.146Z</time></trkpt><trkpt lat="46.043104" lon="13.4774763"><ele>102.0</ele><time>2026-05-03T07:41:51.146Z</time></trkpt><trkpt lat="46.0429948" lon="13.4774079"><ele>102.5</ele><time>2026-05-03T07:41:52.146Z</time></trkpt><trkpt lat="46.042889" lon="13.4773377"><ele>103.0</ele><time>2026-05-03T07:41:53.146Z</time></trkpt><trkpt lat="46.0427868" lon="13.4772871"><ele>103.5</ele><time>2026-05-03T07:41:54.146Z</time></trkpt><trkpt lat="46.0426772" lon="13.4772453"><ele>104.0</ele><time>2026-05-03T07:41:55.146Z</time></trkpt><trkpt lat="46.0425604" lon="13.4772092"><ele>103.5</ele><time>2026-05-03T07:41:56.146Z</time></trkpt><trkpt lat="46.0424336" lon="13.4772037"><ele>103.0</ele><time>2026-05-03T07:41:57.145Z</time></trkpt><trkpt lat="46.0423081" lon="13.4772153"><ele>102.5</ele><time>2026-05-03T07:41:58.145Z</time></trkpt><trkpt lat="46.0421792" lon="13.4772437"><ele>102.0</ele><time>2026-05-03T07:41:59.145Z</time></trkpt><trkpt lat="46.0420465" lon="13.4772812"><ele>102.0</ele><time>2026-05-03T07:42:00.146Z</time></trkpt><trkpt lat="46.0419044" lon="13.4773148"><ele>102.0</ele><time>2026-05-03T07:42:01.146Z</time></trkpt><trkpt lat="46.0417549" lon="13.477353"><ele>102.0</ele><time>2026-05-03T07:42:02.146Z</time></trkpt><trkpt lat="46.0416079" lon="13.4773907"><ele>102.0</ele><time>2026-05-03T07:42:03.146Z</time></trkpt><trkpt lat="46.0414545" lon="13.4774292"><ele>100.66666666666666</ele><time>2026-05-03T07:42:04.145Z</time></trkpt><trkpt lat="46.0412957" lon="13.477465"><ele>99.33333333333333</ele><time>2026-05-03T07:42:05.145Z</time></trkpt><trkpt lat="46.0411363" lon="13.4775025"><ele>98.0</ele><time>2026-05-03T07:42:06.146Z</time></trkpt><trkpt lat="46.0409701" lon="13.4775389"><ele>98.0</ele><time>2026-05-03T07:42:07.146Z</time></trkpt><trkpt lat="46.0408032" lon="13.477582"><ele>98.0</ele><time>2026-05-03T07:42:08.145Z</time></trkpt><trkpt lat="46.040633" lon="13.4776271"><ele>98.0</ele><time>2026-05-03T07:42:09.146Z</time></trkpt><trkpt lat="46.0404653" lon="13.4776706"><ele>98.0</ele><time>2026-05-03T07:42:10.146Z</time></trkpt><trkpt lat="46.040303" lon="13.4777061"><ele>98.0</ele><time>2026-05-03T07:42:11.146Z</time></trkpt><trkpt lat="46.040148" lon="13.4777285"><ele>98.0</ele><time>2026-05-03T07:42:12.145Z</time></trkpt><trkpt lat="46.0399967" lon="13.477726"><ele>97.66666666666666</ele><time>2026-05-03T07:42:13.145Z</time></trkpt><trkpt lat="46.039846" lon="13.4776829"><ele>97.33333333333334</ele><time>2026-05-03T07:42:14.145Z</time></trkpt><trkpt lat="46.0396947" lon="13.4776148"><ele>97.0</ele><time>2026-05-03T07:42:15.146Z</time></trkpt><trkpt lat="46.0395393" lon="13.4775621"><ele>97.0</ele><time>2026-05-03T07:42:16.146Z</time></trkpt><trkpt lat="46.0393764" lon="13.4775351"><ele>97.0</ele><time>2026-05-03T07:42:17.146Z</time></trkpt><trkpt lat="46.0392085" lon="13.4775289"><ele>97.0</ele><time>2026-05-03T07:42:18.146Z</time></trkpt><trkpt lat="46.0390361" lon="13.4775379"><ele>97.33333333333334</ele><time>2026-05-03T07:42:19.146Z</time></trkpt><trkpt lat="46.0388632" lon="13.477556"><ele>97.66666666666666</ele><time>2026-05-03T07:42:20.146Z</time></trkpt><trkpt lat="46.0386909" lon="13.4775738"><ele>98.0</ele><time>2026-05-03T07:42:21.146Z</time></trkpt><trkpt lat="46.0385176" lon="13.4775985"><ele>98.0</ele><time>2026-05-03T07:42:22.146Z</time></trkpt><trkpt lat="46.0383478" lon="13.4776329"><ele>98.0</ele><time>2026-05-03T07:42:23.146Z</time></trkpt><trkpt lat="46.0381779" lon="13.4776656"><ele>98.0</ele><time>2026-05-03T07:42:24.146Z</time></trkpt><trkpt lat="46.0380099" lon="13.4776955"><ele>96.66666666666666</ele><time>2026-05-03T07:42:25.146Z</time></trkpt><trkpt lat="46.0378391" lon="13.4777291"><ele>95.33333333333333</ele><time>2026-05-03T07:42:26.145Z</time></trkpt><trkpt lat="46.0376695" lon="13.4777606"><ele>94.0</ele><time>2026-05-03T07:42:27.146Z</time></trkpt><trkpt lat="46.0374971" lon="13.4777934"><ele>94.33333333333333</ele><time>2026-05-03T07:42:28.146Z</time></trkpt><trkpt lat="46.0373237" lon="13.4778293"><ele>94.66666666666667</ele><time>2026-05-03T07:42:29.146Z</time></trkpt><trkpt lat="46.0371472" lon="13.477857"><ele>95.0</ele><time>2026-05-03T07:42:30.146Z</time></trkpt><trkpt lat="46.0369738" lon="13.4778672"><ele>95.0</ele><time>2026-05-03T07:42:31.145Z</time></trkpt><trkpt lat="46.0368017" lon="13.4778465"><ele>95.0</ele><time>2026-05-03T07:42:32.146Z</time></trkpt><trkpt lat="46.0366396" lon="13.4778048"><ele>95.0</ele><time>2026-05-03T07:42:33.145Z</time></trkpt><trkpt lat="46.03648" lon="13.4777433"><ele>94.0</ele><time>2026-05-03T07:42:34.146Z</time></trkpt><trkpt lat="46.0363216" lon="13.4776737"><ele>93.0</ele><time>2026-05-03T07:42:35.146Z</time></trkpt><trkpt lat="46.036163" lon="13.4776035"><ele>92.0</ele><time>2026-05-03T07:42:36.146Z</time></trkpt><trkpt lat="46.0360059" lon="13.4775332"><ele>92.0</ele><time>2026-05-03T07:42:37.145Z</time></trkpt><trkpt lat="46.0358405" lon="13.4774603"><ele>92.0</ele><time>2026-05-03T07:42:38.146Z</time></trkpt><trkpt lat="46.0356812" lon="13.4773876"><ele>92.0</ele><time>2026-05-03T07:42:39.146Z</time></trkpt><trkpt lat="46.0355205" lon="13.4773128"><ele>91.33333333333334</ele><time>2026-05-03T07:42:40.145Z</time></trkpt><trkpt lat="46.0353594" lon="13.477245"><ele>90.66666666666667</ele><time>2026-05-03T07:42:41.145Z</time></trkpt><trkpt lat="46.0351965" lon="13.4771898"><ele>90.0</ele><time>2026-05-03T07:42:42.146Z</time></trkpt><trkpt lat="46.0350316" lon="13.4771396"><ele>89.33333333333333</ele><time>2026-05-03T07:42:43.146Z</time></trkpt><trkpt lat="46.0348661" lon="13.477095"><ele>88.66666666666666</ele><time>2026-05-03T07:42:44.146Z</time></trkpt><trkpt lat="46.0346984" lon="13.4770553"><ele>88.0</ele><time>2026-05-03T07:42:45.146Z</time></trkpt><trkpt lat="46.0345307" lon="13.4770034"><ele>88.0</ele><time>2026-05-03T07:42:46.146Z</time></trkpt><trkpt lat="46.0343663" lon="13.4769459"><ele>88.0</ele><time>2026-05-03T07:42:47.146Z</time></trkpt><trkpt lat="46.0341976" lon="13.4768768"><ele>88.0</ele><time>2026-05-03T07:42:48.146Z</time></trkpt><trkpt lat="46.0340326" lon="13.4768023"><ele>88.33333333333333</ele><time>2026-05-03T07:42:49.146Z</time></trkpt><trkpt lat="46.0338685" lon="13.4767252"><ele>88.66666666666667</ele><time>2026-05-03T07:42:50.146Z</time></trkpt><trkpt lat="46.0337059" lon="13.4766443"><ele>89.0</ele><time>2026-05-03T07:42:51.146Z</time></trkpt><trkpt lat="46.0335467" lon="13.47656"><ele>89.0</ele><time>2026-05-03T07:42:52.145Z</time></trkpt><trkpt lat="46.0333939" lon="13.4764673"><ele>89.0</ele><time>2026-05-03T07:42:53.146Z</time></trkpt><trkpt lat="46.0332438" lon="13.4763711"><ele>89.0</ele><time>2026-05-03T07:42:54.146Z</time></trkpt><trkpt lat="46.0331069" lon="13.4762683"><ele>89.0</ele><time>2026-05-03T07:42:55.146Z</time></trkpt><trkpt lat="46.0329873" lon="13.4761316"><ele>89.0</ele><time>2026-05-03T07:42:56.146Z</time></trkpt><trkpt lat="46.0328706" lon="13.4759996"><ele>89.0</ele><time>2026-05-03T07:42:57.146Z</time></trkpt><trkpt lat="46.0327483" lon="13.4758729"><ele>89.0</ele><time>2026-05-03T07:42:58.146Z</time></trkpt><trkpt lat="46.0326188" lon="13.4757604"><ele>89.0</ele><time>2026-05-03T07:42:59.145Z</time></trkpt><trkpt lat="46.0324885" lon="13.4756633"><ele>89.0</ele><time>2026-05-03T07:43:00.146Z</time></trkpt><trkpt lat="46.0323644" lon="13.4755878"><ele>89.0</ele><time>2026-05-03T07:43:01.145Z</time></trkpt><trkpt lat="46.0322381" lon="13.475522"><ele>89.4</ele><time>2026-05-03T07:43:02.146Z</time></trkpt><trkpt lat="46.0321257" lon="13.4754597"><ele>89.80000000000001</ele><time>2026-05-03T07:43:03.145Z</time></trkpt><trkpt lat="46.032022" lon="13.4754038"><ele>90.19999999999999</ele><time>2026-05-03T07:43:04.145Z</time></trkpt><trkpt lat="46.0319257" lon="13.4753618"><ele>90.6</ele><time>2026-05-03T07:43:05.146Z</time></trkpt><trkpt lat="46.0318331" lon="13.4753707"><ele>91.0</ele><time>2026-05-03T07:43:06.145Z</time></trkpt><trkpt lat="46.0317556" lon="13.4754506"><ele>90.0</ele><time>2026-05-03T07:43:07.146Z</time></trkpt><trkpt lat="46.0317032" lon="13.4755583"><ele>89.0</ele><time>2026-05-03T07:43:08.145Z</time></trkpt><trkpt lat="46.0316677" lon="13.4756996"><ele>88.0</ele><time>2026-05-03T07:43:09.146Z</time></trkpt><trkpt lat="46.0316288" lon="13.4758291"><ele>87.0</ele><time>2026-05-03T07:43:10.146Z</time></trkpt><trkpt lat="46.0315927" lon="13.4759495"><ele>86.0</ele><time>2026-05-03T07:43:11.145Z</time></trkpt><trkpt lat="46.0315607" lon="13.4760463"><ele>85.66666666666667</ele><time>2026-05-03T07:43:12.146Z</time></trkpt><trkpt lat="46.0315182" lon="13.4761144"><ele>85.33333333333334</ele><time>2026-05-03T07:43:13.145Z</time></trkpt><trkpt lat="46.0314554" lon="13.4761508"><ele>85.0</ele><time>2026-05-03T07:43:14.146Z</time></trkpt><trkpt lat="46.03137" lon="13.4761549"><ele>84.66666666666667</ele><time>2026-05-03T07:43:15.145Z</time></trkpt><trkpt lat="46.0312767" lon="13.4761554"><ele>84.33333333333333</ele><time>2026-05-03T07:43:16.146Z</time></trkpt><trkpt lat="46.0311683" lon="13.4761572"><ele>84.0</ele><time>2026-05-03T07:43:17.146Z</time></trkpt><trkpt lat="46.0310494" lon="13.4761529"><ele>84.0</ele><time>2026-05-03T07:43:18.145Z</time></trkpt><trkpt lat="46.0309288" lon="13.4761434"><ele>84.0</ele><time>2026-05-03T07:43:19.145Z</time></trkpt><trkpt lat="46.0308062" lon="13.4761279"><ele>84.0</ele><time>2026-05-03T07:43:20.146Z</time></trkpt><trkpt lat="46.0306775" lon="13.4761149"><ele>84.0</ele><time>2026-05-03T07:43:21.145Z</time></trkpt><trkpt lat="46.0305457" lon="13.4760854"><ele>83.75</ele><time>2026-05-03T07:43:22.145Z</time></trkpt><trkpt lat="46.03041" lon="13.4760572"><ele>83.5</ele><time>2026-05-03T07:43:23.146Z</time></trkpt><trkpt lat="46.03027" lon="13.476032"><ele>83.25</ele><time>2026-05-03T07:43:24.146Z</time></trkpt><trkpt lat="46.030133" lon="13.4760031"><ele>83.0</ele><time>2026-05-03T07:43:25.146Z</time></trkpt><trkpt lat="46.0300002" lon="13.4759726"><ele>82.5</ele><time>2026-05-03T07:43:26.146Z</time></trkpt><trkpt lat="46.0298695" lon="13.4759329"><ele>82.0</ele><time>2026-05-03T07:43:27.146Z</time></trkpt><trkpt lat="46.0297392" lon="13.4758796"><ele>81.5</ele><time>2026-05-03T07:43:28.145Z</time></trkpt><trkpt lat="46.0296017" lon="13.4758074"><ele>81.0</ele><time>2026-05-03T07:43:29.146Z</time></trkpt><trkpt lat="46.0294685" lon="13.4757268"><ele>81.0</ele><time>2026-05-03T07:43:30.146Z</time></trkpt><trkpt lat="46.0293336" lon="13.4756418"><ele>81.0</ele><time>2026-05-03T07:43:31.146Z</time></trkpt><trkpt lat="46.0292056" lon="13.4755585"><ele>81.0</ele><time>2026-05-03T07:43:32.145Z</time></trkpt><trkpt lat="46.0290833" lon="13.4754756"><ele>81.0</ele><time>2026-05-03T07:43:33.146Z</time></trkpt><trkpt lat="46.0289668" lon="13.4754015"><ele>80.8</ele><time>2026-05-03T07:43:34.145Z</time></trkpt><trkpt lat="46.0288529" lon="13.4753323"><ele>80.6</ele><time>2026-05-03T07:43:35.145Z</time></trkpt><trkpt lat="46.028745" lon="13.4752662"><ele>80.4</ele><time>2026-05-03T07:43:36.145Z</time></trkpt><trkpt lat="46.0286502" lon="13.4752143"><ele>80.2</ele><time>2026-05-03T07:43:37.145Z</time></trkpt><trkpt lat="46.028573" lon="13.4751552"><ele>80.0</ele><time>2026-05-03T07:43:38.145Z</time></trkpt><trkpt lat="46.0285211" lon="13.4750788"><ele>80.0</ele><time>2026-05-03T07:43:39.144Z</time></trkpt><trkpt lat="46.0284941" lon="13.4749859"><ele>80.0</ele><time>2026-05-03T07:43:40.145Z</time></trkpt><trkpt lat="46.0285023" lon="13.474876"><ele>80.0</ele><time>2026-05-03T07:43:41.145Z</time></trkpt><trkpt lat="46.0285345" lon="13.4747579"><ele>80.0</ele><time>2026-05-03T07:43:42.145Z</time></trkpt><trkpt lat="46.0285684" lon="13.4746216"><ele>80.0</ele><time>2026-05-03T07:43:43.144Z</time></trkpt><trkpt lat="46.0286003" lon="13.4744786"><ele>80.0</ele><time>2026-05-03T07:43:44.145Z</time></trkpt><trkpt lat="46.0286356" lon="13.4743298"><ele>81.0</ele><time>2026-05-03T07:43:45.144Z</time></trkpt><trkpt lat="46.0286733" lon="13.4741738"><ele>82.0</ele><time>2026-05-03T07:43:46.145Z</time></trkpt><trkpt lat="46.0287106" lon="13.474008"><ele>83.0</ele><time>2026-05-03T07:43:47.145Z</time></trkpt><trkpt lat="46.028745" lon="13.4738395"><ele>84.0</ele><time>2026-05-03T07:43:48.145Z</time></trkpt><trkpt lat="46.0287742" lon="13.4736606"><ele>85.5</ele><time>2026-05-03T07:43:49.144Z</time></trkpt><trkpt lat="46.0288021" lon="13.4734858"><ele>87.0</ele><time>2026-05-03T07:43:50.145Z</time></trkpt><trkpt lat="46.0288167" lon="13.4733121"><ele>88.5</ele><time>2026-05-03T07:43:51.145Z</time></trkpt><trkpt lat="46.0287985" lon="13.4731385"><ele>90.0</ele><time>2026-05-03T07:43:52.144Z</time></trkpt><trkpt lat="46.0287472" lon="13.4729778"><ele>90.0</ele><time>2026-05-03T07:43:53.145Z</time></trkpt><trkpt lat="46.0286808" lon="13.4728205"><ele>90.0</ele><time>2026-05-03T07:43:54.144Z</time></trkpt><trkpt lat="46.0286171" lon="13.4726526"><ele>90.0</ele><time>2026-05-03T07:43:55.145Z</time></trkpt><trkpt lat="46.0285606" lon="13.4724848"><ele>90.0</ele><time>2026-05-03T07:43:56.145Z</time></trkpt><trkpt lat="46.0285077" lon="13.4723085"><ele>90.0</ele><time>2026-05-03T07:43:57.144Z</time></trkpt><trkpt lat="46.028484" lon="13.4721226"><ele>90.0</ele><time>2026-05-03T07:43:58.145Z</time></trkpt><trkpt lat="46.0284848" lon="13.4719252"><ele>90.0</ele><time>2026-05-03T07:43:59.144Z</time></trkpt><trkpt lat="46.0284938" lon="13.4717305"><ele>90.0</ele><time>2026-05-03T07:44:00.145Z</time></trkpt><trkpt lat="46.0284946" lon="13.4715283"><ele>90.75</ele><time>2026-05-03T07:44:01.144Z</time></trkpt><trkpt lat="46.028477" lon="13.4713348"><ele>91.5</ele><time>2026-05-03T07:44:02.145Z</time></trkpt><trkpt lat="46.0284472" lon="13.47115"><ele>92.25</ele><time>2026-05-03T07:44:03.145Z</time></trkpt><trkpt lat="46.0284009" lon="13.4709744"><ele>93.0</ele><time>2026-05-03T07:44:04.145Z</time></trkpt><trkpt lat="46.0283441" lon="13.4707945"><ele>93.75</ele><time>2026-05-03T07:44:05.144Z</time></trkpt><trkpt lat="46.0282889" lon="13.470611"><ele>94.5</ele><time>2026-05-03T07:44:06.144Z</time></trkpt><trkpt lat="46.0282389" lon="13.4704237"><ele>95.25</ele><time>2026-05-03T07:44:07.145Z</time></trkpt><trkpt lat="46.0282013" lon="13.4702364"><ele>96.0</ele><time>2026-05-03T07:44:08.145Z</time></trkpt><trkpt lat="46.0281654" lon="13.4700471"><ele>97.25</ele><time>2026-05-03T07:44:09.144Z</time></trkpt><trkpt lat="46.028121" lon="13.4698725"><ele>98.5</ele><time>2026-05-03T07:44:10.145Z</time></trkpt><trkpt lat="46.0280521" lon="13.4697129"><ele>99.75</ele><time>2026-05-03T07:44:11.145Z</time></trkpt><trkpt lat="46.027964" lon="13.4695627"><ele>101.0</ele><time>2026-05-03T07:44:12.145Z</time></trkpt><trkpt lat="46.0278701" lon="13.4694382"><ele>103.0</ele><time>2026-05-03T07:44:13.145Z</time></trkpt><trkpt lat="46.0277676" lon="13.4693376"><ele>105.0</ele><time>2026-05-03T07:44:14.144Z</time></trkpt><trkpt lat="46.0276311" lon="13.4692743"><ele>107.0</ele><time>2026-05-03T07:44:15.144Z</time></trkpt><trkpt lat="46.0274918" lon="13.4692172"><ele>109.0</ele><time>2026-05-03T07:44:16.145Z</time></trkpt><trkpt lat="46.0273564" lon="13.4691529"><ele>109.0</ele><time>2026-05-03T07:44:17.145Z</time></trkpt><trkpt lat="46.0272235" lon="13.4690915"><ele>109.0</ele><time>2026-05-03T07:44:18.145Z</time></trkpt><trkpt lat="46.0270944" lon="13.46904"><ele>109.0</ele><time>2026-05-03T07:44:19.144Z</time></trkpt><trkpt lat="46.0269686" lon="13.4690006"><ele>109.0</ele><time>2026-05-03T07:44:20.144Z</time></trkpt><trkpt lat="46.0268537" lon="13.4689778"><ele>109.0</ele><time>2026-05-03T07:44:21.145Z</time></trkpt><trkpt lat="46.0267371" lon="13.4689357"><ele>109.0</ele><time>2026-05-03T07:44:22.144Z</time></trkpt><trkpt lat="46.0266295" lon="13.4688775"><ele>109.0</ele><time>2026-05-03T07:44:23.144Z</time></trkpt><trkpt lat="46.02653" lon="13.4687961"><ele>109.0</ele><time>2026-05-03T07:44:24.144Z</time></trkpt><trkpt lat="46.0264379" lon="13.4686946"><ele>109.6</ele><time>2026-05-03T07:44:25.145Z</time></trkpt><trkpt lat="46.0263508" lon="13.4685812"><ele>110.2</ele><time>2026-05-03T07:44:26.145Z</time></trkpt><trkpt lat="46.0262531" lon="13.4684935"><ele>110.79999999999998</ele><time>2026-05-03T07:44:27.145Z</time></trkpt><trkpt lat="46.026155" lon="13.468428"><ele>111.39999999999999</ele><time>2026-05-03T07:44:28.145Z</time></trkpt><trkpt lat="46.0260662" lon="13.4683786"><ele>112.0</ele><time>2026-05-03T07:44:29.145Z</time></trkpt><trkpt lat="46.0260031" lon="13.4682976"><ele>112.00000000000001</ele><time>2026-05-03T07:44:30.144Z</time></trkpt><trkpt lat="46.0259741" lon="13.4681898"><ele>112.0</ele><time>2026-05-03T07:44:31.145Z</time></trkpt><trkpt lat="46.0259756" lon="13.4680899"><ele>112.0</ele><time>2026-05-03T07:44:32.145Z</time></trkpt><trkpt lat="46.02598" lon="13.467964"><ele>112.0</ele><time>2026-05-03T07:44:34.145Z</time></trkpt><trkpt lat="46.025889" lon="13.467947"><ele>112.00000000000001</ele><time>2026-05-03T07:44:37.144Z</time></trkpt><trkpt lat="46.0258164" lon="13.4679557"><ele>112.0</ele><time>2026-05-03T07:44:38.145Z</time></trkpt><trkpt lat="46.0257303" lon="13.4679417"><ele>111.19999999999999</ele><time>2026-05-03T07:44:39.145Z</time></trkpt><trkpt lat="46.0256383" lon="13.4679208"><ele>110.39999999999999</ele><time>2026-05-03T07:44:40.145Z</time></trkpt><trkpt lat="46.0255456" lon="13.4679038"><ele>109.60000000000001</ele><time>2026-05-03T07:44:41.145Z</time></trkpt><trkpt lat="46.0254615" lon="13.4679142"><ele>108.80000000000001</ele><time>2026-05-03T07:44:42.144Z</time></trkpt><trkpt lat="46.0253755" lon="13.4679573"><ele>108.0</ele><time>2026-05-03T07:44:43.145Z</time></trkpt><trkpt lat="46.0252864" lon="13.4680095"><ele>108.0</ele><time>2026-05-03T07:44:44.145Z</time></trkpt><trkpt lat="46.0252051" lon="13.4680738"><ele>108.0</ele><time>2026-05-03T07:44:45.145Z</time></trkpt><trkpt lat="46.0251425" lon="13.4681585"><ele>108.0</ele><time>2026-05-03T07:44:46.144Z</time></trkpt><trkpt lat="46.0250918" lon="13.4682672"><ele>108.0</ele><time>2026-05-03T07:44:47.145Z</time></trkpt><trkpt lat="46.0250744" lon="13.4683684"><ele>108.0</ele><time>2026-05-03T07:44:48.145Z</time></trkpt><trkpt lat="46.0250889" lon="13.4684682"><ele>108.0</ele><time>2026-05-03T07:44:49.145Z</time></trkpt><trkpt lat="46.025123" lon="13.4685531"><ele>108.0</ele><time>2026-05-03T07:44:50.144Z</time></trkpt><trkpt lat="46.0251743" lon="13.4686185"><ele>108.0</ele><time>2026-05-03T07:44:51.144Z</time></trkpt><trkpt lat="46.0252503" lon="13.4687424"><ele>108.0</ele><time>2026-05-03T07:44:53.145Z</time></trkpt><trkpt lat="46.025264" lon="13.4688822"><ele>108.0</ele><time>2026-05-03T07:44:55.145Z</time></trkpt><trkpt lat="46.0252193" lon="13.468952"><ele>108.0</ele><time>2026-05-03T07:44:57.145Z</time></trkpt><trkpt lat="46.0251451" lon="13.4689697"><ele>108.0</ele><time>2026-05-03T07:44:59.145Z</time></trkpt><trkpt lat="46.0250163" lon="13.4689789"><ele>106.57142857142857</ele><time>2026-05-03T07:45:01.145Z</time></trkpt><trkpt lat="46.024946" lon="13.4690009"><ele>105.14285714285714</ele><time>2026-05-03T07:45:02.144Z</time></trkpt><trkpt lat="46.0248804" lon="13.468991"><ele>103.71428571428572</ele><time>2026-05-03T07:45:03.145Z</time></trkpt><trkpt lat="46.0248173" lon="13.4689642"><ele>102.28571428571428</ele><time>2026-05-03T07:45:04.144Z</time></trkpt><trkpt lat="46.0247547" lon="13.4689152"><ele>100.85714285714286</ele><time>2026-05-03T07:45:05.145Z</time></trkpt><trkpt lat="46.0246866" lon="13.4688586"><ele>99.42857142857143</ele><time>2026-05-03T07:45:06.145Z</time></trkpt><trkpt lat="46.0246052" lon="13.4688057"><ele>98.0</ele><time>2026-05-03T07:45:07.144Z</time></trkpt><trkpt lat="46.02452" lon="13.4687467"><ele>98.0</ele><time>2026-05-03T07:45:08.145Z</time></trkpt><trkpt lat="46.0244438" lon="13.4686798"><ele>98.0</ele><time>2026-05-03T07:45:09.144Z</time></trkpt><trkpt lat="46.0243691" lon="13.4686111"><ele>98.0</ele><time>2026-05-03T07:45:10.145Z</time></trkpt><trkpt lat="46.0242869" lon="13.4685427"><ele>98.0</ele><time>2026-05-03T07:45:11.144Z</time></trkpt><trkpt lat="46.024207" lon="13.4684831"><ele>98.0</ele><time>2026-05-03T07:45:12.145Z</time></trkpt><trkpt lat="46.0241205" lon="13.4684396"><ele>96.66666666666666</ele><time>2026-05-03T07:45:13.145Z</time></trkpt><trkpt lat="46.0240355" lon="13.4684029"><ele>95.33333333333333</ele><time>2026-05-03T07:45:14.145Z</time></trkpt><trkpt lat="46.0239546" lon="13.4683557"><ele>94.0</ele><time>2026-05-03T07:45:15.145Z</time></trkpt><trkpt lat="46.0238752" lon="13.4683057"><ele>92.66666666666666</ele><time>2026-05-03T07:45:16.144Z</time></trkpt><trkpt lat="46.0237955" lon="13.4682496"><ele>91.33333333333333</ele><time>2026-05-03T07:45:17.145Z</time></trkpt><trkpt lat="46.0237278" lon="13.4681666"><ele>90.0</ele><time>2026-05-03T07:45:18.145Z</time></trkpt><trkpt lat="46.0236697" lon="13.4680799"><ele>90.0</ele><time>2026-05-03T07:45:19.145Z</time></trkpt><trkpt lat="46.0236084" lon="13.4680073"><ele>90.0</ele><time>2026-05-03T07:45:20.145Z</time></trkpt><trkpt lat="46.023464" lon="13.4679462"><ele>90.0</ele><time>2026-05-03T07:45:22.144Z</time></trkpt><trkpt lat="46.0233898" lon="13.4679681"><ele>90.0</ele><time>2026-05-03T07:45:23.145Z</time></trkpt><trkpt lat="46.023315" lon="13.4680144"><ele>90.0</ele><time>2026-05-03T07:45:24.145Z</time></trkpt><trkpt lat="46.0232391" lon="13.4680822"><ele>90.0</ele><time>2026-05-03T07:45:25.145Z</time></trkpt><trkpt lat="46.0231621" lon="13.4681728"><ele>90.0</ele><time>2026-05-03T07:45:26.144Z</time></trkpt><trkpt lat="46.023092" lon="13.4682607"><ele>90.0</ele><time>2026-05-03T07:45:27.145Z</time></trkpt><trkpt lat="46.0230252" lon="13.4683442"><ele>90.0</ele><time>2026-05-03T07:45:28.144Z</time></trkpt><trkpt lat="46.0229486" lon="13.4684252"><ele>90.0</ele><time>2026-05-03T07:45:29.144Z</time></trkpt><trkpt lat="46.0228726" lon="13.4684961"><ele>90.0</ele><time>2026-05-03T07:45:30.144Z</time></trkpt><trkpt lat="46.0227929" lon="13.4685592"><ele>90.0</ele><time>2026-05-03T07:45:31.144Z</time></trkpt><trkpt lat="46.0226983" lon="13.4685958"><ele>90.0</ele><time>2026-05-03T07:45:32.144Z</time></trkpt><trkpt lat="46.0226012" lon="13.4686332"><ele>90.0</ele><time>2026-05-03T07:45:33.145Z</time></trkpt><trkpt lat="46.0224987" lon="13.4686616"><ele>90.0</ele><time>2026-05-03T07:45:34.145Z</time></trkpt><trkpt lat="46.0223945" lon="13.468692"><ele>90.0</ele><time>2026-05-03T07:45:35.145Z</time></trkpt><trkpt lat="46.0222972" lon="13.4687329"><ele>90.0</ele><time>2026-05-03T07:45:36.145Z</time></trkpt><trkpt lat="46.0222073" lon="13.4687719"><ele>90.0</ele><time>2026-05-03T07:45:37.145Z</time></trkpt><trkpt lat="46.0221234" lon="13.4688032"><ele>90.0</ele><time>2026-05-03T07:45:38.144Z</time></trkpt><trkpt lat="46.0220414" lon="13.4688261"><ele>90.0</ele><time>2026-05-03T07:45:39.145Z</time></trkpt><trkpt lat="46.021956" lon="13.4688492"><ele>89.0</ele><time>2026-05-03T07:45:40.145Z</time></trkpt><trkpt lat="46.0218695" lon="13.4688603"><ele>88.0</ele><time>2026-05-03T07:45:41.145Z</time></trkpt><trkpt lat="46.021775" lon="13.4688574"><ele>87.0</ele><time>2026-05-03T07:45:42.145Z</time></trkpt><trkpt lat="46.0216727" lon="13.4688557"><ele>86.0</ele><time>2026-05-03T07:45:43.144Z</time></trkpt><trkpt lat="46.0215764" lon="13.4688542"><ele>85.0</ele><time>2026-05-03T07:45:44.145Z</time></trkpt><trkpt lat="46.0214885" lon="13.4688738"><ele>84.8</ele><time>2026-05-03T07:45:45.145Z</time></trkpt><trkpt lat="46.0213963" lon="13.4688976"><ele>84.6</ele><time>2026-05-03T07:45:46.144Z</time></trkpt><trkpt lat="46.0213056" lon="13.4689207"><ele>84.4</ele><time>2026-05-03T07:45:47.144Z</time></trkpt><trkpt lat="46.0212191" lon="13.4689441"><ele>84.2</ele><time>2026-05-03T07:45:48.145Z</time></trkpt><trkpt lat="46.0211266" lon="13.4689678"><ele>84.0</ele><time>2026-05-03T07:45:49.145Z</time></trkpt><trkpt lat="46.0210286" lon="13.4690014"><ele>84.0</ele><time>2026-05-03T07:45:50.145Z</time></trkpt><trkpt lat="46.0209415" lon="13.4690284"><ele>84.0</ele><time>2026-05-03T07:45:51.145Z</time></trkpt><trkpt lat="46.0208598" lon="13.4690516"><ele>84.0</ele><time>2026-05-03T07:45:52.144Z</time></trkpt><trkpt lat="46.0207406" lon="13.4689997"><ele>84.0</ele><time>2026-05-03T07:45:54.144Z</time></trkpt><trkpt lat="46.0206549" lon="13.4689326"><ele>84.0</ele><time>2026-05-03T07:45:55.145Z</time></trkpt><trkpt lat="46.0205613" lon="13.468853"><ele>84.2</ele><time>2026-05-03T07:45:56.145Z</time></trkpt><trkpt lat="46.0204693" lon="13.4687826"><ele>84.4</ele><time>2026-05-03T07:45:57.145Z</time></trkpt><trkpt lat="46.0203789" lon="13.468719"><ele>84.6</ele><time>2026-05-03T07:45:58.145Z</time></trkpt><trkpt lat="46.0202956" lon="13.468657"><ele>84.8</ele><time>2026-05-03T07:45:59.144Z</time></trkpt><trkpt lat="46.0202131" lon="13.4685914"><ele>85.0</ele><time>2026-05-03T07:46:00.145Z</time></trkpt><trkpt lat="46.0201263" lon="13.468529"><ele>85.2</ele><time>2026-05-03T07:46:01.145Z</time></trkpt><trkpt lat="46.0200326" lon="13.4684536"><ele>85.4</ele><time>2026-05-03T07:46:02.145Z</time></trkpt><trkpt lat="46.0199363" lon="13.4683822"><ele>85.6</ele><time>2026-05-03T07:46:03.145Z</time></trkpt><trkpt lat="46.0198402" lon="13.4683076"><ele>85.8</ele><time>2026-05-03T07:46:04.145Z</time></trkpt><trkpt lat="46.0197464" lon="13.4682349"><ele>86.0</ele><time>2026-05-03T07:46:05.145Z</time></trkpt><trkpt lat="46.0196623" lon="13.4681693"><ele>86.0</ele><time>2026-05-03T07:46:06.145Z</time></trkpt><trkpt lat="46.0195785" lon="13.4681113"><ele>86.0</ele><time>2026-05-03T07:46:07.144Z</time></trkpt><trkpt lat="46.0194987" lon="13.4680673"><ele>86.0</ele><time>2026-05-03T07:46:08.145Z</time></trkpt><trkpt lat="46.0194185" lon="13.4680173"><ele>86.0</ele><time>2026-05-03T07:46:09.145Z</time></trkpt><trkpt lat="46.0193437" lon="13.4679608"><ele>86.0</ele><time>2026-05-03T07:46:10.145Z</time></trkpt><trkpt lat="46.0192623" lon="13.4679017"><ele>86.0</ele><time>2026-05-03T07:46:11.145Z</time></trkpt><trkpt lat="46.0191818" lon="13.4678377"><ele>85.83333333333334</ele><time>2026-05-03T07:46:12.144Z</time></trkpt><trkpt lat="46.0191038" lon="13.4677723"><ele>85.66666666666667</ele><time>2026-05-03T07:46:13.144Z</time></trkpt><trkpt lat="46.0190216" lon="13.4677051"><ele>85.5</ele><time>2026-05-03T07:46:14.145Z</time></trkpt><trkpt lat="46.0189446" lon="13.4676491"><ele>85.33333333333333</ele><time>2026-05-03T07:46:15.145Z</time></trkpt><trkpt lat="46.018873" lon="13.4676037"><ele>85.16666666666666</ele><time>2026-05-03T07:46:16.145Z</time></trkpt><trkpt lat="46.0188003" lon="13.4675648"><ele>85.0</ele><time>2026-05-03T07:46:17.145Z</time></trkpt><trkpt lat="46.0187213" lon="13.4675379"><ele>85.0</ele><time>2026-05-03T07:46:18.144Z</time></trkpt><trkpt lat="46.0186348" lon="13.467499"><ele>85.0</ele><time>2026-05-03T07:46:19.145Z</time></trkpt><trkpt lat="46.0185523" lon="13.4674691"><ele>85.0</ele><time>2026-05-03T07:46:20.144Z</time></trkpt><trkpt lat="46.0184744" lon="13.4674481"><ele>85.0</ele><time>2026-05-03T07:46:21.144Z</time></trkpt><trkpt lat="46.018394" lon="13.4674299"><ele>85.0</ele><time>2026-05-03T07:46:22.145Z</time></trkpt><trkpt lat="46.0183101" lon="13.4674113"><ele>85.0</ele><time>2026-05-03T07:46:23.145Z</time></trkpt><trkpt lat="46.0182262" lon="13.4673995"><ele>84.5</ele><time>2026-05-03T07:46:24.145Z</time></trkpt><trkpt lat="46.0181365" lon="13.4673859"><ele>84.0</ele><time>2026-05-03T07:46:25.144Z</time></trkpt><trkpt lat="46.0180439" lon="13.4673745"><ele>83.5</ele><time>2026-05-03T07:46:26.145Z</time></trkpt><trkpt lat="46.0179531" lon="13.4673731"><ele>83.0</ele><time>2026-05-03T07:46:27.145Z</time></trkpt><trkpt lat="46.0178666" lon="13.4673811"><ele>82.5</ele><time>2026-05-03T07:46:28.145Z</time></trkpt><trkpt lat="46.0177868" lon="13.4673834"><ele>82.0</ele><time>2026-05-03T07:46:29.144Z</time></trkpt><trkpt lat="46.017704" lon="13.4673838"><ele>81.99999999999999</ele><time>2026-05-03T07:46:30.144Z</time></trkpt><trkpt lat="46.0176279" lon="13.467385"><ele>82.0</ele><time>2026-05-03T07:46:31.144Z</time></trkpt><trkpt lat="46.0175649" lon="13.4673867"><ele>82.0</ele><time>2026-05-03T07:46:32.144Z</time></trkpt><trkpt lat="46.017498" lon="13.4674058"><ele>82.0</ele><time>2026-05-03T07:46:34.144Z</time></trkpt><trkpt lat="46.0174537" lon="13.4675125"><ele>82.0</ele><time>2026-05-03T07:46:36.145Z</time></trkpt><trkpt lat="46.0174447" lon="13.4676205"><ele>81.99999999999999</ele><time>2026-05-03T07:46:37.145Z</time></trkpt><trkpt lat="46.0174217" lon="13.4677211"><ele>82.0</ele><time>2026-05-03T07:46:38.145Z</time></trkpt><trkpt lat="46.017399" lon="13.4678273"><ele>81.83333333333333</ele><time>2026-05-03T07:46:39.144Z</time></trkpt><trkpt lat="46.0173798" lon="13.4679333"><ele>81.66666666666666</ele><time>2026-05-03T07:46:40.144Z</time></trkpt><trkpt lat="46.0173677" lon="13.4680422"><ele>81.5</ele><time>2026-05-03T07:46:41.144Z</time></trkpt><trkpt lat="46.0173732" lon="13.4681431"><ele>81.33333333333333</ele><time>2026-05-03T07:46:42.144Z</time></trkpt><trkpt lat="46.0174633" lon="13.4682505"><ele>81.16666666666667</ele><time>2026-05-03T07:46:44.144Z</time></trkpt><trkpt lat="46.017538" lon="13.468278"><ele>81.0</ele><time>2026-05-03T07:46:45.145Z</time></trkpt><trkpt lat="46.0176151" lon="13.4683075"><ele>81.0</ele><time>2026-05-03T07:46:46.144Z</time></trkpt><trkpt lat="46.0176864" lon="13.4683377"><ele>81.0</ele><time>2026-05-03T07:46:47.145Z</time></trkpt><trkpt lat="46.0177518" lon="13.4683791"><ele>81.0</ele><time>2026-05-03T07:46:48.145Z</time></trkpt><trkpt lat="46.0178026" lon="13.4684576"><ele>81.0</ele><time>2026-05-03T07:46:49.145Z</time></trkpt><trkpt lat="46.0178387" lon="13.4685547"><ele>81.0</ele><time>2026-05-03T07:46:50.145Z</time></trkpt><trkpt lat="46.0178917" lon="13.468651"><ele>81.0</ele><time>2026-05-03T07:46:51.144Z</time></trkpt><trkpt lat="46.0179611" lon="13.4687431"><ele>80.0</ele><time>2026-05-03T07:46:52.144Z</time></trkpt><trkpt lat="46.0180119" lon="13.4688691"><ele>79.0</ele><time>2026-05-03T07:46:53.145Z</time></trkpt><trkpt lat="46.0180377" lon="13.4689845"><ele>78.0</ele><time>2026-05-03T07:46:54.145Z</time></trkpt><trkpt lat="46.0179956" lon="13.4691892"><ele>77.0</ele><time>2026-05-03T07:46:56.145Z</time></trkpt><trkpt lat="46.0179551" lon="13.4692828"><ele>76.0</ele><time>2026-05-03T07:46:57.144Z</time></trkpt><trkpt lat="46.0179126" lon="13.4693521"><ele>76.0</ele><time>2026-05-03T07:46:58.144Z</time></trkpt><trkpt lat="46.0178445" lon="13.4694301"><ele>76.0</ele><time>2026-05-03T07:47:00.145Z</time></trkpt><trkpt lat="46.0177513" lon="13.4694345"><ele>76.0</ele><time>2026-05-03T07:47:02.144Z</time></trkpt><trkpt lat="46.0176622" lon="13.4694009"><ele>76.0</ele><time>2026-05-03T07:47:03.144Z</time></trkpt><trkpt lat="46.0175766" lon="13.4693588"><ele>76.0</ele><time>2026-05-03T07:47:04.145Z</time></trkpt><trkpt lat="46.0174751" lon="13.4693177"><ele>75.75</ele><time>2026-05-03T07:47:05.145Z</time></trkpt><trkpt lat="46.0173618" lon="13.4692668"><ele>75.5</ele><time>2026-05-03T07:47:06.145Z</time></trkpt><trkpt lat="46.017242" lon="13.4692116"><ele>75.25</ele><time>2026-05-03T07:47:07.145Z</time></trkpt><trkpt lat="46.0171115" lon="13.4691445"><ele>75.0</ele><time>2026-05-03T07:47:08.145Z</time></trkpt><trkpt lat="46.0169594" lon="13.4690784"><ele>75.0</ele><time>2026-05-03T07:47:09.145Z</time></trkpt><trkpt lat="46.0168072" lon="13.4690102"><ele>75.0</ele><time>2026-05-03T07:47:10.145Z</time></trkpt><trkpt lat="46.0166565" lon="13.4689482"><ele>75.0</ele><time>2026-05-03T07:47:11.144Z</time></trkpt><trkpt lat="46.0165055" lon="13.4688797"><ele>74.66666666666667</ele><time>2026-05-03T07:47:12.144Z</time></trkpt><trkpt lat="46.0163553" lon="13.4688044"><ele>74.33333333333334</ele><time>2026-05-03T07:47:13.145Z</time></trkpt><trkpt lat="46.0162045" lon="13.4687235"><ele>74.0</ele><time>2026-05-03T07:47:14.145Z</time></trkpt><trkpt lat="46.0160559" lon="13.4686379"><ele>73.66666666666667</ele><time>2026-05-03T07:47:15.145Z</time></trkpt><trkpt lat="46.0159082" lon="13.4685372"><ele>73.33333333333333</ele><time>2026-05-03T07:47:16.145Z</time></trkpt><trkpt lat="46.0157655" lon="13.4684223"><ele>73.0</ele><time>2026-05-03T07:47:17.144Z</time></trkpt><trkpt lat="46.0156269" lon="13.4682907"><ele>73.0</ele><time>2026-05-03T07:47:18.145Z</time></trkpt><trkpt lat="46.0154889" lon="13.4681496"><ele>73.0</ele><time>2026-05-03T07:47:19.145Z</time></trkpt><trkpt lat="46.0153539" lon="13.4680033"><ele>73.0</ele><time>2026-05-03T07:47:20.144Z</time></trkpt><trkpt lat="46.0152161" lon="13.4678582"><ele>73.33333333333333</ele><time>2026-05-03T07:47:21.144Z</time></trkpt><trkpt lat="46.0150758" lon="13.467715"><ele>73.66666666666667</ele><time>2026-05-03T07:47:22.145Z</time></trkpt><trkpt lat="46.0149354" lon="13.4675822"><ele>74.0</ele><time>2026-05-03T07:47:23.145Z</time></trkpt><trkpt lat="46.0147952" lon="13.4674588"><ele>74.0</ele><time>2026-05-03T07:47:24.144Z</time></trkpt><trkpt lat="46.0146555" lon="13.4673542"><ele>74.0</ele><time>2026-05-03T07:47:25.145Z</time></trkpt><trkpt lat="46.0145078" lon="13.4672655"><ele>74.0</ele><time>2026-05-03T07:47:26.145Z</time></trkpt><trkpt lat="46.0143531" lon="13.4671892"><ele>74.0</ele><time>2026-05-03T07:47:27.144Z</time></trkpt><trkpt lat="46.0141969" lon="13.4671241"><ele>74.0</ele><time>2026-05-03T07:47:28.145Z</time></trkpt><trkpt lat="46.0140342" lon="13.4670658"><ele>74.0</ele><time>2026-05-03T07:47:29.145Z</time></trkpt><trkpt lat="46.0138713" lon="13.4670187"><ele>74.66666666666667</ele><time>2026-05-03T07:47:30.144Z</time></trkpt><trkpt lat="46.0137075" lon="13.4669782"><ele>75.33333333333333</ele><time>2026-05-03T07:47:31.145Z</time></trkpt><trkpt lat="46.0135409" lon="13.4669443"><ele>76.0</ele><time>2026-05-03T07:47:32.144Z</time></trkpt><trkpt lat="46.0133724" lon="13.466908"><ele>75.0</ele><time>2026-05-03T07:47:33.145Z</time></trkpt><trkpt lat="46.013207" lon="13.4668716"><ele>74.0</ele><time>2026-05-03T07:47:34.144Z</time></trkpt><trkpt lat="46.0130325" lon="13.466823"><ele>73.0</ele><time>2026-05-03T07:47:35.144Z</time></trkpt><trkpt lat="46.0128603" lon="13.46677"><ele>73.0</ele><time>2026-05-03T07:47:36.145Z</time></trkpt><trkpt lat="46.0126847" lon="13.4666929"><ele>73.0</ele><time>2026-05-03T07:47:37.145Z</time></trkpt><trkpt lat="46.0125163" lon="13.4665961"><ele>73.0</ele><time>2026-05-03T07:47:38.145Z</time></trkpt><trkpt lat="46.0123497" lon="13.4664841"><ele>72.66666666666666</ele><time>2026-05-03T07:47:39.145Z</time></trkpt><trkpt lat="46.0121824" lon="13.4663687"><ele>72.33333333333333</ele><time>2026-05-03T07:47:40.144Z</time></trkpt><trkpt lat="46.012008" lon="13.466255"><ele>72.0</ele><time>2026-05-03T07:47:41.145Z</time></trkpt><trkpt lat="46.0118302" lon="13.4661432"><ele>71.66666666666667</ele><time>2026-05-03T07:47:42.144Z</time></trkpt><trkpt lat="46.0116554" lon="13.4660297"><ele>71.33333333333334</ele><time>2026-05-03T07:47:43.144Z</time></trkpt><trkpt lat="46.0114783" lon="13.4659154"><ele>71.0</ele><time>2026-05-03T07:47:44.144Z</time></trkpt><trkpt lat="46.0113066" lon="13.4657994"><ele>71.0</ele><time>2026-05-03T07:47:45.143Z</time></trkpt><trkpt lat="46.0111376" lon="13.4656851"><ele>71.0</ele><time>2026-05-03T07:47:46.144Z</time></trkpt><trkpt lat="46.0109658" lon="13.4655737"><ele>71.0</ele><time>2026-05-03T07:47:47.144Z</time></trkpt><trkpt lat="46.0108009" lon="13.4654596"><ele>70.33333333333334</ele><time>2026-05-03T07:47:48.144Z</time></trkpt><trkpt lat="46.0106363" lon="13.4653492"><ele>69.66666666666667</ele><time>2026-05-03T07:47:49.143Z</time></trkpt><trkpt lat="46.0104711" lon="13.4652419"><ele>69.0</ele><time>2026-05-03T07:47:50.143Z</time></trkpt><trkpt lat="46.0103091" lon="13.4651336"><ele>69.0</ele><time>2026-05-03T07:47:51.144Z</time></trkpt><trkpt lat="46.0101483" lon="13.4650266"><ele>69.0</ele><time>2026-05-03T07:47:52.143Z</time></trkpt><trkpt lat="46.0099831" lon="13.4649208"><ele>69.0</ele><time>2026-05-03T07:47:53.143Z</time></trkpt><trkpt lat="46.0098216" lon="13.4648085"><ele>69.33333333333333</ele><time>2026-05-03T07:47:54.143Z</time></trkpt><trkpt lat="46.0096599" lon="13.4647"><ele>69.66666666666666</ele><time>2026-05-03T07:47:55.144Z</time></trkpt><trkpt lat="46.009501" lon="13.4645991"><ele>70.0</ele><time>2026-05-03T07:47:56.144Z</time></trkpt><trkpt lat="46.0093452" lon="13.4644976"><ele>69.66666666666666</ele><time>2026-05-03T07:47:57.144Z</time></trkpt><trkpt lat="46.0091897" lon="13.4643967"><ele>69.33333333333333</ele><time>2026-05-03T07:47:58.143Z</time></trkpt><trkpt lat="46.00904" lon="13.4642947"><ele>69.0</ele><time>2026-05-03T07:47:59.144Z</time></trkpt><trkpt lat="46.0088812" lon="13.4642081"><ele>69.0</ele><time>2026-05-03T07:48:00.144Z</time></trkpt><trkpt lat="46.0087164" lon="13.4641474"><ele>69.0</ele><time>2026-05-03T07:48:01.144Z</time></trkpt><trkpt lat="46.0085514" lon="13.4641252"><ele>69.0</ele><time>2026-05-03T07:48:02.143Z</time></trkpt><trkpt lat="46.0083796" lon="13.464135"><ele>68.66666666666667</ele><time>2026-05-03T07:48:03.144Z</time></trkpt><trkpt lat="46.0082128" lon="13.4641686"><ele>68.33333333333334</ele><time>2026-05-03T07:48:04.144Z</time></trkpt><trkpt lat="46.0080581" lon="13.4642314"><ele>68.0</ele><time>2026-05-03T07:48:05.144Z</time></trkpt><trkpt lat="46.0079104" lon="13.4643097"><ele>68.0</ele><time>2026-05-03T07:48:06.144Z</time></trkpt><trkpt lat="46.0077669" lon="13.4644134"><ele>68.0</ele><time>2026-05-03T07:48:07.144Z</time></trkpt><trkpt lat="46.0076322" lon="13.4645374"><ele>68.0</ele><time>2026-05-03T07:48:08.144Z</time></trkpt><trkpt lat="46.0074926" lon="13.4646603"><ele>69.0</ele><time>2026-05-03T07:48:09.143Z</time></trkpt><trkpt lat="46.0073589" lon="13.4647747"><ele>70.0</ele><time>2026-05-03T07:48:10.144Z</time></trkpt><trkpt lat="46.0072324" lon="13.4648857"><ele>71.0</ele><time>2026-05-03T07:48:11.144Z</time></trkpt><trkpt lat="46.0071153" lon="13.4649925"><ele>72.0</ele><time>2026-05-03T07:48:12.143Z</time></trkpt><trkpt lat="46.0070033" lon="13.4650946"><ele>72.0</ele><time>2026-05-03T07:48:13.144Z</time></trkpt><trkpt lat="46.0068936" lon="13.4651979"><ele>72.0</ele><time>2026-05-03T07:48:14.144Z</time></trkpt><trkpt lat="46.0067786" lon="13.4653033"><ele>72.0</ele><time>2026-05-03T07:48:15.143Z</time></trkpt><trkpt lat="46.0066607" lon="13.4654062"><ele>72.0</ele><time>2026-05-03T07:48:16.144Z</time></trkpt><trkpt lat="46.006544" lon="13.4655114"><ele>71.5</ele><time>2026-05-03T07:48:17.144Z</time></trkpt><trkpt lat="46.0064283" lon="13.4656194"><ele>71.0</ele><time>2026-05-03T07:48:18.144Z</time></trkpt><trkpt lat="46.0063208" lon="13.465731"><ele>70.5</ele><time>2026-05-03T07:48:19.144Z</time></trkpt><trkpt lat="46.0062225" lon="13.4658436"><ele>70.0</ele><time>2026-05-03T07:48:20.144Z</time></trkpt><trkpt lat="46.0061362" lon="13.4659577"><ele>70.0</ele><time>2026-05-03T07:48:21.144Z</time></trkpt><trkpt lat="46.006057" lon="13.4660604"><ele>70.0</ele><time>2026-05-03T07:48:22.144Z</time></trkpt><trkpt lat="46.0059912" lon="13.4661587"><ele>70.0</ele><time>2026-05-03T07:48:23.144Z</time></trkpt><trkpt lat="46.0059246" lon="13.4662527"><ele>70.0</ele><time>2026-05-03T07:48:24.144Z</time></trkpt><trkpt lat="46.0058724" lon="13.4663371"><ele>70.0</ele><time>2026-05-03T07:48:25.144Z</time></trkpt><trkpt lat="46.0058234" lon="13.466405"><ele>70.0</ele><time>2026-05-03T07:48:26.143Z</time></trkpt><trkpt lat="46.0057284" lon="13.4665168"><ele>71.5</ele><time>2026-05-03T07:48:28.143Z</time></trkpt><trkpt lat="46.0056696" lon="13.4665704"><ele>73.0</ele><time>2026-05-03T07:48:29.144Z</time></trkpt><trkpt lat="46.005603" lon="13.4666172"><ele>74.5</ele><time>2026-05-03T07:48:30.144Z</time></trkpt><trkpt lat="46.0055369" lon="13.4666531"><ele>76.0</ele><time>2026-05-03T07:48:31.144Z</time></trkpt><trkpt lat="46.0054531" lon="13.466658"><ele>77.5</ele><time>2026-05-03T07:48:32.143Z</time></trkpt><trkpt lat="46.0053592" lon="13.4666607"><ele>79.0</ele><time>2026-05-03T07:48:33.144Z</time></trkpt><trkpt lat="46.0052577" lon="13.4666611"><ele>79.0</ele><time>2026-05-03T07:48:34.144Z</time></trkpt><trkpt lat="46.0051498" lon="13.4666579"><ele>79.0</ele><time>2026-05-03T07:48:35.144Z</time></trkpt><trkpt lat="46.0050424" lon="13.4666569"><ele>79.0</ele><time>2026-05-03T07:48:36.144Z</time></trkpt><trkpt lat="46.0049327" lon="13.4666603"><ele>79.0</ele><time>2026-05-03T07:48:37.143Z</time></trkpt><trkpt lat="46.0048272" lon="13.4666593"><ele>79.0</ele><time>2026-05-03T07:48:38.143Z</time></trkpt><trkpt lat="46.0047231" lon="13.4666622"><ele>79.33333333333333</ele><time>2026-05-03T07:48:39.144Z</time></trkpt><trkpt lat="46.0046245" lon="13.4666628"><ele>79.66666666666666</ele><time>2026-05-03T07:48:40.144Z</time></trkpt><trkpt lat="46.0045323" lon="13.466661"><ele>80.0</ele><time>2026-05-03T07:48:41.144Z</time></trkpt><trkpt lat="46.0044522" lon="13.4666588"><ele>80.33333333333333</ele><time>2026-05-03T07:48:42.144Z</time></trkpt><trkpt lat="46.0043737" lon="13.4666603"><ele>80.66666666666667</ele><time>2026-05-03T07:48:43.143Z</time></trkpt><trkpt lat="46.0042943" lon="13.4666561"><ele>81.0</ele><time>2026-05-03T07:48:44.143Z</time></trkpt><trkpt lat="46.00421" lon="13.4666634"><ele>81.0</ele><time>2026-05-03T07:48:45.144Z</time></trkpt><trkpt lat="46.0041206" lon="13.4666692"><ele>81.0</ele><time>2026-05-03T07:48:46.144Z</time></trkpt><trkpt lat="46.0040334" lon="13.4666877"><ele>81.0</ele><time>2026-05-03T07:48:47.143Z</time></trkpt><trkpt lat="46.0039484" lon="13.4667308"><ele>81.0</ele><time>2026-05-03T07:48:48.143Z</time></trkpt><trkpt lat="46.0038759" lon="13.4667955"><ele>81.0</ele><time>2026-05-03T07:48:49.143Z</time></trkpt><trkpt lat="46.0038055" lon="13.4668828"><ele>81.0</ele><time>2026-05-03T07:48:50.144Z</time></trkpt><trkpt lat="46.0037439" lon="13.4669821"><ele>81.0</ele><time>2026-05-03T07:48:51.143Z</time></trkpt><trkpt lat="46.0036835" lon="13.4670949"><ele>81.0</ele><time>2026-05-03T07:48:52.143Z</time></trkpt><trkpt lat="46.0036339" lon="13.4672315"><ele>81.0</ele><time>2026-05-03T07:48:53.144Z</time></trkpt><trkpt lat="46.0035894" lon="13.4673802"><ele>81.0</ele><time>2026-05-03T07:48:54.144Z</time></trkpt><trkpt lat="46.0035508" lon="13.4675383"><ele>81.0</ele><time>2026-05-03T07:48:55.144Z</time></trkpt><trkpt lat="46.0035014" lon="13.467687"><ele>80.0</ele><time>2026-05-03T07:48:56.144Z</time></trkpt><trkpt lat="46.0034388" lon="13.4678216"><ele>79.0</ele><time>2026-05-03T07:48:57.143Z</time></trkpt><trkpt lat="46.0033683" lon="13.4679607"><ele>78.0</ele><time>2026-05-03T07:48:58.144Z</time></trkpt><trkpt lat="46.0032908" lon="13.4680883"><ele>77.0</ele><time>2026-05-03T07:48:59.143Z</time></trkpt><trkpt lat="46.0032064" lon="13.4682159"><ele>75.75</ele><time>2026-05-03T07:49:00.144Z</time></trkpt><trkpt lat="46.0031063" lon="13.4683476"><ele>74.5</ele><time>2026-05-03T07:49:01.144Z</time></trkpt><trkpt lat="46.0030046" lon="13.4684725"><ele>73.25</ele><time>2026-05-03T07:49:02.144Z</time></trkpt><trkpt lat="46.0029033" lon="13.4685851"><ele>72.0</ele><time>2026-05-03T07:49:03.144Z</time></trkpt><trkpt lat="46.0027974" lon="13.4686926"><ele>71.5</ele><time>2026-05-03T07:49:04.144Z</time></trkpt><trkpt lat="46.0026788" lon="13.4687904"><ele>71.0</ele><time>2026-05-03T07:49:05.143Z</time></trkpt><trkpt lat="46.0025509" lon="13.4688634"><ele>70.5</ele><time>2026-05-03T07:49:06.143Z</time></trkpt><trkpt lat="46.0024277" lon="13.468935"><ele>70.0</ele><time>2026-05-03T07:49:07.143Z</time></trkpt><trkpt lat="46.00231" lon="13.4689955"><ele>70.0</ele><time>2026-05-03T07:49:08.144Z</time></trkpt><trkpt lat="46.0021977" lon="13.4690585"><ele>70.0</ele><time>2026-05-03T07:49:09.144Z</time></trkpt><trkpt lat="46.0020869" lon="13.4691193"><ele>70.0</ele><time>2026-05-03T07:49:10.144Z</time></trkpt><trkpt lat="46.0019781" lon="13.4691752"><ele>70.0</ele><time>2026-05-03T07:49:11.144Z</time></trkpt><trkpt lat="46.001866" lon="13.4692317"><ele>70.0</ele><time>2026-05-03T07:49:12.143Z</time></trkpt><trkpt lat="46.0017476" lon="13.4692907"><ele>70.0</ele><time>2026-05-03T07:49:13.144Z</time></trkpt><trkpt lat="46.0016259" lon="13.4693411"><ele>70.0</ele><time>2026-05-03T07:49:14.144Z</time></trkpt><trkpt lat="46.0014946" lon="13.4693762"><ele>70.0</ele><time>2026-05-03T07:49:15.143Z</time></trkpt><trkpt lat="46.0013513" lon="13.4693809"><ele>69.33333333333333</ele><time>2026-05-03T07:49:16.144Z</time></trkpt><trkpt lat="46.0011965" lon="13.46938"><ele>68.66666666666667</ele><time>2026-05-03T07:49:17.144Z</time></trkpt><trkpt lat="46.0010427" lon="13.4693666"><ele>68.0</ele><time>2026-05-03T07:49:18.144Z</time></trkpt><trkpt lat="46.0008918" lon="13.4693269"><ele>68.66666666666667</ele><time>2026-05-03T07:49:19.144Z</time></trkpt><trkpt lat="46.0007428" lon="13.4692769"><ele>69.33333333333333</ele><time>2026-05-03T07:49:20.144Z</time></trkpt><trkpt lat="46.000587" lon="13.4692136"><ele>70.0</ele><time>2026-05-03T07:49:21.144Z</time></trkpt><trkpt lat="46.0004367" lon="13.4691526"><ele>70.0</ele><time>2026-05-03T07:49:22.144Z</time></trkpt><trkpt lat="46.0002827" lon="13.4690972"><ele>70.0</ele><time>2026-05-03T07:49:23.143Z</time></trkpt><trkpt lat="46.0001253" lon="13.46904"><ele>70.0</ele><time>2026-05-03T07:49:24.144Z</time></trkpt><trkpt lat="45.9999686" lon="13.4689847"><ele>70.0</ele><time>2026-05-03T07:49:25.144Z</time></trkpt><trkpt lat="45.9998079" lon="13.4689304"><ele>70.0</ele><time>2026-05-03T07:49:26.144Z</time></trkpt><trkpt lat="45.9996465" lon="13.4688734"><ele>70.0</ele><time>2026-05-03T07:49:27.144Z</time></trkpt><trkpt lat="45.9994861" lon="13.4688157"><ele>68.66666666666666</ele><time>2026-05-03T07:49:28.144Z</time></trkpt><trkpt lat="45.9993273" lon="13.4687577"><ele>67.33333333333333</ele><time>2026-05-03T07:49:29.143Z</time></trkpt><trkpt lat="45.9991731" lon="13.468698"><ele>66.0</ele><time>2026-05-03T07:49:30.143Z</time></trkpt><trkpt lat="45.9990175" lon="13.4686344"><ele>66.0</ele><time>2026-05-03T07:49:31.144Z</time></trkpt><trkpt lat="45.9988645" lon="13.4685831"><ele>66.0</ele><time>2026-05-03T07:49:32.144Z</time></trkpt><trkpt lat="45.9987029" lon="13.4685392"><ele>66.0</ele><time>2026-05-03T07:49:33.144Z</time></trkpt><trkpt lat="45.9985427" lon="13.4685192"><ele>66.0</ele><time>2026-05-03T07:49:34.144Z</time></trkpt><trkpt lat="45.9983812" lon="13.4685163"><ele>66.0</ele><time>2026-05-03T07:49:35.144Z</time></trkpt><trkpt lat="45.9982211" lon="13.4685319"><ele>66.0</ele><time>2026-05-03T07:49:36.144Z</time></trkpt><trkpt lat="45.9980651" lon="13.4685681"><ele>66.66666666666667</ele><time>2026-05-03T07:49:37.144Z</time></trkpt><trkpt lat="45.9979136" lon="13.4686195"><ele>67.33333333333334</ele><time>2026-05-03T07:49:38.144Z</time></trkpt><trkpt lat="45.9977577" lon="13.4686758"><ele>68.0</ele><time>2026-05-03T07:49:39.144Z</time></trkpt><trkpt lat="45.9976042" lon="13.4687336"><ele>67.33333333333334</ele><time>2026-05-03T07:49:40.144Z</time></trkpt><trkpt lat="45.9974459" lon="13.4687711"><ele>66.66666666666667</ele><time>2026-05-03T07:49:41.144Z</time></trkpt><trkpt lat="45.9972805" lon="13.4687728"><ele>66.0</ele><time>2026-05-03T07:49:42.143Z</time></trkpt><trkpt lat="45.9971211" lon="13.468755"><ele>66.0</ele><time>2026-05-03T07:49:43.144Z</time></trkpt><trkpt lat="45.9969625" lon="13.4687286"><ele>66.0</ele><time>2026-05-03T07:49:44.144Z</time></trkpt><trkpt lat="45.9967989" lon="13.4686712"><ele>66.0</ele><time>2026-05-03T07:49:45.144Z</time></trkpt><trkpt lat="45.996638" lon="13.4686243"><ele>66.33333333333333</ele><time>2026-05-03T07:49:46.144Z</time></trkpt><trkpt lat="45.9964783" lon="13.4685821"><ele>66.66666666666666</ele><time>2026-05-03T07:49:47.143Z</time></trkpt><trkpt lat="45.9963215" lon="13.4685444"><ele>67.0</ele><time>2026-05-03T07:49:48.143Z</time></trkpt><trkpt lat="45.996165" lon="13.4685123"><ele>67.0</ele><time>2026-05-03T07:49:49.144Z</time></trkpt><trkpt lat="45.9960148" lon="13.468498"><ele>67.0</ele><time>2026-05-03T07:49:50.144Z</time></trkpt><trkpt lat="45.9958634" lon="13.4684691"><ele>67.0</ele><time>2026-05-03T07:49:51.144Z</time></trkpt><trkpt lat="45.9957052" lon="13.4684371"><ele>68.33333333333333</ele><time>2026-05-03T07:49:52.144Z</time></trkpt><trkpt lat="45.9955447" lon="13.4684112"><ele>69.66666666666667</ele><time>2026-05-03T07:49:53.143Z</time></trkpt><trkpt lat="45.9953806" lon="13.4683906"><ele>71.0</ele><time>2026-05-03T07:49:54.144Z</time></trkpt><trkpt lat="45.9952109" lon="13.4683664"><ele>71.0</ele><time>2026-05-03T07:49:55.143Z</time></trkpt><trkpt lat="45.9950445" lon="13.4683402"><ele>71.0</ele><time>2026-05-03T07:49:56.144Z</time></trkpt><trkpt lat="45.9948799" lon="13.4683001"><ele>71.0</ele><time>2026-05-03T07:49:57.144Z</time></trkpt><trkpt lat="45.994722" lon="13.4682618"><ele>71.66666666666667</ele><time>2026-05-03T07:49:58.144Z</time></trkpt><trkpt lat="45.9945658" lon="13.4682217"><ele>72.33333333333333</ele><time>2026-05-03T07:49:59.144Z</time></trkpt><trkpt lat="45.9944114" lon="13.4681844"><ele>73.0</ele><time>2026-05-03T07:50:00.144Z</time></trkpt><trkpt lat="45.9942581" lon="13.4681396"><ele>72.5</ele><time>2026-05-03T07:50:01.144Z</time></trkpt><trkpt lat="45.9941054" lon="13.4680956"><ele>72.0</ele><time>2026-05-03T07:50:02.143Z</time></trkpt><trkpt lat="45.9939609" lon="13.4680589"><ele>71.5</ele><time>2026-05-03T07:50:03.144Z</time></trkpt><trkpt lat="45.9938247" lon="13.4680212"><ele>71.0</ele><time>2026-05-03T07:50:04.143Z</time></trkpt><trkpt lat="45.9936956" lon="13.4679876"><ele>71.0</ele><time>2026-05-03T07:50:05.144Z</time></trkpt><trkpt lat="45.9935637" lon="13.4679518"><ele>71.0</ele><time>2026-05-03T07:50:06.144Z</time></trkpt><trkpt lat="45.9934235" lon="13.4679161"><ele>71.0</ele><time>2026-05-03T07:50:07.144Z</time></trkpt><trkpt lat="45.9932901" lon="13.4678748"><ele>71.0</ele><time>2026-05-03T07:50:08.144Z</time></trkpt><trkpt lat="45.9931493" lon="13.4678295"><ele>69.75</ele><time>2026-05-03T07:50:09.143Z</time></trkpt><trkpt lat="45.9930153" lon="13.4677846"><ele>68.5</ele><time>2026-05-03T07:50:10.144Z</time></trkpt><trkpt lat="45.9928835" lon="13.4677405"><ele>67.25</ele><time>2026-05-03T07:50:11.144Z</time></trkpt><trkpt lat="45.9927598" lon="13.4676984"><ele>66.0</ele><time>2026-05-03T07:50:12.143Z</time></trkpt><trkpt lat="45.9926441" lon="13.4676522"><ele>66.0</ele><time>2026-05-03T07:50:13.143Z</time></trkpt><trkpt lat="45.9925307" lon="13.4676097"><ele>66.0</ele><time>2026-05-03T07:50:14.143Z</time></trkpt><trkpt lat="45.9924243" lon="13.4675735"><ele>66.0</ele><time>2026-05-03T07:50:15.144Z</time></trkpt><trkpt lat="45.9923319" lon="13.4675389"><ele>66.0</ele><time>2026-05-03T07:50:16.144Z</time></trkpt><trkpt lat="45.9922444" lon="13.4675045"><ele>66.0</ele><time>2026-05-03T07:50:17.144Z</time></trkpt><trkpt lat="45.9921711" lon="13.4674701"><ele>65.83333333333333</ele><time>2026-05-03T07:50:18.143Z</time></trkpt><trkpt lat="45.992105" lon="13.4674402"><ele>65.66666666666667</ele><time>2026-05-03T07:50:19.143Z</time></trkpt><trkpt lat="45.9919931" lon="13.4673728"><ele>65.5</ele><time>2026-05-03T07:50:21.144Z</time></trkpt><trkpt lat="45.9919549" lon="13.4672944"><ele>65.33333333333334</ele><time>2026-05-03T07:50:22.144Z</time></trkpt><trkpt lat="45.9919397" lon="13.4671915"><ele>65.16666666666667</ele><time>2026-05-03T07:50:23.144Z</time></trkpt><trkpt lat="45.9919417" lon="13.4670781"><ele>65.0</ele><time>2026-05-03T07:50:24.143Z</time></trkpt><trkpt lat="45.9919526" lon="13.4669574"><ele>64.6</ele><time>2026-05-03T07:50:25.144Z</time></trkpt><trkpt lat="45.9919669" lon="13.46682"><ele>64.2</ele><time>2026-05-03T07:50:26.144Z</time></trkpt><trkpt lat="45.991979" lon="13.4666631"><ele>63.8</ele><time>2026-05-03T07:50:27.144Z</time></trkpt><trkpt lat="45.9919891" lon="13.4664983"><ele>63.4</ele><time>2026-05-03T07:50:28.144Z</time></trkpt><trkpt lat="45.9920004" lon="13.4663395"><ele>63.0</ele><time>2026-05-03T07:50:29.144Z</time></trkpt><trkpt lat="45.9920135" lon="13.4661811"><ele>62.75</ele><time>2026-05-03T07:50:30.144Z</time></trkpt><trkpt lat="45.9920278" lon="13.4660183"><ele>62.5</ele><time>2026-05-03T07:50:31.143Z</time></trkpt><trkpt lat="45.9920415" lon="13.4658491"><ele>62.25</ele><time>2026-05-03T07:50:32.144Z</time></trkpt><trkpt lat="45.9920536" lon="13.4656768"><ele>62.0</ele><time>2026-05-03T07:50:33.144Z</time></trkpt><trkpt lat="45.9920582" lon="13.4655003"><ele>62.0</ele><time>2026-05-03T07:50:34.143Z</time></trkpt><trkpt lat="45.9920492" lon="13.4653276"><ele>62.0</ele><time>2026-05-03T07:50:35.143Z</time></trkpt><trkpt lat="45.9920231" lon="13.4651422"><ele>62.0</ele><time>2026-05-03T07:50:36.144Z</time></trkpt><trkpt lat="45.9919989" lon="13.4649541"><ele>62.0</ele><time>2026-05-03T07:50:37.143Z</time></trkpt><trkpt lat="45.9919715" lon="13.464766"><ele>62.75</ele><time>2026-05-03T07:50:38.143Z</time></trkpt><trkpt lat="45.9919379" lon="13.4645803"><ele>63.5</ele><time>2026-05-03T07:50:39.144Z</time></trkpt><trkpt lat="45.9918997" lon="13.4643943"><ele>64.25</ele><time>2026-05-03T07:50:40.144Z</time></trkpt><trkpt lat="45.9918592" lon="13.4642056"><ele>65.0</ele><time>2026-05-03T07:50:41.143Z</time></trkpt><trkpt lat="45.9918124" lon="13.4640162"><ele>65.0</ele><time>2026-05-03T07:50:42.143Z</time></trkpt><trkpt lat="45.9917811" lon="13.4638364"><ele>65.0</ele><time>2026-05-03T07:50:43.144Z</time></trkpt><trkpt lat="45.9917588" lon="13.4636819"><ele>65.0</ele><time>2026-05-03T07:50:44.143Z</time></trkpt><trkpt lat="45.9917332" lon="13.4635119"><ele>65.0</ele><time>2026-05-03T07:50:45.144Z</time></trkpt><trkpt lat="45.991709" lon="13.4633556"><ele>65.2</ele><time>2026-05-03T07:50:46.144Z</time></trkpt><trkpt lat="45.9916853" lon="13.4632136"><ele>65.4</ele><time>2026-05-03T07:50:47.144Z</time></trkpt><trkpt lat="45.9916609" lon="13.463071"><ele>65.6</ele><time>2026-05-03T07:50:48.144Z</time></trkpt><trkpt lat="45.9916324" lon="13.4629332"><ele>65.8</ele><time>2026-05-03T07:50:49.144Z</time></trkpt><trkpt lat="45.9916154" lon="13.4628141"><ele>66.0</ele><time>2026-05-03T07:50:50.144Z</time></trkpt><trkpt lat="45.9916223" lon="13.4627125"><ele>66.39999999999999</ele><time>2026-05-03T07:50:51.144Z</time></trkpt><trkpt lat="45.9916584" lon="13.462635"><ele>66.8</ele><time>2026-05-03T07:50:52.144Z</time></trkpt><trkpt lat="45.9917306" lon="13.4625885"><ele>67.19999999999999</ele><time>2026-05-03T07:50:53.143Z</time></trkpt><trkpt lat="45.9918166" lon="13.4625469"><ele>67.6</ele><time>2026-05-03T07:50:54.143Z</time></trkpt><trkpt lat="45.9919144" lon="13.462495"><ele>68.0</ele><time>2026-05-03T07:50:55.144Z</time></trkpt><trkpt lat="45.9920236" lon="13.4624419"><ele>68.0</ele><time>2026-05-03T07:50:56.144Z</time></trkpt><trkpt lat="45.9921382" lon="13.4623646"><ele>68.0</ele><time>2026-05-03T07:50:57.144Z</time></trkpt><trkpt lat="45.9922511" lon="13.462279"><ele>68.0</ele><time>2026-05-03T07:50:58.143Z</time></trkpt><trkpt lat="45.9923671" lon="13.4621899"><ele>68.0</ele><time>2026-05-03T07:50:59.143Z</time></trkpt><trkpt lat="45.9924896" lon="13.4621009"><ele>68.25</ele><time>2026-05-03T07:51:00.144Z</time></trkpt><trkpt lat="45.9926158" lon="13.462012"><ele>68.5</ele><time>2026-05-03T07:51:01.144Z</time></trkpt><trkpt lat="45.9927421" lon="13.4619267"><ele>68.75</ele><time>2026-05-03T07:51:02.143Z</time></trkpt><trkpt lat="45.992864" lon="13.4618425"><ele>69.0</ele><time>2026-05-03T07:51:03.143Z</time></trkpt><trkpt lat="45.9929844" lon="13.4617594"><ele>69.0</ele><time>2026-05-03T07:51:04.144Z</time></trkpt><trkpt lat="45.9931086" lon="13.4616832"><ele>69.0</ele><time>2026-05-03T07:51:05.143Z</time></trkpt><trkpt lat="45.9932336" lon="13.4616061"><ele>69.0</ele><time>2026-05-03T07:51:06.144Z</time></trkpt><trkpt lat="45.9933612" lon="13.4615206"><ele>69.0</ele><time>2026-05-03T07:51:07.143Z</time></trkpt><trkpt lat="45.9934844" lon="13.4614368"><ele>69.0</ele><time>2026-05-03T07:51:08.144Z</time></trkpt><trkpt lat="45.9936025" lon="13.4613549"><ele>69.0</ele><time>2026-05-03T07:51:09.144Z</time></trkpt><trkpt lat="45.9937232" lon="13.4612775"><ele>69.0</ele><time>2026-05-03T07:51:10.143Z</time></trkpt><trkpt lat="45.9938486" lon="13.4611943"><ele>69.0</ele><time>2026-05-03T07:51:11.144Z</time></trkpt><trkpt lat="45.9939666" lon="13.4611092"><ele>69.5</ele><time>2026-05-03T07:51:12.144Z</time></trkpt><trkpt lat="45.9940842" lon="13.4610233"><ele>70.0</ele><time>2026-05-03T07:51:13.144Z</time></trkpt><trkpt lat="45.9941983" lon="13.46094"><ele>70.5</ele><time>2026-05-03T07:51:14.143Z</time></trkpt><trkpt lat="45.9943079" lon="13.4608586"><ele>71.0</ele><time>2026-05-03T07:51:15.144Z</time></trkpt><trkpt lat="45.9944152" lon="13.4607804"><ele>71.0</ele><time>2026-05-03T07:51:16.143Z</time></trkpt><trkpt lat="45.9945204" lon="13.460708"><ele>71.0</ele><time>2026-05-03T07:51:17.144Z</time></trkpt><trkpt lat="45.9946204" lon="13.4606487"><ele>71.0</ele><time>2026-05-03T07:51:18.144Z</time></trkpt><trkpt lat="45.9947173" lon="13.4606011"><ele>71.0</ele><time>2026-05-03T07:51:19.144Z</time></trkpt><trkpt lat="45.9948124" lon="13.4605495"><ele>71.0</ele><time>2026-05-03T07:51:20.144Z</time></trkpt><trkpt lat="45.9949096" lon="13.4604883"><ele>72.2</ele><time>2026-05-03T07:51:21.144Z</time></trkpt><trkpt lat="45.9950067" lon="13.4604152"><ele>73.39999999999999</ele><time>2026-05-03T07:51:22.143Z</time></trkpt><trkpt lat="45.9950923" lon="13.460342"><ele>74.6</ele><time>2026-05-03T07:51:23.144Z</time></trkpt><trkpt lat="45.9951834" lon="13.4602638"><ele>75.8</ele><time>2026-05-03T07:51:24.143Z</time></trkpt><trkpt lat="45.9952707" lon="13.4601743"><ele>77.0</ele><time>2026-05-03T07:51:25.144Z</time></trkpt><trkpt lat="45.9953564" lon="13.4600991"><ele>77.0</ele><time>2026-05-03T07:51:26.143Z</time></trkpt><trkpt lat="45.9954313" lon="13.4600215"><ele>77.0</ele><time>2026-05-03T07:51:27.143Z</time></trkpt><trkpt lat="45.9955126" lon="13.4599331"><ele>77.0</ele><time>2026-05-03T07:51:28.144Z</time></trkpt><trkpt lat="45.9955842" lon="13.4598341"><ele>77.0</ele><time>2026-05-03T07:51:29.143Z</time></trkpt><trkpt lat="45.9956526" lon="13.4597376"><ele>77.0</ele><time>2026-05-03T07:51:30.144Z</time></trkpt><trkpt lat="45.9957094" lon="13.4596336"><ele>77.5</ele><time>2026-05-03T07:51:31.144Z</time></trkpt><trkpt lat="45.9957544" lon="13.4595335"><ele>78.0</ele><time>2026-05-03T07:51:32.144Z</time></trkpt><trkpt lat="45.9957836" lon="13.4594314"><ele>78.5</ele><time>2026-05-03T07:51:33.143Z</time></trkpt><trkpt lat="45.9957926" lon="13.4593219"><ele>79.0</ele><time>2026-05-03T07:51:34.144Z</time></trkpt><trkpt lat="45.9957788" lon="13.4592013"><ele>79.5</ele><time>2026-05-03T07:51:35.144Z</time></trkpt><trkpt lat="45.9957496" lon="13.4590715"><ele>80.0</ele><time>2026-05-03T07:51:36.144Z</time></trkpt><trkpt lat="45.9957065" lon="13.4589372"><ele>80.0</ele><time>2026-05-03T07:51:37.144Z</time></trkpt><trkpt lat="45.9956638" lon="13.4587924"><ele>80.0</ele><time>2026-05-03T07:51:38.144Z</time></trkpt><trkpt lat="45.9956202" lon="13.4586428"><ele>80.0</ele><time>2026-05-03T07:51:39.144Z</time></trkpt><trkpt lat="45.995584" lon="13.458487"><ele>80.0</ele><time>2026-05-03T07:51:40.144Z</time></trkpt><trkpt lat="45.9955428" lon="13.4583357"><ele>80.0</ele><time>2026-05-03T07:51:41.143Z</time></trkpt><trkpt lat="45.9954983" lon="13.4581828"><ele>80.0</ele><time>2026-05-03T07:51:42.142Z</time></trkpt><trkpt lat="45.9954538" lon="13.4580349"><ele>80.0</ele><time>2026-05-03T07:51:43.143Z</time></trkpt><trkpt lat="45.9954134" lon="13.4578957"><ele>80.0</ele><time>2026-05-03T07:51:44.143Z</time></trkpt><trkpt lat="45.9953838" lon="13.457752"><ele>80.0</ele><time>2026-05-03T07:51:45.142Z</time></trkpt><trkpt lat="45.9953594" lon="13.4576008"><ele>80.0</ele><time>2026-05-03T07:51:46.143Z</time></trkpt><trkpt lat="45.9953256" lon="13.4574568"><ele>80.0</ele><time>2026-05-03T07:51:47.143Z</time></trkpt><trkpt lat="45.9952841" lon="13.4573129"><ele>80.0</ele><time>2026-05-03T07:51:48.142Z</time></trkpt><trkpt lat="45.9952414" lon="13.4571598"><ele>80.0</ele><time>2026-05-03T07:51:49.143Z</time></trkpt><trkpt lat="45.9951998" lon="13.4569961"><ele>80.0</ele><time>2026-05-03T07:51:50.142Z</time></trkpt><trkpt lat="45.9951597" lon="13.4568419"><ele>79.5</ele><time>2026-05-03T07:51:51.142Z</time></trkpt><trkpt lat="45.9951271" lon="13.4566839"><ele>79.0</ele><time>2026-05-03T07:51:52.143Z</time></trkpt><trkpt lat="45.9950969" lon="13.4565205"><ele>78.5</ele><time>2026-05-03T07:51:53.143Z</time></trkpt><trkpt lat="45.9950796" lon="13.4563439"><ele>78.0</ele><time>2026-05-03T07:51:54.143Z</time></trkpt><trkpt lat="45.9950795" lon="13.4561688"><ele>78.0</ele><time>2026-05-03T07:51:55.143Z</time></trkpt><trkpt lat="45.9950835" lon="13.4560121"><ele>78.0</ele><time>2026-05-03T07:51:56.142Z</time></trkpt><trkpt lat="45.9950901" lon="13.4558629"><ele>78.0</ele><time>2026-05-03T07:51:57.143Z</time></trkpt><trkpt lat="45.9950942" lon="13.4556974"><ele>78.0</ele><time>2026-05-03T07:51:58.142Z</time></trkpt><trkpt lat="45.9951033" lon="13.4555335"><ele>78.0</ele><time>2026-05-03T07:51:59.143Z</time></trkpt><trkpt lat="45.9951161" lon="13.4553664"><ele>78.25</ele><time>2026-05-03T07:52:00.143Z</time></trkpt><trkpt lat="45.9951301" lon="13.4551815"><ele>78.5</ele><time>2026-05-03T07:52:01.143Z</time></trkpt><trkpt lat="45.9951424" lon="13.4549978"><ele>78.75</ele><time>2026-05-03T07:52:02.143Z</time></trkpt><trkpt lat="45.995158" lon="13.4548205"><ele>79.0</ele><time>2026-05-03T07:52:03.142Z</time></trkpt><trkpt lat="45.9951793" lon="13.4546405"><ele>79.0</ele><time>2026-05-03T07:52:04.143Z</time></trkpt><trkpt lat="45.99521" lon="13.4544613"><ele>79.0</ele><time>2026-05-03T07:52:05.142Z</time></trkpt><trkpt lat="45.9952378" lon="13.4542806"><ele>79.0</ele><time>2026-05-03T07:52:06.142Z</time></trkpt><trkpt lat="45.9952578" lon="13.4540894"><ele>79.0</ele><time>2026-05-03T07:52:07.142Z</time></trkpt><trkpt lat="45.9952786" lon="13.4539002"><ele>79.0</ele><time>2026-05-03T07:52:08.143Z</time></trkpt><trkpt lat="45.9952999" lon="13.4537136"><ele>79.0</ele><time>2026-05-03T07:52:09.143Z</time></trkpt><trkpt lat="45.9953212" lon="13.4535338"><ele>79.0</ele><time>2026-05-03T07:52:10.143Z</time></trkpt><trkpt lat="45.9953392" lon="13.4533655"><ele>79.0</ele><time>2026-05-03T07:52:11.143Z</time></trkpt><trkpt lat="45.9953601" lon="13.4531982"><ele>79.0</ele><time>2026-05-03T07:52:12.143Z</time></trkpt><trkpt lat="45.9953819" lon="13.4530339"><ele>79.0</ele><time>2026-05-03T07:52:13.143Z</time></trkpt><trkpt lat="45.995402" lon="13.4528728"><ele>79.0</ele><time>2026-05-03T07:52:14.143Z</time></trkpt><trkpt lat="45.9954119" lon="13.4527315"><ele>79.0</ele><time>2026-05-03T07:52:15.143Z</time></trkpt><trkpt lat="45.9954145" lon="13.4525825"><ele>79.0</ele><time>2026-05-03T07:52:16.143Z</time></trkpt><trkpt lat="45.995406" lon="13.4524272"><ele>79.16666666666666</ele><time>2026-05-03T07:52:17.142Z</time></trkpt><trkpt lat="45.9953906" lon="13.4522863"><ele>79.33333333333333</ele><time>2026-05-03T07:52:18.143Z</time></trkpt><trkpt lat="45.9953742" lon="13.4521577"><ele>79.5</ele><time>2026-05-03T07:52:19.143Z</time></trkpt><trkpt lat="45.9953678" lon="13.4520467"><ele>79.66666666666667</ele><time>2026-05-03T07:52:20.142Z</time></trkpt><trkpt lat="45.9953658" lon="13.4519508"><ele>79.83333333333334</ele><time>2026-05-03T07:52:21.142Z</time></trkpt><trkpt lat="45.995409" lon="13.4518448"><ele>80.0</ele><time>2026-05-03T07:52:23.143Z</time></trkpt><trkpt lat="45.9955211" lon="13.4518304"><ele>80.0</ele><time>2026-05-03T07:52:25.143Z</time></trkpt><trkpt lat="45.9955982" lon="13.4518292"><ele>80.0</ele><time>2026-05-03T07:52:26.143Z</time></trkpt><trkpt lat="45.9956861" lon="13.4518224"><ele>80.0</ele><time>2026-05-03T07:52:27.143Z</time></trkpt><trkpt lat="45.9957611" lon="13.4518283"><ele>80.0</ele><time>2026-05-03T07:52:28.143Z</time></trkpt><trkpt lat="45.9958275" lon="13.4518567"><ele>80.0</ele><time>2026-05-03T07:52:29.143Z</time></trkpt><trkpt lat="45.9958907" lon="13.4519026"><ele>80.0</ele><time>2026-05-03T07:52:30.142Z</time></trkpt><trkpt lat="45.9959656" lon="13.4519687"><ele>80.4</ele><time>2026-05-03T07:52:31.142Z</time></trkpt><trkpt lat="45.996047" lon="13.4520457"><ele>80.8</ele><time>2026-05-03T07:52:32.143Z</time></trkpt><trkpt lat="45.9961306" lon="13.4521248"><ele>81.19999999999999</ele><time>2026-05-03T07:52:33.143Z</time></trkpt><trkpt lat="45.9962088" lon="13.4521978"><ele>81.6</ele><time>2026-05-03T07:52:34.142Z</time></trkpt><trkpt lat="45.9962961" lon="13.4522622"><ele>82.0</ele><time>2026-05-03T07:52:35.143Z</time></trkpt><trkpt lat="45.9963823" lon="13.4523223"><ele>82.0</ele><time>2026-05-03T07:52:36.142Z</time></trkpt><trkpt lat="45.9964578" lon="13.4523752"><ele>82.0</ele><time>2026-05-03T07:52:37.143Z</time></trkpt><trkpt lat="45.9965264" lon="13.4524334"><ele>82.0</ele><time>2026-05-03T07:52:38.142Z</time></trkpt><trkpt lat="45.9965972" lon="13.4524741"><ele>82.0</ele><time>2026-05-03T07:52:39.143Z</time></trkpt><trkpt lat="45.9966664" lon="13.4525215"><ele>82.0</ele><time>2026-05-03T07:52:40.142Z</time></trkpt><trkpt lat="45.9967382" lon="13.4525702"><ele>82.0</ele><time>2026-05-03T07:52:41.143Z</time></trkpt><trkpt lat="45.9968025" lon="13.4526109"><ele>81.83333333333333</ele><time>2026-05-03T07:52:42.143Z</time></trkpt><trkpt lat="45.9968709" lon="13.4526595"><ele>81.66666666666666</ele><time>2026-05-03T07:52:43.143Z</time></trkpt><trkpt lat="45.9969467" lon="13.452703"><ele>81.5</ele><time>2026-05-03T07:52:44.143Z</time></trkpt><trkpt lat="45.9970211" lon="13.4527298"><ele>81.33333333333333</ele><time>2026-05-03T07:52:45.142Z</time></trkpt><trkpt lat="45.9970955" lon="13.452746"><ele>81.16666666666667</ele><time>2026-05-03T07:52:46.142Z</time></trkpt><trkpt lat="45.9971736" lon="13.4527564"><ele>81.0</ele><time>2026-05-03T07:52:47.142Z</time></trkpt><trkpt lat="45.99726" lon="13.4527803"><ele>81.0</ele><time>2026-05-03T07:52:48.142Z</time></trkpt><trkpt lat="45.9973428" lon="13.4528164"><ele>81.0</ele><time>2026-05-03T07:52:49.142Z</time></trkpt><trkpt lat="45.9974105" lon="13.4528439"><ele>81.0</ele><time>2026-05-03T07:52:50.142Z</time></trkpt><trkpt lat="45.9974723" lon="13.4528687"><ele>81.0</ele><time>2026-05-03T07:52:51.143Z</time></trkpt><trkpt lat="45.9975738" lon="13.4529009"><ele>81.0</ele><time>2026-05-03T07:52:53.143Z</time></trkpt><trkpt lat="45.9976577" lon="13.4528307"><ele>81.0</ele><time>2026-05-03T07:52:55.142Z</time></trkpt><trkpt lat="45.9977337" lon="13.4526916"><ele>81.19999999999999</ele><time>2026-05-03T07:52:57.143Z</time></trkpt><trkpt lat="45.9977807" lon="13.4525663"><ele>81.39999999999999</ele><time>2026-05-03T07:52:59.143Z</time></trkpt><trkpt lat="45.997818" lon="13.4524367"><ele>81.6</ele><time>2026-05-03T07:53:01.143Z</time></trkpt><trkpt lat="45.9978595" lon="13.4522794"><ele>81.8</ele><time>2026-05-03T07:53:03.142Z</time></trkpt><trkpt lat="45.9978705" lon="13.4521185"><ele>82.0</ele><time>2026-05-03T07:53:05.143Z</time></trkpt><trkpt lat="45.9978676" lon="13.4519552"><ele>82.5</ele><time>2026-05-03T07:53:07.142Z</time></trkpt><trkpt lat="45.9978644" lon="13.4517843"><ele>83.0</ele><time>2026-05-03T07:53:09.143Z</time></trkpt><trkpt lat="45.9978709" lon="13.4516156"><ele>83.5</ele><time>2026-05-03T07:53:11.142Z</time></trkpt><trkpt lat="45.9978699" lon="13.451523"><ele>84.0</ele><time>2026-05-03T07:53:12.143Z</time></trkpt><trkpt lat="45.9978726" lon="13.4514226"><ele>84.5</ele><time>2026-05-03T07:53:13.142Z</time></trkpt><trkpt lat="45.997872" lon="13.4513206"><ele>85.0</ele><time>2026-05-03T07:53:14.143Z</time></trkpt><trkpt lat="45.9978676" lon="13.4512277"><ele>86.0</ele><time>2026-05-03T07:53:15.142Z</time></trkpt><trkpt lat="45.9978499" lon="13.4510613"><ele>87.0</ele><time>2026-05-03T07:53:17.143Z</time></trkpt><trkpt lat="45.9978331" lon="13.4508931"><ele>88.0</ele><time>2026-05-03T07:53:19.143Z</time></trkpt><trkpt lat="45.9978046" lon="13.450744"><ele>89.0</ele><time>2026-05-03T07:53:21.143Z</time></trkpt><trkpt lat="45.9977962" lon="13.4505942"><ele>90.0</ele><time>2026-05-03T07:53:23.142Z</time></trkpt><trkpt lat="45.9977955" lon="13.4505007"><ele>90.83333333333333</ele><time>2026-05-03T07:53:24.143Z</time></trkpt><trkpt lat="45.9977926" lon="13.4504083"><ele>91.66666666666667</ele><time>2026-05-03T07:53:25.142Z</time></trkpt><trkpt lat="45.9977919" lon="13.4503141"><ele>92.5</ele><time>2026-05-03T07:53:26.142Z</time></trkpt><trkpt lat="45.9977952" lon="13.450143"><ele>93.33333333333334</ele><time>2026-05-03T07:53:28.143Z</time></trkpt><trkpt lat="45.9978111" lon="13.450014"><ele>94.16666666666667</ele><time>2026-05-03T07:53:30.143Z</time></trkpt><trkpt lat="45.9978646" lon="13.4499402"><ele>95.0</ele><time>2026-05-03T07:53:32.142Z</time></trkpt><trkpt lat="45.99796" lon="13.4498534"><ele>95.0</ele><time>2026-05-03T07:53:34.143Z</time></trkpt><trkpt lat="45.9980563" lon="13.4497388"><ele>95.0</ele><time>2026-05-03T07:53:36.143Z</time></trkpt><trkpt lat="45.9981094" lon="13.4496711"><ele>95.0</ele><time>2026-05-03T07:53:37.143Z</time></trkpt><trkpt lat="45.9981654" lon="13.449601"><ele>95.0</ele><time>2026-05-03T07:53:38.143Z</time></trkpt><trkpt lat="45.9982255" lon="13.4495321"><ele>95.0</ele><time>2026-05-03T07:53:39.142Z</time></trkpt><trkpt lat="45.9982855" lon="13.4494516"><ele>95.0</ele><time>2026-05-03T07:53:40.143Z</time></trkpt><trkpt lat="45.9983445" lon="13.4493645"><ele>95.66666666666667</ele><time>2026-05-03T07:53:41.143Z</time></trkpt><trkpt lat="45.9984053" lon="13.4492843"><ele>96.33333333333334</ele><time>2026-05-03T07:53:42.142Z</time></trkpt><trkpt lat="45.9984725" lon="13.4492159"><ele>97.0</ele><time>2026-05-03T07:53:43.143Z</time></trkpt><trkpt lat="45.9985456" lon="13.4491654"><ele>97.66666666666667</ele><time>2026-05-03T07:53:44.143Z</time></trkpt><trkpt lat="45.9986219" lon="13.4491227"><ele>98.33333333333333</ele><time>2026-05-03T07:53:45.142Z</time></trkpt><trkpt lat="45.9987024" lon="13.4490836"><ele>99.0</ele><time>2026-05-03T07:53:46.143Z</time></trkpt><trkpt lat="45.998784" lon="13.4490501"><ele>99.0</ele><time>2026-05-03T07:53:47.143Z</time></trkpt><trkpt lat="45.9988562" lon="13.4490333"><ele>99.0</ele><time>2026-05-03T07:53:48.142Z</time></trkpt><trkpt lat="45.9989419" lon="13.4490615"><ele>99.0</ele><time>2026-05-03T07:53:50.143Z</time></trkpt><trkpt lat="45.9989893" lon="13.4491764"><ele>99.0</ele><time>2026-05-03T07:53:52.143Z</time></trkpt><trkpt lat="45.9991303" lon="13.4492267"><ele>99.0</ele><time>2026-05-03T07:53:54.143Z</time></trkpt><trkpt lat="45.9992423" lon="13.4492375"><ele>98.2</ele><time>2026-05-03T07:53:55.143Z</time></trkpt><trkpt lat="45.9993506" lon="13.4492537"><ele>97.4</ele><time>2026-05-03T07:53:56.142Z</time></trkpt><trkpt lat="45.9994419" lon="13.449267"><ele>96.6</ele><time>2026-05-03T07:53:57.143Z</time></trkpt><trkpt lat="45.9995385" lon="13.4493085"><ele>95.8</ele><time>2026-05-03T07:53:58.143Z</time></trkpt><trkpt lat="45.999629" lon="13.44939"><ele>95.0</ele><time>2026-05-03T07:53:59.143Z</time></trkpt><trkpt lat="45.9997152" lon="13.4494976"><ele>95.0</ele><time>2026-05-03T07:54:00.143Z</time></trkpt><trkpt lat="45.9997942" lon="13.4496023"><ele>95.0</ele><time>2026-05-03T07:54:01.142Z</time></trkpt><trkpt lat="45.9998764" lon="13.4497054"><ele>95.0</ele><time>2026-05-03T07:54:02.143Z</time></trkpt><trkpt lat="45.9999677" lon="13.4498002"><ele>95.0</ele><time>2026-05-03T07:54:03.143Z</time></trkpt><trkpt lat="46.00006" lon="13.4498741"><ele>95.0</ele><time>2026-05-03T07:54:04.143Z</time></trkpt><trkpt lat="46.0001632" lon="13.4499364"><ele>95.25</ele><time>2026-05-03T07:54:05.143Z</time></trkpt><trkpt lat="46.0002746" lon="13.4499764"><ele>95.5</ele><time>2026-05-03T07:54:06.143Z</time></trkpt><trkpt lat="46.0003839" lon="13.4500005"><ele>95.75</ele><time>2026-05-03T07:54:07.143Z</time></trkpt><trkpt lat="46.0004998" lon="13.4500105"><ele>96.0</ele><time>2026-05-03T07:54:08.142Z</time></trkpt><trkpt lat="46.00061" lon="13.4500146"><ele>96.0</ele><time>2026-05-03T07:54:09.142Z</time></trkpt><trkpt lat="46.0007088" lon="13.4500155"><ele>96.0</ele><time>2026-05-03T07:54:10.143Z</time></trkpt><trkpt lat="46.0008026" lon="13.449997"><ele>96.0</ele><time>2026-05-03T07:54:11.142Z</time></trkpt><trkpt lat="46.0009015" lon="13.4499598"><ele>96.0</ele><time>2026-05-03T07:54:12.143Z</time></trkpt><trkpt lat="46.0009973" lon="13.4499073"><ele>96.0</ele><time>2026-05-03T07:54:13.143Z</time></trkpt><trkpt lat="46.0010769" lon="13.4498379"><ele>96.33333333333333</ele><time>2026-05-03T07:54:14.143Z</time></trkpt><trkpt lat="46.0011458" lon="13.4497758"><ele>96.66666666666666</ele><time>2026-05-03T07:54:15.143Z</time></trkpt><trkpt lat="46.0011976" lon="13.4497228"><ele>97.0</ele><time>2026-05-03T07:54:16.143Z</time></trkpt><trkpt lat="46.0012534" lon="13.4496668"><ele>97.33333333333333</ele><time>2026-05-03T07:54:18.142Z</time></trkpt><trkpt lat="46.0012829" lon="13.4495537"><ele>97.66666666666666</ele><time>2026-05-03T07:54:21.143Z</time></trkpt><trkpt lat="46.0012726" lon="13.4494414"><ele>98.0</ele><time>2026-05-03T07:54:22.143Z</time></trkpt><trkpt lat="46.0012628" lon="13.4493306"><ele>98.0</ele><time>2026-05-03T07:54:23.143Z</time></trkpt><trkpt lat="46.0012643" lon="13.4492163"><ele>98.0</ele><time>2026-05-03T07:54:24.143Z</time></trkpt><trkpt lat="46.0012721" lon="13.44912"><ele>98.0</ele><time>2026-05-03T07:54:25.142Z</time></trkpt><trkpt lat="46.0012967" lon="13.4489414"><ele>98.0</ele><time>2026-05-03T07:54:27.143Z</time></trkpt><trkpt lat="46.0013243" lon="13.4488247"><ele>98.0</ele><time>2026-05-03T07:54:28.143Z</time></trkpt><trkpt lat="46.0013704" lon="13.44869"><ele>98.25</ele><time>2026-05-03T07:54:29.143Z</time></trkpt><trkpt lat="46.0014388" lon="13.4485539"><ele>98.5</ele><time>2026-05-03T07:54:30.142Z</time></trkpt><trkpt lat="46.0015277" lon="13.4484316"><ele>98.75</ele><time>2026-05-03T07:54:31.142Z</time></trkpt><trkpt lat="46.0016183" lon="13.4483204"><ele>99.0</ele><time>2026-05-03T07:54:32.142Z</time></trkpt><trkpt lat="46.0017065" lon="13.4482027"><ele>98.75</ele><time>2026-05-03T07:54:33.143Z</time></trkpt><trkpt lat="46.0017881" lon="13.4480829"><ele>98.5</ele><time>2026-05-03T07:54:34.142Z</time></trkpt><trkpt lat="46.0018562" lon="13.4479581"><ele>98.25</ele><time>2026-05-03T07:54:35.143Z</time></trkpt><trkpt lat="46.0019028" lon="13.447812"><ele>98.0</ele><time>2026-05-03T07:54:36.143Z</time></trkpt><trkpt lat="46.0019165" lon="13.4476466"><ele>98.0</ele><time>2026-05-03T07:54:37.143Z</time></trkpt><trkpt lat="46.0019064" lon="13.4474915"><ele>98.0</ele><time>2026-05-03T07:54:38.143Z</time></trkpt><trkpt lat="46.0018712" lon="13.4473294"><ele>98.0</ele><time>2026-05-03T07:54:39.142Z</time></trkpt><trkpt lat="46.0018031" lon="13.4471666"><ele>98.0</ele><time>2026-05-03T07:54:40.142Z</time></trkpt><trkpt lat="46.0017405" lon="13.4469986"><ele>97.0</ele><time>2026-05-03T07:54:41.143Z</time></trkpt><trkpt lat="46.0016718" lon="13.4468392"><ele>96.0</ele><time>2026-05-03T07:54:42.143Z</time></trkpt><trkpt lat="46.0016024" lon="13.4466766"><ele>95.0</ele><time>2026-05-03T07:54:43.143Z</time></trkpt><trkpt lat="46.0015356" lon="13.4465156"><ele>94.0</ele><time>2026-05-03T07:54:44.143Z</time></trkpt><trkpt lat="46.0014749" lon="13.4463444"><ele>93.75</ele><time>2026-05-03T07:54:45.143Z</time></trkpt><trkpt lat="46.0014238" lon="13.4461637"><ele>93.5</ele><time>2026-05-03T07:54:46.142Z</time></trkpt><trkpt lat="46.0013804" lon="13.4459792"><ele>93.25</ele><time>2026-05-03T07:54:47.143Z</time></trkpt><trkpt lat="46.0013366" lon="13.4457863"><ele>93.0</ele><time>2026-05-03T07:54:48.143Z</time></trkpt><trkpt lat="46.0012911" lon="13.4455862"><ele>92.33333333333333</ele><time>2026-05-03T07:54:49.143Z</time></trkpt><trkpt lat="46.0012465" lon="13.4453719"><ele>91.66666666666666</ele><time>2026-05-03T07:54:50.143Z</time></trkpt><trkpt lat="46.0011999" lon="13.4451597"><ele>91.0</ele><time>2026-05-03T07:54:51.143Z</time></trkpt><trkpt lat="46.0011524" lon="13.4449482"><ele>91.0</ele><time>2026-05-03T07:54:52.142Z</time></trkpt><trkpt lat="46.0011074" lon="13.4447413"><ele>91.0</ele><time>2026-05-03T07:54:53.143Z</time></trkpt><trkpt lat="46.0010659" lon="13.4445352"><ele>91.0</ele><time>2026-05-03T07:54:54.142Z</time></trkpt><trkpt lat="46.0010364" lon="13.444345"><ele>91.0</ele><time>2026-05-03T07:54:55.143Z</time></trkpt><trkpt lat="46.0010078" lon="13.4441711"><ele>90.4</ele><time>2026-05-03T07:54:56.143Z</time></trkpt><trkpt lat="46.0009774" lon="13.4440077"><ele>89.8</ele><time>2026-05-03T07:54:57.142Z</time></trkpt><trkpt lat="46.0009474" lon="13.4438492"><ele>89.2</ele><time>2026-05-03T07:54:58.143Z</time></trkpt><trkpt lat="46.0009227" lon="13.4437042"><ele>88.60000000000001</ele><time>2026-05-03T07:54:59.143Z</time></trkpt><trkpt lat="46.0009022" lon="13.4435577"><ele>88.0</ele><time>2026-05-03T07:55:00.143Z</time></trkpt><trkpt lat="46.0008808" lon="13.4433974"><ele>87.75</ele><time>2026-05-03T07:55:01.143Z</time></trkpt><trkpt lat="46.0008588" lon="13.4432293"><ele>87.5</ele><time>2026-05-03T07:55:02.143Z</time></trkpt><trkpt lat="46.0008361" lon="13.4430572"><ele>87.25</ele><time>2026-05-03T07:55:03.143Z</time></trkpt><trkpt lat="46.0008152" lon="13.4428863"><ele>87.0</ele><time>2026-05-03T07:55:04.142Z</time></trkpt><trkpt lat="46.0007927" lon="13.4427175"><ele>87.0</ele><time>2026-05-03T07:55:05.143Z</time></trkpt><trkpt lat="46.0007711" lon="13.44254"><ele>87.0</ele><time>2026-05-03T07:55:06.143Z</time></trkpt><trkpt lat="46.0007486" lon="13.4423547"><ele>87.0</ele><time>2026-05-03T07:55:07.143Z</time></trkpt><trkpt lat="46.0007054" lon="13.4420077"><ele>86.75</ele><time>2026-05-03T07:55:09.142Z</time></trkpt><trkpt lat="46.0006855" lon="13.4418474"><ele>86.5</ele><time>2026-05-03T07:55:10.143Z</time></trkpt><trkpt lat="46.0006641" lon="13.4416794"><ele>86.25</ele><time>2026-05-03T07:55:11.142Z</time></trkpt><trkpt lat="46.0006381" lon="13.4415129"><ele>86.0</ele><time>2026-05-03T07:55:12.143Z</time></trkpt><trkpt lat="46.0006182" lon="13.4413488"><ele>86.0</ele><time>2026-05-03T07:55:13.142Z</time></trkpt><trkpt lat="46.0005931" lon="13.4411812"><ele>86.0</ele><time>2026-05-03T07:55:14.143Z</time></trkpt><trkpt lat="46.0005669" lon="13.4410039"><ele>86.0</ele><time>2026-05-03T07:55:15.143Z</time></trkpt><trkpt lat="46.0005468" lon="13.4408338"><ele>86.0</ele><time>2026-05-03T07:55:16.142Z</time></trkpt><trkpt lat="46.0005301" lon="13.4406816"><ele>86.0</ele><time>2026-05-03T07:55:17.142Z</time></trkpt><trkpt lat="46.0005105" lon="13.4405367"><ele>86.0</ele><time>2026-05-03T07:55:18.143Z</time></trkpt><trkpt lat="46.000488" lon="13.440406"><ele>86.0</ele><time>2026-05-03T07:55:19.142Z</time></trkpt><trkpt lat="46.0004645" lon="13.4403107"><ele>86.0</ele><time>2026-05-03T07:55:20.142Z</time></trkpt><trkpt lat="46.0004431" lon="13.4401636"><ele>86.0</ele><time>2026-05-03T07:55:22.142Z</time></trkpt><trkpt lat="46.0003982" lon="13.4400005"><ele>86.0</ele><time>2026-05-03T07:55:34.143Z</time></trkpt><trkpt lat="46.0003603" lon="13.4398699"><ele>86.0</ele><time>2026-05-03T07:55:36.142Z</time></trkpt><trkpt lat="46.0003285" lon="13.4397566"><ele>86.0</ele><time>2026-05-03T07:55:38.143Z</time></trkpt><trkpt lat="46.0003009" lon="13.4396529"><ele>86.0</ele><time>2026-05-03T07:55:40.143Z</time></trkpt><trkpt lat="46.0002812" lon="13.4395365"><ele>86.0</ele><time>2026-05-03T07:55:42.142Z</time></trkpt><trkpt lat="46.0002689" lon="13.4393959"><ele>86.0</ele><time>2026-05-03T07:55:44.141Z</time></trkpt><trkpt lat="46.0002396" lon="13.4392571"><ele>86.0</ele><time>2026-05-03T07:55:46.142Z</time></trkpt><trkpt lat="46.0002255" lon="13.4391567"><ele>86.0</ele><time>2026-05-03T07:55:48.142Z</time></trkpt><trkpt lat="46.0002031" lon="13.4390649"><ele>86.0</ele><time>2026-05-03T07:55:50.142Z</time></trkpt><trkpt lat="46.0001807" lon="13.4389693"><ele>86.0</ele><time>2026-05-03T07:55:52.142Z</time></trkpt><trkpt lat="46.000145" lon="13.4388239"><ele>86.0</ele><time>2026-05-03T07:55:54.142Z</time></trkpt><trkpt lat="46.0001174" lon="13.438739"><ele>86.0</ele><time>2026-05-03T07:55:55.142Z</time></trkpt><trkpt lat="46.0000935" lon="13.4386462"><ele>86.00000000000001</ele><time>2026-05-03T07:55:56.142Z</time></trkpt><trkpt lat="46.0000448" lon="13.4385738"><ele>86.0</ele><time>2026-05-03T07:55:57.142Z</time></trkpt><trkpt lat="45.999995" lon="13.4385055"><ele>86.0</ele><time>2026-05-03T07:55:58.141Z</time></trkpt><trkpt lat="45.9999482" lon="13.4384339"><ele>86.0</ele><time>2026-05-03T07:55:59.142Z</time></trkpt><trkpt lat="45.999901" lon="13.4383417"><ele>86.0</ele><time>2026-05-03T07:56:00.142Z</time></trkpt><trkpt lat="45.9998538" lon="13.4382485"><ele>86.00000000000001</ele><time>2026-05-03T07:56:01.142Z</time></trkpt><trkpt lat="45.9998054" lon="13.4381682"><ele>86.0</ele><time>2026-05-03T07:56:02.141Z</time></trkpt><trkpt lat="45.9997696" lon="13.4380858"><ele>86.0</ele><time>2026-05-03T07:56:03.142Z</time></trkpt><trkpt lat="45.9997246" lon="13.4379829"><ele>86.0</ele><time>2026-05-03T07:56:04.142Z</time></trkpt><trkpt lat="45.9996698" lon="13.4378911"><ele>86.0</ele><time>2026-05-03T07:56:05.142Z</time></trkpt><trkpt lat="45.9995988" lon="13.4378069"><ele>86.0</ele><time>2026-05-03T07:56:06.141Z</time></trkpt><trkpt lat="45.9995118" lon="13.4377227"><ele>86.0</ele><time>2026-05-03T07:56:07.141Z</time></trkpt><trkpt lat="45.9994175" lon="13.4376398"><ele>85.5</ele><time>2026-05-03T07:56:08.142Z</time></trkpt><trkpt lat="45.9993204" lon="13.4375553"><ele>85.0</ele><time>2026-05-03T07:56:09.142Z</time></trkpt><trkpt lat="45.9992198" lon="13.4374823"><ele>84.5</ele><time>2026-05-03T07:56:10.142Z</time></trkpt><trkpt lat="45.9991181" lon="13.4374064"><ele>84.0</ele><time>2026-05-03T07:56:11.142Z</time></trkpt><trkpt lat="45.9990101" lon="13.437335"><ele>84.0</ele><time>2026-05-03T07:56:12.142Z</time></trkpt><trkpt lat="45.9988905" lon="13.4372648"><ele>84.0</ele><time>2026-05-03T07:56:13.142Z</time></trkpt><trkpt lat="45.9987684" lon="13.4371964"><ele>84.0</ele><time>2026-05-03T07:56:14.141Z</time></trkpt><trkpt lat="45.9986466" lon="13.4371372"><ele>84.0</ele><time>2026-05-03T07:56:15.141Z</time></trkpt><trkpt lat="45.9985308" lon="13.4370734"><ele>83.75</ele><time>2026-05-03T07:56:16.142Z</time></trkpt><trkpt lat="45.9984143" lon="13.4370172"><ele>83.5</ele><time>2026-05-03T07:56:17.141Z</time></trkpt><trkpt lat="45.9982881" lon="13.4369693"><ele>83.25</ele><time>2026-05-03T07:56:18.142Z</time></trkpt><trkpt lat="45.9981625" lon="13.436918"><ele>83.0</ele><time>2026-05-03T07:56:19.142Z</time></trkpt><trkpt lat="45.9980332" lon="13.4368593"><ele>83.0</ele><time>2026-05-03T07:56:20.142Z</time></trkpt><trkpt lat="45.9979028" lon="13.436811"><ele>83.0</ele><time>2026-05-03T07:56:21.142Z</time></trkpt><trkpt lat="45.9977771" lon="13.4367653"><ele>83.0</ele><time>2026-05-03T07:56:22.142Z</time></trkpt><trkpt lat="45.9976495" lon="13.4367199"><ele>83.0</ele><time>2026-05-03T07:56:23.142Z</time></trkpt><trkpt lat="45.9975212" lon="13.4366841"><ele>83.60000000000001</ele><time>2026-05-03T07:56:24.142Z</time></trkpt><trkpt lat="45.9973968" lon="13.4366675"><ele>84.2</ele><time>2026-05-03T07:56:25.141Z</time></trkpt><trkpt lat="45.9972798" lon="13.4366678"><ele>84.8</ele><time>2026-05-03T07:56:26.142Z</time></trkpt><trkpt lat="45.9971716" lon="13.436667"><ele>85.4</ele><time>2026-05-03T07:56:27.142Z</time></trkpt><trkpt lat="45.9970731" lon="13.4366587"><ele>86.0</ele><time>2026-05-03T07:56:28.142Z</time></trkpt><trkpt lat="45.9969862" lon="13.4366369"><ele>86.0</ele><time>2026-05-03T07:56:29.141Z</time></trkpt><trkpt lat="45.996906" lon="13.436594"><ele>86.0</ele><time>2026-05-03T07:56:30.141Z</time></trkpt><trkpt lat="45.9968442" lon="13.4365335"><ele>86.0</ele><time>2026-05-03T07:56:31.142Z</time></trkpt><trkpt lat="45.9967738" lon="13.4363885"><ele>86.0</ele><time>2026-05-03T07:56:33.142Z</time></trkpt><trkpt lat="45.9967811" lon="13.436275"><ele>86.0</ele><time>2026-05-03T07:56:34.142Z</time></trkpt><trkpt lat="45.9968117" lon="13.4361563"><ele>85.4</ele><time>2026-05-03T07:56:35.142Z</time></trkpt><trkpt lat="45.9968478" lon="13.4360264"><ele>84.8</ele><time>2026-05-03T07:56:36.141Z</time></trkpt><trkpt lat="45.99688" lon="13.4359039"><ele>84.2</ele><time>2026-05-03T07:56:37.142Z</time></trkpt><trkpt lat="45.9969232" lon="13.4357731"><ele>83.60000000000001</ele><time>2026-05-03T07:56:38.142Z</time></trkpt><trkpt lat="45.9969701" lon="13.4356626"><ele>83.0</ele><time>2026-05-03T07:56:39.142Z</time></trkpt><trkpt lat="45.9969926" lon="13.4355512"><ele>82.60000000000001</ele><time>2026-05-03T07:56:40.142Z</time></trkpt><trkpt lat="45.9969794" lon="13.4354227"><ele>82.2</ele><time>2026-05-03T07:56:41.142Z</time></trkpt><trkpt lat="45.9969383" lon="13.4353016"><ele>81.8</ele><time>2026-05-03T07:56:42.142Z</time></trkpt><trkpt lat="45.9968969" lon="13.4351752"><ele>81.4</ele><time>2026-05-03T07:56:43.141Z</time></trkpt><trkpt lat="45.9968506" lon="13.4350472"><ele>81.0</ele><time>2026-05-03T07:56:44.142Z</time></trkpt><trkpt lat="45.9967987" lon="13.4349244"><ele>81.0</ele><time>2026-05-03T07:56:45.142Z</time></trkpt><trkpt lat="45.9967471" lon="13.4347853"><ele>81.0</ele><time>2026-05-03T07:56:46.142Z</time></trkpt><trkpt lat="45.9967021" lon="13.4346426"><ele>81.0</ele><time>2026-05-03T07:56:47.142Z</time></trkpt><trkpt lat="45.996656" lon="13.4344956"><ele>81.0</ele><time>2026-05-03T07:56:48.141Z</time></trkpt><trkpt lat="45.9966181" lon="13.4343442"><ele>81.0</ele><time>2026-05-03T07:56:49.142Z</time></trkpt><trkpt lat="45.9965882" lon="13.434187"><ele>81.0</ele><time>2026-05-03T07:56:50.141Z</time></trkpt><trkpt lat="45.9965597" lon="13.4340345"><ele>81.0</ele><time>2026-05-03T07:56:51.141Z</time></trkpt><trkpt lat="45.9965348" lon="13.4338777"><ele>81.0</ele><time>2026-05-03T07:56:52.142Z</time></trkpt><trkpt lat="45.9965252" lon="13.4337195"><ele>81.0</ele><time>2026-05-03T07:56:53.142Z</time></trkpt><trkpt lat="45.9965279" lon="13.4335486"><ele>81.0</ele><time>2026-05-03T07:56:54.142Z</time></trkpt><trkpt lat="45.9965391" lon="13.4333694"><ele>81.0</ele><time>2026-05-03T07:56:55.141Z</time></trkpt><trkpt lat="45.9965414" lon="13.4332046"><ele>81.0</ele><time>2026-05-03T07:56:56.142Z</time></trkpt><trkpt lat="45.9965042" lon="13.4329052"><ele>81.0</ele><time>2026-05-03T07:56:58.142Z</time></trkpt><trkpt lat="45.9964606" lon="13.4327733"><ele>81.0</ele><time>2026-05-03T07:56:59.142Z</time></trkpt><trkpt lat="45.9964088" lon="13.4326716"><ele>81.0</ele><time>2026-05-03T07:57:00.142Z</time></trkpt><trkpt lat="45.9963417" lon="13.432597"><ele>81.0</ele><time>2026-05-03T07:57:01.141Z</time></trkpt><trkpt lat="45.9962555" lon="13.4325556"><ele>81.0</ele><time>2026-05-03T07:57:02.142Z</time></trkpt><trkpt lat="45.9961459" lon="13.4325388"><ele>81.0</ele><time>2026-05-03T07:57:03.141Z</time></trkpt><trkpt lat="45.9960374" lon="13.4325216"><ele>81.0</ele><time>2026-05-03T07:57:04.141Z</time></trkpt><trkpt lat="45.9959225" lon="13.4325079"><ele>81.0</ele><time>2026-05-03T07:57:05.142Z</time></trkpt><trkpt lat="45.9958085" lon="13.4324927"><ele>81.0</ele><time>2026-05-03T07:57:06.142Z</time></trkpt><trkpt lat="45.9956942" lon="13.4324805"><ele>81.4</ele><time>2026-05-03T07:57:07.142Z</time></trkpt><trkpt lat="45.9955807" lon="13.4324713"><ele>81.8</ele><time>2026-05-03T07:57:08.141Z</time></trkpt><trkpt lat="45.9954752" lon="13.432466"><ele>82.2</ele><time>2026-05-03T07:57:09.142Z</time></trkpt><trkpt lat="45.9953709" lon="13.4324548"><ele>82.60000000000001</ele><time>2026-05-03T07:57:10.142Z</time></trkpt><trkpt lat="45.9952669" lon="13.4324415"><ele>83.0</ele><time>2026-05-03T07:57:11.141Z</time></trkpt><trkpt lat="45.9951791" lon="13.4324177"><ele>83.0</ele><time>2026-05-03T07:57:12.142Z</time></trkpt><trkpt lat="45.9951045" lon="13.4323835"><ele>83.0</ele><time>2026-05-03T07:57:13.141Z</time></trkpt><trkpt lat="45.9950405" lon="13.4323535"><ele>83.0</ele><time>2026-05-03T07:57:14.142Z</time></trkpt><trkpt lat="45.9949711" lon="13.4323257"><ele>83.0</ele><time>2026-05-03T07:57:15.142Z</time></trkpt><trkpt lat="45.9948931" lon="13.4322959"><ele>83.0</ele><time>2026-05-03T07:57:16.141Z</time></trkpt><trkpt lat="45.994812" lon="13.4322746"><ele>83.0</ele><time>2026-05-03T07:57:17.141Z</time></trkpt><trkpt lat="45.9947257" lon="13.4322617"><ele>83.0</ele><time>2026-05-03T07:57:18.141Z</time></trkpt><trkpt lat="45.9946365" lon="13.4322691"><ele>83.0</ele><time>2026-05-03T07:57:19.142Z</time></trkpt><trkpt lat="45.9945477" lon="13.4322961"><ele>83.0</ele><time>2026-05-03T07:57:20.141Z</time></trkpt><trkpt lat="45.9944437" lon="13.4323257"><ele>83.0</ele><time>2026-05-03T07:57:21.142Z</time></trkpt><trkpt lat="45.9943374" lon="13.432352"><ele>83.0</ele><time>2026-05-03T07:57:22.142Z</time></trkpt><trkpt lat="45.9942321" lon="13.4323765"><ele>82.80000000000001</ele><time>2026-05-03T07:57:23.142Z</time></trkpt><trkpt lat="45.9941326" lon="13.4324085"><ele>82.6</ele><time>2026-05-03T07:57:24.142Z</time></trkpt><trkpt lat="45.9940313" lon="13.4324395"><ele>82.4</ele><time>2026-05-03T07:57:25.142Z</time></trkpt><trkpt lat="45.9939243" lon="13.4324712"><ele>82.19999999999999</ele><time>2026-05-03T07:57:26.142Z</time></trkpt><trkpt lat="45.9938184" lon="13.4325018"><ele>82.0</ele><time>2026-05-03T07:57:27.142Z</time></trkpt><trkpt lat="45.9937096" lon="13.4325331"><ele>82.0</ele><time>2026-05-03T07:57:28.142Z</time></trkpt><trkpt lat="45.9936009" lon="13.4325627"><ele>82.0</ele><time>2026-05-03T07:57:29.142Z</time></trkpt><trkpt lat="45.9934989" lon="13.4326042"><ele>82.0</ele><time>2026-05-03T07:57:30.141Z</time></trkpt><trkpt lat="45.9933914" lon="13.4326342"><ele>82.0</ele><time>2026-05-03T07:57:31.141Z</time></trkpt><trkpt lat="45.9932816" lon="13.4326684"><ele>82.0</ele><time>2026-05-03T07:57:32.142Z</time></trkpt><trkpt lat="45.9931774" lon="13.4326979"><ele>81.39999999999999</ele><time>2026-05-03T07:57:33.141Z</time></trkpt><trkpt lat="45.9930725" lon="13.4327296"><ele>80.8</ele><time>2026-05-03T07:57:34.142Z</time></trkpt><trkpt lat="45.9929665" lon="13.4327597"><ele>80.2</ele><time>2026-05-03T07:57:35.142Z</time></trkpt><trkpt lat="45.9928656" lon="13.4327902"><ele>79.6</ele><time>2026-05-03T07:57:36.142Z</time></trkpt><trkpt lat="45.9927699" lon="13.4328232"><ele>79.0</ele><time>2026-05-03T07:57:37.142Z</time></trkpt><trkpt lat="45.992681" lon="13.4328488"><ele>79.0</ele><time>2026-05-03T07:57:38.142Z</time></trkpt><trkpt lat="45.9925921" lon="13.4328584"><ele>79.0</ele><time>2026-05-03T07:57:39.142Z</time></trkpt><trkpt lat="45.9925089" lon="13.4328679"><ele>79.0</ele><time>2026-05-03T07:57:40.142Z</time></trkpt><trkpt lat="45.9924272" lon="13.4328678"><ele>79.0</ele><time>2026-05-03T07:57:41.142Z</time></trkpt><trkpt lat="45.9923489" lon="13.4328543"><ele>79.0</ele><time>2026-05-03T07:57:42.142Z</time></trkpt><trkpt lat="45.9922848" lon="13.4328405"><ele>79.0</ele><time>2026-05-03T07:57:43.142Z</time></trkpt><trkpt lat="45.9921886" lon="13.4327582"><ele>79.0</ele><time>2026-05-03T07:57:45.141Z</time></trkpt><trkpt lat="45.9921485" lon="13.4326786"><ele>79.0</ele><time>2026-05-03T07:57:46.142Z</time></trkpt><trkpt lat="45.9921134" lon="13.4325705"><ele>79.0</ele><time>2026-05-03T07:57:47.142Z</time></trkpt><trkpt lat="45.992057" lon="13.4324498"><ele>79.0</ele><time>2026-05-03T07:57:48.141Z</time></trkpt><trkpt lat="45.9920034" lon="13.4323345"><ele>79.0</ele><time>2026-05-03T07:57:49.142Z</time></trkpt><trkpt lat="45.9919557" lon="13.4322221"><ele>79.0</ele><time>2026-05-03T07:57:50.142Z</time></trkpt><trkpt lat="45.9919039" lon="13.4321039"><ele>79.0</ele><time>2026-05-03T07:57:51.142Z</time></trkpt><trkpt lat="45.9918509" lon="13.4319878"><ele>79.0</ele><time>2026-05-03T07:57:52.141Z</time></trkpt><trkpt lat="45.9917955" lon="13.4318607"><ele>79.0</ele><time>2026-05-03T07:57:53.141Z</time></trkpt><trkpt lat="45.9917439" lon="13.4317309"><ele>79.0</ele><time>2026-05-03T07:57:54.141Z</time></trkpt><trkpt lat="45.991698" lon="13.4316038"><ele>79.0</ele><time>2026-05-03T07:57:55.142Z</time></trkpt><trkpt lat="45.9916496" lon="13.4314714"><ele>79.0</ele><time>2026-05-03T07:57:56.142Z</time></trkpt><trkpt lat="45.991601" lon="13.4313355"><ele>79.0</ele><time>2026-05-03T07:57:57.141Z</time></trkpt><trkpt lat="45.9915474" lon="13.4311967"><ele>79.0</ele><time>2026-05-03T07:57:58.141Z</time></trkpt><trkpt lat="45.9914882" lon="13.4310528"><ele>79.0</ele><time>2026-05-03T07:57:59.141Z</time></trkpt><trkpt lat="45.9914343" lon="13.4309152"><ele>79.0</ele><time>2026-05-03T07:58:00.142Z</time></trkpt><trkpt lat="45.9913901" lon="13.4307902"><ele>79.0</ele><time>2026-05-03T07:58:01.141Z</time></trkpt><trkpt lat="45.9913571" lon="13.4306874"><ele>79.0</ele><time>2026-05-03T07:58:02.142Z</time></trkpt><trkpt lat="45.9913238" lon="13.430607"><ele>79.0</ele><time>2026-05-03T07:58:03.142Z</time></trkpt><trkpt lat="45.9912315" lon="13.4305144"><ele>79.0</ele><time>2026-05-03T07:58:05.142Z</time></trkpt><trkpt lat="45.9910994" lon="13.4305338"><ele>79.0</ele><time>2026-05-03T07:58:07.142Z</time></trkpt><trkpt lat="45.9910078" lon="13.4305742"><ele>79.0</ele><time>2026-05-03T07:58:08.142Z</time></trkpt><trkpt lat="45.9909114" lon="13.4306134"><ele>79.0</ele><time>2026-05-03T07:58:09.142Z</time></trkpt><trkpt lat="45.9908178" lon="13.4306494"><ele>79.0</ele><time>2026-05-03T07:58:10.142Z</time></trkpt><trkpt lat="45.9907248" lon="13.4306883"><ele>79.0</ele><time>2026-05-03T07:58:11.141Z</time></trkpt><trkpt lat="45.9906317" lon="13.4307197"><ele>79.0</ele><time>2026-05-03T07:58:12.142Z</time></trkpt><trkpt lat="45.9905405" lon="13.4307628"><ele>78.8</ele><time>2026-05-03T07:58:13.141Z</time></trkpt><trkpt lat="45.9904486" lon="13.4308"><ele>78.60000000000001</ele><time>2026-05-03T07:58:14.142Z</time></trkpt><trkpt lat="45.9903539" lon="13.4308364"><ele>78.4</ele><time>2026-05-03T07:58:15.142Z</time></trkpt><trkpt lat="45.990259" lon="13.4308697"><ele>78.2</ele><time>2026-05-03T07:58:16.141Z</time></trkpt><trkpt lat="45.9901657" lon="13.4309024"><ele>78.0</ele><time>2026-05-03T07:58:17.142Z</time></trkpt><trkpt lat="45.9900697" lon="13.4309416"><ele>77.8</ele><time>2026-05-03T07:58:18.141Z</time></trkpt><trkpt lat="45.9899713" lon="13.430973"><ele>77.6</ele><time>2026-05-03T07:58:19.142Z</time></trkpt><trkpt lat="45.9898734" lon="13.4310096"><ele>77.4</ele><time>2026-05-03T07:58:20.141Z</time></trkpt><trkpt lat="45.9897884" lon="13.4310435"><ele>77.2</ele><time>2026-05-03T07:58:21.142Z</time></trkpt><trkpt lat="45.9897021" lon="13.4310762"><ele>77.0</ele><time>2026-05-03T07:58:22.141Z</time></trkpt><trkpt lat="45.9896162" lon="13.4311122"><ele>77.0</ele><time>2026-05-03T07:58:23.142Z</time></trkpt><trkpt lat="45.9895193" lon="13.4311388"><ele>77.0</ele><time>2026-05-03T07:58:24.142Z</time></trkpt><trkpt lat="45.989427" lon="13.4311689"><ele>77.0</ele><time>2026-05-03T07:58:25.142Z</time></trkpt><trkpt lat="45.9893455" lon="13.4311944"><ele>77.0</ele><time>2026-05-03T07:58:26.142Z</time></trkpt><trkpt lat="45.9892642" lon="13.4312209"><ele>77.0</ele><time>2026-05-03T07:58:27.142Z</time></trkpt><trkpt lat="45.9891862" lon="13.4312519"><ele>77.0</ele><time>2026-05-03T07:58:28.142Z</time></trkpt><trkpt lat="45.9891023" lon="13.4312843"><ele>76.66666666666667</ele><time>2026-05-03T07:58:29.141Z</time></trkpt><trkpt lat="45.9890105" lon="13.4313137"><ele>76.33333333333334</ele><time>2026-05-03T07:58:30.142Z</time></trkpt><trkpt lat="45.9889269" lon="13.4313458"><ele>76.0</ele><time>2026-05-03T07:58:31.142Z</time></trkpt><trkpt lat="45.9888434" lon="13.4313736"><ele>75.66666666666667</ele><time>2026-05-03T07:58:32.142Z</time></trkpt><trkpt lat="45.9887641" lon="13.4314021"><ele>75.33333333333333</ele><time>2026-05-03T07:58:33.141Z</time></trkpt><trkpt lat="45.9886891" lon="13.4314273"><ele>75.0</ele><time>2026-05-03T07:58:34.141Z</time></trkpt><trkpt lat="45.9886105" lon="13.4314475"><ele>75.0</ele><time>2026-05-03T07:58:35.141Z</time></trkpt><trkpt lat="45.9885351" lon="13.4314646"><ele>75.0</ele><time>2026-05-03T07:58:36.142Z</time></trkpt><trkpt lat="45.9884625" lon="13.4314749"><ele>75.0</ele><time>2026-05-03T07:58:37.141Z</time></trkpt><trkpt lat="45.9883737" lon="13.4314692"><ele>75.0</ele><time>2026-05-03T07:58:38.141Z</time></trkpt><trkpt lat="45.9882859" lon="13.4314688"><ele>75.0</ele><time>2026-05-03T07:58:39.142Z</time></trkpt><trkpt lat="45.9881982" lon="13.4314574"><ele>75.0</ele><time>2026-05-03T07:58:40.142Z</time></trkpt><trkpt lat="45.9881096" lon="13.4314416"><ele>74.66666666666667</ele><time>2026-05-03T07:58:41.141Z</time></trkpt><trkpt lat="45.9880231" lon="13.4314224"><ele>74.33333333333333</ele><time>2026-05-03T07:58:42.142Z</time></trkpt><trkpt lat="45.9879404" lon="13.4313987"><ele>74.0</ele><time>2026-05-03T07:58:43.142Z</time></trkpt><trkpt lat="45.9878557" lon="13.4313756"><ele>73.66666666666666</ele><time>2026-05-03T07:58:44.142Z</time></trkpt><trkpt lat="45.98778" lon="13.4313621"><ele>73.33333333333333</ele><time>2026-05-03T07:58:45.142Z</time></trkpt><trkpt lat="45.9877086" lon="13.431358"><ele>73.0</ele><time>2026-05-03T07:58:46.142Z</time></trkpt><trkpt lat="45.9876444" lon="13.4313613"><ele>73.0</ele><time>2026-05-03T07:58:47.142Z</time></trkpt><trkpt lat="45.9875477" lon="13.4314315"><ele>73.0</ele><time>2026-05-03T07:58:49.142Z</time></trkpt><trkpt lat="45.9874848" lon="13.431591"><ele>73.0</ele><time>2026-05-03T07:58:51.142Z</time></trkpt><trkpt lat="45.9874601" lon="13.4316997"><ele>73.0</ele><time>2026-05-03T07:58:52.142Z</time></trkpt><trkpt lat="45.9874375" lon="13.4318057"><ele>73.0</ele><time>2026-05-03T07:58:53.142Z</time></trkpt><trkpt lat="45.9873652" lon="13.4319295"><ele>72.66666666666666</ele><time>2026-05-03T07:58:55.142Z</time></trkpt><trkpt lat="45.9873074" lon="13.4320175"><ele>72.33333333333333</ele><time>2026-05-03T07:58:57.141Z</time></trkpt><trkpt lat="45.9872543" lon="13.4320759"><ele>72.0</ele><time>2026-05-03T07:59:00.142Z</time></trkpt><trkpt lat="45.9871615" lon="13.4320523"><ele>71.66666666666667</ele><time>2026-05-03T07:59:05.142Z</time></trkpt><trkpt lat="45.9870963" lon="13.4320152"><ele>71.33333333333334</ele><time>2026-05-03T07:59:07.141Z</time></trkpt><trkpt lat="45.9870198" lon="13.4319985"><ele>71.0</ele><time>2026-05-03T07:59:09.142Z</time></trkpt><trkpt lat="45.9869551" lon="13.4319878"><ele>71.0</ele><time>2026-05-03T07:59:10.141Z</time></trkpt><trkpt lat="45.9868897" lon="13.4320014"><ele>71.0</ele><time>2026-05-03T07:59:11.141Z</time></trkpt><trkpt lat="45.9867813" lon="13.4320276"><ele>71.0</ele><time>2026-05-03T07:59:13.141Z</time></trkpt><trkpt lat="45.9867213" lon="13.4320706"><ele>71.0</ele><time>2026-05-03T07:59:15.141Z</time></trkpt><trkpt lat="45.9866766" lon="13.4321639"><ele>71.0</ele><time>2026-05-03T08:00:08.141Z</time></trkpt><trkpt lat="45.9866352" lon="13.4322355"><ele>71.0</ele><time>2026-05-03T08:00:10.141Z</time></trkpt><trkpt lat="45.9865546" lon="13.4322077"><ele>71.5</ele><time>2026-05-03T08:00:13.14Z</time></trkpt><trkpt lat="45.9864993" lon="13.4321421"><ele>72.0</ele><time>2026-05-03T08:00:14.141Z</time></trkpt><trkpt lat="45.9864367" lon="13.4320611"><ele>72.5</ele><time>2026-05-03T08:00:15.141Z</time></trkpt><trkpt lat="45.9863683" lon="13.4319785"><ele>73.0</ele><time>2026-05-03T08:00:16.141Z</time></trkpt><trkpt lat="45.9862985" lon="13.4318837"><ele>73.5</ele><time>2026-05-03T08:00:17.14Z</time></trkpt><trkpt lat="45.9862159" lon="13.4317861"><ele>74.0</ele><time>2026-05-03T08:00:18.141Z</time></trkpt><trkpt lat="45.9861274" lon="13.4316852"><ele>74.0</ele><time>2026-05-03T08:00:19.141Z</time></trkpt><trkpt lat="45.9860393" lon="13.4315859"><ele>74.0</ele><time>2026-05-03T08:00:20.141Z</time></trkpt><trkpt lat="45.9859517" lon="13.4314893"><ele>74.0</ele><time>2026-05-03T08:00:21.141Z</time></trkpt><trkpt lat="45.9858737" lon="13.4313916"><ele>74.0</ele><time>2026-05-03T08:00:22.14Z</time></trkpt><trkpt lat="45.9858065" lon="13.4312994"><ele>74.0</ele><time>2026-05-03T08:00:23.141Z</time></trkpt><trkpt lat="45.9857491" lon="13.431233"><ele>73.83333333333334</ele><time>2026-05-03T08:00:24.14Z</time></trkpt><trkpt lat="45.9856749" lon="13.4311347"><ele>73.66666666666667</ele><time>2026-05-03T08:00:26.141Z</time></trkpt><trkpt lat="45.9855826" lon="13.4311138"><ele>73.5</ele><time>2026-05-03T08:00:31.141Z</time></trkpt><trkpt lat="45.9855178" lon="13.4310942"><ele>73.33333333333333</ele><time>2026-05-03T08:00:32.141Z</time></trkpt><trkpt lat="45.9854389" lon="13.4311024"><ele>73.16666666666666</ele><time>2026-05-03T08:00:33.141Z</time></trkpt><trkpt lat="45.9853568" lon="13.4311489"><ele>73.0</ele><time>2026-05-03T08:00:34.141Z</time></trkpt><trkpt lat="45.9852685" lon="13.4312058"><ele>73.0</ele><time>2026-05-03T08:00:35.14Z</time></trkpt><trkpt lat="45.9851734" lon="13.4312756"><ele>73.0</ele><time>2026-05-03T08:00:36.14Z</time></trkpt><trkpt lat="45.9850694" lon="13.4313434"><ele>73.0</ele><time>2026-05-03T08:00:37.141Z</time></trkpt><trkpt lat="45.9849575" lon="13.4313963"><ele>73.0</ele><time>2026-05-03T08:00:38.141Z</time></trkpt><trkpt lat="45.9848502" lon="13.4314051"><ele>73.0</ele><time>2026-05-03T08:00:39.14Z</time></trkpt><trkpt lat="45.9847393" lon="13.4313947"><ele>73.25</ele><time>2026-05-03T08:00:40.14Z</time></trkpt><trkpt lat="45.9846227" lon="13.4313448"><ele>73.5</ele><time>2026-05-03T08:00:41.141Z</time></trkpt><trkpt lat="45.9844986" lon="13.4312959"><ele>73.75</ele><time>2026-05-03T08:00:42.141Z</time></trkpt><trkpt lat="45.9843654" lon="13.4312595"><ele>74.0</ele><time>2026-05-03T08:00:43.141Z</time></trkpt><trkpt lat="45.984228" lon="13.4312404"><ele>73.25</ele><time>2026-05-03T08:00:44.141Z</time></trkpt><trkpt lat="45.9840835" lon="13.4312364"><ele>72.5</ele><time>2026-05-03T08:00:45.141Z</time></trkpt><trkpt lat="45.9839361" lon="13.4312453"><ele>71.75</ele><time>2026-05-03T08:00:46.141Z</time></trkpt><trkpt lat="45.9837955" lon="13.4312678"><ele>71.0</ele><time>2026-05-03T08:00:47.141Z</time></trkpt><trkpt lat="45.9836401" lon="13.431293"><ele>71.66666666666667</ele><time>2026-05-03T08:00:48.141Z</time></trkpt><trkpt lat="45.9834823" lon="13.4313241"><ele>72.33333333333333</ele><time>2026-05-03T08:00:49.14Z</time></trkpt><trkpt lat="45.9833191" lon="13.4313486"><ele>73.0</ele><time>2026-05-03T08:00:50.14Z</time></trkpt><trkpt lat="45.9831538" lon="13.4313755"><ele>71.66666666666666</ele><time>2026-05-03T08:00:51.141Z</time></trkpt><trkpt lat="45.9829906" lon="13.4314009"><ele>70.33333333333333</ele><time>2026-05-03T08:00:52.141Z</time></trkpt><trkpt lat="45.9828359" lon="13.4314229"><ele>69.0</ele><time>2026-05-03T08:00:53.141Z</time></trkpt><trkpt lat="45.9826804" lon="13.4314398"><ele>69.0</ele><time>2026-05-03T08:00:54.14Z</time></trkpt><trkpt lat="45.9825237" lon="13.4314525"><ele>69.0</ele><time>2026-05-03T08:00:55.14Z</time></trkpt><trkpt lat="45.982365" lon="13.431454"><ele>69.0</ele><time>2026-05-03T08:00:56.14Z</time></trkpt><trkpt lat="45.9822017" lon="13.4314356"><ele>68.66666666666667</ele><time>2026-05-03T08:00:57.14Z</time></trkpt><trkpt lat="45.9820379" lon="13.4313997"><ele>68.33333333333334</ele><time>2026-05-03T08:00:58.141Z</time></trkpt><trkpt lat="45.9818799" lon="13.431346"><ele>68.0</ele><time>2026-05-03T08:00:59.14Z</time></trkpt><trkpt lat="45.981725" lon="13.431277"><ele>68.0</ele><time>2026-05-03T08:01:00.141Z</time></trkpt><trkpt lat="45.9815711" lon="13.4312034"><ele>68.0</ele><time>2026-05-03T08:01:01.141Z</time></trkpt><trkpt lat="45.9814184" lon="13.4311212"><ele>68.0</ele><time>2026-05-03T08:01:02.141Z</time></trkpt><trkpt lat="45.9812613" lon="13.4310343"><ele>68.0</ele><time>2026-05-03T08:01:03.141Z</time></trkpt><trkpt lat="45.9811055" lon="13.4309461"><ele>68.0</ele><time>2026-05-03T08:01:04.141Z</time></trkpt><trkpt lat="45.9809733" lon="13.4308705"><ele>68.0</ele><time>2026-05-03T08:01:05.14Z</time></trkpt><trkpt lat="45.9808631" lon="13.4308047"><ele>68.0</ele><time>2026-05-03T08:01:06.14Z</time></trkpt><trkpt lat="45.9807762" lon="13.4307486"><ele>68.0</ele><time>2026-05-03T08:01:07.141Z</time></trkpt><trkpt lat="45.9807042" lon="13.4307067"><ele>68.0</ele><time>2026-05-03T08:01:08.141Z</time></trkpt><trkpt lat="45.9805965" lon="13.4307615"><ele>68.0</ele><time>2026-05-03T08:01:10.141Z</time></trkpt><trkpt lat="45.9805657" lon="13.4308587"><ele>68.0</ele><time>2026-05-03T08:01:11.141Z</time></trkpt><trkpt lat="45.9805481" lon="13.4309941"><ele>68.0</ele><time>2026-05-03T08:01:12.141Z</time></trkpt><trkpt lat="45.9805272" lon="13.4311479"><ele>67.75</ele><time>2026-05-03T08:01:13.141Z</time></trkpt><trkpt lat="45.9805027" lon="13.4313174"><ele>67.5</ele><time>2026-05-03T08:01:14.141Z</time></trkpt><trkpt lat="45.980473" lon="13.4314978"><ele>67.25</ele><time>2026-05-03T08:01:15.14Z</time></trkpt><trkpt lat="45.980445" lon="13.431682"><ele>67.0</ele><time>2026-05-03T08:01:16.141Z</time></trkpt><trkpt lat="45.9804133" lon="13.4318636"><ele>67.0</ele><time>2026-05-03T08:01:17.141Z</time></trkpt><trkpt lat="45.980386" lon="13.4320531"><ele>67.0</ele><time>2026-05-03T08:01:18.141Z</time></trkpt><trkpt lat="45.9803675" lon="13.4322342"><ele>67.0</ele><time>2026-05-03T08:01:19.14Z</time></trkpt><trkpt lat="45.9803475" lon="13.4324332"><ele>67.0</ele><time>2026-05-03T08:01:20.141Z</time></trkpt><trkpt lat="45.9803279" lon="13.4326324"><ele>67.0</ele><time>2026-05-03T08:01:21.14Z</time></trkpt><trkpt lat="45.9803127" lon="13.4328285"><ele>67.0</ele><time>2026-05-03T08:01:22.14Z</time></trkpt><trkpt lat="45.9802962" lon="13.4330234"><ele>67.0</ele><time>2026-05-03T08:01:23.14Z</time></trkpt><trkpt lat="45.9802803" lon="13.4332175"><ele>67.0</ele><time>2026-05-03T08:01:24.14Z</time></trkpt><trkpt lat="45.9802666" lon="13.4334103"><ele>67.0</ele><time>2026-05-03T08:01:25.141Z</time></trkpt><trkpt lat="45.9802542" lon="13.4336032"><ele>67.0</ele><time>2026-05-03T08:01:26.14Z</time></trkpt><trkpt lat="45.9802425" lon="13.4337943"><ele>67.0</ele><time>2026-05-03T08:01:27.141Z</time></trkpt><trkpt lat="45.9802313" lon="13.4339874"><ele>67.0</ele><time>2026-05-03T08:01:28.141Z</time></trkpt><trkpt lat="45.9802179" lon="13.4341811"><ele>67.25</ele><time>2026-05-03T08:01:29.14Z</time></trkpt><trkpt lat="45.9801977" lon="13.4343771"><ele>67.5</ele><time>2026-05-03T08:01:30.141Z</time></trkpt><trkpt lat="45.9801714" lon="13.4345728"><ele>67.75</ele><time>2026-05-03T08:01:31.14Z</time></trkpt><trkpt lat="45.9801336" lon="13.4347671"><ele>68.0</ele><time>2026-05-03T08:01:32.141Z</time></trkpt><trkpt lat="45.9800835" lon="13.434962"><ele>68.0</ele><time>2026-05-03T08:01:33.141Z</time></trkpt><trkpt lat="45.9800199" lon="13.4351531"><ele>68.0</ele><time>2026-05-03T08:01:34.141Z</time></trkpt><trkpt lat="45.9799496" lon="13.4353483"><ele>68.0</ele><time>2026-05-03T08:01:35.141Z</time></trkpt><trkpt lat="45.9798789" lon="13.4355485"><ele>68.33333333333334</ele><time>2026-05-03T08:01:36.141Z</time></trkpt><trkpt lat="45.9798123" lon="13.4357496"><ele>68.66666666666667</ele><time>2026-05-03T08:01:37.141Z</time></trkpt><trkpt lat="45.9797439" lon="13.4359644"><ele>69.0</ele><time>2026-05-03T08:01:38.14Z</time></trkpt><trkpt lat="45.9796687" lon="13.4361741"><ele>68.0</ele><time>2026-05-03T08:01:39.141Z</time></trkpt><trkpt lat="45.9795881" lon="13.4363873"><ele>67.0</ele><time>2026-05-03T08:01:40.14Z</time></trkpt><trkpt lat="45.9794968" lon="13.4366074"><ele>66.0</ele><time>2026-05-03T08:01:41.141Z</time></trkpt><trkpt lat="45.9794032" lon="13.436811"><ele>66.0</ele><time>2026-05-03T08:01:42.141Z</time></trkpt><trkpt lat="45.9793053" lon="13.4370048"><ele>66.0</ele><time>2026-05-03T08:01:43.141Z</time></trkpt><trkpt lat="45.979209" lon="13.437191"><ele>66.0</ele><time>2026-05-03T08:01:44.141Z</time></trkpt><trkpt lat="45.9791125" lon="13.4373755"><ele>67.33333333333333</ele><time>2026-05-03T08:01:45.141Z</time></trkpt><trkpt lat="45.9790204" lon="13.4375576"><ele>68.66666666666666</ele><time>2026-05-03T08:01:46.141Z</time></trkpt><trkpt lat="45.9789279" lon="13.4377386"><ele>70.0</ele><time>2026-05-03T08:01:47.141Z</time></trkpt><trkpt lat="45.9788392" lon="13.4379205"><ele>69.75</ele><time>2026-05-03T08:01:48.141Z</time></trkpt><trkpt lat="45.9787556" lon="13.4381094"><ele>69.5</ele><time>2026-05-03T08:01:49.141Z</time></trkpt><trkpt lat="45.9786823" lon="13.4383004"><ele>69.25</ele><time>2026-05-03T08:01:50.141Z</time></trkpt><trkpt lat="45.9786184" lon="13.4384822"><ele>69.0</ele><time>2026-05-03T08:01:51.141Z</time></trkpt><trkpt lat="45.9785609" lon="13.4386532"><ele>69.4</ele><time>2026-05-03T08:01:52.141Z</time></trkpt><trkpt lat="45.9785128" lon="13.4388156"><ele>69.80000000000001</ele><time>2026-05-03T08:01:53.141Z</time></trkpt><trkpt lat="45.9784839" lon="13.4389665"><ele>70.19999999999999</ele><time>2026-05-03T08:01:54.141Z</time></trkpt><trkpt lat="45.9784726" lon="13.4391053"><ele>70.6</ele><time>2026-05-03T08:01:55.141Z</time></trkpt><trkpt lat="45.9784735" lon="13.4392208"><ele>71.0</ele><time>2026-05-03T08:01:56.141Z</time></trkpt><trkpt lat="45.9784614" lon="13.4393105"><ele>71.0</ele><time>2026-05-03T08:01:57.141Z</time></trkpt><trkpt lat="45.9783884" lon="13.4393949"><ele>71.0</ele><time>2026-05-03T08:01:59.141Z</time></trkpt><trkpt lat="45.978287" lon="13.4393552"><ele>71.0</ele><time>2026-05-03T08:02:01.141Z</time></trkpt><trkpt lat="45.9782281" lon="13.43917"><ele>71.0</ele><time>2026-05-03T08:02:03.141Z</time></trkpt><trkpt lat="45.9781914" lon="13.4390083"><ele>70.5</ele><time>2026-05-03T08:02:04.14Z</time></trkpt><trkpt lat="45.9781413" lon="13.4388468"><ele>70.0</ele><time>2026-05-03T08:02:05.14Z</time></trkpt><trkpt lat="45.9780837" lon="13.4386685"><ele>69.5</ele><time>2026-05-03T08:02:06.141Z</time></trkpt><trkpt lat="45.9780288" lon="13.438484"><ele>69.0</ele><time>2026-05-03T08:02:07.141Z</time></trkpt><trkpt lat="45.9779701" lon="13.4382955"><ele>69.0</ele><time>2026-05-03T08:02:08.14Z</time></trkpt><trkpt lat="45.9779173" lon="13.4381038"><ele>69.0</ele><time>2026-05-03T08:02:09.141Z</time></trkpt><trkpt lat="45.9778787" lon="13.4379247"><ele>69.0</ele><time>2026-05-03T08:02:10.14Z</time></trkpt><trkpt lat="45.9778499" lon="13.4377431"><ele>69.0</ele><time>2026-05-03T08:02:11.141Z</time></trkpt><trkpt lat="45.9778377" lon="13.4375462"><ele>69.2</ele><time>2026-05-03T08:02:12.14Z</time></trkpt><trkpt lat="45.9778296" lon="13.4373854"><ele>69.4</ele><time>2026-05-03T08:02:13.141Z</time></trkpt><trkpt lat="45.9778287" lon="13.4372488"><ele>69.6</ele><time>2026-05-03T08:02:14.141Z</time></trkpt><trkpt lat="45.9778257" lon="13.437132"><ele>69.8</ele><time>2026-05-03T08:02:15.141Z</time></trkpt><trkpt lat="45.9778203" lon="13.4370169"><ele>70.0</ele><time>2026-05-03T08:02:16.141Z</time></trkpt><trkpt lat="45.9778119" lon="13.4368888"><ele>69.6</ele><time>2026-05-03T08:02:17.14Z</time></trkpt><trkpt lat="45.9778083" lon="13.4367698"><ele>69.2</ele><time>2026-05-03T08:02:18.141Z</time></trkpt><trkpt lat="45.9777978" lon="13.4366419"><ele>68.8</ele><time>2026-05-03T08:02:19.14Z</time></trkpt><trkpt lat="45.9777807" lon="13.4365022"><ele>68.4</ele><time>2026-05-03T08:02:20.141Z</time></trkpt><trkpt lat="45.9777585" lon="13.4363533"><ele>68.0</ele><time>2026-05-03T08:02:21.14Z</time></trkpt><trkpt lat="45.9777287" lon="13.4362089"><ele>67.8</ele><time>2026-05-03T08:02:22.14Z</time></trkpt><trkpt lat="45.9776945" lon="13.4360679"><ele>67.6</ele><time>2026-05-03T08:02:23.141Z</time></trkpt><trkpt lat="45.9776563" lon="13.4359333"><ele>67.4</ele><time>2026-05-03T08:02:24.141Z</time></trkpt><trkpt lat="45.9776237" lon="13.4358073"><ele>67.2</ele><time>2026-05-03T08:02:25.141Z</time></trkpt><trkpt lat="45.9775946" lon="13.4356905"><ele>67.0</ele><time>2026-05-03T08:02:26.14Z</time></trkpt><trkpt lat="45.9775672" lon="13.4355688"><ele>67.0</ele><time>2026-05-03T08:02:27.14Z</time></trkpt><trkpt lat="45.9775428" lon="13.4354487"><ele>67.0</ele><time>2026-05-03T08:02:28.141Z</time></trkpt><trkpt lat="45.9775083" lon="13.4353321"><ele>67.0</ele><time>2026-05-03T08:02:29.14Z</time></trkpt><trkpt lat="45.9774823" lon="13.4352205"><ele>67.0</ele><time>2026-05-03T08:02:30.141Z</time></trkpt><trkpt lat="45.9774552" lon="13.4351007"><ele>67.0</ele><time>2026-05-03T08:02:31.141Z</time></trkpt><trkpt lat="45.9774271" lon="13.4349747"><ele>67.0</ele><time>2026-05-03T08:02:32.14Z</time></trkpt><trkpt lat="45.9773971" lon="13.4348394"><ele>66.5</ele><time>2026-05-03T08:02:33.14Z</time></trkpt><trkpt lat="45.9773627" lon="13.4346953"><ele>66.0</ele><time>2026-05-03T08:02:34.141Z</time></trkpt><trkpt lat="45.9773209" lon="13.4345401"><ele>65.5</ele><time>2026-05-03T08:02:35.14Z</time></trkpt><trkpt lat="45.9772748" lon="13.4343771"><ele>65.0</ele><time>2026-05-03T08:02:36.141Z</time></trkpt><trkpt lat="45.9772203" lon="13.4342129"><ele>65.0</ele><time>2026-05-03T08:02:37.141Z</time></trkpt><trkpt lat="45.9771538" lon="13.4340477"><ele>65.0</ele><time>2026-05-03T08:02:38.14Z</time></trkpt><trkpt lat="45.977087" lon="13.4338977"><ele>65.0</ele><time>2026-05-03T08:02:39.141Z</time></trkpt><trkpt lat="45.9770299" lon="13.4337723"><ele>65.0</ele><time>2026-05-03T08:02:40.14Z</time></trkpt><trkpt lat="45.9769767" lon="13.4336494"><ele>65.0</ele><time>2026-05-03T08:02:41.14Z</time></trkpt><trkpt lat="45.9769334" lon="13.4335469"><ele>65.0</ele><time>2026-05-03T08:02:42.141Z</time></trkpt><trkpt lat="45.9768972" lon="13.4334662"><ele>65.0</ele><time>2026-05-03T08:02:43.141Z</time></trkpt><trkpt lat="45.976811" lon="13.4333927"><ele>65.0</ele><time>2026-05-03T08:02:45.141Z</time></trkpt><trkpt lat="45.9767194" lon="13.4334206"><ele>65.0</ele><time>2026-05-03T08:02:47.14Z</time></trkpt><trkpt lat="45.9766488" lon="13.4334672"><ele>65.0</ele><time>2026-05-03T08:02:48.14Z</time></trkpt><trkpt lat="45.9765626" lon="13.4335215"><ele>64.6</ele><time>2026-05-03T08:02:49.141Z</time></trkpt><trkpt lat="45.9764725" lon="13.4335719"><ele>64.2</ele><time>2026-05-03T08:02:50.14Z</time></trkpt><trkpt lat="45.9763758" lon="13.4336297"><ele>63.8</ele><time>2026-05-03T08:02:51.14Z</time></trkpt><trkpt lat="45.9762701" lon="13.4336944"><ele>63.4</ele><time>2026-05-03T08:02:52.141Z</time></trkpt><trkpt lat="45.976157" lon="13.4337618"><ele>63.0</ele><time>2026-05-03T08:02:53.141Z</time></trkpt><trkpt lat="45.9759279" lon="13.4339008"><ele>63.0</ele><time>2026-05-03T08:02:55.14Z</time></trkpt><trkpt lat="45.9758277" lon="13.433957"><ele>63.0</ele><time>2026-05-03T08:02:56.141Z</time></trkpt><trkpt lat="45.9757211" lon="13.434018"><ele>63.0</ele><time>2026-05-03T08:02:57.14Z</time></trkpt><trkpt lat="45.9756121" lon="13.4340814"><ele>63.0</ele><time>2026-05-03T08:02:58.141Z</time></trkpt><trkpt lat="45.9755015" lon="13.4341377"><ele>63.0</ele><time>2026-05-03T08:02:59.141Z</time></trkpt><trkpt lat="45.9753898" lon="13.4341938"><ele>63.0</ele><time>2026-05-03T08:03:00.141Z</time></trkpt><trkpt lat="45.9752761" lon="13.4342515"><ele>63.0</ele><time>2026-05-03T08:03:01.141Z</time></trkpt><trkpt lat="45.9751611" lon="13.4343102"><ele>63.0</ele><time>2026-05-03T08:03:02.14Z</time></trkpt><trkpt lat="45.9750364" lon="13.4343763"><ele>63.2</ele><time>2026-05-03T08:03:03.141Z</time></trkpt><trkpt lat="45.9749249" lon="13.4344371"><ele>63.4</ele><time>2026-05-03T08:03:04.14Z</time></trkpt><trkpt lat="45.9748223" lon="13.4344935"><ele>63.60000000000001</ele><time>2026-05-03T08:03:05.141Z</time></trkpt><trkpt lat="45.9747225" lon="13.4345509"><ele>63.800000000000004</ele><time>2026-05-03T08:03:06.141Z</time></trkpt><trkpt lat="45.9746289" lon="13.4346024"><ele>64.0</ele><time>2026-05-03T08:03:07.141Z</time></trkpt><trkpt lat="45.9745441" lon="13.4346521"><ele>63.0</ele><time>2026-05-03T08:03:08.141Z</time></trkpt><trkpt lat="45.9744661" lon="13.4347008"><ele>62.00000000000001</ele><time>2026-05-03T08:03:09.14Z</time></trkpt><trkpt lat="45.9743845" lon="13.4347526"><ele>61.00000000000001</ele><time>2026-05-03T08:03:10.141Z</time></trkpt><trkpt lat="45.9742942" lon="13.4347993"><ele>60.0</ele><time>2026-05-03T08:03:11.14Z</time></trkpt><trkpt lat="45.9741855" lon="13.4348455"><ele>59.0</ele><time>2026-05-03T08:03:12.141Z</time></trkpt><trkpt lat="45.9740832" lon="13.4348742"><ele>59.0</ele><time>2026-05-03T08:03:13.14Z</time></trkpt><trkpt lat="45.9739842" lon="13.4349037"><ele>59.00000000000001</ele><time>2026-05-03T08:03:14.141Z</time></trkpt><trkpt lat="45.9738766" lon="13.4349316"><ele>59.00000000000001</ele><time>2026-05-03T08:03:15.14Z</time></trkpt><trkpt lat="45.9737788" lon="13.4349575"><ele>59.0</ele><time>2026-05-03T08:03:16.14Z</time></trkpt><trkpt lat="45.9736837" lon="13.4349902"><ele>59.0</ele><time>2026-05-03T08:03:17.141Z</time></trkpt><trkpt lat="45.9735844" lon="13.4350271"><ele>59.0</ele><time>2026-05-03T08:03:18.141Z</time></trkpt><trkpt lat="45.9734874" lon="13.435077"><ele>59.00000000000001</ele><time>2026-05-03T08:03:19.141Z</time></trkpt><trkpt lat="45.9734001" lon="13.435141"><ele>59.00000000000001</ele><time>2026-05-03T08:03:20.14Z</time></trkpt><trkpt lat="45.9733128" lon="13.4352243"><ele>59.0</ele><time>2026-05-03T08:03:21.141Z</time></trkpt><trkpt lat="45.9732346" lon="13.4352999"><ele>59.0</ele><time>2026-05-03T08:03:22.141Z</time></trkpt><trkpt lat="45.9731636" lon="13.4353649"><ele>59.00000000000001</ele><time>2026-05-03T08:03:23.14Z</time></trkpt><trkpt lat="45.9730965" lon="13.4354035"><ele>59.0</ele><time>2026-05-03T08:03:24.141Z</time></trkpt><trkpt lat="45.9730039" lon="13.4354689"><ele>59.0</ele><time>2026-05-03T08:03:26.141Z</time></trkpt><trkpt lat="45.9729808" lon="13.4355701"><ele>59.0</ele><time>2026-05-03T08:03:28.141Z</time></trkpt><trkpt lat="45.9729842" lon="13.4357042"><ele>59.00000000000001</ele><time>2026-05-03T08:03:30.14Z</time></trkpt><trkpt lat="45.9729494" lon="13.4358217"><ele>59.0</ele><time>2026-05-03T08:03:32.141Z</time></trkpt><trkpt lat="45.972879" lon="13.4358034"><ele>59.0</ele><time>2026-05-03T08:03:34.14Z</time></trkpt><trkpt lat="45.9728139" lon="13.4357893"><ele>59.0</ele><time>2026-05-03T08:03:35.141Z</time></trkpt><trkpt lat="45.9727491" lon="13.4357849"><ele>59.0</ele><time>2026-05-03T08:03:36.14Z</time></trkpt><trkpt lat="45.9726819" lon="13.4357811"><ele>59.0</ele><time>2026-05-03T08:03:37.141Z</time></trkpt><trkpt lat="45.9726121" lon="13.4357773"><ele>59.0</ele><time>2026-05-03T08:03:38.14Z</time></trkpt><trkpt lat="45.9725335" lon="13.4357658"><ele>59.0</ele><time>2026-05-03T08:03:39.141Z</time></trkpt><trkpt lat="45.9724405" lon="13.4357518"><ele>59.0</ele><time>2026-05-03T08:03:40.141Z</time></trkpt><trkpt lat="45.9723554" lon="13.4357298"><ele>58.800000000000004</ele><time>2026-05-03T08:03:41.14Z</time></trkpt><trkpt lat="45.972263" lon="13.4357087"><ele>58.60000000000001</ele><time>2026-05-03T08:03:42.141Z</time></trkpt><trkpt lat="45.9721723" lon="13.4356851"><ele>58.4</ele><time>2026-05-03T08:03:43.141Z</time></trkpt><trkpt lat="45.972071" lon="13.4356663"><ele>58.2</ele><time>2026-05-03T08:03:44.141Z</time></trkpt><trkpt lat="45.9719815" lon="13.4356636"><ele>58.0</ele><time>2026-05-03T08:03:45.141Z</time></trkpt><trkpt lat="45.9718923" lon="13.4356636"><ele>57.99999999999999</ele><time>2026-05-03T08:03:46.141Z</time></trkpt><trkpt lat="45.9718054" lon="13.4356881"><ele>58.0</ele><time>2026-05-03T08:03:47.14Z</time></trkpt><trkpt lat="45.9717121" lon="13.4357316"><ele>58.0</ele><time>2026-05-03T08:03:48.141Z</time></trkpt><trkpt lat="45.9716313" lon="13.435779"><ele>58.0</ele><time>2026-05-03T08:03:49.141Z</time></trkpt><trkpt lat="45.9715559" lon="13.4358254"><ele>57.99999999999999</ele><time>2026-05-03T08:03:50.141Z</time></trkpt><trkpt lat="45.9714806" lon="13.4358583"><ele>58.0</ele><time>2026-05-03T08:03:51.141Z</time></trkpt><trkpt lat="45.9714154" lon="13.4358837"><ele>57.83333333333333</ele><time>2026-05-03T08:03:52.14Z</time></trkpt><trkpt lat="45.9713534" lon="13.4359087"><ele>57.666666666666664</ele><time>2026-05-03T08:03:53.141Z</time></trkpt><trkpt lat="45.9712939" lon="13.4359383"><ele>57.5</ele><time>2026-05-03T08:03:54.14Z</time></trkpt><trkpt lat="45.9711809" lon="13.4359801"><ele>57.33333333333333</ele><time>2026-05-03T08:03:56.14Z</time></trkpt><trkpt lat="45.9710875" lon="13.4360256"><ele>57.166666666666664</ele><time>2026-05-03T08:03:58.141Z</time></trkpt><trkpt lat="45.9710212" lon="13.4361115"><ele>57.0</ele><time>2026-05-03T08:04:00.141Z</time></trkpt><trkpt lat="45.9709939" lon="13.4362615"><ele>56.2</ele><time>2026-05-03T08:04:02.14Z</time></trkpt><trkpt lat="45.9709794" lon="13.4364276"><ele>55.400000000000006</ele><time>2026-05-03T08:04:04.141Z</time></trkpt><trkpt lat="45.9709457" lon="13.4365567"><ele>54.599999999999994</ele><time>2026-05-03T08:04:06.141Z</time></trkpt><trkpt lat="45.9708828" lon="13.4366594"><ele>53.8</ele><time>2026-05-03T08:04:08.141Z</time></trkpt><trkpt lat="45.9708001" lon="13.4367597"><ele>53.0</ele><time>2026-05-03T08:04:10.141Z</time></trkpt><trkpt lat="45.9707441" lon="13.436824"><ele>53.00000000000001</ele><time>2026-05-03T08:04:11.141Z</time></trkpt><trkpt lat="45.9706676" lon="13.4368926"><ele>53.0</ele><time>2026-05-03T08:04:12.141Z</time></trkpt><trkpt lat="45.9706046" lon="13.4369654"><ele>53.0</ele><time>2026-05-03T08:04:13.141Z</time></trkpt><trkpt lat="45.9705442" lon="13.4370426"><ele>53.0</ele><time>2026-05-03T08:04:14.14Z</time></trkpt><trkpt lat="45.970485" lon="13.4371146"><ele>53.00000000000001</ele><time>2026-05-03T08:04:15.141Z</time></trkpt><trkpt lat="45.9704212" lon="13.4371943"><ele>53.0</ele><time>2026-05-03T08:04:16.14Z</time></trkpt><trkpt lat="45.9703632" lon="13.437298"><ele>53.00000000000001</ele><time>2026-05-03T08:04:17.141Z</time></trkpt><trkpt lat="45.9703241" lon="13.4374123"><ele>53.0</ele><time>2026-05-03T08:04:18.14Z</time></trkpt><trkpt lat="45.9702923" lon="13.4375238"><ele>53.0</ele><time>2026-05-03T08:04:19.14Z</time></trkpt><trkpt lat="45.9702638" lon="13.4376319"><ele>53.0</ele><time>2026-05-03T08:04:20.141Z</time></trkpt><trkpt lat="45.9702301" lon="13.4377357"><ele>53.00000000000001</ele><time>2026-05-03T08:04:21.141Z</time></trkpt><trkpt lat="45.9701865" lon="13.4378331"><ele>53.0</ele><time>2026-05-03T08:04:22.141Z</time></trkpt><trkpt lat="45.9701402" lon="13.4379172"><ele>52.833333333333336</ele><time>2026-05-03T08:04:23.14Z</time></trkpt><trkpt lat="45.9700916" lon="13.4379962"><ele>52.66666666666667</ele><time>2026-05-03T08:04:24.14Z</time></trkpt><trkpt lat="45.9700365" lon="13.438073"><ele>52.5</ele><time>2026-05-03T08:04:25.141Z</time></trkpt><trkpt lat="45.969979" lon="13.4381334"><ele>52.33333333333333</ele><time>2026-05-03T08:04:26.141Z</time></trkpt><trkpt lat="45.969918" lon="13.4381858"><ele>52.166666666666664</ele><time>2026-05-03T08:04:27.141Z</time></trkpt><trkpt lat="45.9698435" lon="13.4382423"><ele>52.0</ele><time>2026-05-03T08:04:28.141Z</time></trkpt><trkpt lat="45.969774" lon="13.4383133"><ele>52.0</ele><time>2026-05-03T08:04:29.14Z</time></trkpt><trkpt lat="45.9696911" lon="13.4383815"><ele>52.0</ele><time>2026-05-03T08:04:30.141Z</time></trkpt><trkpt lat="45.9696038" lon="13.4384533"><ele>52.0</ele><time>2026-05-03T08:04:31.141Z</time></trkpt><trkpt lat="45.9695074" lon="13.4385252"><ele>52.0</ele><time>2026-05-03T08:04:32.141Z</time></trkpt><trkpt lat="45.9694181" lon="13.4385961"><ele>52.0</ele><time>2026-05-03T08:04:33.141Z</time></trkpt><trkpt lat="45.9693389" lon="13.4386574"><ele>51.99999999999999</ele><time>2026-05-03T08:04:34.141Z</time></trkpt><trkpt lat="45.9692643" lon="13.4387164"><ele>52.0</ele><time>2026-05-03T08:04:35.14Z</time></trkpt><trkpt lat="45.9691929" lon="13.4387888"><ele>52.0</ele><time>2026-05-03T08:04:36.141Z</time></trkpt><trkpt lat="45.969122" lon="13.438866"><ele>52.0</ele><time>2026-05-03T08:04:37.141Z</time></trkpt><trkpt lat="45.9690573" lon="13.4389303"><ele>51.99999999999999</ele><time>2026-05-03T08:04:38.141Z</time></trkpt><trkpt lat="45.9689887" lon="13.4389944"><ele>52.0</ele><time>2026-05-03T08:04:39.141Z</time></trkpt><trkpt lat="45.9689187" lon="13.4390535"><ele>51.8</ele><time>2026-05-03T08:04:40.141Z</time></trkpt><trkpt lat="45.968851" lon="13.4391114"><ele>51.6</ele><time>2026-05-03T08:04:41.141Z</time></trkpt><trkpt lat="45.9687703" lon="13.4391641"><ele>51.4</ele><time>2026-05-03T08:04:42.141Z</time></trkpt><trkpt lat="45.9686738" lon="13.4392202"><ele>51.199999999999996</ele><time>2026-05-03T08:04:43.141Z</time></trkpt><trkpt lat="45.9685852" lon="13.4392774"><ele>51.0</ele><time>2026-05-03T08:04:44.141Z</time></trkpt><trkpt lat="45.968496" lon="13.4393389"><ele>51.0</ele><time>2026-05-03T08:04:45.141Z</time></trkpt><trkpt lat="45.9683933" lon="13.4394112"><ele>51.0</ele><time>2026-05-03T08:04:46.141Z</time></trkpt><trkpt lat="45.9682801" lon="13.4394876"><ele>51.0</ele><time>2026-05-03T08:04:47.141Z</time></trkpt><trkpt lat="45.9681609" lon="13.4395671"><ele>51.0</ele><time>2026-05-03T08:04:48.141Z</time></trkpt><trkpt lat="45.9680429" lon="13.4396242"><ele>50.33333333333333</ele><time>2026-05-03T08:04:49.141Z</time></trkpt><trkpt lat="45.9678976" lon="13.4397239"><ele>49.666666666666664</ele><time>2026-05-03T08:04:50.14Z</time></trkpt><trkpt lat="45.967735" lon="13.4398134"><ele>49.0</ele><time>2026-05-03T08:04:51.141Z</time></trkpt><trkpt lat="45.9675728" lon="13.4399162"><ele>49.666666666666664</ele><time>2026-05-03T08:04:52.141Z</time></trkpt><trkpt lat="45.9673975" lon="13.4400202"><ele>50.33333333333333</ele><time>2026-05-03T08:04:53.14Z</time></trkpt><trkpt lat="45.9672176" lon="13.4401586"><ele>51.0</ele><time>2026-05-03T08:04:54.14Z</time></trkpt><trkpt lat="45.9670192" lon="13.4402745"><ele>51.0</ele><time>2026-05-03T08:04:55.14Z</time></trkpt><trkpt lat="45.966856" lon="13.4404037"><ele>51.0</ele><time>2026-05-03T08:04:56.141Z</time></trkpt><trkpt lat="45.9666841" lon="13.4405034"><ele>51.0</ele><time>2026-05-03T08:04:57.14Z</time></trkpt><trkpt lat="45.9665115" lon="13.4406112"><ele>50.25</ele><time>2026-05-03T08:04:58.14Z</time></trkpt><trkpt lat="45.9663762" lon="13.440694"><ele>49.5</ele><time>2026-05-03T08:04:59.14Z</time></trkpt><trkpt lat="45.9662282" lon="13.4407391"><ele>48.75</ele><time>2026-05-03T08:05:00.141Z</time></trkpt><trkpt lat="45.9661252" lon="13.4407681"><ele>48.0</ele><time>2026-05-03T08:05:01.141Z</time></trkpt><trkpt lat="45.9660087" lon="13.4407857"><ele>48.0</ele><time>2026-05-03T08:05:02.14Z</time></trkpt><trkpt lat="45.9659427" lon="13.4407603"><ele>48.0</ele><time>2026-05-03T08:05:03.14Z</time></trkpt><trkpt lat="45.9658595" lon="13.4407629"><ele>48.0</ele><time>2026-05-03T08:05:04.141Z</time></trkpt><trkpt lat="45.9657664" lon="13.4407866"><ele>48.0</ele><time>2026-05-03T08:05:05.141Z</time></trkpt><trkpt lat="45.9656639" lon="13.4408272"><ele>48.0</ele><time>2026-05-03T08:05:06.141Z</time></trkpt><trkpt lat="45.9655211" lon="13.4409241"><ele>48.75</ele><time>2026-05-03T08:05:07.14Z</time></trkpt><trkpt lat="45.9653481" lon="13.4410666"><ele>49.5</ele><time>2026-05-03T08:05:08.141Z</time></trkpt><trkpt lat="45.9652617" lon="13.4410952"><ele>50.25</ele><time>2026-05-03T08:05:09.14Z</time></trkpt><trkpt lat="45.9651666" lon="13.4411596"><ele>51.0</ele><time>2026-05-03T08:05:10.141Z</time></trkpt><trkpt lat="45.9650674" lon="13.4412343"><ele>50.66666666666667</ele><time>2026-05-03T08:05:11.141Z</time></trkpt><trkpt lat="45.9650034" lon="13.4412151"><ele>50.333333333333336</ele><time>2026-05-03T08:05:12.141Z</time></trkpt><trkpt lat="45.964924" lon="13.4412126"><ele>50.0</ele><time>2026-05-03T08:05:13.14Z</time></trkpt><trkpt lat="45.9661854" lon="13.4393385"><ele>49.4</ele><time>2026-05-03T08:05:14.139Z</time></trkpt><trkpt lat="45.9660923" lon="13.4393624"><ele>48.8</ele><time>2026-05-03T08:05:15.14Z</time></trkpt><trkpt lat="45.9659943" lon="13.439388"><ele>48.2</ele><time>2026-05-03T08:05:16.14Z</time></trkpt><trkpt lat="45.9658955" lon="13.4394092"><ele>47.6</ele><time>2026-05-03T08:05:17.14Z</time></trkpt><trkpt lat="45.9657931" lon="13.4394319"><ele>47.0</ele><time>2026-05-03T08:05:18.14Z</time></trkpt><trkpt lat="45.9656957" lon="13.4394447"><ele>46.857142857142854</ele><time>2026-05-03T08:05:19.14Z</time></trkpt><trkpt lat="45.9656167" lon="13.439454"><ele>46.71428571428571</ele><time>2026-05-03T08:05:20.139Z</time></trkpt><trkpt lat="45.965549" lon="13.4394606"><ele>46.57142857142857</ele><time>2026-05-03T08:05:21.14Z</time></trkpt><trkpt lat="45.9654813" lon="13.4394719"><ele>46.42857142857143</ele><time>2026-05-03T08:05:22.14Z</time></trkpt><trkpt lat="45.9653814" lon="13.4394976"><ele>46.285714285714285</ele><time>2026-05-03T08:05:24.14Z</time></trkpt><trkpt lat="45.9653443" lon="13.4395755"><ele>46.142857142857146</ele><time>2026-05-03T08:05:26.139Z</time></trkpt><trkpt lat="45.9653453" lon="13.4396676"><ele>46.0</ele><time>2026-05-03T08:05:27.14Z</time></trkpt><trkpt lat="45.9653576" lon="13.4397643"><ele>46.599999999999994</ele><time>2026-05-03T08:05:28.14Z</time></trkpt><trkpt lat="45.9653737" lon="13.4398814"><ele>47.2</ele><time>2026-05-03T08:05:29.14Z</time></trkpt><trkpt lat="45.9653627" lon="13.4399898"><ele>47.8</ele><time>2026-05-03T08:05:30.139Z</time></trkpt><trkpt lat="45.9653708" lon="13.4401264"><ele>48.400000000000006</ele><time>2026-05-03T08:05:31.14Z</time></trkpt><trkpt lat="45.9653828" lon="13.4402738"><ele>49.0</ele><time>2026-05-03T08:05:32.14Z</time></trkpt><trkpt lat="45.9653949" lon="13.4404353"><ele>49.5</ele><time>2026-05-03T08:05:33.139Z</time></trkpt><trkpt lat="45.9654065" lon="13.4406126"><ele>50.0</ele><time>2026-05-03T08:05:34.139Z</time></trkpt><trkpt lat="45.9654199" lon="13.4407927"><ele>50.5</ele><time>2026-05-03T08:05:35.139Z</time></trkpt><trkpt lat="45.9654377" lon="13.4409753"><ele>51.0</ele><time>2026-05-03T08:05:36.14Z</time></trkpt><trkpt lat="45.9654626" lon="13.4411576"><ele>50.75</ele><time>2026-05-03T08:05:37.14Z</time></trkpt><trkpt lat="45.9654887" lon="13.44136"><ele>50.5</ele><time>2026-05-03T08:05:38.14Z</time></trkpt><trkpt lat="45.965514" lon="13.4415688"><ele>50.25</ele><time>2026-05-03T08:05:39.14Z</time></trkpt><trkpt lat="45.9655385" lon="13.4417794"><ele>50.0</ele><time>2026-05-03T08:05:40.14Z</time></trkpt><trkpt lat="45.9655557" lon="13.4419827"><ele>49.66666666666667</ele><time>2026-05-03T08:05:41.14Z</time></trkpt><trkpt lat="45.9655738" lon="13.4421962"><ele>49.33333333333333</ele><time>2026-05-03T08:05:42.14Z</time></trkpt><trkpt lat="45.9655973" lon="13.4424129"><ele>49.0</ele><time>2026-05-03T08:05:43.139Z</time></trkpt><trkpt lat="45.9656251" lon="13.442636"><ele>49.0</ele><time>2026-05-03T08:05:44.14Z</time></trkpt><trkpt lat="45.9656518" lon="13.4428511"><ele>49.0</ele><time>2026-05-03T08:05:45.139Z</time></trkpt><trkpt lat="45.965676" lon="13.4430654"><ele>49.0</ele><time>2026-05-03T08:05:46.139Z</time></trkpt><trkpt lat="45.9656975" lon="13.4432806"><ele>49.0</ele><time>2026-05-03T08:05:47.14Z</time></trkpt><trkpt lat="45.9657201" lon="13.4434957"><ele>49.0</ele><time>2026-05-03T08:05:48.14Z</time></trkpt><trkpt lat="45.9657466" lon="13.4437094"><ele>49.0</ele><time>2026-05-03T08:05:49.14Z</time></trkpt><trkpt lat="45.9657724" lon="13.4439197"><ele>49.33333333333333</ele><time>2026-05-03T08:05:50.14Z</time></trkpt><trkpt lat="45.965798" lon="13.4441395"><ele>49.66666666666667</ele><time>2026-05-03T08:05:51.14Z</time></trkpt><trkpt lat="45.9658247" lon="13.4443549"><ele>50.0</ele><time>2026-05-03T08:05:52.14Z</time></trkpt><trkpt lat="45.9658498" lon="13.444569"><ele>50.5</ele><time>2026-05-03T08:05:53.14Z</time></trkpt><trkpt lat="45.9658739" lon="13.4447784"><ele>51.0</ele><time>2026-05-03T08:05:54.139Z</time></trkpt><trkpt lat="45.9658967" lon="13.4449847"><ele>51.5</ele><time>2026-05-03T08:05:55.14Z</time></trkpt><trkpt lat="45.96592" lon="13.4451898"><ele>52.0</ele><time>2026-05-03T08:05:56.139Z</time></trkpt><trkpt lat="45.965941" lon="13.4453984"><ele>53.0</ele><time>2026-05-03T08:05:57.14Z</time></trkpt><trkpt lat="45.9659638" lon="13.445597"><ele>54.0</ele><time>2026-05-03T08:05:58.14Z</time></trkpt><trkpt lat="45.965985" lon="13.4457937"><ele>55.0</ele><time>2026-05-03T08:05:59.139Z</time></trkpt><trkpt lat="45.966006" lon="13.4459854"><ele>56.0</ele><time>2026-05-03T08:06:00.139Z</time></trkpt><trkpt lat="45.9660273" lon="13.446174"><ele>56.75</ele><time>2026-05-03T08:06:01.139Z</time></trkpt><trkpt lat="45.9660484" lon="13.4463585"><ele>57.5</ele><time>2026-05-03T08:06:02.14Z</time></trkpt><trkpt lat="45.9660642" lon="13.4465489"><ele>58.25</ele><time>2026-05-03T08:06:03.139Z</time></trkpt><trkpt lat="45.966078" lon="13.4467472"><ele>59.0</ele><time>2026-05-03T08:06:04.139Z</time></trkpt><trkpt lat="45.9660805" lon="13.4469461"><ele>59.0</ele><time>2026-05-03T08:06:05.14Z</time></trkpt><trkpt lat="45.9660715" lon="13.4471214"><ele>59.00000000000001</ele><time>2026-05-03T08:06:06.14Z</time></trkpt><trkpt lat="45.9660566" lon="13.4472841"><ele>59.00000000000001</ele><time>2026-05-03T08:06:07.14Z</time></trkpt><trkpt lat="45.966037" lon="13.4474315"><ele>59.0</ele><time>2026-05-03T08:06:08.139Z</time></trkpt><trkpt lat="45.9660143" lon="13.447559"><ele>59.0</ele><time>2026-05-03T08:06:09.14Z</time></trkpt><trkpt lat="45.9659912" lon="13.4476641"><ele>59.2</ele><time>2026-05-03T08:06:10.139Z</time></trkpt><trkpt lat="45.9659179" lon="13.4477752"><ele>59.400000000000006</ele><time>2026-05-03T08:06:12.14Z</time></trkpt><trkpt lat="45.9657893" lon="13.4477376"><ele>59.6</ele><time>2026-05-03T08:06:14.14Z</time></trkpt><trkpt lat="45.9657146" lon="13.4476758"><ele>59.8</ele><time>2026-05-03T08:06:15.14Z</time></trkpt><trkpt lat="45.9656325" lon="13.4476066"><ele>60.0</ele><time>2026-05-03T08:06:16.14Z</time></trkpt><trkpt lat="45.9655498" lon="13.4475352"><ele>59.0</ele><time>2026-05-03T08:06:17.139Z</time></trkpt><trkpt lat="45.9654577" lon="13.4474568"><ele>58.0</ele><time>2026-05-03T08:06:18.139Z</time></trkpt><trkpt lat="45.9653568" lon="13.4473823"><ele>57.0</ele><time>2026-05-03T08:06:19.14Z</time></trkpt><trkpt lat="45.9652533" lon="13.4473044"><ele>56.0</ele><time>2026-05-03T08:06:20.139Z</time></trkpt><trkpt lat="45.9651513" lon="13.4472474"><ele>55.0</ele><time>2026-05-03T08:06:21.14Z</time></trkpt><trkpt lat="45.965041" lon="13.4471878"><ele>54.75</ele><time>2026-05-03T08:06:22.14Z</time></trkpt><trkpt lat="45.9649291" lon="13.4471453"><ele>54.5</ele><time>2026-05-03T08:06:23.14Z</time></trkpt><trkpt lat="45.9648125" lon="13.4471186"><ele>54.25</ele><time>2026-05-03T08:06:24.139Z</time></trkpt><trkpt lat="45.9646941" lon="13.4470982"><ele>54.0</ele><time>2026-05-03T08:06:25.14Z</time></trkpt><trkpt lat="45.9645797" lon="13.4470747"><ele>53.6</ele><time>2026-05-03T08:06:26.14Z</time></trkpt><trkpt lat="45.9644725" lon="13.4470427"><ele>53.2</ele><time>2026-05-03T08:06:27.139Z</time></trkpt><trkpt lat="45.9643764" lon="13.4470122"><ele>52.800000000000004</ele><time>2026-05-03T08:06:28.14Z</time></trkpt><trkpt lat="45.9642969" lon="13.4469776"><ele>52.400000000000006</ele><time>2026-05-03T08:06:29.14Z</time></trkpt><trkpt lat="45.9642284" lon="13.4469443"><ele>52.0</ele><time>2026-05-03T08:06:30.14Z</time></trkpt><trkpt lat="45.9641181" lon="13.4468791"><ele>51.99999999999999</ele><time>2026-05-03T08:06:32.14Z</time></trkpt><trkpt lat="45.9640625" lon="13.4468282"><ele>52.0</ele><time>2026-05-03T08:06:33.14Z</time></trkpt><trkpt lat="45.9640026" lon="13.4467705"><ele>52.0</ele><time>2026-05-03T08:06:34.139Z</time></trkpt><trkpt lat="45.9639241" lon="13.4467011"><ele>52.0</ele><time>2026-05-03T08:06:35.14Z</time></trkpt><trkpt lat="45.9638512" lon="13.4466418"><ele>51.99999999999999</ele><time>2026-05-03T08:06:36.14Z</time></trkpt><trkpt lat="45.9637812" lon="13.4465709"><ele>52.0</ele><time>2026-05-03T08:06:37.14Z</time></trkpt><trkpt lat="45.9637052" lon="13.446513"><ele>51.99999999999999</ele><time>2026-05-03T08:06:38.14Z</time></trkpt><trkpt lat="45.9636301" lon="13.4464486"><ele>52.0</ele><time>2026-05-03T08:06:39.139Z</time></trkpt><trkpt lat="45.9635616" lon="13.4463847"><ele>52.0</ele><time>2026-05-03T08:06:40.14Z</time></trkpt><trkpt lat="45.9635046" lon="13.4463181"><ele>52.0</ele><time>2026-05-03T08:06:41.14Z</time></trkpt><trkpt lat="45.9634533" lon="13.4462394"><ele>51.99999999999999</ele><time>2026-05-03T08:06:42.14Z</time></trkpt><trkpt lat="45.9634015" lon="13.446143"><ele>52.0</ele><time>2026-05-03T08:06:43.14Z</time></trkpt><trkpt lat="45.9633544" lon="13.4460478"><ele>51.99999999999999</ele><time>2026-05-03T08:06:44.14Z</time></trkpt><trkpt lat="45.9633124" lon="13.4459628"><ele>52.0</ele><time>2026-05-03T08:06:45.14Z</time></trkpt><trkpt lat="45.9632642" lon="13.4458635"><ele>52.0</ele><time>2026-05-03T08:06:46.14Z</time></trkpt><trkpt lat="45.9632117" lon="13.4457658"><ele>52.0</ele><time>2026-05-03T08:06:47.14Z</time></trkpt><trkpt lat="45.963157" lon="13.4456857"><ele>51.99999999999999</ele><time>2026-05-03T08:06:48.14Z</time></trkpt><trkpt lat="45.9631064" lon="13.445626"><ele>52.0</ele><time>2026-05-03T08:06:49.14Z</time></trkpt><trkpt lat="45.962995" lon="13.4455146"><ele>52.0</ele><time>2026-05-03T08:06:51.14Z</time></trkpt><trkpt lat="45.9629253" lon="13.4454731"><ele>52.0</ele><time>2026-05-03T08:06:52.14Z</time></trkpt><trkpt lat="45.9628532" lon="13.4454383"><ele>52.0</ele><time>2026-05-03T08:06:53.14Z</time></trkpt><trkpt lat="45.9627892" lon="13.4454147"><ele>52.0</ele><time>2026-05-03T08:06:54.139Z</time></trkpt><trkpt lat="45.9627254" lon="13.4453832"><ele>52.0</ele><time>2026-05-03T08:06:55.14Z</time></trkpt><trkpt lat="45.9626665" lon="13.4453488"><ele>52.0</ele><time>2026-05-03T08:06:56.139Z</time></trkpt><trkpt lat="45.9626111" lon="13.4452881"><ele>52.0</ele><time>2026-05-03T08:06:57.14Z</time></trkpt><trkpt lat="45.9625672" lon="13.4452087"><ele>51.666666666666664</ele><time>2026-05-03T08:06:58.139Z</time></trkpt><trkpt lat="45.9625307" lon="13.4451069"><ele>51.33333333333333</ele><time>2026-05-03T08:06:59.14Z</time></trkpt><trkpt lat="45.9625069" lon="13.4449854"><ele>51.0</ele><time>2026-05-03T08:07:00.139Z</time></trkpt><trkpt lat="45.9624813" lon="13.4448769"><ele>50.66666666666667</ele><time>2026-05-03T08:07:01.14Z</time></trkpt><trkpt lat="45.9624545" lon="13.4447693"><ele>50.333333333333336</ele><time>2026-05-03T08:07:02.14Z</time></trkpt><trkpt lat="45.9624245" lon="13.4446536"><ele>50.0</ele><time>2026-05-03T08:07:03.14Z</time></trkpt><trkpt lat="45.9623981" lon="13.4445501"><ele>49.8</ele><time>2026-05-03T08:07:04.14Z</time></trkpt><trkpt lat="45.9623229" lon="13.4444296"><ele>49.6</ele><time>2026-05-03T08:07:06.14Z</time></trkpt><trkpt lat="45.9622249" lon="13.4443969"><ele>49.400000000000006</ele><time>2026-05-03T08:07:08.14Z</time></trkpt><trkpt lat="45.9621097" lon="13.4443921"><ele>49.2</ele><time>2026-05-03T08:07:10.139Z</time></trkpt><trkpt lat="45.9620261" lon="13.4443366"><ele>49.0</ele><time>2026-05-03T08:07:12.139Z</time></trkpt><trkpt lat="45.9619761" lon="13.4441952"><ele>48.99999999999999</ele><time>2026-05-03T08:07:14.14Z</time></trkpt><trkpt lat="45.9619436" lon="13.4441138"><ele>49.0</ele><time>2026-05-03T08:07:15.14Z</time></trkpt><trkpt lat="45.9618983" lon="13.4440482"><ele>49.0</ele><time>2026-05-03T08:07:16.139Z</time></trkpt><trkpt lat="45.9617821" lon="13.4440086"><ele>49.0</ele><time>2026-05-03T08:07:18.139Z</time></trkpt><trkpt lat="45.9617079" lon="13.4440214"><ele>48.99999999999999</ele><time>2026-05-03T08:07:19.14Z</time></trkpt><trkpt lat="45.9616395" lon="13.4440529"><ele>49.0</ele><time>2026-05-03T08:07:20.14Z</time></trkpt><trkpt lat="45.9615762" lon="13.4440854"><ele>49.800000000000004</ele><time>2026-05-03T08:07:21.139Z</time></trkpt><trkpt lat="45.9614587" lon="13.4441123"><ele>50.6</ele><time>2026-05-03T08:07:23.14Z</time></trkpt><trkpt lat="45.9613489" lon="13.4440682"><ele>51.4</ele><time>2026-05-03T08:07:25.139Z</time></trkpt><trkpt lat="45.9612328" lon="13.4440114"><ele>52.2</ele><time>2026-05-03T08:07:27.139Z</time></trkpt><trkpt lat="45.9611548" lon="13.4439927"><ele>53.0</ele><time>2026-05-03T08:07:28.14Z</time></trkpt><trkpt lat="45.9610697" lon="13.4439843"><ele>53.00000000000001</ele><time>2026-05-03T08:07:29.14Z</time></trkpt><trkpt lat="45.9609933" lon="13.4439771"><ele>53.0</ele><time>2026-05-03T08:07:30.14Z</time></trkpt><trkpt lat="45.9609226" lon="13.4439682"><ele>53.0</ele><time>2026-05-03T08:07:31.14Z</time></trkpt><trkpt lat="45.9608401" lon="13.4439585"><ele>53.0</ele><time>2026-05-03T08:07:32.14Z</time></trkpt><trkpt lat="45.9607534" lon="13.4439455"><ele>53.00000000000001</ele><time>2026-05-03T08:07:33.14Z</time></trkpt><trkpt lat="45.9606648" lon="13.4439342"><ele>53.0</ele><time>2026-05-03T08:07:34.139Z</time></trkpt><trkpt lat="45.9605844" lon="13.4439245"><ele>53.0</ele><time>2026-05-03T08:07:35.14Z</time></trkpt><trkpt lat="45.9605078" lon="13.4439186"><ele>53.0</ele><time>2026-05-03T08:07:36.14Z</time></trkpt><trkpt lat="45.9604273" lon="13.4439258"><ele>53.0</ele><time>2026-05-03T08:07:37.14Z</time></trkpt><trkpt lat="45.9603569" lon="13.4439326"><ele>53.0</ele><time>2026-05-03T08:07:38.14Z</time></trkpt><trkpt lat="45.9602242" lon="13.443892"><ele>53.0</ele><time>2026-05-03T08:07:40.14Z</time></trkpt><trkpt lat="45.9601408" lon="13.4438531"><ele>53.00000000000001</ele><time>2026-05-03T08:07:41.14Z</time></trkpt><trkpt lat="45.9600714" lon="13.4438392"><ele>53.0</ele><time>2026-05-03T08:07:42.14Z</time></trkpt><trkpt lat="45.9599912" lon="13.4438207"><ele>53.0</ele><time>2026-05-03T08:07:43.14Z</time></trkpt><trkpt lat="45.9599132" lon="13.4437935"><ele>53.0</ele><time>2026-05-03T08:07:44.14Z</time></trkpt><trkpt lat="45.9598404" lon="13.4437666"><ele>53.00000000000001</ele><time>2026-05-03T08:07:45.139Z</time></trkpt><trkpt lat="45.9597571" lon="13.4437384"><ele>53.0</ele><time>2026-05-03T08:07:46.14Z</time></trkpt><trkpt lat="45.959671" lon="13.4437033"><ele>52.599999999999994</ele><time>2026-05-03T08:07:47.14Z</time></trkpt><trkpt lat="45.9595797" lon="13.4436748"><ele>52.199999999999996</ele><time>2026-05-03T08:07:48.14Z</time></trkpt><trkpt lat="45.9594883" lon="13.4436466"><ele>51.8</ele><time>2026-05-03T08:07:49.14Z</time></trkpt><trkpt lat="45.9593859" lon="13.4436306"><ele>51.4</ele><time>2026-05-03T08:07:50.14Z</time></trkpt><trkpt lat="45.959303" lon="13.4436106"><ele>51.0</ele><time>2026-05-03T08:07:51.14Z</time></trkpt><trkpt lat="45.9592098" lon="13.4435819"><ele>50.666666666666664</ele><time>2026-05-03T08:07:52.139Z</time></trkpt><trkpt lat="45.9591162" lon="13.4435509"><ele>50.33333333333333</ele><time>2026-05-03T08:07:53.14Z</time></trkpt><trkpt lat="45.9590211" lon="13.4435179"><ele>50.0</ele><time>2026-05-03T08:07:54.14Z</time></trkpt><trkpt lat="45.9589345" lon="13.4434891"><ele>49.666666666666664</ele><time>2026-05-03T08:07:55.14Z</time></trkpt><trkpt lat="45.9588595" lon="13.4434678"><ele>49.33333333333333</ele><time>2026-05-03T08:07:56.14Z</time></trkpt><trkpt lat="45.9587956" lon="13.4434438"><ele>49.0</ele><time>2026-05-03T08:07:57.14Z</time></trkpt><trkpt lat="45.9587189" lon="13.4434225"><ele>49.0</ele><time>2026-05-03T08:07:58.139Z</time></trkpt><trkpt lat="45.9586352" lon="13.4433971"><ele>49.0</ele><time>2026-05-03T08:07:59.14Z</time></trkpt><trkpt lat="45.958538" lon="13.4433817"><ele>49.0</ele><time>2026-05-03T08:08:00.14Z</time></trkpt><trkpt lat="45.9584361" lon="13.4433743"><ele>49.0</ele><time>2026-05-03T08:08:01.139Z</time></trkpt><trkpt lat="45.9583338" lon="13.4433843"><ele>49.0</ele><time>2026-05-03T08:08:02.14Z</time></trkpt><trkpt lat="45.958233" lon="13.4433897"><ele>49.2</ele><time>2026-05-03T08:08:03.14Z</time></trkpt><trkpt lat="45.9581374" lon="13.4433837"><ele>49.400000000000006</ele><time>2026-05-03T08:08:04.139Z</time></trkpt><trkpt lat="45.9580364" lon="13.4433799"><ele>49.6</ele><time>2026-05-03T08:08:05.139Z</time></trkpt><trkpt lat="45.9579297" lon="13.4433688"><ele>49.8</ele><time>2026-05-03T08:08:06.14Z</time></trkpt><trkpt lat="45.9578107" lon="13.4433545"><ele>50.0</ele><time>2026-05-03T08:08:07.14Z</time></trkpt><trkpt lat="45.9577017" lon="13.4433375"><ele>50.0</ele><time>2026-05-03T08:08:08.14Z</time></trkpt><trkpt lat="45.9575852" lon="13.4433257"><ele>50.0</ele><time>2026-05-03T08:08:09.14Z</time></trkpt><trkpt lat="45.9574752" lon="13.4433074"><ele>50.0</ele><time>2026-05-03T08:08:10.139Z</time></trkpt><trkpt lat="45.9573688" lon="13.4432929"><ele>50.0</ele><time>2026-05-03T08:08:11.14Z</time></trkpt><trkpt lat="45.957264" lon="13.4432784"><ele>50.0</ele><time>2026-05-03T08:08:12.14Z</time></trkpt><trkpt lat="45.9571545" lon="13.4432639"><ele>50.0</ele><time>2026-05-03T08:08:13.14Z</time></trkpt><trkpt lat="45.9570453" lon="13.4432488"><ele>50.0</ele><time>2026-05-03T08:08:14.14Z</time></trkpt><trkpt lat="45.9569419" lon="13.4432352"><ele>50.0</ele><time>2026-05-03T08:08:15.14Z</time></trkpt><trkpt lat="45.9568316" lon="13.4432074"><ele>50.0</ele><time>2026-05-03T08:08:16.14Z</time></trkpt><trkpt lat="45.9567193" lon="13.4431919"><ele>50.0</ele><time>2026-05-03T08:08:17.14Z</time></trkpt><trkpt lat="45.9566077" lon="13.4431771"><ele>50.2</ele><time>2026-05-03T08:08:18.14Z</time></trkpt><trkpt lat="45.9564965" lon="13.4431677"><ele>50.4</ele><time>2026-05-03T08:08:19.14Z</time></trkpt><trkpt lat="45.9563871" lon="13.4431618"><ele>50.599999999999994</ele><time>2026-05-03T08:08:20.139Z</time></trkpt><trkpt lat="45.9562769" lon="13.4431575"><ele>50.8</ele><time>2026-05-03T08:08:21.14Z</time></trkpt><trkpt lat="45.9561664" lon="13.4431599"><ele>51.0</ele><time>2026-05-03T08:08:22.139Z</time></trkpt><trkpt lat="45.9560572" lon="13.443162"><ele>51.0</ele><time>2026-05-03T08:08:23.139Z</time></trkpt><trkpt lat="45.9559455" lon="13.4431665"><ele>51.0</ele><time>2026-05-03T08:08:24.14Z</time></trkpt><trkpt lat="45.9558381" lon="13.4431629"><ele>51.0</ele><time>2026-05-03T08:08:25.139Z</time></trkpt><trkpt lat="45.9557352" lon="13.4431668"><ele>51.0</ele><time>2026-05-03T08:08:26.14Z</time></trkpt><trkpt lat="45.955637" lon="13.4431704"><ele>51.0</ele><time>2026-05-03T08:08:27.139Z</time></trkpt><trkpt lat="45.9555459" lon="13.4431768"><ele>51.0</ele><time>2026-05-03T08:08:28.14Z</time></trkpt><trkpt lat="45.9554658" lon="13.4431809"><ele>51.0</ele><time>2026-05-03T08:08:29.14Z</time></trkpt><trkpt lat="45.9553981" lon="13.4431875"><ele>51.0</ele><time>2026-05-03T08:08:30.139Z</time></trkpt><trkpt lat="45.9553129" lon="13.4431768"><ele>51.0</ele><time>2026-05-03T08:08:32.139Z</time></trkpt><trkpt lat="45.9552106" lon="13.4431596"><ele>51.0</ele><time>2026-05-03T08:08:34.14Z</time></trkpt><trkpt lat="45.9551268" lon="13.4431438"><ele>51.0</ele><time>2026-05-03T08:08:35.14Z</time></trkpt><trkpt lat="45.955036" lon="13.4431262"><ele>51.0</ele><time>2026-05-03T08:08:36.14Z</time></trkpt><trkpt lat="45.9549503" lon="13.4431126"><ele>51.0</ele><time>2026-05-03T08:08:37.139Z</time></trkpt><trkpt lat="45.9548623" lon="13.4430935"><ele>51.0</ele><time>2026-05-03T08:08:38.14Z</time></trkpt><trkpt lat="45.9547632" lon="13.4430833"><ele>51.0</ele><time>2026-05-03T08:08:39.14Z</time></trkpt><trkpt lat="45.9546603" lon="13.4430714"><ele>51.0</ele><time>2026-05-03T08:08:40.139Z</time></trkpt><trkpt lat="45.9545524" lon="13.443066"><ele>51.0</ele><time>2026-05-03T08:08:41.14Z</time></trkpt><trkpt lat="45.9544366" lon="13.4430611"><ele>51.0</ele><time>2026-05-03T08:08:42.139Z</time></trkpt><trkpt lat="45.9543222" lon="13.4430663"><ele>51.0</ele><time>2026-05-03T08:08:43.14Z</time></trkpt><trkpt lat="45.9542088" lon="13.4430647"><ele>51.0</ele><time>2026-05-03T08:08:44.139Z</time></trkpt><trkpt lat="45.9541" lon="13.4430597"><ele>51.0</ele><time>2026-05-03T08:08:45.14Z</time></trkpt><trkpt lat="45.9539891" lon="13.4430478"><ele>51.0</ele><time>2026-05-03T08:08:46.14Z</time></trkpt><trkpt lat="45.9538748" lon="13.4430323"><ele>51.0</ele><time>2026-05-03T08:08:47.14Z</time></trkpt><trkpt lat="45.9537551" lon="13.4430096"><ele>51.0</ele><time>2026-05-03T08:08:48.139Z</time></trkpt><trkpt lat="45.9536373" lon="13.4429932"><ele>51.0</ele><time>2026-05-03T08:08:49.139Z</time></trkpt><trkpt lat="45.9535337" lon="13.4429737"><ele>51.0</ele><time>2026-05-03T08:08:50.14Z</time></trkpt><trkpt lat="45.9534347" lon="13.4429549"><ele>51.0</ele><time>2026-05-03T08:08:51.139Z</time></trkpt><trkpt lat="45.9533368" lon="13.4429292"><ele>51.0</ele><time>2026-05-03T08:08:52.138Z</time></trkpt><trkpt lat="45.9532462" lon="13.4429174"><ele>51.0</ele><time>2026-05-03T08:08:53.139Z</time></trkpt><trkpt lat="45.9531573" lon="13.4429079"><ele>50.666666666666664</ele><time>2026-05-03T08:08:54.139Z</time></trkpt><trkpt lat="45.9530699" lon="13.442893"><ele>50.33333333333333</ele><time>2026-05-03T08:08:55.139Z</time></trkpt><trkpt lat="45.9529915" lon="13.4428869"><ele>50.0</ele><time>2026-05-03T08:08:56.138Z</time></trkpt><trkpt lat="45.9529257" lon="13.4428786"><ele>49.666666666666664</ele><time>2026-05-03T08:08:57.139Z</time></trkpt><trkpt lat="45.9528511" lon="13.4428667"><ele>49.33333333333333</ele><time>2026-05-03T08:08:59.139Z</time></trkpt><trkpt lat="45.9527675" lon="13.4428816"><ele>49.0</ele><time>2026-05-03T08:09:04.139Z</time></trkpt><trkpt lat="45.9526486" lon="13.4428526"><ele>49.0</ele><time>2026-05-03T08:09:06.139Z</time></trkpt><trkpt lat="45.9525792" lon="13.4428401"><ele>49.0</ele><time>2026-05-03T08:09:07.139Z</time></trkpt><trkpt lat="45.9524919" lon="13.442817"><ele>49.0</ele><time>2026-05-03T08:09:08.139Z</time></trkpt><trkpt lat="45.9523986" lon="13.4427971"><ele>49.0</ele><time>2026-05-03T08:09:09.139Z</time></trkpt><trkpt lat="45.9523009" lon="13.4427795"><ele>49.0</ele><time>2026-05-03T08:09:10.138Z</time></trkpt><trkpt lat="45.9521991" lon="13.4427594"><ele>48.800000000000004</ele><time>2026-05-03T08:09:11.138Z</time></trkpt><trkpt lat="45.9521018" lon="13.442735"><ele>48.6</ele><time>2026-05-03T08:09:12.139Z</time></trkpt><trkpt lat="45.9520042" lon="13.4427125"><ele>48.4</ele><time>2026-05-03T08:09:13.138Z</time></trkpt><trkpt lat="45.9518985" lon="13.4426881"><ele>48.2</ele><time>2026-05-03T08:09:14.139Z</time></trkpt><trkpt lat="45.9517936" lon="13.4426635"><ele>48.0</ele><time>2026-05-03T08:09:15.139Z</time></trkpt><trkpt lat="45.9516927" lon="13.4426363"><ele>48.0</ele><time>2026-05-03T08:09:16.139Z</time></trkpt><trkpt lat="45.9515872" lon="13.4426107"><ele>48.0</ele><time>2026-05-03T08:09:17.139Z</time></trkpt><trkpt lat="45.9514777" lon="13.4425846"><ele>48.0</ele><time>2026-05-03T08:09:18.139Z</time></trkpt><trkpt lat="45.9513671" lon="13.4425589"><ele>48.0</ele><time>2026-05-03T08:09:19.139Z</time></trkpt><trkpt lat="45.9512557" lon="13.442533"><ele>48.0</ele><time>2026-05-03T08:09:20.139Z</time></trkpt><trkpt lat="45.9511447" lon="13.4425069"><ele>48.0</ele><time>2026-05-03T08:09:21.139Z</time></trkpt><trkpt lat="45.9510305" lon="13.4424805"><ele>48.0</ele><time>2026-05-03T08:09:22.139Z</time></trkpt><trkpt lat="45.9509205" lon="13.4424594"><ele>48.0</ele><time>2026-05-03T08:09:23.138Z</time></trkpt><trkpt lat="45.9508039" lon="13.4424319"><ele>48.0</ele><time>2026-05-03T08:09:24.139Z</time></trkpt><trkpt lat="45.9506871" lon="13.4424078"><ele>48.0</ele><time>2026-05-03T08:09:25.138Z</time></trkpt><trkpt lat="45.9505704" lon="13.442381"><ele>48.0</ele><time>2026-05-03T08:09:26.139Z</time></trkpt><trkpt lat="45.9504545" lon="13.4423578"><ele>48.0</ele><time>2026-05-03T08:09:27.139Z</time></trkpt><trkpt lat="45.9503424" lon="13.4423295"><ele>48.0</ele><time>2026-05-03T08:09:28.138Z</time></trkpt><trkpt lat="45.9502257" lon="13.4422988"><ele>48.0</ele><time>2026-05-03T08:09:29.138Z</time></trkpt><trkpt lat="45.9501181" lon="13.4422704"><ele>48.0</ele><time>2026-05-03T08:09:30.139Z</time></trkpt><trkpt lat="45.950021" lon="13.4422489"><ele>48.0</ele><time>2026-05-03T08:09:31.139Z</time></trkpt><trkpt lat="45.9499198" lon="13.4422241"><ele>48.0</ele><time>2026-05-03T08:09:32.138Z</time></trkpt><trkpt lat="45.9498284" lon="13.4421974"><ele>48.0</ele><time>2026-05-03T08:09:33.138Z</time></trkpt><trkpt lat="45.9497418" lon="13.4421768"><ele>47.8</ele><time>2026-05-03T08:09:34.139Z</time></trkpt><trkpt lat="45.9496556" lon="13.442156"><ele>47.599999999999994</ele><time>2026-05-03T08:09:35.138Z</time></trkpt><trkpt lat="45.9495512" lon="13.4421323"><ele>47.400000000000006</ele><time>2026-05-03T08:09:36.138Z</time></trkpt><trkpt lat="45.9494459" lon="13.4421169"><ele>47.2</ele><time>2026-05-03T08:09:37.139Z</time></trkpt><trkpt lat="45.9493482" lon="13.4421038"><ele>47.0</ele><time>2026-05-03T08:09:38.139Z</time></trkpt><trkpt lat="45.9492598" lon="13.4420935"><ele>46.83333333333333</ele><time>2026-05-03T08:09:39.139Z</time></trkpt><trkpt lat="45.9491821" lon="13.4420762"><ele>46.666666666666664</ele><time>2026-05-03T08:09:40.138Z</time></trkpt><trkpt lat="45.9490991" lon="13.4420432"><ele>46.5</ele><time>2026-05-03T08:09:41.139Z</time></trkpt><trkpt lat="45.9490253" lon="13.4420122"><ele>46.333333333333336</ele><time>2026-05-03T08:09:42.139Z</time></trkpt><trkpt lat="45.9489603" lon="13.4419837"><ele>46.16666666666667</ele><time>2026-05-03T08:09:43.139Z</time></trkpt><trkpt lat="45.9489051" lon="13.4419347"><ele>46.0</ele><time>2026-05-03T08:09:44.139Z</time></trkpt><trkpt lat="45.9488297" lon="13.4417866"><ele>46.0</ele><time>2026-05-03T08:09:46.138Z</time></trkpt><trkpt lat="45.9488022" lon="13.4416902"><ele>46.0</ele><time>2026-05-03T08:09:47.139Z</time></trkpt><trkpt lat="45.948786" lon="13.4415678"><ele>46.0</ele><time>2026-05-03T08:09:48.139Z</time></trkpt><trkpt lat="45.9487709" lon="13.4414393"><ele>46.0</ele><time>2026-05-03T08:09:49.139Z</time></trkpt><trkpt lat="45.9487578" lon="13.4413074"><ele>46.0</ele><time>2026-05-03T08:09:50.138Z</time></trkpt><trkpt lat="45.9487444" lon="13.4411626"><ele>46.0</ele><time>2026-05-03T08:09:51.139Z</time></trkpt><trkpt lat="45.9487351" lon="13.4410244"><ele>46.0</ele><time>2026-05-03T08:09:52.138Z</time></trkpt><trkpt lat="45.9487249" lon="13.4408821"><ele>46.0</ele><time>2026-05-03T08:09:53.138Z</time></trkpt><trkpt lat="45.9487159" lon="13.4407429"><ele>46.0</ele><time>2026-05-03T08:09:54.139Z</time></trkpt><trkpt lat="45.9487049" lon="13.4406133"><ele>46.0</ele><time>2026-05-03T08:09:55.139Z</time></trkpt><trkpt lat="45.9486992" lon="13.4404778"><ele>46.0</ele><time>2026-05-03T08:09:56.139Z</time></trkpt><trkpt lat="45.948691" lon="13.4403335"><ele>46.199999999999996</ele><time>2026-05-03T08:09:57.138Z</time></trkpt><trkpt lat="45.9486835" lon="13.4401894"><ele>46.4</ele><time>2026-05-03T08:09:58.139Z</time></trkpt><trkpt lat="45.9486731" lon="13.4400354"><ele>46.6</ele><time>2026-05-03T08:09:59.138Z</time></trkpt><trkpt lat="45.9486686" lon="13.4398586"><ele>46.8</ele><time>2026-05-03T08:10:00.139Z</time></trkpt><trkpt lat="45.9486599" lon="13.439703"><ele>47.0</ele><time>2026-05-03T08:10:01.139Z</time></trkpt><trkpt lat="45.9486498" lon="13.4395473"><ele>46.6</ele><time>2026-05-03T08:10:02.139Z</time></trkpt><trkpt lat="45.9486392" lon="13.4394005"><ele>46.2</ele><time>2026-05-03T08:10:03.139Z</time></trkpt><trkpt lat="45.9486391" lon="13.4392514"><ele>45.8</ele><time>2026-05-03T08:10:04.139Z</time></trkpt><trkpt lat="45.948638" lon="13.4391119"><ele>45.4</ele><time>2026-05-03T08:10:05.139Z</time></trkpt><trkpt lat="45.9486319" lon="13.4389653"><ele>45.0</ele><time>2026-05-03T08:10:06.138Z</time></trkpt><trkpt lat="45.9486164" lon="13.4388309"><ele>44.8</ele><time>2026-05-03T08:10:07.139Z</time></trkpt><trkpt lat="45.9486118" lon="13.4386947"><ele>44.6</ele><time>2026-05-03T08:10:08.138Z</time></trkpt><trkpt lat="45.9486068" lon="13.4385599"><ele>44.400000000000006</ele><time>2026-05-03T08:10:09.139Z</time></trkpt><trkpt lat="45.9485983" lon="13.4384235"><ele>44.2</ele><time>2026-05-03T08:10:10.138Z</time></trkpt><trkpt lat="45.9485847" lon="13.4382831"><ele>44.0</ele><time>2026-05-03T08:10:11.138Z</time></trkpt><trkpt lat="45.9485701" lon="13.4381421"><ele>44.0</ele><time>2026-05-03T08:10:12.138Z</time></trkpt><trkpt lat="45.948558" lon="13.4380069"><ele>44.0</ele><time>2026-05-03T08:10:13.139Z</time></trkpt><trkpt lat="45.9485475" lon="13.4378795"><ele>44.0</ele><time>2026-05-03T08:10:14.139Z</time></trkpt><trkpt lat="45.9485373" lon="13.4377455"><ele>44.0</ele><time>2026-05-03T08:10:15.139Z</time></trkpt><trkpt lat="45.9485298" lon="13.437618"><ele>44.0</ele><time>2026-05-03T08:10:16.139Z</time></trkpt><trkpt lat="45.9485251" lon="13.437481"><ele>44.400000000000006</ele><time>2026-05-03T08:10:17.139Z</time></trkpt><trkpt lat="45.9485197" lon="13.4373403"><ele>44.8</ele><time>2026-05-03T08:10:18.138Z</time></trkpt><trkpt lat="45.948518" lon="13.4372074"><ele>45.2</ele><time>2026-05-03T08:10:19.139Z</time></trkpt><trkpt lat="45.9485162" lon="13.4370685"><ele>45.599999999999994</ele><time>2026-05-03T08:10:20.138Z</time></trkpt><trkpt lat="45.9485087" lon="13.4369307"><ele>46.0</ele><time>2026-05-03T08:10:21.139Z</time></trkpt><trkpt lat="45.948503" lon="13.4367889"><ele>46.0</ele><time>2026-05-03T08:10:22.139Z</time></trkpt><trkpt lat="45.9484941" lon="13.436648"><ele>46.0</ele><time>2026-05-03T08:10:23.139Z</time></trkpt><trkpt lat="45.9484817" lon="13.4364983"><ele>46.0</ele><time>2026-05-03T08:10:24.139Z</time></trkpt><trkpt lat="45.9484715" lon="13.4363495"><ele>46.0</ele><time>2026-05-03T08:10:25.139Z</time></trkpt><trkpt lat="45.9484623" lon="13.4362138"><ele>46.0</ele><time>2026-05-03T08:10:26.139Z</time></trkpt><trkpt lat="45.9484526" lon="13.4360858"><ele>46.0</ele><time>2026-05-03T08:10:27.139Z</time></trkpt><trkpt lat="45.9484388" lon="13.435949"><ele>46.0</ele><time>2026-05-03T08:10:28.139Z</time></trkpt><trkpt lat="45.9484256" lon="13.4358235"><ele>46.0</ele><time>2026-05-03T08:10:29.139Z</time></trkpt><trkpt lat="45.9484095" lon="13.435702"><ele>46.0</ele><time>2026-05-03T08:10:30.139Z</time></trkpt><trkpt lat="45.9483909" lon="13.435579"><ele>46.0</ele><time>2026-05-03T08:10:31.139Z</time></trkpt><trkpt lat="45.9483778" lon="13.4354523"><ele>46.0</ele><time>2026-05-03T08:10:32.139Z</time></trkpt><trkpt lat="45.9483769" lon="13.4353132"><ele>45.199999999999996</ele><time>2026-05-03T08:10:33.139Z</time></trkpt><trkpt lat="45.9483894" lon="13.4351715"><ele>44.4</ele><time>2026-05-03T08:10:34.139Z</time></trkpt><trkpt lat="45.9484036" lon="13.4350142"><ele>43.6</ele><time>2026-05-03T08:10:35.139Z</time></trkpt><trkpt lat="45.9484149" lon="13.4348734"><ele>42.8</ele><time>2026-05-03T08:10:36.139Z</time></trkpt><trkpt lat="45.9484201" lon="13.4347417"><ele>42.0</ele><time>2026-05-03T08:10:37.139Z</time></trkpt><trkpt lat="45.9484185" lon="13.4346154"><ele>42.0</ele><time>2026-05-03T08:10:38.138Z</time></trkpt><trkpt lat="45.9484127" lon="13.4344986"><ele>42.0</ele><time>2026-05-03T08:10:39.138Z</time></trkpt><trkpt lat="45.9484082" lon="13.4343759"><ele>42.0</ele><time>2026-05-03T08:10:40.139Z</time></trkpt><trkpt lat="45.9483997" lon="13.434256"><ele>42.0</ele><time>2026-05-03T08:10:41.139Z</time></trkpt><trkpt lat="45.9483891" lon="13.4341449"><ele>42.0</ele><time>2026-05-03T08:10:42.139Z</time></trkpt><trkpt lat="45.948379" lon="13.4340461"><ele>42.0</ele><time>2026-05-03T08:10:43.138Z</time></trkpt><trkpt lat="45.9483678" lon="13.4339529"><ele>42.0</ele><time>2026-05-03T08:10:44.138Z</time></trkpt><trkpt lat="45.9483527" lon="13.4338462"><ele>42.0</ele><time>2026-05-03T08:10:45.139Z</time></trkpt><trkpt lat="45.9483353" lon="13.4337284"><ele>42.0</ele><time>2026-05-03T08:10:46.139Z</time></trkpt><trkpt lat="45.9483171" lon="13.4336104"><ele>42.0</ele><time>2026-05-03T08:10:47.138Z</time></trkpt><trkpt lat="45.9482971" lon="13.4334929"><ele>42.0</ele><time>2026-05-03T08:10:48.139Z</time></trkpt><trkpt lat="45.9482463" lon="13.4332981"><ele>41.8</ele><time>2026-05-03T08:10:50.139Z</time></trkpt><trkpt lat="45.9482123" lon="13.4332171"><ele>41.6</ele><time>2026-05-03T08:10:51.139Z</time></trkpt><trkpt lat="45.948169" lon="13.4331432"><ele>41.4</ele><time>2026-05-03T08:10:52.139Z</time></trkpt><trkpt lat="45.9480593" lon="13.4330116"><ele>41.199999999999996</ele><time>2026-05-03T08:10:54.138Z</time></trkpt><trkpt lat="45.9479679" lon="13.4329353"><ele>41.0</ele><time>2026-05-03T08:10:55.138Z</time></trkpt><trkpt lat="45.9478676" lon="13.4328646"><ele>40.8</ele><time>2026-05-03T08:10:56.138Z</time></trkpt><trkpt lat="45.9477727" lon="13.4328059"><ele>40.599999999999994</ele><time>2026-05-03T08:10:57.139Z</time></trkpt><trkpt lat="45.9476877" lon="13.4327593"><ele>40.4</ele><time>2026-05-03T08:10:58.139Z</time></trkpt><trkpt lat="45.9476047" lon="13.4327165"><ele>40.2</ele><time>2026-05-03T08:10:59.139Z</time></trkpt><trkpt lat="45.947514" lon="13.4326618"><ele>40.0</ele><time>2026-05-03T08:11:00.138Z</time></trkpt><trkpt lat="45.9474245" lon="13.4325948"><ele>40.0</ele><time>2026-05-03T08:11:01.139Z</time></trkpt><trkpt lat="45.9473373" lon="13.432528"><ele>40.0</ele><time>2026-05-03T08:11:02.139Z</time></trkpt><trkpt lat="45.9472451" lon="13.4324585"><ele>40.0</ele><time>2026-05-03T08:11:03.139Z</time></trkpt><trkpt lat="45.9471489" lon="13.4323914"><ele>40.0</ele><time>2026-05-03T08:11:04.139Z</time></trkpt><trkpt lat="45.947066" lon="13.4323333"><ele>40.0</ele><time>2026-05-03T08:11:05.139Z</time></trkpt><trkpt lat="45.9469642" lon="13.4322755"><ele>40.0</ele><time>2026-05-03T08:11:06.138Z</time></trkpt><trkpt lat="45.9468671" lon="13.432223"><ele>40.0</ele><time>2026-05-03T08:11:07.139Z</time></trkpt><trkpt lat="45.946767" lon="13.4321785"><ele>40.0</ele><time>2026-05-03T08:11:08.139Z</time></trkpt><trkpt lat="45.9466645" lon="13.432142"><ele>40.0</ele><time>2026-05-03T08:11:09.139Z</time></trkpt><trkpt lat="45.9465582" lon="13.4321012"><ele>40.0</ele><time>2026-05-03T08:11:10.139Z</time></trkpt><trkpt lat="45.9464542" lon="13.4320441"><ele>40.2</ele><time>2026-05-03T08:11:11.139Z</time></trkpt><trkpt lat="45.9463542" lon="13.4319793"><ele>40.4</ele><time>2026-05-03T08:11:12.139Z</time></trkpt><trkpt lat="45.9462521" lon="13.4319074"><ele>40.599999999999994</ele><time>2026-05-03T08:11:13.139Z</time></trkpt><trkpt lat="45.9461606" lon="13.4318327"><ele>40.8</ele><time>2026-05-03T08:11:14.139Z</time></trkpt><trkpt lat="45.9460725" lon="13.4317485"><ele>41.0</ele><time>2026-05-03T08:11:15.138Z</time></trkpt><trkpt lat="45.9459859" lon="13.4316556"><ele>41.0</ele><time>2026-05-03T08:11:16.138Z</time></trkpt><trkpt lat="45.945903" lon="13.4315558"><ele>41.0</ele><time>2026-05-03T08:11:17.138Z</time></trkpt><trkpt lat="45.9458215" lon="13.4314453"><ele>41.0</ele><time>2026-05-03T08:11:18.138Z</time></trkpt><trkpt lat="45.9457356" lon="13.4313284"><ele>41.0</ele><time>2026-05-03T08:11:19.139Z</time></trkpt><trkpt lat="45.9456566" lon="13.4312123"><ele>41.0</ele><time>2026-05-03T08:11:20.139Z</time></trkpt><trkpt lat="45.9455803" lon="13.431091"><ele>41.0</ele><time>2026-05-03T08:11:21.138Z</time></trkpt><trkpt lat="45.9455028" lon="13.4309726"><ele>41.0</ele><time>2026-05-03T08:11:22.139Z</time></trkpt><trkpt lat="45.9454231" lon="13.4308549"><ele>41.0</ele><time>2026-05-03T08:11:23.139Z</time></trkpt><trkpt lat="45.9453406" lon="13.4307467"><ele>41.0</ele><time>2026-05-03T08:11:24.139Z</time></trkpt><trkpt lat="45.9452602" lon="13.4306415"><ele>41.0</ele><time>2026-05-03T08:11:25.139Z</time></trkpt><trkpt lat="45.9451893" lon="13.4305552"><ele>41.0</ele><time>2026-05-03T08:11:26.138Z</time></trkpt><trkpt lat="45.9451149" lon="13.4304737"><ele>41.0</ele><time>2026-05-03T08:11:27.139Z</time></trkpt><trkpt lat="45.9450326" lon="13.4303936"><ele>41.0</ele><time>2026-05-03T08:11:28.139Z</time></trkpt><trkpt lat="45.9449537" lon="13.4303287"><ele>40.8</ele><time>2026-05-03T08:11:29.138Z</time></trkpt><trkpt lat="45.9448636" lon="13.4302705"><ele>40.599999999999994</ele><time>2026-05-03T08:11:30.139Z</time></trkpt><trkpt lat="45.9447737" lon="13.4302301"><ele>40.4</ele><time>2026-05-03T08:11:31.139Z</time></trkpt><trkpt lat="45.9446767" lon="13.4302057"><ele>40.2</ele><time>2026-05-03T08:11:32.139Z</time></trkpt><trkpt lat="45.9445719" lon="13.4301963"><ele>40.0</ele><time>2026-05-03T08:11:33.139Z</time></trkpt><trkpt lat="45.944455" lon="13.4301955"><ele>40.0</ele><time>2026-05-03T08:11:34.139Z</time></trkpt><trkpt lat="45.944348" lon="13.4301897"><ele>40.0</ele><time>2026-05-03T08:11:35.139Z</time></trkpt><trkpt lat="45.9442346" lon="13.4301963"><ele>40.0</ele><time>2026-05-03T08:11:36.138Z</time></trkpt><trkpt lat="45.9441234" lon="13.4302106"><ele>40.0</ele><time>2026-05-03T08:11:37.139Z</time></trkpt><trkpt lat="45.9440059" lon="13.4302411"><ele>39.6</ele><time>2026-05-03T08:11:38.138Z</time></trkpt><trkpt lat="45.9438863" lon="13.430281"><ele>39.2</ele><time>2026-05-03T08:11:39.139Z</time></trkpt><trkpt lat="45.9437716" lon="13.4303156"><ele>38.8</ele><time>2026-05-03T08:11:40.139Z</time></trkpt><trkpt lat="45.943671" lon="13.4303394"><ele>38.4</ele><time>2026-05-03T08:11:41.139Z</time></trkpt><trkpt lat="45.9435767" lon="13.4303575"><ele>38.0</ele><time>2026-05-03T08:11:42.139Z</time></trkpt><trkpt lat="45.9434784" lon="13.4303762"><ele>37.8</ele><time>2026-05-03T08:11:43.139Z</time></trkpt><trkpt lat="45.9433697" lon="13.4303939"><ele>37.599999999999994</ele><time>2026-05-03T08:11:44.138Z</time></trkpt><trkpt lat="45.943253" lon="13.4304267"><ele>37.400000000000006</ele><time>2026-05-03T08:11:45.138Z</time></trkpt><trkpt lat="45.9431537" lon="13.430481"><ele>37.2</ele><time>2026-05-03T08:11:46.139Z</time></trkpt><trkpt lat="45.9430545" lon="13.4305434"><ele>37.0</ele><time>2026-05-03T08:11:47.138Z</time></trkpt><trkpt lat="45.9429605" lon="13.4306115"><ele>37.4</ele><time>2026-05-03T08:11:48.139Z</time></trkpt><trkpt lat="45.9428692" lon="13.4306747"><ele>37.800000000000004</ele><time>2026-05-03T08:11:49.139Z</time></trkpt><trkpt lat="45.9427718" lon="13.4307239"><ele>38.2</ele><time>2026-05-03T08:11:50.138Z</time></trkpt><trkpt lat="45.9426757" lon="13.4307549"><ele>38.6</ele><time>2026-05-03T08:11:51.139Z</time></trkpt><trkpt lat="45.9425839" lon="13.4307741"><ele>39.0</ele><time>2026-05-03T08:11:52.138Z</time></trkpt><trkpt lat="45.9424851" lon="13.4307782"><ele>39.0</ele><time>2026-05-03T08:11:53.138Z</time></trkpt><trkpt lat="45.9423931" lon="13.4307619"><ele>39.0</ele><time>2026-05-03T08:11:54.137Z</time></trkpt><trkpt lat="45.9423138" lon="13.4307249"><ele>39.0</ele><time>2026-05-03T08:11:55.137Z</time></trkpt><trkpt lat="45.942238" lon="13.4306597"><ele>39.0</ele><time>2026-05-03T08:11:56.138Z</time></trkpt><trkpt lat="45.9421459" lon="13.4305711"><ele>39.0</ele><time>2026-05-03T08:11:57.138Z</time></trkpt><trkpt lat="45.9420678" lon="13.4304918"><ele>39.333333333333336</ele><time>2026-05-03T08:11:58.138Z</time></trkpt><trkpt lat="45.9419993" lon="13.4304095"><ele>39.666666666666664</ele><time>2026-05-03T08:11:59.138Z</time></trkpt><trkpt lat="45.9419454" lon="13.4303167"><ele>40.0</ele><time>2026-05-03T08:12:00.138Z</time></trkpt><trkpt lat="45.9419082" lon="13.4302019"><ele>40.33333333333333</ele><time>2026-05-03T08:12:01.138Z</time></trkpt><trkpt lat="45.9418952" lon="13.4300834"><ele>40.666666666666664</ele><time>2026-05-03T08:12:02.138Z</time></trkpt><trkpt lat="45.9419066" lon="13.4299545"><ele>41.0</ele><time>2026-05-03T08:12:03.138Z</time></trkpt><trkpt lat="45.941927" lon="13.429816"><ele>41.0</ele><time>2026-05-03T08:12:04.138Z</time></trkpt><trkpt lat="45.94194" lon="13.4296888"><ele>41.0</ele><time>2026-05-03T08:12:05.137Z</time></trkpt><trkpt lat="45.9419436" lon="13.4295731"><ele>41.0</ele><time>2026-05-03T08:12:06.138Z</time></trkpt><trkpt lat="45.9419304" lon="13.4294722"><ele>41.0</ele><time>2026-05-03T08:12:07.138Z</time></trkpt><trkpt lat="45.9418702" lon="13.4293653"><ele>41.0</ele><time>2026-05-03T08:12:09.138Z</time></trkpt><trkpt lat="45.9417789" lon="13.4293555"><ele>41.0</ele><time>2026-05-03T08:12:11.137Z</time></trkpt><trkpt lat="45.9417151" lon="13.4293874"><ele>41.0</ele><time>2026-05-03T08:12:12.138Z</time></trkpt><trkpt lat="45.9416393" lon="13.4294262"><ele>41.0</ele><time>2026-05-03T08:12:13.138Z</time></trkpt><trkpt lat="45.9415599" lon="13.4294807"><ele>41.0</ele><time>2026-05-03T08:12:14.138Z</time></trkpt><trkpt lat="45.9414812" lon="13.429545"><ele>41.0</ele><time>2026-05-03T08:12:15.138Z</time></trkpt><trkpt lat="45.9413947" lon="13.4296081"><ele>41.0</ele><time>2026-05-03T08:12:16.137Z</time></trkpt><trkpt lat="45.9413043" lon="13.4296707"><ele>41.0</ele><time>2026-05-03T08:12:17.137Z</time></trkpt><trkpt lat="45.9412107" lon="13.4297369"><ele>41.0</ele><time>2026-05-03T08:12:18.138Z</time></trkpt><trkpt lat="45.9411158" lon="13.4298001"><ele>41.0</ele><time>2026-05-03T08:12:19.138Z</time></trkpt><trkpt lat="45.9410211" lon="13.4298696"><ele>41.0</ele><time>2026-05-03T08:12:20.138Z</time></trkpt><trkpt lat="45.9409246" lon="13.4299297"><ele>41.0</ele><time>2026-05-03T08:12:21.137Z</time></trkpt><trkpt lat="45.9408277" lon="13.429995"><ele>40.8</ele><time>2026-05-03T08:12:22.138Z</time></trkpt><trkpt lat="45.9407326" lon="13.4300567"><ele>40.599999999999994</ele><time>2026-05-03T08:12:23.137Z</time></trkpt><trkpt lat="45.9406449" lon="13.430109"><ele>40.4</ele><time>2026-05-03T08:12:24.138Z</time></trkpt><trkpt lat="45.9405555" lon="13.4301702"><ele>40.2</ele><time>2026-05-03T08:12:25.138Z</time></trkpt><trkpt lat="45.9404641" lon="13.430235"><ele>40.0</ele><time>2026-05-03T08:12:26.137Z</time></trkpt><trkpt lat="45.940368" lon="13.4302937"><ele>40.0</ele><time>2026-05-03T08:12:27.137Z</time></trkpt><trkpt lat="45.9402727" lon="13.4303542"><ele>40.0</ele><time>2026-05-03T08:12:28.137Z</time></trkpt><trkpt lat="45.9401798" lon="13.430419"><ele>40.0</ele><time>2026-05-03T08:12:29.138Z</time></trkpt><trkpt lat="45.940085" lon="13.4304852"><ele>40.0</ele><time>2026-05-03T08:12:30.137Z</time></trkpt><trkpt lat="45.9399902" lon="13.4305473"><ele>40.0</ele><time>2026-05-03T08:12:31.138Z</time></trkpt><trkpt lat="45.9398927" lon="13.4306094"><ele>40.0</ele><time>2026-05-03T08:12:32.137Z</time></trkpt><trkpt lat="45.9397972" lon="13.4306706"><ele>40.0</ele><time>2026-05-03T08:12:33.138Z</time></trkpt><trkpt lat="45.9396988" lon="13.4307357"><ele>40.0</ele><time>2026-05-03T08:12:34.137Z</time></trkpt><trkpt lat="45.9396041" lon="13.4307953"><ele>40.0</ele><time>2026-05-03T08:12:35.138Z</time></trkpt><trkpt lat="45.9395114" lon="13.4308577"><ele>40.0</ele><time>2026-05-03T08:12:36.138Z</time></trkpt><trkpt lat="45.9394218" lon="13.4309178"><ele>40.0</ele><time>2026-05-03T08:12:37.138Z</time></trkpt><trkpt lat="45.9393306" lon="13.4309782"><ele>40.0</ele><time>2026-05-03T08:12:38.138Z</time></trkpt><trkpt lat="45.9392429" lon="13.4310311"><ele>40.0</ele><time>2026-05-03T08:12:39.137Z</time></trkpt><trkpt lat="45.9391503" lon="13.4310891"><ele>40.0</ele><time>2026-05-03T08:12:40.138Z</time></trkpt><trkpt lat="45.9390656" lon="13.4311496"><ele>40.0</ele><time>2026-05-03T08:12:41.138Z</time></trkpt><trkpt lat="45.9389819" lon="13.4312097"><ele>40.0</ele><time>2026-05-03T08:12:42.137Z</time></trkpt><trkpt lat="45.9388929" lon="13.4312659"><ele>40.0</ele><time>2026-05-03T08:12:43.138Z</time></trkpt><trkpt lat="45.9388163" lon="13.4313145"><ele>40.0</ele><time>2026-05-03T08:12:44.138Z</time></trkpt><trkpt lat="45.9387429" lon="13.4313647"><ele>40.0</ele><time>2026-05-03T08:12:45.138Z</time></trkpt><trkpt lat="45.93867" lon="13.4314158"><ele>40.0</ele><time>2026-05-03T08:12:46.138Z</time></trkpt><trkpt lat="45.9385962" lon="13.4314632"><ele>40.0</ele><time>2026-05-03T08:12:47.137Z</time></trkpt><trkpt lat="45.9385175" lon="13.4315131"><ele>40.0</ele><time>2026-05-03T08:12:48.138Z</time></trkpt><trkpt lat="45.9384467" lon="13.4315604"><ele>40.0</ele><time>2026-05-03T08:12:49.138Z</time></trkpt><trkpt lat="45.9383824" lon="13.4316049"><ele>40.0</ele><time>2026-05-03T08:12:50.138Z</time></trkpt><trkpt lat="45.9383234" lon="13.4316407"><ele>40.0</ele><time>2026-05-03T08:12:51.137Z</time></trkpt><trkpt lat="45.9382355" lon="13.4317003"><ele>40.0</ele><time>2026-05-03T08:12:53.137Z</time></trkpt><trkpt lat="45.9381648" lon="13.4317485"><ele>40.0</ele><time>2026-05-03T08:12:55.137Z</time></trkpt><trkpt lat="45.9380755" lon="13.4317912"><ele>39.5</ele><time>2026-05-03T08:12:58.137Z</time></trkpt><trkpt lat="45.9380099" lon="13.4318309"><ele>39.0</ele><time>2026-05-03T08:13:00.138Z</time></trkpt><trkpt lat="45.937917" lon="13.4319122"><ele>38.5</ele><time>2026-05-03T08:16:36.137Z</time></trkpt><trkpt lat="45.9378546" lon="13.431959"><ele>38.0</ele><time>2026-05-03T08:16:37.137Z</time></trkpt><trkpt lat="45.9377719" lon="13.4320156"><ele>37.5</ele><time>2026-05-03T08:16:38.137Z</time></trkpt><trkpt lat="45.9376886" lon="13.4320755"><ele>37.0</ele><time>2026-05-03T08:16:39.136Z</time></trkpt><trkpt lat="45.9376128" lon="13.4321364"><ele>37.333333333333336</ele><time>2026-05-03T08:16:40.137Z</time></trkpt><trkpt lat="45.9375441" lon="13.4321796"><ele>37.66666666666667</ele><time>2026-05-03T08:16:41.137Z</time></trkpt><trkpt lat="45.9374744" lon="13.4322155"><ele>38.0</ele><time>2026-05-03T08:16:42.137Z</time></trkpt><trkpt lat="45.9374027" lon="13.4322613"><ele>38.333333333333336</ele><time>2026-05-03T08:16:43.136Z</time></trkpt><trkpt lat="45.9373308" lon="13.4323062"><ele>38.666666666666664</ele><time>2026-05-03T08:16:44.136Z</time></trkpt><trkpt lat="45.9372567" lon="13.4323485"><ele>39.0</ele><time>2026-05-03T08:16:45.137Z</time></trkpt><trkpt lat="45.9371805" lon="13.432394"><ele>39.0</ele><time>2026-05-03T08:16:46.136Z</time></trkpt><trkpt lat="45.9371005" lon="13.4324399"><ele>39.0</ele><time>2026-05-03T08:16:47.137Z</time></trkpt><trkpt lat="45.9370277" lon="13.4324777"><ele>39.0</ele><time>2026-05-03T08:16:48.136Z</time></trkpt><trkpt lat="45.936942" lon="13.4325378"><ele>39.0</ele><time>2026-05-03T08:16:49.136Z</time></trkpt><trkpt lat="45.9368571" lon="13.4325944"><ele>39.0</ele><time>2026-05-03T08:16:50.136Z</time></trkpt><trkpt lat="45.936769" lon="13.4326519"><ele>39.0</ele><time>2026-05-03T08:16:51.137Z</time></trkpt><trkpt lat="45.9366819" lon="13.4327097"><ele>39.0</ele><time>2026-05-03T08:16:52.137Z</time></trkpt><trkpt lat="45.9365796" lon="13.4327814"><ele>39.0</ele><time>2026-05-03T08:16:53.137Z</time></trkpt><trkpt lat="45.9364904" lon="13.432843"><ele>39.0</ele><time>2026-05-03T08:16:54.136Z</time></trkpt><trkpt lat="45.9364044" lon="13.432905"><ele>39.0</ele><time>2026-05-03T08:16:55.136Z</time></trkpt><trkpt lat="45.9363211" lon="13.4329626"><ele>39.0</ele><time>2026-05-03T08:16:56.137Z</time></trkpt><trkpt lat="45.9362373" lon="13.4330192"><ele>39.2</ele><time>2026-05-03T08:16:57.137Z</time></trkpt><trkpt lat="45.9361442" lon="13.4330753"><ele>39.4</ele><time>2026-05-03T08:16:58.137Z</time></trkpt><trkpt lat="45.936053" lon="13.4331324"><ele>39.6</ele><time>2026-05-03T08:16:59.137Z</time></trkpt><trkpt lat="45.9359574" lon="13.4331964"><ele>39.8</ele><time>2026-05-03T08:17:00.136Z</time></trkpt><trkpt lat="45.935859" lon="13.4332596"><ele>40.0</ele><time>2026-05-03T08:17:01.136Z</time></trkpt><trkpt lat="45.9357635" lon="13.4333198"><ele>40.0</ele><time>2026-05-03T08:17:02.137Z</time></trkpt><trkpt lat="45.9356658" lon="13.4333825"><ele>40.0</ele><time>2026-05-03T08:17:03.137Z</time></trkpt><trkpt lat="45.9355649" lon="13.4334467"><ele>40.0</ele><time>2026-05-03T08:17:04.137Z</time></trkpt><trkpt lat="45.9354688" lon="13.4335101"><ele>40.0</ele><time>2026-05-03T08:17:05.136Z</time></trkpt><trkpt lat="45.9353668" lon="13.433581"><ele>40.0</ele><time>2026-05-03T08:17:06.137Z</time></trkpt><trkpt lat="45.9352666" lon="13.4336465"><ele>40.0</ele><time>2026-05-03T08:17:07.137Z</time></trkpt><trkpt lat="45.9351645" lon="13.433722"><ele>40.0</ele><time>2026-05-03T08:17:08.137Z</time></trkpt><trkpt lat="45.9350691" lon="13.4337866"><ele>40.0</ele><time>2026-05-03T08:17:09.137Z</time></trkpt><trkpt lat="45.9349683" lon="13.4338514"><ele>40.0</ele><time>2026-05-03T08:17:10.137Z</time></trkpt><trkpt lat="45.9348612" lon="13.4339196"><ele>40.0</ele><time>2026-05-03T08:17:11.137Z</time></trkpt><trkpt lat="45.9347543" lon="13.4339881"><ele>39.25</ele><time>2026-05-03T08:17:12.136Z</time></trkpt><trkpt lat="45.9346536" lon="13.4340527"><ele>38.5</ele><time>2026-05-03T08:17:13.137Z</time></trkpt><trkpt lat="45.9345494" lon="13.4341229"><ele>37.75</ele><time>2026-05-03T08:17:14.137Z</time></trkpt><trkpt lat="45.9344461" lon="13.4341884"><ele>37.0</ele><time>2026-05-03T08:17:15.137Z</time></trkpt><trkpt lat="45.9343387" lon="13.4342572"><ele>37.0</ele><time>2026-05-03T08:17:16.137Z</time></trkpt><trkpt lat="45.9342283" lon="13.4343222"><ele>37.0</ele><time>2026-05-03T08:17:17.137Z</time></trkpt><trkpt lat="45.9341212" lon="13.4343925"><ele>37.0</ele><time>2026-05-03T08:17:18.137Z</time></trkpt><trkpt lat="45.9340207" lon="13.4344585"><ele>37.0</ele><time>2026-05-03T08:17:19.137Z</time></trkpt><trkpt lat="45.9339197" lon="13.4345189"><ele>37.0</ele><time>2026-05-03T08:17:20.137Z</time></trkpt><trkpt lat="45.9338207" lon="13.4345909"><ele>37.0</ele><time>2026-05-03T08:17:21.136Z</time></trkpt><trkpt lat="45.9337191" lon="13.4346582"><ele>37.0</ele><time>2026-05-03T08:17:22.136Z</time></trkpt><trkpt lat="45.9336093" lon="13.4347203"><ele>37.0</ele><time>2026-05-03T08:17:23.137Z</time></trkpt><trkpt lat="45.9335101" lon="13.4347902"><ele>37.0</ele><time>2026-05-03T08:17:24.137Z</time></trkpt><trkpt lat="45.933417" lon="13.4348531"><ele>37.0</ele><time>2026-05-03T08:17:25.137Z</time></trkpt><trkpt lat="45.9333213" lon="13.4349166"><ele>37.0</ele><time>2026-05-03T08:17:26.137Z</time></trkpt><trkpt lat="45.9332309" lon="13.4349725"><ele>37.0</ele><time>2026-05-03T08:17:27.136Z</time></trkpt><trkpt lat="45.9331381" lon="13.4350345"><ele>37.0</ele><time>2026-05-03T08:17:28.137Z</time></trkpt><trkpt lat="45.9330502" lon="13.4350893"><ele>37.2</ele><time>2026-05-03T08:17:29.137Z</time></trkpt><trkpt lat="45.9329606" lon="13.4351446"><ele>37.400000000000006</ele><time>2026-05-03T08:17:30.136Z</time></trkpt><trkpt lat="45.9328706" lon="13.4352031"><ele>37.599999999999994</ele><time>2026-05-03T08:17:31.137Z</time></trkpt><trkpt lat="45.9327795" lon="13.4352637"><ele>37.8</ele><time>2026-05-03T08:17:32.137Z</time></trkpt><trkpt lat="45.9326897" lon="13.4353239"><ele>38.0</ele><time>2026-05-03T08:17:33.137Z</time></trkpt><trkpt lat="45.9325945" lon="13.4353871"><ele>37.8</ele><time>2026-05-03T08:17:34.137Z</time></trkpt><trkpt lat="45.9325005" lon="13.4354497"><ele>37.599999999999994</ele><time>2026-05-03T08:17:35.137Z</time></trkpt><trkpt lat="45.9324105" lon="13.435513"><ele>37.400000000000006</ele><time>2026-05-03T08:17:36.137Z</time></trkpt><trkpt lat="45.9323184" lon="13.4355713"><ele>37.2</ele><time>2026-05-03T08:17:37.137Z</time></trkpt><trkpt lat="45.9322223" lon="13.4356319"><ele>37.0</ele><time>2026-05-03T08:17:38.136Z</time></trkpt><trkpt lat="45.9321237" lon="13.4356949"><ele>37.0</ele><time>2026-05-03T08:17:39.136Z</time></trkpt><trkpt lat="45.9320273" lon="13.4357559"><ele>37.0</ele><time>2026-05-03T08:17:40.136Z</time></trkpt><trkpt lat="45.9319263" lon="13.43582"><ele>37.0</ele><time>2026-05-03T08:17:41.137Z</time></trkpt><trkpt lat="45.9318629" lon="13.435861"><ele>37.0</ele><time>2026-05-03T08:17:42.137Z</time></trkpt><trkpt lat="45.9317961" lon="13.4359061"><ele>37.0</ele><time>2026-05-03T08:17:43.136Z</time></trkpt><trkpt lat="45.9317366" lon="13.4359567"><ele>37.0</ele><time>2026-05-03T08:17:44.137Z</time></trkpt><trkpt lat="45.9316459" lon="13.4360467"><ele>37.333333333333336</ele><time>2026-05-03T08:17:46.137Z</time></trkpt><trkpt lat="45.9315788" lon="13.4360949"><ele>37.66666666666667</ele><time>2026-05-03T08:17:48.136Z</time></trkpt><trkpt lat="45.9315081" lon="13.4360702"><ele>38.0</ele><time>2026-05-03T08:17:51.137Z</time></trkpt><trkpt lat="45.9314717" lon="13.4359678"><ele>38.333333333333336</ele><time>2026-05-03T08:17:53.137Z</time></trkpt><trkpt lat="45.931419" lon="13.4358463"><ele>38.666666666666664</ele><time>2026-05-03T08:17:55.137Z</time></trkpt><trkpt lat="45.9313881" lon="13.4357334"><ele>39.0</ele><time>2026-05-03T08:17:57.137Z</time></trkpt><trkpt lat="45.9313366" lon="13.4355989"><ele>39.0</ele><time>2026-05-03T08:18:05.136Z</time></trkpt><trkpt lat="45.9313031" lon="13.4355035"><ele>39.0</ele><time>2026-05-03T08:18:06.137Z</time></trkpt><trkpt lat="45.9312616" lon="13.4353902"><ele>39.0</ele><time>2026-05-03T08:18:07.137Z</time></trkpt><trkpt lat="45.9312141" lon="13.435265"><ele>39.0</ele><time>2026-05-03T08:18:08.137Z</time></trkpt><trkpt lat="45.9311579" lon="13.4351311"><ele>39.0</ele><time>2026-05-03T08:18:09.137Z</time></trkpt><trkpt lat="45.93109" lon="13.4350022"><ele>38.8</ele><time>2026-05-03T08:18:10.136Z</time></trkpt><trkpt lat="45.931037" lon="13.4348582"><ele>38.599999999999994</ele><time>2026-05-03T08:18:11.137Z</time></trkpt><trkpt lat="45.9309808" lon="13.4347265"><ele>38.4</ele><time>2026-05-03T08:18:12.137Z</time></trkpt><trkpt lat="45.9309429" lon="13.4345783"><ele>38.199999999999996</ele><time>2026-05-03T08:18:13.136Z</time></trkpt><trkpt lat="45.9309041" lon="13.4344307"><ele>38.0</ele><time>2026-05-03T08:18:14.137Z</time></trkpt><trkpt lat="45.9308612" lon="13.4342895"><ele>37.8</ele><time>2026-05-03T08:18:15.137Z</time></trkpt><trkpt lat="45.9308215" lon="13.4341642"><ele>37.599999999999994</ele><time>2026-05-03T08:18:16.137Z</time></trkpt><trkpt lat="45.9307796" lon="13.4340471"><ele>37.400000000000006</ele><time>2026-05-03T08:18:17.137Z</time></trkpt><trkpt lat="45.9307459" lon="13.4339288"><ele>37.2</ele><time>2026-05-03T08:18:18.137Z</time></trkpt><trkpt lat="45.9306988" lon="13.4338008"><ele>37.0</ele><time>2026-05-03T08:18:19.137Z</time></trkpt><trkpt lat="45.9306566" lon="13.4336703"><ele>37.0</ele><time>2026-05-03T08:18:20.137Z</time></trkpt><trkpt lat="45.9306221" lon="13.4335511"><ele>37.0</ele><time>2026-05-03T08:18:21.137Z</time></trkpt><trkpt lat="45.9305879" lon="13.4334323"><ele>37.0</ele><time>2026-05-03T08:18:22.137Z</time></trkpt><trkpt lat="45.9305494" lon="13.4332992"><ele>37.0</ele><time>2026-05-03T08:18:23.137Z</time></trkpt><trkpt lat="45.9305054" lon="13.433162"><ele>37.0</ele><time>2026-05-03T08:18:24.137Z</time></trkpt><trkpt lat="45.9304567" lon="13.4330254"><ele>36.6</ele><time>2026-05-03T08:18:25.137Z</time></trkpt><trkpt lat="45.9304103" lon="13.4328814"><ele>36.2</ele><time>2026-05-03T08:18:26.137Z</time></trkpt><trkpt lat="45.930368" lon="13.4327368"><ele>35.8</ele><time>2026-05-03T08:18:27.137Z</time></trkpt><trkpt lat="45.9303265" lon="13.4326026"><ele>35.4</ele><time>2026-05-03T08:18:28.137Z</time></trkpt><trkpt lat="45.9302778" lon="13.4324711"><ele>35.0</ele><time>2026-05-03T08:18:29.137Z</time></trkpt><trkpt lat="45.9302378" lon="13.4323452"><ele>35.0</ele><time>2026-05-03T08:18:30.136Z</time></trkpt><trkpt lat="45.9301973" lon="13.432223"><ele>35.0</ele><time>2026-05-03T08:18:31.137Z</time></trkpt><trkpt lat="45.9301543" lon="13.4321049"><ele>35.0</ele><time>2026-05-03T08:18:32.136Z</time></trkpt><trkpt lat="45.930111" lon="13.4319832"><ele>35.0</ele><time>2026-05-03T08:18:33.136Z</time></trkpt><trkpt lat="45.9300749" lon="13.4318596"><ele>35.0</ele><time>2026-05-03T08:18:34.137Z</time></trkpt><trkpt lat="45.9300354" lon="13.4317415"><ele>35.8</ele><time>2026-05-03T08:18:35.137Z</time></trkpt><trkpt lat="45.9299987" lon="13.4316181"><ele>36.6</ele><time>2026-05-03T08:18:36.137Z</time></trkpt><trkpt lat="45.9299593" lon="13.4314885"><ele>37.4</ele><time>2026-05-03T08:18:37.137Z</time></trkpt><trkpt lat="45.9299163" lon="13.4313603"><ele>38.2</ele><time>2026-05-03T08:18:38.137Z</time></trkpt><trkpt lat="45.9298684" lon="13.4312282"><ele>39.0</ele><time>2026-05-03T08:18:39.137Z</time></trkpt><trkpt lat="45.9298185" lon="13.4310974"><ele>39.0</ele><time>2026-05-03T08:18:40.136Z</time></trkpt><trkpt lat="45.9297598" lon="13.4309598"><ele>39.0</ele><time>2026-05-03T08:18:41.137Z</time></trkpt><trkpt lat="45.9297016" lon="13.4308306"><ele>39.0</ele><time>2026-05-03T08:18:42.136Z</time></trkpt><trkpt lat="45.9296413" lon="13.430703"><ele>39.0</ele><time>2026-05-03T08:18:43.137Z</time></trkpt><trkpt lat="45.9295797" lon="13.4305674"><ele>39.0</ele><time>2026-05-03T08:18:44.136Z</time></trkpt><trkpt lat="45.9295121" lon="13.4304397"><ele>39.0</ele><time>2026-05-03T08:18:45.137Z</time></trkpt><trkpt lat="45.9294425" lon="13.430309"><ele>39.0</ele><time>2026-05-03T08:18:46.136Z</time></trkpt><trkpt lat="45.9293761" lon="13.4301831"><ele>39.0</ele><time>2026-05-03T08:18:47.136Z</time></trkpt><trkpt lat="45.9293138" lon="13.4300618"><ele>39.0</ele><time>2026-05-03T08:18:48.137Z</time></trkpt><trkpt lat="45.9292601" lon="13.4299443"><ele>39.0</ele><time>2026-05-03T08:18:49.137Z</time></trkpt><trkpt lat="45.9292011" lon="13.4298358"><ele>39.0</ele><time>2026-05-03T08:18:50.136Z</time></trkpt><trkpt lat="45.9291452" lon="13.4297332"><ele>39.0</ele><time>2026-05-03T08:18:51.136Z</time></trkpt><trkpt lat="45.9290869" lon="13.4296345"><ele>39.0</ele><time>2026-05-03T08:18:52.137Z</time></trkpt><trkpt lat="45.9290287" lon="13.4295195"><ele>39.0</ele><time>2026-05-03T08:18:53.137Z</time></trkpt><trkpt lat="45.9289705" lon="13.4293954"><ele>39.0</ele><time>2026-05-03T08:18:54.136Z</time></trkpt><trkpt lat="45.9289126" lon="13.4292763"><ele>38.6</ele><time>2026-05-03T08:18:55.136Z</time></trkpt><trkpt lat="45.9288507" lon="13.42916"><ele>38.2</ele><time>2026-05-03T08:18:56.137Z</time></trkpt><trkpt lat="45.9287947" lon="13.4290392"><ele>37.800000000000004</ele><time>2026-05-03T08:18:57.137Z</time></trkpt><trkpt lat="45.9287284" lon="13.4289217"><ele>37.4</ele><time>2026-05-03T08:18:58.137Z</time></trkpt><trkpt lat="45.9286677" lon="13.4288098"><ele>37.0</ele><time>2026-05-03T08:18:59.137Z</time></trkpt><trkpt lat="45.9286043" lon="13.4287056"><ele>37.0</ele><time>2026-05-03T08:19:00.137Z</time></trkpt><trkpt lat="45.9285429" lon="13.4285959"><ele>37.0</ele><time>2026-05-03T08:19:01.137Z</time></trkpt><trkpt lat="45.9284828" lon="13.4284866"><ele>37.0</ele><time>2026-05-03T08:19:02.137Z</time></trkpt><trkpt lat="45.9284218" lon="13.4283699"><ele>37.0</ele><time>2026-05-03T08:19:03.136Z</time></trkpt><trkpt lat="45.9283627" lon="13.4282457"><ele>37.0</ele><time>2026-05-03T08:19:04.137Z</time></trkpt><trkpt lat="45.9282974" lon="13.4281346"><ele>37.2</ele><time>2026-05-03T08:19:05.137Z</time></trkpt><trkpt lat="45.9282286" lon="13.4280065"><ele>37.400000000000006</ele><time>2026-05-03T08:19:06.137Z</time></trkpt><trkpt lat="45.9281672" lon="13.4278723"><ele>37.599999999999994</ele><time>2026-05-03T08:19:07.137Z</time></trkpt><trkpt lat="45.9281084" lon="13.4277434"><ele>37.8</ele><time>2026-05-03T08:19:08.136Z</time></trkpt><trkpt lat="45.9280511" lon="13.4276117"><ele>38.0</ele><time>2026-05-03T08:19:09.137Z</time></trkpt><trkpt lat="45.9279988" lon="13.4274876"><ele>38.0</ele><time>2026-05-03T08:19:10.137Z</time></trkpt><trkpt lat="45.9279426" lon="13.4273606"><ele>38.0</ele><time>2026-05-03T08:19:11.137Z</time></trkpt><trkpt lat="45.9278908" lon="13.4272344"><ele>38.0</ele><time>2026-05-03T08:19:12.136Z</time></trkpt><trkpt lat="45.9278432" lon="13.4271005"><ele>38.0</ele><time>2026-05-03T08:19:13.137Z</time></trkpt><trkpt lat="45.9277922" lon="13.4269641"><ele>38.0</ele><time>2026-05-03T08:19:14.137Z</time></trkpt><trkpt lat="45.9277432" lon="13.4268285"><ele>38.0</ele><time>2026-05-03T08:19:15.136Z</time></trkpt><trkpt lat="45.9276931" lon="13.4266913"><ele>38.0</ele><time>2026-05-03T08:19:16.137Z</time></trkpt><trkpt lat="45.9276478" lon="13.4265524"><ele>38.0</ele><time>2026-05-03T08:19:17.136Z</time></trkpt><trkpt lat="45.9275959" lon="13.4264201"><ele>38.0</ele><time>2026-05-03T08:19:18.137Z</time></trkpt><trkpt lat="45.9275447" lon="13.4262876"><ele>38.0</ele><time>2026-05-03T08:19:19.136Z</time></trkpt><trkpt lat="45.9275122" lon="13.4261402"><ele>38.0</ele><time>2026-05-03T08:19:20.137Z</time></trkpt><trkpt lat="45.9274618" lon="13.426008"><ele>38.0</ele><time>2026-05-03T08:19:21.137Z</time></trkpt><trkpt lat="45.9274135" lon="13.42587"><ele>38.0</ele><time>2026-05-03T08:19:22.137Z</time></trkpt><trkpt lat="45.9273648" lon="13.4257424"><ele>38.0</ele><time>2026-05-03T08:19:23.137Z</time></trkpt><trkpt lat="45.9273233" lon="13.4256099"><ele>38.0</ele><time>2026-05-03T08:19:24.137Z</time></trkpt><trkpt lat="45.9272765" lon="13.4254876"><ele>37.8</ele><time>2026-05-03T08:19:25.137Z</time></trkpt><trkpt lat="45.9272269" lon="13.4253597"><ele>37.599999999999994</ele><time>2026-05-03T08:19:26.137Z</time></trkpt><trkpt lat="45.9271756" lon="13.4252364"><ele>37.400000000000006</ele><time>2026-05-03T08:19:27.136Z</time></trkpt><trkpt lat="45.9271236" lon="13.4251096"><ele>37.2</ele><time>2026-05-03T08:19:28.137Z</time></trkpt><trkpt lat="45.9270705" lon="13.4250013"><ele>37.0</ele><time>2026-05-03T08:19:29.137Z</time></trkpt><trkpt lat="45.9270187" lon="13.4249006"><ele>37.0</ele><time>2026-05-03T08:19:30.137Z</time></trkpt><trkpt lat="45.9269723" lon="13.4248222"><ele>37.0</ele><time>2026-05-03T08:19:31.137Z</time></trkpt><trkpt lat="45.9269115" lon="13.4247448"><ele>37.0</ele><time>2026-05-03T08:19:32.136Z</time></trkpt><trkpt lat="45.9268364" lon="13.4246771"><ele>37.0</ele><time>2026-05-03T08:19:33.137Z</time></trkpt><trkpt lat="45.9267573" lon="13.4246207"><ele>37.0</ele><time>2026-05-03T08:19:34.136Z</time></trkpt><trkpt lat="45.9266797" lon="13.424578"><ele>37.0</ele><time>2026-05-03T08:19:35.137Z</time></trkpt><trkpt lat="45.9265927" lon="13.4245463"><ele>36.800000000000004</ele><time>2026-05-03T08:19:36.136Z</time></trkpt><trkpt lat="45.9265004" lon="13.4245026"><ele>36.6</ele><time>2026-05-03T08:19:37.137Z</time></trkpt><trkpt lat="45.9264181" lon="13.4244518"><ele>36.400000000000006</ele><time>2026-05-03T08:19:38.137Z</time></trkpt><trkpt lat="45.9263389" lon="13.4243859"><ele>36.2</ele><time>2026-05-03T08:19:39.136Z</time></trkpt><trkpt lat="45.9262537" lon="13.424296"><ele>36.0</ele><time>2026-05-03T08:19:40.137Z</time></trkpt><trkpt lat="45.9261691" lon="13.4242084"><ele>36.0</ele><time>2026-05-03T08:19:41.137Z</time></trkpt><trkpt lat="45.926088" lon="13.424113"><ele>36.0</ele><time>2026-05-03T08:19:42.137Z</time></trkpt><trkpt lat="45.9260057" lon="13.4240163"><ele>36.0</ele><time>2026-05-03T08:19:43.136Z</time></trkpt><trkpt lat="45.9259255" lon="13.4239205"><ele>36.0</ele><time>2026-05-03T08:19:44.137Z</time></trkpt><trkpt lat="45.9258588" lon="13.423833"><ele>36.0</ele><time>2026-05-03T08:19:45.137Z</time></trkpt><trkpt lat="45.9258022" lon="13.4237489"><ele>36.5</ele><time>2026-05-03T08:19:46.137Z</time></trkpt><trkpt lat="45.9257402" lon="13.4236635"><ele>37.0</ele><time>2026-05-03T08:19:47.136Z</time></trkpt><trkpt lat="45.9256866" lon="13.4235784"><ele>37.5</ele><time>2026-05-03T08:19:48.136Z</time></trkpt><trkpt lat="45.9256348" lon="13.4234775"><ele>38.0</ele><time>2026-05-03T08:19:49.137Z</time></trkpt><trkpt lat="45.9255858" lon="13.4233644"><ele>38.5</ele><time>2026-05-03T08:19:50.137Z</time></trkpt><trkpt lat="45.9255402" lon="13.4232492"><ele>39.0</ele><time>2026-05-03T08:19:51.136Z</time></trkpt><trkpt lat="45.9254903" lon="13.4231217"><ele>39.0</ele><time>2026-05-03T08:19:52.137Z</time></trkpt><trkpt lat="45.9254376" lon="13.4229926"><ele>39.0</ele><time>2026-05-03T08:19:53.137Z</time></trkpt><trkpt lat="45.925387" lon="13.4228633"><ele>39.0</ele><time>2026-05-03T08:19:54.136Z</time></trkpt><trkpt lat="45.9253339" lon="13.4227347"><ele>39.0</ele><time>2026-05-03T08:19:55.137Z</time></trkpt><trkpt lat="45.9252903" lon="13.4225954"><ele>39.0</ele><time>2026-05-03T08:19:56.137Z</time></trkpt><trkpt lat="45.9252417" lon="13.4224585"><ele>38.8</ele><time>2026-05-03T08:19:57.137Z</time></trkpt><trkpt lat="45.9251952" lon="13.4223266"><ele>38.599999999999994</ele><time>2026-05-03T08:19:58.137Z</time></trkpt><trkpt lat="45.9251464" lon="13.4221988"><ele>38.4</ele><time>2026-05-03T08:19:59.137Z</time></trkpt><trkpt lat="45.9250921" lon="13.4220677"><ele>38.199999999999996</ele><time>2026-05-03T08:20:00.137Z</time></trkpt><trkpt lat="45.9250419" lon="13.4219323"><ele>38.0</ele><time>2026-05-03T08:20:01.136Z</time></trkpt><trkpt lat="45.9249931" lon="13.4217946"><ele>38.0</ele><time>2026-05-03T08:20:02.137Z</time></trkpt><trkpt lat="45.9249372" lon="13.421656"><ele>38.0</ele><time>2026-05-03T08:20:03.137Z</time></trkpt><trkpt lat="45.9248848" lon="13.421518"><ele>38.0</ele><time>2026-05-03T08:20:04.137Z</time></trkpt><trkpt lat="45.9248294" lon="13.4213796"><ele>38.0</ele><time>2026-05-03T08:20:05.137Z</time></trkpt><trkpt lat="45.9247778" lon="13.421242"><ele>38.0</ele><time>2026-05-03T08:20:06.136Z</time></trkpt><trkpt lat="45.9247265" lon="13.421106"><ele>37.199999999999996</ele><time>2026-05-03T08:20:07.136Z</time></trkpt><trkpt lat="45.9246735" lon="13.4209729"><ele>36.4</ele><time>2026-05-03T08:20:08.136Z</time></trkpt><trkpt lat="45.9246196" lon="13.4208439"><ele>35.599999999999994</ele><time>2026-05-03T08:20:09.135Z</time></trkpt><trkpt lat="45.924567" lon="13.4207144"><ele>34.8</ele><time>2026-05-03T08:20:10.136Z</time></trkpt><trkpt lat="45.92451" lon="13.4205818"><ele>34.0</ele><time>2026-05-03T08:20:11.136Z</time></trkpt><trkpt lat="45.9244538" lon="13.4204525"><ele>33.8</ele><time>2026-05-03T08:20:12.136Z</time></trkpt><trkpt lat="45.924401" lon="13.4203194"><ele>33.599999999999994</ele><time>2026-05-03T08:20:13.136Z</time></trkpt><trkpt lat="45.9243487" lon="13.4201879"><ele>33.4</ele><time>2026-05-03T08:20:14.135Z</time></trkpt><trkpt lat="45.9242962" lon="13.4200564"><ele>33.199999999999996</ele><time>2026-05-03T08:20:15.136Z</time></trkpt><trkpt lat="45.924244" lon="13.4199261"><ele>33.0</ele><time>2026-05-03T08:20:16.135Z</time></trkpt><trkpt lat="45.924192" lon="13.41979"><ele>33.4</ele><time>2026-05-03T08:20:17.136Z</time></trkpt><trkpt lat="45.9241397" lon="13.419647"><ele>33.8</ele><time>2026-05-03T08:20:18.136Z</time></trkpt><trkpt lat="45.9240939" lon="13.4195074"><ele>34.2</ele><time>2026-05-03T08:20:19.136Z</time></trkpt><trkpt lat="45.924047" lon="13.4193722"><ele>34.6</ele><time>2026-05-03T08:20:20.136Z</time></trkpt><trkpt lat="45.9239944" lon="13.4192459"><ele>35.0</ele><time>2026-05-03T08:20:21.136Z</time></trkpt><trkpt lat="45.9239448" lon="13.4191153"><ele>35.0</ele><time>2026-05-03T08:20:22.135Z</time></trkpt><trkpt lat="45.9239013" lon="13.4189876"><ele>35.0</ele><time>2026-05-03T08:20:23.135Z</time></trkpt><trkpt lat="45.9238531" lon="13.4188625"><ele>35.0</ele><time>2026-05-03T08:20:24.136Z</time></trkpt><trkpt lat="45.9237954" lon="13.4187427"><ele>35.0</ele><time>2026-05-03T08:20:25.135Z</time></trkpt><trkpt lat="45.923732" lon="13.4186342"><ele>35.0</ele><time>2026-05-03T08:20:26.136Z</time></trkpt><trkpt lat="45.923661" lon="13.4185283"><ele>34.4</ele><time>2026-05-03T08:20:27.136Z</time></trkpt><trkpt lat="45.9235806" lon="13.4184191"><ele>33.8</ele><time>2026-05-03T08:20:28.136Z</time></trkpt><trkpt lat="45.9235041" lon="13.4183041"><ele>33.2</ele><time>2026-05-03T08:20:29.136Z</time></trkpt><trkpt lat="45.9234308" lon="13.4181917"><ele>32.6</ele><time>2026-05-03T08:20:30.136Z</time></trkpt><trkpt lat="45.9233618" lon="13.4180757"><ele>32.0</ele><time>2026-05-03T08:20:31.136Z</time></trkpt><trkpt lat="45.9233015" lon="13.4179593"><ele>32.0</ele><time>2026-05-03T08:20:32.136Z</time></trkpt><trkpt lat="45.9232461" lon="13.4178455"><ele>32.0</ele><time>2026-05-03T08:20:33.135Z</time></trkpt><trkpt lat="45.923187" lon="13.4177363"><ele>32.0</ele><time>2026-05-03T08:20:34.136Z</time></trkpt><trkpt lat="45.9231307" lon="13.4176217"><ele>32.0</ele><time>2026-05-03T08:20:35.135Z</time></trkpt><trkpt lat="45.9230781" lon="13.4175081"><ele>32.0</ele><time>2026-05-03T08:20:36.136Z</time></trkpt><trkpt lat="45.9230256" lon="13.4173939"><ele>32.0</ele><time>2026-05-03T08:20:37.135Z</time></trkpt><trkpt lat="45.9229729" lon="13.4172831"><ele>32.0</ele><time>2026-05-03T08:20:38.136Z</time></trkpt><trkpt lat="45.9229226" lon="13.4171708"><ele>32.0</ele><time>2026-05-03T08:20:39.136Z</time></trkpt><trkpt lat="45.9228598" lon="13.4170613"><ele>32.0</ele><time>2026-05-03T08:20:40.136Z</time></trkpt><trkpt lat="45.9227969" lon="13.4169566"><ele>32.0</ele><time>2026-05-03T08:20:41.136Z</time></trkpt><trkpt lat="45.922747" lon="13.4168443"><ele>31.8</ele><time>2026-05-03T08:20:42.135Z</time></trkpt><trkpt lat="45.9227002" lon="13.4167323"><ele>31.6</ele><time>2026-05-03T08:20:43.136Z</time></trkpt><trkpt lat="45.922649" lon="13.4166164"><ele>31.400000000000002</ele><time>2026-05-03T08:20:44.136Z</time></trkpt><trkpt lat="45.9225986" lon="13.4165031"><ele>31.200000000000003</ele><time>2026-05-03T08:20:45.136Z</time></trkpt><trkpt lat="45.9225565" lon="13.4163942"><ele>31.0</ele><time>2026-05-03T08:20:46.136Z</time></trkpt><trkpt lat="45.9225103" lon="13.4162834"><ele>31.6</ele><time>2026-05-03T08:20:47.136Z</time></trkpt><trkpt lat="45.9224578" lon="13.4161666"><ele>32.2</ele><time>2026-05-03T08:20:48.136Z</time></trkpt><trkpt lat="45.9224083" lon="13.4160554"><ele>32.8</ele><time>2026-05-03T08:20:49.136Z</time></trkpt><trkpt lat="45.9223541" lon="13.4159363"><ele>33.4</ele><time>2026-05-03T08:20:50.136Z</time></trkpt><trkpt lat="45.9223008" lon="13.4158195"><ele>34.0</ele><time>2026-05-03T08:20:51.136Z</time></trkpt><trkpt lat="45.9222444" lon="13.4156998"><ele>34.0</ele><time>2026-05-03T08:20:52.136Z</time></trkpt><trkpt lat="45.9221925" lon="13.4155937"><ele>34.0</ele><time>2026-05-03T08:20:53.136Z</time></trkpt><trkpt lat="45.9221345" lon="13.4154552"><ele>34.0</ele><time>2026-05-03T08:20:54.136Z</time></trkpt><trkpt lat="45.9220715" lon="13.4153261"><ele>34.0</ele><time>2026-05-03T08:20:55.136Z</time></trkpt><trkpt lat="45.9220114" lon="13.4152024"><ele>34.0</ele><time>2026-05-03T08:20:56.136Z</time></trkpt><trkpt lat="45.9219499" lon="13.4150743"><ele>33.4</ele><time>2026-05-03T08:20:57.136Z</time></trkpt><trkpt lat="45.9218887" lon="13.4149472"><ele>32.8</ele><time>2026-05-03T08:20:58.136Z</time></trkpt><trkpt lat="45.9218211" lon="13.4148285"><ele>32.2</ele><time>2026-05-03T08:20:59.136Z</time></trkpt><trkpt lat="45.9217527" lon="13.4147223"><ele>31.6</ele><time>2026-05-03T08:21:00.136Z</time></trkpt><trkpt lat="45.9216837" lon="13.4146281"><ele>31.0</ele><time>2026-05-03T08:21:01.135Z</time></trkpt><trkpt lat="45.9216136" lon="13.4145349"><ele>31.0</ele><time>2026-05-03T08:21:02.135Z</time></trkpt><trkpt lat="45.9215353" lon="13.414443"><ele>31.0</ele><time>2026-05-03T08:21:03.136Z</time></trkpt><trkpt lat="45.9214548" lon="13.414346"><ele>31.0</ele><time>2026-05-03T08:21:04.136Z</time></trkpt><trkpt lat="45.9213746" lon="13.4142414"><ele>31.0</ele><time>2026-05-03T08:21:05.136Z</time></trkpt><trkpt lat="45.9212947" lon="13.4141392"><ele>31.0</ele><time>2026-05-03T08:21:06.136Z</time></trkpt><trkpt lat="45.921211" lon="13.4140364"><ele>31.0</ele><time>2026-05-03T08:21:07.135Z</time></trkpt><trkpt lat="45.9211254" lon="13.4139454"><ele>31.0</ele><time>2026-05-03T08:21:08.136Z</time></trkpt><trkpt lat="45.9210381" lon="13.4138634"><ele>31.0</ele><time>2026-05-03T08:21:09.136Z</time></trkpt><trkpt lat="45.9209496" lon="13.413786"><ele>31.0</ele><time>2026-05-03T08:21:10.135Z</time></trkpt><trkpt lat="45.9208611" lon="13.4137313"><ele>31.0</ele><time>2026-05-03T08:21:11.136Z</time></trkpt><trkpt lat="45.9207903" lon="13.413685"><ele>31.166666666666668</ele><time>2026-05-03T08:21:12.136Z</time></trkpt><trkpt lat="45.9207297" lon="13.4136464"><ele>31.333333333333336</ele><time>2026-05-03T08:21:13.136Z</time></trkpt><trkpt lat="45.9206322" lon="13.4136018"><ele>31.5</ele><time>2026-05-03T08:21:15.136Z</time></trkpt><trkpt lat="45.9205365" lon="13.4135913"><ele>31.666666666666664</ele><time>2026-05-03T08:21:17.136Z</time></trkpt><trkpt lat="45.9204696" lon="13.4135903"><ele>31.833333333333332</ele><time>2026-05-03T08:21:20.135Z</time></trkpt><trkpt lat="45.9203796" lon="13.4135741"><ele>32.0</ele><time>2026-05-03T08:21:38.136Z</time></trkpt><trkpt lat="45.9203032" lon="13.4135649"><ele>32.0</ele><time>2026-05-03T08:21:39.135Z</time></trkpt><trkpt lat="45.9202078" lon="13.4135696"><ele>32.0</ele><time>2026-05-03T08:21:40.136Z</time></trkpt><trkpt lat="45.9201075" lon="13.4135888"><ele>32.0</ele><time>2026-05-03T08:21:41.135Z</time></trkpt><trkpt lat="45.9199992" lon="13.4136302"><ele>32.0</ele><time>2026-05-03T08:21:42.136Z</time></trkpt><trkpt lat="45.9198891" lon="13.4136888"><ele>32.0</ele><time>2026-05-03T08:21:43.136Z</time></trkpt><trkpt lat="45.9197847" lon="13.4137404"><ele>32.0</ele><time>2026-05-03T08:21:44.135Z</time></trkpt><trkpt lat="45.9196737" lon="13.4137941"><ele>32.0</ele><time>2026-05-03T08:21:45.136Z</time></trkpt><trkpt lat="45.9195641" lon="13.4138551"><ele>32.0</ele><time>2026-05-03T08:21:46.136Z</time></trkpt><trkpt lat="45.9194585" lon="13.4139184"><ele>32.0</ele><time>2026-05-03T08:21:47.136Z</time></trkpt><trkpt lat="45.9193522" lon="13.4139717"><ele>32.2</ele><time>2026-05-03T08:21:48.135Z</time></trkpt><trkpt lat="45.9192481" lon="13.4140268"><ele>32.400000000000006</ele><time>2026-05-03T08:21:49.136Z</time></trkpt><trkpt lat="45.9191451" lon="13.4140851"><ele>32.599999999999994</ele><time>2026-05-03T08:21:50.135Z</time></trkpt><trkpt lat="45.9190412" lon="13.414146"><ele>32.8</ele><time>2026-05-03T08:21:51.135Z</time></trkpt><trkpt lat="45.9189404" lon="13.4142142"><ele>33.0</ele><time>2026-05-03T08:21:52.136Z</time></trkpt><trkpt lat="45.9188439" lon="13.4142976"><ele>33.0</ele><time>2026-05-03T08:21:53.136Z</time></trkpt><trkpt lat="45.9187543" lon="13.4143999"><ele>33.0</ele><time>2026-05-03T08:21:54.135Z</time></trkpt><trkpt lat="45.9186762" lon="13.4145198"><ele>33.0</ele><time>2026-05-03T08:21:55.135Z</time></trkpt><trkpt lat="45.9186039" lon="13.4146418"><ele>33.0</ele><time>2026-05-03T08:21:56.136Z</time></trkpt><trkpt lat="45.918537" lon="13.4147663"><ele>32.833333333333336</ele><time>2026-05-03T08:21:57.136Z</time></trkpt><trkpt lat="45.9184712" lon="13.4148808"><ele>32.666666666666664</ele><time>2026-05-03T08:21:58.136Z</time></trkpt><trkpt lat="45.9184095" lon="13.414995"><ele>32.5</ele><time>2026-05-03T08:21:59.135Z</time></trkpt><trkpt lat="45.9183547" lon="13.4150916"><ele>32.33333333333333</ele><time>2026-05-03T08:22:00.135Z</time></trkpt><trkpt lat="45.9183046" lon="13.415174"><ele>32.166666666666664</ele><time>2026-05-03T08:22:01.136Z</time></trkpt><trkpt lat="45.9182654" lon="13.4152487"><ele>32.0</ele><time>2026-05-03T08:22:02.136Z</time></trkpt><trkpt lat="45.9182056" lon="13.4153416"><ele>32.166666666666664</ele><time>2026-05-03T08:22:04.135Z</time></trkpt><trkpt lat="45.9181616" lon="13.4154897"><ele>32.33333333333333</ele><time>2026-05-03T08:22:10.135Z</time></trkpt><trkpt lat="45.9181568" lon="13.4155851"><ele>32.5</ele><time>2026-05-03T08:22:11.135Z</time></trkpt><trkpt lat="45.9181567" lon="13.4157017"><ele>32.666666666666664</ele><time>2026-05-03T08:22:12.136Z</time></trkpt><trkpt lat="45.9181571" lon="13.4158263"><ele>32.833333333333336</ele><time>2026-05-03T08:22:13.135Z</time></trkpt><trkpt lat="45.9181595" lon="13.4159637"><ele>33.0</ele><time>2026-05-03T08:22:14.136Z</time></trkpt><trkpt lat="45.9181599" lon="13.4161078"><ele>33.0</ele><time>2026-05-03T08:22:15.135Z</time></trkpt><trkpt lat="45.9181602" lon="13.4162714"><ele>33.0</ele><time>2026-05-03T08:22:16.135Z</time></trkpt><trkpt lat="45.9181561" lon="13.4164342"><ele>33.0</ele><time>2026-05-03T08:22:17.136Z</time></trkpt><trkpt lat="45.9181667" lon="13.4165988"><ele>33.0</ele><time>2026-05-03T08:22:18.136Z</time></trkpt><trkpt lat="45.9181876" lon="13.4167617"><ele>33.5</ele><time>2026-05-03T08:22:19.136Z</time></trkpt><trkpt lat="45.918225" lon="13.4169375"><ele>34.0</ele><time>2026-05-03T08:22:20.135Z</time></trkpt><trkpt lat="45.9182685" lon="13.4171161"><ele>34.5</ele><time>2026-05-03T08:22:21.135Z</time></trkpt><trkpt lat="45.9183198" lon="13.4172856"><ele>35.0</ele><time>2026-05-03T08:22:22.136Z</time></trkpt><trkpt lat="45.9183626" lon="13.4174593"><ele>38.75</ele><time>2026-05-03T08:22:23.135Z</time></trkpt><trkpt lat="45.9184016" lon="13.4176331"><ele>42.5</ele><time>2026-05-03T08:22:24.136Z</time></trkpt><trkpt lat="45.9184312" lon="13.4178073"><ele>46.25</ele><time>2026-05-03T08:22:25.135Z</time></trkpt><trkpt lat="45.9184478" lon="13.4179879"><ele>50.0</ele><time>2026-05-03T08:22:26.136Z</time></trkpt><trkpt lat="45.9184516" lon="13.418171"><ele>50.0</ele><time>2026-05-03T08:22:27.135Z</time></trkpt><trkpt lat="45.9184435" lon="13.4183541"><ele>50.0</ele><time>2026-05-03T08:22:28.136Z</time></trkpt><trkpt lat="45.9184255" lon="13.4185376"><ele>50.0</ele><time>2026-05-03T08:22:29.136Z</time></trkpt><trkpt lat="45.9184027" lon="13.4187327"><ele>50.0</ele><time>2026-05-03T08:22:30.135Z</time></trkpt><trkpt lat="45.9183881" lon="13.4189287"><ele>46.0</ele><time>2026-05-03T08:22:31.136Z</time></trkpt><trkpt lat="45.9183768" lon="13.4191294"><ele>42.0</ele><time>2026-05-03T08:22:32.135Z</time></trkpt><trkpt lat="45.9183602" lon="13.419333"><ele>38.0</ele><time>2026-05-03T08:22:33.136Z</time></trkpt><trkpt lat="45.9183373" lon="13.41953"><ele>34.0</ele><time>2026-05-03T08:22:34.136Z</time></trkpt><trkpt lat="45.9183158" lon="13.4197241"><ele>33.25</ele><time>2026-05-03T08:22:35.136Z</time></trkpt><trkpt lat="45.9182958" lon="13.4199166"><ele>32.5</ele><time>2026-05-03T08:22:36.135Z</time></trkpt><trkpt lat="45.9182789" lon="13.4201056"><ele>31.75</ele><time>2026-05-03T08:22:37.136Z</time></trkpt><trkpt lat="45.9182696" lon="13.4202792"><ele>31.0</ele><time>2026-05-03T08:22:38.136Z</time></trkpt><trkpt lat="45.918267" lon="13.4204504"><ele>31.200000000000003</ele><time>2026-05-03T08:22:39.136Z</time></trkpt><trkpt lat="45.9182413" lon="13.4206096"><ele>31.400000000000002</ele><time>2026-05-03T08:22:40.136Z</time></trkpt><trkpt lat="45.9181833" lon="13.420722"><ele>31.6</ele><time>2026-05-03T08:22:41.136Z</time></trkpt><trkpt lat="45.918093" lon="13.4207947"><ele>31.8</ele><time>2026-05-03T08:22:42.136Z</time></trkpt><trkpt lat="45.9179809" lon="13.4208485"><ele>32.0</ele><time>2026-05-03T08:22:43.135Z</time></trkpt><trkpt lat="45.9178581" lon="13.4209108"><ele>32.0</ele><time>2026-05-03T08:22:44.136Z</time></trkpt><trkpt lat="45.9177521" lon="13.4209901"><ele>32.0</ele><time>2026-05-03T08:22:45.136Z</time></trkpt><trkpt lat="45.9176676" lon="13.4210936"><ele>32.0</ele><time>2026-05-03T08:22:46.135Z</time></trkpt><trkpt lat="45.9175988" lon="13.4212263"><ele>32.0</ele><time>2026-05-03T08:22:47.136Z</time></trkpt><trkpt lat="45.9175245" lon="13.4213364"><ele>31.5</ele><time>2026-05-03T08:22:48.136Z</time></trkpt><trkpt lat="45.9174275" lon="13.4214228"><ele>31.0</ele><time>2026-05-03T08:22:49.135Z</time></trkpt><trkpt lat="45.9173305" lon="13.4215157"><ele>30.5</ele><time>2026-05-03T08:22:50.136Z</time></trkpt><trkpt lat="45.9172308" lon="13.4216082"><ele>30.0</ele><time>2026-05-03T08:22:51.135Z</time></trkpt><trkpt lat="45.9171241" lon="13.4216903"><ele>30.0</ele><time>2026-05-03T08:22:52.136Z</time></trkpt><trkpt lat="45.9170166" lon="13.4217648"><ele>30.0</ele><time>2026-05-03T08:22:53.136Z</time></trkpt><trkpt lat="45.9169099" lon="13.4218399"><ele>30.0</ele><time>2026-05-03T08:22:54.136Z</time></trkpt><trkpt lat="45.9167982" lon="13.4219115"><ele>30.0</ele><time>2026-05-03T08:22:55.136Z</time></trkpt><trkpt lat="45.9166926" lon="13.421994"><ele>30.0</ele><time>2026-05-03T08:22:56.135Z</time></trkpt><trkpt lat="45.9165935" lon="13.4220757"><ele>30.0</ele><time>2026-05-03T08:22:57.136Z</time></trkpt><trkpt lat="45.9164992" lon="13.422141"><ele>30.0</ele><time>2026-05-03T08:22:58.136Z</time></trkpt><trkpt lat="45.9164185" lon="13.4222155"><ele>30.0</ele><time>2026-05-03T08:22:59.135Z</time></trkpt><trkpt lat="45.9163565" lon="13.4222892"><ele>30.0</ele><time>2026-05-03T08:23:00.135Z</time></trkpt><trkpt lat="45.9163226" lon="13.422389"><ele>30.0</ele><time>2026-05-03T08:23:01.136Z</time></trkpt><trkpt lat="45.9163164" lon="13.4225035"><ele>30.0</ele><time>2026-05-03T08:23:02.136Z</time></trkpt><trkpt lat="45.9163369" lon="13.4226113"><ele>30.0</ele><time>2026-05-03T08:23:03.136Z</time></trkpt><trkpt lat="45.9163662" lon="13.4227429"><ele>30.0</ele><time>2026-05-03T08:23:04.136Z</time></trkpt><trkpt lat="45.9164075" lon="13.4228864"><ele>30.0</ele><time>2026-05-03T08:23:05.136Z</time></trkpt><trkpt lat="45.9164485" lon="13.4230401"><ele>30.0</ele><time>2026-05-03T08:23:06.136Z</time></trkpt><trkpt lat="45.9164892" lon="13.4232019"><ele>30.0</ele><time>2026-05-03T08:23:07.135Z</time></trkpt><trkpt lat="45.9165278" lon="13.4233653"><ele>30.0</ele><time>2026-05-03T08:23:08.136Z</time></trkpt><trkpt lat="45.9165672" lon="13.423529"><ele>30.0</ele><time>2026-05-03T08:23:09.136Z</time></trkpt><trkpt lat="45.9166075" lon="13.4236929"><ele>29.75</ele><time>2026-05-03T08:23:10.135Z</time></trkpt><trkpt lat="45.9166491" lon="13.4238653"><ele>29.5</ele><time>2026-05-03T08:23:11.136Z</time></trkpt><trkpt lat="45.9166889" lon="13.4240313"><ele>29.25</ele><time>2026-05-03T08:23:12.135Z</time></trkpt><trkpt lat="45.9167273" lon="13.424197"><ele>29.0</ele><time>2026-05-03T08:23:13.136Z</time></trkpt><trkpt lat="45.9167704" lon="13.4243459"><ele>28.833333333333332</ele><time>2026-05-03T08:23:14.136Z</time></trkpt><trkpt lat="45.9168069" lon="13.424478"><ele>28.666666666666664</ele><time>2026-05-03T08:23:15.135Z</time></trkpt><trkpt lat="45.9168306" lon="13.4245849"><ele>28.5</ele><time>2026-05-03T08:23:16.135Z</time></trkpt><trkpt lat="45.9168472" lon="13.4246731"><ele>28.333333333333336</ele><time>2026-05-03T08:23:17.136Z</time></trkpt><trkpt lat="45.9168067" lon="13.4248309"><ele>28.166666666666668</ele><time>2026-05-03T08:23:19.136Z</time></trkpt><trkpt lat="45.9167347" lon="13.4248802"><ele>28.0</ele><time>2026-05-03T08:23:20.136Z</time></trkpt><trkpt lat="45.9166457" lon="13.4248893"><ele>28.0</ele><time>2026-05-03T08:23:21.136Z</time></trkpt><trkpt lat="45.9165449" lon="13.4248854"><ele>27.999999999999996</ele><time>2026-05-03T08:23:22.135Z</time></trkpt><trkpt lat="45.9164393" lon="13.4249067"><ele>27.999999999999996</ele><time>2026-05-03T08:23:23.136Z</time></trkpt><trkpt lat="45.9163349" lon="13.4249688"><ele>28.0</ele><time>2026-05-03T08:23:24.136Z</time></trkpt><trkpt lat="45.9162462" lon="13.4250672"><ele>28.0</ele><time>2026-05-03T08:23:25.136Z</time></trkpt><trkpt lat="45.9161667" lon="13.4251705"><ele>28.0</ele><time>2026-05-03T08:23:26.136Z</time></trkpt><trkpt lat="45.9160857" lon="13.4252944"><ele>28.0</ele><time>2026-05-03T08:23:27.136Z</time></trkpt><trkpt lat="45.9159999" lon="13.4254139"><ele>28.0</ele><time>2026-05-03T08:23:28.136Z</time></trkpt><trkpt lat="45.9159074" lon="13.4255396"><ele>28.0</ele><time>2026-05-03T08:23:29.135Z</time></trkpt><trkpt lat="45.9158136" lon="13.4256662"><ele>27.5</ele><time>2026-05-03T08:23:30.136Z</time></trkpt><trkpt lat="45.9157233" lon="13.4257925"><ele>27.0</ele><time>2026-05-03T08:23:31.136Z</time></trkpt><trkpt lat="45.9156316" lon="13.4259406"><ele>26.5</ele><time>2026-05-03T08:23:32.136Z</time></trkpt><trkpt lat="45.9155454" lon="13.4260995"><ele>26.0</ele><time>2026-05-03T08:23:33.135Z</time></trkpt><trkpt lat="45.915463" lon="13.4262749"><ele>26.0</ele><time>2026-05-03T08:23:34.136Z</time></trkpt><trkpt lat="45.9153827" lon="13.4264544"><ele>26.0</ele><time>2026-05-03T08:23:35.136Z</time></trkpt><trkpt lat="45.9153113" lon="13.4266438"><ele>26.0</ele><time>2026-05-03T08:23:36.136Z</time></trkpt><trkpt lat="45.915241" lon="13.4268301"><ele>26.0</ele><time>2026-05-03T08:23:37.135Z</time></trkpt><trkpt lat="45.9151634" lon="13.4270129"><ele>26.0</ele><time>2026-05-03T08:23:38.136Z</time></trkpt><trkpt lat="45.9150897" lon="13.4272047"><ele>26.0</ele><time>2026-05-03T08:23:39.135Z</time></trkpt><trkpt lat="45.9150114" lon="13.4273911"><ele>26.0</ele><time>2026-05-03T08:23:40.136Z</time></trkpt><trkpt lat="45.9149336" lon="13.4275749"><ele>26.0</ele><time>2026-05-03T08:23:41.135Z</time></trkpt><trkpt lat="45.9148577" lon="13.4277543"><ele>26.0</ele><time>2026-05-03T08:23:42.136Z</time></trkpt><trkpt lat="45.9147795" lon="13.4279336"><ele>26.0</ele><time>2026-05-03T08:23:43.136Z</time></trkpt><trkpt lat="45.9146877" lon="13.4281126"><ele>26.0</ele><time>2026-05-03T08:23:44.135Z</time></trkpt><trkpt lat="45.9145831" lon="13.428279"><ele>26.0</ele><time>2026-05-03T08:23:45.136Z</time></trkpt><trkpt lat="45.9144653" lon="13.4284343"><ele>26.0</ele><time>2026-05-03T08:23:46.136Z</time></trkpt><trkpt lat="45.914337" lon="13.4285824"><ele>26.0</ele><time>2026-05-03T08:23:47.135Z</time></trkpt><trkpt lat="45.9142036" lon="13.4287225"><ele>26.0</ele><time>2026-05-03T08:23:48.136Z</time></trkpt><trkpt lat="45.9140732" lon="13.428867"><ele>26.0</ele><time>2026-05-03T08:23:49.136Z</time></trkpt><trkpt lat="45.913946" lon="13.4290134"><ele>26.0</ele><time>2026-05-03T08:23:50.136Z</time></trkpt><trkpt lat="45.9138228" lon="13.4291594"><ele>26.0</ele><time>2026-05-03T08:23:51.135Z</time></trkpt><trkpt lat="45.9137042" lon="13.4293206"><ele>26.0</ele><time>2026-05-03T08:23:52.135Z</time></trkpt><trkpt lat="45.9135974" lon="13.4295097"><ele>26.0</ele><time>2026-05-03T08:23:53.135Z</time></trkpt><trkpt lat="45.9134976" lon="13.429706"><ele>25.666666666666664</ele><time>2026-05-03T08:23:54.136Z</time></trkpt><trkpt lat="45.9134041" lon="13.4299081"><ele>25.333333333333336</ele><time>2026-05-03T08:23:55.136Z</time></trkpt><trkpt lat="45.9133159" lon="13.4301243"><ele>25.0</ele><time>2026-05-03T08:23:56.136Z</time></trkpt><trkpt lat="45.9132315" lon="13.4303467"><ele>24.666666666666668</ele><time>2026-05-03T08:23:57.135Z</time></trkpt><trkpt lat="45.9131469" lon="13.4305664"><ele>24.333333333333336</ele><time>2026-05-03T08:23:58.136Z</time></trkpt><trkpt lat="45.9130461" lon="13.4307663"><ele>24.0</ele><time>2026-05-03T08:23:59.136Z</time></trkpt><trkpt lat="45.912934" lon="13.4309573"><ele>24.0</ele><time>2026-05-03T08:24:00.134Z</time></trkpt><trkpt lat="45.912808" lon="13.4311359"><ele>24.0</ele><time>2026-05-03T08:24:01.135Z</time></trkpt><trkpt lat="45.9126809" lon="13.4313003"><ele>24.0</ele><time>2026-05-03T08:24:02.135Z</time></trkpt><trkpt lat="45.9125467" lon="13.4314507"><ele>23.333333333333332</ele><time>2026-05-03T08:24:03.135Z</time></trkpt><trkpt lat="45.9124071" lon="13.4315985"><ele>22.666666666666664</ele><time>2026-05-03T08:24:04.135Z</time></trkpt><trkpt lat="45.9122661" lon="13.4317427"><ele>22.0</ele><time>2026-05-03T08:24:05.134Z</time></trkpt><trkpt lat="45.9121296" lon="13.4318876"><ele>22.0</ele><time>2026-05-03T08:24:06.135Z</time></trkpt><trkpt lat="45.9119921" lon="13.4320353"><ele>22.0</ele><time>2026-05-03T08:24:07.134Z</time></trkpt><trkpt lat="45.9118591" lon="13.4321888"><ele>22.0</ele><time>2026-05-03T08:24:08.135Z</time></trkpt><trkpt lat="45.9117286" lon="13.4323444"><ele>22.666666666666664</ele><time>2026-05-03T08:24:09.135Z</time></trkpt><trkpt lat="45.9116032" lon="13.4325105"><ele>23.333333333333332</ele><time>2026-05-03T08:24:10.135Z</time></trkpt><trkpt lat="45.9114795" lon="13.4326794"><ele>24.0</ele><time>2026-05-03T08:24:11.135Z</time></trkpt><trkpt lat="45.911357" lon="13.4328567"><ele>24.333333333333336</ele><time>2026-05-03T08:24:12.134Z</time></trkpt><trkpt lat="45.9112399" lon="13.4330379"><ele>24.666666666666668</ele><time>2026-05-03T08:24:13.134Z</time></trkpt><trkpt lat="45.9111233" lon="13.4332188"><ele>25.0</ele><time>2026-05-03T08:24:14.135Z</time></trkpt><trkpt lat="45.9110104" lon="13.4333953"><ele>24.666666666666668</ele><time>2026-05-03T08:24:15.134Z</time></trkpt><trkpt lat="45.9108981" lon="13.4335733"><ele>24.333333333333336</ele><time>2026-05-03T08:24:16.135Z</time></trkpt><trkpt lat="45.9107901" lon="13.4337442"><ele>24.0</ele><time>2026-05-03T08:24:17.135Z</time></trkpt><trkpt lat="45.9106936" lon="13.4339152"><ele>23.75</ele><time>2026-05-03T08:24:18.135Z</time></trkpt><trkpt lat="45.9106048" lon="13.4340828"><ele>23.5</ele><time>2026-05-03T08:24:19.135Z</time></trkpt><trkpt lat="45.9105191" lon="13.4342398"><ele>23.25</ele><time>2026-05-03T08:24:20.135Z</time></trkpt><trkpt lat="45.910443" lon="13.4343975"><ele>23.0</ele><time>2026-05-03T08:24:21.135Z</time></trkpt><trkpt lat="45.9103705" lon="13.4345513"><ele>23.0</ele><time>2026-05-03T08:24:22.134Z</time></trkpt><trkpt lat="45.9103033" lon="13.4346897"><ele>23.0</ele><time>2026-05-03T08:24:23.135Z</time></trkpt><trkpt lat="45.9102449" lon="13.4348213"><ele>23.0</ele><time>2026-05-03T08:24:24.135Z</time></trkpt><trkpt lat="45.9101891" lon="13.4349303"><ele>23.0</ele><time>2026-05-03T08:24:25.135Z</time></trkpt><trkpt lat="45.9101391" lon="13.4350363"><ele>23.0</ele><time>2026-05-03T08:24:26.134Z</time></trkpt><trkpt lat="45.9100982" lon="13.4351264"><ele>23.0</ele><time>2026-05-03T08:24:27.135Z</time></trkpt><trkpt lat="45.9100816" lon="13.4352897"><ele>23.0</ele><time>2026-05-03T08:24:29.134Z</time></trkpt><trkpt lat="45.9100567" lon="13.4354364"><ele>23.0</ele><time>2026-05-03T08:24:31.135Z</time></trkpt><trkpt lat="45.9099892" lon="13.4355893"><ele>23.0</ele><time>2026-05-03T08:24:33.135Z</time></trkpt><trkpt lat="45.9099433" lon="13.435671"><ele>23.0</ele><time>2026-05-03T08:24:34.135Z</time></trkpt><trkpt lat="45.9098975" lon="13.4357659"><ele>23.0</ele><time>2026-05-03T08:24:35.135Z</time></trkpt><trkpt lat="45.9098522" lon="13.4358623"><ele>23.0</ele><time>2026-05-03T08:24:36.135Z</time></trkpt><trkpt lat="45.9098151" lon="13.435966"><ele>23.0</ele><time>2026-05-03T08:24:37.134Z</time></trkpt><trkpt lat="45.9097931" lon="13.4360679"><ele>23.0</ele><time>2026-05-03T08:24:38.135Z</time></trkpt><trkpt lat="45.9097926" lon="13.4361758"><ele>23.0</ele><time>2026-05-03T08:24:39.135Z</time></trkpt><trkpt lat="45.9098057" lon="13.436278"><ele>23.0</ele><time>2026-05-03T08:24:40.135Z</time></trkpt><trkpt lat="45.90984" lon="13.4363683"><ele>23.0</ele><time>2026-05-03T08:24:41.135Z</time></trkpt><trkpt lat="45.9098864" lon="13.4364653"><ele>23.0</ele><time>2026-05-03T08:24:42.135Z</time></trkpt><trkpt lat="45.9099383" lon="13.4365676"><ele>23.0</ele><time>2026-05-03T08:24:43.135Z</time></trkpt><trkpt lat="45.909984" lon="13.4366718"><ele>23.0</ele><time>2026-05-03T08:24:44.135Z</time></trkpt><trkpt lat="45.9100233" lon="13.4367799"><ele>23.0</ele><time>2026-05-03T08:24:45.135Z</time></trkpt><trkpt lat="45.9100674" lon="13.4368924"><ele>23.0</ele><time>2026-05-03T08:24:46.135Z</time></trkpt><trkpt lat="45.9101083" lon="13.4370088"><ele>23.4</ele><time>2026-05-03T08:24:47.135Z</time></trkpt><trkpt lat="45.9101487" lon="13.4371246"><ele>23.799999999999997</ele><time>2026-05-03T08:24:48.135Z</time></trkpt><trkpt lat="45.910231" lon="13.4373534"><ele>24.2</ele><time>2026-05-03T08:24:50.135Z</time></trkpt><trkpt lat="45.9102721" lon="13.4374608"><ele>24.6</ele><time>2026-05-03T08:24:51.134Z</time></trkpt><trkpt lat="45.9103216" lon="13.4375489"><ele>25.0</ele><time>2026-05-03T08:24:52.134Z</time></trkpt><trkpt lat="45.9103881" lon="13.4376336"><ele>25.0</ele><time>2026-05-03T08:24:53.135Z</time></trkpt><trkpt lat="45.9104619" lon="13.4377274"><ele>25.0</ele><time>2026-05-03T08:24:54.135Z</time></trkpt><trkpt lat="45.9105429" lon="13.4378102"><ele>25.0</ele><time>2026-05-03T08:24:55.135Z</time></trkpt><trkpt lat="45.9106266" lon="13.4378823"><ele>25.0</ele><time>2026-05-03T08:24:56.134Z</time></trkpt><trkpt lat="45.910711" lon="13.4379579"><ele>25.0</ele><time>2026-05-03T08:24:57.134Z</time></trkpt><trkpt lat="45.9107949" lon="13.438039"><ele>25.0</ele><time>2026-05-03T08:24:58.135Z</time></trkpt><trkpt lat="45.910882" lon="13.4381128"><ele>25.0</ele><time>2026-05-03T08:24:59.134Z</time></trkpt><trkpt lat="45.9109747" lon="13.4381871"><ele>25.0</ele><time>2026-05-03T08:25:00.135Z</time></trkpt><trkpt lat="45.911068" lon="13.4382559"><ele>25.0</ele><time>2026-05-03T08:25:01.135Z</time></trkpt><trkpt lat="45.9111643" lon="13.438316"><ele>25.0</ele><time>2026-05-03T08:25:02.135Z</time></trkpt><trkpt lat="45.9112609" lon="13.4383739"><ele>25.6</ele><time>2026-05-03T08:25:03.134Z</time></trkpt><trkpt lat="45.9113603" lon="13.4384318"><ele>26.2</ele><time>2026-05-03T08:25:04.134Z</time></trkpt><trkpt lat="45.9114575" lon="13.4385017"><ele>26.799999999999997</ele><time>2026-05-03T08:25:05.135Z</time></trkpt><trkpt lat="45.9115387" lon="13.4385761"><ele>27.4</ele><time>2026-05-03T08:25:06.135Z</time></trkpt><trkpt lat="45.9116178" lon="13.438667"><ele>28.0</ele><time>2026-05-03T08:25:07.135Z</time></trkpt><trkpt lat="45.9116916" lon="13.4387632"><ele>28.0</ele><time>2026-05-03T08:25:08.134Z</time></trkpt><trkpt lat="45.9117523" lon="13.4388626"><ele>27.999999999999996</ele><time>2026-05-03T08:25:09.135Z</time></trkpt><trkpt lat="45.9118129" lon="13.4389663"><ele>27.999999999999996</ele><time>2026-05-03T08:25:10.135Z</time></trkpt><trkpt lat="45.9118861" lon="13.4390627"><ele>28.0</ele><time>2026-05-03T08:25:11.134Z</time></trkpt><trkpt lat="45.9119684" lon="13.4391639"><ele>28.0</ele><time>2026-05-03T08:25:12.134Z</time></trkpt><trkpt lat="45.9120495" lon="13.4392653"><ele>28.0</ele><time>2026-05-03T08:25:13.135Z</time></trkpt><trkpt lat="45.9121248" lon="13.4393706"><ele>27.999999999999996</ele><time>2026-05-03T08:25:14.135Z</time></trkpt><trkpt lat="45.9122012" lon="13.4394803"><ele>27.999999999999996</ele><time>2026-05-03T08:25:15.135Z</time></trkpt><trkpt lat="45.912272" lon="13.4396027"><ele>28.0</ele><time>2026-05-03T08:25:16.135Z</time></trkpt><trkpt lat="45.9123396" lon="13.4397367"><ele>28.0</ele><time>2026-05-03T08:25:17.135Z</time></trkpt><trkpt lat="45.9124032" lon="13.4398678"><ele>28.0</ele><time>2026-05-03T08:25:18.135Z</time></trkpt><trkpt lat="45.9124655" lon="13.4400015"><ele>27.999999999999996</ele><time>2026-05-03T08:25:19.135Z</time></trkpt><trkpt lat="45.9125259" lon="13.4401366"><ele>27.999999999999996</ele><time>2026-05-03T08:25:20.134Z</time></trkpt><trkpt lat="45.9125843" lon="13.4402681"><ele>28.0</ele><time>2026-05-03T08:25:21.134Z</time></trkpt><trkpt lat="45.9126341" lon="13.4404009"><ele>28.0</ele><time>2026-05-03T08:25:22.135Z</time></trkpt><trkpt lat="45.9126837" lon="13.440533"><ele>28.0</ele><time>2026-05-03T08:25:23.134Z</time></trkpt><trkpt lat="45.9127352" lon="13.44067"><ele>27.999999999999996</ele><time>2026-05-03T08:25:24.135Z</time></trkpt><trkpt lat="45.9127823" lon="13.4408074"><ele>27.999999999999996</ele><time>2026-05-03T08:25:25.135Z</time></trkpt><trkpt lat="45.9128276" lon="13.4409429"><ele>28.0</ele><time>2026-05-03T08:25:26.135Z</time></trkpt><trkpt lat="45.912874" lon="13.4410798"><ele>28.0</ele><time>2026-05-03T08:25:27.135Z</time></trkpt><trkpt lat="45.9129194" lon="13.4412161"><ele>28.4</ele><time>2026-05-03T08:25:28.134Z</time></trkpt><trkpt lat="45.9129645" lon="13.4413415"><ele>28.799999999999997</ele><time>2026-05-03T08:25:29.135Z</time></trkpt><trkpt lat="45.9130106" lon="13.4414669"><ele>29.2</ele><time>2026-05-03T08:25:30.135Z</time></trkpt><trkpt lat="45.9130663" lon="13.441586"><ele>29.6</ele><time>2026-05-03T08:25:31.135Z</time></trkpt><trkpt lat="45.9131377" lon="13.4417014"><ele>30.0</ele><time>2026-05-03T08:25:32.135Z</time></trkpt><trkpt lat="45.9132226" lon="13.441795"><ele>30.0</ele><time>2026-05-03T08:25:33.135Z</time></trkpt><trkpt lat="45.9133121" lon="13.4418808"><ele>30.0</ele><time>2026-05-03T08:25:34.135Z</time></trkpt><trkpt lat="45.9134" lon="13.4419635"><ele>30.0</ele><time>2026-05-03T08:25:35.135Z</time></trkpt><trkpt lat="45.9134868" lon="13.4420419"><ele>30.0</ele><time>2026-05-03T08:25:36.134Z</time></trkpt><trkpt lat="45.9135651" lon="13.4421091"><ele>30.0</ele><time>2026-05-03T08:25:37.135Z</time></trkpt><trkpt lat="45.9136472" lon="13.4421589"><ele>30.0</ele><time>2026-05-03T08:25:38.134Z</time></trkpt><trkpt lat="45.9137366" lon="13.442204"><ele>30.0</ele><time>2026-05-03T08:25:39.135Z</time></trkpt><trkpt lat="45.9138377" lon="13.442246"><ele>30.0</ele><time>2026-05-03T08:25:40.135Z</time></trkpt><trkpt lat="45.9139437" lon="13.4422822"><ele>30.0</ele><time>2026-05-03T08:25:41.135Z</time></trkpt><trkpt lat="45.9140527" lon="13.4423144"><ele>30.0</ele><time>2026-05-03T08:25:42.134Z</time></trkpt><trkpt lat="45.914158" lon="13.4423351"><ele>29.8</ele><time>2026-05-03T08:25:43.135Z</time></trkpt><trkpt lat="45.9142594" lon="13.4423569"><ele>29.6</ele><time>2026-05-03T08:25:44.135Z</time></trkpt><trkpt lat="45.9143605" lon="13.4423782"><ele>29.4</ele><time>2026-05-03T08:25:45.135Z</time></trkpt><trkpt lat="45.9144635" lon="13.4424044"><ele>29.2</ele><time>2026-05-03T08:25:46.134Z</time></trkpt><trkpt lat="45.9145659" lon="13.4424371"><ele>29.0</ele><time>2026-05-03T08:25:47.135Z</time></trkpt><trkpt lat="45.9146681" lon="13.4424789"><ele>29.0</ele><time>2026-05-03T08:25:48.135Z</time></trkpt><trkpt lat="45.9147642" lon="13.4425323"><ele>29.0</ele><time>2026-05-03T08:25:49.134Z</time></trkpt><trkpt lat="45.9148627" lon="13.4425996"><ele>29.0</ele><time>2026-05-03T08:25:50.135Z</time></trkpt><trkpt lat="45.9149605" lon="13.4426631"><ele>29.0</ele><time>2026-05-03T08:25:51.135Z</time></trkpt><trkpt lat="45.9150593" lon="13.4427257"><ele>29.0</ele><time>2026-05-03T08:25:52.135Z</time></trkpt><trkpt lat="45.9151657" lon="13.4427939"><ele>28.75</ele><time>2026-05-03T08:25:53.134Z</time></trkpt><trkpt lat="45.9152742" lon="13.4428595"><ele>28.5</ele><time>2026-05-03T08:25:54.135Z</time></trkpt><trkpt lat="45.9153756" lon="13.4429333"><ele>28.25</ele><time>2026-05-03T08:25:55.135Z</time></trkpt><trkpt lat="45.9154799" lon="13.443008"><ele>28.0</ele><time>2026-05-03T08:25:56.135Z</time></trkpt><trkpt lat="45.9155793" lon="13.4430796"><ele>27.75</ele><time>2026-05-03T08:25:57.134Z</time></trkpt><trkpt lat="45.9156804" lon="13.4431458"><ele>27.5</ele><time>2026-05-03T08:25:58.135Z</time></trkpt><trkpt lat="45.9157904" lon="13.4432025"><ele>27.25</ele><time>2026-05-03T08:25:59.135Z</time></trkpt><trkpt lat="45.9159014" lon="13.4432478"><ele>27.0</ele><time>2026-05-03T08:26:00.135Z</time></trkpt><trkpt lat="45.9160126" lon="13.443268"><ele>27.5</ele><time>2026-05-03T08:26:01.134Z</time></trkpt><trkpt lat="45.9161297" lon="13.4432798"><ele>28.0</ele><time>2026-05-03T08:26:02.134Z</time></trkpt><trkpt lat="45.9162443" lon="13.4432974"><ele>28.5</ele><time>2026-05-03T08:26:03.135Z</time></trkpt><trkpt lat="45.9163626" lon="13.4433119"><ele>29.0</ele><time>2026-05-03T08:26:04.135Z</time></trkpt><trkpt lat="45.9164759" lon="13.4433333"><ele>29.0</ele><time>2026-05-03T08:26:05.134Z</time></trkpt><trkpt lat="45.9165809" lon="13.4433666"><ele>29.0</ele><time>2026-05-03T08:26:06.135Z</time></trkpt><trkpt lat="45.9166885" lon="13.443405"><ele>29.0</ele><time>2026-05-03T08:26:07.134Z</time></trkpt><trkpt lat="45.9168074" lon="13.4434405"><ele>29.0</ele><time>2026-05-03T08:26:08.134Z</time></trkpt><trkpt lat="45.9169217" lon="13.4434775"><ele>29.5</ele><time>2026-05-03T08:26:09.135Z</time></trkpt><trkpt lat="45.9170293" lon="13.4435074"><ele>30.0</ele><time>2026-05-03T08:26:10.134Z</time></trkpt><trkpt lat="45.91714" lon="13.4435421"><ele>30.5</ele><time>2026-05-03T08:26:11.134Z</time></trkpt><trkpt lat="45.9172552" lon="13.4435646"><ele>31.0</ele><time>2026-05-03T08:26:12.135Z</time></trkpt><trkpt lat="45.9173671" lon="13.4435801"><ele>31.0</ele><time>2026-05-03T08:26:13.135Z</time></trkpt><trkpt lat="45.9174875" lon="13.4435706"><ele>31.0</ele><time>2026-05-03T08:26:14.135Z</time></trkpt><trkpt lat="45.9176011" lon="13.4435442"><ele>31.0</ele><time>2026-05-03T08:26:15.135Z</time></trkpt><trkpt lat="45.9177082" lon="13.4435245"><ele>31.0</ele><time>2026-05-03T08:26:16.135Z</time></trkpt><trkpt lat="45.91782" lon="13.4435142"><ele>30.6</ele><time>2026-05-03T08:26:17.135Z</time></trkpt><trkpt lat="45.9179243" lon="13.443504"><ele>30.200000000000003</ele><time>2026-05-03T08:26:18.134Z</time></trkpt><trkpt lat="45.9180204" lon="13.4434988"><ele>29.799999999999997</ele><time>2026-05-03T08:26:19.134Z</time></trkpt><trkpt lat="45.9181151" lon="13.4435043"><ele>29.4</ele><time>2026-05-03T08:26:20.135Z</time></trkpt><trkpt lat="45.9182056" lon="13.4435306"><ele>29.0</ele><time>2026-05-03T08:26:21.134Z</time></trkpt><trkpt lat="45.918299" lon="13.4435754"><ele>28.999999999999996</ele><time>2026-05-03T08:26:22.135Z</time></trkpt><trkpt lat="45.9183779" lon="13.443633"><ele>29.0</ele><time>2026-05-03T08:26:23.135Z</time></trkpt><trkpt lat="45.9184633" lon="13.4437034"><ele>29.0</ele><time>2026-05-03T08:26:24.135Z</time></trkpt><trkpt lat="45.9185343" lon="13.4437846"><ele>29.0</ele><time>2026-05-03T08:26:25.135Z</time></trkpt><trkpt lat="45.9185949" lon="13.4438824"><ele>28.999999999999996</ele><time>2026-05-03T08:26:26.135Z</time></trkpt><trkpt lat="45.9186422" lon="13.4439741"><ele>29.0</ele><time>2026-05-03T08:26:27.135Z</time></trkpt><trkpt lat="45.9186961" lon="13.4440724"><ele>28.799999999999997</ele><time>2026-05-03T08:26:28.135Z</time></trkpt><trkpt lat="45.9187569" lon="13.4441809"><ele>28.599999999999998</ele><time>2026-05-03T08:26:29.134Z</time></trkpt><trkpt lat="45.9188227" lon="13.4443043"><ele>28.4</ele><time>2026-05-03T08:26:30.135Z</time></trkpt><trkpt lat="45.9188725" lon="13.4444368"><ele>28.2</ele><time>2026-05-03T08:26:31.134Z</time></trkpt><trkpt lat="45.9189225" lon="13.444583"><ele>28.0</ele><time>2026-05-03T08:26:32.134Z</time></trkpt><trkpt lat="45.9190085" lon="13.4448816"><ele>28.0</ele><time>2026-05-03T08:26:34.135Z</time></trkpt><trkpt lat="45.9190472" lon="13.4450282"><ele>27.999999999999996</ele><time>2026-05-03T08:26:35.135Z</time></trkpt><trkpt lat="45.9190759" lon="13.4451563"><ele>27.999999999999996</ele><time>2026-05-03T08:26:36.135Z</time></trkpt><trkpt lat="45.9191056" lon="13.4452776"><ele>28.0</ele><time>2026-05-03T08:26:37.134Z</time></trkpt><trkpt lat="45.919135" lon="13.4454044"><ele>28.0</ele><time>2026-05-03T08:26:38.135Z</time></trkpt><trkpt lat="45.9191648" lon="13.4455347"><ele>27.799999999999997</ele><time>2026-05-03T08:26:39.135Z</time></trkpt><trkpt lat="45.9191932" lon="13.4456729"><ele>27.599999999999998</ele><time>2026-05-03T08:26:40.134Z</time></trkpt><trkpt lat="45.9192187" lon="13.4458096"><ele>27.400000000000002</ele><time>2026-05-03T08:26:41.135Z</time></trkpt><trkpt lat="45.9192478" lon="13.4459563"><ele>27.200000000000003</ele><time>2026-05-03T08:26:42.135Z</time></trkpt><trkpt lat="45.9192739" lon="13.4460999"><ele>27.0</ele><time>2026-05-03T08:26:43.135Z</time></trkpt><trkpt lat="45.9193001" lon="13.4462411"><ele>27.0</ele><time>2026-05-03T08:26:44.134Z</time></trkpt><trkpt lat="45.9193266" lon="13.4463836"><ele>27.000000000000004</ele><time>2026-05-03T08:26:45.135Z</time></trkpt><trkpt lat="45.9193543" lon="13.4465268"><ele>27.000000000000004</ele><time>2026-05-03T08:26:46.135Z</time></trkpt><trkpt lat="45.9193815" lon="13.4466708"><ele>27.0</ele><time>2026-05-03T08:26:47.135Z</time></trkpt><trkpt lat="45.9194096" lon="13.4468144"><ele>27.0</ele><time>2026-05-03T08:26:48.135Z</time></trkpt><trkpt lat="45.9194372" lon="13.4469615"><ele>27.0</ele><time>2026-05-03T08:26:49.135Z</time></trkpt><trkpt lat="45.9194621" lon="13.4471189"><ele>27.0</ele><time>2026-05-03T08:26:50.135Z</time></trkpt><trkpt lat="45.9194878" lon="13.4472796"><ele>27.0</ele><time>2026-05-03T08:26:51.135Z</time></trkpt><trkpt lat="45.9195116" lon="13.4474394"><ele>27.0</ele><time>2026-05-03T08:26:52.135Z</time></trkpt><trkpt lat="45.9195294" lon="13.4476022"><ele>27.0</ele><time>2026-05-03T08:26:53.134Z</time></trkpt><trkpt lat="45.9195517" lon="13.4477515"><ele>27.000000000000004</ele><time>2026-05-03T08:26:54.135Z</time></trkpt><trkpt lat="45.9195724" lon="13.4478936"><ele>27.000000000000004</ele><time>2026-05-03T08:26:55.134Z</time></trkpt><trkpt lat="45.9195895" lon="13.448047"><ele>27.0</ele><time>2026-05-03T08:26:56.135Z</time></trkpt><trkpt lat="45.9196033" lon="13.4482035"><ele>27.0</ele><time>2026-05-03T08:26:57.135Z</time></trkpt><trkpt lat="45.9196124" lon="13.448358"><ele>27.0</ele><time>2026-05-03T08:26:58.135Z</time></trkpt><trkpt lat="45.9196181" lon="13.4485191"><ele>27.000000000000004</ele><time>2026-05-03T08:26:59.134Z</time></trkpt><trkpt lat="45.9196242" lon="13.4486707"><ele>27.000000000000004</ele><time>2026-05-03T08:27:00.135Z</time></trkpt><trkpt lat="45.9196314" lon="13.4488092"><ele>27.0</ele><time>2026-05-03T08:27:01.135Z</time></trkpt><trkpt lat="45.9196372" lon="13.4489527"><ele>27.0</ele><time>2026-05-03T08:27:02.135Z</time></trkpt><trkpt lat="45.9196397" lon="13.4490935"><ele>27.0</ele><time>2026-05-03T08:27:03.135Z</time></trkpt><trkpt lat="45.9196458" lon="13.4492363"><ele>27.000000000000004</ele><time>2026-05-03T08:27:04.135Z</time></trkpt><trkpt lat="45.9196507" lon="13.449385"><ele>27.000000000000004</ele><time>2026-05-03T08:27:05.135Z</time></trkpt><trkpt lat="45.9196561" lon="13.4495315"><ele>27.0</ele><time>2026-05-03T08:27:06.135Z</time></trkpt><trkpt lat="45.9196617" lon="13.4496876"><ele>27.0</ele><time>2026-05-03T08:27:07.134Z</time></trkpt><trkpt lat="45.919669" lon="13.4498359"><ele>27.0</ele><time>2026-05-03T08:27:08.135Z</time></trkpt><trkpt lat="45.9196801" lon="13.4499773"><ele>27.000000000000004</ele><time>2026-05-03T08:27:09.135Z</time></trkpt><trkpt lat="45.9196864" lon="13.450119"><ele>27.000000000000004</ele><time>2026-05-03T08:27:10.135Z</time></trkpt><trkpt lat="45.9196884" lon="13.4502522"><ele>27.0</ele><time>2026-05-03T08:27:11.134Z</time></trkpt><trkpt lat="45.9196929" lon="13.4503801"><ele>27.0</ele><time>2026-05-03T08:27:12.135Z</time></trkpt><trkpt lat="45.9197005" lon="13.4505134"><ele>27.200000000000003</ele><time>2026-05-03T08:27:13.135Z</time></trkpt><trkpt lat="45.9197077" lon="13.4506477"><ele>27.400000000000002</ele><time>2026-05-03T08:27:14.135Z</time></trkpt><trkpt lat="45.9197154" lon="13.450781"><ele>27.599999999999998</ele><time>2026-05-03T08:27:15.135Z</time></trkpt><trkpt lat="45.9197253" lon="13.4509121"><ele>27.799999999999997</ele><time>2026-05-03T08:27:16.135Z</time></trkpt><trkpt lat="45.9197363" lon="13.4510388"><ele>28.0</ele><time>2026-05-03T08:27:17.134Z</time></trkpt><trkpt lat="45.91975" lon="13.4511644"><ele>28.0</ele><time>2026-05-03T08:27:18.134Z</time></trkpt><trkpt lat="45.9197675" lon="13.4512957"><ele>27.999999999999996</ele><time>2026-05-03T08:27:19.134Z</time></trkpt><trkpt lat="45.9197892" lon="13.4514298"><ele>27.999999999999996</ele><time>2026-05-03T08:27:20.134Z</time></trkpt><trkpt lat="45.9198095" lon="13.4515542"><ele>28.0</ele><time>2026-05-03T08:27:21.135Z</time></trkpt><trkpt lat="45.9198185" lon="13.4516807"><ele>28.0</ele><time>2026-05-03T08:27:22.135Z</time></trkpt><trkpt lat="45.9198205" lon="13.4518151"><ele>28.0</ele><time>2026-05-03T08:27:23.134Z</time></trkpt><trkpt lat="45.9198277" lon="13.4519471"><ele>27.999999999999996</ele><time>2026-05-03T08:27:24.135Z</time></trkpt><trkpt lat="45.919841" lon="13.4520709"><ele>27.999999999999996</ele><time>2026-05-03T08:27:25.135Z</time></trkpt><trkpt lat="45.9198632" lon="13.4521967"><ele>28.0</ele><time>2026-05-03T08:27:26.134Z</time></trkpt><trkpt lat="45.9198902" lon="13.4523277"><ele>28.0</ele><time>2026-05-03T08:27:27.135Z</time></trkpt><trkpt lat="45.9199202" lon="13.4524619"><ele>28.000000000000004</ele><time>2026-05-03T08:27:28.135Z</time></trkpt><trkpt lat="45.9199508" lon="13.4525953"><ele>28.0</ele><time>2026-05-03T08:27:29.135Z</time></trkpt><trkpt lat="45.9199781" lon="13.4527139"><ele>28.0</ele><time>2026-05-03T08:27:30.134Z</time></trkpt><trkpt lat="45.9200058" lon="13.4528286"><ele>28.0</ele><time>2026-05-03T08:27:31.135Z</time></trkpt><trkpt lat="45.9200328" lon="13.4529408"><ele>28.000000000000004</ele><time>2026-05-03T08:27:32.135Z</time></trkpt><trkpt lat="45.9200571" lon="13.4530543"><ele>28.0</ele><time>2026-05-03T08:27:33.135Z</time></trkpt><trkpt lat="45.9200746" lon="13.4531525"><ele>28.666666666666668</ele><time>2026-05-03T08:27:34.134Z</time></trkpt><trkpt lat="45.9201178" lon="13.4532924"><ele>29.333333333333336</ele><time>2026-05-03T08:27:36.134Z</time></trkpt><trkpt lat="45.9201705" lon="13.4533888"><ele>30.0</ele><time>2026-05-03T08:27:38.134Z</time></trkpt><trkpt lat="45.9202678" lon="13.4533779"><ele>30.666666666666664</ele><time>2026-05-03T08:27:40.135Z</time></trkpt><trkpt lat="45.9203327" lon="13.4533574"><ele>31.333333333333332</ele><time>2026-05-03T08:27:41.134Z</time></trkpt><trkpt lat="45.9204017" lon="13.4533325"><ele>32.0</ele><time>2026-05-03T08:27:42.135Z</time></trkpt><trkpt lat="45.9205012" lon="13.4533082"><ele>32.0</ele><time>2026-05-03T08:27:44.134Z</time></trkpt><trkpt lat="45.9205606" lon="13.453373"><ele>32.0</ele><time>2026-05-03T08:27:46.134Z</time></trkpt><trkpt lat="45.9205802" lon="13.4535598"><ele>32.0</ele><time>2026-05-03T08:27:48.135Z</time></trkpt><trkpt lat="45.9205808" lon="13.4536815"><ele>32.0</ele><time>2026-05-03T08:27:49.134Z</time></trkpt><trkpt lat="45.9205829" lon="13.4538004"><ele>32.0</ele><time>2026-05-03T08:27:50.135Z</time></trkpt><trkpt lat="45.9205908" lon="13.453913"><ele>31.999999999999996</ele><time>2026-05-03T08:27:51.135Z</time></trkpt><trkpt lat="45.9206116" lon="13.4540202"><ele>32.0</ele><time>2026-05-03T08:27:52.135Z</time></trkpt><trkpt lat="45.9206391" lon="13.4541288"><ele>32.0</ele><time>2026-05-03T08:27:53.135Z</time></trkpt><trkpt lat="45.9206765" lon="13.4542274"><ele>32.0</ele><time>2026-05-03T08:27:54.135Z</time></trkpt><trkpt lat="45.920717" lon="13.454322"><ele>31.999999999999996</ele><time>2026-05-03T08:27:55.135Z</time></trkpt><trkpt lat="45.9207477" lon="13.4544265"><ele>32.0</ele><time>2026-05-03T08:27:56.135Z</time></trkpt><trkpt lat="45.9207748" lon="13.4545276"><ele>32.0</ele><time>2026-05-03T08:27:57.135Z</time></trkpt><trkpt lat="45.9207874" lon="13.4546269"><ele>31.999999999999996</ele><time>2026-05-03T08:27:58.135Z</time></trkpt><trkpt lat="45.9207932" lon="13.4547314"><ele>32.0</ele><time>2026-05-03T08:27:59.135Z</time></trkpt><trkpt lat="45.9207945" lon="13.4548435"><ele>32.0</ele><time>2026-05-03T08:28:00.134Z</time></trkpt><trkpt lat="45.9208079" lon="13.4549586"><ele>31.999999999999996</ele><time>2026-05-03T08:28:01.133Z</time></trkpt><trkpt lat="45.9208259" lon="13.4550522"><ele>32.0</ele><time>2026-05-03T08:28:02.134Z</time></trkpt><trkpt lat="45.920861" lon="13.4551345"><ele>32.0</ele><time>2026-05-03T08:28:03.134Z</time></trkpt><trkpt lat="45.9209099" lon="13.455233"><ele>31.999999999999996</ele><time>2026-05-03T08:28:04.134Z</time></trkpt><trkpt lat="45.9209591" lon="13.4553314"><ele>32.0</ele><time>2026-05-03T08:28:05.133Z</time></trkpt><trkpt lat="45.9210057" lon="13.4554169"><ele>32.0</ele><time>2026-05-03T08:28:06.134Z</time></trkpt><trkpt lat="45.9210469" lon="13.4555017"><ele>32.0</ele><time>2026-05-03T08:28:07.133Z</time></trkpt><trkpt lat="45.9210891" lon="13.4555871"><ele>31.999999999999996</ele><time>2026-05-03T08:28:08.133Z</time></trkpt><trkpt lat="45.9211348" lon="13.4556763"><ele>32.0</ele><time>2026-05-03T08:28:09.134Z</time></trkpt><trkpt lat="45.9212039" lon="13.4558085"><ele>31.999999999999996</ele><time>2026-05-03T08:28:11.134Z</time></trkpt><trkpt lat="45.9212529" lon="13.4558924"><ele>32.0</ele><time>2026-05-03T08:28:13.134Z</time></trkpt><trkpt lat="45.9212935" lon="13.4559752"><ele>32.0</ele><time>2026-05-03T08:28:17.134Z</time></trkpt><trkpt lat="45.9213775" lon="13.4560843"><ele>32.0</ele><time>2026-05-03T08:28:20.134Z</time></trkpt><trkpt lat="45.9214321" lon="13.4561604"><ele>31.999999999999996</ele><time>2026-05-03T08:28:21.133Z</time></trkpt><trkpt lat="45.9214808" lon="13.4562492"><ele>32.0</ele><time>2026-05-03T08:28:22.134Z</time></trkpt><trkpt lat="45.9215384" lon="13.4563488"><ele>32.0</ele><time>2026-05-03T08:28:23.134Z</time></trkpt><trkpt lat="45.9215976" lon="13.4564498"><ele>32.0</ele><time>2026-05-03T08:28:24.133Z</time></trkpt><trkpt lat="45.9216624" lon="13.4565539"><ele>32.0</ele><time>2026-05-03T08:28:25.134Z</time></trkpt><trkpt lat="45.9217236" lon="13.456657"><ele>32.0</ele><time>2026-05-03T08:28:26.134Z</time></trkpt><trkpt lat="45.9217908" lon="13.4567627"><ele>32.0</ele><time>2026-05-03T08:28:27.134Z</time></trkpt><trkpt lat="45.9218682" lon="13.4568675"><ele>32.2</ele><time>2026-05-03T08:28:28.134Z</time></trkpt><trkpt lat="45.9219451" lon="13.4569661"><ele>32.400000000000006</ele><time>2026-05-03T08:28:29.134Z</time></trkpt><trkpt lat="45.9220297" lon="13.4570677"><ele>32.599999999999994</ele><time>2026-05-03T08:28:30.133Z</time></trkpt><trkpt lat="45.922109" lon="13.4571692"><ele>32.8</ele><time>2026-05-03T08:28:31.134Z</time></trkpt><trkpt lat="45.922186" lon="13.4572674"><ele>33.0</ele><time>2026-05-03T08:28:32.134Z</time></trkpt><trkpt lat="45.9222673" lon="13.4573688"><ele>33.0</ele><time>2026-05-03T08:28:33.133Z</time></trkpt><trkpt lat="45.922359" lon="13.4574706"><ele>33.0</ele><time>2026-05-03T08:28:34.134Z</time></trkpt><trkpt lat="45.922453" lon="13.4575677"><ele>33.0</ele><time>2026-05-03T08:28:35.134Z</time></trkpt><trkpt lat="45.9225519" lon="13.457658"><ele>33.0</ele><time>2026-05-03T08:28:36.134Z</time></trkpt><trkpt lat="45.9226531" lon="13.4577416"><ele>33.199999999999996</ele><time>2026-05-03T08:28:37.134Z</time></trkpt><trkpt lat="45.9227558" lon="13.4578234"><ele>33.4</ele><time>2026-05-03T08:28:38.134Z</time></trkpt><trkpt lat="45.9228535" lon="13.457898"><ele>33.599999999999994</ele><time>2026-05-03T08:28:39.133Z</time></trkpt><trkpt lat="45.9229477" lon="13.457979"><ele>33.8</ele><time>2026-05-03T08:28:40.134Z</time></trkpt><trkpt lat="45.9230391" lon="13.4580653"><ele>34.0</ele><time>2026-05-03T08:28:41.134Z</time></trkpt><trkpt lat="45.9231261" lon="13.4581526"><ele>33.6</ele><time>2026-05-03T08:28:42.134Z</time></trkpt><trkpt lat="45.9232163" lon="13.4582418"><ele>33.2</ele><time>2026-05-03T08:28:43.133Z</time></trkpt><trkpt lat="45.9232989" lon="13.4583378"><ele>32.800000000000004</ele><time>2026-05-03T08:28:44.134Z</time></trkpt><trkpt lat="45.92338" lon="13.4584356"><ele>32.4</ele><time>2026-05-03T08:28:45.133Z</time></trkpt><trkpt lat="45.9234536" lon="13.4585377"><ele>32.0</ele><time>2026-05-03T08:28:46.134Z</time></trkpt><trkpt lat="45.9235217" lon="13.4586541"><ele>31.999999999999996</ele><time>2026-05-03T08:28:47.134Z</time></trkpt><trkpt lat="45.9235837" lon="13.458761"><ele>32.0</ele><time>2026-05-03T08:28:48.133Z</time></trkpt><trkpt lat="45.9236366" lon="13.4588575"><ele>32.0</ele><time>2026-05-03T08:28:49.134Z</time></trkpt><trkpt lat="45.9236864" lon="13.4589585"><ele>32.0</ele><time>2026-05-03T08:28:50.134Z</time></trkpt><trkpt lat="45.9237277" lon="13.4590515"><ele>31.999999999999996</ele><time>2026-05-03T08:28:51.134Z</time></trkpt><trkpt lat="45.9237736" lon="13.4591527"><ele>32.0</ele><time>2026-05-03T08:28:52.134Z</time></trkpt><trkpt lat="45.9238277" lon="13.4592658"><ele>31.999999999999996</ele><time>2026-05-03T08:28:53.133Z</time></trkpt><trkpt lat="45.9238833" lon="13.4593895"><ele>32.0</ele><time>2026-05-03T08:28:54.133Z</time></trkpt><trkpt lat="45.9239177" lon="13.4595032"><ele>32.0</ele><time>2026-05-03T08:28:55.134Z</time></trkpt><trkpt lat="45.9239426" lon="13.4596226"><ele>32.0</ele><time>2026-05-03T08:28:56.133Z</time></trkpt><trkpt lat="45.9239727" lon="13.4597188"><ele>31.999999999999996</ele><time>2026-05-03T08:28:57.134Z</time></trkpt><trkpt lat="45.9240078" lon="13.4598278"><ele>32.0</ele><time>2026-05-03T08:28:58.133Z</time></trkpt><trkpt lat="45.9240402" lon="13.4599484"><ele>32.0</ele><time>2026-05-03T08:28:59.134Z</time></trkpt><trkpt lat="45.9240699" lon="13.4600784"><ele>32.0</ele><time>2026-05-03T08:29:00.134Z</time></trkpt><trkpt lat="45.9240863" lon="13.4602149"><ele>32.0</ele><time>2026-05-03T08:29:01.133Z</time></trkpt><trkpt lat="45.924109" lon="13.4603662"><ele>32.0</ele><time>2026-05-03T08:29:02.133Z</time></trkpt><trkpt lat="45.9241254" lon="13.4605181"><ele>32.0</ele><time>2026-05-03T08:29:03.134Z</time></trkpt><trkpt lat="45.9241382" lon="13.4606782"><ele>32.0</ele><time>2026-05-03T08:29:04.134Z</time></trkpt><trkpt lat="45.924156" lon="13.4608384"><ele>32.0</ele><time>2026-05-03T08:29:05.134Z</time></trkpt><trkpt lat="45.9241748" lon="13.4609993"><ele>32.0</ele><time>2026-05-03T08:29:06.134Z</time></trkpt><trkpt lat="45.9241969" lon="13.4611475"><ele>32.0</ele><time>2026-05-03T08:29:07.134Z</time></trkpt><trkpt lat="45.9242181" lon="13.4613072"><ele>32.0</ele><time>2026-05-03T08:29:08.134Z</time></trkpt><trkpt lat="45.9242374" lon="13.4614604"><ele>32.0</ele><time>2026-05-03T08:29:09.134Z</time></trkpt><trkpt lat="45.9242524" lon="13.4616207"><ele>32.0</ele><time>2026-05-03T08:29:10.134Z</time></trkpt><trkpt lat="45.9242667" lon="13.4617837"><ele>32.0</ele><time>2026-05-03T08:29:11.134Z</time></trkpt><trkpt lat="45.9242858" lon="13.4619442"><ele>32.0</ele><time>2026-05-03T08:29:12.133Z</time></trkpt><trkpt lat="45.9243075" lon="13.4621044"><ele>32.0</ele><time>2026-05-03T08:29:13.134Z</time></trkpt><trkpt lat="45.9243295" lon="13.4622624"><ele>32.0</ele><time>2026-05-03T08:29:14.134Z</time></trkpt><trkpt lat="45.9243489" lon="13.4624234"><ele>32.0</ele><time>2026-05-03T08:29:15.134Z</time></trkpt><trkpt lat="45.9243702" lon="13.4625809"><ele>32.0</ele><time>2026-05-03T08:29:16.134Z</time></trkpt><trkpt lat="45.9243956" lon="13.4627364"><ele>32.0</ele><time>2026-05-03T08:29:17.134Z</time></trkpt><trkpt lat="45.9244243" lon="13.4628914"><ele>32.0</ele><time>2026-05-03T08:29:18.133Z</time></trkpt><trkpt lat="45.9244586" lon="13.4630403"><ele>32.0</ele><time>2026-05-03T08:29:19.134Z</time></trkpt><trkpt lat="45.9244997" lon="13.4631863"><ele>32.0</ele><time>2026-05-03T08:29:20.134Z</time></trkpt><trkpt lat="45.9245401" lon="13.4633243"><ele>32.0</ele><time>2026-05-03T08:29:21.133Z</time></trkpt><trkpt lat="45.9245784" lon="13.4634582"><ele>32.0</ele><time>2026-05-03T08:29:22.134Z</time></trkpt><trkpt lat="45.9246163" lon="13.4635947"><ele>32.0</ele><time>2026-05-03T08:29:23.134Z</time></trkpt><trkpt lat="45.9246555" lon="13.4637433"><ele>32.0</ele><time>2026-05-03T08:29:24.133Z</time></trkpt><trkpt lat="45.9246939" lon="13.4638887"><ele>32.0</ele><time>2026-05-03T08:29:25.133Z</time></trkpt><trkpt lat="45.9247346" lon="13.4640266"><ele>32.0</ele><time>2026-05-03T08:29:26.134Z</time></trkpt><trkpt lat="45.9247812" lon="13.4641639"><ele>32.0</ele><time>2026-05-03T08:29:27.134Z</time></trkpt><trkpt lat="45.9248261" lon="13.4642957"><ele>32.0</ele><time>2026-05-03T08:29:28.134Z</time></trkpt><trkpt lat="45.9248699" lon="13.4644216"><ele>32.0</ele><time>2026-05-03T08:29:29.134Z</time></trkpt><trkpt lat="45.9249174" lon="13.4645538"><ele>32.0</ele><time>2026-05-03T08:29:30.134Z</time></trkpt><trkpt lat="45.9249667" lon="13.4646836"><ele>32.0</ele><time>2026-05-03T08:29:31.134Z</time></trkpt><trkpt lat="45.9250121" lon="13.4648123"><ele>32.0</ele><time>2026-05-03T08:29:32.134Z</time></trkpt><trkpt lat="45.9250597" lon="13.4649483"><ele>32.0</ele><time>2026-05-03T08:29:33.134Z</time></trkpt><trkpt lat="45.9251104" lon="13.4650927"><ele>32.0</ele><time>2026-05-03T08:29:34.133Z</time></trkpt><trkpt lat="45.9251573" lon="13.4652367"><ele>32.0</ele><time>2026-05-03T08:29:35.134Z</time></trkpt><trkpt lat="45.9252003" lon="13.4653781"><ele>32.0</ele><time>2026-05-03T08:29:36.134Z</time></trkpt><trkpt lat="45.9252459" lon="13.4655172"><ele>32.0</ele><time>2026-05-03T08:29:37.134Z</time></trkpt><trkpt lat="45.9252937" lon="13.4656616"><ele>32.0</ele><time>2026-05-03T08:29:38.134Z</time></trkpt><trkpt lat="45.9253358" lon="13.465798"><ele>32.0</ele><time>2026-05-03T08:29:39.134Z</time></trkpt><trkpt lat="45.9253723" lon="13.4659276"><ele>32.0</ele><time>2026-05-03T08:29:40.134Z</time></trkpt><trkpt lat="45.9254104" lon="13.4660608"><ele>32.0</ele><time>2026-05-03T08:29:41.134Z</time></trkpt><trkpt lat="45.925445" lon="13.4661883"><ele>32.0</ele><time>2026-05-03T08:29:42.133Z</time></trkpt><trkpt lat="45.9254653" lon="13.4662908"><ele>31.999999999999996</ele><time>2026-05-03T08:29:43.133Z</time></trkpt><trkpt lat="45.9254926" lon="13.4663915"><ele>32.0</ele><time>2026-05-03T08:29:44.133Z</time></trkpt><trkpt lat="45.9255213" lon="13.4665005"><ele>32.0</ele><time>2026-05-03T08:29:45.134Z</time></trkpt><trkpt lat="45.9255582" lon="13.4666142"><ele>32.0</ele><time>2026-05-03T08:29:46.134Z</time></trkpt><trkpt lat="45.9255984" lon="13.4667242"><ele>31.999999999999996</ele><time>2026-05-03T08:29:47.134Z</time></trkpt><trkpt lat="45.9256333" lon="13.4668292"><ele>32.0</ele><time>2026-05-03T08:29:48.134Z</time></trkpt><trkpt lat="45.925664" lon="13.4669315"><ele>31.999999999999996</ele><time>2026-05-03T08:29:49.134Z</time></trkpt><trkpt lat="45.925695" lon="13.4670305"><ele>32.0</ele><time>2026-05-03T08:29:50.133Z</time></trkpt><trkpt lat="45.9257195" lon="13.467128"><ele>32.0</ele><time>2026-05-03T08:29:51.134Z</time></trkpt><trkpt lat="45.9257468" lon="13.4672147"><ele>32.0</ele><time>2026-05-03T08:29:52.134Z</time></trkpt><trkpt lat="45.9257997" lon="13.4673627"><ele>31.999999999999996</ele><time>2026-05-03T08:29:54.133Z</time></trkpt><trkpt lat="45.925838" lon="13.467475"><ele>32.0</ele><time>2026-05-03T08:29:56.134Z</time></trkpt><trkpt lat="45.925897" lon="13.4675326"><ele>32.4</ele><time>2026-05-03T08:29:58.133Z</time></trkpt><trkpt lat="45.9259972" lon="13.467472"><ele>32.800000000000004</ele><time>2026-05-03T08:30:00.134Z</time></trkpt><trkpt lat="45.9260876" lon="13.4674047"><ele>33.2</ele><time>2026-05-03T08:30:01.134Z</time></trkpt><trkpt lat="45.9261491" lon="13.4673615"><ele>33.6</ele><time>2026-05-03T08:30:02.134Z</time></trkpt><trkpt lat="45.9262107" lon="13.4673179"><ele>34.0</ele><time>2026-05-03T08:30:03.134Z</time></trkpt><trkpt lat="45.9263403" lon="13.4672309"><ele>34.0</ele><time>2026-05-03T08:30:05.133Z</time></trkpt><trkpt lat="45.9264046" lon="13.4671786"><ele>34.0</ele><time>2026-05-03T08:30:06.134Z</time></trkpt><trkpt lat="45.9264842" lon="13.4671123"><ele>34.0</ele><time>2026-05-03T08:30:07.134Z</time></trkpt><trkpt lat="45.9265694" lon="13.4670537"><ele>34.0</ele><time>2026-05-03T08:30:08.134Z</time></trkpt><trkpt lat="45.9266629" lon="13.4669877"><ele>34.0</ele><time>2026-05-03T08:30:09.133Z</time></trkpt><trkpt lat="45.9267554" lon="13.4669162"><ele>34.25</ele><time>2026-05-03T08:30:10.133Z</time></trkpt><trkpt lat="45.9269236" lon="13.4667988"><ele>34.5</ele><time>2026-05-03T08:30:12.133Z</time></trkpt><trkpt lat="45.9270076" lon="13.4667396"><ele>34.75</ele><time>2026-05-03T08:30:13.133Z</time></trkpt><trkpt lat="45.9270869" lon="13.4666795"><ele>35.0</ele><time>2026-05-03T08:30:14.134Z</time></trkpt><trkpt lat="45.9271642" lon="13.4666298"><ele>35.0</ele><time>2026-05-03T08:30:15.133Z</time></trkpt><trkpt lat="45.927242" lon="13.4665741"><ele>35.0</ele><time>2026-05-03T08:30:16.133Z</time></trkpt><trkpt lat="45.9273129" lon="13.4665204"><ele>35.0</ele><time>2026-05-03T08:30:17.133Z</time></trkpt><trkpt lat="45.9273769" lon="13.4664706"><ele>35.0</ele><time>2026-05-03T08:30:18.134Z</time></trkpt><trkpt lat="45.9274399" lon="13.4664272"><ele>35.0</ele><time>2026-05-03T08:30:19.134Z</time></trkpt><trkpt lat="45.9275088" lon="13.466381"><ele>35.0</ele><time>2026-05-03T08:30:20.133Z</time></trkpt><trkpt lat="45.9276173" lon="13.466358"><ele>35.2</ele><time>2026-05-03T08:30:22.134Z</time></trkpt><trkpt lat="45.9277217" lon="13.4663524"><ele>35.4</ele><time>2026-05-03T08:30:24.134Z</time></trkpt><trkpt lat="45.9278334" lon="13.4663232"><ele>35.6</ele><time>2026-05-03T08:30:26.133Z</time></trkpt><trkpt lat="45.9279495" lon="13.4662907"><ele>35.8</ele><time>2026-05-03T08:30:28.134Z</time></trkpt><trkpt lat="45.9280108" lon="13.4663206"><ele>36.0</ele><time>2026-05-03T08:30:29.133Z</time></trkpt><trkpt lat="45.9280742" lon="13.4663811"><ele>36.0</ele><time>2026-05-03T08:30:30.134Z</time></trkpt><trkpt lat="45.9281375" lon="13.4664487"><ele>36.0</ele><time>2026-05-03T08:30:31.134Z</time></trkpt><trkpt lat="45.9281931" lon="13.4665269"><ele>36.0</ele><time>2026-05-03T08:30:32.134Z</time></trkpt><trkpt lat="45.9282495" lon="13.4665765"><ele>36.0</ele><time>2026-05-03T08:30:33.133Z</time></trkpt><trkpt lat="45.9283582" lon="13.4666522"><ele>36.0</ele><time>2026-05-03T08:30:35.134Z</time></trkpt><trkpt lat="45.9284487" lon="13.4666762"><ele>36.0</ele><time>2026-05-03T08:30:37.133Z</time></trkpt><trkpt lat="45.9285068" lon="13.4667118"><ele>41.0</ele><time>2026-05-03T08:30:40.134Z</time></trkpt></trkseg><trkseg><trkpt lat="45.9285314" lon="13.4666878"><ele>41.0</ele><time>2026-05-03T08:58:32.148Z</time></trkpt><trkpt lat="45.928442" lon="13.4667019"><ele>41.0</ele><time>2026-05-03T08:58:35.148Z</time></trkpt><trkpt lat="45.9283729" lon="13.4666562"><ele>41.0</ele><time>2026-05-03T08:58:37.148Z</time></trkpt><trkpt lat="45.9282829" lon="13.4665804"><ele>41.0</ele><time>2026-05-03T08:58:39.148Z</time></trkpt><trkpt lat="45.9281858" lon="13.4664925"><ele>41.0</ele><time>2026-05-03T08:58:41.147Z</time></trkpt><trkpt lat="45.9280954" lon="13.4664031"><ele>40.166666666666664</ele><time>2026-05-03T08:58:43.147Z</time></trkpt><trkpt lat="45.9280285" lon="13.4663409"><ele>39.33333333333333</ele><time>2026-05-03T08:58:45.148Z</time></trkpt><trkpt lat="45.9279659" lon="13.4662745"><ele>38.5</ele><time>2026-05-03T08:58:47.148Z</time></trkpt><trkpt lat="45.92789" lon="13.4662511"><ele>37.666666666666664</ele><time>2026-05-03T08:58:49.148Z</time></trkpt><trkpt lat="45.927801" lon="13.4663032"><ele>36.833333333333336</ele><time>2026-05-03T08:58:51.148Z</time></trkpt><trkpt lat="45.9277305" lon="13.4664006"><ele>36.0</ele><time>2026-05-03T08:58:53.148Z</time></trkpt><trkpt lat="45.9276962" lon="13.4665022"><ele>36.0</ele><time>2026-05-03T08:58:55.147Z</time></trkpt><trkpt lat="45.9277234" lon="13.466594"><ele>36.0</ele><time>2026-05-03T08:58:57.147Z</time></trkpt><trkpt lat="45.927784" lon="13.4667221"><ele>36.0</ele><time>2026-05-03T08:58:59.148Z</time></trkpt><trkpt lat="45.9278711" lon="13.4668617"><ele>36.0</ele><time>2026-05-03T08:59:01.148Z</time></trkpt><trkpt lat="45.927923" lon="13.4669419"><ele>36.0</ele><time>2026-05-03T08:59:02.148Z</time></trkpt><trkpt lat="45.9279846" lon="13.4670346"><ele>35.8</ele><time>2026-05-03T08:59:03.148Z</time></trkpt><trkpt lat="45.9280519" lon="13.4671285"><ele>35.6</ele><time>2026-05-03T08:59:04.147Z</time></trkpt><trkpt lat="45.9281218" lon="13.4672328"><ele>35.4</ele><time>2026-05-03T08:59:05.147Z</time></trkpt><trkpt lat="45.9281889" lon="13.4673324"><ele>35.2</ele><time>2026-05-03T08:59:06.147Z</time></trkpt><trkpt lat="45.9282682" lon="13.4674306"><ele>35.0</ele><time>2026-05-03T08:59:07.147Z</time></trkpt><trkpt lat="45.9283526" lon="13.467541"><ele>35.5</ele><time>2026-05-03T08:59:08.147Z</time></trkpt><trkpt lat="45.9284403" lon="13.4676619"><ele>36.0</ele><time>2026-05-03T08:59:09.148Z</time></trkpt><trkpt lat="45.9285263" lon="13.4677825"><ele>36.5</ele><time>2026-05-03T08:59:10.148Z</time></trkpt><trkpt lat="45.9286165" lon="13.4678992"><ele>37.0</ele><time>2026-05-03T08:59:11.148Z</time></trkpt><trkpt lat="45.9287009" lon="13.4680132"><ele>37.0</ele><time>2026-05-03T08:59:12.147Z</time></trkpt><trkpt lat="45.9287851" lon="13.4681249"><ele>37.0</ele><time>2026-05-03T08:59:13.148Z</time></trkpt><trkpt lat="45.9288705" lon="13.4682373"><ele>37.0</ele><time>2026-05-03T08:59:14.148Z</time></trkpt><trkpt lat="45.9289608" lon="13.4683506"><ele>37.0</ele><time>2026-05-03T08:59:15.148Z</time></trkpt><trkpt lat="45.9290479" lon="13.4684673"><ele>37.0</ele><time>2026-05-03T08:59:16.148Z</time></trkpt><trkpt lat="45.9291361" lon="13.4685856"><ele>37.0</ele><time>2026-05-03T08:59:17.148Z</time></trkpt><trkpt lat="45.9292234" lon="13.4687075"><ele>37.0</ele><time>2026-05-03T08:59:18.147Z</time></trkpt><trkpt lat="45.9293156" lon="13.4688313"><ele>37.0</ele><time>2026-05-03T08:59:19.148Z</time></trkpt><trkpt lat="45.9294126" lon="13.4689614"><ele>38.25</ele><time>2026-05-03T08:59:20.148Z</time></trkpt><trkpt lat="45.9295106" lon="13.4690883"><ele>39.5</ele><time>2026-05-03T08:59:21.148Z</time></trkpt><trkpt lat="45.9296089" lon="13.4692191"><ele>40.75</ele><time>2026-05-03T08:59:22.148Z</time></trkpt><trkpt lat="45.9296999" lon="13.4693452"><ele>42.0</ele><time>2026-05-03T08:59:23.148Z</time></trkpt><trkpt lat="45.9297873" lon="13.4694511"><ele>42.0</ele><time>2026-05-03T08:59:24.148Z</time></trkpt><trkpt lat="45.9298627" lon="13.4695459"><ele>42.0</ele><time>2026-05-03T08:59:25.147Z</time></trkpt><trkpt lat="45.9299293" lon="13.4696384"><ele>42.0</ele><time>2026-05-03T08:59:26.148Z</time></trkpt><trkpt lat="45.9299915" lon="13.4697256"><ele>42.0</ele><time>2026-05-03T08:59:27.148Z</time></trkpt><trkpt lat="45.9300425" lon="13.4698186"><ele>42.0</ele><time>2026-05-03T08:59:28.148Z</time></trkpt><trkpt lat="45.9300771" lon="13.4698997"><ele>42.0</ele><time>2026-05-03T08:59:29.148Z</time></trkpt><trkpt lat="45.9301331" lon="13.4700605"><ele>41.166666666666664</ele><time>2026-05-03T08:59:31.148Z</time></trkpt><trkpt lat="45.9301621" lon="13.470142"><ele>40.333333333333336</ele><time>2026-05-03T08:59:32.147Z</time></trkpt><trkpt lat="45.9302089" lon="13.470254"><ele>39.5</ele><time>2026-05-03T08:59:34.148Z</time></trkpt><trkpt lat="45.9302466" lon="13.4703494"><ele>38.66666666666667</ele><time>2026-05-03T08:59:36.148Z</time></trkpt><trkpt lat="45.9302259" lon="13.4702367"><ele>37.833333333333336</ele><time>2026-05-03T08:59:48.148Z</time></trkpt><trkpt lat="45.9301816" lon="13.4701579"><ele>37.0</ele><time>2026-05-03T08:59:49.147Z</time></trkpt><trkpt lat="45.9301371" lon="13.4700179"><ele>37.0</ele><time>2026-05-03T08:59:51.148Z</time></trkpt><trkpt lat="45.9302354" lon="13.4699673"><ele>37.0</ele><time>2026-05-03T08:59:54.148Z</time></trkpt><trkpt lat="45.9302989" lon="13.4699684"><ele>37.0</ele><time>2026-05-03T08:59:55.148Z</time></trkpt><trkpt lat="45.9303989" lon="13.469985"><ele>37.0</ele><time>2026-05-03T08:59:56.148Z</time></trkpt><trkpt lat="45.9304982" lon="13.4700124"><ele>37.0</ele><time>2026-05-03T08:59:57.148Z</time></trkpt><trkpt lat="45.9305808" lon="13.4700212"><ele>37.0</ele><time>2026-05-03T08:59:58.148Z</time></trkpt><trkpt lat="45.930665" lon="13.4700359"><ele>37.0</ele><time>2026-05-03T08:59:59.147Z</time></trkpt><trkpt lat="45.9307451" lon="13.4700517"><ele>37.0</ele><time>2026-05-03T09:00:00.148Z</time></trkpt><trkpt lat="45.9308219" lon="13.4700594"><ele>37.0</ele><time>2026-05-03T09:00:01.148Z</time></trkpt><trkpt lat="45.9309046" lon="13.4700651"><ele>37.0</ele><time>2026-05-03T09:00:02.148Z</time></trkpt><trkpt lat="45.9309899" lon="13.4700775"><ele>37.0</ele><time>2026-05-03T09:00:03.147Z</time></trkpt><trkpt lat="45.9310791" lon="13.4700952"><ele>36.5</ele><time>2026-05-03T09:00:04.148Z</time></trkpt><trkpt lat="45.9311696" lon="13.4701091"><ele>36.0</ele><time>2026-05-03T09:00:05.148Z</time></trkpt><trkpt lat="45.9312477" lon="13.4701186"><ele>35.5</ele><time>2026-05-03T09:00:06.148Z</time></trkpt><trkpt lat="45.9313263" lon="13.4701342"><ele>35.0</ele><time>2026-05-03T09:00:07.148Z</time></trkpt><trkpt lat="45.9314049" lon="13.4701488"><ele>34.5</ele><time>2026-05-03T09:00:08.147Z</time></trkpt><trkpt lat="45.931484" lon="13.4701603"><ele>34.0</ele><time>2026-05-03T09:00:09.148Z</time></trkpt><trkpt lat="45.9315617" lon="13.4701705"><ele>34.0</ele><time>2026-05-03T09:00:10.148Z</time></trkpt><trkpt lat="45.931641" lon="13.4701854"><ele>34.0</ele><time>2026-05-03T09:00:11.148Z</time></trkpt><trkpt lat="45.9317205" lon="13.4701957"><ele>34.0</ele><time>2026-05-03T09:00:12.148Z</time></trkpt><trkpt lat="45.9318002" lon="13.4702008"><ele>34.0</ele><time>2026-05-03T09:00:13.147Z</time></trkpt><trkpt lat="45.9318899" lon="13.4702164"><ele>34.0</ele><time>2026-05-03T09:00:14.148Z</time></trkpt><trkpt lat="45.9319772" lon="13.4702303"><ele>34.0</ele><time>2026-05-03T09:00:15.148Z</time></trkpt><trkpt lat="45.9320665" lon="13.4702392"><ele>34.0</ele><time>2026-05-03T09:00:16.148Z</time></trkpt><trkpt lat="45.9321539" lon="13.4702469"><ele>34.0</ele><time>2026-05-03T09:00:17.148Z</time></trkpt><trkpt lat="45.9322401" lon="13.4702578"><ele>34.0</ele><time>2026-05-03T09:00:18.148Z</time></trkpt><trkpt lat="45.9323289" lon="13.4702644"><ele>34.0</ele><time>2026-05-03T09:00:19.148Z</time></trkpt><trkpt lat="45.9324192" lon="13.4702714"><ele>34.0</ele><time>2026-05-03T09:00:20.147Z</time></trkpt><trkpt lat="45.9325003" lon="13.4702812"><ele>34.0</ele><time>2026-05-03T09:00:21.147Z</time></trkpt><trkpt lat="45.9325779" lon="13.4702908"><ele>34.0</ele><time>2026-05-03T09:00:22.148Z</time></trkpt><trkpt lat="45.932648" lon="13.4702957"><ele>34.0</ele><time>2026-05-03T09:00:23.147Z</time></trkpt><trkpt lat="45.9327171" lon="13.4703091"><ele>34.0</ele><time>2026-05-03T09:00:24.148Z</time></trkpt><trkpt lat="45.9328098" lon="13.4703473"><ele>34.0</ele><time>2026-05-03T09:00:26.148Z</time></trkpt><trkpt lat="45.9328266" lon="13.4704384"><ele>34.0</ele><time>2026-05-03T09:00:28.148Z</time></trkpt><trkpt lat="45.9327301" lon="13.4704739"><ele>34.0</ele><time>2026-05-03T09:00:31.148Z</time></trkpt><trkpt lat="45.9326535" lon="13.4704495"><ele>34.0</ele><time>2026-05-03T09:01:27.148Z</time></trkpt><trkpt lat="45.9327151" lon="13.4704064"><ele>34.0</ele><time>2026-05-03T09:01:31.147Z</time></trkpt><trkpt lat="45.932803" lon="13.4704642"><ele>34.0</ele><time>2026-05-03T09:01:33.148Z</time></trkpt><trkpt lat="45.9329085" lon="13.4704829"><ele>34.0</ele><time>2026-05-03T09:01:35.148Z</time></trkpt><trkpt lat="45.9329753" lon="13.4704823"><ele>34.0</ele><time>2026-05-03T09:01:36.147Z</time></trkpt><trkpt lat="45.9330504" lon="13.4704877"><ele>34.0</ele><time>2026-05-03T09:01:37.148Z</time></trkpt><trkpt lat="45.9331269" lon="13.4704906"><ele>34.333333333333336</ele><time>2026-05-03T09:01:38.147Z</time></trkpt><trkpt lat="45.9332042" lon="13.4705004"><ele>34.66666666666667</ele><time>2026-05-03T09:01:39.148Z</time></trkpt><trkpt lat="45.9332841" lon="13.4705063"><ele>35.0</ele><time>2026-05-03T09:01:40.148Z</time></trkpt><trkpt lat="45.933363" lon="13.4705198"><ele>35.333333333333336</ele><time>2026-05-03T09:01:41.147Z</time></trkpt><trkpt lat="45.9334368" lon="13.4705403"><ele>35.666666666666664</ele><time>2026-05-03T09:01:42.148Z</time></trkpt><trkpt lat="45.9335113" lon="13.4705574"><ele>36.0</ele><time>2026-05-03T09:01:43.148Z</time></trkpt><trkpt lat="45.9335928" lon="13.4705604"><ele>36.166666666666664</ele><time>2026-05-03T09:01:44.147Z</time></trkpt><trkpt lat="45.9336797" lon="13.4705609"><ele>36.333333333333336</ele><time>2026-05-03T09:01:45.148Z</time></trkpt><trkpt lat="45.9337598" lon="13.4705665"><ele>36.5</ele><time>2026-05-03T09:01:46.147Z</time></trkpt><trkpt lat="45.9338351" lon="13.4705953"><ele>36.66666666666667</ele><time>2026-05-03T09:01:47.147Z</time></trkpt><trkpt lat="45.9339263" lon="13.4706268"><ele>36.833333333333336</ele><time>2026-05-03T09:01:48.147Z</time></trkpt><trkpt lat="45.9340153" lon="13.4706531"><ele>37.0</ele><time>2026-05-03T09:01:49.148Z</time></trkpt><trkpt lat="45.9341054" lon="13.4706624"><ele>37.0</ele><time>2026-05-03T09:01:50.148Z</time></trkpt><trkpt lat="45.9341946" lon="13.4706719"><ele>37.0</ele><time>2026-05-03T09:01:51.148Z</time></trkpt><trkpt lat="45.9342833" lon="13.4706778"><ele>37.0</ele><time>2026-05-03T09:01:52.148Z</time></trkpt><trkpt lat="45.9343766" lon="13.4706868"><ele>37.0</ele><time>2026-05-03T09:01:53.147Z</time></trkpt><trkpt lat="45.9344732" lon="13.4706969"><ele>37.0</ele><time>2026-05-03T09:01:54.148Z</time></trkpt><trkpt lat="45.9345707" lon="13.4706904"><ele>36.800000000000004</ele><time>2026-05-03T09:01:55.148Z</time></trkpt><trkpt lat="45.934657" lon="13.4706904"><ele>36.6</ele><time>2026-05-03T09:01:56.148Z</time></trkpt><trkpt lat="45.9347475" lon="13.4707117"><ele>36.400000000000006</ele><time>2026-05-03T09:01:57.147Z</time></trkpt><trkpt lat="45.9348423" lon="13.4707267"><ele>36.2</ele><time>2026-05-03T09:01:58.148Z</time></trkpt><trkpt lat="45.9349391" lon="13.4707386"><ele>36.0</ele><time>2026-05-03T09:01:59.147Z</time></trkpt><trkpt lat="45.935027" lon="13.4707484"><ele>36.4</ele><time>2026-05-03T09:02:00.148Z</time></trkpt><trkpt lat="45.9351227" lon="13.4707521"><ele>36.8</ele><time>2026-05-03T09:02:01.148Z</time></trkpt><trkpt lat="45.9352163" lon="13.470765"><ele>37.199999999999996</ele><time>2026-05-03T09:02:02.147Z</time></trkpt><trkpt lat="45.9353158" lon="13.4707822"><ele>37.6</ele><time>2026-05-03T09:02:03.147Z</time></trkpt><trkpt lat="45.9354162" lon="13.4707958"><ele>38.0</ele><time>2026-05-03T09:02:04.147Z</time></trkpt><trkpt lat="45.9355128" lon="13.4708038"><ele>38.0</ele><time>2026-05-03T09:02:05.147Z</time></trkpt><trkpt lat="45.9356024" lon="13.4708177"><ele>38.0</ele><time>2026-05-03T09:02:06.146Z</time></trkpt><trkpt lat="45.9356936" lon="13.4708336"><ele>38.0</ele><time>2026-05-03T09:02:07.147Z</time></trkpt><trkpt lat="45.9357906" lon="13.4708449"><ele>38.0</ele><time>2026-05-03T09:02:08.147Z</time></trkpt><trkpt lat="45.9358842" lon="13.4708507"><ele>38.0</ele><time>2026-05-03T09:02:09.147Z</time></trkpt><trkpt lat="45.9359825" lon="13.4708676"><ele>37.4</ele><time>2026-05-03T09:02:10.147Z</time></trkpt><trkpt lat="45.936073" lon="13.470882"><ele>36.8</ele><time>2026-05-03T09:02:11.147Z</time></trkpt><trkpt lat="45.9361594" lon="13.4708968"><ele>36.2</ele><time>2026-05-03T09:02:12.146Z</time></trkpt><trkpt lat="45.9362412" lon="13.4709108"><ele>35.6</ele><time>2026-05-03T09:02:13.147Z</time></trkpt><trkpt lat="45.9363341" lon="13.470922"><ele>35.0</ele><time>2026-05-03T09:02:14.146Z</time></trkpt><trkpt lat="45.936435" lon="13.4709229"><ele>35.0</ele><time>2026-05-03T09:02:15.147Z</time></trkpt><trkpt lat="45.9365257" lon="13.4709391"><ele>35.0</ele><time>2026-05-03T09:02:16.147Z</time></trkpt><trkpt lat="45.936605" lon="13.4709501"><ele>35.0</ele><time>2026-05-03T09:02:17.147Z</time></trkpt><trkpt lat="45.9366792" lon="13.4709537"><ele>35.0</ele><time>2026-05-03T09:02:18.146Z</time></trkpt><trkpt lat="45.9367923" lon="13.4709551"><ele>35.0</ele><time>2026-05-03T09:02:20.147Z</time></trkpt><trkpt lat="45.9369222" lon="13.4708634"><ele>35.166666666666664</ele><time>2026-05-03T09:02:22.147Z</time></trkpt><trkpt lat="45.9369917" lon="13.4707873"><ele>35.33333333333333</ele><time>2026-05-03T09:02:23.147Z</time></trkpt><trkpt lat="45.9370572" lon="13.4707277"><ele>35.5</ele><time>2026-05-03T09:02:24.146Z</time></trkpt><trkpt lat="45.9371227" lon="13.4706852"><ele>35.666666666666664</ele><time>2026-05-03T09:02:25.147Z</time></trkpt><trkpt lat="45.9371925" lon="13.4706474"><ele>35.833333333333336</ele><time>2026-05-03T09:02:26.146Z</time></trkpt><trkpt lat="45.9372708" lon="13.470606"><ele>36.0</ele><time>2026-05-03T09:02:27.147Z</time></trkpt><trkpt lat="45.937341" lon="13.4705514"><ele>36.0</ele><time>2026-05-03T09:02:28.147Z</time></trkpt><trkpt lat="45.9374176" lon="13.4704983"><ele>36.0</ele><time>2026-05-03T09:02:29.147Z</time></trkpt><trkpt lat="45.9374943" lon="13.470451"><ele>36.0</ele><time>2026-05-03T09:02:30.147Z</time></trkpt><trkpt lat="45.937572" lon="13.4704124"><ele>36.0</ele><time>2026-05-03T09:02:31.146Z</time></trkpt><trkpt lat="45.9376434" lon="13.4703622"><ele>36.0</ele><time>2026-05-03T09:02:32.147Z</time></trkpt><trkpt lat="45.9377069" lon="13.4703008"><ele>36.0</ele><time>2026-05-03T09:02:33.146Z</time></trkpt><trkpt lat="45.9377838" lon="13.4702334"><ele>36.4</ele><time>2026-05-03T09:02:34.147Z</time></trkpt><trkpt lat="45.9378791" lon="13.470181"><ele>36.8</ele><time>2026-05-03T09:02:35.147Z</time></trkpt><trkpt lat="45.9379751" lon="13.470135"><ele>37.199999999999996</ele><time>2026-05-03T09:02:36.146Z</time></trkpt><trkpt lat="45.9380703" lon="13.4700871"><ele>37.6</ele><time>2026-05-03T09:02:37.147Z</time></trkpt><trkpt lat="45.9381612" lon="13.4700418"><ele>38.0</ele><time>2026-05-03T09:02:38.147Z</time></trkpt><trkpt lat="45.9382396" lon="13.4699708"><ele>38.0</ele><time>2026-05-03T09:02:39.147Z</time></trkpt><trkpt lat="45.9383281" lon="13.4699182"><ele>38.0</ele><time>2026-05-03T09:02:40.146Z</time></trkpt><trkpt lat="45.9384129" lon="13.4698335"><ele>38.0</ele><time>2026-05-03T09:02:41.147Z</time></trkpt><trkpt lat="45.9384945" lon="13.4697621"><ele>38.0</ele><time>2026-05-03T09:02:42.147Z</time></trkpt><trkpt lat="45.9385807" lon="13.4696895"><ele>38.0</ele><time>2026-05-03T09:02:43.147Z</time></trkpt><trkpt lat="45.93867" lon="13.4696198"><ele>37.8</ele><time>2026-05-03T09:02:44.147Z</time></trkpt><trkpt lat="45.9387576" lon="13.4695529"><ele>37.599999999999994</ele><time>2026-05-03T09:02:45.147Z</time></trkpt><trkpt lat="45.93884" lon="13.4694828"><ele>37.400000000000006</ele><time>2026-05-03T09:02:46.147Z</time></trkpt><trkpt lat="45.9389263" lon="13.4694126"><ele>37.2</ele><time>2026-05-03T09:02:47.147Z</time></trkpt><trkpt lat="45.9390111" lon="13.4693522"><ele>37.0</ele><time>2026-05-03T09:02:48.146Z</time></trkpt><trkpt lat="45.9390995" lon="13.4692928"><ele>37.0</ele><time>2026-05-03T09:02:49.147Z</time></trkpt><trkpt lat="45.9391928" lon="13.4692306"><ele>37.0</ele><time>2026-05-03T09:02:50.147Z</time></trkpt><trkpt lat="45.9392865" lon="13.4691702"><ele>37.0</ele><time>2026-05-03T09:02:51.147Z</time></trkpt><trkpt lat="45.9393805" lon="13.469123"><ele>37.0</ele><time>2026-05-03T09:02:52.147Z</time></trkpt><trkpt lat="45.9394757" lon="13.4690782"><ele>37.0</ele><time>2026-05-03T09:02:53.147Z</time></trkpt><trkpt lat="45.939569" lon="13.4690407"><ele>36.4</ele><time>2026-05-03T09:02:54.147Z</time></trkpt><trkpt lat="45.9396626" lon="13.4690173"><ele>35.800000000000004</ele><time>2026-05-03T09:02:55.146Z</time></trkpt><trkpt lat="45.9397542" lon="13.4690061"><ele>35.2</ele><time>2026-05-03T09:02:56.147Z</time></trkpt><trkpt lat="45.939852" lon="13.4689978"><ele>34.6</ele><time>2026-05-03T09:02:57.146Z</time></trkpt><trkpt lat="45.9399445" lon="13.4690056"><ele>34.0</ele><time>2026-05-03T09:02:58.147Z</time></trkpt><trkpt lat="45.9400435" lon="13.4690245"><ele>34.66666666666667</ele><time>2026-05-03T09:02:59.147Z</time></trkpt><trkpt lat="45.9401424" lon="13.4690514"><ele>35.333333333333336</ele><time>2026-05-03T09:03:00.147Z</time></trkpt><trkpt lat="45.9402272" lon="13.4690807"><ele>36.0</ele><time>2026-05-03T09:03:01.147Z</time></trkpt><trkpt lat="45.9402925" lon="13.4690968"><ele>36.666666666666664</ele><time>2026-05-03T09:03:02.147Z</time></trkpt><trkpt lat="45.9403655" lon="13.4690968"><ele>37.33333333333333</ele><time>2026-05-03T09:03:03.146Z</time></trkpt><trkpt lat="45.9404497" lon="13.4690706"><ele>38.0</ele><time>2026-05-03T09:03:04.147Z</time></trkpt><trkpt lat="45.9405357" lon="13.4690289"><ele>38.0</ele><time>2026-05-03T09:03:05.147Z</time></trkpt><trkpt lat="45.9406347" lon="13.4689743"><ele>38.0</ele><time>2026-05-03T09:03:06.147Z</time></trkpt><trkpt lat="45.9407512" lon="13.4688995"><ele>38.0</ele><time>2026-05-03T09:03:07.147Z</time></trkpt><trkpt lat="45.9408711" lon="13.4688239"><ele>38.0</ele><time>2026-05-03T09:03:08.147Z</time></trkpt><trkpt lat="45.9409622" lon="13.46879"><ele>38.199999999999996</ele><time>2026-05-03T09:03:09.147Z</time></trkpt><trkpt lat="45.9410497" lon="13.4687695"><ele>38.4</ele><time>2026-05-03T09:03:10.147Z</time></trkpt><trkpt lat="45.9411355" lon="13.4687618"><ele>38.599999999999994</ele><time>2026-05-03T09:03:11.147Z</time></trkpt><trkpt lat="45.9412255" lon="13.4687685"><ele>38.8</ele><time>2026-05-03T09:03:12.147Z</time></trkpt><trkpt lat="45.9413265" lon="13.4687897"><ele>39.0</ele><time>2026-05-03T09:03:13.147Z</time></trkpt><trkpt lat="45.941434" lon="13.4688246"><ele>39.0</ele><time>2026-05-03T09:03:14.147Z</time></trkpt><trkpt lat="45.9415468" lon="13.4688717"><ele>39.0</ele><time>2026-05-03T09:03:15.147Z</time></trkpt><trkpt lat="45.9416608" lon="13.4689258"><ele>39.0</ele><time>2026-05-03T09:03:16.147Z</time></trkpt><trkpt lat="45.9417766" lon="13.4689705"><ele>39.0</ele><time>2026-05-03T09:03:17.147Z</time></trkpt><trkpt lat="45.9418868" lon="13.4690117"><ele>39.0</ele><time>2026-05-03T09:03:18.147Z</time></trkpt><trkpt lat="45.9419942" lon="13.4690473"><ele>39.0</ele><time>2026-05-03T09:03:19.146Z</time></trkpt><trkpt lat="45.9420986" lon="13.4690824"><ele>39.0</ele><time>2026-05-03T09:03:20.146Z</time></trkpt><trkpt lat="45.942197" lon="13.4691147"><ele>39.0</ele><time>2026-05-03T09:03:21.146Z</time></trkpt><trkpt lat="45.9422932" lon="13.4691436"><ele>39.0</ele><time>2026-05-03T09:03:22.146Z</time></trkpt><trkpt lat="45.9423828" lon="13.4691705"><ele>39.0</ele><time>2026-05-03T09:03:23.147Z</time></trkpt><trkpt lat="45.9424639" lon="13.4692002"><ele>39.0</ele><time>2026-05-03T09:03:24.146Z</time></trkpt><trkpt lat="45.942546" lon="13.4692242"><ele>39.0</ele><time>2026-05-03T09:03:25.146Z</time></trkpt><trkpt lat="45.9426176" lon="13.4692457"><ele>39.0</ele><time>2026-05-03T09:03:26.147Z</time></trkpt><trkpt lat="45.9427336" lon="13.469272"><ele>39.0</ele><time>2026-05-03T09:03:28.147Z</time></trkpt><trkpt lat="45.9428339" lon="13.469311"><ele>39.0</ele><time>2026-05-03T09:03:30.147Z</time></trkpt><trkpt lat="45.9429487" lon="13.4693166"><ele>39.0</ele><time>2026-05-03T09:03:32.147Z</time></trkpt><trkpt lat="45.9430127" lon="13.4692822"><ele>39.0</ele><time>2026-05-03T09:03:33.146Z</time></trkpt><trkpt lat="45.9430858" lon="13.4692305"><ele>39.0</ele><time>2026-05-03T09:03:34.146Z</time></trkpt><trkpt lat="45.9431677" lon="13.4691738"><ele>39.0</ele><time>2026-05-03T09:03:35.147Z</time></trkpt><trkpt lat="45.9432655" lon="13.46912"><ele>39.0</ele><time>2026-05-03T09:03:36.147Z</time></trkpt><trkpt lat="45.9433582" lon="13.4690577"><ele>39.0</ele><time>2026-05-03T09:03:37.147Z</time></trkpt><trkpt lat="45.943455" lon="13.4689925"><ele>39.0</ele><time>2026-05-03T09:03:38.147Z</time></trkpt><trkpt lat="45.9435531" lon="13.4689238"><ele>39.0</ele><time>2026-05-03T09:03:39.147Z</time></trkpt><trkpt lat="45.9436524" lon="13.4688542"><ele>39.0</ele><time>2026-05-03T09:03:40.147Z</time></trkpt><trkpt lat="45.9437514" lon="13.4687806"><ele>39.5</ele><time>2026-05-03T09:03:41.147Z</time></trkpt><trkpt lat="45.9438543" lon="13.4687095"><ele>40.0</ele><time>2026-05-03T09:03:42.147Z</time></trkpt><trkpt lat="45.9439574" lon="13.4686385"><ele>40.5</ele><time>2026-05-03T09:03:43.147Z</time></trkpt><trkpt lat="45.9440597" lon="13.4685655"><ele>41.0</ele><time>2026-05-03T09:03:44.147Z</time></trkpt><trkpt lat="45.9441655" lon="13.4684867"><ele>41.5</ele><time>2026-05-03T09:03:45.146Z</time></trkpt><trkpt lat="45.9442722" lon="13.4684153"><ele>42.0</ele><time>2026-05-03T09:03:46.147Z</time></trkpt><trkpt lat="45.9443791" lon="13.4683445"><ele>42.5</ele><time>2026-05-03T09:03:47.146Z</time></trkpt><trkpt lat="45.9444852" lon="13.4682585"><ele>43.0</ele><time>2026-05-03T09:03:48.147Z</time></trkpt><trkpt lat="45.944574" lon="13.4681739"><ele>43.0</ele><time>2026-05-03T09:03:49.146Z</time></trkpt><trkpt lat="45.9446469" lon="13.4680864"><ele>43.0</ele><time>2026-05-03T09:03:50.147Z</time></trkpt><trkpt lat="45.9447081" lon="13.4679951"><ele>43.0</ele><time>2026-05-03T09:03:51.147Z</time></trkpt><trkpt lat="45.9447709" lon="13.4679202"><ele>43.0</ele><time>2026-05-03T09:03:52.147Z</time></trkpt><trkpt lat="45.9448431" lon="13.4678668"><ele>43.0</ele><time>2026-05-03T09:03:53.147Z</time></trkpt><trkpt lat="45.9449222" lon="13.4678536"><ele>43.0</ele><time>2026-05-03T09:03:54.147Z</time></trkpt><trkpt lat="45.9450071" lon="13.4678165"><ele>43.25</ele><time>2026-05-03T09:03:55.147Z</time></trkpt><trkpt lat="45.9451198" lon="13.4677363"><ele>43.5</ele><time>2026-05-03T09:03:56.147Z</time></trkpt><trkpt lat="45.9452442" lon="13.4676536"><ele>43.75</ele><time>2026-05-03T09:03:57.147Z</time></trkpt><trkpt lat="45.9453577" lon="13.4675627"><ele>44.0</ele><time>2026-05-03T09:03:58.147Z</time></trkpt><trkpt lat="45.9454892" lon="13.4674901"><ele>44.0</ele><time>2026-05-03T09:03:59.146Z</time></trkpt><trkpt lat="45.9456115" lon="13.4674223"><ele>44.0</ele><time>2026-05-03T09:04:00.147Z</time></trkpt><trkpt lat="45.9457174" lon="13.4673569"><ele>44.0</ele><time>2026-05-03T09:04:01.147Z</time></trkpt><trkpt lat="45.9458139" lon="13.4673064"><ele>44.0</ele><time>2026-05-03T09:04:02.147Z</time></trkpt><trkpt lat="45.9458825" lon="13.4672616"><ele>44.0</ele><time>2026-05-03T09:04:03.146Z</time></trkpt><trkpt lat="45.9459763" lon="13.4672466"><ele>44.0</ele><time>2026-05-03T09:04:05.146Z</time></trkpt><trkpt lat="45.9460517" lon="13.4673715"><ele>44.0</ele><time>2026-05-03T09:04:07.147Z</time></trkpt><trkpt lat="45.9461187" lon="13.4674842"><ele>44.0</ele><time>2026-05-03T09:04:08.147Z</time></trkpt><trkpt lat="45.9461854" lon="13.4676095"><ele>44.0</ele><time>2026-05-03T09:04:09.147Z</time></trkpt><trkpt lat="45.9462468" lon="13.4677401"><ele>44.0</ele><time>2026-05-03T09:04:10.147Z</time></trkpt><trkpt lat="45.9463233" lon="13.4678811"><ele>43.75</ele><time>2026-05-03T09:04:11.146Z</time></trkpt><trkpt lat="45.9464079" lon="13.4680377"><ele>43.5</ele><time>2026-05-03T09:04:12.147Z</time></trkpt><trkpt lat="45.9465018" lon="13.4682074"><ele>43.25</ele><time>2026-05-03T09:04:13.146Z</time></trkpt><trkpt lat="45.9465953" lon="13.4683801"><ele>43.0</ele><time>2026-05-03T09:04:14.147Z</time></trkpt><trkpt lat="45.946694" lon="13.4685518"><ele>43.66666666666667</ele><time>2026-05-03T09:04:15.146Z</time></trkpt><trkpt lat="45.9467904" lon="13.4687256"><ele>44.333333333333336</ele><time>2026-05-03T09:04:16.147Z</time></trkpt><trkpt lat="45.9468864" lon="13.4688997"><ele>45.0</ele><time>2026-05-03T09:04:17.146Z</time></trkpt><trkpt lat="45.9469834" lon="13.4690759"><ele>45.0</ele><time>2026-05-03T09:04:18.147Z</time></trkpt><trkpt lat="45.9470836" lon="13.4692507"><ele>45.0</ele><time>2026-05-03T09:04:19.147Z</time></trkpt><trkpt lat="45.9471776" lon="13.4694267"><ele>45.0</ele><time>2026-05-03T09:04:20.146Z</time></trkpt><trkpt lat="45.9472693" lon="13.4695967"><ele>45.0</ele><time>2026-05-03T09:04:21.147Z</time></trkpt><trkpt lat="45.9473601" lon="13.4697728"><ele>45.0</ele><time>2026-05-03T09:04:22.147Z</time></trkpt><trkpt lat="45.9474514" lon="13.4699413"><ele>45.0</ele><time>2026-05-03T09:04:23.146Z</time></trkpt><trkpt lat="45.9475335" lon="13.4700962"><ele>45.0</ele><time>2026-05-03T09:04:24.147Z</time></trkpt><trkpt lat="45.9476055" lon="13.4702379"><ele>44.8</ele><time>2026-05-03T09:04:25.147Z</time></trkpt><trkpt lat="45.9476724" lon="13.4703635"><ele>44.6</ele><time>2026-05-03T09:04:26.147Z</time></trkpt><trkpt lat="45.9477347" lon="13.4704527"><ele>44.400000000000006</ele><time>2026-05-03T09:04:27.146Z</time></trkpt><trkpt lat="45.9478138" lon="13.470541"><ele>44.2</ele><time>2026-05-03T09:04:29.147Z</time></trkpt><trkpt lat="45.947917" lon="13.4705574"><ele>44.0</ele><time>2026-05-03T09:04:33.146Z</time></trkpt><trkpt lat="45.9479906" lon="13.470546"><ele>44.0</ele><time>2026-05-03T09:04:34.147Z</time></trkpt><trkpt lat="45.9480577" lon="13.4705123"><ele>44.0</ele><time>2026-05-03T09:04:35.147Z</time></trkpt><trkpt lat="45.9481334" lon="13.4704544"><ele>44.0</ele><time>2026-05-03T09:04:36.147Z</time></trkpt><trkpt lat="45.9482174" lon="13.4703865"><ele>44.0</ele><time>2026-05-03T09:04:37.146Z</time></trkpt><trkpt lat="45.9483066" lon="13.4703107"><ele>44.0</ele><time>2026-05-03T09:04:38.146Z</time></trkpt><trkpt lat="45.9484042" lon="13.4702329"><ele>43.75</ele><time>2026-05-03T09:04:39.147Z</time></trkpt><trkpt lat="45.948506" lon="13.4701474"><ele>43.5</ele><time>2026-05-03T09:04:40.146Z</time></trkpt><trkpt lat="45.9486113" lon="13.4700571"><ele>43.25</ele><time>2026-05-03T09:04:41.147Z</time></trkpt><trkpt lat="45.9487209" lon="13.4699722"><ele>43.0</ele><time>2026-05-03T09:04:42.147Z</time></trkpt><trkpt lat="45.9488337" lon="13.4698837"><ele>43.0</ele><time>2026-05-03T09:04:43.146Z</time></trkpt><trkpt lat="45.9489521" lon="13.4697919"><ele>43.0</ele><time>2026-05-03T09:04:44.147Z</time></trkpt><trkpt lat="45.9490694" lon="13.4696943"><ele>43.0</ele><time>2026-05-03T09:04:45.146Z</time></trkpt><trkpt lat="45.9491924" lon="13.4695958"><ele>43.0</ele><time>2026-05-03T09:04:46.147Z</time></trkpt><trkpt lat="45.9493207" lon="13.4695015"><ele>43.5</ele><time>2026-05-03T09:04:47.147Z</time></trkpt><trkpt lat="45.9494478" lon="13.469402"><ele>44.0</ele><time>2026-05-03T09:04:48.147Z</time></trkpt><trkpt lat="45.9495763" lon="13.469312"><ele>44.5</ele><time>2026-05-03T09:04:49.146Z</time></trkpt><trkpt lat="45.9497029" lon="13.4692193"><ele>45.0</ele><time>2026-05-03T09:04:50.147Z</time></trkpt><trkpt lat="45.9498315" lon="13.4691307"><ele>45.0</ele><time>2026-05-03T09:04:51.147Z</time></trkpt><trkpt lat="45.9499533" lon="13.4690566"><ele>45.0</ele><time>2026-05-03T09:04:52.147Z</time></trkpt><trkpt lat="45.9500748" lon="13.4689906"><ele>45.0</ele><time>2026-05-03T09:04:53.147Z</time></trkpt><trkpt lat="45.9501975" lon="13.4689378"><ele>45.0</ele><time>2026-05-03T09:04:54.147Z</time></trkpt><trkpt lat="45.9503114" lon="13.4688829"><ele>45.2</ele><time>2026-05-03T09:04:55.146Z</time></trkpt><trkpt lat="45.9504206" lon="13.4688445"><ele>45.4</ele><time>2026-05-03T09:04:56.147Z</time></trkpt><trkpt lat="45.9505211" lon="13.468819"><ele>45.599999999999994</ele><time>2026-05-03T09:04:57.147Z</time></trkpt><trkpt lat="45.9506101" lon="13.4688046"><ele>45.8</ele><time>2026-05-03T09:04:58.147Z</time></trkpt><trkpt lat="45.9506885" lon="13.4688038"><ele>46.0</ele><time>2026-05-03T09:04:59.147Z</time></trkpt><trkpt lat="45.9507586" lon="13.4688157"><ele>46.0</ele><time>2026-05-03T09:05:00.147Z</time></trkpt><trkpt lat="45.9508205" lon="13.4688382"><ele>46.0</ele><time>2026-05-03T09:05:01.147Z</time></trkpt><trkpt lat="45.9508867" lon="13.4688778"><ele>46.0</ele><time>2026-05-03T09:05:02.147Z</time></trkpt><trkpt lat="45.9509604" lon="13.468941"><ele>46.0</ele><time>2026-05-03T09:05:03.147Z</time></trkpt><trkpt lat="45.9510264" lon="13.4690177"><ele>46.0</ele><time>2026-05-03T09:05:04.146Z</time></trkpt><trkpt lat="45.9510969" lon="13.4691094"><ele>46.0</ele><time>2026-05-03T09:05:05.147Z</time></trkpt><trkpt lat="45.9511706" lon="13.4692099"><ele>46.4</ele><time>2026-05-03T09:05:06.146Z</time></trkpt><trkpt lat="45.9512459" lon="13.4693182"><ele>46.8</ele><time>2026-05-03T09:05:07.146Z</time></trkpt><trkpt lat="45.9513243" lon="13.4694295"><ele>47.199999999999996</ele><time>2026-05-03T09:05:08.146Z</time></trkpt><trkpt lat="45.9514057" lon="13.4695392"><ele>47.599999999999994</ele><time>2026-05-03T09:05:09.147Z</time></trkpt><trkpt lat="45.9514901" lon="13.4696564"><ele>48.0</ele><time>2026-05-03T09:05:10.147Z</time></trkpt><trkpt lat="45.9515766" lon="13.469772"><ele>48.0</ele><time>2026-05-03T09:05:11.147Z</time></trkpt><trkpt lat="45.9516659" lon="13.4698981"><ele>48.0</ele><time>2026-05-03T09:05:12.147Z</time></trkpt><trkpt lat="45.9517494" lon="13.4700247"><ele>48.0</ele><time>2026-05-03T09:05:13.147Z</time></trkpt><trkpt lat="45.951838" lon="13.4701449"><ele>48.0</ele><time>2026-05-03T09:05:14.146Z</time></trkpt><trkpt lat="45.9519177" lon="13.4702531"><ele>48.0</ele><time>2026-05-03T09:05:15.147Z</time></trkpt><trkpt lat="45.9519851" lon="13.470339"><ele>48.0</ele><time>2026-05-03T09:05:16.147Z</time></trkpt><trkpt lat="45.9520366" lon="13.4703952"><ele>48.0</ele><time>2026-05-03T09:05:17.147Z</time></trkpt><trkpt lat="45.9521258" lon="13.4704867"><ele>48.0</ele><time>2026-05-03T09:05:19.146Z</time></trkpt><trkpt lat="45.9522158" lon="13.4705879"><ele>48.0</ele><time>2026-05-03T09:05:21.146Z</time></trkpt><trkpt lat="45.9522679" lon="13.4706527"><ele>48.0</ele><time>2026-05-03T09:05:22.147Z</time></trkpt><trkpt lat="45.9523414" lon="13.4707194"><ele>48.0</ele><time>2026-05-03T09:05:23.146Z</time></trkpt><trkpt lat="45.9524145" lon="13.4707945"><ele>48.0</ele><time>2026-05-03T09:05:24.147Z</time></trkpt><trkpt lat="45.9524869" lon="13.4708699"><ele>48.0</ele><time>2026-05-03T09:05:25.147Z</time></trkpt><trkpt lat="45.9525668" lon="13.4709537"><ele>48.0</ele><time>2026-05-03T09:05:26.146Z</time></trkpt><trkpt lat="45.9526523" lon="13.4710447"><ele>48.0</ele><time>2026-05-03T09:05:27.147Z</time></trkpt><trkpt lat="45.9527446" lon="13.4711401"><ele>48.0</ele><time>2026-05-03T09:05:28.147Z</time></trkpt><trkpt lat="45.9528384" lon="13.4712269"><ele>48.0</ele><time>2026-05-03T09:05:29.147Z</time></trkpt><trkpt lat="45.952934" lon="13.4713136"><ele>48.0</ele><time>2026-05-03T09:05:30.147Z</time></trkpt><trkpt lat="45.953026" lon="13.4714029"><ele>48.0</ele><time>2026-05-03T09:05:31.147Z</time></trkpt><trkpt lat="45.9531249" lon="13.4714969"><ele>48.0</ele><time>2026-05-03T09:05:32.147Z</time></trkpt><trkpt lat="45.9532205" lon="13.4715896"><ele>48.0</ele><time>2026-05-03T09:05:33.147Z</time></trkpt><trkpt lat="45.9533284" lon="13.4716786"><ele>48.0</ele><time>2026-05-03T09:05:34.146Z</time></trkpt><trkpt lat="45.9534381" lon="13.4717779"><ele>48.0</ele><time>2026-05-03T09:05:35.147Z</time></trkpt><trkpt lat="45.9535378" lon="13.4718728"><ele>47.75</ele><time>2026-05-03T09:05:36.147Z</time></trkpt><trkpt lat="45.9536462" lon="13.4719711"><ele>47.5</ele><time>2026-05-03T09:05:37.147Z</time></trkpt><trkpt lat="45.9537471" lon="13.4720621"><ele>47.25</ele><time>2026-05-03T09:05:38.147Z</time></trkpt><trkpt lat="45.9538484" lon="13.4721577"><ele>47.0</ele><time>2026-05-03T09:05:39.147Z</time></trkpt><trkpt lat="45.9539446" lon="13.4722539"><ele>47.5</ele><time>2026-05-03T09:05:40.146Z</time></trkpt><trkpt lat="45.9540432" lon="13.4723424"><ele>48.0</ele><time>2026-05-03T09:05:41.147Z</time></trkpt><trkpt lat="45.9541516" lon="13.4724034"><ele>48.5</ele><time>2026-05-03T09:05:42.147Z</time></trkpt><trkpt lat="45.9542653" lon="13.4724093"><ele>49.0</ele><time>2026-05-03T09:05:43.147Z</time></trkpt><trkpt lat="45.9543855" lon="13.4723768"><ele>49.0</ele><time>2026-05-03T09:05:44.146Z</time></trkpt><trkpt lat="45.9545094" lon="13.4723429"><ele>49.0</ele><time>2026-05-03T09:05:45.146Z</time></trkpt><trkpt lat="45.954629" lon="13.4723001"><ele>49.0</ele><time>2026-05-03T09:05:46.146Z</time></trkpt><trkpt lat="45.9547529" lon="13.4722709"><ele>49.0</ele><time>2026-05-03T09:05:47.147Z</time></trkpt><trkpt lat="45.9548779" lon="13.4722398"><ele>49.0</ele><time>2026-05-03T09:05:48.147Z</time></trkpt><trkpt lat="45.9550046" lon="13.4722139"><ele>49.0</ele><time>2026-05-03T09:05:49.147Z</time></trkpt><trkpt lat="45.9551346" lon="13.4721875"><ele>49.0</ele><time>2026-05-03T09:05:50.147Z</time></trkpt><trkpt lat="45.9552621" lon="13.4721565"><ele>49.0</ele><time>2026-05-03T09:05:51.146Z</time></trkpt><trkpt lat="45.9553878" lon="13.4721217"><ele>49.2</ele><time>2026-05-03T09:05:52.147Z</time></trkpt><trkpt lat="45.9555077" lon="13.4720977"><ele>49.400000000000006</ele><time>2026-05-03T09:05:53.146Z</time></trkpt><trkpt lat="45.9556115" lon="13.472075"><ele>49.6</ele><time>2026-05-03T09:05:54.146Z</time></trkpt><trkpt lat="45.9557033" lon="13.4720555"><ele>49.8</ele><time>2026-05-03T09:05:55.147Z</time></trkpt><trkpt lat="45.9557779" lon="13.4720288"><ele>50.0</ele><time>2026-05-03T09:05:56.146Z</time></trkpt><trkpt lat="45.9558432" lon="13.4720085"><ele>50.16666666666667</ele><time>2026-05-03T09:05:57.146Z</time></trkpt><trkpt lat="45.9559134" lon="13.4720148"><ele>50.333333333333336</ele><time>2026-05-03T09:05:58.147Z</time></trkpt><trkpt lat="45.9559809" lon="13.4720756"><ele>50.5</ele><time>2026-05-03T09:05:59.147Z</time></trkpt><trkpt lat="45.9560267" lon="13.4721716"><ele>50.66666666666667</ele><time>2026-05-03T09:06:00.147Z</time></trkpt><trkpt lat="45.9560506" lon="13.4723"><ele>50.833333333333336</ele><time>2026-05-03T09:06:01.147Z</time></trkpt><trkpt lat="45.956058" lon="13.4724346"><ele>51.0</ele><time>2026-05-03T09:06:02.147Z</time></trkpt><trkpt lat="45.9560768" lon="13.4725771"><ele>51.0</ele><time>2026-05-03T09:06:03.147Z</time></trkpt><trkpt lat="45.9560914" lon="13.472723"><ele>51.0</ele><time>2026-05-03T09:06:04.147Z</time></trkpt><trkpt lat="45.9561056" lon="13.472876"><ele>51.0</ele><time>2026-05-03T09:06:05.147Z</time></trkpt><trkpt lat="45.9561227" lon="13.4730474"><ele>51.0</ele><time>2026-05-03T09:06:06.147Z</time></trkpt><trkpt lat="45.9561442" lon="13.4732226"><ele>51.0</ele><time>2026-05-03T09:06:07.147Z</time></trkpt><trkpt lat="45.9561665" lon="13.4734041"><ele>51.0</ele><time>2026-05-03T09:06:08.147Z</time></trkpt><trkpt lat="45.9561895" lon="13.4735891"><ele>51.0</ele><time>2026-05-03T09:06:09.146Z</time></trkpt><trkpt lat="45.9562119" lon="13.4737871"><ele>51.0</ele><time>2026-05-03T09:06:10.146Z</time></trkpt><trkpt lat="45.9562358" lon="13.4739687"><ele>51.0</ele><time>2026-05-03T09:06:11.147Z</time></trkpt><trkpt lat="45.9562609" lon="13.4741678"><ele>51.0</ele><time>2026-05-03T09:06:12.147Z</time></trkpt><trkpt lat="45.9562912" lon="13.4743631"><ele>51.0</ele><time>2026-05-03T09:06:13.147Z</time></trkpt><trkpt lat="45.9563133" lon="13.4745667"><ele>51.0</ele><time>2026-05-03T09:06:14.146Z</time></trkpt><trkpt lat="45.9563362" lon="13.474764"><ele>51.0</ele><time>2026-05-03T09:06:15.146Z</time></trkpt><trkpt lat="45.9563553" lon="13.4749668"><ele>51.0</ele><time>2026-05-03T09:06:16.146Z</time></trkpt><trkpt lat="45.9563754" lon="13.4751794"><ele>51.0</ele><time>2026-05-03T09:06:17.146Z</time></trkpt><trkpt lat="45.9563851" lon="13.4753908"><ele>51.0</ele><time>2026-05-03T09:06:18.146Z</time></trkpt><trkpt lat="45.956404" lon="13.4756064"><ele>50.66666666666667</ele><time>2026-05-03T09:06:19.146Z</time></trkpt><trkpt lat="45.9564198" lon="13.475824"><ele>50.333333333333336</ele><time>2026-05-03T09:06:20.146Z</time></trkpt><trkpt lat="45.9564385" lon="13.4760387"><ele>50.0</ele><time>2026-05-03T09:06:21.146Z</time></trkpt><trkpt lat="45.956458" lon="13.4762596"><ele>50.333333333333336</ele><time>2026-05-03T09:06:22.146Z</time></trkpt><trkpt lat="45.9564802" lon="13.4764771"><ele>50.66666666666667</ele><time>2026-05-03T09:06:23.146Z</time></trkpt><trkpt lat="45.9565044" lon="13.4766936"><ele>51.0</ele><time>2026-05-03T09:06:24.146Z</time></trkpt><trkpt lat="45.9565309" lon="13.4769143"><ele>51.66666666666667</ele><time>2026-05-03T09:06:25.146Z</time></trkpt><trkpt lat="45.95656" lon="13.4771355"><ele>52.333333333333336</ele><time>2026-05-03T09:06:26.145Z</time></trkpt><trkpt lat="45.9565848" lon="13.4773568"><ele>53.0</ele><time>2026-05-03T09:06:27.145Z</time></trkpt><trkpt lat="45.9566077" lon="13.4775776"><ele>53.0</ele><time>2026-05-03T09:06:28.146Z</time></trkpt><trkpt lat="45.9566305" lon="13.4777946"><ele>53.0</ele><time>2026-05-03T09:06:29.146Z</time></trkpt><trkpt lat="45.9566542" lon="13.4780157"><ele>53.0</ele><time>2026-05-03T09:06:30.145Z</time></trkpt><trkpt lat="45.9566751" lon="13.4782305"><ele>53.0</ele><time>2026-05-03T09:06:31.146Z</time></trkpt><trkpt lat="45.9566979" lon="13.4784569"><ele>53.0</ele><time>2026-05-03T09:06:32.146Z</time></trkpt><trkpt lat="45.9567249" lon="13.4786839"><ele>53.0</ele><time>2026-05-03T09:06:33.146Z</time></trkpt><trkpt lat="45.95675" lon="13.4789019"><ele>53.66666666666667</ele><time>2026-05-03T09:06:34.146Z</time></trkpt><trkpt lat="45.956775" lon="13.4791166"><ele>54.33333333333333</ele><time>2026-05-03T09:06:35.146Z</time></trkpt><trkpt lat="45.9567981" lon="13.4793284"><ele>55.0</ele><time>2026-05-03T09:06:36.146Z</time></trkpt><trkpt lat="45.9568219" lon="13.4795418"><ele>55.0</ele><time>2026-05-03T09:06:37.146Z</time></trkpt><trkpt lat="45.9568466" lon="13.4797473"><ele>55.0</ele><time>2026-05-03T09:06:38.146Z</time></trkpt><trkpt lat="45.956872" lon="13.4799601"><ele>55.0</ele><time>2026-05-03T09:06:39.145Z</time></trkpt><trkpt lat="45.9568962" lon="13.4801757"><ele>55.0</ele><time>2026-05-03T09:06:40.146Z</time></trkpt><trkpt lat="45.9569219" lon="13.4803931"><ele>55.75</ele><time>2026-05-03T09:06:41.146Z</time></trkpt><trkpt lat="45.9569455" lon="13.4806099"><ele>56.5</ele><time>2026-05-03T09:06:42.146Z</time></trkpt><trkpt lat="45.9569628" lon="13.4808059"><ele>57.25</ele><time>2026-05-03T09:06:43.145Z</time></trkpt><trkpt lat="45.9569788" lon="13.4809788"><ele>58.0</ele><time>2026-05-03T09:06:44.146Z</time></trkpt><trkpt lat="45.9569985" lon="13.4811314"><ele>58.4</ele><time>2026-05-03T09:06:45.146Z</time></trkpt><trkpt lat="45.9570155" lon="13.48128"><ele>58.8</ele><time>2026-05-03T09:06:46.146Z</time></trkpt><trkpt lat="45.9570312" lon="13.4814209"><ele>59.2</ele><time>2026-05-03T09:06:47.145Z</time></trkpt><trkpt lat="45.957036" lon="13.4815503"><ele>59.6</ele><time>2026-05-03T09:06:48.146Z</time></trkpt><trkpt lat="45.9570222" lon="13.4816855"><ele>60.0</ele><time>2026-05-03T09:06:49.145Z</time></trkpt><trkpt lat="45.9570028" lon="13.4818327"><ele>60.0</ele><time>2026-05-03T09:06:50.146Z</time></trkpt><trkpt lat="45.956974" lon="13.4819965"><ele>60.0</ele><time>2026-05-03T09:06:51.145Z</time></trkpt><trkpt lat="45.956949" lon="13.4821654"><ele>60.0</ele><time>2026-05-03T09:06:52.146Z</time></trkpt><trkpt lat="45.9569245" lon="13.4823396"><ele>60.0</ele><time>2026-05-03T09:06:53.145Z</time></trkpt><trkpt lat="45.9569035" lon="13.4825081"><ele>61.0</ele><time>2026-05-03T09:06:54.146Z</time></trkpt><trkpt lat="45.9568896" lon="13.4826792"><ele>62.0</ele><time>2026-05-03T09:06:55.146Z</time></trkpt><trkpt lat="45.9568831" lon="13.482849"><ele>63.0</ele><time>2026-05-03T09:06:56.145Z</time></trkpt><trkpt lat="45.9568734" lon="13.483025"><ele>64.0</ele><time>2026-05-03T09:06:57.146Z</time></trkpt><trkpt lat="45.9568713" lon="13.4831925"><ele>63.25</ele><time>2026-05-03T09:06:58.146Z</time></trkpt><trkpt lat="45.9568712" lon="13.483362"><ele>62.5</ele><time>2026-05-03T09:06:59.145Z</time></trkpt><trkpt lat="45.956894" lon="13.4835266"><ele>61.75</ele><time>2026-05-03T09:07:00.146Z</time></trkpt><trkpt lat="45.9569528" lon="13.4836706"><ele>61.0</ele><time>2026-05-03T09:07:01.145Z</time></trkpt><trkpt lat="45.9570363" lon="13.4837984"><ele>61.0</ele><time>2026-05-03T09:07:02.146Z</time></trkpt><trkpt lat="45.957127" lon="13.4839378"><ele>61.0</ele><time>2026-05-03T09:07:03.146Z</time></trkpt><trkpt lat="45.9572151" lon="13.484088"><ele>61.0</ele><time>2026-05-03T09:07:04.146Z</time></trkpt><trkpt lat="45.9573068" lon="13.4842447"><ele>61.0</ele><time>2026-05-03T09:07:05.146Z</time></trkpt><trkpt lat="45.9574038" lon="13.4843999"><ele>61.0</ele><time>2026-05-03T09:07:06.146Z</time></trkpt><trkpt lat="45.9574954" lon="13.4845577"><ele>61.0</ele><time>2026-05-03T09:07:07.146Z</time></trkpt><trkpt lat="45.9575875" lon="13.4847207"><ele>61.0</ele><time>2026-05-03T09:07:08.146Z</time></trkpt><trkpt lat="45.9576797" lon="13.4848814"><ele>61.0</ele><time>2026-05-03T09:07:09.146Z</time></trkpt><trkpt lat="45.957774" lon="13.4850311"><ele>61.75</ele><time>2026-05-03T09:07:10.146Z</time></trkpt><trkpt lat="45.9578741" lon="13.4851663"><ele>62.5</ele><time>2026-05-03T09:07:11.146Z</time></trkpt><trkpt lat="45.9579773" lon="13.4852939"><ele>63.25</ele><time>2026-05-03T09:07:12.145Z</time></trkpt><trkpt lat="45.9580876" lon="13.4854126"><ele>64.0</ele><time>2026-05-03T09:07:13.145Z</time></trkpt><trkpt lat="45.9581927" lon="13.4855299"><ele>64.75</ele><time>2026-05-03T09:07:14.146Z</time></trkpt><trkpt lat="45.9582967" lon="13.4856458"><ele>65.5</ele><time>2026-05-03T09:07:15.146Z</time></trkpt><trkpt lat="45.9584021" lon="13.4857585"><ele>66.25</ele><time>2026-05-03T09:07:16.146Z</time></trkpt><trkpt lat="45.9585052" lon="13.4858734"><ele>67.0</ele><time>2026-05-03T09:07:17.145Z</time></trkpt><trkpt lat="45.9586086" lon="13.4859969"><ele>67.0</ele><time>2026-05-03T09:07:18.145Z</time></trkpt><trkpt lat="45.9587019" lon="13.4861402"><ele>67.0</ele><time>2026-05-03T09:07:19.146Z</time></trkpt><trkpt lat="45.9587803" lon="13.4862834"><ele>67.0</ele><time>2026-05-03T09:07:20.146Z</time></trkpt><trkpt lat="45.9588499" lon="13.4864136"><ele>67.0</ele><time>2026-05-03T09:07:21.146Z</time></trkpt><trkpt lat="45.9589081" lon="13.4865309"><ele>66.16666666666666</ele><time>2026-05-03T09:07:22.146Z</time></trkpt><trkpt lat="45.9589608" lon="13.486629"><ele>65.33333333333333</ele><time>2026-05-03T09:07:23.146Z</time></trkpt><trkpt lat="45.9590105" lon="13.4867213"><ele>64.5</ele><time>2026-05-03T09:07:24.145Z</time></trkpt><trkpt lat="45.9590538" lon="13.4868009"><ele>63.66666666666667</ele><time>2026-05-03T09:07:25.146Z</time></trkpt><trkpt lat="45.9591234" lon="13.486924"><ele>62.833333333333336</ele><time>2026-05-03T09:07:27.146Z</time></trkpt><trkpt lat="45.9591681" lon="13.486996"><ele>62.0</ele><time>2026-05-03T09:07:29.146Z</time></trkpt><trkpt lat="45.9592139" lon="13.4870605"><ele>64.0</ele><time>2026-05-03T09:07:31.146Z</time></trkpt><trkpt lat="45.9592885" lon="13.4871892"><ele>66.0</ele><time>2026-05-03T09:07:33.145Z</time></trkpt><trkpt lat="45.9593335" lon="13.4872723"><ele>68.0</ele><time>2026-05-03T09:07:34.145Z</time></trkpt><trkpt lat="45.959377" lon="13.4873619"><ele>70.0</ele><time>2026-05-03T09:07:35.146Z</time></trkpt><trkpt lat="45.9594119" lon="13.4874523"><ele>72.0</ele><time>2026-05-03T09:07:36.146Z</time></trkpt><trkpt lat="45.9594482" lon="13.4875404"><ele>74.0</ele><time>2026-05-03T09:07:37.146Z</time></trkpt><trkpt lat="45.9594849" lon="13.4876234"><ele>74.0</ele><time>2026-05-03T09:07:38.146Z</time></trkpt><trkpt lat="45.9595175" lon="13.4877091"><ele>74.0</ele><time>2026-05-03T09:07:39.146Z</time></trkpt><trkpt lat="45.9595512" lon="13.4877982"><ele>74.0</ele><time>2026-05-03T09:07:40.145Z</time></trkpt><trkpt lat="45.9595885" lon="13.4878894"><ele>74.0</ele><time>2026-05-03T09:07:41.145Z</time></trkpt><trkpt lat="45.9596275" lon="13.487982"><ele>74.0</ele><time>2026-05-03T09:07:42.146Z</time></trkpt><trkpt lat="45.9596694" lon="13.488092"><ele>74.0</ele><time>2026-05-03T09:07:43.146Z</time></trkpt><trkpt lat="45.9597124" lon="13.488212"><ele>75.4</ele><time>2026-05-03T09:07:44.146Z</time></trkpt><trkpt lat="45.9597518" lon="13.4883325"><ele>76.80000000000001</ele><time>2026-05-03T09:07:45.146Z</time></trkpt><trkpt lat="45.9597926" lon="13.488466"><ele>78.19999999999999</ele><time>2026-05-03T09:07:46.146Z</time></trkpt><trkpt lat="45.9598291" lon="13.4885949"><ele>79.6</ele><time>2026-05-03T09:07:47.146Z</time></trkpt><trkpt lat="45.9598712" lon="13.4887281"><ele>81.0</ele><time>2026-05-03T09:07:48.145Z</time></trkpt><trkpt lat="45.9599266" lon="13.488848"><ele>83.0</ele><time>2026-05-03T09:07:49.146Z</time></trkpt><trkpt lat="45.9599914" lon="13.488957"><ele>85.0</ele><time>2026-05-03T09:07:50.146Z</time></trkpt><trkpt lat="45.9600668" lon="13.4890538"><ele>87.0</ele><time>2026-05-03T09:07:51.146Z</time></trkpt><trkpt lat="45.9601539" lon="13.4891353"><ele>89.0</ele><time>2026-05-03T09:07:52.146Z</time></trkpt><trkpt lat="45.9602507" lon="13.4891935"><ele>91.0</ele><time>2026-05-03T09:07:53.146Z</time></trkpt><trkpt lat="45.9603555" lon="13.4892357"><ele>91.8</ele><time>2026-05-03T09:07:54.146Z</time></trkpt><trkpt lat="45.9604615" lon="13.4892915"><ele>92.6</ele><time>2026-05-03T09:07:55.145Z</time></trkpt><trkpt lat="45.9605635" lon="13.489354"><ele>93.4</ele><time>2026-05-03T09:07:56.146Z</time></trkpt><trkpt lat="45.9606425" lon="13.4894392"><ele>94.2</ele><time>2026-05-03T09:07:57.145Z</time></trkpt><trkpt lat="45.9607207" lon="13.4895611"><ele>95.0</ele><time>2026-05-03T09:07:58.146Z</time></trkpt><trkpt lat="45.9607867" lon="13.4897028"><ele>95.0</ele><time>2026-05-03T09:07:59.146Z</time></trkpt><trkpt lat="45.9608542" lon="13.4898335"><ele>95.0</ele><time>2026-05-03T09:08:00.146Z</time></trkpt><trkpt lat="45.9609353" lon="13.4899588"><ele>95.0</ele><time>2026-05-03T09:08:01.145Z</time></trkpt><trkpt lat="45.9610119" lon="13.4900863"><ele>95.0</ele><time>2026-05-03T09:08:02.146Z</time></trkpt><trkpt lat="45.9611014" lon="13.4902"><ele>93.2</ele><time>2026-05-03T09:08:03.146Z</time></trkpt><trkpt lat="45.9611912" lon="13.4903072"><ele>91.4</ele><time>2026-05-03T09:08:04.146Z</time></trkpt><trkpt lat="45.9612703" lon="13.4904084"><ele>89.6</ele><time>2026-05-03T09:08:05.146Z</time></trkpt><trkpt lat="45.9613398" lon="13.4905197"><ele>87.8</ele><time>2026-05-03T09:08:06.145Z</time></trkpt><trkpt lat="45.9614013" lon="13.4906442"><ele>86.0</ele><time>2026-05-03T09:08:07.145Z</time></trkpt><trkpt lat="45.9614513" lon="13.4907903"><ele>84.75</ele><time>2026-05-03T09:08:08.146Z</time></trkpt><trkpt lat="45.9614939" lon="13.4909521"><ele>83.5</ele><time>2026-05-03T09:08:09.145Z</time></trkpt><trkpt lat="45.9615352" lon="13.4911205"><ele>82.25</ele><time>2026-05-03T09:08:10.145Z</time></trkpt><trkpt lat="45.9615789" lon="13.4912891"><ele>81.0</ele><time>2026-05-03T09:08:11.146Z</time></trkpt><trkpt lat="45.9616228" lon="13.4914549"><ele>79.75</ele><time>2026-05-03T09:08:12.145Z</time></trkpt><trkpt lat="45.9616674" lon="13.4916101"><ele>78.5</ele><time>2026-05-03T09:08:13.146Z</time></trkpt><trkpt lat="45.9617184" lon="13.4917605"><ele>77.25</ele><time>2026-05-03T09:08:14.145Z</time></trkpt><trkpt lat="45.9617799" lon="13.4919185"><ele>76.0</ele><time>2026-05-03T09:08:15.146Z</time></trkpt><trkpt lat="45.9618473" lon="13.4920612"><ele>75.25</ele><time>2026-05-03T09:08:16.146Z</time></trkpt><trkpt lat="45.9619298" lon="13.4921966"><ele>74.5</ele><time>2026-05-03T09:08:17.145Z</time></trkpt><trkpt lat="45.9620243" lon="13.4923271"><ele>73.75</ele><time>2026-05-03T09:08:18.146Z</time></trkpt><trkpt lat="45.962121" lon="13.4924515"><ele>73.0</ele><time>2026-05-03T09:08:19.146Z</time></trkpt><trkpt lat="45.9622199" lon="13.4925747"><ele>73.0</ele><time>2026-05-03T09:08:20.146Z</time></trkpt><trkpt lat="45.9623225" lon="13.4926979"><ele>73.0</ele><time>2026-05-03T09:08:21.146Z</time></trkpt><trkpt lat="45.9624157" lon="13.4928171"><ele>73.0</ele><time>2026-05-03T09:08:22.146Z</time></trkpt><trkpt lat="45.9625151" lon="13.492934"><ele>73.0</ele><time>2026-05-03T09:08:23.146Z</time></trkpt><trkpt lat="45.9626305" lon="13.4930508"><ele>74.25</ele><time>2026-05-03T09:08:24.146Z</time></trkpt><trkpt lat="45.9627474" lon="13.4931693"><ele>75.5</ele><time>2026-05-03T09:08:25.146Z</time></trkpt><trkpt lat="45.96287" lon="13.4932998"><ele>76.75</ele><time>2026-05-03T09:08:26.146Z</time></trkpt><trkpt lat="45.9629852" lon="13.4934388"><ele>78.0</ele><time>2026-05-03T09:08:27.146Z</time></trkpt><trkpt lat="45.963095" lon="13.4935906"><ele>78.0</ele><time>2026-05-03T09:08:28.145Z</time></trkpt><trkpt lat="45.9632043" lon="13.4937381"><ele>78.0</ele><time>2026-05-03T09:08:29.145Z</time></trkpt><trkpt lat="45.9633023" lon="13.4938936"><ele>78.0</ele><time>2026-05-03T09:08:30.146Z</time></trkpt><trkpt lat="45.9633941" lon="13.4940596"><ele>78.0</ele><time>2026-05-03T09:08:31.145Z</time></trkpt><trkpt lat="45.9634749" lon="13.4942292"><ele>79.0</ele><time>2026-05-03T09:08:32.145Z</time></trkpt><trkpt lat="45.9635465" lon="13.4944019"><ele>80.0</ele><time>2026-05-03T09:08:33.145Z</time></trkpt><trkpt lat="45.9636209" lon="13.4945582"><ele>81.0</ele><time>2026-05-03T09:08:34.146Z</time></trkpt><trkpt lat="45.9636966" lon="13.4947005"><ele>82.0</ele><time>2026-05-03T09:08:35.146Z</time></trkpt><trkpt lat="45.9637661" lon="13.4948135"><ele>82.0</ele><time>2026-05-03T09:08:36.145Z</time></trkpt><trkpt lat="45.9638293" lon="13.4949183"><ele>82.0</ele><time>2026-05-03T09:08:37.146Z</time></trkpt><trkpt lat="45.9638904" lon="13.4950242"><ele>82.0</ele><time>2026-05-03T09:08:38.146Z</time></trkpt><trkpt lat="45.9639491" lon="13.4951255"><ele>82.0</ele><time>2026-05-03T09:08:39.146Z</time></trkpt><trkpt lat="45.9640142" lon="13.4952202"><ele>82.0</ele><time>2026-05-03T09:08:40.146Z</time></trkpt><trkpt lat="45.9640816" lon="13.495329"><ele>80.19999999999999</ele><time>2026-05-03T09:08:41.146Z</time></trkpt><trkpt lat="45.9641487" lon="13.495445"><ele>78.39999999999999</ele><time>2026-05-03T09:08:42.146Z</time></trkpt><trkpt lat="45.9642212" lon="13.4955479"><ele>76.6</ele><time>2026-05-03T09:08:43.146Z</time></trkpt><trkpt lat="45.9642914" lon="13.4956544"><ele>74.8</ele><time>2026-05-03T09:08:44.146Z</time></trkpt><trkpt lat="45.9643671" lon="13.4957632"><ele>73.0</ele><time>2026-05-03T09:08:45.146Z</time></trkpt><trkpt lat="45.9644513" lon="13.4958756"><ele>73.0</ele><time>2026-05-03T09:08:46.146Z</time></trkpt><trkpt lat="45.964542" lon="13.4959772"><ele>73.0</ele><time>2026-05-03T09:08:47.146Z</time></trkpt><trkpt lat="45.9646426" lon="13.4960659"><ele>73.0</ele><time>2026-05-03T09:08:48.146Z</time></trkpt><trkpt lat="45.9647586" lon="13.4961483"><ele>73.0</ele><time>2026-05-03T09:08:49.146Z</time></trkpt><trkpt lat="45.964877" lon="13.4962308"><ele>70.75</ele><time>2026-05-03T09:08:50.146Z</time></trkpt><trkpt lat="45.9650055" lon="13.4963076"><ele>68.5</ele><time>2026-05-03T09:08:51.146Z</time></trkpt><trkpt lat="45.9651407" lon="13.4963751"><ele>66.25</ele><time>2026-05-03T09:08:52.146Z</time></trkpt><trkpt lat="45.9652859" lon="13.496435"><ele>64.0</ele><time>2026-05-03T09:08:53.146Z</time></trkpt><trkpt lat="45.9654359" lon="13.4964938"><ele>63.0</ele><time>2026-05-03T09:08:54.146Z</time></trkpt><trkpt lat="45.9655846" lon="13.4965318"><ele>62.0</ele><time>2026-05-03T09:08:55.145Z</time></trkpt><trkpt lat="45.9657258" lon="13.4965484"><ele>61.0</ele><time>2026-05-03T09:08:56.146Z</time></trkpt><trkpt lat="45.9658588" lon="13.4965277"><ele>60.0</ele><time>2026-05-03T09:08:57.146Z</time></trkpt><trkpt lat="45.965991" lon="13.4964873"><ele>59.75</ele><time>2026-05-03T09:08:58.146Z</time></trkpt><trkpt lat="45.9661079" lon="13.4964234"><ele>59.5</ele><time>2026-05-03T09:08:59.145Z</time></trkpt><trkpt lat="45.9662252" lon="13.4963565"><ele>59.25</ele><time>2026-05-03T09:09:00.145Z</time></trkpt><trkpt lat="45.9663515" lon="13.4962848"><ele>59.0</ele><time>2026-05-03T09:09:01.146Z</time></trkpt><trkpt lat="45.9664837" lon="13.49621"><ele>59.25</ele><time>2026-05-03T09:09:02.146Z</time></trkpt><trkpt lat="45.9666183" lon="13.4961269"><ele>59.5</ele><time>2026-05-03T09:09:03.146Z</time></trkpt><trkpt lat="45.9667501" lon="13.4960549"><ele>59.75</ele><time>2026-05-03T09:09:04.145Z</time></trkpt><trkpt lat="45.9668846" lon="13.4959825"><ele>60.0</ele><time>2026-05-03T09:09:05.146Z</time></trkpt><trkpt lat="45.9670225" lon="13.4959005"><ele>60.0</ele><time>2026-05-03T09:09:06.146Z</time></trkpt><trkpt lat="45.9671627" lon="13.4958255"><ele>60.0</ele><time>2026-05-03T09:09:07.146Z</time></trkpt><trkpt lat="45.9673073" lon="13.4957471"><ele>60.0</ele><time>2026-05-03T09:09:08.146Z</time></trkpt><trkpt lat="45.9674565" lon="13.4956762"><ele>59.0</ele><time>2026-05-03T09:09:09.145Z</time></trkpt><trkpt lat="45.9676115" lon="13.4956326"><ele>58.0</ele><time>2026-05-03T09:09:10.146Z</time></trkpt><trkpt lat="45.9677687" lon="13.4956148"><ele>57.0</ele><time>2026-05-03T09:09:11.146Z</time></trkpt><trkpt lat="45.9679308" lon="13.4956129"><ele>57.0</ele><time>2026-05-03T09:09:12.146Z</time></trkpt><trkpt lat="45.968091" lon="13.4956087"><ele>57.0</ele><time>2026-05-03T09:09:13.146Z</time></trkpt><trkpt lat="45.9682544" lon="13.4956092"><ele>57.0</ele><time>2026-05-03T09:09:14.146Z</time></trkpt><trkpt lat="45.968419" lon="13.495613"><ele>57.0</ele><time>2026-05-03T09:09:15.146Z</time></trkpt><trkpt lat="45.9685787" lon="13.49561"><ele>57.0</ele><time>2026-05-03T09:09:16.146Z</time></trkpt><trkpt lat="45.9687406" lon="13.4956085"><ele>57.0</ele><time>2026-05-03T09:09:17.145Z</time></trkpt><trkpt lat="45.9689008" lon="13.4956093"><ele>57.0</ele><time>2026-05-03T09:09:18.146Z</time></trkpt><trkpt lat="45.9690609" lon="13.4956034"><ele>57.0</ele><time>2026-05-03T09:09:19.145Z</time></trkpt><trkpt lat="45.9692213" lon="13.4956043"><ele>57.0</ele><time>2026-05-03T09:09:20.146Z</time></trkpt><trkpt lat="45.9693799" lon="13.495603"><ele>58.0</ele><time>2026-05-03T09:09:21.146Z</time></trkpt><trkpt lat="45.9695336" lon="13.4956094"><ele>59.0</ele><time>2026-05-03T09:09:22.146Z</time></trkpt><trkpt lat="45.9696824" lon="13.4956207"><ele>60.0</ele><time>2026-05-03T09:09:23.145Z</time></trkpt><trkpt lat="45.9698319" lon="13.495654"><ele>60.0</ele><time>2026-05-03T09:09:24.146Z</time></trkpt><trkpt lat="45.969973" lon="13.4957088"><ele>60.0</ele><time>2026-05-03T09:09:25.146Z</time></trkpt><trkpt lat="45.9701086" lon="13.4957785"><ele>60.0</ele><time>2026-05-03T09:09:26.146Z</time></trkpt><trkpt lat="45.9702441" lon="13.4958714"><ele>60.0</ele><time>2026-05-03T09:09:27.145Z</time></trkpt><trkpt lat="45.9703848" lon="13.4959595"><ele>60.25</ele><time>2026-05-03T09:09:28.145Z</time></trkpt><trkpt lat="45.970519" lon="13.4960462"><ele>60.5</ele><time>2026-05-03T09:09:29.146Z</time></trkpt><trkpt lat="45.9706467" lon="13.4961218"><ele>60.75</ele><time>2026-05-03T09:09:30.146Z</time></trkpt><trkpt lat="45.9707735" lon="13.4961962"><ele>61.0</ele><time>2026-05-03T09:09:31.145Z</time></trkpt><trkpt lat="45.9708991" lon="13.4962821"><ele>60.25</ele><time>2026-05-03T09:09:32.146Z</time></trkpt><trkpt lat="45.9710235" lon="13.4963723"><ele>59.5</ele><time>2026-05-03T09:09:33.145Z</time></trkpt><trkpt lat="45.9711477" lon="13.4964751"><ele>58.75</ele><time>2026-05-03T09:09:34.146Z</time></trkpt><trkpt lat="45.9712702" lon="13.496596"><ele>58.0</ele><time>2026-05-03T09:09:35.145Z</time></trkpt><trkpt lat="45.9713912" lon="13.4967266"><ele>58.0</ele><time>2026-05-03T09:09:36.146Z</time></trkpt><trkpt lat="45.9715125" lon="13.4968625"><ele>58.0</ele><time>2026-05-03T09:09:37.146Z</time></trkpt><trkpt lat="45.9716334" lon="13.4970034"><ele>58.0</ele><time>2026-05-03T09:09:38.146Z</time></trkpt><trkpt lat="45.9717549" lon="13.4971411"><ele>58.666666666666664</ele><time>2026-05-03T09:09:39.145Z</time></trkpt><trkpt lat="45.9718779" lon="13.4972734"><ele>59.33333333333333</ele><time>2026-05-03T09:09:40.146Z</time></trkpt><trkpt lat="45.972003" lon="13.4974119"><ele>60.0</ele><time>2026-05-03T09:09:41.146Z</time></trkpt><trkpt lat="45.9721283" lon="13.4975473"><ele>60.0</ele><time>2026-05-03T09:09:42.145Z</time></trkpt><trkpt lat="45.9722545" lon="13.4976863"><ele>60.0</ele><time>2026-05-03T09:09:43.146Z</time></trkpt><trkpt lat="45.9723779" lon="13.4978263"><ele>60.0</ele><time>2026-05-03T09:09:44.146Z</time></trkpt><trkpt lat="45.9724934" lon="13.4979571"><ele>59.75</ele><time>2026-05-03T09:09:45.146Z</time></trkpt><trkpt lat="45.9726121" lon="13.498081"><ele>59.5</ele><time>2026-05-03T09:09:46.146Z</time></trkpt><trkpt lat="45.9727282" lon="13.4982033"><ele>59.25</ele><time>2026-05-03T09:09:47.145Z</time></trkpt><trkpt lat="45.9728429" lon="13.498333"><ele>59.0</ele><time>2026-05-03T09:09:48.146Z</time></trkpt><trkpt lat="45.9729613" lon="13.4984639"><ele>59.0</ele><time>2026-05-03T09:09:49.145Z</time></trkpt><trkpt lat="45.9730748" lon="13.4985967"><ele>59.0</ele><time>2026-05-03T09:09:50.146Z</time></trkpt><trkpt lat="45.9731864" lon="13.4987203"><ele>59.0</ele><time>2026-05-03T09:09:51.145Z</time></trkpt><trkpt lat="45.9732892" lon="13.4988377"><ele>59.0</ele><time>2026-05-03T09:09:52.145Z</time></trkpt><trkpt lat="45.9733867" lon="13.4989479"><ele>58.0</ele><time>2026-05-03T09:09:53.145Z</time></trkpt><trkpt lat="45.9734819" lon="13.4990516"><ele>57.00000000000001</ele><time>2026-05-03T09:09:54.145Z</time></trkpt><trkpt lat="45.9735683" lon="13.4991501"><ele>56.00000000000001</ele><time>2026-05-03T09:09:55.145Z</time></trkpt><trkpt lat="45.9736481" lon="13.4992407"><ele>55.0</ele><time>2026-05-03T09:09:56.145Z</time></trkpt><trkpt lat="45.973729" lon="13.4993222"><ele>54.0</ele><time>2026-05-03T09:09:57.145Z</time></trkpt><trkpt lat="45.9738203" lon="13.4993728"><ele>54.0</ele><time>2026-05-03T09:09:58.144Z</time></trkpt><trkpt lat="45.9739305" lon="13.4993768"><ele>54.0</ele><time>2026-05-03T09:09:59.145Z</time></trkpt><trkpt lat="45.9740383" lon="13.4993224"><ele>54.0</ele><time>2026-05-03T09:10:00.145Z</time></trkpt><trkpt lat="45.9741551" lon="13.4992364"><ele>54.0</ele><time>2026-05-03T09:10:01.144Z</time></trkpt><trkpt lat="45.9742768" lon="13.499151"><ele>53.75</ele><time>2026-05-03T09:10:02.145Z</time></trkpt><trkpt lat="45.9743991" lon="13.4990737"><ele>53.5</ele><time>2026-05-03T09:10:03.145Z</time></trkpt><trkpt lat="45.9745173" lon="13.4989949"><ele>53.25</ele><time>2026-05-03T09:10:04.145Z</time></trkpt><trkpt lat="45.9746368" lon="13.4989085"><ele>53.0</ele><time>2026-05-03T09:10:05.144Z</time></trkpt><trkpt lat="45.9747555" lon="13.4988251"><ele>53.0</ele><time>2026-05-03T09:10:06.144Z</time></trkpt><trkpt lat="45.9748823" lon="13.4987431"><ele>53.0</ele><time>2026-05-03T09:10:07.144Z</time></trkpt><trkpt lat="45.9750096" lon="13.4986569"><ele>53.0</ele><time>2026-05-03T09:10:08.145Z</time></trkpt><trkpt lat="45.9751403" lon="13.4985664"><ele>53.0</ele><time>2026-05-03T09:10:09.144Z</time></trkpt><trkpt lat="45.9752702" lon="13.4984769"><ele>53.5</ele><time>2026-05-03T09:10:10.144Z</time></trkpt><trkpt lat="45.9754006" lon="13.4983907"><ele>54.0</ele><time>2026-05-03T09:10:11.144Z</time></trkpt><trkpt lat="45.9755359" lon="13.4983047"><ele>54.5</ele><time>2026-05-03T09:10:12.145Z</time></trkpt><trkpt lat="45.9756731" lon="13.4982205"><ele>55.0</ele><time>2026-05-03T09:10:13.145Z</time></trkpt><trkpt lat="45.9758161" lon="13.4981364"><ele>56.33333333333333</ele><time>2026-05-03T09:10:14.145Z</time></trkpt><trkpt lat="45.9759605" lon="13.4980477"><ele>57.66666666666667</ele><time>2026-05-03T09:10:15.145Z</time></trkpt><trkpt lat="45.9761068" lon="13.4979554"><ele>59.0</ele><time>2026-05-03T09:10:16.145Z</time></trkpt><trkpt lat="45.9762478" lon="13.4978629"><ele>60.0</ele><time>2026-05-03T09:10:17.145Z</time></trkpt><trkpt lat="45.97639" lon="13.4977775"><ele>61.0</ele><time>2026-05-03T09:10:18.144Z</time></trkpt><trkpt lat="45.9765361" lon="13.4977017"><ele>62.0</ele><time>2026-05-03T09:10:19.145Z</time></trkpt><trkpt lat="45.9766792" lon="13.4976236"><ele>65.0</ele><time>2026-05-03T09:10:20.144Z</time></trkpt><trkpt lat="45.9768184" lon="13.4975347"><ele>68.0</ele><time>2026-05-03T09:10:21.145Z</time></trkpt><trkpt lat="45.9769587" lon="13.4974494"><ele>71.0</ele><time>2026-05-03T09:10:22.145Z</time></trkpt><trkpt lat="45.9770956" lon="13.49737"><ele>71.0</ele><time>2026-05-03T09:10:23.145Z</time></trkpt><trkpt lat="45.9772321" lon="13.4972905"><ele>71.0</ele><time>2026-05-03T09:10:24.144Z</time></trkpt><trkpt lat="45.9773698" lon="13.4972125"><ele>71.0</ele><time>2026-05-03T09:10:25.145Z</time></trkpt><trkpt lat="45.9775085" lon="13.497127"><ele>71.0</ele><time>2026-05-03T09:10:26.145Z</time></trkpt><trkpt lat="45.9776485" lon="13.4970458"><ele>74.0</ele><time>2026-05-03T09:10:27.144Z</time></trkpt><trkpt lat="45.9777819" lon="13.4969637"><ele>77.0</ele><time>2026-05-03T09:10:28.144Z</time></trkpt><trkpt lat="45.9779052" lon="13.4968741"><ele>80.0</ele><time>2026-05-03T09:10:29.145Z</time></trkpt><trkpt lat="45.9780255" lon="13.4967975"><ele>83.0</ele><time>2026-05-03T09:10:30.145Z</time></trkpt><trkpt lat="45.9781316" lon="13.4967334"><ele>83.0</ele><time>2026-05-03T09:10:31.144Z</time></trkpt><trkpt lat="45.9782247" lon="13.4966867"><ele>83.0</ele><time>2026-05-03T09:10:32.145Z</time></trkpt><trkpt lat="45.9783164" lon="13.4966471"><ele>83.0</ele><time>2026-05-03T09:10:33.145Z</time></trkpt><trkpt lat="45.9784116" lon="13.496604"><ele>83.0</ele><time>2026-05-03T09:10:34.145Z</time></trkpt><trkpt lat="45.9785139" lon="13.4965746"><ele>83.0</ele><time>2026-05-03T09:10:35.144Z</time></trkpt><trkpt lat="45.9786258" lon="13.4965569"><ele>83.80000000000001</ele><time>2026-05-03T09:10:36.145Z</time></trkpt><trkpt lat="45.9787376" lon="13.4965533"><ele>84.6</ele><time>2026-05-03T09:10:37.144Z</time></trkpt><trkpt lat="45.9788465" lon="13.4965688"><ele>85.4</ele><time>2026-05-03T09:10:38.145Z</time></trkpt><trkpt lat="45.9789402" lon="13.4966068"><ele>86.19999999999999</ele><time>2026-05-03T09:10:39.144Z</time></trkpt><trkpt lat="45.9790365" lon="13.4966831"><ele>87.0</ele><time>2026-05-03T09:10:40.144Z</time></trkpt><trkpt lat="45.9791253" lon="13.4967589"><ele>88.0</ele><time>2026-05-03T09:10:41.145Z</time></trkpt><trkpt lat="45.9792303" lon="13.4968362"><ele>89.0</ele><time>2026-05-03T09:10:42.145Z</time></trkpt><trkpt lat="45.9793366" lon="13.4969144"><ele>90.0</ele><time>2026-05-03T09:10:43.144Z</time></trkpt><trkpt lat="45.9794367" lon="13.4969974"><ele>91.0</ele><time>2026-05-03T09:10:44.145Z</time></trkpt><trkpt lat="45.9795351" lon="13.4970783"><ele>91.0</ele><time>2026-05-03T09:10:45.145Z</time></trkpt><trkpt lat="45.9796363" lon="13.4971619"><ele>91.0</ele><time>2026-05-03T09:10:46.145Z</time></trkpt><trkpt lat="45.9797367" lon="13.4972476"><ele>91.0</ele><time>2026-05-03T09:10:47.144Z</time></trkpt><trkpt lat="45.9798326" lon="13.4973298"><ele>91.0</ele><time>2026-05-03T09:10:48.145Z</time></trkpt><trkpt lat="45.9799286" lon="13.4974082"><ele>91.6</ele><time>2026-05-03T09:10:49.145Z</time></trkpt><trkpt lat="45.980025" lon="13.4974814"><ele>92.19999999999999</ele><time>2026-05-03T09:10:50.145Z</time></trkpt><trkpt lat="45.9801202" lon="13.4975549"><ele>92.80000000000001</ele><time>2026-05-03T09:10:51.145Z</time></trkpt><trkpt lat="45.9802148" lon="13.4976216"><ele>93.4</ele><time>2026-05-03T09:10:52.145Z</time></trkpt><trkpt lat="45.980309" lon="13.4976963"><ele>94.0</ele><time>2026-05-03T09:10:53.144Z</time></trkpt><trkpt lat="45.9803984" lon="13.4977721"><ele>94.0</ele><time>2026-05-03T09:10:54.145Z</time></trkpt><trkpt lat="45.9804872" lon="13.4978621"><ele>94.0</ele><time>2026-05-03T09:10:55.145Z</time></trkpt><trkpt lat="45.9805628" lon="13.4979671"><ele>94.0</ele><time>2026-05-03T09:10:56.145Z</time></trkpt><trkpt lat="45.9806281" lon="13.4981015"><ele>94.0</ele><time>2026-05-03T09:10:57.145Z</time></trkpt><trkpt lat="45.9806852" lon="13.4982388"><ele>94.0</ele><time>2026-05-03T09:10:58.145Z</time></trkpt><trkpt lat="45.9807474" lon="13.4983787"><ele>93.0</ele><time>2026-05-03T09:10:59.145Z</time></trkpt><trkpt lat="45.9808072" lon="13.4985183"><ele>92.0</ele><time>2026-05-03T09:11:00.145Z</time></trkpt><trkpt lat="45.980864" lon="13.4986663"><ele>91.0</ele><time>2026-05-03T09:11:01.145Z</time></trkpt><trkpt lat="45.9809278" lon="13.4988101"><ele>90.0</ele><time>2026-05-03T09:11:02.145Z</time></trkpt><trkpt lat="45.9809895" lon="13.4989525"><ele>91.8</ele><time>2026-05-03T09:11:03.144Z</time></trkpt><trkpt lat="45.9810475" lon="13.4990908"><ele>93.6</ele><time>2026-05-03T09:11:04.144Z</time></trkpt><trkpt lat="45.9811089" lon="13.499228"><ele>95.4</ele><time>2026-05-03T09:11:05.145Z</time></trkpt><trkpt lat="45.9811687" lon="13.4993549"><ele>97.2</ele><time>2026-05-03T09:11:06.145Z</time></trkpt><trkpt lat="45.9812272" lon="13.4994617"><ele>99.0</ele><time>2026-05-03T09:11:07.145Z</time></trkpt><trkpt lat="45.9812819" lon="13.4995512"><ele>100.0</ele><time>2026-05-03T09:11:08.144Z</time></trkpt><trkpt lat="45.9813343" lon="13.4996179"><ele>101.0</ele><time>2026-05-03T09:11:09.145Z</time></trkpt><trkpt lat="45.98138" lon="13.4996812"><ele>102.0</ele><time>2026-05-03T09:11:10.144Z</time></trkpt><trkpt lat="45.9814636" lon="13.4997762"><ele>103.0</ele><time>2026-05-03T09:11:12.145Z</time></trkpt><trkpt lat="45.9815384" lon="13.4998307"><ele>104.0</ele><time>2026-05-03T09:11:14.144Z</time></trkpt><trkpt lat="45.9816112" lon="13.499885"><ele>105.0</ele><time>2026-05-03T09:11:16.145Z</time></trkpt><trkpt lat="45.981724" lon="13.4999905"><ele>105.0</ele><time>2026-05-03T09:11:18.145Z</time></trkpt><trkpt lat="45.9818091" lon="13.5000482"><ele>105.0</ele><time>2026-05-03T09:11:19.145Z</time></trkpt><trkpt lat="45.9819052" lon="13.5000808"><ele>105.0</ele><time>2026-05-03T09:11:20.145Z</time></trkpt><trkpt lat="45.9820219" lon="13.5000969"><ele>105.0</ele><time>2026-05-03T09:11:21.145Z</time></trkpt><trkpt lat="45.9821422" lon="13.5000771"><ele>105.0</ele><time>2026-05-03T09:11:22.145Z</time></trkpt><trkpt lat="45.9822719" lon="13.5000312"><ele>105.0</ele><time>2026-05-03T09:11:23.144Z</time></trkpt><trkpt lat="45.9823972" lon="13.4999788"><ele>105.0</ele><time>2026-05-03T09:11:24.145Z</time></trkpt><trkpt lat="45.9825146" lon="13.4999241"><ele>105.0</ele><time>2026-05-03T09:11:25.145Z</time></trkpt><trkpt lat="45.982625" lon="13.4998621"><ele>105.0</ele><time>2026-05-03T09:11:26.145Z</time></trkpt><trkpt lat="45.982731" lon="13.4997864"><ele>106.5</ele><time>2026-05-03T09:11:27.145Z</time></trkpt><trkpt lat="45.9828173" lon="13.499659"><ele>108.0</ele><time>2026-05-03T09:11:28.145Z</time></trkpt><trkpt lat="45.9828808" lon="13.4995239"><ele>109.5</ele><time>2026-05-03T09:11:29.144Z</time></trkpt><trkpt lat="45.9829046" lon="13.4993586"><ele>111.0</ele><time>2026-05-03T09:11:30.145Z</time></trkpt><trkpt lat="45.9829019" lon="13.4991676"><ele>111.0</ele><time>2026-05-03T09:11:31.144Z</time></trkpt><trkpt lat="45.982892" lon="13.4989688"><ele>111.0</ele><time>2026-05-03T09:11:32.144Z</time></trkpt><trkpt lat="45.9828809" lon="13.4987777"><ele>111.0</ele><time>2026-05-03T09:11:33.145Z</time></trkpt><trkpt lat="45.982868" lon="13.4986012"><ele>111.0</ele><time>2026-05-03T09:11:34.145Z</time></trkpt><trkpt lat="45.9828566" lon="13.4984405"><ele>108.6</ele><time>2026-05-03T09:11:35.145Z</time></trkpt><trkpt lat="45.9828489" lon="13.4982781"><ele>106.19999999999999</ele><time>2026-05-03T09:11:36.145Z</time></trkpt><trkpt lat="45.9828515" lon="13.4981179"><ele>103.80000000000001</ele><time>2026-05-03T09:11:37.145Z</time></trkpt><trkpt lat="45.9828795" lon="13.4979854"><ele>101.4</ele><time>2026-05-03T09:11:38.145Z</time></trkpt><trkpt lat="45.9829344" lon="13.4978457"><ele>99.0</ele><time>2026-05-03T09:11:39.145Z</time></trkpt><trkpt lat="45.9830083" lon="13.4977232"><ele>97.0</ele><time>2026-05-03T09:11:40.145Z</time></trkpt><trkpt lat="45.9831078" lon="13.4976184"><ele>95.0</ele><time>2026-05-03T09:11:41.145Z</time></trkpt><trkpt lat="45.9832213" lon="13.4975701"><ele>93.0</ele><time>2026-05-03T09:11:42.145Z</time></trkpt><trkpt lat="45.9833453" lon="13.4975491"><ele>91.0</ele><time>2026-05-03T09:11:43.145Z</time></trkpt><trkpt lat="45.9834647" lon="13.4975394"><ele>91.0</ele><time>2026-05-03T09:11:44.145Z</time></trkpt><trkpt lat="45.983579" lon="13.4975554"><ele>91.0</ele><time>2026-05-03T09:11:45.145Z</time></trkpt><trkpt lat="45.983684" lon="13.4975788"><ele>91.0</ele><time>2026-05-03T09:11:46.145Z</time></trkpt><trkpt lat="45.9837819" lon="13.4976115"><ele>91.0</ele><time>2026-05-03T09:11:47.144Z</time></trkpt><trkpt lat="45.9838785" lon="13.4976536"><ele>91.0</ele><time>2026-05-03T09:11:48.144Z</time></trkpt><trkpt lat="45.983978" lon="13.4976797"><ele>91.0</ele><time>2026-05-03T09:11:49.145Z</time></trkpt><trkpt lat="45.9840643" lon="13.4976477"><ele>91.0</ele><time>2026-05-03T09:11:50.144Z</time></trkpt><trkpt lat="45.9841334" lon="13.4975707"><ele>91.0</ele><time>2026-05-03T09:11:51.145Z</time></trkpt><trkpt lat="45.9841444" lon="13.4974609"><ele>91.0</ele><time>2026-05-03T09:11:52.145Z</time></trkpt><trkpt lat="45.9841182" lon="13.4973361"><ele>91.0</ele><time>2026-05-03T09:11:53.145Z</time></trkpt><trkpt lat="45.9840454" lon="13.4972105"><ele>89.5</ele><time>2026-05-03T09:11:54.145Z</time></trkpt><trkpt lat="45.9839497" lon="13.4970822"><ele>88.0</ele><time>2026-05-03T09:11:55.145Z</time></trkpt><trkpt lat="45.9838639" lon="13.4969647"><ele>86.5</ele><time>2026-05-03T09:11:56.144Z</time></trkpt><trkpt lat="45.9837788" lon="13.4968653"><ele>85.0</ele><time>2026-05-03T09:11:57.145Z</time></trkpt><trkpt lat="45.9836838" lon="13.4967749"><ele>85.0</ele><time>2026-05-03T09:11:58.144Z</time></trkpt><trkpt lat="45.9835782" lon="13.4966863"><ele>85.0</ele><time>2026-05-03T09:11:59.145Z</time></trkpt><trkpt lat="45.9834684" lon="13.4965993"><ele>85.0</ele><time>2026-05-03T09:12:00.145Z</time></trkpt><trkpt lat="45.983361" lon="13.4965199"><ele>85.0</ele><time>2026-05-03T09:12:01.145Z</time></trkpt><trkpt lat="45.9832588" lon="13.4964431"><ele>84.0</ele><time>2026-05-03T09:12:02.144Z</time></trkpt><trkpt lat="45.9831767" lon="13.4963503"><ele>83.0</ele><time>2026-05-03T09:12:03.144Z</time></trkpt><trkpt lat="45.9831257" lon="13.4962144"><ele>82.0</ele><time>2026-05-03T09:12:04.145Z</time></trkpt><trkpt lat="45.9831294" lon="13.4960517"><ele>81.0</ele><time>2026-05-03T09:12:05.145Z</time></trkpt><trkpt lat="45.9831692" lon="13.4958852"><ele>80.0</ele><time>2026-05-03T09:12:06.144Z</time></trkpt><trkpt lat="45.9832311" lon="13.4957434"><ele>79.0</ele><time>2026-05-03T09:12:07.145Z</time></trkpt><trkpt lat="45.9832988" lon="13.4956092"><ele>78.0</ele><time>2026-05-03T09:12:08.145Z</time></trkpt><trkpt lat="45.9833846" lon="13.4955015"><ele>77.0</ele><time>2026-05-03T09:12:09.144Z</time></trkpt><trkpt lat="45.9834819" lon="13.4953913"><ele>76.0</ele><time>2026-05-03T09:12:10.145Z</time></trkpt><trkpt lat="45.9835758" lon="13.4952664"><ele>74.75</ele><time>2026-05-03T09:12:11.145Z</time></trkpt><trkpt lat="45.9836621" lon="13.495125"><ele>73.5</ele><time>2026-05-03T09:12:12.144Z</time></trkpt><trkpt lat="45.9837471" lon="13.4949407"><ele>72.25</ele><time>2026-05-03T09:12:13.144Z</time></trkpt><trkpt lat="45.9837989" lon="13.4947408"><ele>71.0</ele><time>2026-05-03T09:12:14.144Z</time></trkpt><trkpt lat="45.9838482" lon="13.4945373"><ele>71.0</ele><time>2026-05-03T09:12:15.145Z</time></trkpt><trkpt lat="45.9838976" lon="13.4943317"><ele>71.0</ele><time>2026-05-03T09:12:16.145Z</time></trkpt><trkpt lat="45.9839438" lon="13.4941285"><ele>71.0</ele><time>2026-05-03T09:12:17.145Z</time></trkpt><trkpt lat="45.9839847" lon="13.493925"><ele>71.0</ele><time>2026-05-03T09:12:18.144Z</time></trkpt><trkpt lat="45.9840278" lon="13.4937253"><ele>71.25</ele><time>2026-05-03T09:12:19.145Z</time></trkpt><trkpt lat="45.9840713" lon="13.4935283"><ele>71.5</ele><time>2026-05-03T09:12:20.144Z</time></trkpt><trkpt lat="45.9841138" lon="13.4933545"><ele>71.75</ele><time>2026-05-03T09:12:21.144Z</time></trkpt><trkpt lat="45.984152" lon="13.4931864"><ele>72.0</ele><time>2026-05-03T09:12:22.145Z</time></trkpt><trkpt lat="45.9841859" lon="13.4930314"><ele>73.5</ele><time>2026-05-03T09:12:23.145Z</time></trkpt><trkpt lat="45.9842167" lon="13.4929042"><ele>75.0</ele><time>2026-05-03T09:12:24.145Z</time></trkpt><trkpt lat="45.9842581" lon="13.4927958"><ele>76.5</ele><time>2026-05-03T09:12:25.145Z</time></trkpt><trkpt lat="45.9843088" lon="13.4927235"><ele>78.0</ele><time>2026-05-03T09:12:26.144Z</time></trkpt><trkpt lat="45.9843756" lon="13.492669"><ele>79.5</ele><time>2026-05-03T09:12:27.145Z</time></trkpt><trkpt lat="45.9844621" lon="13.4926489"><ele>81.0</ele><time>2026-05-03T09:12:28.145Z</time></trkpt><trkpt lat="45.9845494" lon="13.4926266"><ele>81.0</ele><time>2026-05-03T09:12:29.145Z</time></trkpt><trkpt lat="45.9846414" lon="13.4926061"><ele>81.0</ele><time>2026-05-03T09:12:30.145Z</time></trkpt><trkpt lat="45.9847326" lon="13.4925831"><ele>81.0</ele><time>2026-05-03T09:12:31.144Z</time></trkpt><trkpt lat="45.9848249" lon="13.4925412"><ele>81.0</ele><time>2026-05-03T09:12:32.145Z</time></trkpt><trkpt lat="45.9849083" lon="13.492464"><ele>81.0</ele><time>2026-05-03T09:12:33.145Z</time></trkpt><trkpt lat="45.9849695" lon="13.4923567"><ele>81.0</ele><time>2026-05-03T09:12:34.145Z</time></trkpt><trkpt lat="45.985003" lon="13.4922244"><ele>81.0</ele><time>2026-05-03T09:12:35.145Z</time></trkpt><trkpt lat="45.9850096" lon="13.4920939"><ele>81.0</ele><time>2026-05-03T09:12:36.145Z</time></trkpt><trkpt lat="45.9849833" lon="13.4919558"><ele>81.0</ele><time>2026-05-03T09:12:37.144Z</time></trkpt><trkpt lat="45.9849235" lon="13.4918295"><ele>81.0</ele><time>2026-05-03T09:12:38.145Z</time></trkpt><trkpt lat="45.9848448" lon="13.4917299"><ele>82.16666666666667</ele><time>2026-05-03T09:12:39.145Z</time></trkpt><trkpt lat="45.9847718" lon="13.4916444"><ele>83.33333333333333</ele><time>2026-05-03T09:12:40.145Z</time></trkpt><trkpt lat="45.9847157" lon="13.4915477"><ele>84.5</ele><time>2026-05-03T09:12:41.145Z</time></trkpt><trkpt lat="45.9847021" lon="13.4914367"><ele>85.66666666666666</ele><time>2026-05-03T09:12:42.145Z</time></trkpt><trkpt lat="45.9847191" lon="13.4913332"><ele>86.83333333333333</ele><time>2026-05-03T09:12:43.144Z</time></trkpt><trkpt lat="45.9847731" lon="13.4912566"><ele>88.0</ele><time>2026-05-03T09:12:44.145Z</time></trkpt><trkpt lat="45.9848427" lon="13.4911635"><ele>88.75</ele><time>2026-05-03T09:12:45.145Z</time></trkpt><trkpt lat="45.9849178" lon="13.4910588"><ele>89.5</ele><time>2026-05-03T09:12:46.145Z</time></trkpt><trkpt lat="45.9849987" lon="13.4909445"><ele>90.25</ele><time>2026-05-03T09:12:47.145Z</time></trkpt><trkpt lat="45.9850808" lon="13.4908204"><ele>91.0</ele><time>2026-05-03T09:12:48.144Z</time></trkpt><trkpt lat="45.9851677" lon="13.4907001"><ele>91.0</ele><time>2026-05-03T09:12:49.144Z</time></trkpt><trkpt lat="45.9852626" lon="13.4905824"><ele>91.0</ele><time>2026-05-03T09:12:50.144Z</time></trkpt><trkpt lat="45.9853531" lon="13.490463"><ele>91.0</ele><time>2026-05-03T09:12:51.144Z</time></trkpt><trkpt lat="45.9854387" lon="13.4903223"><ele>91.0</ele><time>2026-05-03T09:12:52.145Z</time></trkpt><trkpt lat="45.9855224" lon="13.4901748"><ele>92.0</ele><time>2026-05-03T09:12:53.145Z</time></trkpt><trkpt lat="45.9856039" lon="13.4900245"><ele>93.0</ele><time>2026-05-03T09:12:54.144Z</time></trkpt><trkpt lat="45.9856852" lon="13.4898763"><ele>94.0</ele><time>2026-05-03T09:12:55.145Z</time></trkpt><trkpt lat="45.9857692" lon="13.4897306"><ele>95.0</ele><time>2026-05-03T09:12:56.145Z</time></trkpt><trkpt lat="45.9858479" lon="13.4896031"><ele>97.25</ele><time>2026-05-03T09:12:57.145Z</time></trkpt><trkpt lat="45.9859335" lon="13.4894717"><ele>99.5</ele><time>2026-05-03T09:12:58.144Z</time></trkpt><trkpt lat="45.9860303" lon="13.4893711"><ele>101.75</ele><time>2026-05-03T09:12:59.145Z</time></trkpt><trkpt lat="45.9861264" lon="13.4893008"><ele>104.0</ele><time>2026-05-03T09:13:00.145Z</time></trkpt><trkpt lat="45.986238" lon="13.4892656"><ele>104.0</ele><time>2026-05-03T09:13:01.145Z</time></trkpt><trkpt lat="45.9863555" lon="13.4892472"><ele>104.0</ele><time>2026-05-03T09:13:02.145Z</time></trkpt><trkpt lat="45.9864774" lon="13.4892301"><ele>104.0</ele><time>2026-05-03T09:13:03.145Z</time></trkpt><trkpt lat="45.9865979" lon="13.4892175"><ele>104.0</ele><time>2026-05-03T09:13:04.145Z</time></trkpt><trkpt lat="45.9867085" lon="13.4891994"><ele>105.4</ele><time>2026-05-03T09:13:05.145Z</time></trkpt><trkpt lat="45.9868123" lon="13.4891672"><ele>106.80000000000001</ele><time>2026-05-03T09:13:06.145Z</time></trkpt><trkpt lat="45.9869057" lon="13.4890907"><ele>108.19999999999999</ele><time>2026-05-03T09:13:07.145Z</time></trkpt><trkpt lat="45.9869919" lon="13.4889773"><ele>109.6</ele><time>2026-05-03T09:13:08.145Z</time></trkpt><trkpt lat="45.9870541" lon="13.4888487"><ele>111.0</ele><time>2026-05-03T09:13:09.145Z</time></trkpt><trkpt lat="45.9870829" lon="13.4887089"><ele>111.0</ele><time>2026-05-03T09:13:10.144Z</time></trkpt><trkpt lat="45.9871018" lon="13.4885928"><ele>111.0</ele><time>2026-05-03T09:13:11.145Z</time></trkpt><trkpt lat="45.9871468" lon="13.4885053"><ele>111.0</ele><time>2026-05-03T09:13:12.145Z</time></trkpt><trkpt lat="45.987215" lon="13.488461"><ele>111.0</ele><time>2026-05-03T09:13:13.145Z</time></trkpt><trkpt lat="45.9873064" lon="13.4884651"><ele>111.0</ele><time>2026-05-03T09:13:14.145Z</time></trkpt><trkpt lat="45.9874018" lon="13.4884856"><ele>111.0</ele><time>2026-05-03T09:13:15.145Z</time></trkpt><trkpt lat="45.9874978" lon="13.4884871"><ele>114.0</ele><time>2026-05-03T09:13:16.145Z</time></trkpt><trkpt lat="45.9875912" lon="13.4884921"><ele>117.0</ele><time>2026-05-03T09:13:17.145Z</time></trkpt><trkpt lat="45.9876708" lon="13.4885039"><ele>120.0</ele><time>2026-05-03T09:13:18.145Z</time></trkpt><trkpt lat="45.9877285" lon="13.4885496"><ele>123.0</ele><time>2026-05-03T09:13:19.145Z</time></trkpt><trkpt lat="45.9877302" lon="13.4887006"><ele>126.0</ele><time>2026-05-03T09:13:21.144Z</time></trkpt><trkpt lat="45.9876737" lon="13.4887559"><ele>129.0</ele><time>2026-05-03T09:13:22.144Z</time></trkpt><trkpt lat="45.9876029" lon="13.4887767"><ele>130.0</ele><time>2026-05-03T09:13:23.144Z</time></trkpt><trkpt lat="45.9875264" lon="13.488761"><ele>131.0</ele><time>2026-05-03T09:13:24.145Z</time></trkpt><trkpt lat="45.9874566" lon="13.4887856"><ele>132.0</ele><time>2026-05-03T09:13:25.145Z</time></trkpt><trkpt lat="45.9874111" lon="13.488874"><ele>133.0</ele><time>2026-05-03T09:13:26.144Z</time></trkpt><trkpt lat="45.9874656" lon="13.4890074"><ele>134.0</ele><time>2026-05-03T09:13:28.144Z</time></trkpt><trkpt lat="45.9875529" lon="13.4890241"><ele>135.0</ele><time>2026-05-03T09:13:29.145Z</time></trkpt><trkpt lat="45.9876396" lon="13.4889876"><ele>135.0</ele><time>2026-05-03T09:13:30.145Z</time></trkpt><trkpt lat="45.9877344" lon="13.4889462"><ele>135.0</ele><time>2026-05-03T09:13:31.145Z</time></trkpt><trkpt lat="45.9878251" lon="13.4889107"><ele>135.0</ele><time>2026-05-03T09:13:32.144Z</time></trkpt><trkpt lat="45.9879154" lon="13.4888909"><ele>135.0</ele><time>2026-05-03T09:13:33.144Z</time></trkpt><trkpt lat="45.9879962" lon="13.488834"><ele>135.0</ele><time>2026-05-03T09:13:34.145Z</time></trkpt><trkpt lat="45.9880655" lon="13.4887571"><ele>134.6</ele><time>2026-05-03T09:13:35.145Z</time></trkpt><trkpt lat="45.9881319" lon="13.4886703"><ele>134.2</ele><time>2026-05-03T09:13:36.144Z</time></trkpt><trkpt lat="45.9881881" lon="13.4885641"><ele>133.8</ele><time>2026-05-03T09:13:37.144Z</time></trkpt><trkpt lat="45.9882499" lon="13.4884646"><ele>133.4</ele><time>2026-05-03T09:13:38.145Z</time></trkpt><trkpt lat="45.9883254" lon="13.4883825"><ele>133.0</ele><time>2026-05-03T09:13:39.145Z</time></trkpt><trkpt lat="45.988403" lon="13.4883136"><ele>133.0</ele><time>2026-05-03T09:13:40.145Z</time></trkpt><trkpt lat="45.9884863" lon="13.4882624"><ele>133.0</ele><time>2026-05-03T09:13:41.144Z</time></trkpt><trkpt lat="45.9885676" lon="13.4882142"><ele>133.0</ele><time>2026-05-03T09:13:42.144Z</time></trkpt><trkpt lat="45.9886588" lon="13.4881947"><ele>133.0</ele><time>2026-05-03T09:13:43.145Z</time></trkpt><trkpt lat="45.9887523" lon="13.488188"><ele>133.0</ele><time>2026-05-03T09:13:44.144Z</time></trkpt><trkpt lat="45.9888435" lon="13.4881809"><ele>133.0</ele><time>2026-05-03T09:13:45.144Z</time></trkpt><trkpt lat="45.9889229" lon="13.4881705"><ele>133.0</ele><time>2026-05-03T09:13:46.145Z</time></trkpt><trkpt lat="45.9890073" lon="13.4881417"><ele>133.0</ele><time>2026-05-03T09:13:47.145Z</time></trkpt><trkpt lat="45.9890978" lon="13.4880763"><ele>133.0</ele><time>2026-05-03T09:13:48.145Z</time></trkpt><trkpt lat="45.9891848" lon="13.4879863"><ele>133.0</ele><time>2026-05-03T09:13:49.145Z</time></trkpt><trkpt lat="45.9892606" lon="13.4878547"><ele>136.0</ele><time>2026-05-03T09:13:50.145Z</time></trkpt><trkpt lat="45.9893391" lon="13.4877309"><ele>139.0</ele><time>2026-05-03T09:13:51.145Z</time></trkpt><trkpt lat="45.9894139" lon="13.4876148"><ele>142.0</ele><time>2026-05-03T09:13:52.145Z</time></trkpt><trkpt lat="45.9894783" lon="13.4874973"><ele>145.0</ele><time>2026-05-03T09:13:53.144Z</time></trkpt><trkpt lat="45.9895275" lon="13.487358"><ele>148.0</ele><time>2026-05-03T09:13:54.144Z</time></trkpt><trkpt lat="45.9895626" lon="13.4871968"><ele>149.0</ele><time>2026-05-03T09:13:55.145Z</time></trkpt><trkpt lat="45.9895995" lon="13.4870414"><ele>150.0</ele><time>2026-05-03T09:13:56.143Z</time></trkpt><trkpt lat="45.9896369" lon="13.4868927"><ele>151.0</ele><time>2026-05-03T09:13:57.144Z</time></trkpt><trkpt lat="45.9896747" lon="13.486753"><ele>152.0</ele><time>2026-05-03T09:13:58.144Z</time></trkpt><trkpt lat="45.9897289" lon="13.4866192"><ele>153.0</ele><time>2026-05-03T09:13:59.144Z</time></trkpt><trkpt lat="45.9898006" lon="13.486496"><ele>153.0</ele><time>2026-05-03T09:14:00.144Z</time></trkpt><trkpt lat="45.9898697" lon="13.4863634"><ele>153.0</ele><time>2026-05-03T09:14:01.144Z</time></trkpt><trkpt lat="45.9899394" lon="13.4862309"><ele>153.0</ele><time>2026-05-03T09:14:02.144Z</time></trkpt><trkpt lat="45.9900101" lon="13.4860905"><ele>153.0</ele><time>2026-05-03T09:14:03.144Z</time></trkpt><trkpt lat="45.9900753" lon="13.4859524"><ele>152.20000000000002</ele><time>2026-05-03T09:14:04.144Z</time></trkpt><trkpt lat="45.9901353" lon="13.4858243"><ele>151.4</ele><time>2026-05-03T09:14:05.144Z</time></trkpt><trkpt lat="45.9901896" lon="13.4857091"><ele>150.60000000000002</ele><time>2026-05-03T09:14:06.143Z</time></trkpt><trkpt lat="45.9902452" lon="13.4856054"><ele>149.8</ele><time>2026-05-03T09:14:07.143Z</time></trkpt><trkpt lat="45.9903046" lon="13.4855042"><ele>149.0</ele><time>2026-05-03T09:14:08.144Z</time></trkpt><trkpt lat="45.9903733" lon="13.4854046"><ele>148.6</ele><time>2026-05-03T09:14:09.143Z</time></trkpt><trkpt lat="45.9904486" lon="13.4852996"><ele>148.2</ele><time>2026-05-03T09:14:10.144Z</time></trkpt><trkpt lat="45.9905299" lon="13.4851908"><ele>147.79999999999998</ele><time>2026-05-03T09:14:11.144Z</time></trkpt><trkpt lat="45.9906059" lon="13.4850603"><ele>147.4</ele><time>2026-05-03T09:14:12.144Z</time></trkpt><trkpt lat="45.990679" lon="13.4849331"><ele>147.0</ele><time>2026-05-03T09:14:13.144Z</time></trkpt><trkpt lat="45.9907516" lon="13.4847907"><ele>147.0</ele><time>2026-05-03T09:14:14.144Z</time></trkpt><trkpt lat="45.9908165" lon="13.4846522"><ele>147.0</ele><time>2026-05-03T09:14:15.143Z</time></trkpt><trkpt lat="45.990875" lon="13.4845167"><ele>147.0</ele><time>2026-05-03T09:14:16.144Z</time></trkpt><trkpt lat="45.9909359" lon="13.4843758"><ele>147.0</ele><time>2026-05-03T09:14:17.143Z</time></trkpt><trkpt lat="45.9909964" lon="13.4842384"><ele>146.25</ele><time>2026-05-03T09:14:18.143Z</time></trkpt><trkpt lat="45.9910667" lon="13.4840952"><ele>145.5</ele><time>2026-05-03T09:14:19.143Z</time></trkpt><trkpt lat="45.9911456" lon="13.4839441"><ele>144.75</ele><time>2026-05-03T09:14:20.143Z</time></trkpt><trkpt lat="45.9912272" lon="13.4838001"><ele>144.0</ele><time>2026-05-03T09:14:21.144Z</time></trkpt><trkpt lat="45.9913085" lon="13.4836544"><ele>143.6</ele><time>2026-05-03T09:14:22.144Z</time></trkpt><trkpt lat="45.9913738" lon="13.4835013"><ele>143.2</ele><time>2026-05-03T09:14:23.143Z</time></trkpt><trkpt lat="45.9914196" lon="13.4833521"><ele>142.79999999999998</ele><time>2026-05-03T09:14:24.143Z</time></trkpt><trkpt lat="45.9914643" lon="13.4832133"><ele>142.4</ele><time>2026-05-03T09:14:25.144Z</time></trkpt><trkpt lat="45.9915053" lon="13.4830846"><ele>142.0</ele><time>2026-05-03T09:14:26.143Z</time></trkpt><trkpt lat="45.9915433" lon="13.4829553"><ele>143.4</ele><time>2026-05-03T09:14:27.144Z</time></trkpt><trkpt lat="45.9915843" lon="13.4828288"><ele>144.79999999999998</ele><time>2026-05-03T09:14:28.144Z</time></trkpt><trkpt lat="45.9916247" lon="13.4826943"><ele>146.2</ele><time>2026-05-03T09:14:29.144Z</time></trkpt><trkpt lat="45.991668" lon="13.4825591"><ele>147.6</ele><time>2026-05-03T09:14:30.144Z</time></trkpt><trkpt lat="45.9917081" lon="13.4824234"><ele>149.0</ele><time>2026-05-03T09:14:31.143Z</time></trkpt><trkpt lat="45.9917475" lon="13.4822932"><ele>149.4</ele><time>2026-05-03T09:14:32.144Z</time></trkpt><trkpt lat="45.9917864" lon="13.4821571"><ele>149.8</ele><time>2026-05-03T09:14:33.144Z</time></trkpt><trkpt lat="45.9918253" lon="13.4820114"><ele>150.2</ele><time>2026-05-03T09:14:34.143Z</time></trkpt><trkpt lat="45.9918542" lon="13.4818638"><ele>150.6</ele><time>2026-05-03T09:14:35.143Z</time></trkpt><trkpt lat="45.9918654" lon="13.4817146"><ele>151.0</ele><time>2026-05-03T09:14:36.144Z</time></trkpt><trkpt lat="45.9918548" lon="13.4815654"><ele>153.8</ele><time>2026-05-03T09:14:37.144Z</time></trkpt><trkpt lat="45.9918308" lon="13.4814211"><ele>156.6</ele><time>2026-05-03T09:14:38.144Z</time></trkpt><trkpt lat="45.9918109" lon="13.4812734"><ele>159.4</ele><time>2026-05-03T09:14:39.144Z</time></trkpt><trkpt lat="45.9918015" lon="13.4811164"><ele>162.2</ele><time>2026-05-03T09:14:40.144Z</time></trkpt><trkpt lat="45.9918217" lon="13.4809709"><ele>165.0</ele><time>2026-05-03T09:14:41.143Z</time></trkpt><trkpt lat="45.9918505" lon="13.480827"><ele>167.2</ele><time>2026-05-03T09:14:42.144Z</time></trkpt><trkpt lat="45.9918879" lon="13.4806861"><ele>169.4</ele><time>2026-05-03T09:14:43.143Z</time></trkpt><trkpt lat="45.991935" lon="13.4805731"><ele>171.60000000000002</ele><time>2026-05-03T09:14:44.144Z</time></trkpt><trkpt lat="45.9919925" lon="13.4804706"><ele>173.8</ele><time>2026-05-03T09:14:45.143Z</time></trkpt><trkpt lat="45.9920632" lon="13.4803692"><ele>176.0</ele><time>2026-05-03T09:14:46.144Z</time></trkpt><trkpt lat="45.9921496" lon="13.4802648"><ele>176.0</ele><time>2026-05-03T09:14:47.144Z</time></trkpt><trkpt lat="45.9922347" lon="13.480152"><ele>176.0</ele><time>2026-05-03T09:14:48.144Z</time></trkpt><trkpt lat="45.9923099" lon="13.4800291"><ele>176.0</ele><time>2026-05-03T09:14:49.144Z</time></trkpt><trkpt lat="45.9923715" lon="13.4798973"><ele>176.0</ele><time>2026-05-03T09:14:50.144Z</time></trkpt><trkpt lat="45.9924238" lon="13.4797628"><ele>176.0</ele><time>2026-05-03T09:14:51.144Z</time></trkpt><trkpt lat="45.9924823" lon="13.4796268"><ele>173.4</ele><time>2026-05-03T09:14:52.143Z</time></trkpt><trkpt lat="45.9925435" lon="13.479507"><ele>170.8</ele><time>2026-05-03T09:14:53.144Z</time></trkpt><trkpt lat="45.9926136" lon="13.4793944"><ele>168.20000000000002</ele><time>2026-05-03T09:14:54.143Z</time></trkpt><trkpt lat="45.9926924" lon="13.4792899"><ele>165.60000000000002</ele><time>2026-05-03T09:14:55.144Z</time></trkpt><trkpt lat="45.9927837" lon="13.4792007"><ele>163.0</ele><time>2026-05-03T09:14:56.144Z</time></trkpt><trkpt lat="45.9928821" lon="13.4791283"><ele>163.0</ele><time>2026-05-03T09:14:57.144Z</time></trkpt><trkpt lat="45.9929893" lon="13.4790527"><ele>163.0</ele><time>2026-05-03T09:14:58.143Z</time></trkpt><trkpt lat="45.9930974" lon="13.4789741"><ele>163.0</ele><time>2026-05-03T09:14:59.144Z</time></trkpt><trkpt lat="45.9932018" lon="13.4788834"><ele>163.0</ele><time>2026-05-03T09:15:00.144Z</time></trkpt><trkpt lat="45.9933059" lon="13.4788029"><ele>163.60000000000002</ele><time>2026-05-03T09:15:01.143Z</time></trkpt><trkpt lat="45.9933984" lon="13.4787217"><ele>164.20000000000002</ele><time>2026-05-03T09:15:02.143Z</time></trkpt><trkpt lat="45.9934901" lon="13.4786469"><ele>164.8</ele><time>2026-05-03T09:15:03.144Z</time></trkpt><trkpt lat="45.9935903" lon="13.4785882"><ele>165.4</ele><time>2026-05-03T09:15:04.144Z</time></trkpt><trkpt lat="45.9937015" lon="13.4785347"><ele>166.0</ele><time>2026-05-03T09:15:05.144Z</time></trkpt><trkpt lat="45.9938147" lon="13.4784897"><ele>166.0</ele><time>2026-05-03T09:15:06.143Z</time></trkpt><trkpt lat="45.993922" lon="13.4784411"><ele>166.0</ele><time>2026-05-03T09:15:07.143Z</time></trkpt><trkpt lat="45.9940205" lon="13.4783801"><ele>166.0</ele><time>2026-05-03T09:15:08.144Z</time></trkpt><trkpt lat="45.9941178" lon="13.4783092"><ele>166.0</ele><time>2026-05-03T09:15:09.144Z</time></trkpt><trkpt lat="45.9941988" lon="13.4782244"><ele>166.0</ele><time>2026-05-03T09:15:10.144Z</time></trkpt><trkpt lat="45.994272" lon="13.4781388"><ele>166.5</ele><time>2026-05-03T09:15:11.144Z</time></trkpt><trkpt lat="45.9943457" lon="13.4780594"><ele>167.0</ele><time>2026-05-03T09:15:12.144Z</time></trkpt><trkpt lat="45.9944178" lon="13.4779809"><ele>167.5</ele><time>2026-05-03T09:15:13.144Z</time></trkpt><trkpt lat="45.9944804" lon="13.477903"><ele>168.0</ele><time>2026-05-03T09:15:14.143Z</time></trkpt><trkpt lat="45.9945418" lon="13.4778289"><ele>168.5</ele><time>2026-05-03T09:15:15.144Z</time></trkpt><trkpt lat="45.9946014" lon="13.4777629"><ele>169.0</ele><time>2026-05-03T09:15:16.144Z</time></trkpt><trkpt lat="45.9946685" lon="13.4777035"><ele>169.0</ele><time>2026-05-03T09:15:17.144Z</time></trkpt><trkpt lat="45.9947422" lon="13.4776457"><ele>169.0</ele><time>2026-05-03T09:15:18.144Z</time></trkpt><trkpt lat="45.9948198" lon="13.477595"><ele>169.0</ele><time>2026-05-03T09:15:19.144Z</time></trkpt><trkpt lat="45.9948986" lon="13.4775459"><ele>169.0</ele><time>2026-05-03T09:15:20.143Z</time></trkpt><trkpt lat="45.9949817" lon="13.4775104"><ele>169.0</ele><time>2026-05-03T09:15:21.144Z</time></trkpt><trkpt lat="45.9950649" lon="13.4774821"><ele>169.0</ele><time>2026-05-03T09:15:22.144Z</time></trkpt><trkpt lat="45.9951491" lon="13.4774646"><ele>169.79999999999998</ele><time>2026-05-03T09:15:23.144Z</time></trkpt><trkpt lat="45.9952343" lon="13.4774401"><ele>170.6</ele><time>2026-05-03T09:15:24.144Z</time></trkpt><trkpt lat="45.9953241" lon="13.4774157"><ele>171.4</ele><time>2026-05-03T09:15:25.144Z</time></trkpt><trkpt lat="45.9954213" lon="13.4773907"><ele>172.2</ele><time>2026-05-03T09:15:26.144Z</time></trkpt><trkpt lat="45.9955186" lon="13.4773638"><ele>173.0</ele><time>2026-05-03T09:15:27.144Z</time></trkpt><trkpt lat="45.9956245" lon="13.4773329"><ele>173.0</ele><time>2026-05-03T09:15:28.143Z</time></trkpt><trkpt lat="45.9957316" lon="13.4773064"><ele>173.0</ele><time>2026-05-03T09:15:29.144Z</time></trkpt><trkpt lat="45.9958401" lon="13.4772717"><ele>173.0</ele><time>2026-05-03T09:15:30.144Z</time></trkpt><trkpt lat="45.9959494" lon="13.4772422"><ele>173.0</ele><time>2026-05-03T09:15:31.144Z</time></trkpt><trkpt lat="45.9960599" lon="13.4772094"><ele>173.0</ele><time>2026-05-03T09:15:32.143Z</time></trkpt><trkpt lat="45.9961709" lon="13.4771651"><ele>172.60000000000002</ele><time>2026-05-03T09:15:33.144Z</time></trkpt><trkpt lat="45.9962789" lon="13.4771116"><ele>172.20000000000002</ele><time>2026-05-03T09:15:34.143Z</time></trkpt><trkpt lat="45.9963772" lon="13.4770589"><ele>171.8</ele><time>2026-05-03T09:15:35.144Z</time></trkpt><trkpt lat="45.9964744" lon="13.4770095"><ele>171.4</ele><time>2026-05-03T09:15:36.144Z</time></trkpt><trkpt lat="45.9965613" lon="13.476957"><ele>171.0</ele><time>2026-05-03T09:15:37.144Z</time></trkpt><trkpt lat="45.996646" lon="13.4769077"><ele>167.4</ele><time>2026-05-03T09:15:38.143Z</time></trkpt><trkpt lat="45.9967285" lon="13.4768366"><ele>163.8</ele><time>2026-05-03T09:15:39.144Z</time></trkpt><trkpt lat="45.9968044" lon="13.476743"><ele>160.20000000000002</ele><time>2026-05-03T09:15:40.143Z</time></trkpt><trkpt lat="45.9968685" lon="13.4766299"><ele>156.60000000000002</ele><time>2026-05-03T09:15:41.144Z</time></trkpt><trkpt lat="45.9969248" lon="13.4765061"><ele>153.0</ele><time>2026-05-03T09:15:42.144Z</time></trkpt><trkpt lat="45.9969843" lon="13.4763878"><ele>153.0</ele><time>2026-05-03T09:15:43.143Z</time></trkpt><trkpt lat="45.9970338" lon="13.4762699"><ele>153.0</ele><time>2026-05-03T09:15:44.144Z</time></trkpt><trkpt lat="45.9970639" lon="13.4761645"><ele>153.0</ele><time>2026-05-03T09:15:45.144Z</time></trkpt><trkpt lat="45.9970621" lon="13.4760663"><ele>153.0</ele><time>2026-05-03T09:15:46.143Z</time></trkpt><trkpt lat="45.9970652" lon="13.4759735"><ele>153.0</ele><time>2026-05-03T09:15:47.144Z</time></trkpt><trkpt lat="45.9971252" lon="13.4758949"><ele>153.0</ele><time>2026-05-03T09:15:49.143Z</time></trkpt><trkpt lat="45.9971946" lon="13.4759472"><ele>153.0</ele><time>2026-05-03T09:15:51.143Z</time></trkpt><trkpt lat="45.9972288" lon="13.4761047"><ele>153.0</ele><time>2026-05-03T09:15:53.143Z</time></trkpt><trkpt lat="45.9972693" lon="13.4762769"><ele>153.0</ele><time>2026-05-03T09:15:55.144Z</time></trkpt><trkpt lat="45.9973002" lon="13.4763837"><ele>153.0</ele><time>2026-05-03T09:15:56.143Z</time></trkpt><trkpt lat="45.9973435" lon="13.4764948"><ele>153.0</ele><time>2026-05-03T09:15:57.143Z</time></trkpt><trkpt lat="45.9973974" lon="13.4766081"><ele>153.0</ele><time>2026-05-03T09:15:58.144Z</time></trkpt><trkpt lat="45.997454" lon="13.4767216"><ele>153.0</ele><time>2026-05-03T09:15:59.143Z</time></trkpt><trkpt lat="45.9975119" lon="13.4768479"><ele>153.0</ele><time>2026-05-03T09:16:00.144Z</time></trkpt><trkpt lat="45.9975783" lon="13.4769786"><ele>153.0</ele><time>2026-05-03T09:16:01.144Z</time></trkpt><trkpt lat="45.9976397" lon="13.47711"><ele>153.0</ele><time>2026-05-03T09:16:02.143Z</time></trkpt><trkpt lat="45.9976845" lon="13.4772552"><ele>152.4</ele><time>2026-05-03T09:16:03.144Z</time></trkpt><trkpt lat="45.9977056" lon="13.4774158"><ele>151.8</ele><time>2026-05-03T09:16:04.144Z</time></trkpt><trkpt lat="45.9977221" lon="13.4775797"><ele>151.2</ele><time>2026-05-03T09:16:05.144Z</time></trkpt><trkpt lat="45.9977537" lon="13.4777255"><ele>150.6</ele><time>2026-05-03T09:16:06.143Z</time></trkpt><trkpt lat="45.9978088" lon="13.4778467"><ele>150.0</ele><time>2026-05-03T09:16:07.143Z</time></trkpt><trkpt lat="45.9978815" lon="13.4779452"><ele>150.0</ele><time>2026-05-03T09:16:08.143Z</time></trkpt><trkpt lat="45.9979585" lon="13.4780317"><ele>150.0</ele><time>2026-05-03T09:16:09.144Z</time></trkpt><trkpt lat="45.9980354" lon="13.4781177"><ele>150.0</ele><time>2026-05-03T09:16:10.144Z</time></trkpt><trkpt lat="45.9981148" lon="13.4782094"><ele>150.0</ele><time>2026-05-03T09:16:11.144Z</time></trkpt><trkpt lat="45.998189" lon="13.4783015"><ele>150.0</ele><time>2026-05-03T09:16:12.144Z</time></trkpt><trkpt lat="45.9982378" lon="13.4784122"><ele>150.0</ele><time>2026-05-03T09:16:13.143Z</time></trkpt><trkpt lat="45.9982539" lon="13.47854"><ele>150.0</ele><time>2026-05-03T09:16:14.144Z</time></trkpt><trkpt lat="45.9982583" lon="13.4786758"><ele>150.0</ele><time>2026-05-03T09:16:15.144Z</time></trkpt><trkpt lat="45.9982363" lon="13.4788144"><ele>150.0</ele><time>2026-05-03T09:16:16.144Z</time></trkpt><trkpt lat="45.9982035" lon="13.478956"><ele>150.0</ele><time>2026-05-03T09:16:17.144Z</time></trkpt><trkpt lat="45.9981677" lon="13.4790972"><ele>150.4</ele><time>2026-05-03T09:16:18.144Z</time></trkpt><trkpt lat="45.998124" lon="13.4792416"><ele>150.8</ele><time>2026-05-03T09:16:19.143Z</time></trkpt><trkpt lat="45.998081" lon="13.479386"><ele>151.2</ele><time>2026-05-03T09:16:20.144Z</time></trkpt><trkpt lat="45.998041" lon="13.4795308"><ele>151.6</ele><time>2026-05-03T09:16:21.143Z</time></trkpt><trkpt lat="45.9980091" lon="13.4796671"><ele>152.0</ele><time>2026-05-03T09:16:22.144Z</time></trkpt><trkpt lat="45.9979742" lon="13.4798016"><ele>151.4</ele><time>2026-05-03T09:16:23.144Z</time></trkpt><trkpt lat="45.9979402" lon="13.4799265"><ele>150.79999999999998</ele><time>2026-05-03T09:16:24.143Z</time></trkpt><trkpt lat="45.9979173" lon="13.4800447"><ele>150.2</ele><time>2026-05-03T09:16:25.144Z</time></trkpt><trkpt lat="45.9979082" lon="13.4801689"><ele>149.6</ele><time>2026-05-03T09:16:26.144Z</time></trkpt><trkpt lat="45.9979171" lon="13.4802989"><ele>149.0</ele><time>2026-05-03T09:16:27.144Z</time></trkpt><trkpt lat="45.9979261" lon="13.4804348"><ele>149.0</ele><time>2026-05-03T09:16:28.143Z</time></trkpt><trkpt lat="45.9979391" lon="13.4805733"><ele>149.0</ele><time>2026-05-03T09:16:29.143Z</time></trkpt><trkpt lat="45.997939" lon="13.4807186"><ele>149.0</ele><time>2026-05-03T09:16:30.144Z</time></trkpt><trkpt lat="45.9979216" lon="13.4808529"><ele>149.0</ele><time>2026-05-03T09:16:31.144Z</time></trkpt><trkpt lat="45.9978965" lon="13.4809788"><ele>149.0</ele><time>2026-05-03T09:16:32.144Z</time></trkpt><trkpt lat="45.9978772" lon="13.4811017"><ele>149.0</ele><time>2026-05-03T09:16:33.143Z</time></trkpt><trkpt lat="45.9978577" lon="13.4812257"><ele>149.0</ele><time>2026-05-03T09:16:34.144Z</time></trkpt><trkpt lat="45.9978416" lon="13.4813526"><ele>149.0</ele><time>2026-05-03T09:16:35.144Z</time></trkpt><trkpt lat="45.9978274" lon="13.4814779"><ele>149.0</ele><time>2026-05-03T09:16:36.144Z</time></trkpt><trkpt lat="45.9978195" lon="13.4816045"><ele>149.0</ele><time>2026-05-03T09:16:37.144Z</time></trkpt><trkpt lat="45.9978113" lon="13.4817323"><ele>149.0</ele><time>2026-05-03T09:16:38.144Z</time></trkpt><trkpt lat="45.9978033" lon="13.4818625"><ele>148.0</ele><time>2026-05-03T09:16:39.143Z</time></trkpt><trkpt lat="45.9977994" lon="13.4819924"><ele>147.0</ele><time>2026-05-03T09:16:40.143Z</time></trkpt><trkpt lat="45.9977963" lon="13.4821271"><ele>146.0</ele><time>2026-05-03T09:16:41.143Z</time></trkpt><trkpt lat="45.9977927" lon="13.4822637"><ele>145.0</ele><time>2026-05-03T09:16:42.144Z</time></trkpt><trkpt lat="45.9977867" lon="13.4824017"><ele>144.0</ele><time>2026-05-03T09:16:43.144Z</time></trkpt><trkpt lat="45.9977721" lon="13.4825334"><ele>142.6</ele><time>2026-05-03T09:16:44.144Z</time></trkpt><trkpt lat="45.9977449" lon="13.4826736"><ele>141.2</ele><time>2026-05-03T09:16:45.144Z</time></trkpt><trkpt lat="45.9977216" lon="13.4828139"><ele>139.79999999999998</ele><time>2026-05-03T09:16:46.143Z</time></trkpt><trkpt lat="45.9977156" lon="13.4829534"><ele>138.4</ele><time>2026-05-03T09:16:47.144Z</time></trkpt><trkpt lat="45.9977281" lon="13.4831027"><ele>137.0</ele><time>2026-05-03T09:16:48.144Z</time></trkpt><trkpt lat="45.9977675" lon="13.4832605"><ele>135.0</ele><time>2026-05-03T09:16:49.144Z</time></trkpt><trkpt lat="45.9978069" lon="13.4834174"><ele>133.0</ele><time>2026-05-03T09:16:50.144Z</time></trkpt><trkpt lat="45.9978484" lon="13.4835799"><ele>131.0</ele><time>2026-05-03T09:16:51.143Z</time></trkpt><trkpt lat="45.9978901" lon="13.4837351"><ele>129.0</ele><time>2026-05-03T09:16:52.144Z</time></trkpt><trkpt lat="45.9979326" lon="13.4838916"><ele>127.2</ele><time>2026-05-03T09:16:53.144Z</time></trkpt><trkpt lat="45.9979735" lon="13.4840436"><ele>125.4</ele><time>2026-05-03T09:16:54.144Z</time></trkpt><trkpt lat="45.9980089" lon="13.4841823"><ele>123.6</ele><time>2026-05-03T09:16:55.143Z</time></trkpt><trkpt lat="45.9980426" lon="13.4843017"><ele>121.8</ele><time>2026-05-03T09:16:56.143Z</time></trkpt><trkpt lat="45.9980836" lon="13.484398"><ele>120.0</ele><time>2026-05-03T09:16:57.144Z</time></trkpt><trkpt lat="45.9981252" lon="13.4844774"><ele>118.8</ele><time>2026-05-03T09:16:58.144Z</time></trkpt><trkpt lat="45.9981686" lon="13.4846378"><ele>117.6</ele><time>2026-05-03T09:17:00.143Z</time></trkpt><trkpt lat="45.9981449" lon="13.4848073"><ele>116.4</ele><time>2026-05-03T09:17:02.144Z</time></trkpt><trkpt lat="45.9981226" lon="13.4849193"><ele>115.2</ele><time>2026-05-03T09:17:03.144Z</time></trkpt><trkpt lat="45.9980982" lon="13.4850326"><ele>114.0</ele><time>2026-05-03T09:17:04.144Z</time></trkpt><trkpt lat="45.9980697" lon="13.4851534"><ele>114.0</ele><time>2026-05-03T09:17:05.144Z</time></trkpt><trkpt lat="45.998039" lon="13.485279"><ele>114.0</ele><time>2026-05-03T09:17:06.143Z</time></trkpt><trkpt lat="45.998009" lon="13.4854048"><ele>114.0</ele><time>2026-05-03T09:17:07.144Z</time></trkpt><trkpt lat="45.9979744" lon="13.4855319"><ele>114.0</ele><time>2026-05-03T09:17:08.144Z</time></trkpt><trkpt lat="45.9979375" lon="13.4856628"><ele>114.0</ele><time>2026-05-03T09:17:09.144Z</time></trkpt><trkpt lat="45.9979036" lon="13.4857972"><ele>113.80000000000001</ele><time>2026-05-03T09:17:10.144Z</time></trkpt><trkpt lat="45.9978659" lon="13.4859365"><ele>113.60000000000001</ele><time>2026-05-03T09:17:11.144Z</time></trkpt><trkpt lat="45.9978272" lon="13.4860752"><ele>113.4</ele><time>2026-05-03T09:17:12.143Z</time></trkpt><trkpt lat="45.9977875" lon="13.4862059"><ele>113.2</ele><time>2026-05-03T09:17:13.144Z</time></trkpt><trkpt lat="45.9977489" lon="13.4863391"><ele>113.0</ele><time>2026-05-03T09:17:14.144Z</time></trkpt><trkpt lat="45.9977106" lon="13.4864716"><ele>113.60000000000001</ele><time>2026-05-03T09:17:15.144Z</time></trkpt><trkpt lat="45.9976694" lon="13.4865985"><ele>114.20000000000002</ele><time>2026-05-03T09:17:16.144Z</time></trkpt><trkpt lat="45.9976264" lon="13.4867368"><ele>114.8</ele><time>2026-05-03T09:17:17.143Z</time></trkpt><trkpt lat="45.997583" lon="13.4868775"><ele>115.4</ele><time>2026-05-03T09:17:18.144Z</time></trkpt><trkpt lat="45.9975373" lon="13.4870216"><ele>116.0</ele><time>2026-05-03T09:17:19.144Z</time></trkpt><trkpt lat="45.9974886" lon="13.4871673"><ele>116.0</ele><time>2026-05-03T09:17:20.144Z</time></trkpt><trkpt lat="45.9974444" lon="13.4873056"><ele>116.0</ele><time>2026-05-03T09:17:21.144Z</time></trkpt><trkpt lat="45.9974013" lon="13.4874476"><ele>116.0</ele><time>2026-05-03T09:17:22.144Z</time></trkpt><trkpt lat="45.9973522" lon="13.4875945"><ele>116.0</ele><time>2026-05-03T09:17:23.144Z</time></trkpt><trkpt lat="45.997301" lon="13.4877375"><ele>116.0</ele><time>2026-05-03T09:17:24.144Z</time></trkpt><trkpt lat="45.9972466" lon="13.4878666"><ele>114.8</ele><time>2026-05-03T09:17:25.144Z</time></trkpt><trkpt lat="45.9972006" lon="13.4879914"><ele>113.6</ele><time>2026-05-03T09:17:26.144Z</time></trkpt><trkpt lat="45.9971534" lon="13.4881195"><ele>112.4</ele><time>2026-05-03T09:17:27.143Z</time></trkpt><trkpt lat="45.9971065" lon="13.4882464"><ele>111.2</ele><time>2026-05-03T09:17:28.144Z</time></trkpt><trkpt lat="45.9970654" lon="13.4883674"><ele>110.0</ele><time>2026-05-03T09:17:29.144Z</time></trkpt><trkpt lat="45.9970403" lon="13.4884758"><ele>109.99999999999999</ele><time>2026-05-03T09:17:30.143Z</time></trkpt><trkpt lat="45.9970278" lon="13.4885829"><ele>110.0</ele><time>2026-05-03T09:17:31.144Z</time></trkpt><trkpt lat="45.9970263" lon="13.4887089"><ele>110.0</ele><time>2026-05-03T09:17:32.144Z</time></trkpt><trkpt lat="45.9970395" lon="13.4888266"><ele>110.0</ele><time>2026-05-03T09:17:33.144Z</time></trkpt><trkpt lat="45.9970676" lon="13.4889347"><ele>109.99999999999999</ele><time>2026-05-03T09:17:34.144Z</time></trkpt><trkpt lat="45.9971006" lon="13.4890275"><ele>110.0</ele><time>2026-05-03T09:17:35.144Z</time></trkpt><trkpt lat="45.9971558" lon="13.4891617"><ele>109.99999999999999</ele><time>2026-05-03T09:17:37.144Z</time></trkpt><trkpt lat="45.9972026" lon="13.4890938"><ele>110.0</ele><time>2026-05-03T09:17:40.144Z</time></trkpt><trkpt lat="45.9971907" lon="13.488992"><ele>110.0</ele><time>2026-05-03T09:17:42.144Z</time></trkpt><trkpt lat="45.9971614" lon="13.4888752"><ele>110.0</ele><time>2026-05-03T09:17:44.143Z</time></trkpt><trkpt lat="45.997133" lon="13.4887593"><ele>109.99999999999999</ele><time>2026-05-03T09:17:46.144Z</time></trkpt><trkpt lat="45.9971279" lon="13.4886415"><ele>110.0</ele><time>2026-05-03T09:17:48.144Z</time></trkpt><trkpt lat="45.9971353" lon="13.4885242"><ele>109.99999999999999</ele><time>2026-05-03T09:17:50.144Z</time></trkpt><trkpt lat="45.9971604" lon="13.4884333"><ele>110.0</ele><time>2026-05-03T09:17:52.144Z</time></trkpt><trkpt lat="45.9971984" lon="13.4883515"><ele>110.0</ele><time>2026-05-03T09:17:54.144Z</time></trkpt><trkpt lat="45.9972732" lon="13.4883361"><ele>110.0</ele><time>2026-05-03T09:17:56.144Z</time></trkpt><trkpt lat="45.997365" lon="13.4883673"><ele>109.99999999999999</ele><time>2026-05-03T09:17:58.143Z</time></trkpt><trkpt lat="45.9974789" lon="13.4884254"><ele>110.0</ele><time>2026-05-03T09:18:00.143Z</time></trkpt><trkpt lat="45.9975783" lon="13.4884861"><ele>107.4</ele><time>2026-05-03T09:18:02.143Z</time></trkpt><trkpt lat="45.997674" lon="13.4885337"><ele>104.8</ele><time>2026-05-03T09:18:04.143Z</time></trkpt><trkpt lat="45.9977946" lon="13.4885407"><ele>102.19999999999999</ele><time>2026-05-03T09:18:06.143Z</time></trkpt><trkpt lat="45.9979284" lon="13.4885372"><ele>99.6</ele><time>2026-05-03T09:18:08.143Z</time></trkpt><trkpt lat="45.9979956" lon="13.4885305"><ele>97.0</ele><time>2026-05-03T09:18:09.142Z</time></trkpt><trkpt lat="45.9980628" lon="13.4885266"><ele>97.0</ele><time>2026-05-03T09:18:10.143Z</time></trkpt><trkpt lat="45.9981695" lon="13.4885255"><ele>97.0</ele><time>2026-05-03T09:18:12.143Z</time></trkpt><trkpt lat="45.9982619" lon="13.4884404"><ele>97.0</ele><time>2026-05-03T09:18:14.143Z</time></trkpt><trkpt lat="45.9983444" lon="13.4883648"><ele>97.0</ele><time>2026-05-03T09:18:16.143Z</time></trkpt><trkpt lat="45.99845" lon="13.4882874"><ele>97.0</ele><time>2026-05-03T09:18:18.143Z</time></trkpt><trkpt lat="45.9985379" lon="13.4882188"><ele>93.6</ele><time>2026-05-03T09:18:20.143Z</time></trkpt><trkpt lat="45.9986377" lon="13.4882208"><ele>90.19999999999999</ele><time>2026-05-03T09:18:22.143Z</time></trkpt><trkpt lat="45.9987012" lon="13.4882406"><ele>86.8</ele><time>2026-05-03T09:18:23.143Z</time></trkpt><trkpt lat="45.9988069" lon="13.4882676"><ele>83.4</ele><time>2026-05-03T09:18:25.143Z</time></trkpt><trkpt lat="45.9989045" lon="13.4882753"><ele>80.0</ele><time>2026-05-03T09:18:27.143Z</time></trkpt><trkpt lat="45.9990112" lon="13.488332"><ele>80.0</ele><time>2026-05-03T09:18:29.142Z</time></trkpt><trkpt lat="45.9990675" lon="13.4883802"><ele>80.0</ele><time>2026-05-03T09:18:30.143Z</time></trkpt><trkpt lat="45.9991188" lon="13.4884362"><ele>80.0</ele><time>2026-05-03T09:18:31.143Z</time></trkpt><trkpt lat="45.9991667" lon="13.4885006"><ele>80.0</ele><time>2026-05-03T09:18:32.143Z</time></trkpt><trkpt lat="45.9992403" lon="13.4886135"><ele>80.0</ele><time>2026-05-03T09:18:34.143Z</time></trkpt><trkpt lat="45.9993055" lon="13.4887386"><ele>80.0</ele><time>2026-05-03T09:18:36.143Z</time></trkpt><trkpt lat="45.9993857" lon="13.4888601"><ele>78.83333333333334</ele><time>2026-05-03T09:18:38.143Z</time></trkpt><trkpt lat="45.999431" lon="13.4889347"><ele>77.66666666666667</ele><time>2026-05-03T09:18:39.142Z</time></trkpt><trkpt lat="45.9994856" lon="13.4890342"><ele>76.5</ele><time>2026-05-03T09:18:40.143Z</time></trkpt><trkpt lat="45.9995351" lon="13.4891222"><ele>75.33333333333333</ele><time>2026-05-03T09:18:41.143Z</time></trkpt><trkpt lat="45.9995801" lon="13.4891932"><ele>74.16666666666666</ele><time>2026-05-03T09:18:42.143Z</time></trkpt><trkpt lat="45.9996651" lon="13.4892968"><ele>73.0</ele><time>2026-05-03T09:18:44.143Z</time></trkpt><trkpt lat="45.99974" lon="13.4893525"><ele>73.0</ele><time>2026-05-03T09:18:46.143Z</time></trkpt><trkpt lat="45.9998158" lon="13.4893763"><ele>73.0</ele><time>2026-05-03T09:18:48.143Z</time></trkpt><trkpt lat="45.999925" lon="13.48944"><ele>73.0</ele><time>2026-05-03T09:18:50.142Z</time></trkpt><trkpt lat="45.999991" lon="13.4894743"><ele>73.0</ele><time>2026-05-03T09:18:51.143Z</time></trkpt><trkpt lat="46.0000711" lon="13.4895161"><ele>73.0</ele><time>2026-05-03T09:18:52.142Z</time></trkpt><trkpt lat="46.0001584" lon="13.4895589"><ele>73.0</ele><time>2026-05-03T09:18:53.143Z</time></trkpt><trkpt lat="46.0002503" lon="13.4895999"><ele>73.2</ele><time>2026-05-03T09:18:54.143Z</time></trkpt><trkpt lat="46.0003426" lon="13.4896453"><ele>73.4</ele><time>2026-05-03T09:18:55.143Z</time></trkpt><trkpt lat="46.0004329" lon="13.4896871"><ele>73.60000000000001</ele><time>2026-05-03T09:18:56.143Z</time></trkpt><trkpt lat="46.0005185" lon="13.489737"><ele>73.8</ele><time>2026-05-03T09:18:57.143Z</time></trkpt><trkpt lat="46.0006" lon="13.4897767"><ele>74.0</ele><time>2026-05-03T09:18:58.142Z</time></trkpt><trkpt lat="46.0006794" lon="13.4898232"><ele>74.0</ele><time>2026-05-03T09:18:59.142Z</time></trkpt><trkpt lat="46.0007654" lon="13.4898734"><ele>74.0</ele><time>2026-05-03T09:19:00.142Z</time></trkpt><trkpt lat="46.000852" lon="13.4899202"><ele>74.0</ele><time>2026-05-03T09:19:01.143Z</time></trkpt><trkpt lat="46.0009383" lon="13.4899666"><ele>74.0</ele><time>2026-05-03T09:19:02.143Z</time></trkpt><trkpt lat="46.0010245" lon="13.4900124"><ele>74.0</ele><time>2026-05-03T09:19:03.143Z</time></trkpt><trkpt lat="46.0011122" lon="13.4900602"><ele>74.4</ele><time>2026-05-03T09:19:04.143Z</time></trkpt><trkpt lat="46.0012021" lon="13.4901071"><ele>74.80000000000001</ele><time>2026-05-03T09:19:05.143Z</time></trkpt><trkpt lat="46.0012899" lon="13.490151"><ele>75.19999999999999</ele><time>2026-05-03T09:19:06.142Z</time></trkpt><trkpt lat="46.0013753" lon="13.4902001"><ele>75.6</ele><time>2026-05-03T09:19:07.143Z</time></trkpt><trkpt lat="46.0014582" lon="13.490244"><ele>76.0</ele><time>2026-05-03T09:19:08.143Z</time></trkpt><trkpt lat="46.0015415" lon="13.4902866"><ele>76.0</ele><time>2026-05-03T09:19:09.143Z</time></trkpt><trkpt lat="46.0016217" lon="13.4903284"><ele>76.0</ele><time>2026-05-03T09:19:10.143Z</time></trkpt><trkpt lat="46.0017025" lon="13.4903667"><ele>76.0</ele><time>2026-05-03T09:19:11.142Z</time></trkpt><trkpt lat="46.0017791" lon="13.4904066"><ele>76.0</ele><time>2026-05-03T09:19:12.143Z</time></trkpt><trkpt lat="46.0018417" lon="13.4904475"><ele>76.0</ele><time>2026-05-03T09:19:13.142Z</time></trkpt><trkpt lat="46.0019365" lon="13.4905243"><ele>76.0</ele><time>2026-05-03T09:19:15.143Z</time></trkpt><trkpt lat="46.0019946" lon="13.4905674"><ele>76.0</ele><time>2026-05-03T09:19:17.143Z</time></trkpt><trkpt lat="46.0020723" lon="13.4905473"><ele>76.0</ele><time>2026-05-03T09:19:45.143Z</time></trkpt><trkpt lat="46.0021064" lon="13.4903979"><ele>76.0</ele><time>2026-05-03T09:19:47.143Z</time></trkpt><trkpt lat="46.0021146" lon="13.4902977"><ele>76.0</ele><time>2026-05-03T09:19:48.143Z</time></trkpt><trkpt lat="46.0021327" lon="13.4901836"><ele>76.0</ele><time>2026-05-03T09:19:49.143Z</time></trkpt><trkpt lat="46.0021501" lon="13.4900531"><ele>76.0</ele><time>2026-05-03T09:19:50.143Z</time></trkpt><trkpt lat="46.0021859" lon="13.489913"><ele>76.0</ele><time>2026-05-03T09:19:51.142Z</time></trkpt><trkpt lat="46.0022299" lon="13.4897732"><ele>76.0</ele><time>2026-05-03T09:19:52.143Z</time></trkpt><trkpt lat="46.0022825" lon="13.4896255"><ele>76.0</ele><time>2026-05-03T09:19:53.143Z</time></trkpt><trkpt lat="46.0023427" lon="13.4894601"><ele>76.0</ele><time>2026-05-03T09:19:54.143Z</time></trkpt><trkpt lat="46.0024006" lon="13.4892869"><ele>76.0</ele><time>2026-05-03T09:19:55.142Z</time></trkpt><trkpt lat="46.0024513" lon="13.4890953"><ele>76.0</ele><time>2026-05-03T09:19:56.142Z</time></trkpt><trkpt lat="46.0024968" lon="13.4888917"><ele>76.0</ele><time>2026-05-03T09:19:57.143Z</time></trkpt><trkpt lat="46.0025361" lon="13.4886877"><ele>76.0</ele><time>2026-05-03T09:19:58.143Z</time></trkpt><trkpt lat="46.0025736" lon="13.488485"><ele>75.75</ele><time>2026-05-03T09:19:59.143Z</time></trkpt><trkpt lat="46.0026138" lon="13.488294"><ele>75.5</ele><time>2026-05-03T09:20:00.143Z</time></trkpt><trkpt lat="46.0026645" lon="13.4880976"><ele>75.25</ele><time>2026-05-03T09:20:01.142Z</time></trkpt><trkpt lat="46.0027212" lon="13.4879063"><ele>75.0</ele><time>2026-05-03T09:20:02.143Z</time></trkpt><trkpt lat="46.0027893" lon="13.487721"><ele>75.0</ele><time>2026-05-03T09:20:03.142Z</time></trkpt><trkpt lat="46.0028651" lon="13.4875375"><ele>75.0</ele><time>2026-05-03T09:20:04.143Z</time></trkpt><trkpt lat="46.0029466" lon="13.487364"><ele>75.0</ele><time>2026-05-03T09:20:05.143Z</time></trkpt><trkpt lat="46.0030318" lon="13.4872092"><ele>75.0</ele><time>2026-05-03T09:20:06.142Z</time></trkpt><trkpt lat="46.0031268" lon="13.4870656"><ele>74.25</ele><time>2026-05-03T09:20:07.143Z</time></trkpt><trkpt lat="46.0032245" lon="13.4869247"><ele>73.5</ele><time>2026-05-03T09:20:08.142Z</time></trkpt><trkpt lat="46.0033285" lon="13.4867844"><ele>72.75</ele><time>2026-05-03T09:20:09.143Z</time></trkpt><trkpt lat="46.0034226" lon="13.4866358"><ele>72.0</ele><time>2026-05-03T09:20:10.142Z</time></trkpt><trkpt lat="46.0035109" lon="13.4864708"><ele>73.0</ele><time>2026-05-03T09:20:11.143Z</time></trkpt><trkpt lat="46.0035883" lon="13.4862905"><ele>74.0</ele><time>2026-05-03T09:20:12.142Z</time></trkpt><trkpt lat="46.0036544" lon="13.4860983"><ele>75.0</ele><time>2026-05-03T09:20:13.143Z</time></trkpt><trkpt lat="46.0037157" lon="13.4858936"><ele>75.0</ele><time>2026-05-03T09:20:14.143Z</time></trkpt><trkpt lat="46.0037705" lon="13.4856803"><ele>75.0</ele><time>2026-05-03T09:20:15.143Z</time></trkpt><trkpt lat="46.0038257" lon="13.485464"><ele>75.0</ele><time>2026-05-03T09:20:16.143Z</time></trkpt><trkpt lat="46.003883" lon="13.485251"><ele>74.33333333333333</ele><time>2026-05-03T09:20:17.143Z</time></trkpt><trkpt lat="46.0039457" lon="13.4850512"><ele>73.66666666666666</ele><time>2026-05-03T09:20:18.143Z</time></trkpt><trkpt lat="46.0040131" lon="13.4848529"><ele>73.0</ele><time>2026-05-03T09:20:19.142Z</time></trkpt><trkpt lat="46.0040794" lon="13.4846644"><ele>73.0</ele><time>2026-05-03T09:20:20.142Z</time></trkpt><trkpt lat="46.0041536" lon="13.4844873"><ele>73.0</ele><time>2026-05-03T09:20:21.142Z</time></trkpt><trkpt lat="46.0042379" lon="13.4843258"><ele>73.0</ele><time>2026-05-03T09:20:22.143Z</time></trkpt><trkpt lat="46.0043252" lon="13.4841746"><ele>73.0</ele><time>2026-05-03T09:20:23.142Z</time></trkpt><trkpt lat="46.004402" lon="13.4840189"><ele>73.0</ele><time>2026-05-03T09:20:24.143Z</time></trkpt><trkpt lat="46.0044619" lon="13.4838514"><ele>73.0</ele><time>2026-05-03T09:20:25.143Z</time></trkpt><trkpt lat="46.0045099" lon="13.4836753"><ele>73.0</ele><time>2026-05-03T09:20:26.142Z</time></trkpt><trkpt lat="46.004537" lon="13.4834917"><ele>73.0</ele><time>2026-05-03T09:20:27.142Z</time></trkpt><trkpt lat="46.0045518" lon="13.483311"><ele>73.0</ele><time>2026-05-03T09:20:28.142Z</time></trkpt><trkpt lat="46.0045561" lon="13.4831284"><ele>73.0</ele><time>2026-05-03T09:20:29.143Z</time></trkpt><trkpt lat="46.0045533" lon="13.4829302"><ele>73.0</ele><time>2026-05-03T09:20:30.143Z</time></trkpt><trkpt lat="46.0045402" lon="13.4827188"><ele>73.0</ele><time>2026-05-03T09:20:31.143Z</time></trkpt><trkpt lat="46.0045307" lon="13.4825065"><ele>73.0</ele><time>2026-05-03T09:20:32.143Z</time></trkpt><trkpt lat="46.0045201" lon="13.4822913"><ele>73.0</ele><time>2026-05-03T09:20:33.142Z</time></trkpt><trkpt lat="46.0045121" lon="13.4820703"><ele>73.0</ele><time>2026-05-03T09:20:34.143Z</time></trkpt><trkpt lat="46.0045027" lon="13.4818489"><ele>73.0</ele><time>2026-05-03T09:20:35.143Z</time></trkpt><trkpt lat="46.0044903" lon="13.4816286"><ele>73.0</ele><time>2026-05-03T09:20:36.143Z</time></trkpt><trkpt lat="46.004479" lon="13.4814063"><ele>73.0</ele><time>2026-05-03T09:20:37.143Z</time></trkpt><trkpt lat="46.0044787" lon="13.481187"><ele>73.0</ele><time>2026-05-03T09:20:38.143Z</time></trkpt><trkpt lat="46.0044939" lon="13.4809686"><ele>73.0</ele><time>2026-05-03T09:20:39.143Z</time></trkpt><trkpt lat="46.0045131" lon="13.4807569"><ele>73.0</ele><time>2026-05-03T09:20:40.143Z</time></trkpt><trkpt lat="46.0045259" lon="13.4805488"><ele>73.0</ele><time>2026-05-03T09:20:41.143Z</time></trkpt><trkpt lat="46.0045229" lon="13.4803416"><ele>72.5</ele><time>2026-05-03T09:20:42.142Z</time></trkpt><trkpt lat="46.004508" lon="13.4801364"><ele>72.0</ele><time>2026-05-03T09:20:43.143Z</time></trkpt><trkpt lat="46.0044838" lon="13.4799557"><ele>71.5</ele><time>2026-05-03T09:20:44.143Z</time></trkpt><trkpt lat="46.0044474" lon="13.4797867"><ele>71.0</ele><time>2026-05-03T09:20:45.143Z</time></trkpt><trkpt lat="46.0044097" lon="13.4796234"><ele>71.5</ele><time>2026-05-03T09:20:46.143Z</time></trkpt><trkpt lat="46.0043737" lon="13.4794601"><ele>72.0</ele><time>2026-05-03T09:20:47.143Z</time></trkpt><trkpt lat="46.0043403" lon="13.4792979"><ele>72.5</ele><time>2026-05-03T09:20:48.142Z</time></trkpt><trkpt lat="46.0043089" lon="13.4791356"><ele>73.0</ele><time>2026-05-03T09:20:49.142Z</time></trkpt><trkpt lat="46.0042859" lon="13.4789716"><ele>73.0</ele><time>2026-05-03T09:20:50.143Z</time></trkpt><trkpt lat="46.0042722" lon="13.4788053"><ele>73.0</ele><time>2026-05-03T09:20:51.143Z</time></trkpt><trkpt lat="46.0042634" lon="13.4786382"><ele>73.0</ele><time>2026-05-03T09:20:52.143Z</time></trkpt><trkpt lat="46.004254" lon="13.4784652"><ele>73.0</ele><time>2026-05-03T09:20:53.143Z</time></trkpt><trkpt lat="46.0042493" lon="13.4783055"><ele>73.2</ele><time>2026-05-03T09:20:54.143Z</time></trkpt><trkpt lat="46.0042321" lon="13.4781591"><ele>73.4</ele><time>2026-05-03T09:20:55.143Z</time></trkpt><trkpt lat="46.0042064" lon="13.4780348"><ele>73.60000000000001</ele><time>2026-05-03T09:20:56.143Z</time></trkpt><trkpt lat="46.0041689" lon="13.4779221"><ele>73.8</ele><time>2026-05-03T09:20:57.142Z</time></trkpt><trkpt lat="46.004128" lon="13.4778117"><ele>74.0</ele><time>2026-05-03T09:20:58.143Z</time></trkpt><trkpt lat="46.0040888" lon="13.4776979"><ele>73.5</ele><time>2026-05-03T09:20:59.143Z</time></trkpt><trkpt lat="46.0040523" lon="13.4775845"><ele>73.0</ele><time>2026-05-03T09:21:00.142Z</time></trkpt><trkpt lat="46.0040197" lon="13.477481"><ele>72.5</ele><time>2026-05-03T09:21:01.143Z</time></trkpt><trkpt lat="46.0039627" lon="13.4773422"><ele>72.0</ele><time>2026-05-03T09:21:03.143Z</time></trkpt><trkpt lat="46.0039283" lon="13.4772573"><ele>71.5</ele><time>2026-05-03T09:21:05.143Z</time></trkpt><trkpt lat="46.0038842" lon="13.4771548"><ele>71.0</ele><time>2026-05-03T09:21:08.142Z</time></trkpt><trkpt lat="46.0038238" lon="13.4769835"><ele>71.0</ele><time>2026-05-03T09:21:10.142Z</time></trkpt><trkpt lat="46.0037829" lon="13.4768867"><ele>71.0</ele><time>2026-05-03T09:21:11.143Z</time></trkpt><trkpt lat="46.0037541" lon="13.4767832"><ele>71.0</ele><time>2026-05-03T09:21:12.143Z</time></trkpt><trkpt lat="46.0037367" lon="13.4766639"><ele>71.0</ele><time>2026-05-03T09:21:13.143Z</time></trkpt><trkpt lat="46.0037185" lon="13.476543"><ele>71.0</ele><time>2026-05-03T09:21:14.142Z</time></trkpt><trkpt lat="46.0037071" lon="13.4764212"><ele>71.0</ele><time>2026-05-03T09:21:15.142Z</time></trkpt><trkpt lat="46.0037114" lon="13.4763066"><ele>71.0</ele><time>2026-05-03T09:21:16.143Z</time></trkpt><trkpt lat="46.0037186" lon="13.4761958"><ele>71.0</ele><time>2026-05-03T09:21:17.143Z</time></trkpt><trkpt lat="46.0037244" lon="13.4760715"><ele>71.0</ele><time>2026-05-03T09:21:18.143Z</time></trkpt><trkpt lat="46.0037272" lon="13.4759317"><ele>71.0</ele><time>2026-05-03T09:21:19.142Z</time></trkpt><trkpt lat="46.0037346" lon="13.4757782"><ele>71.0</ele><time>2026-05-03T09:21:20.142Z</time></trkpt><trkpt lat="46.0037423" lon="13.4756222"><ele>71.0</ele><time>2026-05-03T09:21:21.143Z</time></trkpt><trkpt lat="46.0037538" lon="13.4754553"><ele>71.0</ele><time>2026-05-03T09:21:22.143Z</time></trkpt><trkpt lat="46.0037582" lon="13.4752919"><ele>71.0</ele><time>2026-05-03T09:21:23.143Z</time></trkpt><trkpt lat="46.0037629" lon="13.4751252"><ele>71.0</ele><time>2026-05-03T09:21:24.143Z</time></trkpt><trkpt lat="46.0037714" lon="13.47496"><ele>71.0</ele><time>2026-05-03T09:21:25.143Z</time></trkpt><trkpt lat="46.0037781" lon="13.474792"><ele>71.0</ele><time>2026-05-03T09:21:26.142Z</time></trkpt><trkpt lat="46.0037818" lon="13.474618"><ele>71.0</ele><time>2026-05-03T09:21:27.143Z</time></trkpt><trkpt lat="46.0037843" lon="13.4744314"><ele>71.0</ele><time>2026-05-03T09:21:28.142Z</time></trkpt><trkpt lat="46.0037885" lon="13.4742396"><ele>71.0</ele><time>2026-05-03T09:21:29.143Z</time></trkpt><trkpt lat="46.0037924" lon="13.4740456"><ele>71.0</ele><time>2026-05-03T09:21:30.143Z</time></trkpt><trkpt lat="46.0037984" lon="13.4738539"><ele>71.0</ele><time>2026-05-03T09:21:31.143Z</time></trkpt><trkpt lat="46.0038054" lon="13.4736664"><ele>71.0</ele><time>2026-05-03T09:21:32.143Z</time></trkpt><trkpt lat="46.0038166" lon="13.4734954"><ele>71.0</ele><time>2026-05-03T09:21:33.142Z</time></trkpt><trkpt lat="46.003822" lon="13.473341"><ele>71.0</ele><time>2026-05-03T09:21:34.143Z</time></trkpt><trkpt lat="46.0038285" lon="13.4731997"><ele>71.0</ele><time>2026-05-03T09:21:35.142Z</time></trkpt><trkpt lat="46.0038352" lon="13.4730655"><ele>71.0</ele><time>2026-05-03T09:21:36.143Z</time></trkpt><trkpt lat="46.0038383" lon="13.4729514"><ele>71.0</ele><time>2026-05-03T09:21:37.143Z</time></trkpt><trkpt lat="46.0038705" lon="13.472857"><ele>70.8</ele><time>2026-05-03T09:21:38.142Z</time></trkpt><trkpt lat="46.0039644" lon="13.4727828"><ele>70.6</ele><time>2026-05-03T09:21:40.143Z</time></trkpt><trkpt lat="46.0040389" lon="13.4728051"><ele>70.4</ele><time>2026-05-03T09:21:41.143Z</time></trkpt><trkpt lat="46.0041259" lon="13.4728443"><ele>70.2</ele><time>2026-05-03T09:21:42.143Z</time></trkpt><trkpt lat="46.0042262" lon="13.4729018"><ele>70.0</ele><time>2026-05-03T09:21:43.143Z</time></trkpt><trkpt lat="46.0043289" lon="13.4729578"><ele>71.0</ele><time>2026-05-03T09:21:44.143Z</time></trkpt><trkpt lat="46.0044372" lon="13.4730146"><ele>72.0</ele><time>2026-05-03T09:21:45.143Z</time></trkpt><trkpt lat="46.0045489" lon="13.4730764"><ele>73.0</ele><time>2026-05-03T09:21:46.143Z</time></trkpt><trkpt lat="46.0046562" lon="13.4731417"><ele>74.0</ele><time>2026-05-03T09:21:47.143Z</time></trkpt><trkpt lat="46.004748" lon="13.4731914"><ele>75.0</ele><time>2026-05-03T09:21:48.142Z</time></trkpt><trkpt lat="46.004839" lon="13.4732028"><ele>75.0</ele><time>2026-05-03T09:21:49.143Z</time></trkpt><trkpt lat="46.0049221" lon="13.4732016"><ele>75.0</ele><time>2026-05-03T09:21:50.143Z</time></trkpt><trkpt lat="46.0050024" lon="13.4732273"><ele>75.0</ele><time>2026-05-03T09:21:51.142Z</time></trkpt><trkpt lat="46.0050891" lon="13.4732694"><ele>75.0</ele><time>2026-05-03T09:21:52.143Z</time></trkpt><trkpt lat="46.0051709" lon="13.4733024"><ele>75.0</ele><time>2026-05-03T09:21:53.142Z</time></trkpt><trkpt lat="46.0052398" lon="13.4733107"><ele>75.0</ele><time>2026-05-03T09:21:54.143Z</time></trkpt><trkpt lat="46.0052968" lon="13.4732717"><ele>75.33333333333333</ele><time>2026-05-03T09:21:55.142Z</time></trkpt><trkpt lat="46.0053697" lon="13.4731491"><ele>75.66666666666667</ele><time>2026-05-03T09:21:57.143Z</time></trkpt><trkpt lat="46.0053939" lon="13.4730641"><ele>76.0</ele><time>2026-05-03T09:21:58.143Z</time></trkpt><trkpt lat="46.0054138" lon="13.4729546"><ele>76.33333333333334</ele><time>2026-05-03T09:21:59.143Z</time></trkpt><trkpt lat="46.0054364" lon="13.4728364"><ele>76.66666666666667</ele><time>2026-05-03T09:22:00.143Z</time></trkpt><trkpt lat="46.0054725" lon="13.4727247"><ele>77.0</ele><time>2026-05-03T09:22:01.142Z</time></trkpt><trkpt lat="46.0055177" lon="13.4726104"><ele>77.0</ele><time>2026-05-03T09:22:02.143Z</time></trkpt><trkpt lat="46.0055761" lon="13.472508"><ele>77.0</ele><time>2026-05-03T09:22:03.143Z</time></trkpt><trkpt lat="46.0056315" lon="13.4724146"><ele>77.0</ele><time>2026-05-03T09:22:04.141Z</time></trkpt><trkpt lat="46.0056928" lon="13.4723286"><ele>77.0</ele><time>2026-05-03T09:22:05.141Z</time></trkpt><trkpt lat="46.0057601" lon="13.4722296"><ele>77.0</ele><time>2026-05-03T09:22:06.142Z</time></trkpt><trkpt lat="46.0058254" lon="13.4721346"><ele>79.0</ele><time>2026-05-03T09:22:07.142Z</time></trkpt><trkpt lat="46.0058785" lon="13.4720574"><ele>81.0</ele><time>2026-05-03T09:22:08.142Z</time></trkpt><trkpt lat="46.0059368" lon="13.4719843"><ele>83.0</ele><time>2026-05-03T09:22:09.142Z</time></trkpt><trkpt lat="46.0059943" lon="13.4719177"><ele>85.0</ele><time>2026-05-03T09:22:10.142Z</time></trkpt><trkpt lat="46.0060495" lon="13.471861"><ele>87.0</ele><time>2026-05-03T09:22:11.142Z</time></trkpt><trkpt lat="46.0061115" lon="13.4718214"><ele>89.0</ele><time>2026-05-03T09:22:12.142Z</time></trkpt><trkpt lat="46.0061802" lon="13.4717917"><ele>91.0</ele><time>2026-05-03T09:22:13.141Z</time></trkpt><trkpt lat="46.0062633" lon="13.4717724"><ele>91.0</ele><time>2026-05-03T09:22:14.142Z</time></trkpt><trkpt lat="46.0063529" lon="13.4717679"><ele>91.0</ele><time>2026-05-03T09:22:15.142Z</time></trkpt><trkpt lat="46.0064394" lon="13.4717643"><ele>91.0</ele><time>2026-05-03T09:22:16.142Z</time></trkpt><trkpt lat="46.0065317" lon="13.4717584"><ele>91.0</ele><time>2026-05-03T09:22:17.142Z</time></trkpt><trkpt lat="46.0066193" lon="13.4717372"><ele>91.0</ele><time>2026-05-03T09:22:18.142Z</time></trkpt><trkpt lat="46.0066998" lon="13.4717053"><ele>91.0</ele><time>2026-05-03T09:22:19.142Z</time></trkpt><trkpt lat="46.0067739" lon="13.4716647"><ele>92.0</ele><time>2026-05-03T09:22:20.142Z</time></trkpt><trkpt lat="46.0068353" lon="13.471619"><ele>93.0</ele><time>2026-05-03T09:22:21.142Z</time></trkpt><trkpt lat="46.0068876" lon="13.4715682"><ele>94.0</ele><time>2026-05-03T09:22:22.141Z</time></trkpt><trkpt lat="46.0069432" lon="13.4715067"><ele>95.0</ele><time>2026-05-03T09:22:23.142Z</time></trkpt><trkpt lat="46.0069934" lon="13.4714349"><ele>96.0</ele><time>2026-05-03T09:22:24.141Z</time></trkpt><trkpt lat="46.007036" lon="13.4713647"><ele>97.0</ele><time>2026-05-03T09:22:25.142Z</time></trkpt><trkpt lat="46.0070764" lon="13.4712797"><ele>98.0</ele><time>2026-05-03T09:22:26.142Z</time></trkpt><trkpt lat="46.0071258" lon="13.4711898"><ele>100.16666666666666</ele><time>2026-05-03T09:22:27.142Z</time></trkpt><trkpt lat="46.007171" lon="13.4710903"><ele>102.33333333333333</ele><time>2026-05-03T09:22:28.142Z</time></trkpt><trkpt lat="46.0072167" lon="13.4709803"><ele>104.5</ele><time>2026-05-03T09:22:29.142Z</time></trkpt><trkpt lat="46.0072642" lon="13.4708702"><ele>106.66666666666666</ele><time>2026-05-03T09:22:30.142Z</time></trkpt><trkpt lat="46.0073188" lon="13.4707593"><ele>108.83333333333333</ele><time>2026-05-03T09:22:31.142Z</time></trkpt><trkpt lat="46.0073756" lon="13.4706759"><ele>111.0</ele><time>2026-05-03T09:22:32.142Z</time></trkpt><trkpt lat="46.007434" lon="13.4706019"><ele>111.0</ele><time>2026-05-03T09:22:33.142Z</time></trkpt><trkpt lat="46.0075061" lon="13.4705495"><ele>111.0</ele><time>2026-05-03T09:22:34.141Z</time></trkpt><trkpt lat="46.0075903" lon="13.4705168"><ele>111.0</ele><time>2026-05-03T09:22:35.142Z</time></trkpt><trkpt lat="46.0076761" lon="13.4705028"><ele>111.0</ele><time>2026-05-03T09:22:36.141Z</time></trkpt><trkpt lat="46.0077708" lon="13.4705014"><ele>111.0</ele><time>2026-05-03T09:22:37.142Z</time></trkpt><trkpt lat="46.0078617" lon="13.4704953"><ele>111.0</ele><time>2026-05-03T09:22:38.142Z</time></trkpt><trkpt lat="46.0079526" lon="13.4705015"><ele>111.0</ele><time>2026-05-03T09:22:39.142Z</time></trkpt><trkpt lat="46.0080279" lon="13.4705089"><ele>111.0</ele><time>2026-05-03T09:22:40.141Z</time></trkpt><trkpt lat="46.0080902" lon="13.4705301"><ele>111.0</ele><time>2026-05-03T09:22:41.142Z</time></trkpt><trkpt lat="46.0081872" lon="13.4705821"><ele>111.0</ele><time>2026-05-03T09:22:43.141Z</time></trkpt><trkpt lat="46.0082724" lon="13.4706327"><ele>111.0</ele><time>2026-05-03T09:22:45.142Z</time></trkpt><trkpt lat="46.0083776" lon="13.4707005"><ele>111.5</ele><time>2026-05-03T09:22:47.142Z</time></trkpt><trkpt lat="46.008439" lon="13.470741"><ele>112.0</ele><time>2026-05-03T09:22:48.141Z</time></trkpt><trkpt lat="46.0085022" lon="13.4707813"><ele>112.5</ele><time>2026-05-03T09:22:49.142Z</time></trkpt><trkpt lat="46.0085704" lon="13.4708334"><ele>113.0</ele><time>2026-05-03T09:22:50.141Z</time></trkpt><trkpt lat="46.0086451" lon="13.4708909"><ele>113.5</ele><time>2026-05-03T09:22:51.142Z</time></trkpt><trkpt lat="46.0087221" lon="13.4709512"><ele>114.0</ele><time>2026-05-03T09:22:52.142Z</time></trkpt><trkpt lat="46.0088017" lon="13.4710171"><ele>114.0</ele><time>2026-05-03T09:22:53.141Z</time></trkpt><trkpt lat="46.0088794" lon="13.4710821"><ele>114.0</ele><time>2026-05-03T09:22:54.141Z</time></trkpt><trkpt lat="46.0089622" lon="13.4711499"><ele>114.0</ele><time>2026-05-03T09:22:55.142Z</time></trkpt><trkpt lat="46.0090471" lon="13.4712201"><ele>114.0</ele><time>2026-05-03T09:22:56.142Z</time></trkpt><trkpt lat="46.0091322" lon="13.471283"><ele>114.0</ele><time>2026-05-03T09:22:57.141Z</time></trkpt><trkpt lat="46.0092187" lon="13.4713419"><ele>114.2</ele><time>2026-05-03T09:22:58.142Z</time></trkpt><trkpt lat="46.0093072" lon="13.4713929"><ele>114.4</ele><time>2026-05-03T09:22:59.142Z</time></trkpt><trkpt lat="46.0093949" lon="13.4714449"><ele>114.6</ele><time>2026-05-03T09:23:00.141Z</time></trkpt><trkpt lat="46.0094836" lon="13.4715108"><ele>114.8</ele><time>2026-05-03T09:23:01.142Z</time></trkpt><trkpt lat="46.0095665" lon="13.4715904"><ele>115.0</ele><time>2026-05-03T09:23:02.141Z</time></trkpt><trkpt lat="46.0096515" lon="13.471671"><ele>115.0</ele><time>2026-05-03T09:23:03.141Z</time></trkpt><trkpt lat="46.0097364" lon="13.471754"><ele>115.0</ele><time>2026-05-03T09:23:04.142Z</time></trkpt><trkpt lat="46.0098177" lon="13.4718527"><ele>115.0</ele><time>2026-05-03T09:23:05.141Z</time></trkpt><trkpt lat="46.009898" lon="13.4719533"><ele>115.0</ele><time>2026-05-03T09:23:06.142Z</time></trkpt><trkpt lat="46.0099817" lon="13.4720523"><ele>115.0</ele><time>2026-05-03T09:23:07.142Z</time></trkpt><trkpt lat="46.0100652" lon="13.4721479"><ele>115.2</ele><time>2026-05-03T09:23:08.142Z</time></trkpt><trkpt lat="46.0101408" lon="13.4722354"><ele>115.4</ele><time>2026-05-03T09:23:09.141Z</time></trkpt><trkpt lat="46.0102091" lon="13.4723257"><ele>115.6</ele><time>2026-05-03T09:23:10.142Z</time></trkpt><trkpt lat="46.0102749" lon="13.4724161"><ele>115.8</ele><time>2026-05-03T09:23:11.142Z</time></trkpt><trkpt lat="46.0103377" lon="13.4725072"><ele>116.0</ele><time>2026-05-03T09:23:12.141Z</time></trkpt><trkpt lat="46.0103895" lon="13.4726097"><ele>115.99999999999999</ele><time>2026-05-03T09:23:13.142Z</time></trkpt><trkpt lat="46.0104316" lon="13.4727193"><ele>116.0</ele><time>2026-05-03T09:23:14.142Z</time></trkpt><trkpt lat="46.0104601" lon="13.4728219"><ele>116.0</ele><time>2026-05-03T09:23:15.142Z</time></trkpt><trkpt lat="46.0104878" lon="13.472916"><ele>116.0</ele><time>2026-05-03T09:23:16.142Z</time></trkpt><trkpt lat="46.010527" lon="13.4729949"><ele>115.99999999999999</ele><time>2026-05-03T09:23:17.142Z</time></trkpt><trkpt lat="46.0106134" lon="13.4730714"><ele>116.0</ele><time>2026-05-03T09:23:19.141Z</time></trkpt><trkpt lat="46.0107228" lon="13.4730862"><ele>115.85714285714288</ele><time>2026-05-03T09:23:21.142Z</time></trkpt><trkpt lat="46.0107927" lon="13.4730925"><ele>115.71428571428572</ele><time>2026-05-03T09:23:22.142Z</time></trkpt><trkpt lat="46.0108647" lon="13.4731015"><ele>115.57142857142857</ele><time>2026-05-03T09:23:23.142Z</time></trkpt><trkpt lat="46.0109289" lon="13.4731159"><ele>115.42857142857143</ele><time>2026-05-03T09:23:24.142Z</time></trkpt><trkpt lat="46.0110001" lon="13.4731443"><ele>115.28571428571428</ele><time>2026-05-03T09:23:25.142Z</time></trkpt><trkpt lat="46.0110712" lon="13.4731887"><ele>115.14285714285712</ele><time>2026-05-03T09:23:26.142Z</time></trkpt><trkpt lat="46.0111444" lon="13.4732415"><ele>114.99999999999999</ele><time>2026-05-03T09:23:27.141Z</time></trkpt><trkpt lat="46.0112153" lon="13.4733175"><ele>115.0</ele><time>2026-05-03T09:23:28.142Z</time></trkpt><trkpt lat="46.0112906" lon="13.4734112"><ele>115.0</ele><time>2026-05-03T09:23:29.141Z</time></trkpt><trkpt lat="46.0113689" lon="13.4735183"><ele>115.0</ele><time>2026-05-03T09:23:30.141Z</time></trkpt><trkpt lat="46.0114507" lon="13.4736282"><ele>115.0</ele><time>2026-05-03T09:23:31.142Z</time></trkpt><trkpt lat="46.0115347" lon="13.4737402"><ele>115.0</ele><time>2026-05-03T09:23:32.142Z</time></trkpt><trkpt lat="46.011614" lon="13.4738488"><ele>115.0</ele><time>2026-05-03T09:23:33.141Z</time></trkpt><trkpt lat="46.0116909" lon="13.4739543"><ele>115.0</ele><time>2026-05-03T09:23:34.142Z</time></trkpt><trkpt lat="46.0117711" lon="13.4740661"><ele>115.0</ele><time>2026-05-03T09:23:35.142Z</time></trkpt><trkpt lat="46.0118536" lon="13.474177"><ele>115.0</ele><time>2026-05-03T09:23:36.142Z</time></trkpt><trkpt lat="46.0119315" lon="13.4742753"><ele>115.0</ele><time>2026-05-03T09:23:37.141Z</time></trkpt><trkpt lat="46.0120007" lon="13.4743607"><ele>115.00000000000001</ele><time>2026-05-03T09:23:38.141Z</time></trkpt><trkpt lat="46.0120583" lon="13.474435"><ele>115.0</ele><time>2026-05-03T09:23:39.141Z</time></trkpt><trkpt lat="46.01214" lon="13.4745486"><ele>115.0</ele><time>2026-05-03T09:23:41.142Z</time></trkpt><trkpt lat="46.0121859" lon="13.4746272"><ele>115.0</ele><time>2026-05-03T09:23:43.142Z</time></trkpt><trkpt lat="46.012226" lon="13.4747497"><ele>115.00000000000001</ele><time>2026-05-03T09:24:59.142Z</time></trkpt><trkpt lat="46.0122509" lon="13.474875"><ele>115.0</ele><time>2026-05-03T09:25:01.141Z</time></trkpt><trkpt lat="46.0122879" lon="13.4750083"><ele>115.0</ele><time>2026-05-03T09:25:03.142Z</time></trkpt><trkpt lat="46.0123487" lon="13.4751342"><ele>115.0</ele><time>2026-05-03T09:25:05.142Z</time></trkpt><trkpt lat="46.0124573" lon="13.4752209"><ele>115.0</ele><time>2026-05-03T09:25:07.141Z</time></trkpt><trkpt lat="46.0125282" lon="13.4752682"><ele>115.0</ele><time>2026-05-03T09:25:08.142Z</time></trkpt><trkpt lat="46.0126062" lon="13.4753105"><ele>115.0</ele><time>2026-05-03T09:25:09.141Z</time></trkpt><trkpt lat="46.0126831" lon="13.475348"><ele>115.00000000000001</ele><time>2026-05-03T09:25:10.142Z</time></trkpt><trkpt lat="46.0127582" lon="13.475387"><ele>115.0</ele><time>2026-05-03T09:25:11.142Z</time></trkpt><trkpt lat="46.0128336" lon="13.4754299"><ele>115.0</ele><time>2026-05-03T09:25:12.141Z</time></trkpt><trkpt lat="46.0129025" lon="13.4754774"><ele>115.0</ele><time>2026-05-03T09:25:13.142Z</time></trkpt><trkpt lat="46.0129684" lon="13.4755267"><ele>115.00000000000001</ele><time>2026-05-03T09:25:14.142Z</time></trkpt><trkpt lat="46.0130383" lon="13.4755688"><ele>115.0</ele><time>2026-05-03T09:25:15.142Z</time></trkpt><trkpt lat="46.0131105" lon="13.475617"><ele>113.66666666666667</ele><time>2026-05-03T09:25:16.142Z</time></trkpt><trkpt lat="46.0131812" lon="13.4756586"><ele>112.33333333333334</ele><time>2026-05-03T09:25:17.142Z</time></trkpt><trkpt lat="46.0132542" lon="13.4756991"><ele>111.0</ele><time>2026-05-03T09:25:18.142Z</time></trkpt><trkpt lat="46.0133316" lon="13.4757374"><ele>109.66666666666666</ele><time>2026-05-03T09:25:19.141Z</time></trkpt><trkpt lat="46.0134152" lon="13.4757716"><ele>108.33333333333333</ele><time>2026-05-03T09:25:20.142Z</time></trkpt><trkpt lat="46.0135017" lon="13.475799"><ele>107.0</ele><time>2026-05-03T09:25:21.142Z</time></trkpt><trkpt lat="46.0135878" lon="13.4758329"><ele>106.83333333333333</ele><time>2026-05-03T09:25:22.142Z</time></trkpt><trkpt lat="46.013668" lon="13.4758808"><ele>106.66666666666666</ele><time>2026-05-03T09:25:23.141Z</time></trkpt><trkpt lat="46.0137502" lon="13.4759576"><ele>106.5</ele><time>2026-05-03T09:25:24.141Z</time></trkpt><trkpt lat="46.0138102" lon="13.4760589"><ele>106.33333333333334</ele><time>2026-05-03T09:25:25.142Z</time></trkpt><trkpt lat="46.0138463" lon="13.4761696"><ele>106.16666666666667</ele><time>2026-05-03T09:25:26.141Z</time></trkpt><trkpt lat="46.0138473" lon="13.4762689"><ele>106.0</ele><time>2026-05-03T09:25:27.142Z</time></trkpt><trkpt lat="46.0138414" lon="13.4763783"><ele>105.50000000000001</ele><time>2026-05-03T09:25:28.142Z</time></trkpt><trkpt lat="46.0138326" lon="13.4765013"><ele>105.0</ele><time>2026-05-03T09:25:29.142Z</time></trkpt><trkpt lat="46.0138249" lon="13.4766361"><ele>104.5</ele><time>2026-05-03T09:25:30.142Z</time></trkpt><trkpt lat="46.0138313" lon="13.4767635"><ele>104.0</ele><time>2026-05-03T09:25:31.142Z</time></trkpt><trkpt lat="46.0138441" lon="13.4768832"><ele>103.50000000000001</ele><time>2026-05-03T09:25:32.142Z</time></trkpt><trkpt lat="46.0138628" lon="13.4769955"><ele>103.0</ele><time>2026-05-03T09:25:33.142Z</time></trkpt><trkpt lat="46.0138864" lon="13.4771001"><ele>103.50000000000001</ele><time>2026-05-03T09:25:34.142Z</time></trkpt><trkpt lat="46.013917" lon="13.4771824"><ele>104.0</ele><time>2026-05-03T09:25:35.142Z</time></trkpt><trkpt lat="46.0139652" lon="13.4772603"><ele>104.5</ele><time>2026-05-03T09:25:36.141Z</time></trkpt><trkpt lat="46.0140385" lon="13.477332"><ele>105.0</ele><time>2026-05-03T09:25:37.142Z</time></trkpt><trkpt lat="46.0141153" lon="13.4773968"><ele>105.50000000000001</ele><time>2026-05-03T09:25:38.142Z</time></trkpt><trkpt lat="46.0141969" lon="13.4774569"><ele>106.0</ele><time>2026-05-03T09:25:39.142Z</time></trkpt><trkpt lat="46.0142736" lon="13.4775131"><ele>107.16666666666667</ele><time>2026-05-03T09:25:40.141Z</time></trkpt><trkpt lat="46.014346" lon="13.4775731"><ele>108.33333333333334</ele><time>2026-05-03T09:25:41.142Z</time></trkpt><trkpt lat="46.0144166" lon="13.4776322"><ele>109.5</ele><time>2026-05-03T09:25:42.142Z</time></trkpt><trkpt lat="46.0144332" lon="13.4777228"><ele>110.66666666666666</ele><time>2026-05-03T09:25:43.142Z</time></trkpt><trkpt lat="46.0145079" lon="13.4777549"><ele>111.83333333333333</ele><time>2026-05-03T09:25:44.142Z</time></trkpt><trkpt lat="46.0146021" lon="13.4777992"><ele>113.0</ele><time>2026-05-03T09:25:45.142Z</time></trkpt><trkpt lat="46.0146997" lon="13.4778394"><ele>113.0</ele><time>2026-05-03T09:25:46.142Z</time></trkpt><trkpt lat="46.0147976" lon="13.4778766"><ele>113.0</ele><time>2026-05-03T09:25:47.142Z</time></trkpt><trkpt lat="46.014907" lon="13.4779255"><ele>113.0</ele><time>2026-05-03T09:25:48.141Z</time></trkpt><trkpt lat="46.0150312" lon="13.4779769"><ele>113.0</ele><time>2026-05-03T09:25:49.142Z</time></trkpt><trkpt lat="46.0151669" lon="13.4780314"><ele>112.5</ele><time>2026-05-03T09:25:50.142Z</time></trkpt><trkpt lat="46.0152983" lon="13.478076"><ele>112.0</ele><time>2026-05-03T09:25:51.141Z</time></trkpt><trkpt lat="46.0154309" lon="13.4781249"><ele>111.5</ele><time>2026-05-03T09:25:52.142Z</time></trkpt><trkpt lat="46.0155611" lon="13.4781842"><ele>111.0</ele><time>2026-05-03T09:25:53.141Z</time></trkpt><trkpt lat="46.015679" lon="13.478257"><ele>111.0</ele><time>2026-05-03T09:25:54.142Z</time></trkpt><trkpt lat="46.0157886" lon="13.4783487"><ele>111.0</ele><time>2026-05-03T09:25:55.142Z</time></trkpt><trkpt lat="46.0158479" lon="13.4784625"><ele>111.0</ele><time>2026-05-03T09:25:56.141Z</time></trkpt><trkpt lat="46.0158896" lon="13.4785736"><ele>111.0</ele><time>2026-05-03T09:25:57.142Z</time></trkpt><trkpt lat="46.0159362" lon="13.4786794"><ele>111.0</ele><time>2026-05-03T09:25:58.142Z</time></trkpt><trkpt lat="46.0159969" lon="13.4787943"><ele>112.0</ele><time>2026-05-03T09:25:59.142Z</time></trkpt><trkpt lat="46.0160561" lon="13.478913"><ele>113.0</ele><time>2026-05-03T09:26:00.142Z</time></trkpt><trkpt lat="46.0161161" lon="13.4790365"><ele>114.0</ele><time>2026-05-03T09:26:01.141Z</time></trkpt><trkpt lat="46.0161758" lon="13.4791607"><ele>115.0</ele><time>2026-05-03T09:26:02.141Z</time></trkpt><trkpt lat="46.0162302" lon="13.4792746"><ele>116.0</ele><time>2026-05-03T09:26:03.14Z</time></trkpt><trkpt lat="46.0162784" lon="13.4794103"><ele>116.0</ele><time>2026-05-03T09:26:04.14Z</time></trkpt><trkpt lat="46.0163232" lon="13.4795357"><ele>116.0</ele><time>2026-05-03T09:26:05.14Z</time></trkpt><trkpt lat="46.0163569" lon="13.4796572"><ele>116.0</ele><time>2026-05-03T09:26:06.14Z</time></trkpt><trkpt lat="46.0163758" lon="13.4797853"><ele>116.0</ele><time>2026-05-03T09:26:07.141Z</time></trkpt><trkpt lat="46.0163902" lon="13.4799263"><ele>116.0</ele><time>2026-05-03T09:26:08.14Z</time></trkpt><trkpt lat="46.0163991" lon="13.480061"><ele>115.4</ele><time>2026-05-03T09:26:09.141Z</time></trkpt><trkpt lat="46.0164067" lon="13.4801927"><ele>114.8</ele><time>2026-05-03T09:26:10.14Z</time></trkpt><trkpt lat="46.0164175" lon="13.4803246"><ele>114.20000000000002</ele><time>2026-05-03T09:26:11.141Z</time></trkpt><trkpt lat="46.0164265" lon="13.4804629"><ele>113.60000000000001</ele><time>2026-05-03T09:26:12.14Z</time></trkpt><trkpt lat="46.0164457" lon="13.4805959"><ele>113.0</ele><time>2026-05-03T09:26:13.141Z</time></trkpt><trkpt lat="46.01647" lon="13.480716"><ele>114.33333333333333</ele><time>2026-05-03T09:26:14.141Z</time></trkpt><trkpt lat="46.0165066" lon="13.4808277"><ele>115.66666666666666</ele><time>2026-05-03T09:26:15.14Z</time></trkpt><trkpt lat="46.0165383" lon="13.4809398"><ele>117.0</ele><time>2026-05-03T09:26:16.14Z</time></trkpt><trkpt lat="46.0165708" lon="13.481056"><ele>118.33333333333334</ele><time>2026-05-03T09:26:17.14Z</time></trkpt><trkpt lat="46.0165876" lon="13.481175"><ele>119.66666666666667</ele><time>2026-05-03T09:26:18.141Z</time></trkpt><trkpt lat="46.0165904" lon="13.4812933"><ele>121.0</ele><time>2026-05-03T09:26:19.141Z</time></trkpt><trkpt lat="46.0165783" lon="13.4814162"><ele>123.19999999999999</ele><time>2026-05-03T09:26:20.141Z</time></trkpt><trkpt lat="46.0165555" lon="13.4815481"><ele>125.39999999999999</ele><time>2026-05-03T09:26:21.141Z</time></trkpt><trkpt lat="46.0166171" lon="13.4813697"><ele>127.6</ele><time>2026-05-03T09:26:22.141Z</time></trkpt><trkpt lat="46.0166855" lon="13.4814037"><ele>129.79999999999998</ele><time>2026-05-03T09:26:37.141Z</time></trkpt><trkpt lat="46.0167511" lon="13.4815102"><ele>132.0</ele><time>2026-05-03T09:26:39.14Z</time></trkpt><trkpt lat="46.0167257" lon="13.4816253"><ele>132.4</ele><time>2026-05-03T09:26:41.141Z</time></trkpt><trkpt lat="46.0166212" lon="13.4817787"><ele>132.79999999999998</ele><time>2026-05-03T09:26:43.141Z</time></trkpt><trkpt lat="46.0165498" lon="13.4818355"><ele>133.2</ele><time>2026-05-03T09:26:44.14Z</time></trkpt><trkpt lat="46.0164696" lon="13.4818471"><ele>133.6</ele><time>2026-05-03T09:26:45.141Z</time></trkpt><trkpt lat="46.0163977" lon="13.4818415"><ele>134.0</ele><time>2026-05-03T09:26:46.141Z</time></trkpt><trkpt lat="46.0163167" lon="13.4818096"><ele>134.0</ele><time>2026-05-03T09:26:47.141Z</time></trkpt><trkpt lat="46.0162516" lon="13.4817751"><ele>134.0</ele><time>2026-05-03T09:26:48.141Z</time></trkpt><trkpt lat="46.0163314" lon="13.481826"><ele>134.0</ele><time>2026-05-03T09:26:50.141Z</time></trkpt><trkpt lat="46.0164103" lon="13.4818703"><ele>134.0</ele><time>2026-05-03T09:26:53.141Z</time></trkpt><trkpt lat="46.0164807" lon="13.4819376"><ele>134.0</ele><time>2026-05-03T09:26:54.141Z</time></trkpt><trkpt lat="46.0165339" lon="13.4819875"><ele>134.0</ele><time>2026-05-03T09:26:55.14Z</time></trkpt><trkpt lat="46.0166067" lon="13.4820516"><ele>133.5</ele><time>2026-05-03T09:26:56.141Z</time></trkpt><trkpt lat="46.0166719" lon="13.4821229"><ele>133.0</ele><time>2026-05-03T09:26:57.141Z</time></trkpt><trkpt lat="46.0167311" lon="13.4821876"><ele>132.5</ele><time>2026-05-03T09:26:58.141Z</time></trkpt><trkpt lat="46.0167769" lon="13.4822605"><ele>132.0</ele><time>2026-05-03T09:26:59.14Z</time></trkpt><trkpt lat="46.0168154" lon="13.4823481"><ele>131.5</ele><time>2026-05-03T09:27:00.141Z</time></trkpt><trkpt lat="46.0168572" lon="13.4824498"><ele>131.0</ele><time>2026-05-03T09:27:01.14Z</time></trkpt><trkpt lat="46.0168973" lon="13.482555"><ele>131.0</ele><time>2026-05-03T09:27:02.141Z</time></trkpt><trkpt lat="46.0169187" lon="13.482669"><ele>131.0</ele><time>2026-05-03T09:27:03.14Z</time></trkpt><trkpt lat="46.0169381" lon="13.4827873"><ele>131.0</ele><time>2026-05-03T09:27:04.141Z</time></trkpt><trkpt lat="46.0169521" lon="13.4829056"><ele>131.0</ele><time>2026-05-03T09:27:05.14Z</time></trkpt><trkpt lat="46.016956" lon="13.4830304"><ele>131.0</ele><time>2026-05-03T09:27:06.141Z</time></trkpt><trkpt lat="46.0169595" lon="13.4831548"><ele>131.0</ele><time>2026-05-03T09:27:07.14Z</time></trkpt><trkpt lat="46.0169533" lon="13.4832771"><ele>129.16666666666666</ele><time>2026-05-03T09:27:08.141Z</time></trkpt><trkpt lat="46.016938" lon="13.483395"><ele>127.33333333333333</ele><time>2026-05-03T09:27:09.14Z</time></trkpt><trkpt lat="46.016936" lon="13.4835131"><ele>125.5</ele><time>2026-05-03T09:27:10.141Z</time></trkpt><trkpt lat="46.0169265" lon="13.483636"><ele>123.66666666666666</ele><time>2026-05-03T09:27:11.141Z</time></trkpt><trkpt lat="46.016959" lon="13.483753"><ele>121.83333333333333</ele><time>2026-05-03T09:27:12.141Z</time></trkpt><trkpt lat="46.0169636" lon="13.4839049"><ele>120.0</ele><time>2026-05-03T09:27:13.14Z</time></trkpt><trkpt lat="46.0169636" lon="13.4840406"><ele>119.4</ele><time>2026-05-03T09:27:14.141Z</time></trkpt><trkpt lat="46.0169847" lon="13.4841597"><ele>118.8</ele><time>2026-05-03T09:27:15.141Z</time></trkpt><trkpt lat="46.0169898" lon="13.4842928"><ele>118.19999999999999</ele><time>2026-05-03T09:27:16.141Z</time></trkpt><trkpt lat="46.0169883" lon="13.4844231"><ele>117.6</ele><time>2026-05-03T09:27:17.141Z</time></trkpt><trkpt lat="46.0170093" lon="13.4845521"><ele>117.0</ele><time>2026-05-03T09:27:18.14Z</time></trkpt><trkpt lat="46.0170433" lon="13.4846767"><ele>117.0</ele><time>2026-05-03T09:27:19.14Z</time></trkpt><trkpt lat="46.0170451" lon="13.4848146"><ele>116.99999999999999</ele><time>2026-05-03T09:27:20.14Z</time></trkpt><trkpt lat="46.0170474" lon="13.484961"><ele>116.99999999999999</ele><time>2026-05-03T09:27:21.141Z</time></trkpt><trkpt lat="46.0170514" lon="13.4851102"><ele>117.0</ele><time>2026-05-03T09:27:22.14Z</time></trkpt><trkpt lat="46.0170477" lon="13.485274"><ele>117.0</ele><time>2026-05-03T09:27:23.141Z</time></trkpt><trkpt lat="46.0170923" lon="13.4854368"><ele>116.0</ele><time>2026-05-03T09:27:24.141Z</time></trkpt><trkpt lat="46.0170841" lon="13.4856169"><ele>115.0</ele><time>2026-05-03T09:27:25.141Z</time></trkpt><trkpt lat="46.0170945" lon="13.485793"><ele>114.0</ele><time>2026-05-03T09:27:26.14Z</time></trkpt><trkpt lat="46.0171119" lon="13.4859624"><ele>113.0</ele><time>2026-05-03T09:27:27.141Z</time></trkpt><trkpt lat="46.0171224" lon="13.4861182"><ele>112.99999999999999</ele><time>2026-05-03T09:27:28.14Z</time></trkpt><trkpt lat="46.0171625" lon="13.4862235"><ele>113.0</ele><time>2026-05-03T09:27:29.141Z</time></trkpt><trkpt lat="46.0172167" lon="13.4863158"><ele>113.0</ele><time>2026-05-03T09:27:30.14Z</time></trkpt><trkpt lat="46.0172467" lon="13.4864127"><ele>113.0</ele><time>2026-05-03T09:27:31.141Z</time></trkpt><trkpt lat="46.0172594" lon="13.4865107"><ele>112.99999999999999</ele><time>2026-05-03T09:27:32.141Z</time></trkpt><trkpt lat="46.0172745" lon="13.486677"><ele>113.0</ele><time>2026-05-03T09:27:34.141Z</time></trkpt><trkpt lat="46.0173057" lon="13.4868124"><ele>114.0</ele><time>2026-05-03T09:27:36.14Z</time></trkpt><trkpt lat="46.0174052" lon="13.4869245"><ele>115.00000000000001</ele><time>2026-05-03T09:27:38.14Z</time></trkpt><trkpt lat="46.017477" lon="13.487001"><ele>116.00000000000001</ele><time>2026-05-03T09:27:39.141Z</time></trkpt><trkpt lat="46.0175594" lon="13.487082"><ele>117.0</ele><time>2026-05-03T09:27:40.14Z</time></trkpt><trkpt lat="46.0176513" lon="13.4871642"><ele>118.0</ele><time>2026-05-03T09:27:41.141Z</time></trkpt><trkpt lat="46.0177303" lon="13.4872305"><ele>118.80000000000001</ele><time>2026-05-03T09:27:42.141Z</time></trkpt><trkpt lat="46.0178176" lon="13.4872967"><ele>119.60000000000001</ele><time>2026-05-03T09:27:43.14Z</time></trkpt><trkpt lat="46.0179031" lon="13.487362"><ele>120.39999999999999</ele><time>2026-05-03T09:27:44.141Z</time></trkpt><trkpt lat="46.0179917" lon="13.4874392"><ele>121.19999999999999</ele><time>2026-05-03T09:27:45.141Z</time></trkpt><trkpt lat="46.0180833" lon="13.4875102"><ele>122.0</ele><time>2026-05-03T09:27:46.14Z</time></trkpt><trkpt lat="46.0181858" lon="13.4875786"><ele>121.99999999999999</ele><time>2026-05-03T09:27:47.141Z</time></trkpt><trkpt lat="46.018283" lon="13.4876528"><ele>122.0</ele><time>2026-05-03T09:27:48.14Z</time></trkpt><trkpt lat="46.0183485" lon="13.4877306"><ele>122.0</ele><time>2026-05-03T09:27:49.141Z</time></trkpt><trkpt lat="46.0183912" lon="13.4878081"><ele>122.0</ele><time>2026-05-03T09:27:50.141Z</time></trkpt><trkpt lat="46.0184579" lon="13.4878827"><ele>121.99999999999999</ele><time>2026-05-03T09:27:51.141Z</time></trkpt><trkpt lat="46.01851" lon="13.4879562"><ele>122.0</ele><time>2026-05-03T09:27:52.141Z</time></trkpt><trkpt lat="46.0185679" lon="13.4880168"><ele>122.8</ele><time>2026-05-03T09:27:53.14Z</time></trkpt><trkpt lat="46.0186304" lon="13.4880639"><ele>123.6</ele><time>2026-05-03T09:27:54.141Z</time></trkpt><trkpt lat="46.0186905" lon="13.4880948"><ele>124.39999999999999</ele><time>2026-05-03T09:27:55.14Z</time></trkpt><trkpt lat="46.0188778" lon="13.4881687"><ele>125.19999999999999</ele><time>2026-05-03T09:27:58.141Z</time></trkpt><trkpt lat="46.0189514" lon="13.4882117"><ele>126.0</ele><time>2026-05-03T09:27:59.141Z</time></trkpt><trkpt lat="46.0190479" lon="13.4882672"><ele>126.0</ele><time>2026-05-03T09:28:00.141Z</time></trkpt><trkpt lat="46.0190993" lon="13.4883214"><ele>126.0</ele><time>2026-05-03T09:28:01.141Z</time></trkpt><trkpt lat="46.0191876" lon="13.4883906"><ele>126.0</ele><time>2026-05-03T09:28:02.141Z</time></trkpt><trkpt lat="46.0192703" lon="13.4884616"><ele>126.0</ele><time>2026-05-03T09:28:03.141Z</time></trkpt><trkpt lat="46.0193642" lon="13.4885409"><ele>126.0</ele><time>2026-05-03T09:28:04.141Z</time></trkpt><trkpt lat="46.0194532" lon="13.4886152"><ele>126.8</ele><time>2026-05-03T09:28:05.141Z</time></trkpt><trkpt lat="46.0195376" lon="13.4886904"><ele>127.6</ele><time>2026-05-03T09:28:06.14Z</time></trkpt><trkpt lat="46.0196159" lon="13.4887744"><ele>128.4</ele><time>2026-05-03T09:28:07.141Z</time></trkpt><trkpt lat="46.0196876" lon="13.4888579"><ele>129.2</ele><time>2026-05-03T09:28:08.141Z</time></trkpt><trkpt lat="46.0197636" lon="13.4889471"><ele>130.0</ele><time>2026-05-03T09:28:09.141Z</time></trkpt><trkpt lat="46.0198337" lon="13.4889964"><ele>128.66666666666669</ele><time>2026-05-03T09:28:10.141Z</time></trkpt><trkpt lat="46.0199005" lon="13.4890467"><ele>127.33333333333334</ele><time>2026-05-03T09:28:11.141Z</time></trkpt><trkpt lat="46.0199723" lon="13.4890993"><ele>126.0</ele><time>2026-05-03T09:28:12.141Z</time></trkpt><trkpt lat="46.0200564" lon="13.489148"><ele>124.66666666666666</ele><time>2026-05-03T09:28:13.141Z</time></trkpt><trkpt lat="46.0201535" lon="13.4891442"><ele>123.33333333333333</ele><time>2026-05-03T09:28:14.141Z</time></trkpt><trkpt lat="46.0202323" lon="13.4891997"><ele>122.0</ele><time>2026-05-03T09:28:15.14Z</time></trkpt><trkpt lat="46.020304" lon="13.4892435"><ele>121.33333333333333</ele><time>2026-05-03T09:28:16.141Z</time></trkpt><trkpt lat="46.0203649" lon="13.4893041"><ele>120.66666666666666</ele><time>2026-05-03T09:28:17.141Z</time></trkpt><trkpt lat="46.0204312" lon="13.4893766"><ele>120.0</ele><time>2026-05-03T09:28:18.141Z</time></trkpt><trkpt lat="46.0204969" lon="13.4894481"><ele>119.33333333333334</ele><time>2026-05-03T09:28:19.14Z</time></trkpt><trkpt lat="46.0205754" lon="13.4895073"><ele>118.66666666666667</ele><time>2026-05-03T09:28:21.14Z</time></trkpt><trkpt lat="46.0205703" lon="13.4893576"><ele>118.0</ele><time>2026-05-03T09:28:27.14Z</time></trkpt><trkpt lat="46.0205592" lon="13.4892642"><ele>118.0</ele><time>2026-05-03T09:28:28.14Z</time></trkpt><trkpt lat="46.0205485" lon="13.4891432"><ele>118.0</ele><time>2026-05-03T09:28:29.141Z</time></trkpt><trkpt lat="46.0205338" lon="13.4890074"><ele>118.0</ele><time>2026-05-03T09:28:30.141Z</time></trkpt><trkpt lat="46.0205326" lon="13.4888146"><ele>118.0</ele><time>2026-05-03T09:28:31.141Z</time></trkpt><trkpt lat="46.0205363" lon="13.4885989"><ele>118.75</ele><time>2026-05-03T09:28:32.141Z</time></trkpt><trkpt lat="46.0205495" lon="13.4883888"><ele>119.5</ele><time>2026-05-03T09:28:33.141Z</time></trkpt><trkpt lat="46.0205541" lon="13.4882018"><ele>120.25</ele><time>2026-05-03T09:28:34.141Z</time></trkpt><trkpt lat="46.0205508" lon="13.4880367"><ele>121.0</ele><time>2026-05-03T09:28:35.14Z</time></trkpt><trkpt lat="46.0205575" lon="13.4878837"><ele>121.0</ele><time>2026-05-03T09:28:36.141Z</time></trkpt><trkpt lat="46.0205709" lon="13.4877223"><ele>121.0</ele><time>2026-05-03T09:28:37.141Z</time></trkpt><trkpt lat="46.0205696" lon="13.4875413"><ele>121.0</ele><time>2026-05-03T09:28:38.141Z</time></trkpt><trkpt lat="46.0205541" lon="13.4871606"><ele>119.4</ele><time>2026-05-03T09:28:40.14Z</time></trkpt><trkpt lat="46.0205446" lon="13.4870025"><ele>117.8</ele><time>2026-05-03T09:28:41.141Z</time></trkpt><trkpt lat="46.0205333" lon="13.486838"><ele>116.20000000000002</ele><time>2026-05-03T09:28:42.141Z</time></trkpt><trkpt lat="46.0205195" lon="13.4866942"><ele>114.60000000000001</ele><time>2026-05-03T09:28:43.141Z</time></trkpt><trkpt lat="46.0205194" lon="13.4865175"><ele>113.0</ele><time>2026-05-03T09:28:44.14Z</time></trkpt><trkpt lat="46.0205267" lon="13.4863424"><ele>110.66666666666666</ele><time>2026-05-03T09:28:45.14Z</time></trkpt><trkpt lat="46.0205573" lon="13.486211"><ele>108.33333333333333</ele><time>2026-05-03T09:28:46.141Z</time></trkpt><trkpt lat="46.0205714" lon="13.4860857"><ele>106.0</ele><time>2026-05-03T09:28:47.14Z</time></trkpt><trkpt lat="46.0205695" lon="13.4859851"><ele>103.66666666666666</ele><time>2026-05-03T09:28:48.141Z</time></trkpt><trkpt lat="46.0205685" lon="13.4858849"><ele>101.33333333333333</ele><time>2026-05-03T09:28:49.141Z</time></trkpt><trkpt lat="46.0205431" lon="13.4857742"><ele>99.0</ele><time>2026-05-03T09:28:50.141Z</time></trkpt><trkpt lat="46.0205084" lon="13.4856057"><ele>99.0</ele><time>2026-05-03T09:28:51.14Z</time></trkpt><trkpt lat="46.02048" lon="13.485471"><ele>99.0</ele><time>2026-05-03T09:28:52.141Z</time></trkpt><trkpt lat="46.02046" lon="13.4853113"><ele>99.0</ele><time>2026-05-03T09:28:53.14Z</time></trkpt><trkpt lat="46.0204409" lon="13.4851329"><ele>99.0</ele><time>2026-05-03T09:28:54.14Z</time></trkpt><trkpt lat="46.0204157" lon="13.4849618"><ele>98.16666666666667</ele><time>2026-05-03T09:28:55.14Z</time></trkpt><trkpt lat="46.0203975" lon="13.4848227"><ele>97.33333333333333</ele><time>2026-05-03T09:28:56.141Z</time></trkpt><trkpt lat="46.0203839" lon="13.4847023"><ele>96.5</ele><time>2026-05-03T09:28:57.141Z</time></trkpt><trkpt lat="46.0203698" lon="13.4845917"><ele>95.66666666666666</ele><time>2026-05-03T09:28:58.14Z</time></trkpt><trkpt lat="46.0203672" lon="13.4844894"><ele>94.83333333333333</ele><time>2026-05-03T09:28:59.141Z</time></trkpt><trkpt lat="46.0203749" lon="13.4843738"><ele>94.0</ele><time>2026-05-03T09:29:00.141Z</time></trkpt><trkpt lat="46.020402" lon="13.4842651"><ele>93.66666666666666</ele><time>2026-05-03T09:29:01.141Z</time></trkpt><trkpt lat="46.0204465" lon="13.4841886"><ele>93.33333333333333</ele><time>2026-05-03T09:29:02.141Z</time></trkpt><trkpt lat="46.020563" lon="13.4842141"><ele>93.0</ele><time>2026-05-03T09:29:04.141Z</time></trkpt><trkpt lat="46.0206079" lon="13.4842884"><ele>92.66666666666667</ele><time>2026-05-03T09:29:05.141Z</time></trkpt><trkpt lat="46.020619" lon="13.4844337"><ele>92.33333333333334</ele><time>2026-05-03T09:29:06.141Z</time></trkpt><trkpt lat="46.0207043" lon="13.4844545"><ele>92.0</ele><time>2026-05-03T09:29:13.14Z</time></trkpt><trkpt lat="46.0207661" lon="13.4845517"><ele>93.75</ele><time>2026-05-03T09:29:14.141Z</time></trkpt><trkpt lat="46.020834" lon="13.4846808"><ele>95.5</ele><time>2026-05-03T09:29:15.141Z</time></trkpt><trkpt lat="46.0208954" lon="13.4848186"><ele>97.25</ele><time>2026-05-03T09:29:16.14Z</time></trkpt><trkpt lat="46.0209562" lon="13.4849926"><ele>99.0</ele><time>2026-05-03T09:29:17.141Z</time></trkpt><trkpt lat="46.0210104" lon="13.4851427"><ele>99.0</ele><time>2026-05-03T09:29:18.141Z</time></trkpt><trkpt lat="46.0210819" lon="13.485301"><ele>99.0</ele><time>2026-05-03T09:29:19.141Z</time></trkpt><trkpt lat="46.0211489" lon="13.4854179"><ele>99.0</ele><time>2026-05-03T09:29:20.141Z</time></trkpt><trkpt lat="46.0212165" lon="13.4855549"><ele>99.0</ele><time>2026-05-03T09:29:21.141Z</time></trkpt><trkpt lat="46.0212786" lon="13.485652"><ele>99.0</ele><time>2026-05-03T09:29:22.14Z</time></trkpt><trkpt lat="46.0213536" lon="13.4857243"><ele>98.2</ele><time>2026-05-03T09:29:23.141Z</time></trkpt><trkpt lat="46.0214366" lon="13.4857975"><ele>97.4</ele><time>2026-05-03T09:29:24.141Z</time></trkpt><trkpt lat="46.0215355" lon="13.4858616"><ele>96.6</ele><time>2026-05-03T09:29:25.141Z</time></trkpt><trkpt lat="46.0216348" lon="13.4859316"><ele>95.8</ele><time>2026-05-03T09:29:26.141Z</time></trkpt><trkpt lat="46.0217277" lon="13.4859966"><ele>95.0</ele><time>2026-05-03T09:29:27.141Z</time></trkpt><trkpt lat="46.0218222" lon="13.4860499"><ele>97.4</ele><time>2026-05-03T09:29:28.14Z</time></trkpt><trkpt lat="46.0219157" lon="13.4861015"><ele>99.8</ele><time>2026-05-03T09:29:29.14Z</time></trkpt><trkpt lat="46.0220167" lon="13.4861323"><ele>102.19999999999999</ele><time>2026-05-03T09:29:30.141Z</time></trkpt><trkpt lat="46.022128" lon="13.4861372"><ele>104.6</ele><time>2026-05-03T09:29:31.141Z</time></trkpt><trkpt lat="46.0222476" lon="13.4861311"><ele>107.0</ele><time>2026-05-03T09:29:32.141Z</time></trkpt><trkpt lat="46.022386" lon="13.4861143"><ele>109.5</ele><time>2026-05-03T09:29:33.141Z</time></trkpt><trkpt lat="46.0225234" lon="13.4861128"><ele>112.0</ele><time>2026-05-03T09:29:34.141Z</time></trkpt><trkpt lat="46.0226517" lon="13.4861457"><ele>114.5</ele><time>2026-05-03T09:29:35.141Z</time></trkpt><trkpt lat="46.0227736" lon="13.4862006"><ele>117.0</ele><time>2026-05-03T09:29:36.141Z</time></trkpt><trkpt lat="46.0228893" lon="13.4862657"><ele>117.0</ele><time>2026-05-03T09:29:37.14Z</time></trkpt><trkpt lat="46.0229915" lon="13.4863413"><ele>116.99999999999999</ele><time>2026-05-03T09:29:38.14Z</time></trkpt><trkpt lat="46.02308" lon="13.4864182"><ele>116.99999999999999</ele><time>2026-05-03T09:29:39.141Z</time></trkpt><trkpt lat="46.0231541" lon="13.4864883"><ele>117.0</ele><time>2026-05-03T09:29:40.14Z</time></trkpt><trkpt lat="46.0232339" lon="13.4865367"><ele>117.0</ele><time>2026-05-03T09:29:41.141Z</time></trkpt><trkpt lat="46.0233233" lon="13.4865562"><ele>119.8</ele><time>2026-05-03T09:29:42.14Z</time></trkpt><trkpt lat="46.0234181" lon="13.4865729"><ele>122.6</ele><time>2026-05-03T09:29:43.141Z</time></trkpt><trkpt lat="46.0235049" lon="13.4865785"><ele>125.39999999999999</ele><time>2026-05-03T09:29:44.141Z</time></trkpt><trkpt lat="46.0235859" lon="13.4866032"><ele>128.2</ele><time>2026-05-03T09:29:45.141Z</time></trkpt><trkpt lat="46.0236716" lon="13.4866515"><ele>131.0</ele><time>2026-05-03T09:29:46.141Z</time></trkpt><trkpt lat="46.0237694" lon="13.4867162"><ele>131.0</ele><time>2026-05-03T09:29:47.141Z</time></trkpt><trkpt lat="46.0238731" lon="13.486784"><ele>131.0</ele><time>2026-05-03T09:29:48.141Z</time></trkpt><trkpt lat="46.0239736" lon="13.4868668"><ele>131.0</ele><time>2026-05-03T09:29:49.14Z</time></trkpt><trkpt lat="46.0240756" lon="13.4869364"><ele>131.0</ele><time>2026-05-03T09:29:50.14Z</time></trkpt><trkpt lat="46.0241745" lon="13.4870094"><ele>130.4</ele><time>2026-05-03T09:29:51.141Z</time></trkpt><trkpt lat="46.0242697" lon="13.4870872"><ele>129.8</ele><time>2026-05-03T09:29:52.141Z</time></trkpt><trkpt lat="46.0243595" lon="13.4871712"><ele>129.20000000000002</ele><time>2026-05-03T09:29:53.141Z</time></trkpt><trkpt lat="46.0244385" lon="13.4872678"><ele>128.6</ele><time>2026-05-03T09:29:54.141Z</time></trkpt><trkpt lat="46.0245108" lon="13.4873767"><ele>128.0</ele><time>2026-05-03T09:29:55.141Z</time></trkpt><trkpt lat="46.0245802" lon="13.4874836"><ele>127.60000000000001</ele><time>2026-05-03T09:29:56.141Z</time></trkpt><trkpt lat="46.0246515" lon="13.4875855"><ele>127.20000000000002</ele><time>2026-05-03T09:29:57.141Z</time></trkpt><trkpt lat="46.0247327" lon="13.4876656"><ele>126.8</ele><time>2026-05-03T09:29:58.141Z</time></trkpt><trkpt lat="46.0248151" lon="13.4877303"><ele>126.4</ele><time>2026-05-03T09:29:59.141Z</time></trkpt><trkpt lat="46.0249087" lon="13.4877883"><ele>126.0</ele><time>2026-05-03T09:30:00.14Z</time></trkpt><trkpt lat="46.0249991" lon="13.4878428"><ele>128.5</ele><time>2026-05-03T09:30:01.14Z</time></trkpt><trkpt lat="46.0250852" lon="13.4879052"><ele>131.0</ele><time>2026-05-03T09:30:02.141Z</time></trkpt><trkpt lat="46.025159" lon="13.4879842"><ele>133.5</ele><time>2026-05-03T09:30:03.141Z</time></trkpt><trkpt lat="46.0252231" lon="13.4880839"><ele>136.0</ele><time>2026-05-03T09:30:04.14Z</time></trkpt><trkpt lat="46.0252709" lon="13.4881799"><ele>138.5</ele><time>2026-05-03T09:30:05.141Z</time></trkpt><trkpt lat="46.025313" lon="13.488268"><ele>141.0</ele><time>2026-05-03T09:30:06.141Z</time></trkpt><trkpt lat="46.025357" lon="13.4883344"><ele>142.0</ele><time>2026-05-03T09:30:07.14Z</time></trkpt><trkpt lat="46.0254651" lon="13.4884136"><ele>143.0</ele><time>2026-05-03T09:30:09.14Z</time></trkpt><trkpt lat="46.0255803" lon="13.4884651"><ele>144.0</ele><time>2026-05-03T09:30:11.14Z</time></trkpt><trkpt lat="46.0256844" lon="13.4884691"><ele>145.0</ele><time>2026-05-03T09:30:13.141Z</time></trkpt><trkpt lat="46.0257612" lon="13.4884571"><ele>146.0</ele><time>2026-05-03T09:30:17.141Z</time></trkpt><trkpt lat="46.0258554" lon="13.4884514"><ele>148.5</ele><time>2026-05-03T09:30:19.141Z</time></trkpt><trkpt lat="46.0259498" lon="13.4884504"><ele>151.0</ele><time>2026-05-03T09:30:21.141Z</time></trkpt><trkpt lat="46.0260361" lon="13.4884561"><ele>153.5</ele><time>2026-05-03T09:30:23.141Z</time></trkpt><trkpt lat="46.0261159" lon="13.4884841"><ele>156.0</ele><time>2026-05-03T09:30:25.14Z</time></trkpt><trkpt lat="46.0261772" lon="13.488559"><ele>158.5</ele><time>2026-05-03T09:30:27.141Z</time></trkpt><trkpt lat="46.0262132" lon="13.48866"><ele>161.0</ele><time>2026-05-03T09:30:29.141Z</time></trkpt><trkpt lat="46.0262416" lon="13.4887535"><ele>161.4</ele><time>2026-05-03T09:30:31.14Z</time></trkpt><trkpt lat="46.0262814" lon="13.488858"><ele>161.8</ele><time>2026-05-03T09:30:33.139Z</time></trkpt><trkpt lat="46.0263308" lon="13.4889921"><ele>162.20000000000002</ele><time>2026-05-03T09:30:35.14Z</time></trkpt><trkpt lat="46.0263772" lon="13.4891351"><ele>162.60000000000002</ele><time>2026-05-03T09:30:37.14Z</time></trkpt><trkpt lat="46.0263928" lon="13.4892834"><ele>163.0</ele><time>2026-05-03T09:30:39.14Z</time></trkpt><trkpt lat="46.0263991" lon="13.4894228"><ele>163.0</ele><time>2026-05-03T09:30:41.139Z</time></trkpt><trkpt lat="46.0264531" lon="13.489552"><ele>163.0</ele><time>2026-05-03T09:30:43.14Z</time></trkpt><trkpt lat="46.0265488" lon="13.4896605"><ele>163.0</ele><time>2026-05-03T09:30:45.139Z</time></trkpt><trkpt lat="46.0266033" lon="13.4897092"><ele>163.0</ele><time>2026-05-03T09:30:46.139Z</time></trkpt><trkpt lat="46.0267054" lon="13.4898109"><ele>163.0</ele><time>2026-05-03T09:30:48.14Z</time></trkpt><trkpt lat="46.0267502" lon="13.4898747"><ele>166.66666666666669</ele><time>2026-05-03T09:30:49.139Z</time></trkpt><trkpt lat="46.0267941" lon="13.4899446"><ele>170.33333333333334</ele><time>2026-05-03T09:30:50.14Z</time></trkpt><trkpt lat="46.026843" lon="13.4900233"><ele>174.0</ele><time>2026-05-03T09:30:51.14Z</time></trkpt><trkpt lat="46.0269034" lon="13.4901071"><ele>177.66666666666666</ele><time>2026-05-03T09:30:52.139Z</time></trkpt><trkpt lat="46.0269696" lon="13.4902013"><ele>181.33333333333331</ele><time>2026-05-03T09:30:53.14Z</time></trkpt><trkpt lat="46.0270409" lon="13.4903022"><ele>185.0</ele><time>2026-05-03T09:30:54.14Z</time></trkpt><trkpt lat="46.0271176" lon="13.4904057"><ele>183.0</ele><time>2026-05-03T09:30:55.14Z</time></trkpt><trkpt lat="46.0271983" lon="13.4905116"><ele>181.0</ele><time>2026-05-03T09:30:56.139Z</time></trkpt><trkpt lat="46.0272739" lon="13.49061"><ele>179.0</ele><time>2026-05-03T09:30:57.139Z</time></trkpt><trkpt lat="46.0273481" lon="13.490708"><ele>177.0</ele><time>2026-05-03T09:30:58.139Z</time></trkpt><trkpt lat="46.0274296" lon="13.4908225"><ele>175.0</ele><time>2026-05-03T09:30:59.139Z</time></trkpt><trkpt lat="46.0275039" lon="13.4909334"><ele>179.6</ele><time>2026-05-03T09:31:00.139Z</time></trkpt><trkpt lat="46.0275798" lon="13.4910432"><ele>184.2</ele><time>2026-05-03T09:31:01.14Z</time></trkpt><trkpt lat="46.0276514" lon="13.4911334"><ele>188.8</ele><time>2026-05-03T09:31:02.139Z</time></trkpt><trkpt lat="46.027724" lon="13.4912147"><ele>193.4</ele><time>2026-05-03T09:31:03.14Z</time></trkpt><trkpt lat="46.0277854" lon="13.4913125"><ele>198.0</ele><time>2026-05-03T09:31:04.14Z</time></trkpt><trkpt lat="46.0278473" lon="13.4914267"><ele>198.0</ele><time>2026-05-03T09:31:05.14Z</time></trkpt><trkpt lat="46.027912" lon="13.4915344"><ele>198.0</ele><time>2026-05-03T09:31:06.14Z</time></trkpt><trkpt lat="46.0279824" lon="13.491632"><ele>198.0</ele><time>2026-05-03T09:31:07.14Z</time></trkpt><trkpt lat="46.0280601" lon="13.4917133"><ele>198.0</ele><time>2026-05-03T09:31:08.14Z</time></trkpt><trkpt lat="46.0281394" lon="13.4917703"><ele>198.0</ele><time>2026-05-03T09:31:09.139Z</time></trkpt><trkpt lat="46.0282215" lon="13.4918193"><ele>198.0</ele><time>2026-05-03T09:31:10.14Z</time></trkpt><trkpt lat="46.0283068" lon="13.4918781"><ele>198.0</ele><time>2026-05-03T09:31:11.139Z</time></trkpt><trkpt lat="46.0283861" lon="13.4919599"><ele>198.0</ele><time>2026-05-03T09:31:12.14Z</time></trkpt><trkpt lat="46.028474" lon="13.4920568"><ele>198.0</ele><time>2026-05-03T09:31:13.139Z</time></trkpt><trkpt lat="46.0285506" lon="13.4921683"><ele>198.0</ele><time>2026-05-03T09:31:14.14Z</time></trkpt><trkpt lat="46.0286385" lon="13.4922753"><ele>204.25</ele><time>2026-05-03T09:31:15.14Z</time></trkpt><trkpt lat="46.0287357" lon="13.4923771"><ele>210.5</ele><time>2026-05-03T09:31:16.14Z</time></trkpt><trkpt lat="46.0288483" lon="13.4924548"><ele>216.75</ele><time>2026-05-03T09:31:17.14Z</time></trkpt><trkpt lat="46.0289566" lon="13.4925243"><ele>223.0</ele><time>2026-05-03T09:31:18.14Z</time></trkpt><trkpt lat="46.029064" lon="13.4925789"><ele>224.66666666666666</ele><time>2026-05-03T09:31:19.14Z</time></trkpt><trkpt lat="46.0291671" lon="13.4926311"><ele>226.33333333333331</ele><time>2026-05-03T09:31:20.14Z</time></trkpt><trkpt lat="46.0292593" lon="13.4926997"><ele>228.0</ele><time>2026-05-03T09:31:21.14Z</time></trkpt><trkpt lat="46.0293249" lon="13.4927767"><ele>229.66666666666669</ele><time>2026-05-03T09:31:22.14Z</time></trkpt><trkpt lat="46.0293718" lon="13.4928678"><ele>231.33333333333334</ele><time>2026-05-03T09:31:23.139Z</time></trkpt><trkpt lat="46.0293962" lon="13.4929609"><ele>233.0</ele><time>2026-05-03T09:31:24.139Z</time></trkpt><trkpt lat="46.0293868" lon="13.4930529"><ele>233.66666666666669</ele><time>2026-05-03T09:31:25.139Z</time></trkpt><trkpt lat="46.029346" lon="13.4931332"><ele>234.33333333333334</ele><time>2026-05-03T09:31:26.14Z</time></trkpt><trkpt lat="46.0292832" lon="13.4932049"><ele>235.0</ele><time>2026-05-03T09:31:27.139Z</time></trkpt><trkpt lat="46.0292167" lon="13.4932662"><ele>235.66666666666669</ele><time>2026-05-03T09:31:28.14Z</time></trkpt><trkpt lat="46.0291454" lon="13.4933288"><ele>236.33333333333334</ele><time>2026-05-03T09:31:29.14Z</time></trkpt><trkpt lat="46.0290718" lon="13.4933991"><ele>237.0</ele><time>2026-05-03T09:31:30.139Z</time></trkpt><trkpt lat="46.0289954" lon="13.4934803"><ele>236.2</ele><time>2026-05-03T09:31:31.139Z</time></trkpt><trkpt lat="46.0289213" lon="13.4935732"><ele>235.39999999999998</ele><time>2026-05-03T09:31:32.14Z</time></trkpt><trkpt lat="46.0288567" lon="13.4936697"><ele>234.60000000000002</ele><time>2026-05-03T09:31:33.14Z</time></trkpt><trkpt lat="46.0288166" lon="13.4937976"><ele>233.8</ele><time>2026-05-03T09:31:34.14Z</time></trkpt><trkpt lat="46.0288097" lon="13.4939416"><ele>233.0</ele><time>2026-05-03T09:31:35.14Z</time></trkpt><trkpt lat="46.0288071" lon="13.4940891"><ele>233.0</ele><time>2026-05-03T09:31:36.14Z</time></trkpt><trkpt lat="46.0288005" lon="13.4942324"><ele>233.0</ele><time>2026-05-03T09:31:37.14Z</time></trkpt><trkpt lat="46.0287719" lon="13.4943756"><ele>233.0</ele><time>2026-05-03T09:31:38.139Z</time></trkpt><trkpt lat="46.0287334" lon="13.4945039"><ele>233.0</ele><time>2026-05-03T09:31:39.14Z</time></trkpt><trkpt lat="46.0286896" lon="13.4946183"><ele>233.0</ele><time>2026-05-03T09:31:40.139Z</time></trkpt><trkpt lat="46.0286389" lon="13.4947337"><ele>234.2</ele><time>2026-05-03T09:31:41.14Z</time></trkpt><trkpt lat="46.028597" lon="13.4948447"><ele>235.4</ele><time>2026-05-03T09:31:42.14Z</time></trkpt><trkpt lat="46.0285645" lon="13.4949632"><ele>236.59999999999997</ele><time>2026-05-03T09:31:43.14Z</time></trkpt><trkpt lat="46.0285569" lon="13.495096"><ele>237.79999999999998</ele><time>2026-05-03T09:31:44.14Z</time></trkpt><trkpt lat="46.0285757" lon="13.4952408"><ele>239.0</ele><time>2026-05-03T09:31:45.139Z</time></trkpt><trkpt lat="46.0285912" lon="13.4953967"><ele>239.0</ele><time>2026-05-03T09:31:46.14Z</time></trkpt><trkpt lat="46.0285959" lon="13.4955604"><ele>238.99999999999997</ele><time>2026-05-03T09:31:47.14Z</time></trkpt><trkpt lat="46.0286032" lon="13.495703"><ele>238.99999999999997</ele><time>2026-05-03T09:31:48.14Z</time></trkpt><trkpt lat="46.0286118" lon="13.4958307"><ele>239.0</ele><time>2026-05-03T09:31:49.139Z</time></trkpt><trkpt lat="46.028619" lon="13.4959616"><ele>239.0</ele><time>2026-05-03T09:31:50.14Z</time></trkpt><trkpt lat="46.0286275" lon="13.4960818"><ele>239.00000000000003</ele><time>2026-05-03T09:31:51.14Z</time></trkpt><trkpt lat="46.028636" lon="13.4962011"><ele>239.0</ele><time>2026-05-03T09:31:52.14Z</time></trkpt><trkpt lat="46.0286326" lon="13.4963157"><ele>239.0</ele><time>2026-05-03T09:31:53.14Z</time></trkpt><trkpt lat="46.0286166" lon="13.4964188"><ele>239.0</ele><time>2026-05-03T09:31:54.139Z</time></trkpt><trkpt lat="46.0285821" lon="13.4965119"><ele>239.00000000000003</ele><time>2026-05-03T09:31:55.14Z</time></trkpt><trkpt lat="46.0285161" lon="13.4965935"><ele>239.0</ele><time>2026-05-03T09:31:56.14Z</time></trkpt><trkpt lat="46.0284416" lon="13.4966495"><ele>240.28571428571433</ele><time>2026-05-03T09:31:57.14Z</time></trkpt><trkpt lat="46.0283628" lon="13.4966962"><ele>241.57142857142858</ele><time>2026-05-03T09:31:58.14Z</time></trkpt><trkpt lat="46.0282874" lon="13.496738"><ele>242.8571428571429</ele><time>2026-05-03T09:31:59.14Z</time></trkpt><trkpt lat="46.028221" lon="13.4967747"><ele>244.14285714285717</ele><time>2026-05-03T09:32:00.139Z</time></trkpt><trkpt lat="46.0281656" lon="13.4968224"><ele>245.42857142857144</ele><time>2026-05-03T09:32:01.14Z</time></trkpt><trkpt lat="46.0281256" lon="13.4968955"><ele>246.71428571428572</ele><time>2026-05-03T09:32:02.139Z</time></trkpt><trkpt lat="46.028105" lon="13.4969975"><ele>248.0</ele><time>2026-05-03T09:32:03.139Z</time></trkpt><trkpt lat="46.0281071" lon="13.4971199"><ele>243.4</ele><time>2026-05-03T09:32:04.139Z</time></trkpt><trkpt lat="46.0281228" lon="13.4972577"><ele>238.8</ele><time>2026-05-03T09:32:05.14Z</time></trkpt><trkpt lat="46.0281534" lon="13.4974125"><ele>234.2</ele><time>2026-05-03T09:32:06.14Z</time></trkpt><trkpt lat="46.0281777" lon="13.4975798"><ele>229.6</ele><time>2026-05-03T09:32:07.139Z</time></trkpt><trkpt lat="46.0281914" lon="13.4977435"><ele>225.0</ele><time>2026-05-03T09:32:08.14Z</time></trkpt><trkpt lat="46.0282022" lon="13.4979145"><ele>224.25</ele><time>2026-05-03T09:32:09.14Z</time></trkpt><trkpt lat="46.028217" lon="13.49808"><ele>223.5</ele><time>2026-05-03T09:32:10.139Z</time></trkpt><trkpt lat="46.0282441" lon="13.4982491"><ele>222.75</ele><time>2026-05-03T09:32:11.14Z</time></trkpt><trkpt lat="46.0282826" lon="13.4984022"><ele>222.0</ele><time>2026-05-03T09:32:12.14Z</time></trkpt><trkpt lat="46.0283411" lon="13.4985475"><ele>226.2</ele><time>2026-05-03T09:32:13.139Z</time></trkpt><trkpt lat="46.0283858" lon="13.498691"><ele>230.39999999999998</ele><time>2026-05-03T09:32:14.14Z</time></trkpt><trkpt lat="46.0284262" lon="13.4988261"><ele>234.60000000000002</ele><time>2026-05-03T09:32:15.139Z</time></trkpt><trkpt lat="46.0284624" lon="13.4989375"><ele>238.8</ele><time>2026-05-03T09:32:16.139Z</time></trkpt><trkpt lat="46.0285303" lon="13.4991259"><ele>243.0</ele><time>2026-05-03T09:32:18.139Z</time></trkpt><trkpt lat="46.0285664" lon="13.4992151"><ele>243.0</ele><time>2026-05-03T09:32:19.139Z</time></trkpt><trkpt lat="46.028622" lon="13.499283"><ele>243.0</ele><time>2026-05-03T09:32:20.14Z</time></trkpt><trkpt lat="46.028693" lon="13.4993195"><ele>243.0</ele><time>2026-05-03T09:32:21.14Z</time></trkpt><trkpt lat="46.0287679" lon="13.4993648"><ele>243.0</ele><time>2026-05-03T09:32:22.14Z</time></trkpt><trkpt lat="46.0288385" lon="13.4994379"><ele>243.0</ele><time>2026-05-03T09:32:23.14Z</time></trkpt><trkpt lat="46.0288936" lon="13.4995389"><ele>243.0</ele><time>2026-05-03T09:32:24.14Z</time></trkpt><trkpt lat="46.0289267" lon="13.4996628"><ele>241.4</ele><time>2026-05-03T09:32:25.14Z</time></trkpt><trkpt lat="46.0289364" lon="13.4997872"><ele>239.8</ele><time>2026-05-03T09:32:26.14Z</time></trkpt><trkpt lat="46.0289448" lon="13.4999161"><ele>238.2</ele><time>2026-05-03T09:32:27.139Z</time></trkpt><trkpt lat="46.0289584" lon="13.5000526"><ele>236.6</ele><time>2026-05-03T09:32:28.14Z</time></trkpt><trkpt lat="46.0289965" lon="13.5001879"><ele>235.0</ele><time>2026-05-03T09:32:29.14Z</time></trkpt><trkpt lat="46.0290375" lon="13.500302"><ele>234.99999999999997</ele><time>2026-05-03T09:32:30.14Z</time></trkpt><trkpt lat="46.0290793" lon="13.5003807"><ele>235.0</ele><time>2026-05-03T09:32:31.14Z</time></trkpt><trkpt lat="46.0291402" lon="13.5004684"><ele>235.0</ele><time>2026-05-03T09:32:32.139Z</time></trkpt><trkpt lat="46.0291881" lon="13.5005558"><ele>235.0</ele><time>2026-05-03T09:32:33.14Z</time></trkpt><trkpt lat="46.0292278" lon="13.5006537"><ele>234.99999999999997</ele><time>2026-05-03T09:32:34.14Z</time></trkpt><trkpt lat="46.0292496" lon="13.5007508"><ele>235.0</ele><time>2026-05-03T09:32:35.14Z</time></trkpt><trkpt lat="46.0292553" lon="13.5008605"><ele>233.83333333333331</ele><time>2026-05-03T09:32:36.14Z</time></trkpt><trkpt lat="46.0292823" lon="13.5009453"><ele>232.66666666666666</ele><time>2026-05-03T09:32:37.14Z</time></trkpt><trkpt lat="46.0293284" lon="13.5010287"><ele>231.5</ele><time>2026-05-03T09:32:38.139Z</time></trkpt><trkpt lat="46.0293955" lon="13.501094"><ele>230.33333333333331</ele><time>2026-05-03T09:32:39.14Z</time></trkpt><trkpt lat="46.0294781" lon="13.5011241"><ele>229.16666666666666</ele><time>2026-05-03T09:32:40.139Z</time></trkpt><trkpt lat="46.0295631" lon="13.5011305"><ele>228.0</ele><time>2026-05-03T09:32:41.14Z</time></trkpt><trkpt lat="46.0296483" lon="13.5011285"><ele>228.0</ele><time>2026-05-03T09:32:42.14Z</time></trkpt><trkpt lat="46.0297331" lon="13.501124"><ele>228.0</ele><time>2026-05-03T09:32:43.14Z</time></trkpt><trkpt lat="46.029878" lon="13.5011086"><ele>228.0</ele><time>2026-05-03T09:32:45.14Z</time></trkpt><trkpt lat="46.0299682" lon="13.5010774"><ele>228.0</ele><time>2026-05-03T09:32:46.139Z</time></trkpt><trkpt lat="46.0300623" lon="13.5010722"><ele>228.0</ele><time>2026-05-03T09:32:47.139Z</time></trkpt><trkpt lat="46.0301492" lon="13.5010903"><ele>226.0</ele><time>2026-05-03T09:32:48.14Z</time></trkpt><trkpt lat="46.0302238" lon="13.5011524"><ele>224.0</ele><time>2026-05-03T09:32:49.139Z</time></trkpt><trkpt lat="46.030295" lon="13.5012088"><ele>222.0</ele><time>2026-05-03T09:32:50.139Z</time></trkpt><trkpt lat="46.0303747" lon="13.5012603"><ele>220.0</ele><time>2026-05-03T09:32:51.139Z</time></trkpt><trkpt lat="46.0304522" lon="13.5012889"><ele>218.0</ele><time>2026-05-03T09:32:52.14Z</time></trkpt><trkpt lat="46.0305317" lon="13.5013109"><ele>216.0</ele><time>2026-05-03T09:32:53.14Z</time></trkpt><trkpt lat="46.0306078" lon="13.5013387"><ele>214.66666666666666</ele><time>2026-05-03T09:32:54.139Z</time></trkpt><trkpt lat="46.0306821" lon="13.501401"><ele>213.33333333333331</ele><time>2026-05-03T09:32:55.14Z</time></trkpt><trkpt lat="46.0307369" lon="13.5014894"><ele>212.0</ele><time>2026-05-03T09:32:56.139Z</time></trkpt><trkpt lat="46.0307818" lon="13.5015863"><ele>210.66666666666666</ele><time>2026-05-03T09:32:57.139Z</time></trkpt><trkpt lat="46.0308344" lon="13.5016591"><ele>209.33333333333331</ele><time>2026-05-03T09:32:58.14Z</time></trkpt><trkpt lat="46.030896" lon="13.5017119"><ele>208.0</ele><time>2026-05-03T09:32:59.14Z</time></trkpt><trkpt lat="46.0309564" lon="13.5017516"><ele>206.99999999999997</ele><time>2026-05-03T09:33:00.14Z</time></trkpt><trkpt lat="46.0310192" lon="13.5017984"><ele>206.0</ele><time>2026-05-03T09:33:01.14Z</time></trkpt><trkpt lat="46.0310811" lon="13.5018447"><ele>205.0</ele><time>2026-05-03T09:33:02.14Z</time></trkpt><trkpt lat="46.0311453" lon="13.5018826"><ele>204.0</ele><time>2026-05-03T09:33:03.14Z</time></trkpt><trkpt lat="46.0312061" lon="13.5019208"><ele>202.99999999999997</ele><time>2026-05-03T09:33:04.14Z</time></trkpt><trkpt lat="46.0313102" lon="13.502016"><ele>202.0</ele><time>2026-05-03T09:33:06.14Z</time></trkpt><trkpt lat="46.0313659" lon="13.5020701"><ele>200.66666666666666</ele><time>2026-05-03T09:33:07.14Z</time></trkpt><trkpt lat="46.0314176" lon="13.5021362"><ele>199.33333333333331</ele><time>2026-05-03T09:33:08.139Z</time></trkpt><trkpt lat="46.0314584" lon="13.502223"><ele>198.0</ele><time>2026-05-03T09:33:09.139Z</time></trkpt><trkpt lat="46.0314929" lon="13.5023218"><ele>196.66666666666669</ele><time>2026-05-03T09:33:10.139Z</time></trkpt><trkpt lat="46.031521" lon="13.5024234"><ele>195.33333333333334</ele><time>2026-05-03T09:33:11.14Z</time></trkpt><trkpt lat="46.031554" lon="13.5025227"><ele>194.0</ele><time>2026-05-03T09:33:12.139Z</time></trkpt><trkpt lat="46.031596" lon="13.5026237"><ele>193.50000000000003</ele><time>2026-05-03T09:33:13.139Z</time></trkpt><trkpt lat="46.0316452" lon="13.5027189"><ele>193.0</ele><time>2026-05-03T09:33:14.14Z</time></trkpt><trkpt lat="46.0317079" lon="13.5028004"><ele>192.5</ele><time>2026-05-03T09:33:15.14Z</time></trkpt><trkpt lat="46.0317784" lon="13.5028716"><ele>192.0</ele><time>2026-05-03T09:33:16.139Z</time></trkpt><trkpt lat="46.0318581" lon="13.5029393"><ele>191.5</ele><time>2026-05-03T09:33:17.139Z</time></trkpt><trkpt lat="46.0319422" lon="13.5030023"><ele>191.0</ele><time>2026-05-03T09:33:18.14Z</time></trkpt><trkpt lat="46.0320319" lon="13.5030676"><ele>191.0</ele><time>2026-05-03T09:33:19.14Z</time></trkpt><trkpt lat="46.0321188" lon="13.5031357"><ele>191.0</ele><time>2026-05-03T09:33:20.14Z</time></trkpt><trkpt lat="46.0322085" lon="13.5032062"><ele>191.0</ele><time>2026-05-03T09:33:21.14Z</time></trkpt><trkpt lat="46.0322813" lon="13.5032919"><ele>191.0</ele><time>2026-05-03T09:33:22.14Z</time></trkpt><trkpt lat="46.03234" lon="13.5033967"><ele>191.0</ele><time>2026-05-03T09:33:23.14Z</time></trkpt><trkpt lat="46.0323946" lon="13.5035132"><ele>191.0</ele><time>2026-05-03T09:33:24.139Z</time></trkpt><trkpt lat="46.0324475" lon="13.5036334"><ele>191.0</ele><time>2026-05-03T09:33:25.139Z</time></trkpt><trkpt lat="46.0325047" lon="13.503756"><ele>191.0</ele><time>2026-05-03T09:33:26.14Z</time></trkpt><trkpt lat="46.0325577" lon="13.5038754"><ele>191.0</ele><time>2026-05-03T09:33:27.14Z</time></trkpt><trkpt lat="46.0326087" lon="13.5039955"><ele>191.0</ele><time>2026-05-03T09:33:28.139Z</time></trkpt><trkpt lat="46.0326563" lon="13.5041024"><ele>192.60000000000002</ele><time>2026-05-03T09:33:29.14Z</time></trkpt><trkpt lat="46.0327185" lon="13.5041964"><ele>194.2</ele><time>2026-05-03T09:33:30.139Z</time></trkpt><trkpt lat="46.0327827" lon="13.5042937"><ele>195.8</ele><time>2026-05-03T09:33:31.14Z</time></trkpt><trkpt lat="46.0328475" lon="13.5043911"><ele>197.39999999999998</ele><time>2026-05-03T09:33:32.14Z</time></trkpt><trkpt lat="46.03292" lon="13.5044671"><ele>199.0</ele><time>2026-05-03T09:33:33.14Z</time></trkpt><trkpt lat="46.0330004" lon="13.5045392"><ele>200.0</ele><time>2026-05-03T09:33:34.14Z</time></trkpt><trkpt lat="46.033081" lon="13.5046176"><ele>201.0</ele><time>2026-05-03T09:33:35.14Z</time></trkpt><trkpt lat="46.0331694" lon="13.5046946"><ele>202.0</ele><time>2026-05-03T09:33:36.14Z</time></trkpt><trkpt lat="46.033252" lon="13.5047666"><ele>203.0</ele><time>2026-05-03T09:33:37.139Z</time></trkpt><trkpt lat="46.0333432" lon="13.5048271"><ele>204.0</ele><time>2026-05-03T09:33:38.14Z</time></trkpt><trkpt lat="46.0334322" lon="13.5048843"><ele>204.0</ele><time>2026-05-03T09:33:39.14Z</time></trkpt><trkpt lat="46.0335102" lon="13.5049336"><ele>204.0</ele><time>2026-05-03T09:33:40.14Z</time></trkpt><trkpt lat="46.0335823" lon="13.5049892"><ele>204.0</ele><time>2026-05-03T09:33:41.14Z</time></trkpt><trkpt lat="46.0336477" lon="13.5050422"><ele>204.0</ele><time>2026-05-03T09:33:42.14Z</time></trkpt><trkpt lat="46.0337058" lon="13.5050822"><ele>204.0</ele><time>2026-05-03T09:33:43.14Z</time></trkpt><trkpt lat="46.0337851" lon="13.5051287"><ele>204.0</ele><time>2026-05-03T09:33:45.14Z</time></trkpt><trkpt lat="46.0338358" lon="13.5050521"><ele>204.0</ele><time>2026-05-03T09:33:47.14Z</time></trkpt><trkpt lat="46.0338616" lon="13.5049671"><ele>204.0</ele><time>2026-05-03T09:33:48.139Z</time></trkpt><trkpt lat="46.0339921" lon="13.5048888"><ele>204.0</ele><time>2026-05-03T09:33:50.139Z</time></trkpt><trkpt lat="46.0340637" lon="13.5048641"><ele>204.0</ele><time>2026-05-03T09:33:51.14Z</time></trkpt><trkpt lat="46.0341312" lon="13.504807"><ele>204.0</ele><time>2026-05-03T09:33:52.14Z</time></trkpt><trkpt lat="46.0341883" lon="13.5047288"><ele>204.0</ele><time>2026-05-03T09:33:53.14Z</time></trkpt><trkpt lat="46.0342213" lon="13.5046392"><ele>203.33333333333334</ele><time>2026-05-03T09:33:54.139Z</time></trkpt><trkpt lat="46.034253" lon="13.5045572"><ele>202.66666666666669</ele><time>2026-05-03T09:33:55.139Z</time></trkpt><trkpt lat="46.034301" lon="13.5044877"><ele>202.0</ele><time>2026-05-03T09:33:57.139Z</time></trkpt><trkpt lat="46.0343769" lon="13.5044326"><ele>201.33333333333334</ele><time>2026-05-03T09:34:30.14Z</time></trkpt><trkpt lat="46.0344722" lon="13.5044623"><ele>200.66666666666669</ele><time>2026-05-03T09:34:32.14Z</time></trkpt><trkpt lat="46.0345393" lon="13.5044906"><ele>200.0</ele><time>2026-05-03T09:34:33.14Z</time></trkpt><trkpt lat="46.0346133" lon="13.5045242"><ele>200.0</ele><time>2026-05-03T09:34:34.14Z</time></trkpt><trkpt lat="46.0347022" lon="13.5045524"><ele>200.0</ele><time>2026-05-03T09:34:35.139Z</time></trkpt><trkpt lat="46.0347939" lon="13.5045773"><ele>200.0</ele><time>2026-05-03T09:34:36.139Z</time></trkpt><trkpt lat="46.0348821" lon="13.5046051"><ele>200.0</ele><time>2026-05-03T09:34:37.138Z</time></trkpt><trkpt lat="46.034975" lon="13.5046243"><ele>200.0</ele><time>2026-05-03T09:34:38.139Z</time></trkpt><trkpt lat="46.0350769" lon="13.5046257"><ele>199.0</ele><time>2026-05-03T09:34:39.139Z</time></trkpt><trkpt lat="46.0351778" lon="13.5046018"><ele>198.0</ele><time>2026-05-03T09:34:40.138Z</time></trkpt><trkpt lat="46.0352691" lon="13.5045665"><ele>197.0</ele><time>2026-05-03T09:34:41.139Z</time></trkpt><trkpt lat="46.035359" lon="13.5045409"><ele>196.0</ele><time>2026-05-03T09:34:42.138Z</time></trkpt><trkpt lat="46.0354484" lon="13.5045388"><ele>195.0</ele><time>2026-05-03T09:34:43.139Z</time></trkpt><trkpt lat="46.0355344" lon="13.5045395"><ele>195.0</ele><time>2026-05-03T09:34:44.139Z</time></trkpt><trkpt lat="46.0356204" lon="13.5044956"><ele>195.0</ele><time>2026-05-03T09:34:45.139Z</time></trkpt><trkpt lat="46.0356883" lon="13.5044083"><ele>195.0</ele><time>2026-05-03T09:34:46.139Z</time></trkpt><trkpt lat="46.0357364" lon="13.5042871"><ele>195.0</ele><time>2026-05-03T09:34:47.139Z</time></trkpt><trkpt lat="46.0357709" lon="13.5041463"><ele>195.0</ele><time>2026-05-03T09:34:48.139Z</time></trkpt><trkpt lat="46.0358097" lon="13.5039969"><ele>196.4</ele><time>2026-05-03T09:34:49.138Z</time></trkpt><trkpt lat="46.0358625" lon="13.5038568"><ele>197.8</ele><time>2026-05-03T09:34:50.138Z</time></trkpt><trkpt lat="46.0359191" lon="13.5037463"><ele>199.2</ele><time>2026-05-03T09:34:51.139Z</time></trkpt><trkpt lat="46.0359689" lon="13.5036499"><ele>200.6</ele><time>2026-05-03T09:34:52.139Z</time></trkpt><trkpt lat="46.0360052" lon="13.5035697"><ele>202.0</ele><time>2026-05-03T09:34:53.139Z</time></trkpt><trkpt lat="46.0360605" lon="13.503454"><ele>202.0</ele><time>2026-05-03T09:34:55.139Z</time></trkpt><trkpt lat="46.0361288" lon="13.5034249"><ele>202.0</ele><time>2026-05-03T09:34:57.138Z</time></trkpt><trkpt lat="46.0362118" lon="13.503465"><ele>202.0</ele><time>2026-05-03T09:34:59.139Z</time></trkpt><trkpt lat="46.0363156" lon="13.5035721"><ele>202.0</ele><time>2026-05-03T09:35:01.139Z</time></trkpt><trkpt lat="46.0363657" lon="13.5036447"><ele>202.0</ele><time>2026-05-03T09:35:02.138Z</time></trkpt><trkpt lat="46.0364644" lon="13.503755"><ele>201.99999999999997</ele><time>2026-05-03T09:35:04.139Z</time></trkpt><trkpt lat="46.0365159" lon="13.5038102"><ele>202.0</ele><time>2026-05-03T09:35:05.138Z</time></trkpt><trkpt lat="46.03657" lon="13.5038737"><ele>202.0</ele><time>2026-05-03T09:35:06.139Z</time></trkpt><trkpt lat="46.0366273" lon="13.5039327"><ele>202.0</ele><time>2026-05-03T09:35:07.139Z</time></trkpt><trkpt lat="46.0366875" lon="13.5040249"><ele>201.99999999999997</ele><time>2026-05-03T09:35:08.139Z</time></trkpt><trkpt lat="46.0367433" lon="13.5041223"><ele>202.0</ele><time>2026-05-03T09:35:09.139Z</time></trkpt><trkpt lat="46.0367921" lon="13.5042225"><ele>203.83333333333331</ele><time>2026-05-03T09:35:10.138Z</time></trkpt><trkpt lat="46.0368349" lon="13.5043209"><ele>205.66666666666666</ele><time>2026-05-03T09:35:11.139Z</time></trkpt><trkpt lat="46.0368781" lon="13.5044307"><ele>207.5</ele><time>2026-05-03T09:35:12.138Z</time></trkpt><trkpt lat="46.0369177" lon="13.5045428"><ele>209.33333333333331</ele><time>2026-05-03T09:35:13.139Z</time></trkpt><trkpt lat="46.0369466" lon="13.50465"><ele>211.16666666666666</ele><time>2026-05-03T09:35:14.139Z</time></trkpt><trkpt lat="46.0369693" lon="13.5047463"><ele>213.0</ele><time>2026-05-03T09:35:15.139Z</time></trkpt><trkpt lat="46.0369902" lon="13.504838"><ele>216.8</ele><time>2026-05-03T09:35:16.139Z</time></trkpt><trkpt lat="46.0370576" lon="13.5049817"><ele>220.60000000000002</ele><time>2026-05-03T09:35:18.138Z</time></trkpt><trkpt lat="46.0371573" lon="13.5050486"><ele>224.39999999999998</ele><time>2026-05-03T09:35:20.139Z</time></trkpt><trkpt lat="46.0372788" lon="13.5050479"><ele>228.2</ele><time>2026-05-03T09:35:22.139Z</time></trkpt><trkpt lat="46.0373512" lon="13.5050443"><ele>232.0</ele><time>2026-05-03T09:35:23.138Z</time></trkpt><trkpt lat="46.0374169" lon="13.5050444"><ele>228.6</ele><time>2026-05-03T09:35:24.138Z</time></trkpt><trkpt lat="46.0374808" lon="13.5050566"><ele>225.2</ele><time>2026-05-03T09:35:25.138Z</time></trkpt><trkpt lat="46.0375462" lon="13.5050698"><ele>221.8</ele><time>2026-05-03T09:35:26.139Z</time></trkpt><trkpt lat="46.0376779" lon="13.5050522"><ele>218.4</ele><time>2026-05-03T09:35:28.138Z</time></trkpt><trkpt lat="46.0377449" lon="13.5050311"><ele>215.0</ele><time>2026-05-03T09:35:29.139Z</time></trkpt><trkpt lat="46.0378681" lon="13.5050231"><ele>215.0</ele><time>2026-05-03T09:35:31.139Z</time></trkpt><trkpt lat="46.0379697" lon="13.5050946"><ele>215.0</ele><time>2026-05-03T09:35:33.139Z</time></trkpt><trkpt lat="46.0380538" lon="13.505233"><ele>215.0</ele><time>2026-05-03T09:35:35.139Z</time></trkpt><trkpt lat="46.0380939" lon="13.5053248"><ele>215.0</ele><time>2026-05-03T09:35:36.138Z</time></trkpt><trkpt lat="46.0381381" lon="13.5054225"><ele>215.0</ele><time>2026-05-03T09:35:37.139Z</time></trkpt><trkpt lat="46.0381912" lon="13.5055227"><ele>218.2</ele><time>2026-05-03T09:35:38.139Z</time></trkpt><trkpt lat="46.03824" lon="13.5055953"><ele>221.4</ele><time>2026-05-03T09:35:39.139Z</time></trkpt><trkpt lat="46.0383219" lon="13.505694"><ele>224.60000000000002</ele><time>2026-05-03T09:35:41.138Z</time></trkpt><trkpt lat="46.0384266" lon="13.5057758"><ele>227.8</ele><time>2026-05-03T09:35:43.139Z</time></trkpt><trkpt lat="46.038482" lon="13.5058209"><ele>231.0</ele><time>2026-05-03T09:35:44.138Z</time></trkpt><trkpt lat="46.038579" lon="13.5059185"><ele>231.0</ele><time>2026-05-03T09:35:46.139Z</time></trkpt><trkpt lat="46.0386268" lon="13.5059831"><ele>231.0</ele><time>2026-05-03T09:35:47.139Z</time></trkpt><trkpt lat="46.0386708" lon="13.5060497"><ele>231.0</ele><time>2026-05-03T09:35:48.139Z</time></trkpt><trkpt lat="46.0387252" lon="13.5061018"><ele>231.0</ele><time>2026-05-03T09:35:49.139Z</time></trkpt><trkpt lat="46.0388384" lon="13.5061677"><ele>231.0</ele><time>2026-05-03T09:35:51.138Z</time></trkpt><trkpt lat="46.038952" lon="13.5061934"><ele>231.0</ele><time>2026-05-03T09:35:53.138Z</time></trkpt><trkpt lat="46.0390624" lon="13.5061379"><ele>231.0</ele><time>2026-05-03T09:35:55.14Z</time></trkpt><trkpt lat="46.0391292" lon="13.5060809"><ele>231.0</ele><time>2026-05-03T09:35:56.14Z</time></trkpt><trkpt lat="46.0391939" lon="13.5060104"><ele>231.0</ele><time>2026-05-03T09:35:57.14Z</time></trkpt><trkpt lat="46.0392499" lon="13.5059435"><ele>231.0</ele><time>2026-05-03T09:35:58.139Z</time></trkpt><trkpt lat="46.0393021" lon="13.5058732"><ele>231.0</ele><time>2026-05-03T09:35:59.14Z</time></trkpt><trkpt lat="46.0393531" lon="13.5057809"><ele>231.0</ele><time>2026-05-03T09:36:00.14Z</time></trkpt><trkpt lat="46.0394" lon="13.5056817"><ele>231.0</ele><time>2026-05-03T09:36:01.14Z</time></trkpt><trkpt lat="46.0394455" lon="13.5055901"><ele>231.0</ele><time>2026-05-03T09:36:02.14Z</time></trkpt><trkpt lat="46.0394892" lon="13.5054961"><ele>231.0</ele><time>2026-05-03T09:36:03.14Z</time></trkpt><trkpt lat="46.0395341" lon="13.5054059"><ele>231.0</ele><time>2026-05-03T09:36:04.14Z</time></trkpt><trkpt lat="46.0395702" lon="13.5053092"><ele>231.0</ele><time>2026-05-03T09:36:05.14Z</time></trkpt><trkpt lat="46.0396067" lon="13.505213"><ele>231.0</ele><time>2026-05-03T09:36:06.14Z</time></trkpt><trkpt lat="46.0396423" lon="13.505122"><ele>227.66666666666666</ele><time>2026-05-03T09:36:07.14Z</time></trkpt><trkpt lat="46.0396774" lon="13.5050211"><ele>224.33333333333331</ele><time>2026-05-03T09:36:08.139Z</time></trkpt><trkpt lat="46.0397002" lon="13.5049268"><ele>221.0</ele><time>2026-05-03T09:36:09.14Z</time></trkpt><trkpt lat="46.0397533" lon="13.5048242"><ele>217.66666666666666</ele><time>2026-05-03T09:36:11.14Z</time></trkpt><trkpt lat="46.0398379" lon="13.504847"><ele>214.33333333333331</ele><time>2026-05-03T09:36:19.14Z</time></trkpt><trkpt lat="46.039857" lon="13.5049562"><ele>211.0</ele><time>2026-05-03T09:36:21.139Z</time></trkpt><trkpt lat="46.0397926" lon="13.5050553"><ele>211.0</ele><time>2026-05-03T09:36:23.14Z</time></trkpt><trkpt lat="46.0397323" lon="13.5051684"><ele>211.0</ele><time>2026-05-03T09:36:25.14Z</time></trkpt><trkpt lat="46.0396789" lon="13.5053062"><ele>211.0</ele><time>2026-05-03T09:36:27.14Z</time></trkpt><trkpt lat="46.0396541" lon="13.5053909"><ele>211.0</ele><time>2026-05-03T09:36:28.14Z</time></trkpt><trkpt lat="46.0396125" lon="13.5055526"><ele>211.0</ele><time>2026-05-03T09:36:30.14Z</time></trkpt><trkpt lat="46.0395642" lon="13.5056861"><ele>215.0</ele><time>2026-05-03T09:36:32.14Z</time></trkpt><trkpt lat="46.0395198" lon="13.5058325"><ele>219.0</ele><time>2026-05-03T09:36:34.14Z</time></trkpt><trkpt lat="46.0394619" lon="13.5060074"><ele>223.00000000000003</ele><time>2026-05-03T09:36:36.139Z</time></trkpt><trkpt lat="46.0394269" lon="13.5061037"><ele>227.0</ele><time>2026-05-03T09:36:37.139Z</time></trkpt><trkpt lat="46.0393929" lon="13.5062018"><ele>231.0</ele><time>2026-05-03T09:36:38.14Z</time></trkpt><trkpt lat="46.0393581" lon="13.5062933"><ele>233.33333333333334</ele><time>2026-05-03T09:36:39.14Z</time></trkpt><trkpt lat="46.0393183" lon="13.5063797"><ele>235.66666666666669</ele><time>2026-05-03T09:36:40.139Z</time></trkpt><trkpt lat="46.0392805" lon="13.506462"><ele>238.0</ele><time>2026-05-03T09:36:41.14Z</time></trkpt><trkpt lat="46.0392497" lon="13.5065419"><ele>240.33333333333334</ele><time>2026-05-03T09:36:42.14Z</time></trkpt><trkpt lat="46.0392029" lon="13.5066392"><ele>242.66666666666669</ele><time>2026-05-03T09:36:43.139Z</time></trkpt><trkpt lat="46.0391423" lon="13.5067281"><ele>245.0</ele><time>2026-05-03T09:36:44.14Z</time></trkpt><trkpt lat="46.0390739" lon="13.5068015"><ele>245.00000000000003</ele><time>2026-05-03T09:36:45.14Z</time></trkpt><trkpt lat="46.0390245" lon="13.5068615"><ele>245.0</ele><time>2026-05-03T09:36:46.14Z</time></trkpt><trkpt lat="46.0389371" lon="13.5069685"><ele>245.0</ele><time>2026-05-03T09:36:48.14Z</time></trkpt><trkpt lat="46.0388675" lon="13.5070553"><ele>245.0</ele><time>2026-05-03T09:36:50.139Z</time></trkpt><trkpt lat="46.0388768" lon="13.5071466"><ele>245.00000000000003</ele><time>2026-05-03T09:36:53.14Z</time></trkpt><trkpt lat="46.0389359" lon="13.5071065"><ele>245.0</ele><time>2026-05-03T09:36:56.139Z</time></trkpt><trkpt lat="46.0390092" lon="13.5070283"><ele>245.00000000000003</ele><time>2026-05-03T09:36:59.14Z</time></trkpt><trkpt lat="46.039061" lon="13.5069765"><ele>245.0</ele><time>2026-05-03T09:37:01.14Z</time></trkpt><trkpt lat="46.0391234" lon="13.5068946"><ele>245.0</ele><time>2026-05-03T09:37:03.139Z</time></trkpt><trkpt lat="46.0392013" lon="13.5067892"><ele>245.0</ele><time>2026-05-03T09:37:05.14Z</time></trkpt><trkpt lat="46.0392689" lon="13.5066999"><ele>245.00000000000003</ele><time>2026-05-03T09:37:07.14Z</time></trkpt><trkpt lat="46.0393389" lon="13.5065997"><ele>245.0</ele><time>2026-05-03T09:37:09.139Z</time></trkpt><trkpt lat="46.039409" lon="13.5064933"><ele>246.4</ele><time>2026-05-03T09:37:11.14Z</time></trkpt><trkpt lat="46.0394773" lon="13.5063948"><ele>247.8</ele><time>2026-05-03T09:37:13.139Z</time></trkpt><trkpt lat="46.0395313" lon="13.5063114"><ele>249.2</ele><time>2026-05-03T09:37:15.14Z</time></trkpt><trkpt lat="46.0395922" lon="13.5062157"><ele>250.6</ele><time>2026-05-03T09:37:17.14Z</time></trkpt><trkpt lat="46.0396693" lon="13.5060871"><ele>252.0</ele><time>2026-05-03T09:37:19.14Z</time></trkpt><trkpt lat="46.0397304" lon="13.5059583"><ele>253.2</ele><time>2026-05-03T09:37:21.14Z</time></trkpt><trkpt lat="46.0397991" lon="13.5058547"><ele>254.39999999999998</ele><time>2026-05-03T09:37:23.14Z</time></trkpt><trkpt lat="46.0398765" lon="13.5057203"><ele>255.60000000000002</ele><time>2026-05-03T09:37:25.14Z</time></trkpt><trkpt lat="46.0399554" lon="13.5056087"><ele>256.8</ele><time>2026-05-03T09:37:27.139Z</time></trkpt><trkpt lat="46.0400369" lon="13.5055421"><ele>258.0</ele><time>2026-05-03T09:37:29.14Z</time></trkpt><trkpt lat="46.0401164" lon="13.5055051"><ele>258.0</ele><time>2026-05-03T09:37:31.14Z</time></trkpt><trkpt lat="46.0402065" lon="13.5054951"><ele>258.0</ele><time>2026-05-03T09:37:33.14Z</time></trkpt><trkpt lat="46.0402724" lon="13.5054859"><ele>258.0</ele><time>2026-05-03T09:37:34.14Z</time></trkpt><trkpt lat="46.0403376" lon="13.5054872"><ele>258.0</ele><time>2026-05-03T09:37:35.14Z</time></trkpt><trkpt lat="46.0404009" lon="13.5055015"><ele>258.0</ele><time>2026-05-03T09:37:36.139Z</time></trkpt><trkpt lat="46.0405176" lon="13.5055464"><ele>258.0</ele><time>2026-05-03T09:37:38.14Z</time></trkpt><trkpt lat="46.0406283" lon="13.5056259"><ele>258.0</ele><time>2026-05-03T09:37:40.14Z</time></trkpt><trkpt lat="46.0406927" lon="13.5056846"><ele>258.0</ele><time>2026-05-03T09:37:41.139Z</time></trkpt><trkpt lat="46.0407575" lon="13.5057322"><ele>258.0</ele><time>2026-05-03T09:37:42.14Z</time></trkpt><trkpt lat="46.0408211" lon="13.5057732"><ele>258.0</ele><time>2026-05-03T09:37:43.14Z</time></trkpt><trkpt lat="46.0408832" lon="13.5058017"><ele>258.0</ele><time>2026-05-03T09:37:44.139Z</time></trkpt><trkpt lat="46.0410092" lon="13.5058417"><ele>258.0</ele><time>2026-05-03T09:37:46.139Z</time></trkpt><trkpt lat="46.0410844" lon="13.5058654"><ele>259.8333333333333</ele><time>2026-05-03T09:37:47.139Z</time></trkpt><trkpt lat="46.041161" lon="13.5058931"><ele>261.6666666666667</ele><time>2026-05-03T09:37:48.14Z</time></trkpt><trkpt lat="46.0412727" lon="13.5059238"><ele>263.5</ele><time>2026-05-03T09:37:50.139Z</time></trkpt><trkpt lat="46.0413527" lon="13.5059577"><ele>265.33333333333337</ele><time>2026-05-03T09:37:51.138Z</time></trkpt><trkpt lat="46.041437" lon="13.5059896"><ele>267.1666666666667</ele><time>2026-05-03T09:37:52.139Z</time></trkpt><trkpt lat="46.0415091" lon="13.5060048"><ele>269.0</ele><time>2026-05-03T09:37:53.139Z</time></trkpt><trkpt lat="46.0416224" lon="13.5060174"><ele>268.83333333333337</ele><time>2026-05-03T09:37:55.139Z</time></trkpt><trkpt lat="46.0416852" lon="13.5060367"><ele>268.6666666666667</ele><time>2026-05-03T09:37:56.139Z</time></trkpt><trkpt lat="46.0417486" lon="13.5060554"><ele>268.5</ele><time>2026-05-03T09:37:57.139Z</time></trkpt><trkpt lat="46.0418683" lon="13.5061093"><ele>268.3333333333333</ele><time>2026-05-03T09:37:59.139Z</time></trkpt><trkpt lat="46.0419343" lon="13.5061705"><ele>268.16666666666663</ele><time>2026-05-03T09:38:00.138Z</time></trkpt><trkpt lat="46.0419945" lon="13.5062136"><ele>268.0</ele><time>2026-05-03T09:38:01.139Z</time></trkpt><trkpt lat="46.0421043" lon="13.506286"><ele>271.8333333333333</ele><time>2026-05-03T09:38:03.139Z</time></trkpt><trkpt lat="46.0422315" lon="13.50631"><ele>275.66666666666663</ele><time>2026-05-03T09:38:05.139Z</time></trkpt><trkpt lat="46.0422969" lon="13.5063051"><ele>279.5</ele><time>2026-05-03T09:38:06.138Z</time></trkpt><trkpt lat="46.04236" lon="13.5063207"><ele>283.3333333333333</ele><time>2026-05-03T09:38:07.139Z</time></trkpt><trkpt lat="46.0424221" lon="13.5063485"><ele>287.1666666666667</ele><time>2026-05-03T09:38:08.139Z</time></trkpt><trkpt lat="46.0424873" lon="13.5063823"><ele>291.0</ele><time>2026-05-03T09:38:09.139Z</time></trkpt><trkpt lat="46.0425918" lon="13.5064609"><ele>291.0</ele><time>2026-05-03T09:38:11.138Z</time></trkpt><trkpt lat="46.0426773" lon="13.5064837"><ele>291.0</ele><time>2026-05-03T09:38:13.139Z</time></trkpt><trkpt lat="46.0427734" lon="13.5064558"><ele>291.0</ele><time>2026-05-03T09:38:16.139Z</time></trkpt><trkpt lat="46.0428595" lon="13.5064105"><ele>291.0</ele><time>2026-05-03T09:38:18.139Z</time></trkpt><trkpt lat="46.0429635" lon="13.5063832"><ele>291.0</ele><time>2026-05-03T09:38:20.138Z</time></trkpt><trkpt lat="46.0430722" lon="13.5063794"><ele>291.0</ele><time>2026-05-03T09:38:22.138Z</time></trkpt><trkpt lat="46.0431601" lon="13.506443"><ele>291.0</ele><time>2026-05-03T09:38:24.139Z</time></trkpt><trkpt lat="46.0432449" lon="13.506571"><ele>291.0</ele><time>2026-05-03T09:38:26.138Z</time></trkpt><trkpt lat="46.043282" lon="13.5066491"><ele>291.0</ele><time>2026-05-03T09:38:27.139Z</time></trkpt><trkpt lat="46.0433213" lon="13.5067358"><ele>291.0</ele><time>2026-05-03T09:38:28.139Z</time></trkpt><trkpt lat="46.0433547" lon="13.506818"><ele>291.0</ele><time>2026-05-03T09:38:29.139Z</time></trkpt><trkpt lat="46.0434185" lon="13.5069585"><ele>293.75</ele><time>2026-05-03T09:38:31.139Z</time></trkpt><trkpt lat="46.0434916" lon="13.5070776"><ele>296.5</ele><time>2026-05-03T09:38:33.139Z</time></trkpt><trkpt lat="46.0435884" lon="13.5071724"><ele>299.25</ele><time>2026-05-03T09:38:35.139Z</time></trkpt><trkpt lat="46.0436878" lon="13.5072737"><ele>302.0</ele><time>2026-05-03T09:38:37.139Z</time></trkpt><trkpt lat="46.0437785" lon="13.5073907"><ele>302.00000000000006</ele><time>2026-05-03T09:38:39.138Z</time></trkpt><trkpt lat="46.0438258" lon="13.5074702"><ele>302.0</ele><time>2026-05-03T09:38:40.138Z</time></trkpt><trkpt lat="46.0438691" lon="13.5075734"><ele>302.0</ele><time>2026-05-03T09:38:41.139Z</time></trkpt><trkpt lat="46.0438891" lon="13.5076751"><ele>302.0</ele><time>2026-05-03T09:38:42.139Z</time></trkpt><trkpt lat="46.0439021" lon="13.5077688"><ele>302.0</ele><time>2026-05-03T09:38:43.139Z</time></trkpt><trkpt lat="46.0439192" lon="13.507861"><ele>302.00000000000006</ele><time>2026-05-03T09:38:44.139Z</time></trkpt><trkpt lat="46.0439323" lon="13.5079614"><ele>302.0</ele><time>2026-05-03T09:38:45.138Z</time></trkpt><trkpt lat="46.043952" lon="13.508057"><ele>304.28571428571433</ele><time>2026-05-03T09:38:46.138Z</time></trkpt><trkpt lat="46.043957" lon="13.5081514"><ele>306.57142857142856</ele><time>2026-05-03T09:38:47.139Z</time></trkpt><trkpt lat="46.0439512" lon="13.5082528"><ele>308.8571428571429</ele><time>2026-05-03T09:38:48.139Z</time></trkpt><trkpt lat="46.0439587" lon="13.5083528"><ele>311.14285714285717</ele><time>2026-05-03T09:38:49.139Z</time></trkpt><trkpt lat="46.0439762" lon="13.5084618"><ele>313.42857142857144</ele><time>2026-05-03T09:38:50.138Z</time></trkpt><trkpt lat="46.0439952" lon="13.5085684"><ele>315.7142857142857</ele><time>2026-05-03T09:38:51.139Z</time></trkpt><trkpt lat="46.0440023" lon="13.5086746"><ele>318.0</ele><time>2026-05-03T09:38:52.138Z</time></trkpt><trkpt lat="46.044025" lon="13.5087693"><ele>318.1428571428571</ele><time>2026-05-03T09:38:53.138Z</time></trkpt><trkpt lat="46.0440454" lon="13.5088612"><ele>318.28571428571433</ele><time>2026-05-03T09:38:54.139Z</time></trkpt><trkpt lat="46.0440678" lon="13.5089575"><ele>318.42857142857144</ele><time>2026-05-03T09:38:55.139Z</time></trkpt><trkpt lat="46.0440863" lon="13.5090613"><ele>318.57142857142856</ele><time>2026-05-03T09:38:56.139Z</time></trkpt><trkpt lat="46.0441116" lon="13.5091734"><ele>318.71428571428567</ele><time>2026-05-03T09:38:57.138Z</time></trkpt><trkpt lat="46.044139" lon="13.5092826"><ele>318.8571428571429</ele><time>2026-05-03T09:38:58.139Z</time></trkpt><trkpt lat="46.0441623" lon="13.5093691"><ele>319.0</ele><time>2026-05-03T09:38:59.139Z</time></trkpt><trkpt lat="46.044198" lon="13.5095387"><ele>318.14285714285717</ele><time>2026-05-03T09:39:01.139Z</time></trkpt><trkpt lat="46.0442148" lon="13.5096327"><ele>317.2857142857143</ele><time>2026-05-03T09:39:02.139Z</time></trkpt><trkpt lat="46.044238" lon="13.5097336"><ele>316.42857142857144</ele><time>2026-05-03T09:39:03.139Z</time></trkpt><trkpt lat="46.0442681" lon="13.5098383"><ele>315.57142857142856</ele><time>2026-05-03T09:39:04.138Z</time></trkpt><trkpt lat="46.0442955" lon="13.5099465"><ele>314.7142857142857</ele><time>2026-05-03T09:39:05.139Z</time></trkpt><trkpt lat="46.0443182" lon="13.5100529"><ele>313.85714285714283</ele><time>2026-05-03T09:39:06.139Z</time></trkpt><trkpt lat="46.04434" lon="13.5101506"><ele>313.0</ele><time>2026-05-03T09:39:07.139Z</time></trkpt><trkpt lat="46.0443565" lon="13.5102502"><ele>313.0</ele><time>2026-05-03T09:39:08.139Z</time></trkpt><trkpt lat="46.0443773" lon="13.5103456"><ele>313.0</ele><time>2026-05-03T09:39:09.139Z</time></trkpt><trkpt lat="46.0444128" lon="13.5105227"><ele>313.0</ele><time>2026-05-03T09:39:11.139Z</time></trkpt><trkpt lat="46.0444295" lon="13.510614"><ele>313.0</ele><time>2026-05-03T09:39:12.139Z</time></trkpt><trkpt lat="46.044452" lon="13.510711"><ele>313.0</ele><time>2026-05-03T09:39:13.139Z</time></trkpt><trkpt lat="46.044484" lon="13.5108135"><ele>313.0</ele><time>2026-05-03T09:39:14.139Z</time></trkpt><trkpt lat="46.0445094" lon="13.5109057"><ele>314.2857142857143</ele><time>2026-05-03T09:39:15.138Z</time></trkpt><trkpt lat="46.044528" lon="13.5109939"><ele>315.57142857142856</ele><time>2026-05-03T09:39:16.138Z</time></trkpt><trkpt lat="46.0445236" lon="13.5110909"><ele>316.8571428571429</ele><time>2026-05-03T09:39:17.139Z</time></trkpt><trkpt lat="46.0445233" lon="13.5111911"><ele>318.1428571428571</ele><time>2026-05-03T09:39:18.139Z</time></trkpt><trkpt lat="46.0445258" lon="13.5112835"><ele>319.42857142857144</ele><time>2026-05-03T09:39:19.139Z</time></trkpt><trkpt lat="46.0445303" lon="13.5113865"><ele>320.7142857142857</ele><time>2026-05-03T09:39:20.139Z</time></trkpt><trkpt lat="46.0445376" lon="13.5114881"><ele>322.0</ele><time>2026-05-03T09:39:21.139Z</time></trkpt><trkpt lat="46.0445475" lon="13.5116396"><ele>322.0</ele><time>2026-05-03T09:39:23.139Z</time></trkpt><trkpt lat="46.0445135" lon="13.5117473"><ele>322.0</ele><time>2026-05-03T09:39:26.139Z</time></trkpt><trkpt lat="46.0444621" lon="13.5116402"><ele>322.0</ele><time>2026-05-03T09:39:29.139Z</time></trkpt><trkpt lat="46.0444597" lon="13.5114868"><ele>322.0</ele><time>2026-05-03T09:39:31.139Z</time></trkpt><trkpt lat="46.0444563" lon="13.5113254"><ele>322.0</ele><time>2026-05-03T09:39:33.139Z</time></trkpt><trkpt lat="46.0444367" lon="13.5111669"><ele>322.0</ele><time>2026-05-03T09:39:35.138Z</time></trkpt><trkpt lat="46.0444234" lon="13.5110693"><ele>322.0</ele><time>2026-05-03T09:39:36.139Z</time></trkpt><trkpt lat="46.0443905" lon="13.5109025"><ele>322.0</ele><time>2026-05-03T09:39:38.139Z</time></trkpt><trkpt lat="46.0443646" lon="13.5108043"><ele>322.0</ele><time>2026-05-03T09:39:39.139Z</time></trkpt><trkpt lat="46.0443312" lon="13.5107174"><ele>322.0</ele><time>2026-05-03T09:39:40.139Z</time></trkpt><trkpt lat="46.0442942" lon="13.5106242"><ele>322.0</ele><time>2026-05-03T09:39:41.138Z</time></trkpt><trkpt lat="46.0442558" lon="13.510515"><ele>322.0</ele><time>2026-05-03T09:39:42.139Z</time></trkpt><trkpt lat="46.044218" lon="13.5104118"><ele>322.0</ele><time>2026-05-03T09:39:43.138Z</time></trkpt><trkpt lat="46.0441844" lon="13.5103245"><ele>322.0</ele><time>2026-05-03T09:39:44.138Z</time></trkpt><trkpt lat="46.0441108" lon="13.5101809"><ele>322.0</ele><time>2026-05-03T09:39:46.139Z</time></trkpt><trkpt lat="46.0440718" lon="13.5101093"><ele>322.0</ele><time>2026-05-03T09:39:47.138Z</time></trkpt><trkpt lat="46.0439934" lon="13.5099725"><ele>322.16666666666663</ele><time>2026-05-03T09:39:49.139Z</time></trkpt><trkpt lat="46.0439505" lon="13.5098804"><ele>322.3333333333333</ele><time>2026-05-03T09:39:50.139Z</time></trkpt><trkpt lat="46.043917" lon="13.5097864"><ele>322.5</ele><time>2026-05-03T09:39:51.139Z</time></trkpt><trkpt lat="46.0438727" lon="13.5096971"><ele>322.6666666666667</ele><time>2026-05-03T09:39:52.139Z</time></trkpt><trkpt lat="46.0438324" lon="13.5096065"><ele>322.83333333333337</ele><time>2026-05-03T09:39:53.139Z</time></trkpt><trkpt lat="46.0437924" lon="13.5095192"><ele>323.0</ele><time>2026-05-03T09:39:54.138Z</time></trkpt><trkpt lat="46.0437402" lon="13.5093433"><ele>322.33333333333337</ele><time>2026-05-03T09:39:56.139Z</time></trkpt><trkpt lat="46.0437107" lon="13.5092436"><ele>321.6666666666667</ele><time>2026-05-03T09:39:57.138Z</time></trkpt><trkpt lat="46.043678" lon="13.5091525"><ele>321.0</ele><time>2026-05-03T09:39:58.139Z</time></trkpt><trkpt lat="46.0436491" lon="13.5090641"><ele>320.3333333333333</ele><time>2026-05-03T09:39:59.139Z</time></trkpt><trkpt lat="46.0436187" lon="13.508981"><ele>319.66666666666663</ele><time>2026-05-03T09:40:00.138Z</time></trkpt><trkpt lat="46.0435811" lon="13.5088117"><ele>319.0</ele><time>2026-05-03T09:40:02.139Z</time></trkpt><trkpt lat="46.043565" lon="13.5087148"><ele>318.8333333333333</ele><time>2026-05-03T09:40:03.139Z</time></trkpt><trkpt lat="46.0435458" lon="13.5086167"><ele>318.66666666666663</ele><time>2026-05-03T09:40:04.139Z</time></trkpt><trkpt lat="46.043526" lon="13.5085192"><ele>318.5</ele><time>2026-05-03T09:40:05.139Z</time></trkpt><trkpt lat="46.0434977" lon="13.5084166"><ele>318.3333333333333</ele><time>2026-05-03T09:40:06.138Z</time></trkpt><trkpt lat="46.0434794" lon="13.5083285"><ele>318.1666666666667</ele><time>2026-05-03T09:40:07.139Z</time></trkpt><trkpt lat="46.0434424" lon="13.5081928"><ele>318.0</ele><time>2026-05-03T09:40:09.138Z</time></trkpt><trkpt lat="46.0433907" lon="13.5081281"><ele>318.0</ele><time>2026-05-03T09:40:11.139Z</time></trkpt><trkpt lat="46.0433259" lon="13.5081312"><ele>318.0</ele><time>2026-05-03T09:40:13.138Z</time></trkpt><trkpt lat="46.043313" lon="13.5082493"><ele>318.0</ele><time>2026-05-03T09:40:15.139Z</time></trkpt><trkpt lat="46.0433277" lon="13.5083632"><ele>318.0</ele><time>2026-05-03T09:40:17.139Z</time></trkpt><trkpt lat="46.0433796" lon="13.5085032"><ele>318.0</ele><time>2026-05-03T09:40:19.138Z</time></trkpt><trkpt lat="46.0434113" lon="13.5085919"><ele>318.0</ele><time>2026-05-03T09:40:20.139Z</time></trkpt><trkpt lat="46.0434475" lon="13.5086865"><ele>318.1428571428571</ele><time>2026-05-03T09:40:21.139Z</time></trkpt><trkpt lat="46.0434816" lon="13.5087807"><ele>318.28571428571433</ele><time>2026-05-03T09:40:22.138Z</time></trkpt><trkpt lat="46.0435103" lon="13.5088676"><ele>318.42857142857144</ele><time>2026-05-03T09:40:23.138Z</time></trkpt><trkpt lat="46.0435221" lon="13.5089575"><ele>318.57142857142856</ele><time>2026-05-03T09:40:24.139Z</time></trkpt><trkpt lat="46.0435341" lon="13.5090739"><ele>318.71428571428567</ele><time>2026-05-03T09:40:25.138Z</time></trkpt><trkpt lat="46.0435383" lon="13.509198"><ele>318.8571428571429</ele><time>2026-05-03T09:40:26.139Z</time></trkpt><trkpt lat="46.0435386" lon="13.5093085"><ele>319.0</ele><time>2026-05-03T09:40:27.139Z</time></trkpt><trkpt lat="46.0435483" lon="13.5094199"><ele>319.0</ele><time>2026-05-03T09:40:28.138Z</time></trkpt><trkpt lat="46.0435617" lon="13.5095331"><ele>319.0</ele><time>2026-05-03T09:40:29.139Z</time></trkpt><trkpt lat="46.0435772" lon="13.5096366"><ele>319.0</ele><time>2026-05-03T09:40:30.139Z</time></trkpt><trkpt lat="46.0436" lon="13.5097451"><ele>319.0</ele><time>2026-05-03T09:40:31.139Z</time></trkpt><trkpt lat="46.0436292" lon="13.5098634"><ele>319.0</ele><time>2026-05-03T09:40:32.139Z</time></trkpt><trkpt lat="46.0436637" lon="13.5100051"><ele>319.0</ele><time>2026-05-03T09:40:33.139Z</time></trkpt><trkpt lat="46.0437042" lon="13.510144"><ele>319.66666666666663</ele><time>2026-05-03T09:40:34.139Z</time></trkpt><trkpt lat="46.0437395" lon="13.5102773"><ele>320.3333333333333</ele><time>2026-05-03T09:40:35.139Z</time></trkpt><trkpt lat="46.0437582" lon="13.5103926"><ele>321.0</ele><time>2026-05-03T09:40:36.139Z</time></trkpt><trkpt lat="46.0437774" lon="13.5105392"><ele>321.6666666666667</ele><time>2026-05-03T09:40:38.138Z</time></trkpt><trkpt lat="46.043756" lon="13.5106342"><ele>322.33333333333337</ele><time>2026-05-03T09:40:40.139Z</time></trkpt><trkpt lat="46.0436904" lon="13.5107022"><ele>323.0</ele><time>2026-05-03T09:40:59.139Z</time></trkpt><trkpt lat="46.0436484" lon="13.5108512"><ele>323.0</ele><time>2026-05-03T09:41:01.139Z</time></trkpt><trkpt lat="46.043644" lon="13.5109722"><ele>323.0</ele><time>2026-05-03T09:41:02.139Z</time></trkpt><trkpt lat="46.0436432" lon="13.5111043"><ele>323.0</ele><time>2026-05-03T09:41:03.139Z</time></trkpt><trkpt lat="46.0436461" lon="13.5112377"><ele>323.0</ele><time>2026-05-03T09:41:04.139Z</time></trkpt><trkpt lat="46.043642" lon="13.5113782"><ele>323.0</ele><time>2026-05-03T09:41:05.138Z</time></trkpt><trkpt lat="46.0436333" lon="13.5115052"><ele>323.79999999999995</ele><time>2026-05-03T09:41:06.139Z</time></trkpt><trkpt lat="46.0436143" lon="13.511633"><ele>324.6</ele><time>2026-05-03T09:41:07.139Z</time></trkpt><trkpt lat="46.0435516" lon="13.5117373"><ele>325.4</ele><time>2026-05-03T09:41:08.138Z</time></trkpt><trkpt lat="46.0434613" lon="13.5118061"><ele>326.20000000000005</ele><time>2026-05-03T09:41:09.139Z</time></trkpt><trkpt lat="46.0433508" lon="13.5118215"><ele>327.0</ele><time>2026-05-03T09:41:10.139Z</time></trkpt><trkpt lat="46.0432315" lon="13.5118163"><ele>327.0</ele><time>2026-05-03T09:41:11.139Z</time></trkpt><trkpt lat="46.0431075" lon="13.5117857"><ele>327.0</ele><time>2026-05-03T09:41:12.139Z</time></trkpt><trkpt lat="46.0429762" lon="13.5117443"><ele>327.0</ele><time>2026-05-03T09:41:13.139Z</time></trkpt><trkpt lat="46.0428469" lon="13.5117104"><ele>327.0</ele><time>2026-05-03T09:41:14.138Z</time></trkpt><trkpt lat="46.0427175" lon="13.5116812"><ele>327.0</ele><time>2026-05-03T09:41:15.139Z</time></trkpt><trkpt lat="46.0425923" lon="13.5116533"><ele>327.0</ele><time>2026-05-03T09:41:16.138Z</time></trkpt><trkpt lat="46.0424703" lon="13.5116219"><ele>327.0</ele><time>2026-05-03T09:41:17.138Z</time></trkpt><trkpt lat="46.0423571" lon="13.5116006"><ele>327.0</ele><time>2026-05-03T09:41:18.139Z</time></trkpt><trkpt lat="46.0422442" lon="13.5115753"><ele>323.75</ele><time>2026-05-03T09:41:19.138Z</time></trkpt><trkpt lat="46.0421349" lon="13.5115666"><ele>320.5</ele><time>2026-05-03T09:41:20.139Z</time></trkpt><trkpt lat="46.0420147" lon="13.5115966"><ele>317.25</ele><time>2026-05-03T09:41:21.139Z</time></trkpt><trkpt lat="46.0418937" lon="13.5116836"><ele>314.0</ele><time>2026-05-03T09:41:22.139Z</time></trkpt><trkpt lat="46.0417769" lon="13.5117882"><ele>314.0</ele><time>2026-05-03T09:41:23.138Z</time></trkpt><trkpt lat="46.0416585" lon="13.5118916"><ele>314.0</ele><time>2026-05-03T09:41:24.139Z</time></trkpt><trkpt lat="46.0415495" lon="13.51199"><ele>314.0</ele><time>2026-05-03T09:41:25.139Z</time></trkpt><trkpt lat="46.0414474" lon="13.512081"><ele>314.0</ele><time>2026-05-03T09:41:26.139Z</time></trkpt><trkpt lat="46.0413547" lon="13.512157"><ele>314.6666666666667</ele><time>2026-05-03T09:41:27.138Z</time></trkpt><trkpt lat="46.0412749" lon="13.5122314"><ele>315.33333333333337</ele><time>2026-05-03T09:41:28.139Z</time></trkpt><trkpt lat="46.0412047" lon="13.5122741"><ele>316.0</ele><time>2026-05-03T09:41:29.139Z</time></trkpt><trkpt lat="46.0411361" lon="13.5122907"><ele>316.6666666666667</ele><time>2026-05-03T09:41:30.139Z</time></trkpt><trkpt lat="46.0411027" lon="13.5121422"><ele>317.3333333333333</ele><time>2026-05-03T09:41:32.139Z</time></trkpt><trkpt lat="46.0411442" lon="13.5120637"><ele>318.0</ele><time>2026-05-03T09:41:33.138Z</time></trkpt><trkpt lat="46.0412251" lon="13.5120072"><ele>315.5</ele><time>2026-05-03T09:41:34.138Z</time></trkpt><trkpt lat="46.0413208" lon="13.5119498"><ele>313.0</ele><time>2026-05-03T09:41:35.139Z</time></trkpt><trkpt lat="46.0414099" lon="13.5118639"><ele>310.5</ele><time>2026-05-03T09:41:36.139Z</time></trkpt><trkpt lat="46.0415012" lon="13.5117422"><ele>308.0</ele><time>2026-05-03T09:41:37.138Z</time></trkpt><trkpt lat="46.0415892" lon="13.5116111"><ele>309.5</ele><time>2026-05-03T09:41:38.139Z</time></trkpt><trkpt lat="46.0416738" lon="13.5114968"><ele>311.0</ele><time>2026-05-03T09:41:39.139Z</time></trkpt><trkpt lat="46.0417664" lon="13.5113941"><ele>312.5</ele><time>2026-05-03T09:41:40.139Z</time></trkpt><trkpt lat="46.0418644" lon="13.511324"><ele>314.0</ele><time>2026-05-03T09:41:41.138Z</time></trkpt><trkpt lat="46.0419755" lon="13.511274"><ele>314.0</ele><time>2026-05-03T09:41:42.139Z</time></trkpt><trkpt lat="46.0420839" lon="13.5112434"><ele>314.0</ele><time>2026-05-03T09:41:43.139Z</time></trkpt><trkpt lat="46.0421739" lon="13.5112164"><ele>314.0</ele><time>2026-05-03T09:41:44.138Z</time></trkpt><trkpt lat="46.0422444" lon="13.5111833"><ele>314.0</ele><time>2026-05-03T09:41:45.139Z</time></trkpt><trkpt lat="46.0422871" lon="13.5111104"><ele>314.0</ele><time>2026-05-03T09:41:46.137Z</time></trkpt><trkpt lat="46.0422522" lon="13.5109716"><ele>314.0</ele><time>2026-05-03T09:41:48.138Z</time></trkpt><trkpt lat="46.0421795" lon="13.5109388"><ele>310.59999999999997</ele><time>2026-05-03T09:41:49.138Z</time></trkpt><trkpt lat="46.0420816" lon="13.5109574"><ele>307.2</ele><time>2026-05-03T09:41:50.137Z</time></trkpt><trkpt lat="46.0419752" lon="13.5109946"><ele>303.79999999999995</ele><time>2026-05-03T09:41:51.138Z</time></trkpt><trkpt lat="46.0418653" lon="13.5110252"><ele>300.4</ele><time>2026-05-03T09:41:52.138Z</time></trkpt><trkpt lat="46.0417499" lon="13.5110522"><ele>297.0</ele><time>2026-05-03T09:41:53.138Z</time></trkpt><trkpt lat="46.041645" lon="13.5111017"><ele>295.25</ele><time>2026-05-03T09:41:54.137Z</time></trkpt><trkpt lat="46.0415541" lon="13.5111918"><ele>293.5</ele><time>2026-05-03T09:41:55.138Z</time></trkpt><trkpt lat="46.041465" lon="13.5113169"><ele>291.75</ele><time>2026-05-03T09:41:56.138Z</time></trkpt><trkpt lat="46.041374" lon="13.5114404"><ele>290.0</ele><time>2026-05-03T09:41:57.137Z</time></trkpt><trkpt lat="46.0412761" lon="13.511537"><ele>293.6</ele><time>2026-05-03T09:41:58.138Z</time></trkpt><trkpt lat="46.0411738" lon="13.5116018"><ele>297.2</ele><time>2026-05-03T09:41:59.138Z</time></trkpt><trkpt lat="46.0410651" lon="13.511619"><ele>300.8</ele><time>2026-05-03T09:42:00.138Z</time></trkpt><trkpt lat="46.0409644" lon="13.5115872"><ele>304.4</ele><time>2026-05-03T09:42:01.137Z</time></trkpt><trkpt lat="46.0408658" lon="13.5115046"><ele>308.0</ele><time>2026-05-03T09:42:02.138Z</time></trkpt><trkpt lat="46.0407768" lon="13.5113837"><ele>302.5</ele><time>2026-05-03T09:42:03.138Z</time></trkpt><trkpt lat="46.0406992" lon="13.5112295"><ele>297.0</ele><time>2026-05-03T09:42:04.138Z</time></trkpt><trkpt lat="46.0406318" lon="13.5110885"><ele>291.5</ele><time>2026-05-03T09:42:05.137Z</time></trkpt><trkpt lat="46.0405636" lon="13.5109575"><ele>286.0</ele><time>2026-05-03T09:42:06.137Z</time></trkpt><trkpt lat="46.0404834" lon="13.5108614"><ele>286.0</ele><time>2026-05-03T09:42:07.138Z</time></trkpt><trkpt lat="46.0404029" lon="13.5108069"><ele>286.0</ele><time>2026-05-03T09:42:08.138Z</time></trkpt><trkpt lat="46.0403014" lon="13.5108091"><ele>286.0</ele><time>2026-05-03T09:42:09.137Z</time></trkpt><trkpt lat="46.0401949" lon="13.5108578"><ele>286.0</ele><time>2026-05-03T09:42:10.138Z</time></trkpt><trkpt lat="46.0400914" lon="13.5109619"><ele>286.0</ele><time>2026-05-03T09:42:11.137Z</time></trkpt><trkpt lat="46.0399985" lon="13.5110575"><ele>285.0</ele><time>2026-05-03T09:42:12.138Z</time></trkpt><trkpt lat="46.0399034" lon="13.5111258"><ele>284.0</ele><time>2026-05-03T09:42:13.138Z</time></trkpt><trkpt lat="46.0397988" lon="13.5111449"><ele>283.0</ele><time>2026-05-03T09:42:14.137Z</time></trkpt><trkpt lat="46.039685" lon="13.5110991"><ele>282.0</ele><time>2026-05-03T09:42:15.138Z</time></trkpt><trkpt lat="46.0395558" lon="13.5110227"><ele>282.0</ele><time>2026-05-03T09:42:16.138Z</time></trkpt><trkpt lat="46.0394408" lon="13.5109482"><ele>282.0</ele><time>2026-05-03T09:42:17.137Z</time></trkpt><trkpt lat="46.0393256" lon="13.5108616"><ele>282.0</ele><time>2026-05-03T09:42:18.137Z</time></trkpt><trkpt lat="46.0392116" lon="13.5107773"><ele>282.0</ele><time>2026-05-03T09:42:19.138Z</time></trkpt><trkpt lat="46.0390929" lon="13.5107186"><ele>281.25</ele><time>2026-05-03T09:42:20.137Z</time></trkpt><trkpt lat="46.0389645" lon="13.5107"><ele>280.5</ele><time>2026-05-03T09:42:21.138Z</time></trkpt><trkpt lat="46.0388139" lon="13.5107258"><ele>279.75</ele><time>2026-05-03T09:42:22.137Z</time></trkpt><trkpt lat="46.0386613" lon="13.5107508"><ele>279.0</ele><time>2026-05-03T09:42:23.137Z</time></trkpt><trkpt lat="46.0385202" lon="13.5107709"><ele>279.0</ele><time>2026-05-03T09:42:24.138Z</time></trkpt><trkpt lat="46.0383804" lon="13.5107683"><ele>279.0</ele><time>2026-05-03T09:42:25.138Z</time></trkpt><trkpt lat="46.0382488" lon="13.5107559"><ele>279.0</ele><time>2026-05-03T09:42:26.138Z</time></trkpt><trkpt lat="46.0381142" lon="13.5107058"><ele>279.0</ele><time>2026-05-03T09:42:27.138Z</time></trkpt><trkpt lat="46.0379879" lon="13.5106438"><ele>276.25</ele><time>2026-05-03T09:42:28.138Z</time></trkpt><trkpt lat="46.0378689" lon="13.51062"><ele>273.5</ele><time>2026-05-03T09:42:29.137Z</time></trkpt><trkpt lat="46.0377508" lon="13.5106316"><ele>270.75</ele><time>2026-05-03T09:42:30.137Z</time></trkpt><trkpt lat="46.0376216" lon="13.5107019"><ele>268.0</ele><time>2026-05-03T09:42:31.138Z</time></trkpt><trkpt lat="46.0375021" lon="13.5107981"><ele>265.0</ele><time>2026-05-03T09:42:32.138Z</time></trkpt><trkpt lat="46.0373904" lon="13.5108949"><ele>262.0</ele><time>2026-05-03T09:42:33.138Z</time></trkpt><trkpt lat="46.0372801" lon="13.510953"><ele>259.0</ele><time>2026-05-03T09:42:34.138Z</time></trkpt><trkpt lat="46.0371642" lon="13.5109568"><ele>256.0</ele><time>2026-05-03T09:42:35.138Z</time></trkpt><trkpt lat="46.0370532" lon="13.5109024"><ele>256.0</ele><time>2026-05-03T09:42:36.138Z</time></trkpt><trkpt lat="46.0369392" lon="13.5108257"><ele>256.0</ele><time>2026-05-03T09:42:37.137Z</time></trkpt><trkpt lat="46.0368363" lon="13.5107549"><ele>256.0</ele><time>2026-05-03T09:42:38.137Z</time></trkpt><trkpt lat="46.0367459" lon="13.5107411"><ele>256.0</ele><time>2026-05-03T09:42:39.138Z</time></trkpt><trkpt lat="46.036646" lon="13.5107912"><ele>256.0</ele><time>2026-05-03T09:42:40.138Z</time></trkpt><trkpt lat="46.0365425" lon="13.510901"><ele>258.0</ele><time>2026-05-03T09:42:41.138Z</time></trkpt><trkpt lat="46.0364422" lon="13.5110408"><ele>260.0</ele><time>2026-05-03T09:42:42.138Z</time></trkpt><trkpt lat="46.0363443" lon="13.5111674"><ele>262.0</ele><time>2026-05-03T09:42:43.138Z</time></trkpt><trkpt lat="46.0362476" lon="13.5112813"><ele>264.0</ele><time>2026-05-03T09:42:44.138Z</time></trkpt><trkpt lat="46.0361618" lon="13.5113606"><ele>264.0</ele><time>2026-05-03T09:42:45.138Z</time></trkpt><trkpt lat="46.0360648" lon="13.5113768"><ele>264.0</ele><time>2026-05-03T09:42:46.138Z</time></trkpt><trkpt lat="46.0359651" lon="13.5113254"><ele>264.0</ele><time>2026-05-03T09:42:47.138Z</time></trkpt><trkpt lat="46.0358536" lon="13.5112459"><ele>264.0</ele><time>2026-05-03T09:42:48.138Z</time></trkpt><trkpt lat="46.0357397" lon="13.5111787"><ele>263.5</ele><time>2026-05-03T09:42:49.138Z</time></trkpt><trkpt lat="46.0356168" lon="13.5111675"><ele>263.0</ele><time>2026-05-03T09:42:50.138Z</time></trkpt><trkpt lat="46.0354881" lon="13.5111963"><ele>262.5</ele><time>2026-05-03T09:42:51.138Z</time></trkpt><trkpt lat="46.0353378" lon="13.5112618"><ele>262.0</ele><time>2026-05-03T09:42:52.138Z</time></trkpt><trkpt lat="46.0351906" lon="13.511319"><ele>262.0</ele><time>2026-05-03T09:42:53.138Z</time></trkpt><trkpt lat="46.0350393" lon="13.511349"><ele>262.0</ele><time>2026-05-03T09:42:54.138Z</time></trkpt><trkpt lat="46.0348944" lon="13.5113763"><ele>262.0</ele><time>2026-05-03T09:42:55.138Z</time></trkpt><trkpt lat="46.0347593" lon="13.5113951"><ele>262.0</ele><time>2026-05-03T09:42:56.138Z</time></trkpt><trkpt lat="46.0346368" lon="13.5114059"><ele>261.0</ele><time>2026-05-03T09:42:57.138Z</time></trkpt><trkpt lat="46.0345267" lon="13.5113602"><ele>260.0</ele><time>2026-05-03T09:42:58.138Z</time></trkpt><trkpt lat="46.0344489" lon="13.5112352"><ele>259.0</ele><time>2026-05-03T09:42:59.138Z</time></trkpt><trkpt lat="46.0343745" lon="13.5110638"><ele>258.0</ele><time>2026-05-03T09:43:00.138Z</time></trkpt><trkpt lat="46.034306" lon="13.5109033"><ele>255.75</ele><time>2026-05-03T09:43:01.138Z</time></trkpt><trkpt lat="46.0342398" lon="13.5107735"><ele>253.5</ele><time>2026-05-03T09:43:02.138Z</time></trkpt><trkpt lat="46.0341557" lon="13.5106974"><ele>251.25</ele><time>2026-05-03T09:43:03.138Z</time></trkpt><trkpt lat="46.0340451" lon="13.5106665"><ele>249.0</ele><time>2026-05-03T09:43:04.138Z</time></trkpt><trkpt lat="46.0339129" lon="13.5106861"><ele>249.0</ele><time>2026-05-03T09:43:05.137Z</time></trkpt><trkpt lat="46.0337819" lon="13.5107279"><ele>249.0</ele><time>2026-05-03T09:43:06.138Z</time></trkpt><trkpt lat="46.0336626" lon="13.5107435"><ele>249.0</ele><time>2026-05-03T09:43:07.138Z</time></trkpt><trkpt lat="46.0335503" lon="13.5106936"><ele>249.0</ele><time>2026-05-03T09:43:08.138Z</time></trkpt><trkpt lat="46.0334321" lon="13.5106024"><ele>249.0</ele><time>2026-05-03T09:43:09.138Z</time></trkpt><trkpt lat="46.0333133" lon="13.5105044"><ele>249.0</ele><time>2026-05-03T09:43:10.138Z</time></trkpt><trkpt lat="46.0331886" lon="13.5104199"><ele>249.0</ele><time>2026-05-03T09:43:11.138Z</time></trkpt><trkpt lat="46.0330519" lon="13.5103555"><ele>249.0</ele><time>2026-05-03T09:43:12.137Z</time></trkpt><trkpt lat="46.0329148" lon="13.5103077"><ele>246.25</ele><time>2026-05-03T09:43:13.137Z</time></trkpt><trkpt lat="46.0327775" lon="13.5102599"><ele>243.5</ele><time>2026-05-03T09:43:14.137Z</time></trkpt><trkpt lat="46.0326407" lon="13.5102311"><ele>240.75</ele><time>2026-05-03T09:43:15.138Z</time></trkpt><trkpt lat="46.0325041" lon="13.5102168"><ele>238.0</ele><time>2026-05-03T09:43:16.137Z</time></trkpt><trkpt lat="46.032369" lon="13.5102261"><ele>238.0</ele><time>2026-05-03T09:43:17.138Z</time></trkpt><trkpt lat="46.032233" lon="13.510221"><ele>238.0</ele><time>2026-05-03T09:43:18.137Z</time></trkpt><trkpt lat="46.0321259" lon="13.5101537"><ele>238.0</ele><time>2026-05-03T09:43:19.137Z</time></trkpt><trkpt lat="46.0320571" lon="13.5099946"><ele>238.0</ele><time>2026-05-03T09:43:20.137Z</time></trkpt><trkpt lat="46.0319849" lon="13.5098582"><ele>238.0</ele><time>2026-05-03T09:43:21.137Z</time></trkpt><trkpt lat="46.0318917" lon="13.509761"><ele>238.0</ele><time>2026-05-03T09:43:22.136Z</time></trkpt><trkpt lat="46.0317763" lon="13.5097039"><ele>238.0</ele><time>2026-05-03T09:43:23.137Z</time></trkpt><trkpt lat="46.0316559" lon="13.5096843"><ele>238.0</ele><time>2026-05-03T09:43:24.137Z</time></trkpt><trkpt lat="46.0315321" lon="13.5096856"><ele>239.4</ele><time>2026-05-03T09:43:25.136Z</time></trkpt><trkpt lat="46.0314268" lon="13.5096612"><ele>240.8</ele><time>2026-05-03T09:43:26.137Z</time></trkpt><trkpt lat="46.0313301" lon="13.5095949"><ele>242.2</ele><time>2026-05-03T09:43:27.137Z</time></trkpt><trkpt lat="46.0312514" lon="13.5094942"><ele>243.6</ele><time>2026-05-03T09:43:28.137Z</time></trkpt><trkpt lat="46.0311893" lon="13.5093775"><ele>245.0</ele><time>2026-05-03T09:43:29.137Z</time></trkpt><trkpt lat="46.0311208" lon="13.5092703"><ele>240.8</ele><time>2026-05-03T09:43:30.137Z</time></trkpt><trkpt lat="46.0310306" lon="13.5092255"><ele>236.6</ele><time>2026-05-03T09:43:31.136Z</time></trkpt><trkpt lat="46.0309253" lon="13.509234"><ele>232.39999999999998</ele><time>2026-05-03T09:43:32.137Z</time></trkpt><trkpt lat="46.0308213" lon="13.509277"><ele>228.2</ele><time>2026-05-03T09:43:33.137Z</time></trkpt><trkpt lat="46.0307135" lon="13.5092873"><ele>224.0</ele><time>2026-05-03T09:43:34.137Z</time></trkpt><trkpt lat="46.0306062" lon="13.5092683"><ele>224.0</ele><time>2026-05-03T09:43:35.137Z</time></trkpt><trkpt lat="46.0305138" lon="13.5091941"><ele>224.0</ele><time>2026-05-03T09:43:36.136Z</time></trkpt><trkpt lat="46.0304266" lon="13.5090864"><ele>224.0</ele><time>2026-05-03T09:43:37.136Z</time></trkpt><trkpt lat="46.0303327" lon="13.5089764"><ele>224.0</ele><time>2026-05-03T09:43:38.137Z</time></trkpt><trkpt lat="46.0302277" lon="13.5088904"><ele>220.0</ele><time>2026-05-03T09:43:39.137Z</time></trkpt><trkpt lat="46.030003" lon="13.5087401"><ele>216.0</ele><time>2026-05-03T09:43:41.137Z</time></trkpt><trkpt lat="46.0298955" lon="13.5086503"><ele>212.0</ele><time>2026-05-03T09:43:42.137Z</time></trkpt><trkpt lat="46.0297911" lon="13.5085604"><ele>212.0</ele><time>2026-05-03T09:43:43.137Z</time></trkpt><trkpt lat="46.0297079" lon="13.5084488"><ele>212.0</ele><time>2026-05-03T09:43:44.137Z</time></trkpt><trkpt lat="46.0296597" lon="13.5083165"><ele>212.0</ele><time>2026-05-03T09:43:45.136Z</time></trkpt><trkpt lat="46.029639" lon="13.5081694"><ele>212.0</ele><time>2026-05-03T09:43:46.136Z</time></trkpt><trkpt lat="46.0296338" lon="13.5080309"><ele>212.0</ele><time>2026-05-03T09:43:47.136Z</time></trkpt><trkpt lat="46.0296224" lon="13.5078929"><ele>210.00000000000003</ele><time>2026-05-03T09:43:48.137Z</time></trkpt><trkpt lat="46.0296034" lon="13.5077698"><ele>208.0</ele><time>2026-05-03T09:43:49.137Z</time></trkpt><trkpt lat="46.0295735" lon="13.5076504"><ele>206.0</ele><time>2026-05-03T09:43:50.137Z</time></trkpt><trkpt lat="46.0295259" lon="13.5075429"><ele>204.0</ele><time>2026-05-03T09:43:51.136Z</time></trkpt><trkpt lat="46.0294503" lon="13.5074552"><ele>202.00000000000003</ele><time>2026-05-03T09:43:52.137Z</time></trkpt><trkpt lat="46.0293735" lon="13.5074114"><ele>200.0</ele><time>2026-05-03T09:43:53.137Z</time></trkpt><trkpt lat="46.0292757" lon="13.5073905"><ele>200.0</ele><time>2026-05-03T09:43:54.137Z</time></trkpt><trkpt lat="46.0291777" lon="13.5073926"><ele>200.0</ele><time>2026-05-03T09:43:55.136Z</time></trkpt><trkpt lat="46.0290713" lon="13.5074168"><ele>200.0</ele><time>2026-05-03T09:43:56.137Z</time></trkpt><trkpt lat="46.028961" lon="13.5074449"><ele>200.0</ele><time>2026-05-03T09:43:57.137Z</time></trkpt><trkpt lat="46.0288489" lon="13.5074708"><ele>200.0</ele><time>2026-05-03T09:43:58.137Z</time></trkpt><trkpt lat="46.0287371" lon="13.5074896"><ele>199.0</ele><time>2026-05-03T09:43:59.136Z</time></trkpt><trkpt lat="46.028628" lon="13.50749"><ele>198.0</ele><time>2026-05-03T09:44:00.136Z</time></trkpt><trkpt lat="46.0285228" lon="13.5074602"><ele>197.0</ele><time>2026-05-03T09:44:01.136Z</time></trkpt><trkpt lat="46.0284304" lon="13.507422"><ele>196.0</ele><time>2026-05-03T09:44:02.137Z</time></trkpt><trkpt lat="46.0283518" lon="13.5074039"><ele>195.0</ele><time>2026-05-03T09:44:03.137Z</time></trkpt><trkpt lat="46.0282835" lon="13.5074221"><ele>195.0</ele><time>2026-05-03T09:44:04.137Z</time></trkpt><trkpt lat="46.0282229" lon="13.507461"><ele>195.0</ele><time>2026-05-03T09:44:05.136Z</time></trkpt><trkpt lat="46.0281618" lon="13.5076248"><ele>195.0</ele><time>2026-05-03T09:44:07.137Z</time></trkpt><trkpt lat="46.0281747" lon="13.5077308"><ele>195.0</ele><time>2026-05-03T09:44:08.137Z</time></trkpt><trkpt lat="46.0282061" lon="13.5078398"><ele>195.0</ele><time>2026-05-03T09:44:09.136Z</time></trkpt><trkpt lat="46.0282531" lon="13.5079464"><ele>195.0</ele><time>2026-05-03T09:44:10.137Z</time></trkpt><trkpt lat="46.028294" lon="13.5080736"><ele>194.6</ele><time>2026-05-03T09:44:11.137Z</time></trkpt><trkpt lat="46.0283243" lon="13.5082078"><ele>194.2</ele><time>2026-05-03T09:44:12.137Z</time></trkpt><trkpt lat="46.0283495" lon="13.508355"><ele>193.8</ele><time>2026-05-03T09:44:13.137Z</time></trkpt><trkpt lat="46.0283594" lon="13.5085101"><ele>193.4</ele><time>2026-05-03T09:44:14.137Z</time></trkpt><trkpt lat="46.0283547" lon="13.5086716"><ele>193.0</ele><time>2026-05-03T09:44:15.136Z</time></trkpt><trkpt lat="46.0283481" lon="13.5088196"><ele>191.4</ele><time>2026-05-03T09:44:16.137Z</time></trkpt><trkpt lat="46.0283383" lon="13.508965"><ele>189.8</ele><time>2026-05-03T09:44:17.137Z</time></trkpt><trkpt lat="46.0283295" lon="13.5091003"><ele>188.2</ele><time>2026-05-03T09:44:18.136Z</time></trkpt><trkpt lat="46.0283436" lon="13.50923"><ele>186.6</ele><time>2026-05-03T09:44:19.137Z</time></trkpt><trkpt lat="46.0283786" lon="13.5093364"><ele>185.0</ele><time>2026-05-03T09:44:20.137Z</time></trkpt><trkpt lat="46.0284466" lon="13.5094096"><ele>185.0</ele><time>2026-05-03T09:44:21.137Z</time></trkpt><trkpt lat="46.0285346" lon="13.5094689"><ele>185.0</ele><time>2026-05-03T09:44:22.136Z</time></trkpt><trkpt lat="46.0286123" lon="13.5095282"><ele>185.0</ele><time>2026-05-03T09:44:23.136Z</time></trkpt><trkpt lat="46.0286754" lon="13.5096236"><ele>185.0</ele><time>2026-05-03T09:44:24.136Z</time></trkpt><trkpt lat="46.0287119" lon="13.5097536"><ele>185.0</ele><time>2026-05-03T09:44:25.137Z</time></trkpt><trkpt lat="46.0287181" lon="13.5098993"><ele>184.66666666666666</ele><time>2026-05-03T09:44:26.137Z</time></trkpt><trkpt lat="46.0287069" lon="13.5100514"><ele>184.33333333333331</ele><time>2026-05-03T09:44:27.137Z</time></trkpt><trkpt lat="46.0286794" lon="13.5101957"><ele>184.0</ele><time>2026-05-03T09:44:28.137Z</time></trkpt><trkpt lat="46.0286591" lon="13.5103144"><ele>183.66666666666666</ele><time>2026-05-03T09:44:29.137Z</time></trkpt><trkpt lat="46.0286299" lon="13.5104079"><ele>183.33333333333334</ele><time>2026-05-03T09:44:30.137Z</time></trkpt><trkpt lat="46.0285824" lon="13.5104869"><ele>183.0</ele><time>2026-05-03T09:44:31.137Z</time></trkpt><trkpt lat="46.0285021" lon="13.5105301"><ele>183.0</ele><time>2026-05-03T09:44:32.136Z</time></trkpt><trkpt lat="46.0283994" lon="13.5105066"><ele>183.0</ele><time>2026-05-03T09:44:33.137Z</time></trkpt><trkpt lat="46.0283104" lon="13.5104596"><ele>183.0</ele><time>2026-05-03T09:44:34.137Z</time></trkpt><trkpt lat="46.0282299" lon="13.5104255"><ele>183.0</ele><time>2026-05-03T09:44:35.137Z</time></trkpt><trkpt lat="46.0281446" lon="13.5104432"><ele>183.0</ele><time>2026-05-03T09:44:36.137Z</time></trkpt><trkpt lat="46.0280606" lon="13.5104874"><ele>180.2</ele><time>2026-05-03T09:44:37.137Z</time></trkpt><trkpt lat="46.0279875" lon="13.5105878"><ele>177.4</ele><time>2026-05-03T09:44:38.137Z</time></trkpt><trkpt lat="46.0279348" lon="13.5107378"><ele>174.6</ele><time>2026-05-03T09:44:39.136Z</time></trkpt><trkpt lat="46.0278876" lon="13.5108733"><ele>171.79999999999998</ele><time>2026-05-03T09:44:40.137Z</time></trkpt><trkpt lat="46.02782" lon="13.5109544"><ele>169.0</ele><time>2026-05-03T09:44:41.137Z</time></trkpt><trkpt lat="46.0277135" lon="13.510984"><ele>169.0</ele><time>2026-05-03T09:44:42.137Z</time></trkpt><trkpt lat="46.0276213" lon="13.5109307"><ele>169.0</ele><time>2026-05-03T09:44:43.136Z</time></trkpt><trkpt lat="46.0275466" lon="13.5108238"><ele>169.0</ele><time>2026-05-03T09:44:44.137Z</time></trkpt><trkpt lat="46.0274692" lon="13.5106951"><ele>169.0</ele><time>2026-05-03T09:44:45.137Z</time></trkpt><trkpt lat="46.0273925" lon="13.5105674"><ele>169.0</ele><time>2026-05-03T09:44:46.136Z</time></trkpt><trkpt lat="46.0273234" lon="13.5104523"><ele>166.79999999999998</ele><time>2026-05-03T09:44:47.137Z</time></trkpt><trkpt lat="46.0272519" lon="13.5103583"><ele>164.6</ele><time>2026-05-03T09:44:48.136Z</time></trkpt><trkpt lat="46.0271814" lon="13.5102953"><ele>162.4</ele><time>2026-05-03T09:44:49.137Z</time></trkpt><trkpt lat="46.0270902" lon="13.510266"><ele>160.2</ele><time>2026-05-03T09:44:50.137Z</time></trkpt><trkpt lat="46.0269875" lon="13.510287"><ele>158.0</ele><time>2026-05-03T09:44:51.136Z</time></trkpt><trkpt lat="46.0268841" lon="13.5103488"><ele>155.5</ele><time>2026-05-03T09:44:52.137Z</time></trkpt><trkpt lat="46.0267825" lon="13.5104332"><ele>153.0</ele><time>2026-05-03T09:44:53.137Z</time></trkpt><trkpt lat="46.0266711" lon="13.5104772"><ele>150.5</ele><time>2026-05-03T09:44:54.137Z</time></trkpt><trkpt lat="46.0265627" lon="13.5105022"><ele>148.0</ele><time>2026-05-03T09:44:55.137Z</time></trkpt><trkpt lat="46.0264488" lon="13.5105136"><ele>148.0</ele><time>2026-05-03T09:44:56.136Z</time></trkpt><trkpt lat="46.0263461" lon="13.5105341"><ele>148.0</ele><time>2026-05-03T09:44:57.137Z</time></trkpt><trkpt lat="46.026249" lon="13.5105819"><ele>148.0</ele><time>2026-05-03T09:44:58.137Z</time></trkpt><trkpt lat="46.0261643" lon="13.5106642"><ele>148.0</ele><time>2026-05-03T09:44:59.136Z</time></trkpt><trkpt lat="46.0260884" lon="13.5107631"><ele>148.0</ele><time>2026-05-03T09:45:00.136Z</time></trkpt><trkpt lat="46.0260157" lon="13.5108743"><ele>148.0</ele><time>2026-05-03T09:45:01.137Z</time></trkpt><trkpt lat="46.0259472" lon="13.5109963"><ele>148.0</ele><time>2026-05-03T09:45:02.137Z</time></trkpt><trkpt lat="46.0258836" lon="13.5111199"><ele>148.0</ele><time>2026-05-03T09:45:03.137Z</time></trkpt><trkpt lat="46.0258201" lon="13.5112371"><ele>148.0</ele><time>2026-05-03T09:45:04.136Z</time></trkpt><trkpt lat="46.0257475" lon="13.5113354"><ele>148.0</ele><time>2026-05-03T09:45:05.137Z</time></trkpt><trkpt lat="46.0256572" lon="13.5113938"><ele>147.20000000000002</ele><time>2026-05-03T09:45:06.137Z</time></trkpt><trkpt lat="46.0255524" lon="13.5114031"><ele>146.4</ele><time>2026-05-03T09:45:07.136Z</time></trkpt><trkpt lat="46.0254344" lon="13.5113863"><ele>145.60000000000002</ele><time>2026-05-03T09:45:08.136Z</time></trkpt><trkpt lat="46.0253189" lon="13.5113721"><ele>144.8</ele><time>2026-05-03T09:45:09.137Z</time></trkpt><trkpt lat="46.0252096" lon="13.5113652"><ele>144.0</ele><time>2026-05-03T09:45:10.137Z</time></trkpt><trkpt lat="46.0251004" lon="13.5113775"><ele>144.0</ele><time>2026-05-03T09:45:11.136Z</time></trkpt><trkpt lat="46.0249953" lon="13.5114051"><ele>144.0</ele><time>2026-05-03T09:45:12.137Z</time></trkpt><trkpt lat="46.0248997" lon="13.5114665"><ele>144.0</ele><time>2026-05-03T09:45:13.137Z</time></trkpt><trkpt lat="46.0248169" lon="13.5115491"><ele>144.0</ele><time>2026-05-03T09:45:14.137Z</time></trkpt><trkpt lat="46.0247527" lon="13.5116582"><ele>144.0</ele><time>2026-05-03T09:45:15.137Z</time></trkpt><trkpt lat="46.0246878" lon="13.5117671"><ele>142.6</ele><time>2026-05-03T09:45:16.137Z</time></trkpt><trkpt lat="46.0246074" lon="13.5118422"><ele>141.2</ele><time>2026-05-03T09:45:17.137Z</time></trkpt><trkpt lat="46.0245152" lon="13.5118885"><ele>139.79999999999998</ele><time>2026-05-03T09:45:18.137Z</time></trkpt><trkpt lat="46.0244093" lon="13.5119099"><ele>138.4</ele><time>2026-05-03T09:45:19.137Z</time></trkpt><trkpt lat="46.0242958" lon="13.5119166"><ele>137.0</ele><time>2026-05-03T09:45:20.136Z</time></trkpt><trkpt lat="46.0241816" lon="13.5119262"><ele>135.25</ele><time>2026-05-03T09:45:21.136Z</time></trkpt><trkpt lat="46.024075" lon="13.5119559"><ele>133.5</ele><time>2026-05-03T09:45:22.137Z</time></trkpt><trkpt lat="46.0239672" lon="13.5120157"><ele>131.75</ele><time>2026-05-03T09:45:23.137Z</time></trkpt><trkpt lat="46.0238618" lon="13.5121058"><ele>130.0</ele><time>2026-05-03T09:45:24.137Z</time></trkpt><trkpt lat="46.0237647" lon="13.512218"><ele>130.0</ele><time>2026-05-03T09:45:25.137Z</time></trkpt><trkpt lat="46.0236684" lon="13.5123412"><ele>130.0</ele><time>2026-05-03T09:45:26.137Z</time></trkpt><trkpt lat="46.0235707" lon="13.5124556"><ele>130.0</ele><time>2026-05-03T09:45:27.137Z</time></trkpt><trkpt lat="46.0234811" lon="13.5125648"><ele>130.0</ele><time>2026-05-03T09:45:28.137Z</time></trkpt><trkpt lat="46.0234016" lon="13.5126612"><ele>130.0</ele><time>2026-05-03T09:45:29.136Z</time></trkpt><trkpt lat="46.0233252" lon="13.5127648"><ele>130.0</ele><time>2026-05-03T09:45:30.136Z</time></trkpt><trkpt lat="46.0232554" lon="13.5128737"><ele>130.0</ele><time>2026-05-03T09:45:31.136Z</time></trkpt><trkpt lat="46.0231894" lon="13.5129808"><ele>130.0</ele><time>2026-05-03T09:45:32.137Z</time></trkpt><trkpt lat="46.0231295" lon="13.5130934"><ele>130.0</ele><time>2026-05-03T09:45:33.137Z</time></trkpt><trkpt lat="46.0230706" lon="13.5132004"><ele>128.0</ele><time>2026-05-03T09:45:34.137Z</time></trkpt><trkpt lat="46.0230203" lon="13.5132909"><ele>126.0</ele><time>2026-05-03T09:45:35.137Z</time></trkpt><trkpt lat="46.022976" lon="13.5133688"><ele>124.0</ele><time>2026-05-03T09:45:36.136Z</time></trkpt><trkpt lat="46.0229054" lon="13.5134883"><ele>122.0</ele><time>2026-05-03T09:45:38.137Z</time></trkpt><trkpt lat="46.0228618" lon="13.5135791"><ele>120.00000000000001</ele><time>2026-05-03T09:45:40.137Z</time></trkpt><trkpt lat="46.0228683" lon="13.5136891"><ele>118.0</ele><time>2026-05-03T09:45:42.137Z</time></trkpt><trkpt lat="46.0229008" lon="13.5138561"><ele>115.80000000000001</ele><time>2026-05-03T09:45:44.137Z</time></trkpt><trkpt lat="46.0229198" lon="13.513958"><ele>113.60000000000001</ele><time>2026-05-03T09:45:45.137Z</time></trkpt><trkpt lat="46.0229356" lon="13.5140867"><ele>111.39999999999999</ele><time>2026-05-03T09:45:46.137Z</time></trkpt><trkpt lat="46.0229523" lon="13.5142337"><ele>109.19999999999999</ele><time>2026-05-03T09:45:47.136Z</time></trkpt><trkpt lat="46.0229778" lon="13.5143851"><ele>107.0</ele><time>2026-05-03T09:45:48.137Z</time></trkpt><trkpt lat="46.0230118" lon="13.5145396"><ele>107.0</ele><time>2026-05-03T09:45:49.137Z</time></trkpt><trkpt lat="46.0230501" lon="13.5147004"><ele>107.0</ele><time>2026-05-03T09:45:50.137Z</time></trkpt><trkpt lat="46.0230888" lon="13.5148679"><ele>107.0</ele><time>2026-05-03T09:45:51.137Z</time></trkpt><trkpt lat="46.0231235" lon="13.5150378"><ele>107.0</ele><time>2026-05-03T09:45:52.137Z</time></trkpt><trkpt lat="46.0231545" lon="13.5152024"><ele>107.0</ele><time>2026-05-03T09:45:53.136Z</time></trkpt><trkpt lat="46.0231777" lon="13.5153534"><ele>106.99999999999999</ele><time>2026-05-03T09:45:54.137Z</time></trkpt><trkpt lat="46.023199" lon="13.5155018"><ele>106.99999999999999</ele><time>2026-05-03T09:45:55.137Z</time></trkpt><trkpt lat="46.02322" lon="13.5156451"><ele>107.0</ele><time>2026-05-03T09:45:56.136Z</time></trkpt><trkpt lat="46.0232397" lon="13.5157882"><ele>107.0</ele><time>2026-05-03T09:45:57.137Z</time></trkpt><trkpt lat="46.0232651" lon="13.5159319"><ele>108.0</ele><time>2026-05-03T09:45:58.137Z</time></trkpt><trkpt lat="46.0232937" lon="13.5160695"><ele>108.99999999999999</ele><time>2026-05-03T09:45:59.137Z</time></trkpt><trkpt lat="46.0233272" lon="13.516198"><ele>109.99999999999999</ele><time>2026-05-03T09:46:00.136Z</time></trkpt><trkpt lat="46.0233806" lon="13.5163043"><ele>111.0</ele><time>2026-05-03T09:46:01.136Z</time></trkpt><trkpt lat="46.0234552" lon="13.5163925"><ele>112.0</ele><time>2026-05-03T09:46:02.137Z</time></trkpt><trkpt lat="46.0235379" lon="13.5164758"><ele>113.0</ele><time>2026-05-03T09:46:03.136Z</time></trkpt><trkpt lat="46.0236239" lon="13.5165526"><ele>113.99999999999999</ele><time>2026-05-03T09:46:04.136Z</time></trkpt><trkpt lat="46.0237156" lon="13.5166244"><ele>114.99999999999999</ele><time>2026-05-03T09:46:05.136Z</time></trkpt><trkpt lat="46.0238089" lon="13.5166925"><ele>116.0</ele><time>2026-05-03T09:46:06.137Z</time></trkpt><trkpt lat="46.0239118" lon="13.5167633"><ele>117.0</ele><time>2026-05-03T09:46:07.136Z</time></trkpt><trkpt lat="46.0240154" lon="13.5168306"><ele>117.0</ele><time>2026-05-03T09:46:08.137Z</time></trkpt><trkpt lat="46.024123" lon="13.5169016"><ele>117.0</ele><time>2026-05-03T09:46:09.136Z</time></trkpt><trkpt lat="46.0242332" lon="13.5169678"><ele>117.0</ele><time>2026-05-03T09:46:10.137Z</time></trkpt><trkpt lat="46.0243433" lon="13.5170352"><ele>117.0</ele><time>2026-05-03T09:46:11.137Z</time></trkpt><trkpt lat="46.0244533" lon="13.5171059"><ele>119.5</ele><time>2026-05-03T09:46:12.137Z</time></trkpt><trkpt lat="46.0245603" lon="13.5171766"><ele>122.0</ele><time>2026-05-03T09:46:13.136Z</time></trkpt><trkpt lat="46.024658" lon="13.5172596"><ele>124.5</ele><time>2026-05-03T09:46:14.137Z</time></trkpt><trkpt lat="46.0247508" lon="13.5173551"><ele>127.0</ele><time>2026-05-03T09:46:15.137Z</time></trkpt><trkpt lat="46.0248397" lon="13.517454"><ele>127.0</ele><time>2026-05-03T09:46:16.137Z</time></trkpt><trkpt lat="46.0249348" lon="13.5175501"><ele>127.0</ele><time>2026-05-03T09:46:17.137Z</time></trkpt><trkpt lat="46.0250296" lon="13.5176506"><ele>127.0</ele><time>2026-05-03T09:46:18.137Z</time></trkpt><trkpt lat="46.0251321" lon="13.5177461"><ele>127.0</ele><time>2026-05-03T09:46:19.137Z</time></trkpt><trkpt lat="46.0252402" lon="13.5178416"><ele>132.75</ele><time>2026-05-03T09:46:20.137Z</time></trkpt><trkpt lat="46.0253516" lon="13.5179376"><ele>138.5</ele><time>2026-05-03T09:46:21.136Z</time></trkpt><trkpt lat="46.0254626" lon="13.518027"><ele>144.25</ele><time>2026-05-03T09:46:22.137Z</time></trkpt><trkpt lat="46.0255629" lon="13.5181137"><ele>150.0</ele><time>2026-05-03T09:46:23.136Z</time></trkpt><trkpt lat="46.0256616" lon="13.5181945"><ele>150.0</ele><time>2026-05-03T09:46:24.137Z</time></trkpt><trkpt lat="46.0257622" lon="13.5182803"><ele>150.0</ele><time>2026-05-03T09:46:25.136Z</time></trkpt><trkpt lat="46.0258482" lon="13.5183642"><ele>150.0</ele><time>2026-05-03T09:46:26.136Z</time></trkpt><trkpt lat="46.0259162" lon="13.5184599"><ele>150.0</ele><time>2026-05-03T09:46:27.136Z</time></trkpt><trkpt lat="46.0259622" lon="13.5185615"><ele>150.0</ele><time>2026-05-03T09:46:28.137Z</time></trkpt><trkpt lat="46.0260084" lon="13.518681"><ele>150.8</ele><time>2026-05-03T09:46:29.136Z</time></trkpt><trkpt lat="46.0260688" lon="13.518804"><ele>151.6</ele><time>2026-05-03T09:46:30.137Z</time></trkpt><trkpt lat="46.0261356" lon="13.51893"><ele>152.4</ele><time>2026-05-03T09:46:31.137Z</time></trkpt><trkpt lat="46.0262101" lon="13.5190528"><ele>153.2</ele><time>2026-05-03T09:46:32.137Z</time></trkpt><trkpt lat="46.0262751" lon="13.5191671"><ele>154.0</ele><time>2026-05-03T09:46:33.137Z</time></trkpt><trkpt lat="46.0263447" lon="13.5192765"><ele>154.0</ele><time>2026-05-03T09:46:34.137Z</time></trkpt><trkpt lat="46.0264054" lon="13.5193911"><ele>154.0</ele><time>2026-05-03T09:46:35.136Z</time></trkpt><trkpt lat="46.0264634" lon="13.5195097"><ele>154.0</ele><time>2026-05-03T09:46:36.137Z</time></trkpt><trkpt lat="46.0265196" lon="13.5196305"><ele>154.0</ele><time>2026-05-03T09:46:37.137Z</time></trkpt><trkpt lat="46.0265744" lon="13.519755"><ele>154.0</ele><time>2026-05-03T09:46:38.137Z</time></trkpt><trkpt lat="46.0266215" lon="13.5198923"><ele>156.0</ele><time>2026-05-03T09:46:39.137Z</time></trkpt><trkpt lat="46.0266629" lon="13.5200397"><ele>158.0</ele><time>2026-05-03T09:46:40.137Z</time></trkpt><trkpt lat="46.0267115" lon="13.5201881"><ele>160.0</ele><time>2026-05-03T09:46:41.136Z</time></trkpt><trkpt lat="46.0267726" lon="13.5203237"><ele>162.0</ele><time>2026-05-03T09:46:42.137Z</time></trkpt><trkpt lat="46.0268387" lon="13.5204279"><ele>164.0</ele><time>2026-05-03T09:46:43.136Z</time></trkpt><trkpt lat="46.0269036" lon="13.5204974"><ele>164.0</ele><time>2026-05-03T09:46:44.137Z</time></trkpt><trkpt lat="46.026989" lon="13.5205959"><ele>164.0</ele><time>2026-05-03T09:46:46.137Z</time></trkpt><trkpt lat="46.0270394" lon="13.5206594"><ele>164.0</ele><time>2026-05-03T09:46:47.136Z</time></trkpt><trkpt lat="46.0270878" lon="13.5207518"><ele>164.0</ele><time>2026-05-03T09:46:48.137Z</time></trkpt><trkpt lat="46.027134" lon="13.5208494"><ele>164.0</ele><time>2026-05-03T09:46:49.137Z</time></trkpt><trkpt lat="46.0271869" lon="13.5209509"><ele>164.0</ele><time>2026-05-03T09:46:50.137Z</time></trkpt><trkpt lat="46.027249" lon="13.5210462"><ele>164.0</ele><time>2026-05-03T09:46:51.137Z</time></trkpt><trkpt lat="46.0273273" lon="13.5211332"><ele>164.0</ele><time>2026-05-03T09:46:52.137Z</time></trkpt><trkpt lat="46.027402" lon="13.5212363"><ele>164.0</ele><time>2026-05-03T09:46:53.137Z</time></trkpt><trkpt lat="46.0274622" lon="13.5213502"><ele>164.0</ele><time>2026-05-03T09:46:54.137Z</time></trkpt><trkpt lat="46.0274978" lon="13.521498"><ele>164.0</ele><time>2026-05-03T09:46:55.136Z</time></trkpt><trkpt lat="46.0275358" lon="13.5216563"><ele>162.39999999999998</ele><time>2026-05-03T09:46:56.137Z</time></trkpt><trkpt lat="46.0275596" lon="13.5218044"><ele>160.79999999999998</ele><time>2026-05-03T09:46:57.136Z</time></trkpt><trkpt lat="46.0275735" lon="13.5219527"><ele>159.2</ele><time>2026-05-03T09:46:58.137Z</time></trkpt><trkpt lat="46.0275891" lon="13.5221168"><ele>157.6</ele><time>2026-05-03T09:46:59.137Z</time></trkpt><trkpt lat="46.0275974" lon="13.5222768"><ele>156.0</ele><time>2026-05-03T09:47:00.137Z</time></trkpt><trkpt lat="46.0275975" lon="13.5224425"><ele>156.0</ele><time>2026-05-03T09:47:01.136Z</time></trkpt><trkpt lat="46.027607" lon="13.5226088"><ele>156.0</ele><time>2026-05-03T09:47:02.137Z</time></trkpt><trkpt lat="46.027652" lon="13.5227626"><ele>156.0</ele><time>2026-05-03T09:47:03.137Z</time></trkpt><trkpt lat="46.0277246" lon="13.5229095"><ele>156.0</ele><time>2026-05-03T09:47:04.137Z</time></trkpt><trkpt lat="46.0278168" lon="13.5230556"><ele>161.0</ele><time>2026-05-03T09:47:05.136Z</time></trkpt><trkpt lat="46.0279094" lon="13.5231974"><ele>166.0</ele><time>2026-05-03T09:47:06.137Z</time></trkpt><trkpt lat="46.0279962" lon="13.5233445"><ele>171.0</ele><time>2026-05-03T09:47:07.137Z</time></trkpt><trkpt lat="46.0280691" lon="13.5234953"><ele>176.0</ele><time>2026-05-03T09:47:08.136Z</time></trkpt><trkpt lat="46.0281475" lon="13.5236451"><ele>178.4</ele><time>2026-05-03T09:47:09.137Z</time></trkpt><trkpt lat="46.0282278" lon="13.5237781"><ele>180.8</ele><time>2026-05-03T09:47:10.136Z</time></trkpt><trkpt lat="46.0283064" lon="13.5238723"><ele>183.20000000000002</ele><time>2026-05-03T09:47:11.137Z</time></trkpt><trkpt lat="46.0283816" lon="13.5239474"><ele>185.60000000000002</ele><time>2026-05-03T09:47:12.137Z</time></trkpt><trkpt lat="46.0284459" lon="13.5240445"><ele>188.0</ele><time>2026-05-03T09:47:13.137Z</time></trkpt><trkpt lat="46.0284843" lon="13.5241569"><ele>183.60000000000002</ele><time>2026-05-03T09:47:14.135Z</time></trkpt><trkpt lat="46.0285012" lon="13.5243024"><ele>179.20000000000002</ele><time>2026-05-03T09:47:15.136Z</time></trkpt><trkpt lat="46.0285118" lon="13.5244557"><ele>174.8</ele><time>2026-05-03T09:47:16.136Z</time></trkpt><trkpt lat="46.0285313" lon="13.5246229"><ele>170.4</ele><time>2026-05-03T09:47:17.135Z</time></trkpt><trkpt lat="46.0285599" lon="13.5247908"><ele>166.0</ele><time>2026-05-03T09:47:18.136Z</time></trkpt><trkpt lat="46.0285942" lon="13.5249539"><ele>166.0</ele><time>2026-05-03T09:47:19.135Z</time></trkpt><trkpt lat="46.0286243" lon="13.5251096"><ele>166.0</ele><time>2026-05-03T09:47:20.136Z</time></trkpt><trkpt lat="46.0286541" lon="13.5252518"><ele>166.0</ele><time>2026-05-03T09:47:21.135Z</time></trkpt><trkpt lat="46.0286821" lon="13.5253799"><ele>166.0</ele><time>2026-05-03T09:47:22.136Z</time></trkpt><trkpt lat="46.0287227" lon="13.5254814"><ele>166.0</ele><time>2026-05-03T09:47:23.135Z</time></trkpt><trkpt lat="46.0287816" lon="13.5255372"><ele>169.20000000000002</ele><time>2026-05-03T09:47:24.136Z</time></trkpt><trkpt lat="46.0288729" lon="13.525548"><ele>172.4</ele><time>2026-05-03T09:47:25.135Z</time></trkpt><trkpt lat="46.0289678" lon="13.5255545"><ele>175.6</ele><time>2026-05-03T09:47:26.136Z</time></trkpt><trkpt lat="46.0290426" lon="13.5255884"><ele>178.8</ele><time>2026-05-03T09:47:27.136Z</time></trkpt><trkpt lat="46.0291035" lon="13.525691"><ele>182.0</ele><time>2026-05-03T09:47:28.135Z</time></trkpt><trkpt lat="46.0291512" lon="13.5258161"><ele>177.0</ele><time>2026-05-03T09:47:29.136Z</time></trkpt><trkpt lat="46.0291615" lon="13.5259671"><ele>172.0</ele><time>2026-05-03T09:47:30.135Z</time></trkpt><trkpt lat="46.0291776" lon="13.5261099"><ele>167.0</ele><time>2026-05-03T09:47:31.135Z</time></trkpt><trkpt lat="46.0291993" lon="13.5262289"><ele>162.0</ele><time>2026-05-03T09:47:32.136Z</time></trkpt><trkpt lat="46.0292331" lon="13.5263355"><ele>157.0</ele><time>2026-05-03T09:47:33.135Z</time></trkpt><trkpt lat="46.0292985" lon="13.5264811"><ele>157.0</ele><time>2026-05-03T09:47:35.136Z</time></trkpt><trkpt lat="46.029367" lon="13.5266154"><ele>157.0</ele><time>2026-05-03T09:47:37.135Z</time></trkpt><trkpt lat="46.0294218" lon="13.5266976"><ele>157.0</ele><time>2026-05-03T09:47:38.136Z</time></trkpt><trkpt lat="46.0294941" lon="13.526797"><ele>157.0</ele><time>2026-05-03T09:47:39.136Z</time></trkpt><trkpt lat="46.0295773" lon="13.5269037"><ele>157.0</ele><time>2026-05-03T09:47:40.136Z</time></trkpt><trkpt lat="46.02966" lon="13.5270083"><ele>159.75</ele><time>2026-05-03T09:47:41.136Z</time></trkpt><trkpt lat="46.0297478" lon="13.5271238"><ele>162.5</ele><time>2026-05-03T09:47:42.136Z</time></trkpt><trkpt lat="46.0298286" lon="13.5272378"><ele>165.25</ele><time>2026-05-03T09:47:43.136Z</time></trkpt><trkpt lat="46.0299043" lon="13.5273577"><ele>168.0</ele><time>2026-05-03T09:47:44.136Z</time></trkpt><trkpt lat="46.0299741" lon="13.5274885"><ele>163.8</ele><time>2026-05-03T09:47:45.136Z</time></trkpt><trkpt lat="46.0300383" lon="13.5276296"><ele>159.60000000000002</ele><time>2026-05-03T09:47:46.136Z</time></trkpt><trkpt lat="46.0300981" lon="13.5277677"><ele>155.39999999999998</ele><time>2026-05-03T09:47:47.136Z</time></trkpt><trkpt lat="46.03015" lon="13.5279032"><ele>151.2</ele><time>2026-05-03T09:47:48.136Z</time></trkpt><trkpt lat="46.0301859" lon="13.5280419"><ele>147.0</ele><time>2026-05-03T09:47:49.136Z</time></trkpt><trkpt lat="46.0302011" lon="13.5281753"><ele>147.0</ele><time>2026-05-03T09:47:50.136Z</time></trkpt><trkpt lat="46.0302042" lon="13.528301"><ele>147.0</ele><time>2026-05-03T09:47:51.136Z</time></trkpt><trkpt lat="46.0302247" lon="13.5284095"><ele>147.0</ele><time>2026-05-03T09:47:52.136Z</time></trkpt><trkpt lat="46.0302823" lon="13.5284989"><ele>147.0</ele><time>2026-05-03T09:47:53.136Z</time></trkpt><trkpt lat="46.0303611" lon="13.5285447"><ele>147.0</ele><time>2026-05-03T09:47:54.136Z</time></trkpt><trkpt lat="46.0304475" lon="13.5285214"><ele>147.0</ele><time>2026-05-03T09:47:55.136Z</time></trkpt><trkpt lat="46.0305229" lon="13.5284502"><ele>147.0</ele><time>2026-05-03T09:47:56.136Z</time></trkpt><trkpt lat="46.0305776" lon="13.5283591"><ele>147.0</ele><time>2026-05-03T09:47:57.136Z</time></trkpt><trkpt lat="46.0306088" lon="13.5282615"><ele>147.0</ele><time>2026-05-03T09:47:58.136Z</time></trkpt><trkpt lat="46.0306039" lon="13.5281227"><ele>147.0</ele><time>2026-05-03T09:47:59.135Z</time></trkpt><trkpt lat="46.0305796" lon="13.5279677"><ele>147.0</ele><time>2026-05-03T09:48:00.136Z</time></trkpt><trkpt lat="46.0305524" lon="13.5278091"><ele>146.2</ele><time>2026-05-03T09:48:01.135Z</time></trkpt><trkpt lat="46.0305327" lon="13.527648"><ele>145.39999999999998</ele><time>2026-05-03T09:48:02.136Z</time></trkpt><trkpt lat="46.0305038" lon="13.5274944"><ele>144.60000000000002</ele><time>2026-05-03T09:48:03.135Z</time></trkpt><trkpt lat="46.0304648" lon="13.5273605"><ele>143.8</ele><time>2026-05-03T09:48:04.136Z</time></trkpt><trkpt lat="46.0304114" lon="13.5272505"><ele>143.0</ele><time>2026-05-03T09:48:05.135Z</time></trkpt><trkpt lat="46.0303711" lon="13.527167"><ele>143.0</ele><time>2026-05-03T09:48:06.135Z</time></trkpt><trkpt lat="46.0303906" lon="13.527033"><ele>143.0</ele><time>2026-05-03T09:48:08.136Z</time></trkpt><trkpt lat="46.0304809" lon="13.52708"><ele>143.0</ele><time>2026-05-03T09:48:10.136Z</time></trkpt><trkpt lat="46.0305306" lon="13.5271733"><ele>143.0</ele><time>2026-05-03T09:48:11.136Z</time></trkpt><trkpt lat="46.0306036" lon="13.5272908"><ele>143.0</ele><time>2026-05-03T09:48:12.135Z</time></trkpt><trkpt lat="46.0306778" lon="13.5273818"><ele>143.0</ele><time>2026-05-03T09:48:13.135Z</time></trkpt><trkpt lat="46.0307402" lon="13.5275008"><ele>143.0</ele><time>2026-05-03T09:48:14.135Z</time></trkpt><trkpt lat="46.0307887" lon="13.5276647"><ele>143.0</ele><time>2026-05-03T09:48:15.136Z</time></trkpt><trkpt lat="46.0308339" lon="13.5278096"><ele>143.0</ele><time>2026-05-03T09:48:16.136Z</time></trkpt><trkpt lat="46.0308974" lon="13.5279249"><ele>143.0</ele><time>2026-05-03T09:48:17.136Z</time></trkpt><trkpt lat="46.0309651" lon="13.5279782"><ele>146.60000000000002</ele><time>2026-05-03T09:48:18.136Z</time></trkpt><trkpt lat="46.0310606" lon="13.5279946"><ele>150.20000000000002</ele><time>2026-05-03T09:48:19.136Z</time></trkpt><trkpt lat="46.031175" lon="13.5279852"><ele>153.8</ele><time>2026-05-03T09:48:20.136Z</time></trkpt><trkpt lat="46.0312829" lon="13.5279716"><ele>157.4</ele><time>2026-05-03T09:48:21.136Z</time></trkpt><trkpt lat="46.0313845" lon="13.5279694"><ele>161.0</ele><time>2026-05-03T09:48:22.136Z</time></trkpt><trkpt lat="46.031491" lon="13.5279699"><ele>161.0</ele><time>2026-05-03T09:48:23.135Z</time></trkpt><trkpt lat="46.0315961" lon="13.5279756"><ele>161.0</ele><time>2026-05-03T09:48:24.135Z</time></trkpt><trkpt lat="46.0317037" lon="13.5279979"><ele>161.0</ele><time>2026-05-03T09:48:25.136Z</time></trkpt><trkpt lat="46.0318143" lon="13.52805"><ele>161.0</ele><time>2026-05-03T09:48:26.136Z</time></trkpt><trkpt lat="46.0319177" lon="13.5281021"><ele>161.0</ele><time>2026-05-03T09:48:27.135Z</time></trkpt><trkpt lat="46.0320194" lon="13.5281613"><ele>163.20000000000002</ele><time>2026-05-03T09:48:28.136Z</time></trkpt><trkpt lat="46.0321197" lon="13.5282165"><ele>165.4</ele><time>2026-05-03T09:48:29.136Z</time></trkpt><trkpt lat="46.0322092" lon="13.5282628"><ele>167.6</ele><time>2026-05-03T09:48:30.136Z</time></trkpt><trkpt lat="46.0323021" lon="13.5282979"><ele>169.8</ele><time>2026-05-03T09:48:31.135Z</time></trkpt><trkpt lat="46.0323912" lon="13.5283176"><ele>172.0</ele><time>2026-05-03T09:48:32.136Z</time></trkpt><trkpt lat="46.0324737" lon="13.5283444"><ele>172.0</ele><time>2026-05-03T09:48:33.136Z</time></trkpt><trkpt lat="46.0325373" lon="13.5283929"><ele>172.0</ele><time>2026-05-03T09:48:34.136Z</time></trkpt><trkpt lat="46.0325513" lon="13.5285742"><ele>172.0</ele><time>2026-05-03T09:48:36.135Z</time></trkpt><trkpt lat="46.032496" lon="13.5286418"><ele>172.0</ele><time>2026-05-03T09:48:37.136Z</time></trkpt><trkpt lat="46.032409" lon="13.5286927"><ele>172.0</ele><time>2026-05-03T09:48:38.136Z</time></trkpt><trkpt lat="46.0323297" lon="13.5287312"><ele>172.0</ele><time>2026-05-03T09:48:39.136Z</time></trkpt><trkpt lat="46.03224" lon="13.5287659"><ele>175.39999999999998</ele><time>2026-05-03T09:48:40.136Z</time></trkpt><trkpt lat="46.0321491" lon="13.5287896"><ele>178.79999999999998</ele><time>2026-05-03T09:48:41.135Z</time></trkpt><trkpt lat="46.0320551" lon="13.5288076"><ele>182.2</ele><time>2026-05-03T09:48:42.135Z</time></trkpt><trkpt lat="46.0319592" lon="13.5288343"><ele>185.6</ele><time>2026-05-03T09:48:43.135Z</time></trkpt><trkpt lat="46.0318609" lon="13.5288602"><ele>189.0</ele><time>2026-05-03T09:48:44.135Z</time></trkpt><trkpt lat="46.0317674" lon="13.5288882"><ele>189.0</ele><time>2026-05-03T09:48:45.136Z</time></trkpt><trkpt lat="46.0316723" lon="13.5289129"><ele>189.0</ele><time>2026-05-03T09:48:46.136Z</time></trkpt><trkpt lat="46.0315784" lon="13.5289434"><ele>189.0</ele><time>2026-05-03T09:48:47.136Z</time></trkpt><trkpt lat="46.0314844" lon="13.5289729"><ele>189.0</ele><time>2026-05-03T09:48:48.135Z</time></trkpt><trkpt lat="46.0313895" lon="13.5289954"><ele>189.0</ele><time>2026-05-03T09:48:49.135Z</time></trkpt><trkpt lat="46.0312989" lon="13.529033"><ele>185.85714285714286</ele><time>2026-05-03T09:48:50.136Z</time></trkpt><trkpt lat="46.031223" lon="13.5290821"><ele>182.71428571428572</ele><time>2026-05-03T09:48:51.136Z</time></trkpt><trkpt lat="46.0311691" lon="13.5291505"><ele>179.57142857142856</ele><time>2026-05-03T09:48:52.135Z</time></trkpt><trkpt lat="46.0311419" lon="13.5292364"><ele>176.42857142857144</ele><time>2026-05-03T09:48:53.136Z</time></trkpt><trkpt lat="46.031146" lon="13.5293355"><ele>173.28571428571428</ele><time>2026-05-03T09:48:54.135Z</time></trkpt><trkpt lat="46.0311766" lon="13.5294209"><ele>170.14285714285714</ele><time>2026-05-03T09:48:55.135Z</time></trkpt><trkpt lat="46.0312256" lon="13.5294826"><ele>167.0</ele><time>2026-05-03T09:48:56.136Z</time></trkpt><trkpt lat="46.0313024" lon="13.5295048"><ele>167.0</ele><time>2026-05-03T09:48:57.135Z</time></trkpt><trkpt lat="46.0313886" lon="13.5295045"><ele>167.0</ele><time>2026-05-03T09:48:58.136Z</time></trkpt><trkpt lat="46.0314845" lon="13.529497"><ele>167.0</ele><time>2026-05-03T09:48:59.136Z</time></trkpt><trkpt lat="46.0315839" lon="13.529489"><ele>167.0</ele><time>2026-05-03T09:49:00.135Z</time></trkpt><trkpt lat="46.031683" lon="13.5294891"><ele>167.0</ele><time>2026-05-03T09:49:01.135Z</time></trkpt><trkpt lat="46.0317734" lon="13.5294964"><ele>169.5</ele><time>2026-05-03T09:49:02.135Z</time></trkpt><trkpt lat="46.0318611" lon="13.5295134"><ele>172.0</ele><time>2026-05-03T09:49:03.135Z</time></trkpt><trkpt lat="46.0319537" lon="13.5295305"><ele>174.5</ele><time>2026-05-03T09:49:04.136Z</time></trkpt><trkpt lat="46.0320424" lon="13.5295498"><ele>177.0</ele><time>2026-05-03T09:49:05.136Z</time></trkpt><trkpt lat="46.0321214" lon="13.529579"><ele>179.5</ele><time>2026-05-03T09:49:06.135Z</time></trkpt><trkpt lat="46.0321911" lon="13.5296085"><ele>182.0</ele><time>2026-05-03T09:49:07.136Z</time></trkpt><trkpt lat="46.032304" lon="13.5296635"><ele>182.0</ele><time>2026-05-03T09:49:09.136Z</time></trkpt><trkpt lat="46.0324241" lon="13.5297158"><ele>182.0</ele><time>2026-05-03T09:49:11.136Z</time></trkpt><trkpt lat="46.032501" lon="13.5297459"><ele>182.0</ele><time>2026-05-03T09:49:12.136Z</time></trkpt><trkpt lat="46.0325755" lon="13.5297761"><ele>182.0</ele><time>2026-05-03T09:49:13.136Z</time></trkpt><trkpt lat="46.0326359" lon="13.529807"><ele>182.0</ele><time>2026-05-03T09:49:14.136Z</time></trkpt><trkpt lat="46.0327174" lon="13.5298578"><ele>182.0</ele><time>2026-05-03T09:49:16.135Z</time></trkpt><trkpt lat="46.0327929" lon="13.5299187"><ele>183.5</ele><time>2026-05-03T09:49:18.136Z</time></trkpt><trkpt lat="46.0328591" lon="13.5300351"><ele>185.0</ele><time>2026-05-03T09:49:20.136Z</time></trkpt><trkpt lat="46.0328862" lon="13.5301203"><ele>186.5</ele><time>2026-05-03T09:49:21.136Z</time></trkpt><trkpt lat="46.0329109" lon="13.5302186"><ele>188.0</ele><time>2026-05-03T09:49:22.136Z</time></trkpt><trkpt lat="46.0329282" lon="13.5303292"><ele>189.5</ele><time>2026-05-03T09:49:23.136Z</time></trkpt><trkpt lat="46.0329443" lon="13.5304393"><ele>191.0</ele><time>2026-05-03T09:49:24.136Z</time></trkpt><trkpt lat="46.0329673" lon="13.5305405"><ele>191.0</ele><time>2026-05-03T09:49:25.136Z</time></trkpt><trkpt lat="46.0329985" lon="13.530633"><ele>191.0</ele><time>2026-05-03T09:49:26.136Z</time></trkpt><trkpt lat="46.0330467" lon="13.5307122"><ele>191.0</ele><time>2026-05-03T09:49:27.135Z</time></trkpt><trkpt lat="46.0331012" lon="13.5307754"><ele>191.0</ele><time>2026-05-03T09:49:28.135Z</time></trkpt><trkpt lat="46.0331626" lon="13.5308298"><ele>191.0</ele><time>2026-05-03T09:49:29.135Z</time></trkpt><trkpt lat="46.033232" lon="13.530892"><ele>191.0</ele><time>2026-05-03T09:49:30.136Z</time></trkpt><trkpt lat="46.0333041" lon="13.5309593"><ele>194.0</ele><time>2026-05-03T09:49:31.135Z</time></trkpt><trkpt lat="46.033379" lon="13.5310335"><ele>197.0</ele><time>2026-05-03T09:49:32.136Z</time></trkpt><trkpt lat="46.0334572" lon="13.5311194"><ele>200.0</ele><time>2026-05-03T09:49:33.136Z</time></trkpt><trkpt lat="46.0335394" lon="13.5311999"><ele>203.0</ele><time>2026-05-03T09:49:34.135Z</time></trkpt><trkpt lat="46.0336227" lon="13.5312801"><ele>206.0</ele><time>2026-05-03T09:49:35.136Z</time></trkpt><trkpt lat="46.0336927" lon="13.5313512"><ele>206.0</ele><time>2026-05-03T09:49:36.136Z</time></trkpt><trkpt lat="46.0337554" lon="13.5314417"><ele>206.0</ele><time>2026-05-03T09:49:37.136Z</time></trkpt><trkpt lat="46.0338016" lon="13.5315654"><ele>206.0</ele><time>2026-05-03T09:49:38.135Z</time></trkpt><trkpt lat="46.0338335" lon="13.5317168"><ele>206.0</ele><time>2026-05-03T09:49:39.136Z</time></trkpt><trkpt lat="46.0338698" lon="13.5318665"><ele>206.0</ele><time>2026-05-03T09:49:40.135Z</time></trkpt><trkpt lat="46.0339174" lon="13.5320144"><ele>209.50000000000003</ele><time>2026-05-03T09:49:41.136Z</time></trkpt><trkpt lat="46.0339712" lon="13.5321313"><ele>213.0</ele><time>2026-05-03T09:49:42.135Z</time></trkpt><trkpt lat="46.0340206" lon="13.5322359"><ele>216.5</ele><time>2026-05-03T09:49:43.136Z</time></trkpt><trkpt lat="46.0340474" lon="13.5323394"><ele>220.0</ele><time>2026-05-03T09:49:44.136Z</time></trkpt><trkpt lat="46.034046" lon="13.5324348"><ele>223.50000000000003</ele><time>2026-05-03T09:49:45.136Z</time></trkpt><trkpt lat="46.0339512" lon="13.5325313"><ele>227.0</ele><time>2026-05-03T09:49:47.135Z</time></trkpt><trkpt lat="46.0338883" lon="13.5325176"><ele>227.0</ele><time>2026-05-03T09:49:48.136Z</time></trkpt><trkpt lat="46.0338063" lon="13.532461"><ele>227.0</ele><time>2026-05-03T09:49:49.136Z</time></trkpt><trkpt lat="46.0337239" lon="13.5323794"><ele>227.0</ele><time>2026-05-03T09:49:50.136Z</time></trkpt><trkpt lat="46.0336318" lon="13.5323"><ele>227.0</ele><time>2026-05-03T09:49:51.136Z</time></trkpt><trkpt lat="46.0335322" lon="13.5322217"><ele>227.0</ele><time>2026-05-03T09:49:52.135Z</time></trkpt><trkpt lat="46.0334302" lon="13.5321509"><ele>227.0</ele><time>2026-05-03T09:49:53.136Z</time></trkpt><trkpt lat="46.0333277" lon="13.532095"><ele>227.0</ele><time>2026-05-03T09:49:54.136Z</time></trkpt><trkpt lat="46.0332243" lon="13.5320399"><ele>227.0</ele><time>2026-05-03T09:49:55.136Z</time></trkpt><trkpt lat="46.0331233" lon="13.5319822"><ele>227.0</ele><time>2026-05-03T09:49:56.136Z</time></trkpt><trkpt lat="46.0330263" lon="13.5319142"><ele>227.0</ele><time>2026-05-03T09:49:57.136Z</time></trkpt><trkpt lat="46.0329318" lon="13.5318548"><ele>223.6</ele><time>2026-05-03T09:49:58.136Z</time></trkpt><trkpt lat="46.0328399" lon="13.5317896"><ele>220.2</ele><time>2026-05-03T09:49:59.135Z</time></trkpt><trkpt lat="46.0327525" lon="13.5317312"><ele>216.8</ele><time>2026-05-03T09:50:00.136Z</time></trkpt><trkpt lat="46.0326733" lon="13.5316851"><ele>213.4</ele><time>2026-05-03T09:50:01.135Z</time></trkpt><trkpt lat="46.032574" lon="13.5316683"><ele>210.0</ele><time>2026-05-03T09:50:03.136Z</time></trkpt><trkpt lat="46.0325659" lon="13.5317834"><ele>210.0</ele><time>2026-05-03T09:50:05.136Z</time></trkpt><trkpt lat="46.0326622" lon="13.5318549"><ele>210.0</ele><time>2026-05-03T09:50:07.136Z</time></trkpt><trkpt lat="46.0327429" lon="13.5319006"><ele>210.0</ele><time>2026-05-03T09:50:08.135Z</time></trkpt><trkpt lat="46.0328157" lon="13.5319848"><ele>210.0</ele><time>2026-05-03T09:50:09.136Z</time></trkpt><trkpt lat="46.0328787" lon="13.5320846"><ele>210.0</ele><time>2026-05-03T09:50:10.136Z</time></trkpt><trkpt lat="46.0329413" lon="13.5321914"><ele>213.0</ele><time>2026-05-03T09:50:11.136Z</time></trkpt><trkpt lat="46.0330013" lon="13.532274"><ele>216.0</ele><time>2026-05-03T09:50:12.136Z</time></trkpt><trkpt lat="46.0330619" lon="13.5323456"><ele>219.0</ele><time>2026-05-03T09:50:13.136Z</time></trkpt><trkpt lat="46.0331204" lon="13.5324196"><ele>222.0</ele><time>2026-05-03T09:50:14.135Z</time></trkpt><trkpt lat="46.0331766" lon="13.5325061"><ele>225.0</ele><time>2026-05-03T09:50:15.136Z</time></trkpt><trkpt lat="46.0332399" lon="13.5325922"><ele>228.0</ele><time>2026-05-03T09:50:16.136Z</time></trkpt><trkpt lat="46.0333049" lon="13.5326889"><ele>227.8</ele><time>2026-05-03T09:50:17.136Z</time></trkpt><trkpt lat="46.0333686" lon="13.532786"><ele>227.60000000000002</ele><time>2026-05-03T09:50:18.135Z</time></trkpt><trkpt lat="46.0334397" lon="13.53289"><ele>227.39999999999998</ele><time>2026-05-03T09:50:19.135Z</time></trkpt><trkpt lat="46.0335066" lon="13.5330123"><ele>227.2</ele><time>2026-05-03T09:50:20.134Z</time></trkpt><trkpt lat="46.0335723" lon="13.533139"><ele>227.0</ele><time>2026-05-03T09:50:21.134Z</time></trkpt><trkpt lat="46.0336358" lon="13.5332762"><ele>232.5</ele><time>2026-05-03T09:50:22.135Z</time></trkpt><trkpt lat="46.0337007" lon="13.5334144"><ele>238.0</ele><time>2026-05-03T09:50:23.135Z</time></trkpt><trkpt lat="46.0337681" lon="13.5335513"><ele>243.5</ele><time>2026-05-03T09:50:24.135Z</time></trkpt><trkpt lat="46.0338303" lon="13.5336904"><ele>249.0</ele><time>2026-05-03T09:50:25.135Z</time></trkpt><trkpt lat="46.0338871" lon="13.5338388"><ele>254.5</ele><time>2026-05-03T09:50:26.134Z</time></trkpt><trkpt lat="46.0339448" lon="13.5339848"><ele>260.0</ele><time>2026-05-03T09:50:27.135Z</time></trkpt><trkpt lat="46.0340026" lon="13.5341301"><ele>265.5</ele><time>2026-05-03T09:50:28.135Z</time></trkpt><trkpt lat="46.0340704" lon="13.5342726"><ele>271.0</ele><time>2026-05-03T09:50:29.134Z</time></trkpt><trkpt lat="46.0341382" lon="13.5344125"><ele>272.25</ele><time>2026-05-03T09:50:30.135Z</time></trkpt><trkpt lat="46.0342133" lon="13.5345524"><ele>273.5</ele><time>2026-05-03T09:50:31.135Z</time></trkpt><trkpt lat="46.0342942" lon="13.5346817"><ele>274.75</ele><time>2026-05-03T09:50:32.134Z</time></trkpt><trkpt lat="46.034374" lon="13.5347853"><ele>276.0</ele><time>2026-05-03T09:50:33.134Z</time></trkpt><trkpt lat="46.0344573" lon="13.5348955"><ele>276.0</ele><time>2026-05-03T09:50:34.135Z</time></trkpt><trkpt lat="46.0345442" lon="13.534987"><ele>276.0</ele><time>2026-05-03T09:50:35.135Z</time></trkpt><trkpt lat="46.0346335" lon="13.5350832"><ele>276.0</ele><time>2026-05-03T09:50:36.135Z</time></trkpt><trkpt lat="46.0347189" lon="13.5351852"><ele>276.0</ele><time>2026-05-03T09:50:37.135Z</time></trkpt><trkpt lat="46.0348034" lon="13.5352848"><ele>276.0</ele><time>2026-05-03T09:50:38.134Z</time></trkpt><trkpt lat="46.03489" lon="13.5353807"><ele>277.2</ele><time>2026-05-03T09:50:39.134Z</time></trkpt><trkpt lat="46.034992" lon="13.5354542"><ele>278.40000000000003</ele><time>2026-05-03T09:50:40.135Z</time></trkpt><trkpt lat="46.0350833" lon="13.5355216"><ele>279.6</ele><time>2026-05-03T09:50:41.134Z</time></trkpt><trkpt lat="46.0351557" lon="13.5356156"><ele>280.8</ele><time>2026-05-03T09:50:42.135Z</time></trkpt><trkpt lat="46.0352158" lon="13.5357195"><ele>282.0</ele><time>2026-05-03T09:50:43.135Z</time></trkpt><trkpt lat="46.0352694" lon="13.5358408"><ele>282.0</ele><time>2026-05-03T09:50:44.135Z</time></trkpt><trkpt lat="46.0353281" lon="13.5359747"><ele>282.0</ele><time>2026-05-03T09:50:45.135Z</time></trkpt><trkpt lat="46.0353834" lon="13.5361142"><ele>282.0</ele><time>2026-05-03T09:50:46.135Z</time></trkpt><trkpt lat="46.0354351" lon="13.5362457"><ele>282.0</ele><time>2026-05-03T09:50:47.134Z</time></trkpt><trkpt lat="46.0354841" lon="13.5363735"><ele>282.0</ele><time>2026-05-03T09:50:48.135Z</time></trkpt><trkpt lat="46.035524" lon="13.5364779"><ele>286.3333333333333</ele><time>2026-05-03T09:50:49.134Z</time></trkpt><trkpt lat="46.0355626" lon="13.5365658"><ele>290.6666666666667</ele><time>2026-05-03T09:50:50.135Z</time></trkpt><trkpt lat="46.035588" lon="13.5366544"><ele>295.0</ele><time>2026-05-03T09:50:51.134Z</time></trkpt><trkpt lat="46.03559" lon="13.5367836"><ele>299.33333333333337</ele><time>2026-05-03T09:50:52.135Z</time></trkpt><trkpt lat="46.0356059" lon="13.5369315"><ele>303.6666666666667</ele><time>2026-05-03T09:50:53.135Z</time></trkpt><trkpt lat="46.0356188" lon="13.5370786"><ele>308.0</ele><time>2026-05-03T09:50:54.135Z</time></trkpt><trkpt lat="46.0356378" lon="13.5372288"><ele>309.4</ele><time>2026-05-03T09:50:55.135Z</time></trkpt><trkpt lat="46.0356551" lon="13.5373654"><ele>310.8</ele><time>2026-05-03T09:50:56.135Z</time></trkpt><trkpt lat="46.0356721" lon="13.5375021"><ele>312.2</ele><time>2026-05-03T09:50:57.134Z</time></trkpt><trkpt lat="46.0356946" lon="13.5376319"><ele>313.6</ele><time>2026-05-03T09:50:58.135Z</time></trkpt><trkpt lat="46.0357004" lon="13.5377618"><ele>315.0</ele><time>2026-05-03T09:50:59.134Z</time></trkpt><trkpt lat="46.0356746" lon="13.5378894"><ele>315.0</ele><time>2026-05-03T09:51:00.134Z</time></trkpt><trkpt lat="46.0356268" lon="13.538026"><ele>315.0</ele><time>2026-05-03T09:51:01.134Z</time></trkpt><trkpt lat="46.0355912" lon="13.5381809"><ele>315.0</ele><time>2026-05-03T09:51:02.135Z</time></trkpt><trkpt lat="46.0355794" lon="13.5383411"><ele>315.0</ele><time>2026-05-03T09:51:03.135Z</time></trkpt><trkpt lat="46.0355763" lon="13.5385078"><ele>315.0</ele><time>2026-05-03T09:51:04.135Z</time></trkpt><trkpt lat="46.0355586" lon="13.5386619"><ele>313.0</ele><time>2026-05-03T09:51:05.135Z</time></trkpt><trkpt lat="46.0355279" lon="13.538805"><ele>311.0</ele><time>2026-05-03T09:51:06.135Z</time></trkpt><trkpt lat="46.0354929" lon="13.5389471"><ele>309.0</ele><time>2026-05-03T09:51:07.134Z</time></trkpt><trkpt lat="46.0354724" lon="13.5390865"><ele>307.0</ele><time>2026-05-03T09:51:08.134Z</time></trkpt><trkpt lat="46.0354626" lon="13.539236"><ele>305.0</ele><time>2026-05-03T09:51:09.134Z</time></trkpt><trkpt lat="46.0354465" lon="13.5393872"><ele>305.0</ele><time>2026-05-03T09:51:10.135Z</time></trkpt><trkpt lat="46.0354198" lon="13.5395485"><ele>305.0</ele><time>2026-05-03T09:51:11.135Z</time></trkpt><trkpt lat="46.035393" lon="13.5397049"><ele>305.0</ele><time>2026-05-03T09:51:12.135Z</time></trkpt><trkpt lat="46.0353679" lon="13.5398693"><ele>305.0</ele><time>2026-05-03T09:51:13.135Z</time></trkpt><trkpt lat="46.0353483" lon="13.5400399"><ele>305.0</ele><time>2026-05-03T09:51:14.134Z</time></trkpt><trkpt lat="46.0353261" lon="13.5401954"><ele>305.0</ele><time>2026-05-03T09:51:15.135Z</time></trkpt><trkpt lat="46.0353036" lon="13.5403398"><ele>305.0</ele><time>2026-05-03T09:51:16.135Z</time></trkpt><trkpt lat="46.0352638" lon="13.5404891"><ele>305.0</ele><time>2026-05-03T09:51:17.135Z</time></trkpt><trkpt lat="46.0352206" lon="13.540632"><ele>305.0</ele><time>2026-05-03T09:51:18.135Z</time></trkpt><trkpt lat="46.0352081" lon="13.5407831"><ele>305.0</ele><time>2026-05-03T09:51:19.135Z</time></trkpt><trkpt lat="46.0352111" lon="13.5409548"><ele>305.0</ele><time>2026-05-03T09:51:20.135Z</time></trkpt><trkpt lat="46.0352167" lon="13.5411135"><ele>305.0</ele><time>2026-05-03T09:51:21.135Z</time></trkpt><trkpt lat="46.0352226" lon="13.5412356"><ele>305.0</ele><time>2026-05-03T09:51:22.135Z</time></trkpt><trkpt lat="46.0352291" lon="13.5413469"><ele>305.0</ele><time>2026-05-03T09:51:23.135Z</time></trkpt><trkpt lat="46.0352393" lon="13.5414561"><ele>305.4</ele><time>2026-05-03T09:51:24.135Z</time></trkpt><trkpt lat="46.0352629" lon="13.5415654"><ele>305.8</ele><time>2026-05-03T09:51:25.135Z</time></trkpt><trkpt lat="46.0352932" lon="13.5416821"><ele>306.2</ele><time>2026-05-03T09:51:26.135Z</time></trkpt><trkpt lat="46.0353259" lon="13.5418075"><ele>306.6</ele><time>2026-05-03T09:51:27.135Z</time></trkpt><trkpt lat="46.0353605" lon="13.5419444"><ele>307.0</ele><time>2026-05-03T09:51:28.135Z</time></trkpt><trkpt lat="46.0353974" lon="13.5420784"><ele>307.2</ele><time>2026-05-03T09:51:29.134Z</time></trkpt><trkpt lat="46.0354449" lon="13.5422096"><ele>307.4</ele><time>2026-05-03T09:51:30.134Z</time></trkpt><trkpt lat="46.0355005" lon="13.5423384"><ele>307.6</ele><time>2026-05-03T09:51:31.135Z</time></trkpt><trkpt lat="46.035556" lon="13.542467"><ele>307.8</ele><time>2026-05-03T09:51:32.135Z</time></trkpt><trkpt lat="46.0356005" lon="13.5426013"><ele>308.0</ele><time>2026-05-03T09:51:33.135Z</time></trkpt><trkpt lat="46.0356344" lon="13.5427378"><ele>306.4</ele><time>2026-05-03T09:51:34.135Z</time></trkpt><trkpt lat="46.0356582" lon="13.5428818"><ele>304.8</ele><time>2026-05-03T09:51:35.135Z</time></trkpt><trkpt lat="46.0356859" lon="13.5430247"><ele>303.2</ele><time>2026-05-03T09:51:36.135Z</time></trkpt><trkpt lat="46.0357213" lon="13.5431613"><ele>301.6</ele><time>2026-05-03T09:51:37.135Z</time></trkpt><trkpt lat="46.0357759" lon="13.5432761"><ele>300.0</ele><time>2026-05-03T09:51:38.134Z</time></trkpt><trkpt lat="46.0358435" lon="13.5433695"><ele>305.0</ele><time>2026-05-03T09:51:39.135Z</time></trkpt><trkpt lat="46.035923" lon="13.5434409"><ele>310.0</ele><time>2026-05-03T09:51:40.134Z</time></trkpt><trkpt lat="46.0360056" lon="13.5434885"><ele>315.0</ele><time>2026-05-03T09:51:41.135Z</time></trkpt><trkpt lat="46.0360946" lon="13.5435107"><ele>320.0</ele><time>2026-05-03T09:51:42.134Z</time></trkpt><trkpt lat="46.0361859" lon="13.5435304"><ele>325.0</ele><time>2026-05-03T09:51:43.135Z</time></trkpt><trkpt lat="46.0362804" lon="13.54353"><ele>325.0</ele><time>2026-05-03T09:51:44.135Z</time></trkpt><trkpt lat="46.0363787" lon="13.543514"><ele>325.0</ele><time>2026-05-03T09:51:45.135Z</time></trkpt><trkpt lat="46.036479" lon="13.5434825"><ele>325.0</ele><time>2026-05-03T09:51:46.135Z</time></trkpt><trkpt lat="46.0365717" lon="13.543442"><ele>325.0</ele><time>2026-05-03T09:51:47.135Z</time></trkpt><trkpt lat="46.0366628" lon="13.5433978"><ele>325.0</ele><time>2026-05-03T09:51:48.135Z</time></trkpt><trkpt lat="46.036745" lon="13.5433391"><ele>326.8333333333333</ele><time>2026-05-03T09:51:49.134Z</time></trkpt><trkpt lat="46.036814" lon="13.5432774"><ele>328.66666666666663</ele><time>2026-05-03T09:51:50.135Z</time></trkpt><trkpt lat="46.0368706" lon="13.5432092"><ele>330.5</ele><time>2026-05-03T09:51:51.135Z</time></trkpt><trkpt lat="46.0369148" lon="13.5430606"><ele>332.3333333333333</ele><time>2026-05-03T09:51:53.135Z</time></trkpt><trkpt lat="46.0368531" lon="13.54292"><ele>334.1666666666667</ele><time>2026-05-03T09:51:55.135Z</time></trkpt><trkpt lat="46.0368074" lon="13.5428567"><ele>336.0</ele><time>2026-05-03T09:51:56.135Z</time></trkpt><trkpt lat="46.0368229" lon="13.5427395"><ele>336.0</ele><time>2026-05-03T09:51:58.135Z</time></trkpt><trkpt lat="46.0369006" lon="13.5427433"><ele>336.0</ele><time>2026-05-03T09:52:00.135Z</time></trkpt><trkpt lat="46.0369627" lon="13.542885"><ele>336.0</ele><time>2026-05-03T09:52:02.135Z</time></trkpt><trkpt lat="46.0369929" lon="13.5429684"><ele>336.0</ele><time>2026-05-03T09:52:03.135Z</time></trkpt><trkpt lat="46.0370198" lon="13.5430576"><ele>336.0</ele><time>2026-05-03T09:52:04.135Z</time></trkpt><trkpt lat="46.0371036" lon="13.5431673"><ele>336.0</ele><time>2026-05-03T09:52:06.135Z</time></trkpt><trkpt lat="46.0371896" lon="13.5430839"><ele>336.0</ele><time>2026-05-03T09:52:08.135Z</time></trkpt><trkpt lat="46.0371767" lon="13.542945"><ele>336.0</ele><time>2026-05-03T09:52:10.135Z</time></trkpt><trkpt lat="46.0372136" lon="13.5428146"><ele>336.0</ele><time>2026-05-03T09:52:12.135Z</time></trkpt><trkpt lat="46.0373264" lon="13.542804"><ele>336.0</ele><time>2026-05-03T09:52:14.135Z</time></trkpt><trkpt lat="46.0373808" lon="13.5428561"><ele>336.0</ele><time>2026-05-03T09:52:15.135Z</time></trkpt><trkpt lat="46.0374114" lon="13.542941"><ele>336.0</ele><time>2026-05-03T09:52:16.135Z</time></trkpt><trkpt lat="46.0374376" lon="13.543041"><ele>336.6666666666667</ele><time>2026-05-03T09:52:17.135Z</time></trkpt><trkpt lat="46.0374571" lon="13.5431429"><ele>337.3333333333333</ele><time>2026-05-03T09:52:18.134Z</time></trkpt><trkpt lat="46.0374816" lon="13.5432442"><ele>338.0</ele><time>2026-05-03T09:52:19.135Z</time></trkpt><trkpt lat="46.0375082" lon="13.5433517"><ele>338.66666666666663</ele><time>2026-05-03T09:52:20.134Z</time></trkpt><trkpt lat="46.0375329" lon="13.5434553"><ele>339.3333333333333</ele><time>2026-05-03T09:52:21.134Z</time></trkpt><trkpt lat="46.0375577" lon="13.5435562"><ele>340.0</ele><time>2026-05-03T09:52:22.135Z</time></trkpt><trkpt lat="46.037595" lon="13.5436554"><ele>343.66666666666663</ele><time>2026-05-03T09:52:23.134Z</time></trkpt><trkpt lat="46.037645" lon="13.5437483"><ele>347.3333333333333</ele><time>2026-05-03T09:52:24.134Z</time></trkpt><trkpt lat="46.0377112" lon="13.543823"><ele>351.0</ele><time>2026-05-03T09:52:25.134Z</time></trkpt><trkpt lat="46.03777" lon="13.5438994"><ele>354.6666666666667</ele><time>2026-05-03T09:52:26.135Z</time></trkpt><trkpt lat="46.0378124" lon="13.5439894"><ele>358.33333333333337</ele><time>2026-05-03T09:52:27.135Z</time></trkpt><trkpt lat="46.0378345" lon="13.5441069"><ele>362.0</ele><time>2026-05-03T09:52:28.134Z</time></trkpt><trkpt lat="46.0378501" lon="13.5442224"><ele>362.0</ele><time>2026-05-03T09:52:29.135Z</time></trkpt><trkpt lat="46.0378528" lon="13.5443503"><ele>362.0</ele><time>2026-05-03T09:52:30.135Z</time></trkpt><trkpt lat="46.037852" lon="13.5444738"><ele>362.0</ele><time>2026-05-03T09:52:31.135Z</time></trkpt><trkpt lat="46.0378468" lon="13.5446001"><ele>362.0</ele><time>2026-05-03T09:52:32.135Z</time></trkpt><trkpt lat="46.03784" lon="13.5447235"><ele>362.0</ele><time>2026-05-03T09:52:33.135Z</time></trkpt><trkpt lat="46.0378296" lon="13.5448466"><ele>362.0</ele><time>2026-05-03T09:52:34.135Z</time></trkpt><trkpt lat="46.0378132" lon="13.5449741"><ele>362.6666666666667</ele><time>2026-05-03T09:52:35.135Z</time></trkpt><trkpt lat="46.0377921" lon="13.5450953"><ele>363.33333333333337</ele><time>2026-05-03T09:52:36.134Z</time></trkpt><trkpt lat="46.0377635" lon="13.5452095"><ele>364.0</ele><time>2026-05-03T09:52:37.135Z</time></trkpt><trkpt lat="46.0377172" lon="13.5453107"><ele>364.6666666666667</ele><time>2026-05-03T09:52:38.135Z</time></trkpt><trkpt lat="46.0376645" lon="13.5454035"><ele>365.3333333333333</ele><time>2026-05-03T09:52:39.135Z</time></trkpt><trkpt lat="46.0376171" lon="13.5455069"><ele>366.0</ele><time>2026-05-03T09:52:40.135Z</time></trkpt><trkpt lat="46.0375756" lon="13.5456165"><ele>366.8</ele><time>2026-05-03T09:52:41.135Z</time></trkpt><trkpt lat="46.0375356" lon="13.5457312"><ele>367.6</ele><time>2026-05-03T09:52:42.134Z</time></trkpt><trkpt lat="46.0374996" lon="13.545853"><ele>368.4</ele><time>2026-05-03T09:52:43.135Z</time></trkpt><trkpt lat="46.0374693" lon="13.5459776"><ele>369.2</ele><time>2026-05-03T09:52:44.134Z</time></trkpt><trkpt lat="46.0374438" lon="13.5461043"><ele>370.0</ele><time>2026-05-03T09:52:45.135Z</time></trkpt><trkpt lat="46.0374138" lon="13.5462354"><ele>371.0</ele><time>2026-05-03T09:52:46.134Z</time></trkpt><trkpt lat="46.037391" lon="13.5463673"><ele>372.0</ele><time>2026-05-03T09:52:47.135Z</time></trkpt><trkpt lat="46.0373749" lon="13.5465058"><ele>373.0</ele><time>2026-05-03T09:52:48.135Z</time></trkpt><trkpt lat="46.037357" lon="13.5466551"><ele>374.0</ele><time>2026-05-03T09:52:49.134Z</time></trkpt><trkpt lat="46.0373404" lon="13.546797"><ele>375.0</ele><time>2026-05-03T09:52:50.135Z</time></trkpt><trkpt lat="46.0373189" lon="13.5469378"><ele>374.3333333333333</ele><time>2026-05-03T09:52:51.135Z</time></trkpt><trkpt lat="46.0372946" lon="13.5470809"><ele>373.6666666666667</ele><time>2026-05-03T09:52:52.134Z</time></trkpt><trkpt lat="46.037285" lon="13.5472099"><ele>373.0</ele><time>2026-05-03T09:52:53.135Z</time></trkpt><trkpt lat="46.0373" lon="13.547323"><ele>372.33333333333337</ele><time>2026-05-03T09:52:54.135Z</time></trkpt><trkpt lat="46.0373391" lon="13.5474231"><ele>371.6666666666667</ele><time>2026-05-03T09:52:55.135Z</time></trkpt><trkpt lat="46.0373958" lon="13.5475055"><ele>371.0</ele><time>2026-05-03T09:52:56.135Z</time></trkpt><trkpt lat="46.0374509" lon="13.5475932"><ele>373.0</ele><time>2026-05-03T09:52:57.135Z</time></trkpt><trkpt lat="46.0375052" lon="13.5477004"><ele>375.0</ele><time>2026-05-03T09:52:58.134Z</time></trkpt><trkpt lat="46.0375668" lon="13.5478075"><ele>377.0</ele><time>2026-05-03T09:52:59.135Z</time></trkpt><trkpt lat="46.0376204" lon="13.5479299"><ele>379.0</ele><time>2026-05-03T09:53:00.135Z</time></trkpt><trkpt lat="46.0376651" lon="13.548058"><ele>381.0</ele><time>2026-05-03T09:53:01.135Z</time></trkpt><trkpt lat="46.0377016" lon="13.5481981"><ele>383.0</ele><time>2026-05-03T09:53:02.135Z</time></trkpt><trkpt lat="46.0377366" lon="13.548349"><ele>385.0</ele><time>2026-05-03T09:53:03.135Z</time></trkpt><trkpt lat="46.0377657" lon="13.5484987"><ele>387.0</ele><time>2026-05-03T09:53:04.135Z</time></trkpt><trkpt lat="46.0377867" lon="13.5486498"><ele>389.0</ele><time>2026-05-03T09:53:05.135Z</time></trkpt><trkpt lat="46.0378051" lon="13.5487914"><ele>391.0</ele><time>2026-05-03T09:53:06.135Z</time></trkpt><trkpt lat="46.037826" lon="13.5489187"><ele>391.4</ele><time>2026-05-03T09:53:07.135Z</time></trkpt><trkpt lat="46.0378665" lon="13.5490215"><ele>391.8</ele><time>2026-05-03T09:53:08.134Z</time></trkpt><trkpt lat="46.0379296" lon="13.5491058"><ele>392.2</ele><time>2026-05-03T09:53:09.135Z</time></trkpt><trkpt lat="46.0380094" lon="13.5491758"><ele>392.59999999999997</ele><time>2026-05-03T09:53:10.135Z</time></trkpt><trkpt lat="46.038084" lon="13.5492441"><ele>393.0</ele><time>2026-05-03T09:53:11.135Z</time></trkpt><trkpt lat="46.0381764" lon="13.549301"><ele>393.0</ele><time>2026-05-03T09:53:12.135Z</time></trkpt><trkpt lat="46.038272" lon="13.5493463"><ele>393.0</ele><time>2026-05-03T09:53:13.135Z</time></trkpt><trkpt lat="46.03836" lon="13.5493967"><ele>393.0</ele><time>2026-05-03T09:53:14.135Z</time></trkpt><trkpt lat="46.038444" lon="13.5494499"><ele>393.0</ele><time>2026-05-03T09:53:15.135Z</time></trkpt><trkpt lat="46.0385299" lon="13.5494906"><ele>393.0</ele><time>2026-05-03T09:53:16.135Z</time></trkpt><trkpt lat="46.0386152" lon="13.5495195"><ele>395.79999999999995</ele><time>2026-05-03T09:53:17.134Z</time></trkpt><trkpt lat="46.0387015" lon="13.5495452"><ele>398.6</ele><time>2026-05-03T09:53:18.135Z</time></trkpt><trkpt lat="46.038772" lon="13.549591"><ele>401.4</ele><time>2026-05-03T09:53:19.135Z</time></trkpt><trkpt lat="46.0388333" lon="13.5496859"><ele>404.20000000000005</ele><time>2026-05-03T09:53:20.135Z</time></trkpt><trkpt lat="46.038895" lon="13.5498037"><ele>407.0</ele><time>2026-05-03T09:53:21.135Z</time></trkpt><trkpt lat="46.0389585" lon="13.5499242"><ele>407.0</ele><time>2026-05-03T09:53:22.135Z</time></trkpt><trkpt lat="46.0390176" lon="13.5500502"><ele>407.0</ele><time>2026-05-03T09:53:23.134Z</time></trkpt><trkpt lat="46.0390713" lon="13.5501822"><ele>407.0</ele><time>2026-05-03T09:53:24.134Z</time></trkpt><trkpt lat="46.0391259" lon="13.5503132"><ele>407.0</ele><time>2026-05-03T09:53:25.134Z</time></trkpt><trkpt lat="46.0391824" lon="13.5504148"><ele>407.0</ele><time>2026-05-03T09:53:26.135Z</time></trkpt><trkpt lat="46.0392316" lon="13.5505153"><ele>408.40000000000003</ele><time>2026-05-03T09:53:27.135Z</time></trkpt><trkpt lat="46.0392793" lon="13.5506154"><ele>409.8</ele><time>2026-05-03T09:53:28.135Z</time></trkpt><trkpt lat="46.0393193" lon="13.5507287"><ele>411.2</ele><time>2026-05-03T09:53:29.135Z</time></trkpt><trkpt lat="46.039352" lon="13.5508539"><ele>412.6</ele><time>2026-05-03T09:53:30.134Z</time></trkpt><trkpt lat="46.03938" lon="13.5509831"><ele>414.0</ele><time>2026-05-03T09:53:31.135Z</time></trkpt><trkpt lat="46.0393997" lon="13.5511194"><ele>414.2</ele><time>2026-05-03T09:53:32.135Z</time></trkpt><trkpt lat="46.0394185" lon="13.5512602"><ele>414.4</ele><time>2026-05-03T09:53:33.135Z</time></trkpt><trkpt lat="46.0394346" lon="13.5514001"><ele>414.6</ele><time>2026-05-03T09:53:34.135Z</time></trkpt><trkpt lat="46.0394465" lon="13.5515456"><ele>414.8</ele><time>2026-05-03T09:53:35.135Z</time></trkpt><trkpt lat="46.0394457" lon="13.5516971"><ele>415.0</ele><time>2026-05-03T09:53:36.135Z</time></trkpt><trkpt lat="46.0394202" lon="13.5518407"><ele>415.0</ele><time>2026-05-03T09:53:37.135Z</time></trkpt><trkpt lat="46.0393811" lon="13.5519698"><ele>415.0</ele><time>2026-05-03T09:53:38.135Z</time></trkpt><trkpt lat="46.0393496" lon="13.5521007"><ele>415.0</ele><time>2026-05-03T09:53:39.135Z</time></trkpt><trkpt lat="46.0393651" lon="13.5522259"><ele>415.0</ele><time>2026-05-03T09:53:40.134Z</time></trkpt><trkpt lat="46.0394155" lon="13.5523297"><ele>415.0</ele><time>2026-05-03T09:53:41.134Z</time></trkpt><trkpt lat="46.0394778" lon="13.5524307"><ele>415.2</ele><time>2026-05-03T09:53:42.135Z</time></trkpt><trkpt lat="46.0395451" lon="13.5525444"><ele>415.4</ele><time>2026-05-03T09:53:43.134Z</time></trkpt><trkpt lat="46.0396056" lon="13.5526623"><ele>415.6</ele><time>2026-05-03T09:53:44.135Z</time></trkpt><trkpt lat="46.0396654" lon="13.5527712"><ele>415.8</ele><time>2026-05-03T09:53:45.135Z</time></trkpt><trkpt lat="46.039715" lon="13.5528883"><ele>416.0</ele><time>2026-05-03T09:53:46.135Z</time></trkpt><trkpt lat="46.0397578" lon="13.5530034"><ele>416.0</ele><time>2026-05-03T09:53:47.134Z</time></trkpt><trkpt lat="46.0398083" lon="13.5531162"><ele>416.0</ele><time>2026-05-03T09:53:48.135Z</time></trkpt><trkpt lat="46.0398621" lon="13.5532353"><ele>416.0</ele><time>2026-05-03T09:53:49.134Z</time></trkpt><trkpt lat="46.0399208" lon="13.5533337"><ele>416.0</ele><time>2026-05-03T09:53:50.134Z</time></trkpt><trkpt lat="46.0399892" lon="13.553411"><ele>416.0</ele><time>2026-05-03T09:53:51.134Z</time></trkpt><trkpt lat="46.0400602" lon="13.5535026"><ele>416.0</ele><time>2026-05-03T09:53:52.135Z</time></trkpt><trkpt lat="46.0401086" lon="13.553612"><ele>416.0</ele><time>2026-05-03T09:53:53.134Z</time></trkpt><trkpt lat="46.0401422" lon="13.5537419"><ele>416.0</ele><time>2026-05-03T09:53:54.135Z</time></trkpt><trkpt lat="46.0401793" lon="13.5538743"><ele>416.0</ele><time>2026-05-03T09:53:55.135Z</time></trkpt><trkpt lat="46.040223" lon="13.5540078"><ele>416.0</ele><time>2026-05-03T09:53:56.135Z</time></trkpt><trkpt lat="46.0402656" lon="13.5541375"><ele>416.0</ele><time>2026-05-03T09:53:57.134Z</time></trkpt><trkpt lat="46.0403055" lon="13.5542766"><ele>416.0</ele><time>2026-05-03T09:53:58.135Z</time></trkpt><trkpt lat="46.0403372" lon="13.5544269"><ele>416.0</ele><time>2026-05-03T09:53:59.135Z</time></trkpt><trkpt lat="46.040363" lon="13.5545794"><ele>416.0</ele><time>2026-05-03T09:54:00.135Z</time></trkpt><trkpt lat="46.0403855" lon="13.5547383"><ele>416.0</ele><time>2026-05-03T09:54:01.135Z</time></trkpt><trkpt lat="46.0404129" lon="13.5549022"><ele>413.0</ele><time>2026-05-03T09:54:02.135Z</time></trkpt><trkpt lat="46.0404456" lon="13.5550627"><ele>410.0</ele><time>2026-05-03T09:54:03.135Z</time></trkpt><trkpt lat="46.0404763" lon="13.5552102"><ele>407.0</ele><time>2026-05-03T09:54:04.135Z</time></trkpt><trkpt lat="46.0405116" lon="13.5553458"><ele>404.0</ele><time>2026-05-03T09:54:05.135Z</time></trkpt><trkpt lat="46.0405573" lon="13.5554638"><ele>401.0</ele><time>2026-05-03T09:54:06.135Z</time></trkpt><trkpt lat="46.0406194" lon="13.5555578"><ele>399.8</ele><time>2026-05-03T09:54:07.134Z</time></trkpt><trkpt lat="46.0407104" lon="13.5556138"><ele>398.6</ele><time>2026-05-03T09:54:08.135Z</time></trkpt><trkpt lat="46.0408194" lon="13.5556519"><ele>397.4</ele><time>2026-05-03T09:54:09.135Z</time></trkpt><trkpt lat="46.0409149" lon="13.5557047"><ele>396.2</ele><time>2026-05-03T09:54:10.134Z</time></trkpt><trkpt lat="46.0410038" lon="13.5557809"><ele>395.0</ele><time>2026-05-03T09:54:11.135Z</time></trkpt><trkpt lat="46.0410922" lon="13.555878"><ele>399.3333333333333</ele><time>2026-05-03T09:54:12.135Z</time></trkpt><trkpt lat="46.0411734" lon="13.5559713"><ele>403.66666666666663</ele><time>2026-05-03T09:54:13.135Z</time></trkpt><trkpt lat="46.0412491" lon="13.5560578"><ele>408.0</ele><time>2026-05-03T09:54:14.134Z</time></trkpt><trkpt lat="46.0413144" lon="13.5561396"><ele>412.33333333333337</ele><time>2026-05-03T09:54:15.134Z</time></trkpt><trkpt lat="46.0413658" lon="13.5562272"><ele>416.6666666666667</ele><time>2026-05-03T09:54:16.134Z</time></trkpt><trkpt lat="46.0413907" lon="13.556316"><ele>421.0</ele><time>2026-05-03T09:54:17.134Z</time></trkpt><trkpt lat="46.0413184" lon="13.5564665"><ele>421.00000000000006</ele><time>2026-05-03T09:54:19.134Z</time></trkpt><trkpt lat="46.0412459" lon="13.5564712"><ele>421.0</ele><time>2026-05-03T09:54:20.134Z</time></trkpt><trkpt lat="46.0411784" lon="13.5564257"><ele>421.0</ele><time>2026-05-03T09:54:21.134Z</time></trkpt><trkpt lat="46.0410974" lon="13.5563527"><ele>421.0</ele><time>2026-05-03T09:54:22.134Z</time></trkpt><trkpt lat="46.0410171" lon="13.5562766"><ele>421.00000000000006</ele><time>2026-05-03T09:54:23.134Z</time></trkpt><trkpt lat="46.0409428" lon="13.5562059"><ele>421.0</ele><time>2026-05-03T09:54:24.134Z</time></trkpt><trkpt lat="46.0408711" lon="13.5561519"><ele>421.00000000000006</ele><time>2026-05-03T09:54:25.134Z</time></trkpt><trkpt lat="46.0408063" lon="13.5561613"><ele>421.0</ele><time>2026-05-03T09:54:26.134Z</time></trkpt><trkpt lat="46.0407362" lon="13.5562907"><ele>421.0</ele><time>2026-05-03T09:54:28.133Z</time></trkpt><trkpt lat="46.0407493" lon="13.5563941"><ele>421.0</ele><time>2026-05-03T09:54:29.134Z</time></trkpt><trkpt lat="46.0407919" lon="13.5565029"><ele>421.00000000000006</ele><time>2026-05-03T09:54:30.134Z</time></trkpt><trkpt lat="46.0408478" lon="13.556606"><ele>421.0</ele><time>2026-05-03T09:54:31.133Z</time></trkpt><trkpt lat="46.0409015" lon="13.556705"><ele>422.00000000000006</ele><time>2026-05-03T09:54:32.133Z</time></trkpt><trkpt lat="46.0409532" lon="13.5568078"><ele>423.0</ele><time>2026-05-03T09:54:33.134Z</time></trkpt><trkpt lat="46.0410104" lon="13.5569079"><ele>424.0</ele><time>2026-05-03T09:54:34.133Z</time></trkpt><trkpt lat="46.0410725" lon="13.556997"><ele>425.0</ele><time>2026-05-03T09:54:35.134Z</time></trkpt><trkpt lat="46.0411278" lon="13.5570939"><ele>426.00000000000006</ele><time>2026-05-03T09:54:36.133Z</time></trkpt><trkpt lat="46.0411739" lon="13.5571947"><ele>427.0</ele><time>2026-05-03T09:54:37.134Z</time></trkpt><trkpt lat="46.0412049" lon="13.5573039"><ele>427.0</ele><time>2026-05-03T09:54:38.134Z</time></trkpt><trkpt lat="46.041224" lon="13.5574279"><ele>427.00000000000006</ele><time>2026-05-03T09:54:39.133Z</time></trkpt><trkpt lat="46.0412444" lon="13.5575595"><ele>427.00000000000006</ele><time>2026-05-03T09:54:40.134Z</time></trkpt><trkpt lat="46.0412569" lon="13.5577016"><ele>427.0</ele><time>2026-05-03T09:54:41.134Z</time></trkpt><trkpt lat="46.0412673" lon="13.5578354"><ele>427.0</ele><time>2026-05-03T09:54:42.133Z</time></trkpt><trkpt lat="46.041288" lon="13.557947"><ele>426.42857142857144</ele><time>2026-05-03T09:54:43.134Z</time></trkpt><trkpt lat="46.0413306" lon="13.5580246"><ele>425.8571428571429</ele><time>2026-05-03T09:54:44.134Z</time></trkpt><trkpt lat="46.0413754" lon="13.5580941"><ele>425.2857142857143</ele><time>2026-05-03T09:54:45.134Z</time></trkpt><trkpt lat="46.0414175" lon="13.5581761"><ele>424.7142857142857</ele><time>2026-05-03T09:54:46.134Z</time></trkpt><trkpt lat="46.0414488" lon="13.5582782"><ele>424.14285714285717</ele><time>2026-05-03T09:54:47.133Z</time></trkpt><trkpt lat="46.0414663" lon="13.5583871"><ele>423.57142857142856</ele><time>2026-05-03T09:54:48.134Z</time></trkpt><trkpt lat="46.0414681" lon="13.5585025"><ele>423.0</ele><time>2026-05-03T09:54:49.134Z</time></trkpt><trkpt lat="46.0414695" lon="13.5586201"><ele>422.0</ele><time>2026-05-03T09:54:50.134Z</time></trkpt><trkpt lat="46.0414718" lon="13.5587361"><ele>421.0</ele><time>2026-05-03T09:54:51.133Z</time></trkpt><trkpt lat="46.0414815" lon="13.5588745"><ele>420.0</ele><time>2026-05-03T09:54:52.134Z</time></trkpt><trkpt lat="46.041486" lon="13.5590112"><ele>419.0</ele><time>2026-05-03T09:54:53.134Z</time></trkpt><trkpt lat="46.0415003" lon="13.5591421"><ele>418.0</ele><time>2026-05-03T09:54:54.134Z</time></trkpt><trkpt lat="46.0415293" lon="13.5592563"><ele>417.0</ele><time>2026-05-03T09:54:55.134Z</time></trkpt><trkpt lat="46.0415766" lon="13.5593712"><ele>424.0</ele><time>2026-05-03T09:54:56.134Z</time></trkpt><trkpt lat="46.0416366" lon="13.559477"><ele>431.0</ele><time>2026-05-03T09:54:57.134Z</time></trkpt><trkpt lat="46.0417019" lon="13.5595893"><ele>438.00000000000006</ele><time>2026-05-03T09:54:58.134Z</time></trkpt><trkpt lat="46.0417608" lon="13.5596981"><ele>445.0</ele><time>2026-05-03T09:54:59.134Z</time></trkpt><trkpt lat="46.0417966" lon="13.5598333"><ele>452.0</ele><time>2026-05-03T09:55:00.134Z</time></trkpt><trkpt lat="46.0418048" lon="13.5599881"><ele>452.25</ele><time>2026-05-03T09:55:01.133Z</time></trkpt><trkpt lat="46.0417852" lon="13.5601573"><ele>452.5</ele><time>2026-05-03T09:55:02.134Z</time></trkpt><trkpt lat="46.0417586" lon="13.5603239"><ele>452.75</ele><time>2026-05-03T09:55:03.134Z</time></trkpt><trkpt lat="46.0417184" lon="13.5604886"><ele>453.0</ele><time>2026-05-03T09:55:04.133Z</time></trkpt><trkpt lat="46.0416758" lon="13.5606505"><ele>455.4</ele><time>2026-05-03T09:55:05.134Z</time></trkpt><trkpt lat="46.0416392" lon="13.5607946"><ele>457.79999999999995</ele><time>2026-05-03T09:55:06.134Z</time></trkpt><trkpt lat="46.0416122" lon="13.5609432"><ele>460.2</ele><time>2026-05-03T09:55:07.134Z</time></trkpt><trkpt lat="46.0415744" lon="13.561084"><ele>462.6</ele><time>2026-05-03T09:55:08.133Z</time></trkpt><trkpt lat="46.0415288" lon="13.5612175"><ele>465.0</ele><time>2026-05-03T09:55:09.134Z</time></trkpt><trkpt lat="46.0414809" lon="13.5613486"><ele>458.25</ele><time>2026-05-03T09:55:10.134Z</time></trkpt><trkpt lat="46.041432" lon="13.5614904"><ele>451.5</ele><time>2026-05-03T09:55:11.134Z</time></trkpt><trkpt lat="46.0413799" lon="13.561639"><ele>444.75</ele><time>2026-05-03T09:55:12.134Z</time></trkpt><trkpt lat="46.0413265" lon="13.5617883"><ele>438.0</ele><time>2026-05-03T09:55:13.134Z</time></trkpt><trkpt lat="46.0412865" lon="13.561937"><ele>440.79999999999995</ele><time>2026-05-03T09:55:14.133Z</time></trkpt><trkpt lat="46.041248" lon="13.5620822"><ele>443.59999999999997</ele><time>2026-05-03T09:55:15.133Z</time></trkpt><trkpt lat="46.0412119" lon="13.5622282"><ele>446.40000000000003</ele><time>2026-05-03T09:55:16.134Z</time></trkpt><trkpt lat="46.0411686" lon="13.5623668"><ele>449.20000000000005</ele><time>2026-05-03T09:55:17.134Z</time></trkpt><trkpt lat="46.0411194" lon="13.5625119"><ele>452.0</ele><time>2026-05-03T09:55:18.134Z</time></trkpt><trkpt lat="46.0410635" lon="13.5626555"><ele>452.0</ele><time>2026-05-03T09:55:19.133Z</time></trkpt><trkpt lat="46.0410036" lon="13.5628102"><ele>452.0</ele><time>2026-05-03T09:55:20.134Z</time></trkpt><trkpt lat="46.0409525" lon="13.5629669"><ele>452.0</ele><time>2026-05-03T09:55:21.134Z</time></trkpt><trkpt lat="46.040903" lon="13.5631288"><ele>452.0</ele><time>2026-05-03T09:55:22.133Z</time></trkpt><trkpt lat="46.0408461" lon="13.5632804"><ele>452.0</ele><time>2026-05-03T09:55:23.134Z</time></trkpt><trkpt lat="46.0407898" lon="13.5634391"><ele>452.0</ele><time>2026-05-03T09:55:24.134Z</time></trkpt><trkpt lat="46.040736" lon="13.5635893"><ele>452.0</ele><time>2026-05-03T09:55:25.133Z</time></trkpt><trkpt lat="46.0406779" lon="13.5637454"><ele>452.0</ele><time>2026-05-03T09:55:26.134Z</time></trkpt><trkpt lat="46.040617" lon="13.5639016"><ele>452.0</ele><time>2026-05-03T09:55:27.134Z</time></trkpt><trkpt lat="46.0405485" lon="13.5640609"><ele>452.0</ele><time>2026-05-03T09:55:28.134Z</time></trkpt><trkpt lat="46.040476" lon="13.5642127"><ele>452.0</ele><time>2026-05-03T09:55:29.134Z</time></trkpt><trkpt lat="46.0404019" lon="13.56436"><ele>452.0</ele><time>2026-05-03T09:55:30.133Z</time></trkpt><trkpt lat="46.0403291" lon="13.5644995"><ele>457.5</ele><time>2026-05-03T09:55:31.133Z</time></trkpt><trkpt lat="46.0402552" lon="13.5646437"><ele>463.0</ele><time>2026-05-03T09:55:32.134Z</time></trkpt><trkpt lat="46.0401846" lon="13.5647859"><ele>468.5</ele><time>2026-05-03T09:55:33.134Z</time></trkpt><trkpt lat="46.0401157" lon="13.5649283"><ele>474.0</ele><time>2026-05-03T09:55:34.133Z</time></trkpt><trkpt lat="46.0400469" lon="13.5650693"><ele>474.0</ele><time>2026-05-03T09:55:35.133Z</time></trkpt><trkpt lat="46.0399725" lon="13.5652124"><ele>474.0</ele><time>2026-05-03T09:55:36.134Z</time></trkpt><trkpt lat="46.039899" lon="13.5653501"><ele>474.0</ele><time>2026-05-03T09:55:37.134Z</time></trkpt><trkpt lat="46.0398325" lon="13.5654835"><ele>474.0</ele><time>2026-05-03T09:55:38.134Z</time></trkpt><trkpt lat="46.03977" lon="13.5656286"><ele>475.4</ele><time>2026-05-03T09:55:39.134Z</time></trkpt><trkpt lat="46.0397168" lon="13.5657712"><ele>476.79999999999995</ele><time>2026-05-03T09:55:40.134Z</time></trkpt><trkpt lat="46.039661" lon="13.5658995"><ele>478.20000000000005</ele><time>2026-05-03T09:55:41.134Z</time></trkpt><trkpt lat="46.039586" lon="13.5659986"><ele>479.6</ele><time>2026-05-03T09:55:42.134Z</time></trkpt><trkpt lat="46.0394978" lon="13.5660488"><ele>481.0</ele><time>2026-05-03T09:55:43.134Z</time></trkpt><trkpt lat="46.0393965" lon="13.56607"><ele>481.0</ele><time>2026-05-03T09:55:44.134Z</time></trkpt><trkpt lat="46.0392997" lon="13.5660837"><ele>481.0</ele><time>2026-05-03T09:55:45.133Z</time></trkpt><trkpt lat="46.0392096" lon="13.5661246"><ele>481.0</ele><time>2026-05-03T09:55:46.134Z</time></trkpt><trkpt lat="46.0391195" lon="13.5661726"><ele>481.0</ele><time>2026-05-03T09:55:47.133Z</time></trkpt><trkpt lat="46.0390327" lon="13.5661975"><ele>481.0</ele><time>2026-05-03T09:55:48.134Z</time></trkpt><trkpt lat="46.0389386" lon="13.5662053"><ele>481.6</ele><time>2026-05-03T09:55:49.134Z</time></trkpt><trkpt lat="46.0388491" lon="13.5662026"><ele>482.20000000000005</ele><time>2026-05-03T09:55:50.134Z</time></trkpt><trkpt lat="46.0387557" lon="13.5661935"><ele>482.79999999999995</ele><time>2026-05-03T09:55:51.134Z</time></trkpt><trkpt lat="46.0386556" lon="13.5661755"><ele>483.4</ele><time>2026-05-03T09:55:52.134Z</time></trkpt><trkpt lat="46.038566" lon="13.5661472"><ele>484.0</ele><time>2026-05-03T09:55:53.134Z</time></trkpt><trkpt lat="46.0384883" lon="13.5660933"><ele>484.00000000000006</ele><time>2026-05-03T09:55:54.133Z</time></trkpt><trkpt lat="46.0384286" lon="13.5660141"><ele>484.0</ele><time>2026-05-03T09:55:55.129Z</time></trkpt><trkpt lat="46.0383769" lon="13.5659149"><ele>484.0</ele><time>2026-05-03T09:55:56.133Z</time></trkpt><trkpt lat="46.0383269" lon="13.5658027"><ele>484.0</ele><time>2026-05-03T09:55:57.133Z</time></trkpt><trkpt lat="46.0382767" lon="13.5656952"><ele>484.00000000000006</ele><time>2026-05-03T09:55:58.134Z</time></trkpt><trkpt lat="46.038224" lon="13.5656121"><ele>484.0</ele><time>2026-05-03T09:55:59.134Z</time></trkpt><trkpt lat="46.0381687" lon="13.5655433"><ele>481.0</ele><time>2026-05-03T09:56:00.133Z</time></trkpt><trkpt lat="46.0381076" lon="13.5655008"><ele>478.0</ele><time>2026-05-03T09:56:01.134Z</time></trkpt><trkpt lat="46.0379985" lon="13.5654728"><ele>475.0</ele><time>2026-05-03T09:56:03.134Z</time></trkpt><trkpt lat="46.0378737" lon="13.5656152"><ele>472.0</ele><time>2026-05-03T09:59:09.132Z</time></trkpt><trkpt lat="46.0377908" lon="13.5657363"><ele>472.00000000000006</ele><time>2026-05-03T09:59:11.132Z</time></trkpt><trkpt lat="46.037745" lon="13.5658102"><ele>472.0</ele><time>2026-05-03T09:59:12.133Z</time></trkpt><trkpt lat="46.0376977" lon="13.5658854"><ele>472.0</ele><time>2026-05-03T09:59:13.133Z</time></trkpt><trkpt lat="46.0376381" lon="13.5659575"><ele>472.0</ele><time>2026-05-03T09:59:14.133Z</time></trkpt><trkpt lat="46.0375653" lon="13.566036"><ele>472.00000000000006</ele><time>2026-05-03T09:59:15.133Z</time></trkpt><trkpt lat="46.0374855" lon="13.5661019"><ele>472.0</ele><time>2026-05-03T09:59:16.132Z</time></trkpt><trkpt lat="46.0374012" lon="13.5661646"><ele>473.8</ele><time>2026-05-03T09:59:17.133Z</time></trkpt><trkpt lat="46.0373067" lon="13.5662129"><ele>475.6</ele><time>2026-05-03T09:59:18.133Z</time></trkpt><trkpt lat="46.0372122" lon="13.566248"><ele>477.40000000000003</ele><time>2026-05-03T09:59:19.133Z</time></trkpt><trkpt lat="46.0371337" lon="13.5662626"><ele>479.20000000000005</ele><time>2026-05-03T09:59:20.133Z</time></trkpt><trkpt lat="46.0370398" lon="13.5662662"><ele>481.0</ele><time>2026-05-03T09:59:22.133Z</time></trkpt><trkpt lat="46.036949" lon="13.5662441"><ele>481.0</ele><time>2026-05-03T09:59:24.132Z</time></trkpt><trkpt lat="46.0368756" lon="13.5662075"><ele>481.0</ele><time>2026-05-03T09:59:25.132Z</time></trkpt><trkpt lat="46.0367905" lon="13.5661799"><ele>481.0</ele><time>2026-05-03T09:59:26.133Z</time></trkpt><trkpt lat="46.0366924" lon="13.5661819"><ele>481.0</ele><time>2026-05-03T09:59:27.133Z</time></trkpt><trkpt lat="46.0365878" lon="13.566216"><ele>481.0</ele><time>2026-05-03T09:59:28.132Z</time></trkpt><trkpt lat="46.0364813" lon="13.5662626"><ele>482.20000000000005</ele><time>2026-05-03T09:59:29.132Z</time></trkpt><trkpt lat="46.0363831" lon="13.5663109"><ele>483.40000000000003</ele><time>2026-05-03T09:59:30.133Z</time></trkpt><trkpt lat="46.0363101" lon="13.5663456"><ele>484.6</ele><time>2026-05-03T09:59:31.133Z</time></trkpt><trkpt lat="46.0362341" lon="13.5663736"><ele>485.8</ele><time>2026-05-03T09:59:33.132Z</time></trkpt><trkpt lat="46.036155" lon="13.5664722"><ele>487.0</ele><time>2026-05-03T09:59:36.132Z</time></trkpt><trkpt lat="46.0360868" lon="13.5665859"><ele>487.0</ele><time>2026-05-03T09:59:38.133Z</time></trkpt><trkpt lat="46.0360042" lon="13.5667176"><ele>487.0</ele><time>2026-05-03T09:59:40.133Z</time></trkpt><trkpt lat="46.0359213" lon="13.5668657"><ele>487.0</ele><time>2026-05-03T09:59:42.133Z</time></trkpt><trkpt lat="46.03584" lon="13.566986"><ele>487.0</ele><time>2026-05-03T09:59:44.133Z</time></trkpt><trkpt lat="46.0357569" lon="13.5671046"><ele>486.8</ele><time>2026-05-03T09:59:46.133Z</time></trkpt><trkpt lat="46.0356684" lon="13.5672031"><ele>486.6</ele><time>2026-05-03T09:59:48.133Z</time></trkpt><trkpt lat="46.0355958" lon="13.5672684"><ele>486.40000000000003</ele><time>2026-05-03T09:59:50.133Z</time></trkpt><trkpt lat="46.0355001" lon="13.5673267"><ele>486.20000000000005</ele><time>2026-05-03T09:59:52.132Z</time></trkpt><trkpt lat="46.0353931" lon="13.5673625"><ele>486.0</ele><time>2026-05-03T09:59:54.133Z</time></trkpt><trkpt lat="46.0352973" lon="13.5674164"><ele>486.0</ele><time>2026-05-03T09:59:56.133Z</time></trkpt><trkpt lat="46.0352278" lon="13.5674731"><ele>486.0</ele><time>2026-05-03T09:59:58.132Z</time></trkpt><trkpt lat="46.0351565" lon="13.5675678"><ele>486.0</ele><time>2026-05-03T10:00:00.133Z</time></trkpt><trkpt lat="46.0351193" lon="13.5676901"><ele>486.0</ele><time>2026-05-03T10:00:02.133Z</time></trkpt><trkpt lat="46.0350984" lon="13.5677831"><ele>486.0</ele><time>2026-05-03T10:00:03.132Z</time></trkpt><trkpt lat="46.0350679" lon="13.567877"><ele>486.0</ele><time>2026-05-03T10:00:04.133Z</time></trkpt><trkpt lat="46.0350331" lon="13.5679604"><ele>483.8</ele><time>2026-05-03T10:00:05.133Z</time></trkpt><trkpt lat="46.0349749" lon="13.5681297"><ele>481.6</ele><time>2026-05-03T10:00:07.133Z</time></trkpt><trkpt lat="46.0349332" lon="13.5681984"><ele>479.4</ele><time>2026-05-03T10:00:08.133Z</time></trkpt><trkpt lat="46.0349103" lon="13.5683474"><ele>477.2</ele><time>2026-05-03T10:00:10.133Z</time></trkpt><trkpt lat="46.0348889" lon="13.5684346"><ele>475.0</ele><time>2026-05-03T10:00:11.133Z</time></trkpt><trkpt lat="46.0348396" lon="13.5685719"><ele>474.50000000000006</ele><time>2026-05-03T10:00:13.132Z</time></trkpt><trkpt lat="46.0347578" lon="13.5687223"><ele>474.0</ele><time>2026-05-03T10:00:15.133Z</time></trkpt><trkpt lat="46.0347136" lon="13.5688158"><ele>473.5</ele><time>2026-05-03T10:00:16.133Z</time></trkpt><trkpt lat="46.0346795" lon="13.5689074"><ele>473.0</ele><time>2026-05-03T10:00:17.133Z</time></trkpt><trkpt lat="46.0346489" lon="13.5689955"><ele>472.50000000000006</ele><time>2026-05-03T10:00:18.133Z</time></trkpt><trkpt lat="46.0346216" lon="13.5690832"><ele>472.0</ele><time>2026-05-03T10:00:19.133Z</time></trkpt><trkpt lat="46.0345882" lon="13.5691652"><ele>472.0</ele><time>2026-05-03T10:00:20.133Z</time></trkpt><trkpt lat="46.0345278" lon="13.5692668"><ele>472.00000000000006</ele><time>2026-05-03T10:00:22.133Z</time></trkpt><trkpt lat="46.0344322" lon="13.5693627"><ele>472.00000000000006</ele><time>2026-05-03T10:00:24.133Z</time></trkpt><trkpt lat="46.0343738" lon="13.5694033"><ele>472.0</ele><time>2026-05-03T10:00:25.132Z</time></trkpt><trkpt lat="46.0343079" lon="13.5694433"><ele>472.0</ele><time>2026-05-03T10:00:26.133Z</time></trkpt><trkpt lat="46.0341717" lon="13.5695211"><ele>469.0</ele><time>2026-05-03T10:00:28.133Z</time></trkpt><trkpt lat="46.034095" lon="13.5695631"><ele>466.0</ele><time>2026-05-03T10:00:29.133Z</time></trkpt><trkpt lat="46.034023" lon="13.5696081"><ele>463.0</ele><time>2026-05-03T10:00:30.133Z</time></trkpt><trkpt lat="46.0339572" lon="13.5696464"><ele>460.0</ele><time>2026-05-03T10:00:31.133Z</time></trkpt><trkpt lat="46.0338942" lon="13.5696944"><ele>457.0</ele><time>2026-05-03T10:00:32.133Z</time></trkpt><trkpt lat="46.0338383" lon="13.5697532"><ele>454.0</ele><time>2026-05-03T10:00:33.133Z</time></trkpt><trkpt lat="46.0337936" lon="13.5698287"><ele>451.0</ele><time>2026-05-03T10:00:34.132Z</time></trkpt><trkpt lat="46.0337263" lon="13.5699509"><ele>451.0</ele><time>2026-05-03T10:00:36.132Z</time></trkpt><trkpt lat="46.0336431" lon="13.5700388"><ele>451.0</ele><time>2026-05-03T10:00:38.133Z</time></trkpt><trkpt lat="46.0335808" lon="13.570089"><ele>451.0</ele><time>2026-05-03T10:00:39.133Z</time></trkpt><trkpt lat="46.0334846" lon="13.5701234"><ele>451.0</ele><time>2026-05-03T10:00:41.133Z</time></trkpt><trkpt lat="46.033391" lon="13.5701649"><ele>451.0</ele><time>2026-05-03T10:00:43.133Z</time></trkpt><trkpt lat="46.0333114" lon="13.5702186"><ele>446.83333333333337</ele><time>2026-05-03T10:00:45.132Z</time></trkpt><trkpt lat="46.0332434" lon="13.5702907"><ele>442.6666666666667</ele><time>2026-05-03T10:00:47.133Z</time></trkpt><trkpt lat="46.0331937" lon="13.5703719"><ele>438.5</ele><time>2026-05-03T10:00:49.133Z</time></trkpt><trkpt lat="46.0331468" lon="13.5704448"><ele>434.33333333333337</ele><time>2026-05-03T10:00:51.133Z</time></trkpt><trkpt lat="46.0331088" lon="13.5705533"><ele>430.1666666666667</ele><time>2026-05-03T10:00:53.132Z</time></trkpt><trkpt lat="46.0330787" lon="13.5707047"><ele>426.0</ele><time>2026-05-03T10:00:55.133Z</time></trkpt><trkpt lat="46.0330457" lon="13.5708327"><ele>426.0</ele><time>2026-05-03T10:00:57.133Z</time></trkpt><trkpt lat="46.0330019" lon="13.570954"><ele>426.0</ele><time>2026-05-03T10:00:59.133Z</time></trkpt><trkpt lat="46.0329439" lon="13.5710656"><ele>426.0</ele><time>2026-05-03T10:01:01.133Z</time></trkpt><trkpt lat="46.0328803" lon="13.5711752"><ele>426.0</ele><time>2026-05-03T10:01:03.133Z</time></trkpt><trkpt lat="46.0328297" lon="13.5712843"><ele>426.0</ele><time>2026-05-03T10:01:05.132Z</time></trkpt><trkpt lat="46.032776" lon="13.5713729"><ele>427.5</ele><time>2026-05-03T10:01:07.132Z</time></trkpt><trkpt lat="46.0327143" lon="13.5714581"><ele>429.0</ele><time>2026-05-03T10:01:09.133Z</time></trkpt><trkpt lat="46.0326604" lon="13.5715231"><ele>430.5</ele><time>2026-05-03T10:01:11.132Z</time></trkpt><trkpt lat="46.0325871" lon="13.5715925"><ele>432.0</ele><time>2026-05-03T10:01:13.132Z</time></trkpt><trkpt lat="46.0325237" lon="13.5716613"><ele>433.5</ele><time>2026-05-03T10:01:15.133Z</time></trkpt><trkpt lat="46.0324599" lon="13.5717147"><ele>435.0</ele><time>2026-05-03T10:01:17.133Z</time></trkpt><trkpt lat="46.0324043" lon="13.5717755"><ele>433.0</ele><time>2026-05-03T10:01:19.133Z</time></trkpt><trkpt lat="46.0323224" lon="13.57186"><ele>431.0</ele><time>2026-05-03T10:01:21.133Z</time></trkpt><trkpt lat="46.0322303" lon="13.5719973"><ele>429.0</ele><time>2026-05-03T10:01:23.133Z</time></trkpt><trkpt lat="46.0321898" lon="13.572074"><ele>427.0</ele><time>2026-05-03T10:01:24.133Z</time></trkpt><trkpt lat="46.032144" lon="13.5721526"><ele>425.0</ele><time>2026-05-03T10:01:25.133Z</time></trkpt><trkpt lat="46.0320973" lon="13.572235"><ele>423.0</ele><time>2026-05-03T10:01:26.132Z</time></trkpt><trkpt lat="46.0320447" lon="13.5723266"><ele>423.0</ele><time>2026-05-03T10:01:27.133Z</time></trkpt><trkpt lat="46.0319787" lon="13.5724315"><ele>423.0</ele><time>2026-05-03T10:01:28.132Z</time></trkpt><trkpt lat="46.0319016" lon="13.572535"><ele>423.0</ele><time>2026-05-03T10:01:29.133Z</time></trkpt><trkpt lat="46.0318166" lon="13.5726387"><ele>423.0</ele><time>2026-05-03T10:01:30.132Z</time></trkpt><trkpt lat="46.0317213" lon="13.5727304"><ele>423.0</ele><time>2026-05-03T10:01:31.133Z</time></trkpt><trkpt lat="46.0316176" lon="13.572824"><ele>422.0</ele><time>2026-05-03T10:01:32.133Z</time></trkpt><trkpt lat="46.0315039" lon="13.5729122"><ele>421.0</ele><time>2026-05-03T10:01:33.133Z</time></trkpt><trkpt lat="46.0313896" lon="13.5730052"><ele>420.0</ele><time>2026-05-03T10:01:34.132Z</time></trkpt><trkpt lat="46.0312757" lon="13.5730808"><ele>419.0</ele><time>2026-05-03T10:01:35.132Z</time></trkpt><trkpt lat="46.0311685" lon="13.5731668"><ele>419.0</ele><time>2026-05-03T10:01:36.133Z</time></trkpt><trkpt lat="46.0310768" lon="13.5733019"><ele>419.0</ele><time>2026-05-03T10:01:37.133Z</time></trkpt><trkpt lat="46.031003" lon="13.5734332"><ele>419.0</ele><time>2026-05-03T10:01:38.133Z</time></trkpt><trkpt lat="46.0309369" lon="13.5735612"><ele>419.0</ele><time>2026-05-03T10:01:39.133Z</time></trkpt><trkpt lat="46.030861" lon="13.5736483"><ele>419.3333333333333</ele><time>2026-05-03T10:01:40.133Z</time></trkpt><trkpt lat="46.0307754" lon="13.5736946"><ele>419.66666666666663</ele><time>2026-05-03T10:01:41.132Z</time></trkpt><trkpt lat="46.0307005" lon="13.5736733"><ele>420.0</ele><time>2026-05-03T10:01:42.133Z</time></trkpt><trkpt lat="46.0306424" lon="13.573611"><ele>420.33333333333337</ele><time>2026-05-03T10:01:43.133Z</time></trkpt><trkpt lat="46.0305869" lon="13.5735423"><ele>420.6666666666667</ele><time>2026-05-03T10:01:44.132Z</time></trkpt><trkpt lat="46.0305196" lon="13.5735113"><ele>421.0</ele><time>2026-05-03T10:01:45.133Z</time></trkpt><trkpt lat="46.0304423" lon="13.5735355"><ele>421.0</ele><time>2026-05-03T10:01:46.133Z</time></trkpt><trkpt lat="46.0303485" lon="13.5736193"><ele>421.0</ele><time>2026-05-03T10:01:47.133Z</time></trkpt><trkpt lat="46.0302588" lon="13.5737211"><ele>421.0</ele><time>2026-05-03T10:01:48.132Z</time></trkpt><trkpt lat="46.030165" lon="13.5738236"><ele>421.0</ele><time>2026-05-03T10:01:49.132Z</time></trkpt><trkpt lat="46.0300627" lon="13.5739277"><ele>415.75</ele><time>2026-05-03T10:01:50.132Z</time></trkpt><trkpt lat="46.0299614" lon="13.5740425"><ele>410.5</ele><time>2026-05-03T10:01:51.133Z</time></trkpt><trkpt lat="46.0298686" lon="13.5741563"><ele>405.25</ele><time>2026-05-03T10:01:52.132Z</time></trkpt><trkpt lat="46.0297839" lon="13.5742686"><ele>400.0</ele><time>2026-05-03T10:01:53.133Z</time></trkpt><trkpt lat="46.0297047" lon="13.5743504"><ele>400.0</ele><time>2026-05-03T10:01:54.133Z</time></trkpt><trkpt lat="46.0296385" lon="13.5744033"><ele>400.0</ele><time>2026-05-03T10:01:55.132Z</time></trkpt><trkpt lat="46.0295379" lon="13.5744391"><ele>400.0</ele><time>2026-05-03T10:01:57.133Z</time></trkpt><trkpt lat="46.0294118" lon="13.5744711"><ele>400.0</ele><time>2026-05-03T10:01:59.133Z</time></trkpt><trkpt lat="46.0293329" lon="13.5745028"><ele>400.0</ele><time>2026-05-03T10:02:00.133Z</time></trkpt><trkpt lat="46.0292403" lon="13.5745421"><ele>404.5</ele><time>2026-05-03T10:02:01.133Z</time></trkpt><trkpt lat="46.0291293" lon="13.5745853"><ele>409.0</ele><time>2026-05-03T10:02:02.133Z</time></trkpt><trkpt lat="46.029004" lon="13.5746476"><ele>413.5</ele><time>2026-05-03T10:02:03.133Z</time></trkpt><trkpt lat="46.028889" lon="13.5746732"><ele>418.0</ele><time>2026-05-03T10:02:04.132Z</time></trkpt><trkpt lat="46.0287708" lon="13.5746532"><ele>418.0</ele><time>2026-05-03T10:02:05.133Z</time></trkpt><trkpt lat="46.0286544" lon="13.574603"><ele>418.0</ele><time>2026-05-03T10:02:06.133Z</time></trkpt><trkpt lat="46.0285429" lon="13.5745339"><ele>418.0</ele><time>2026-05-03T10:02:07.133Z</time></trkpt><trkpt lat="46.0284367" lon="13.5744622"><ele>418.0</ele><time>2026-05-03T10:02:08.133Z</time></trkpt><trkpt lat="46.0283303" lon="13.5744028"><ele>415.0</ele><time>2026-05-03T10:02:09.133Z</time></trkpt><trkpt lat="46.0282187" lon="13.5743787"><ele>412.0</ele><time>2026-05-03T10:02:10.133Z</time></trkpt><trkpt lat="46.0281089" lon="13.5744163"><ele>409.0</ele><time>2026-05-03T10:02:11.132Z</time></trkpt><trkpt lat="46.0280081" lon="13.5745157"><ele>406.0</ele><time>2026-05-03T10:02:12.132Z</time></trkpt><trkpt lat="46.0279164" lon="13.5746382"><ele>406.0</ele><time>2026-05-03T10:02:13.133Z</time></trkpt><trkpt lat="46.0278199" lon="13.5747353"><ele>406.0</ele><time>2026-05-03T10:02:14.133Z</time></trkpt><trkpt lat="46.0277196" lon="13.5747918"><ele>406.0</ele><time>2026-05-03T10:02:15.132Z</time></trkpt><trkpt lat="46.027614" lon="13.5748209"><ele>406.0</ele><time>2026-05-03T10:02:16.133Z</time></trkpt><trkpt lat="46.0275013" lon="13.5748228"><ele>406.0</ele><time>2026-05-03T10:02:17.133Z</time></trkpt><trkpt lat="46.0273735" lon="13.5748197"><ele>403.6</ele><time>2026-05-03T10:02:18.133Z</time></trkpt><trkpt lat="46.0272527" lon="13.5747917"><ele>401.20000000000005</ele><time>2026-05-03T10:02:19.133Z</time></trkpt><trkpt lat="46.027146" lon="13.5747663"><ele>398.79999999999995</ele><time>2026-05-03T10:02:20.132Z</time></trkpt><trkpt lat="46.0270434" lon="13.5747584"><ele>396.4</ele><time>2026-05-03T10:02:21.133Z</time></trkpt><trkpt lat="46.0269396" lon="13.5747911"><ele>394.0</ele><time>2026-05-03T10:02:22.133Z</time></trkpt><trkpt lat="46.0268424" lon="13.5748555"><ele>394.0</ele><time>2026-05-03T10:02:23.133Z</time></trkpt><trkpt lat="46.0267506" lon="13.5749186"><ele>394.0</ele><time>2026-05-03T10:02:24.132Z</time></trkpt><trkpt lat="46.0266498" lon="13.574955"><ele>394.0</ele><time>2026-05-03T10:02:25.133Z</time></trkpt><trkpt lat="46.0265479" lon="13.5749741"><ele>394.0</ele><time>2026-05-03T10:02:26.132Z</time></trkpt><trkpt lat="46.0264371" lon="13.5749732"><ele>394.0</ele><time>2026-05-03T10:02:27.132Z</time></trkpt><trkpt lat="46.0263217" lon="13.574959"><ele>395.5</ele><time>2026-05-03T10:02:28.131Z</time></trkpt><trkpt lat="46.0261999" lon="13.5749684"><ele>397.0</ele><time>2026-05-03T10:02:29.131Z</time></trkpt><trkpt lat="46.0260748" lon="13.5750065"><ele>398.5</ele><time>2026-05-03T10:02:30.132Z</time></trkpt><trkpt lat="46.0259367" lon="13.5750638"><ele>400.0</ele><time>2026-05-03T10:02:31.132Z</time></trkpt><trkpt lat="46.0257865" lon="13.5751319"><ele>401.25</ele><time>2026-05-03T10:02:32.132Z</time></trkpt><trkpt lat="46.0256535" lon="13.575197"><ele>402.5</ele><time>2026-05-03T10:02:33.131Z</time></trkpt><trkpt lat="46.0255206" lon="13.5752682"><ele>403.75</ele><time>2026-05-03T10:02:34.132Z</time></trkpt><trkpt lat="46.025394" lon="13.575324"><ele>405.0</ele><time>2026-05-03T10:02:35.133Z</time></trkpt><trkpt lat="46.0252715" lon="13.5753834"><ele>399.25</ele><time>2026-05-03T10:02:36.133Z</time></trkpt><trkpt lat="46.0251502" lon="13.5754466"><ele>393.5</ele><time>2026-05-03T10:02:37.133Z</time></trkpt><trkpt lat="46.025028" lon="13.5754969"><ele>387.75</ele><time>2026-05-03T10:02:38.132Z</time></trkpt><trkpt lat="46.0248991" lon="13.575537"><ele>382.0</ele><time>2026-05-03T10:02:39.132Z</time></trkpt><trkpt lat="46.024774" lon="13.5755647"><ele>382.0</ele><time>2026-05-03T10:02:40.132Z</time></trkpt><trkpt lat="46.024653" lon="13.5755829"><ele>382.0</ele><time>2026-05-03T10:02:41.132Z</time></trkpt><trkpt lat="46.0245382" lon="13.5755916"><ele>382.0</ele><time>2026-05-03T10:02:42.132Z</time></trkpt><trkpt lat="46.0244406" lon="13.5755693"><ele>382.0</ele><time>2026-05-03T10:02:43.132Z</time></trkpt><trkpt lat="46.0243609" lon="13.5755547"><ele>382.0</ele><time>2026-05-03T10:02:44.131Z</time></trkpt><trkpt lat="46.0242762" lon="13.5755973"><ele>382.0</ele><time>2026-05-03T10:02:46.132Z</time></trkpt><trkpt lat="46.0243028" lon="13.5756807"><ele>382.0</ele><time>2026-05-03T10:02:48.132Z</time></trkpt><trkpt lat="46.0244315" lon="13.5756537"><ele>382.0</ele><time>2026-05-03T10:02:50.132Z</time></trkpt><trkpt lat="46.024523" lon="13.5756471"><ele>382.0</ele><time>2026-05-03T10:02:51.131Z</time></trkpt><trkpt lat="46.0246234" lon="13.5756631"><ele>382.0</ele><time>2026-05-03T10:02:52.132Z</time></trkpt><trkpt lat="46.0247275" lon="13.575666"><ele>382.0</ele><time>2026-05-03T10:02:53.132Z</time></trkpt><trkpt lat="46.024845" lon="13.5756691"><ele>382.0</ele><time>2026-05-03T10:02:54.132Z</time></trkpt><trkpt lat="46.0249673" lon="13.5756812"><ele>382.0</ele><time>2026-05-03T10:02:55.132Z</time></trkpt><trkpt lat="46.0250986" lon="13.5756905"><ele>382.0</ele><time>2026-05-03T10:02:56.132Z</time></trkpt><trkpt lat="46.0252384" lon="13.5756851"><ele>381.0</ele><time>2026-05-03T10:02:57.131Z</time></trkpt><trkpt lat="46.0253759" lon="13.5756603"><ele>380.0</ele><time>2026-05-03T10:02:58.132Z</time></trkpt><trkpt lat="46.025511" lon="13.5756312"><ele>379.0</ele><time>2026-05-03T10:02:59.132Z</time></trkpt><trkpt lat="46.025653" lon="13.5756137"><ele>378.0</ele><time>2026-05-03T10:03:00.131Z</time></trkpt><trkpt lat="46.0257929" lon="13.5756358"><ele>374.25</ele><time>2026-05-03T10:03:01.132Z</time></trkpt><trkpt lat="46.0259214" lon="13.5756738"><ele>370.5</ele><time>2026-05-03T10:03:02.132Z</time></trkpt><trkpt lat="46.0260404" lon="13.5757352"><ele>366.75</ele><time>2026-05-03T10:03:03.132Z</time></trkpt><trkpt lat="46.0261457" lon="13.575832"><ele>363.0</ele><time>2026-05-03T10:03:04.132Z</time></trkpt><trkpt lat="46.0262215" lon="13.5759687"><ele>363.0</ele><time>2026-05-03T10:03:05.132Z</time></trkpt><trkpt lat="46.0262711" lon="13.5761419"><ele>363.0</ele><time>2026-05-03T10:03:06.131Z</time></trkpt><trkpt lat="46.0263092" lon="13.5763041"><ele>363.0</ele><time>2026-05-03T10:03:07.132Z</time></trkpt><trkpt lat="46.0263483" lon="13.5764608"><ele>363.0</ele><time>2026-05-03T10:03:08.132Z</time></trkpt><trkpt lat="46.0264258" lon="13.576598"><ele>364.6666666666667</ele><time>2026-05-03T10:03:09.132Z</time></trkpt><trkpt lat="46.0265342" lon="13.5767354"><ele>366.33333333333337</ele><time>2026-05-03T10:03:10.132Z</time></trkpt><trkpt lat="46.0266509" lon="13.576892"><ele>368.0</ele><time>2026-05-03T10:03:11.132Z</time></trkpt><trkpt lat="46.026765" lon="13.5770606"><ele>357.6666666666667</ele><time>2026-05-03T10:03:12.132Z</time></trkpt><trkpt lat="46.026875" lon="13.5772231"><ele>347.3333333333333</ele><time>2026-05-03T10:03:13.132Z</time></trkpt><trkpt lat="46.0269841" lon="13.5773683"><ele>337.0</ele><time>2026-05-03T10:03:14.131Z</time></trkpt><trkpt lat="46.027099" lon="13.577513"><ele>337.0</ele><time>2026-05-03T10:03:15.132Z</time></trkpt><trkpt lat="46.0272041" lon="13.5776316"><ele>337.0</ele><time>2026-05-03T10:03:16.132Z</time></trkpt><trkpt lat="46.0273042" lon="13.5777296"><ele>337.0</ele><time>2026-05-03T10:03:17.132Z</time></trkpt><trkpt lat="46.027403" lon="13.5778021"><ele>337.0</ele><time>2026-05-03T10:03:18.132Z</time></trkpt><trkpt lat="46.0275127" lon="13.5778371"><ele>343.0</ele><time>2026-05-03T10:03:19.132Z</time></trkpt><trkpt lat="46.0276308" lon="13.5778149"><ele>349.0</ele><time>2026-05-03T10:03:20.132Z</time></trkpt><trkpt lat="46.0277564" lon="13.577774"><ele>355.0</ele><time>2026-05-03T10:03:21.132Z</time></trkpt><trkpt lat="46.0278889" lon="13.5777574"><ele>361.0</ele><time>2026-05-03T10:03:22.132Z</time></trkpt><trkpt lat="46.0280152" lon="13.5777778"><ele>361.0</ele><time>2026-05-03T10:03:23.132Z</time></trkpt><trkpt lat="46.0281356" lon="13.5778446"><ele>361.0</ele><time>2026-05-03T10:03:24.132Z</time></trkpt><trkpt lat="46.0282234" lon="13.5779677"><ele>361.0</ele><time>2026-05-03T10:03:25.132Z</time></trkpt><trkpt lat="46.0282988" lon="13.5781471"><ele>361.0</ele><time>2026-05-03T10:03:26.132Z</time></trkpt><trkpt lat="46.0283723" lon="13.578333"><ele>361.0</ele><time>2026-05-03T10:03:27.132Z</time></trkpt><trkpt lat="46.0284382" lon="13.5785248"><ele>361.0</ele><time>2026-05-03T10:03:28.131Z</time></trkpt><trkpt lat="46.028492" lon="13.578707"><ele>361.0</ele><time>2026-05-03T10:03:29.131Z</time></trkpt><trkpt lat="46.028527" lon="13.5789048"><ele>361.0</ele><time>2026-05-03T10:03:30.131Z</time></trkpt><trkpt lat="46.02856" lon="13.5791006"><ele>344.5</ele><time>2026-05-03T10:03:31.132Z</time></trkpt><trkpt lat="46.0286079" lon="13.5792776"><ele>328.0</ele><time>2026-05-03T10:03:32.132Z</time></trkpt><trkpt lat="46.0286845" lon="13.5794496"><ele>311.5</ele><time>2026-05-03T10:03:33.132Z</time></trkpt><trkpt lat="46.0287686" lon="13.5796195"><ele>295.0</ele><time>2026-05-03T10:03:34.131Z</time></trkpt><trkpt lat="46.0288591" lon="13.5797681"><ele>295.0</ele><time>2026-05-03T10:03:35.131Z</time></trkpt><trkpt lat="46.02895" lon="13.5799011"><ele>295.0</ele><time>2026-05-03T10:03:36.132Z</time></trkpt><trkpt lat="46.029039" lon="13.5800241"><ele>295.0</ele><time>2026-05-03T10:03:37.131Z</time></trkpt><trkpt lat="46.0291117" lon="13.5801645"><ele>295.0</ele><time>2026-05-03T10:03:38.132Z</time></trkpt><trkpt lat="46.0291452" lon="13.580325"><ele>300.0</ele><time>2026-05-03T10:03:39.132Z</time></trkpt><trkpt lat="46.0291696" lon="13.5804994"><ele>305.0</ele><time>2026-05-03T10:03:40.132Z</time></trkpt><trkpt lat="46.0292197" lon="13.5806489"><ele>310.0</ele><time>2026-05-03T10:03:41.131Z</time></trkpt><trkpt lat="46.0292709" lon="13.5807933"><ele>315.0</ele><time>2026-05-03T10:03:42.132Z</time></trkpt><trkpt lat="46.0293104" lon="13.5809424"><ele>315.0</ele><time>2026-05-03T10:03:43.132Z</time></trkpt><trkpt lat="46.0293282" lon="13.5810948"><ele>315.0</ele><time>2026-05-03T10:03:44.132Z</time></trkpt><trkpt lat="46.0293112" lon="13.5812365"><ele>315.0</ele><time>2026-05-03T10:03:45.132Z</time></trkpt><trkpt lat="46.0292863" lon="13.5813661"><ele>315.0</ele><time>2026-05-03T10:03:46.132Z</time></trkpt><trkpt lat="46.0292711" lon="13.5814943"><ele>315.0</ele><time>2026-05-03T10:03:47.132Z</time></trkpt><trkpt lat="46.0293044" lon="13.581631"><ele>317.0</ele><time>2026-05-03T10:03:48.132Z</time></trkpt><trkpt lat="46.0293926" lon="13.5817143"><ele>319.0</ele><time>2026-05-03T10:03:49.131Z</time></trkpt><trkpt lat="46.0295177" lon="13.5817717"><ele>321.0</ele><time>2026-05-03T10:03:50.132Z</time></trkpt><trkpt lat="46.0296562" lon="13.5818428"><ele>323.0</ele><time>2026-05-03T10:03:51.131Z</time></trkpt><trkpt lat="46.0297904" lon="13.5819374"><ele>316.0</ele><time>2026-05-03T10:03:52.132Z</time></trkpt><trkpt lat="46.0299165" lon="13.5820288"><ele>309.0</ele><time>2026-05-03T10:03:53.132Z</time></trkpt><trkpt lat="46.0300406" lon="13.5821259"><ele>302.0</ele><time>2026-05-03T10:03:54.131Z</time></trkpt><trkpt lat="46.0301526" lon="13.5822082"><ele>295.0</ele><time>2026-05-03T10:03:55.132Z</time></trkpt><trkpt lat="46.030267" lon="13.5822968"><ele>295.0</ele><time>2026-05-03T10:03:56.132Z</time></trkpt><trkpt lat="46.0303737" lon="13.5823685"><ele>295.0</ele><time>2026-05-03T10:03:57.132Z</time></trkpt><trkpt lat="46.0304653" lon="13.5824358"><ele>295.0</ele><time>2026-05-03T10:03:58.132Z</time></trkpt><trkpt lat="46.0305598" lon="13.582497"><ele>295.0</ele><time>2026-05-03T10:03:59.132Z</time></trkpt><trkpt lat="46.030622" lon="13.5826084"><ele>295.0</ele><time>2026-05-03T10:04:00.131Z</time></trkpt><trkpt lat="46.0306569" lon="13.5827308"><ele>290.0</ele><time>2026-05-03T10:04:01.132Z</time></trkpt><trkpt lat="46.0306575" lon="13.5828897"><ele>285.0</ele><time>2026-05-03T10:04:02.132Z</time></trkpt><trkpt lat="46.030653" lon="13.5830682"><ele>280.0</ele><time>2026-05-03T10:04:03.132Z</time></trkpt><trkpt lat="46.0306399" lon="13.5832567"><ele>275.0</ele><time>2026-05-03T10:04:04.132Z</time></trkpt><trkpt lat="46.0306267" lon="13.5834334"><ele>275.0</ele><time>2026-05-03T10:04:05.132Z</time></trkpt><trkpt lat="46.0306239" lon="13.5836147"><ele>275.0</ele><time>2026-05-03T10:04:06.132Z</time></trkpt><trkpt lat="46.030618" lon="13.5837755"><ele>275.0</ele><time>2026-05-03T10:04:07.132Z</time></trkpt><trkpt lat="46.0305897" lon="13.583917"><ele>275.0</ele><time>2026-05-03T10:04:08.132Z</time></trkpt><trkpt lat="46.0305203" lon="13.5840497"><ele>275.5</ele><time>2026-05-03T10:04:09.132Z</time></trkpt><trkpt lat="46.0304348" lon="13.5841927"><ele>276.0</ele><time>2026-05-03T10:04:10.132Z</time></trkpt><trkpt lat="46.0303519" lon="13.5843423"><ele>276.5</ele><time>2026-05-03T10:04:11.131Z</time></trkpt><trkpt lat="46.0302755" lon="13.5844772"><ele>277.0</ele><time>2026-05-03T10:04:12.132Z</time></trkpt><trkpt lat="46.0302207" lon="13.5846634"><ele>278.5</ele><time>2026-05-03T10:04:13.132Z</time></trkpt><trkpt lat="46.0302106" lon="13.5848586"><ele>280.0</ele><time>2026-05-03T10:04:14.131Z</time></trkpt><trkpt lat="46.0302171" lon="13.5850395"><ele>281.5</ele><time>2026-05-03T10:04:15.132Z</time></trkpt><trkpt lat="46.0302345" lon="13.585209"><ele>283.0</ele><time>2026-05-03T10:04:16.132Z</time></trkpt><trkpt lat="46.0302828" lon="13.5853966"><ele>278.25</ele><time>2026-05-03T10:04:17.131Z</time></trkpt><trkpt lat="46.0303529" lon="13.585587"><ele>273.5</ele><time>2026-05-03T10:04:18.132Z</time></trkpt><trkpt lat="46.0304226" lon="13.5857667"><ele>268.75</ele><time>2026-05-03T10:04:19.132Z</time></trkpt><trkpt lat="46.0304901" lon="13.5859444"><ele>264.0</ele><time>2026-05-03T10:04:20.131Z</time></trkpt><trkpt lat="46.0305497" lon="13.5861142"><ele>261.0</ele><time>2026-05-03T10:04:21.132Z</time></trkpt><trkpt lat="46.0305974" lon="13.5862797"><ele>258.0</ele><time>2026-05-03T10:04:22.132Z</time></trkpt><trkpt lat="46.0306303" lon="13.5864492"><ele>255.0</ele><time>2026-05-03T10:04:23.132Z</time></trkpt><trkpt lat="46.0306453" lon="13.5866295"><ele>252.0</ele><time>2026-05-03T10:04:24.131Z</time></trkpt><trkpt lat="46.0306471" lon="13.586813"><ele>252.0</ele><time>2026-05-03T10:04:25.132Z</time></trkpt><trkpt lat="46.0306595" lon="13.5870016"><ele>252.0</ele><time>2026-05-03T10:04:26.132Z</time></trkpt><trkpt lat="46.0306806" lon="13.5872027"><ele>252.0</ele><time>2026-05-03T10:04:27.132Z</time></trkpt><trkpt lat="46.030719" lon="13.5874047"><ele>252.0</ele><time>2026-05-03T10:04:28.132Z</time></trkpt><trkpt lat="46.0307642" lon="13.587603"><ele>250.25</ele><time>2026-05-03T10:04:29.132Z</time></trkpt><trkpt lat="46.0308025" lon="13.5877977"><ele>248.5</ele><time>2026-05-03T10:04:30.131Z</time></trkpt><trkpt lat="46.0308364" lon="13.5879793"><ele>246.75</ele><time>2026-05-03T10:04:31.132Z</time></trkpt><trkpt lat="46.0308699" lon="13.5881619"><ele>245.0</ele><time>2026-05-03T10:04:32.131Z</time></trkpt><trkpt lat="46.0308907" lon="13.5883384"><ele>249.75</ele><time>2026-05-03T10:04:33.132Z</time></trkpt><trkpt lat="46.0308886" lon="13.5885275"><ele>254.5</ele><time>2026-05-03T10:04:34.132Z</time></trkpt><trkpt lat="46.0308751" lon="13.5887296"><ele>259.25</ele><time>2026-05-03T10:04:35.132Z</time></trkpt><trkpt lat="46.0308592" lon="13.5889107"><ele>264.0</ele><time>2026-05-03T10:04:36.131Z</time></trkpt><trkpt lat="46.0308539" lon="13.5890925"><ele>264.0</ele><time>2026-05-03T10:04:37.132Z</time></trkpt><trkpt lat="46.0308781" lon="13.5892616"><ele>264.0</ele><time>2026-05-03T10:04:38.132Z</time></trkpt><trkpt lat="46.0309147" lon="13.5894173"><ele>264.0</ele><time>2026-05-03T10:04:39.132Z</time></trkpt><trkpt lat="46.0309643" lon="13.5895748"><ele>264.0</ele><time>2026-05-03T10:04:40.132Z</time></trkpt><trkpt lat="46.0310176" lon="13.5897293"><ele>260.75</ele><time>2026-05-03T10:04:41.131Z</time></trkpt><trkpt lat="46.0310994" lon="13.5898719"><ele>257.5</ele><time>2026-05-03T10:04:42.132Z</time></trkpt><trkpt lat="46.0311927" lon="13.5899841"><ele>254.25</ele><time>2026-05-03T10:04:43.131Z</time></trkpt><trkpt lat="46.031285" lon="13.5900685"><ele>251.0</ele><time>2026-05-03T10:04:44.132Z</time></trkpt><trkpt lat="46.0313814" lon="13.590114"><ele>251.00000000000003</ele><time>2026-05-03T10:04:45.132Z</time></trkpt><trkpt lat="46.0314711" lon="13.59014"><ele>251.0</ele><time>2026-05-03T10:04:46.132Z</time></trkpt><trkpt lat="46.0315372" lon="13.5901768"><ele>251.0</ele><time>2026-05-03T10:04:47.132Z</time></trkpt><trkpt lat="46.0315712" lon="13.5903153"><ele>251.0</ele><time>2026-05-03T10:04:49.132Z</time></trkpt><trkpt lat="46.0314995" lon="13.5903456"><ele>251.00000000000003</ele><time>2026-05-03T10:04:50.132Z</time></trkpt><trkpt lat="46.0314176" lon="13.5903316"><ele>251.0</ele><time>2026-05-03T10:04:51.132Z</time></trkpt><trkpt lat="46.0313328" lon="13.5902829"><ele>251.0</ele><time>2026-05-03T10:04:52.132Z</time></trkpt><trkpt lat="46.0312279" lon="13.5902476"><ele>251.0</ele><time>2026-05-03T10:04:53.131Z</time></trkpt><trkpt lat="46.0311195" lon="13.5902173"><ele>251.0</ele><time>2026-05-03T10:04:54.132Z</time></trkpt><trkpt lat="46.0310065" lon="13.5901946"><ele>251.0</ele><time>2026-05-03T10:04:55.132Z</time></trkpt><trkpt lat="46.0308891" lon="13.5901552"><ele>243.5</ele><time>2026-05-03T10:04:56.132Z</time></trkpt><trkpt lat="46.0307729" lon="13.590091"><ele>236.0</ele><time>2026-05-03T10:04:57.132Z</time></trkpt><trkpt lat="46.0306674" lon="13.5900096"><ele>228.5</ele><time>2026-05-03T10:04:58.132Z</time></trkpt><trkpt lat="46.0305631" lon="13.5899197"><ele>221.0</ele><time>2026-05-03T10:04:59.132Z</time></trkpt><trkpt lat="46.0304622" lon="13.5898196"><ele>221.0</ele><time>2026-05-03T10:05:00.132Z</time></trkpt><trkpt lat="46.0303638" lon="13.5896989"><ele>221.0</ele><time>2026-05-03T10:05:01.131Z</time></trkpt><trkpt lat="46.0302739" lon="13.5895558"><ele>221.0</ele><time>2026-05-03T10:05:02.132Z</time></trkpt><trkpt lat="46.0301917" lon="13.5894025"><ele>221.0</ele><time>2026-05-03T10:05:03.132Z</time></trkpt><trkpt lat="46.0301267" lon="13.5892335"><ele>223.5</ele><time>2026-05-03T10:05:04.132Z</time></trkpt><trkpt lat="46.0300784" lon="13.5890485"><ele>226.0</ele><time>2026-05-03T10:05:05.132Z</time></trkpt><trkpt lat="46.0300375" lon="13.5888539"><ele>228.5</ele><time>2026-05-03T10:05:06.132Z</time></trkpt><trkpt lat="46.0299994" lon="13.5886461"><ele>231.0</ele><time>2026-05-03T10:05:07.132Z</time></trkpt><trkpt lat="46.0299483" lon="13.5884496"><ele>224.0</ele><time>2026-05-03T10:05:08.132Z</time></trkpt><trkpt lat="46.0298913" lon="13.5882535"><ele>217.0</ele><time>2026-05-03T10:05:09.132Z</time></trkpt><trkpt lat="46.0298319" lon="13.5880617"><ele>210.0</ele><time>2026-05-03T10:05:10.132Z</time></trkpt><trkpt lat="46.0297853" lon="13.5878733"><ele>203.0</ele><time>2026-05-03T10:05:11.132Z</time></trkpt><trkpt lat="46.0297489" lon="13.5876777"><ele>203.0</ele><time>2026-05-03T10:05:12.131Z</time></trkpt><trkpt lat="46.0297305" lon="13.5874741"><ele>203.0</ele><time>2026-05-03T10:05:13.132Z</time></trkpt><trkpt lat="46.0297131" lon="13.5872796"><ele>203.0</ele><time>2026-05-03T10:05:14.132Z</time></trkpt><trkpt lat="46.0296782" lon="13.587093"><ele>203.0</ele><time>2026-05-03T10:05:15.132Z</time></trkpt><trkpt lat="46.0296322" lon="13.5869093"><ele>204.60000000000002</ele><time>2026-05-03T10:05:16.132Z</time></trkpt><trkpt lat="46.0295911" lon="13.5867529"><ele>206.20000000000002</ele><time>2026-05-03T10:05:17.132Z</time></trkpt><trkpt lat="46.0295529" lon="13.5866314"><ele>207.8</ele><time>2026-05-03T10:05:18.131Z</time></trkpt><trkpt lat="46.0295005" lon="13.5865533"><ele>209.4</ele><time>2026-05-03T10:05:19.132Z</time></trkpt><trkpt lat="46.029432" lon="13.5865193"><ele>211.0</ele><time>2026-05-03T10:05:20.132Z</time></trkpt><trkpt lat="46.0293753" lon="13.5866512"><ele>211.0</ele><time>2026-05-03T10:05:22.131Z</time></trkpt><trkpt lat="46.0293919" lon="13.5867828"><ele>211.0</ele><time>2026-05-03T10:05:23.132Z</time></trkpt><trkpt lat="46.0294244" lon="13.5869478"><ele>211.0</ele><time>2026-05-03T10:05:24.132Z</time></trkpt><trkpt lat="46.029451" lon="13.5871367"><ele>211.0</ele><time>2026-05-03T10:05:25.131Z</time></trkpt><trkpt lat="46.029464" lon="13.5873082"><ele>209.0</ele><time>2026-05-03T10:05:26.132Z</time></trkpt><trkpt lat="46.0294451" lon="13.5874939"><ele>207.0</ele><time>2026-05-03T10:05:27.132Z</time></trkpt><trkpt lat="46.0294252" lon="13.5876854"><ele>205.0</ele><time>2026-05-03T10:05:28.132Z</time></trkpt><trkpt lat="46.0294042" lon="13.5878876"><ele>203.0</ele><time>2026-05-03T10:05:29.132Z</time></trkpt><trkpt lat="46.0293927" lon="13.5880965"><ele>202.0</ele><time>2026-05-03T10:05:30.132Z</time></trkpt><trkpt lat="46.0293783" lon="13.5883024"><ele>201.0</ele><time>2026-05-03T10:05:31.132Z</time></trkpt><trkpt lat="46.0293568" lon="13.5885124"><ele>200.0</ele><time>2026-05-03T10:05:32.131Z</time></trkpt><trkpt lat="46.0293295" lon="13.5887169"><ele>199.0</ele><time>2026-05-03T10:05:33.131Z</time></trkpt><trkpt lat="46.0293016" lon="13.5889109"><ele>198.75</ele><time>2026-05-03T10:05:34.132Z</time></trkpt><trkpt lat="46.0292773" lon="13.5891117"><ele>198.5</ele><time>2026-05-03T10:05:35.132Z</time></trkpt><trkpt lat="46.0292605" lon="13.5893036"><ele>198.25</ele><time>2026-05-03T10:05:36.132Z</time></trkpt><trkpt lat="46.0292538" lon="13.5894942"><ele>198.0</ele><time>2026-05-03T10:05:37.132Z</time></trkpt><trkpt lat="46.0292774" lon="13.589701"><ele>195.66666666666666</ele><time>2026-05-03T10:05:38.131Z</time></trkpt><trkpt lat="46.0293218" lon="13.5899224"><ele>193.33333333333331</ele><time>2026-05-03T10:05:39.132Z</time></trkpt><trkpt lat="46.02937" lon="13.5901448"><ele>191.0</ele><time>2026-05-03T10:05:40.131Z</time></trkpt><trkpt lat="46.0294213" lon="13.590353"><ele>187.0</ele><time>2026-05-03T10:05:41.131Z</time></trkpt><trkpt lat="46.0294773" lon="13.5905675"><ele>183.0</ele><time>2026-05-03T10:05:42.131Z</time></trkpt><trkpt lat="46.029541" lon="13.5907719"><ele>179.0</ele><time>2026-05-03T10:05:43.132Z</time></trkpt><trkpt lat="46.0296131" lon="13.5909651"><ele>179.0</ele><time>2026-05-03T10:05:44.132Z</time></trkpt><trkpt lat="46.0296842" lon="13.5911408"><ele>179.0</ele><time>2026-05-03T10:05:45.132Z</time></trkpt><trkpt lat="46.0297489" lon="13.5913194"><ele>179.0</ele><time>2026-05-03T10:05:46.131Z</time></trkpt><trkpt lat="46.0298089" lon="13.5914809"><ele>179.0</ele><time>2026-05-03T10:05:47.132Z</time></trkpt><trkpt lat="46.0298678" lon="13.5916276"><ele>181.25</ele><time>2026-05-03T10:05:48.132Z</time></trkpt><trkpt lat="46.0299538" lon="13.5917384"><ele>183.5</ele><time>2026-05-03T10:05:49.132Z</time></trkpt><trkpt lat="46.0300686" lon="13.5918235"><ele>185.75</ele><time>2026-05-03T10:05:50.131Z</time></trkpt><trkpt lat="46.0302008" lon="13.5918868"><ele>188.0</ele><time>2026-05-03T10:05:51.131Z</time></trkpt><trkpt lat="46.0303455" lon="13.5919339"><ele>188.0</ele><time>2026-05-03T10:05:52.131Z</time></trkpt><trkpt lat="46.0304917" lon="13.5919944"><ele>188.0</ele><time>2026-05-03T10:05:53.131Z</time></trkpt><trkpt lat="46.0306427" lon="13.5920538"><ele>188.0</ele><time>2026-05-03T10:05:54.132Z</time></trkpt><trkpt lat="46.0307916" lon="13.5921189"><ele>180.33333333333331</ele><time>2026-05-03T10:05:55.131Z</time></trkpt><trkpt lat="46.0309434" lon="13.5921713"><ele>172.66666666666666</ele><time>2026-05-03T10:05:56.132Z</time></trkpt><trkpt lat="46.0310977" lon="13.5922248"><ele>165.0</ele><time>2026-05-03T10:05:57.131Z</time></trkpt><trkpt lat="46.0312476" lon="13.5922736"><ele>165.0</ele><time>2026-05-03T10:05:58.132Z</time></trkpt><trkpt lat="46.0313966" lon="13.5923114"><ele>165.0</ele><time>2026-05-03T10:05:59.132Z</time></trkpt><trkpt lat="46.0315428" lon="13.5923432"><ele>165.0</ele><time>2026-05-03T10:06:00.132Z</time></trkpt><trkpt lat="46.0316873" lon="13.5923568"><ele>165.0</ele><time>2026-05-03T10:06:01.132Z</time></trkpt><trkpt lat="46.0318264" lon="13.5923498"><ele>165.75</ele><time>2026-05-03T10:06:02.132Z</time></trkpt><trkpt lat="46.0319676" lon="13.5923311"><ele>166.5</ele><time>2026-05-03T10:06:03.131Z</time></trkpt><trkpt lat="46.0321073" lon="13.5922979"><ele>167.25</ele><time>2026-05-03T10:06:04.131Z</time></trkpt><trkpt lat="46.0322358" lon="13.5922506"><ele>168.0</ele><time>2026-05-03T10:06:05.132Z</time></trkpt><trkpt lat="46.0323556" lon="13.5921948"><ele>166.25</ele><time>2026-05-03T10:06:06.132Z</time></trkpt><trkpt lat="46.0324758" lon="13.5921622"><ele>164.5</ele><time>2026-05-03T10:06:07.132Z</time></trkpt><trkpt lat="46.0325879" lon="13.592199"><ele>162.75</ele><time>2026-05-03T10:06:08.132Z</time></trkpt><trkpt lat="46.0326757" lon="13.5922993"><ele>161.0</ele><time>2026-05-03T10:06:09.132Z</time></trkpt><trkpt lat="46.0327399" lon="13.5924102"><ele>161.0</ele><time>2026-05-03T10:06:10.132Z</time></trkpt><trkpt lat="46.0328095" lon="13.5925213"><ele>161.0</ele><time>2026-05-03T10:06:11.132Z</time></trkpt><trkpt lat="46.0328948" lon="13.5926328"><ele>161.0</ele><time>2026-05-03T10:06:12.131Z</time></trkpt><trkpt lat="46.0329957" lon="13.5927413"><ele>161.0</ele><time>2026-05-03T10:06:13.131Z</time></trkpt><trkpt lat="46.0331086" lon="13.5928487"><ele>157.75</ele><time>2026-05-03T10:06:14.131Z</time></trkpt><trkpt lat="46.0332315" lon="13.5929352"><ele>154.5</ele><time>2026-05-03T10:06:15.132Z</time></trkpt><trkpt lat="46.0333493" lon="13.5930102"><ele>151.25</ele><time>2026-05-03T10:06:16.132Z</time></trkpt><trkpt lat="46.0334681" lon="13.5930889"><ele>148.0</ele><time>2026-05-03T10:06:17.132Z</time></trkpt><trkpt lat="46.033592" lon="13.5931591"><ele>148.0</ele><time>2026-05-03T10:06:18.132Z</time></trkpt><trkpt lat="46.0337185" lon="13.5932295"><ele>148.0</ele><time>2026-05-03T10:06:19.132Z</time></trkpt><trkpt lat="46.033846" lon="13.5932901"><ele>148.0</ele><time>2026-05-03T10:06:20.132Z</time></trkpt><trkpt lat="46.0339688" lon="13.5933629"><ele>148.0</ele><time>2026-05-03T10:06:21.132Z</time></trkpt><trkpt lat="46.0340938" lon="13.5934332"><ele>149.75</ele><time>2026-05-03T10:06:22.132Z</time></trkpt><trkpt lat="46.0342217" lon="13.5935049"><ele>151.5</ele><time>2026-05-03T10:06:23.132Z</time></trkpt><trkpt lat="46.0343502" lon="13.5935657"><ele>153.25</ele><time>2026-05-03T10:06:24.131Z</time></trkpt><trkpt lat="46.0344874" lon="13.5936139"><ele>155.0</ele><time>2026-05-03T10:06:25.132Z</time></trkpt><trkpt lat="46.034624" lon="13.5936329"><ele>155.0</ele><time>2026-05-03T10:06:26.132Z</time></trkpt><trkpt lat="46.0347597" lon="13.5936201"><ele>155.0</ele><time>2026-05-03T10:06:27.132Z</time></trkpt><trkpt lat="46.0348866" lon="13.5935876"><ele>155.0</ele><time>2026-05-03T10:06:28.132Z</time></trkpt><trkpt lat="46.0350034" lon="13.5935158"><ele>155.0</ele><time>2026-05-03T10:06:29.132Z</time></trkpt><trkpt lat="46.035122" lon="13.5934061"><ele>153.25</ele><time>2026-05-03T10:06:30.132Z</time></trkpt><trkpt lat="46.0352327" lon="13.5932809"><ele>151.5</ele><time>2026-05-03T10:06:31.132Z</time></trkpt><trkpt lat="46.0353403" lon="13.5931354"><ele>149.75</ele><time>2026-05-03T10:06:32.132Z</time></trkpt><trkpt lat="46.0354474" lon="13.5929856"><ele>148.0</ele><time>2026-05-03T10:06:33.132Z</time></trkpt><trkpt lat="46.0355496" lon="13.5928226"><ele>142.75</ele><time>2026-05-03T10:06:34.131Z</time></trkpt><trkpt lat="46.0356396" lon="13.5926475"><ele>137.5</ele><time>2026-05-03T10:06:35.131Z</time></trkpt><trkpt lat="46.0357141" lon="13.5924619"><ele>132.25</ele><time>2026-05-03T10:06:36.131Z</time></trkpt><trkpt lat="46.0357742" lon="13.5922649"><ele>127.0</ele><time>2026-05-03T10:06:37.13Z</time></trkpt><trkpt lat="46.0358213" lon="13.5920577"><ele>131.0</ele><time>2026-05-03T10:06:38.131Z</time></trkpt><trkpt lat="46.035866" lon="13.5918508"><ele>135.0</ele><time>2026-05-03T10:06:39.131Z</time></trkpt><trkpt lat="46.0359097" lon="13.5916377"><ele>139.0</ele><time>2026-05-03T10:06:40.131Z</time></trkpt><trkpt lat="46.0359657" lon="13.5914277"><ele>139.0</ele><time>2026-05-03T10:06:41.131Z</time></trkpt><trkpt lat="46.0360332" lon="13.5912228"><ele>139.0</ele><time>2026-05-03T10:06:42.131Z</time></trkpt><trkpt lat="46.0361016" lon="13.5910294"><ele>139.0</ele><time>2026-05-03T10:06:43.131Z</time></trkpt><trkpt lat="46.0361702" lon="13.5908384"><ele>142.0</ele><time>2026-05-03T10:06:44.13Z</time></trkpt><trkpt lat="46.0362329" lon="13.5906545"><ele>145.0</ele><time>2026-05-03T10:06:45.131Z</time></trkpt><trkpt lat="46.0363055" lon="13.5904657"><ele>148.0</ele><time>2026-05-03T10:06:46.13Z</time></trkpt><trkpt lat="46.0363873" lon="13.5902776"><ele>151.0</ele><time>2026-05-03T10:06:47.131Z</time></trkpt><trkpt lat="46.036477" lon="13.5900881"><ele>159.33333333333334</ele><time>2026-05-03T10:06:48.131Z</time></trkpt><trkpt lat="46.0365714" lon="13.5899069"><ele>167.66666666666666</ele><time>2026-05-03T10:06:49.13Z</time></trkpt><trkpt lat="46.0366615" lon="13.5897237"><ele>176.0</ele><time>2026-05-03T10:06:50.131Z</time></trkpt><trkpt lat="46.0367559" lon="13.5895499"><ele>166.5</ele><time>2026-05-03T10:06:51.131Z</time></trkpt><trkpt lat="46.0368514" lon="13.5893814"><ele>157.0</ele><time>2026-05-03T10:06:52.131Z</time></trkpt><trkpt lat="46.0369504" lon="13.5892216"><ele>147.5</ele><time>2026-05-03T10:06:53.131Z</time></trkpt><trkpt lat="46.0370505" lon="13.5890831"><ele>138.0</ele><time>2026-05-03T10:06:54.131Z</time></trkpt><trkpt lat="46.0371715" lon="13.5889699"><ele>138.0</ele><time>2026-05-03T10:06:55.131Z</time></trkpt><trkpt lat="46.0372881" lon="13.5888713"><ele>138.0</ele><time>2026-05-03T10:06:56.131Z</time></trkpt><trkpt lat="46.0373909" lon="13.5887677"><ele>138.0</ele><time>2026-05-03T10:06:57.13Z</time></trkpt><trkpt lat="46.0374799" lon="13.5886517"><ele>138.0</ele><time>2026-05-03T10:06:58.131Z</time></trkpt><trkpt lat="46.0375611" lon="13.5885339"><ele>133.20000000000002</ele><time>2026-05-03T10:06:59.131Z</time></trkpt><trkpt lat="46.0376198" lon="13.5884263"><ele>128.4</ele><time>2026-05-03T10:07:00.131Z</time></trkpt><trkpt lat="46.03767" lon="13.5883164"><ele>123.60000000000001</ele><time>2026-05-03T10:07:01.131Z</time></trkpt><trkpt lat="46.0377229" lon="13.5882141"><ele>118.80000000000001</ele><time>2026-05-03T10:07:02.131Z</time></trkpt><trkpt lat="46.0377879" lon="13.5881332"><ele>114.0</ele><time>2026-05-03T10:07:03.131Z</time></trkpt><trkpt lat="46.0378654" lon="13.5880627"><ele>114.0</ele><time>2026-05-03T10:07:04.131Z</time></trkpt><trkpt lat="46.0379449" lon="13.5880027"><ele>114.0</ele><time>2026-05-03T10:07:05.131Z</time></trkpt><trkpt lat="46.038033" lon="13.5879867"><ele>114.0</ele><time>2026-05-03T10:07:06.13Z</time></trkpt><trkpt lat="46.0381234" lon="13.5879909"><ele>114.0</ele><time>2026-05-03T10:07:07.13Z</time></trkpt><trkpt lat="46.0382134" lon="13.5880209"><ele>114.0</ele><time>2026-05-03T10:07:08.131Z</time></trkpt><trkpt lat="46.038304" lon="13.5880552"><ele>110.5</ele><time>2026-05-03T10:07:09.131Z</time></trkpt><trkpt lat="46.0383888" lon="13.5880944"><ele>107.0</ele><time>2026-05-03T10:07:10.131Z</time></trkpt><trkpt lat="46.0384784" lon="13.5881119"><ele>103.5</ele><time>2026-05-03T10:07:11.13Z</time></trkpt><trkpt lat="46.0385638" lon="13.5881274"><ele>100.0</ele><time>2026-05-03T10:07:12.131Z</time></trkpt><trkpt lat="46.0386459" lon="13.5881291"><ele>96.5</ele><time>2026-05-03T10:07:13.131Z</time></trkpt><trkpt lat="46.0387231" lon="13.5881347"><ele>93.0</ele><time>2026-05-03T10:07:14.131Z</time></trkpt><trkpt lat="46.0388039" lon="13.58813"><ele>93.0</ele><time>2026-05-03T10:07:15.13Z</time></trkpt><trkpt lat="46.0388889" lon="13.5881192"><ele>93.0</ele><time>2026-05-03T10:07:16.131Z</time></trkpt><trkpt lat="46.0389784" lon="13.588107"><ele>93.0</ele><time>2026-05-03T10:07:17.131Z</time></trkpt><trkpt lat="46.0390741" lon="13.5880918"><ele>93.0</ele><time>2026-05-03T10:07:18.131Z</time></trkpt><trkpt lat="46.0391717" lon="13.5880725"><ele>93.0</ele><time>2026-05-03T10:07:19.131Z</time></trkpt><trkpt lat="46.0392739" lon="13.5880477"><ele>91.80000000000001</ele><time>2026-05-03T10:07:20.131Z</time></trkpt><trkpt lat="46.0393742" lon="13.5880203"><ele>90.6</ele><time>2026-05-03T10:07:21.13Z</time></trkpt><trkpt lat="46.0394753" lon="13.5879979"><ele>89.4</ele><time>2026-05-03T10:07:22.13Z</time></trkpt><trkpt lat="46.0395761" lon="13.5879855"><ele>88.19999999999999</ele><time>2026-05-03T10:07:23.13Z</time></trkpt><trkpt lat="46.0396704" lon="13.5879728"><ele>87.0</ele><time>2026-05-03T10:07:24.131Z</time></trkpt><trkpt lat="46.0397555" lon="13.5879652"><ele>87.0</ele><time>2026-05-03T10:07:25.131Z</time></trkpt><trkpt lat="46.039838" lon="13.5879652"><ele>87.0</ele><time>2026-05-03T10:07:26.131Z</time></trkpt><trkpt lat="46.0399128" lon="13.5879735"><ele>87.0</ele><time>2026-05-03T10:07:27.131Z</time></trkpt><trkpt lat="46.0399805" lon="13.5879929"><ele>87.0</ele><time>2026-05-03T10:07:28.13Z</time></trkpt><trkpt lat="46.0400517" lon="13.588016"><ele>87.0</ele><time>2026-05-03T10:07:29.13Z</time></trkpt><trkpt lat="46.0401328" lon="13.588008"><ele>87.0</ele><time>2026-05-03T10:07:30.13Z</time></trkpt><trkpt lat="46.0402237" lon="13.5879829"><ele>86.5</ele><time>2026-05-03T10:07:31.131Z</time></trkpt><trkpt lat="46.0402968" lon="13.5879364"><ele>86.0</ele><time>2026-05-03T10:07:32.13Z</time></trkpt><trkpt lat="46.0403637" lon="13.587908"><ele>85.5</ele><time>2026-05-03T10:07:33.13Z</time></trkpt><trkpt lat="46.0404313" lon="13.587886"><ele>85.0</ele><time>2026-05-03T10:07:34.131Z</time></trkpt><trkpt lat="46.0405031" lon="13.587875"><ele>84.5</ele><time>2026-05-03T10:07:35.131Z</time></trkpt><trkpt lat="46.040586" lon="13.5878801"><ele>84.0</ele><time>2026-05-03T10:07:36.131Z</time></trkpt><trkpt lat="46.0406715" lon="13.587871"><ele>84.0</ele><time>2026-05-03T10:07:37.131Z</time></trkpt><trkpt lat="46.0407556" lon="13.5878568"><ele>84.0</ele><time>2026-05-03T10:07:38.131Z</time></trkpt><trkpt lat="46.040843" lon="13.5878482"><ele>84.0</ele><time>2026-05-03T10:07:39.131Z</time></trkpt><trkpt lat="46.0409323" lon="13.5878394"><ele>84.0</ele><time>2026-05-03T10:07:40.13Z</time></trkpt><trkpt lat="46.041024" lon="13.5878218"><ele>84.0</ele><time>2026-05-03T10:07:41.13Z</time></trkpt><trkpt lat="46.0411013" lon="13.587777"><ele>84.0</ele><time>2026-05-03T10:07:42.131Z</time></trkpt><trkpt lat="46.0411723" lon="13.5877229"><ele>84.66666666666667</ele><time>2026-05-03T10:07:43.131Z</time></trkpt><trkpt lat="46.0412343" lon="13.5876734"><ele>85.33333333333333</ele><time>2026-05-03T10:07:44.131Z</time></trkpt><trkpt lat="46.0412986" lon="13.5876481"><ele>86.0</ele><time>2026-05-03T10:07:45.131Z</time></trkpt><trkpt lat="46.0414137" lon="13.5876983"><ele>86.66666666666666</ele><time>2026-05-03T10:07:47.13Z</time></trkpt><trkpt lat="46.0415043" lon="13.5878085"><ele>87.33333333333333</ele><time>2026-05-03T10:07:49.131Z</time></trkpt><trkpt lat="46.0415481" lon="13.5878819"><ele>88.0</ele><time>2026-05-03T10:07:50.131Z</time></trkpt><trkpt lat="46.0415983" lon="13.5879503"><ele>87.71428571428572</ele><time>2026-05-03T10:07:51.131Z</time></trkpt><trkpt lat="46.0416596" lon="13.5880148"><ele>87.42857142857143</ele><time>2026-05-03T10:07:52.131Z</time></trkpt><trkpt lat="46.0417259" lon="13.5880541"><ele>87.14285714285714</ele><time>2026-05-03T10:07:53.131Z</time></trkpt><trkpt lat="46.041796" lon="13.588084"><ele>86.85714285714286</ele><time>2026-05-03T10:07:54.131Z</time></trkpt><trkpt lat="46.0418665" lon="13.5881023"><ele>86.57142857142857</ele><time>2026-05-03T10:07:55.13Z</time></trkpt><trkpt lat="46.0419455" lon="13.5880988"><ele>86.28571428571429</ele><time>2026-05-03T10:07:56.131Z</time></trkpt><trkpt lat="46.0420219" lon="13.5880861"><ele>86.0</ele><time>2026-05-03T10:07:57.13Z</time></trkpt><trkpt lat="46.0420939" lon="13.5880718"><ele>86.00000000000001</ele><time>2026-05-03T10:07:58.13Z</time></trkpt><trkpt lat="46.0421625" lon="13.5880534"><ele>86.0</ele><time>2026-05-03T10:07:59.13Z</time></trkpt><trkpt lat="46.0422307" lon="13.5880365"><ele>86.0</ele><time>2026-05-03T10:08:00.131Z</time></trkpt><trkpt lat="46.0422995" lon="13.5880374"><ele>86.0</ele><time>2026-05-03T10:08:01.131Z</time></trkpt><trkpt lat="46.0423705" lon="13.5880604"><ele>86.0</ele><time>2026-05-03T10:08:02.13Z</time></trkpt><trkpt lat="46.0424436" lon="13.5880924"><ele>86.00000000000001</ele><time>2026-05-03T10:08:03.131Z</time></trkpt><trkpt lat="46.0425213" lon="13.5881399"><ele>86.0</ele><time>2026-05-03T10:08:04.131Z</time></trkpt><trkpt lat="46.0426007" lon="13.5881944"><ele>87.33333333333334</ele><time>2026-05-03T10:08:05.13Z</time></trkpt><trkpt lat="46.0426749" lon="13.5882612"><ele>88.66666666666667</ele><time>2026-05-03T10:08:06.13Z</time></trkpt><trkpt lat="46.0427435" lon="13.5883412"><ele>90.0</ele><time>2026-05-03T10:08:07.13Z</time></trkpt><trkpt lat="46.0428049" lon="13.5884263"><ele>91.33333333333333</ele><time>2026-05-03T10:08:08.131Z</time></trkpt><trkpt lat="46.0428603" lon="13.588503"><ele>92.66666666666666</ele><time>2026-05-03T10:08:09.131Z</time></trkpt><trkpt lat="46.0429177" lon="13.5885796"><ele>94.0</ele><time>2026-05-03T10:08:10.131Z</time></trkpt><trkpt lat="46.0429792" lon="13.5886406"><ele>94.0</ele><time>2026-05-03T10:08:11.131Z</time></trkpt><trkpt lat="46.0430416" lon="13.5886857"><ele>94.0</ele><time>2026-05-03T10:08:12.13Z</time></trkpt><trkpt lat="46.0431052" lon="13.5887241"><ele>94.0</ele><time>2026-05-03T10:08:13.13Z</time></trkpt><trkpt lat="46.0431745" lon="13.5887401"><ele>94.0</ele><time>2026-05-03T10:08:14.13Z</time></trkpt><trkpt lat="46.0432579" lon="13.5887353"><ele>94.0</ele><time>2026-05-03T10:08:15.13Z</time></trkpt><trkpt lat="46.0433451" lon="13.5887254"><ele>94.0</ele><time>2026-05-03T10:08:16.131Z</time></trkpt><trkpt lat="46.0434364" lon="13.5887144"><ele>94.0</ele><time>2026-05-03T10:08:17.13Z</time></trkpt><trkpt lat="46.043537" lon="13.588714"><ele>94.0</ele><time>2026-05-03T10:08:18.131Z</time></trkpt><trkpt lat="46.0436476" lon="13.5887308"><ele>94.0</ele><time>2026-05-03T10:08:19.13Z</time></trkpt><trkpt lat="46.0437586" lon="13.5887661"><ele>94.0</ele><time>2026-05-03T10:08:20.131Z</time></trkpt><trkpt lat="46.0438641" lon="13.5888173"><ele>94.0</ele><time>2026-05-03T10:08:21.131Z</time></trkpt><trkpt lat="46.0439644" lon="13.5888682"><ele>94.0</ele><time>2026-05-03T10:08:22.131Z</time></trkpt><trkpt lat="46.0440625" lon="13.5889162"><ele>94.0</ele><time>2026-05-03T10:08:23.131Z</time></trkpt><trkpt lat="46.0441581" lon="13.5889672"><ele>94.0</ele><time>2026-05-03T10:08:24.131Z</time></trkpt><trkpt lat="46.0442495" lon="13.5890148"><ele>94.0</ele><time>2026-05-03T10:08:25.13Z</time></trkpt><trkpt lat="46.0443323" lon="13.5890604"><ele>94.0</ele><time>2026-05-03T10:08:26.131Z</time></trkpt><trkpt lat="46.0444146" lon="13.5891063"><ele>93.6</ele><time>2026-05-03T10:08:27.131Z</time></trkpt><trkpt lat="46.0445057" lon="13.5891476"><ele>93.2</ele><time>2026-05-03T10:08:28.131Z</time></trkpt><trkpt lat="46.0445953" lon="13.5891909"><ele>92.8</ele><time>2026-05-03T10:08:29.131Z</time></trkpt><trkpt lat="46.0446866" lon="13.5892395"><ele>92.39999999999999</ele><time>2026-05-03T10:08:30.131Z</time></trkpt><trkpt lat="46.044772" lon="13.5892805"><ele>92.0</ele><time>2026-05-03T10:08:31.131Z</time></trkpt><trkpt lat="46.0448568" lon="13.5893214"><ele>92.0</ele><time>2026-05-03T10:08:32.13Z</time></trkpt><trkpt lat="46.0449446" lon="13.5893766"><ele>92.0</ele><time>2026-05-03T10:08:33.131Z</time></trkpt><trkpt lat="46.0450237" lon="13.5894586"><ele>92.0</ele><time>2026-05-03T10:08:34.131Z</time></trkpt><trkpt lat="46.0450953" lon="13.5895495"><ele>92.0</ele><time>2026-05-03T10:08:35.131Z</time></trkpt><trkpt lat="46.0451652" lon="13.5896439"><ele>92.0</ele><time>2026-05-03T10:08:36.13Z</time></trkpt><trkpt lat="46.0452344" lon="13.5897399"><ele>91.6</ele><time>2026-05-03T10:08:37.131Z</time></trkpt><trkpt lat="46.0453031" lon="13.589842"><ele>91.19999999999999</ele><time>2026-05-03T10:08:38.131Z</time></trkpt><trkpt lat="46.0453771" lon="13.589939"><ele>90.8</ele><time>2026-05-03T10:08:39.131Z</time></trkpt><trkpt lat="46.045462" lon="13.5900196"><ele>90.4</ele><time>2026-05-03T10:08:40.131Z</time></trkpt><trkpt lat="46.0455586" lon="13.5900912"><ele>90.0</ele><time>2026-05-03T10:08:41.131Z</time></trkpt><trkpt lat="46.045664" lon="13.5901556"><ele>90.0</ele><time>2026-05-03T10:08:42.131Z</time></trkpt><trkpt lat="46.0457631" lon="13.5902282"><ele>90.0</ele><time>2026-05-03T10:08:43.131Z</time></trkpt><trkpt lat="46.0458652" lon="13.5903021"><ele>90.0</ele><time>2026-05-03T10:08:44.13Z</time></trkpt><trkpt lat="46.0459668" lon="13.5903699"><ele>90.0</ele><time>2026-05-03T10:08:45.131Z</time></trkpt><trkpt lat="46.0460709" lon="13.5904421"><ele>89.2</ele><time>2026-05-03T10:08:46.131Z</time></trkpt><trkpt lat="46.0461761" lon="13.5905085"><ele>88.4</ele><time>2026-05-03T10:08:47.13Z</time></trkpt><trkpt lat="46.0462794" lon="13.5905751"><ele>87.6</ele><time>2026-05-03T10:08:48.13Z</time></trkpt><trkpt lat="46.0463794" lon="13.5906409"><ele>86.8</ele><time>2026-05-03T10:08:49.131Z</time></trkpt><trkpt lat="46.0464738" lon="13.5907118"><ele>86.0</ele><time>2026-05-03T10:08:50.13Z</time></trkpt><trkpt lat="46.0465704" lon="13.5907853"><ele>87.4</ele><time>2026-05-03T10:08:51.13Z</time></trkpt><trkpt lat="46.0466662" lon="13.5908576"><ele>88.8</ele><time>2026-05-03T10:08:52.131Z</time></trkpt><trkpt lat="46.0467634" lon="13.5909287"><ele>90.2</ele><time>2026-05-03T10:08:53.13Z</time></trkpt><trkpt lat="46.0468598" lon="13.5909798"><ele>91.60000000000001</ele><time>2026-05-03T10:08:54.131Z</time></trkpt><trkpt lat="46.0469498" lon="13.5910156"><ele>93.0</ele><time>2026-05-03T10:08:55.131Z</time></trkpt><trkpt lat="46.0470477" lon="13.5910401"><ele>93.0</ele><time>2026-05-03T10:08:56.131Z</time></trkpt><trkpt lat="46.0471418" lon="13.5910656"><ele>93.0</ele><time>2026-05-03T10:08:57.13Z</time></trkpt><trkpt lat="46.0472223" lon="13.591104"><ele>93.0</ele><time>2026-05-03T10:08:58.131Z</time></trkpt><trkpt lat="46.0472893" lon="13.591166"><ele>93.0</ele><time>2026-05-03T10:08:59.131Z</time></trkpt><trkpt lat="46.0473507" lon="13.5912396"><ele>93.0</ele><time>2026-05-03T10:09:00.13Z</time></trkpt><trkpt lat="46.0473995" lon="13.5913049"><ele>93.0</ele><time>2026-05-03T10:09:01.13Z</time></trkpt><trkpt lat="46.0475133" lon="13.5913175"><ele>93.16666666666667</ele><time>2026-05-03T10:09:03.13Z</time></trkpt><trkpt lat="46.0475779" lon="13.5913025"><ele>93.33333333333333</ele><time>2026-05-03T10:09:04.131Z</time></trkpt><trkpt lat="46.0476491" lon="13.5912693"><ele>93.5</ele><time>2026-05-03T10:09:05.13Z</time></trkpt><trkpt lat="46.0477308" lon="13.5912163"><ele>93.66666666666666</ele><time>2026-05-03T10:09:06.13Z</time></trkpt><trkpt lat="46.0478217" lon="13.5911631"><ele>93.83333333333333</ele><time>2026-05-03T10:09:07.131Z</time></trkpt><trkpt lat="46.0479138" lon="13.5911138"><ele>94.0</ele><time>2026-05-03T10:09:08.131Z</time></trkpt><trkpt lat="46.0479992" lon="13.5910758"><ele>94.0</ele><time>2026-05-03T10:09:09.131Z</time></trkpt><trkpt lat="46.0480767" lon="13.5910578"><ele>94.0</ele><time>2026-05-03T10:09:10.13Z</time></trkpt><trkpt lat="46.04816" lon="13.5910664"><ele>94.0</ele><time>2026-05-03T10:09:11.131Z</time></trkpt><trkpt lat="46.0482436" lon="13.5910982"><ele>94.0</ele><time>2026-05-03T10:09:12.131Z</time></trkpt><trkpt lat="46.0483117" lon="13.5911334"><ele>94.0</ele><time>2026-05-03T10:09:13.131Z</time></trkpt><trkpt lat="46.048418" lon="13.5910896"><ele>94.0</ele><time>2026-05-03T10:09:15.131Z</time></trkpt><trkpt lat="46.0484763" lon="13.5910067"><ele>94.0</ele><time>2026-05-03T10:09:17.131Z</time></trkpt><trkpt lat="46.0485087" lon="13.5909285"><ele>94.0</ele><time>2026-05-03T10:09:18.131Z</time></trkpt><trkpt lat="46.048506" lon="13.5907827"><ele>94.0</ele><time>2026-05-03T10:09:20.131Z</time></trkpt><trkpt lat="46.0484474" lon="13.5907125"><ele>94.0</ele><time>2026-05-03T10:09:21.131Z</time></trkpt><trkpt lat="46.0483595" lon="13.5906673"><ele>94.0</ele><time>2026-05-03T10:09:22.131Z</time></trkpt><trkpt lat="46.0482796" lon="13.5906165"><ele>94.0</ele><time>2026-05-03T10:09:23.131Z</time></trkpt><trkpt lat="46.0482049" lon="13.5905714"><ele>94.0</ele><time>2026-05-03T10:09:24.131Z</time></trkpt><trkpt lat="46.0481383" lon="13.5905488"><ele>94.0</ele><time>2026-05-03T10:09:25.13Z</time></trkpt><trkpt lat="46.0480473" lon="13.5905032"><ele>94.0</ele><time>2026-05-03T10:09:27.13Z</time></trkpt><trkpt lat="46.0479803" lon="13.590452"><ele>94.0</ele><time>2026-05-03T10:09:30.131Z</time></trkpt><trkpt lat="46.0478933" lon="13.5903682"><ele>94.0</ele><time>2026-05-03T10:09:32.131Z</time></trkpt><trkpt lat="46.0478384" lon="13.5903212"><ele>94.0</ele><time>2026-05-03T10:09:33.131Z</time></trkpt><trkpt lat="46.0477437" lon="13.5902049"><ele>96.0</ele><time>2026-05-03T10:09:35.131Z</time></trkpt><trkpt lat="46.0476841" lon="13.5900678"><ele>98.0</ele><time>2026-05-03T10:09:37.131Z</time></trkpt><trkpt lat="46.0476495" lon="13.5899809"><ele>100.0</ele><time>2026-05-03T10:09:39.131Z</time></trkpt><trkpt lat="46.0477006" lon="13.589895"><ele>102.0</ele><time>2026-05-03T10:09:46.131Z</time></trkpt><trkpt lat="46.047678" lon="13.5899845"><ele>104.00000000000001</ele><time>2026-05-03T10:09:54.131Z</time></trkpt><trkpt lat="46.0476874" lon="13.5900769"><ele>106.0</ele><time>2026-05-03T10:09:56.131Z</time></trkpt><trkpt lat="46.0477273" lon="13.5901569"><ele>106.00000000000001</ele><time>2026-05-03T10:09:58.13Z</time></trkpt><trkpt lat="46.0477843" lon="13.5902399"><ele>106.0</ele><time>2026-05-03T10:10:00.13Z</time></trkpt><trkpt lat="46.0478486" lon="13.5903216"><ele>106.0</ele><time>2026-05-03T10:10:02.131Z</time></trkpt><trkpt lat="46.0479117" lon="13.5903957"><ele>106.0</ele><time>2026-05-03T10:10:04.131Z</time></trkpt><trkpt lat="46.0479755" lon="13.5904381"><ele>106.00000000000001</ele><time>2026-05-03T10:10:06.131Z</time></trkpt><trkpt lat="46.0478857" lon="13.5904403"><ele>106.0</ele><time>2026-05-03T10:10:16.131Z</time></trkpt><trkpt lat="46.0477851" lon="13.5903621"><ele>106.00000000000001</ele><time>2026-05-03T10:10:18.131Z</time></trkpt><trkpt lat="46.0477256" lon="13.590305"><ele>106.0</ele><time>2026-05-03T10:10:20.13Z</time></trkpt><trkpt lat="46.0476599" lon="13.5901557"><ele>106.0</ele><time>2026-05-03T10:10:22.131Z</time></trkpt><trkpt lat="46.0476156" lon="13.5900612"><ele>106.0</ele><time>2026-05-03T10:10:23.13Z</time></trkpt><trkpt lat="46.0475667" lon="13.5899676"><ele>106.00000000000001</ele><time>2026-05-03T10:10:24.13Z</time></trkpt><trkpt lat="46.0475309" lon="13.5898746"><ele>106.0</ele><time>2026-05-03T10:10:25.13Z</time></trkpt><trkpt lat="46.0475382" lon="13.5897681"><ele>106.0</ele><time>2026-05-03T10:10:26.13Z</time></trkpt><trkpt lat="46.0475827" lon="13.5896747"><ele>106.0</ele><time>2026-05-03T10:10:27.13Z</time></trkpt><trkpt lat="46.0476375" lon="13.5895602"><ele>106.0</ele><time>2026-05-03T10:10:28.129Z</time></trkpt><trkpt lat="46.047701" lon="13.5894442"><ele>106.0</ele><time>2026-05-03T10:10:29.13Z</time></trkpt><trkpt lat="46.0477596" lon="13.5893226"><ele>106.0</ele><time>2026-05-03T10:10:30.129Z</time></trkpt><trkpt lat="46.0478037" lon="13.5892058"><ele>108.8</ele><time>2026-05-03T10:10:31.13Z</time></trkpt><trkpt lat="46.0478501" lon="13.5890752"><ele>111.6</ele><time>2026-05-03T10:10:32.13Z</time></trkpt><trkpt lat="46.0478992" lon="13.5889392"><ele>114.4</ele><time>2026-05-03T10:10:33.13Z</time></trkpt><trkpt lat="46.0479644" lon="13.5888002"><ele>117.2</ele><time>2026-05-03T10:10:34.129Z</time></trkpt><trkpt lat="46.0480346" lon="13.5886619"><ele>120.0</ele><time>2026-05-03T10:10:35.13Z</time></trkpt><trkpt lat="46.048106" lon="13.5885343"><ele>122.0</ele><time>2026-05-03T10:10:36.13Z</time></trkpt><trkpt lat="46.0481899" lon="13.5884175"><ele>124.0</ele><time>2026-05-03T10:10:37.13Z</time></trkpt><trkpt lat="46.0482822" lon="13.5883052"><ele>126.0</ele><time>2026-05-03T10:10:38.13Z</time></trkpt><trkpt lat="46.0483663" lon="13.5881859"><ele>128.0</ele><time>2026-05-03T10:10:39.13Z</time></trkpt><trkpt lat="46.0484456" lon="13.5880669"><ele>128.0</ele><time>2026-05-03T10:10:40.13Z</time></trkpt><trkpt lat="46.0485109" lon="13.5879361"><ele>128.0</ele><time>2026-05-03T10:10:41.129Z</time></trkpt><trkpt lat="46.0485638" lon="13.5878009"><ele>128.0</ele><time>2026-05-03T10:10:42.13Z</time></trkpt><trkpt lat="46.0486048" lon="13.587678"><ele>128.0</ele><time>2026-05-03T10:10:43.13Z</time></trkpt><trkpt lat="46.0486378" lon="13.5875633"><ele>128.0</ele><time>2026-05-03T10:10:44.13Z</time></trkpt><trkpt lat="46.0486858" lon="13.5874633"><ele>130.0</ele><time>2026-05-03T10:10:45.13Z</time></trkpt><trkpt lat="46.0487629" lon="13.5873724"><ele>132.0</ele><time>2026-05-03T10:10:46.129Z</time></trkpt><trkpt lat="46.0488545" lon="13.5872995"><ele>134.0</ele><time>2026-05-03T10:10:47.13Z</time></trkpt><trkpt lat="46.0489421" lon="13.5872242"><ele>136.0</ele><time>2026-05-03T10:10:48.13Z</time></trkpt><trkpt lat="46.0490286" lon="13.5871386"><ele>138.0</ele><time>2026-05-03T10:10:49.13Z</time></trkpt><trkpt lat="46.0491102" lon="13.5870406"><ele>139.0</ele><time>2026-05-03T10:10:50.13Z</time></trkpt><trkpt lat="46.0491893" lon="13.5869395"><ele>140.0</ele><time>2026-05-03T10:10:51.129Z</time></trkpt><trkpt lat="46.0492701" lon="13.5868547"><ele>141.0</ele><time>2026-05-03T10:10:52.13Z</time></trkpt><trkpt lat="46.0493536" lon="13.5867594"><ele>142.0</ele><time>2026-05-03T10:10:53.13Z</time></trkpt><trkpt lat="46.0494393" lon="13.5866576"><ele>143.0</ele><time>2026-05-03T10:10:54.129Z</time></trkpt><trkpt lat="46.049521" lon="13.5865396"><ele>143.0</ele><time>2026-05-03T10:10:55.13Z</time></trkpt><trkpt lat="46.0495942" lon="13.5863992"><ele>143.0</ele><time>2026-05-03T10:10:56.13Z</time></trkpt><trkpt lat="46.0496636" lon="13.5862588"><ele>143.0</ele><time>2026-05-03T10:10:57.13Z</time></trkpt><trkpt lat="46.049721" lon="13.5861249"><ele>143.0</ele><time>2026-05-03T10:10:58.129Z</time></trkpt><trkpt lat="46.0497599" lon="13.5860184"><ele>143.0</ele><time>2026-05-03T10:10:59.129Z</time></trkpt><trkpt lat="46.0497845" lon="13.5859107"><ele>143.0</ele><time>2026-05-03T10:11:01.129Z</time></trkpt><trkpt lat="46.0498391" lon="13.5858463"><ele>143.0</ele><time>2026-05-03T10:11:04.13Z</time></trkpt><trkpt lat="46.049834" lon="13.5860301"><ele>143.0</ele><time>2026-05-03T10:11:06.129Z</time></trkpt><trkpt lat="46.0497791" lon="13.5861406"><ele>143.0</ele><time>2026-05-03T10:11:07.13Z</time></trkpt><trkpt lat="46.0497318" lon="13.5862454"><ele>143.0</ele><time>2026-05-03T10:11:08.13Z</time></trkpt><trkpt lat="46.0496912" lon="13.586377"><ele>143.0</ele><time>2026-05-03T10:11:09.129Z</time></trkpt><trkpt lat="46.0496707" lon="13.5865032"><ele>143.0</ele><time>2026-05-03T10:11:10.129Z</time></trkpt><trkpt lat="46.0496631" lon="13.5866278"><ele>143.0</ele><time>2026-05-03T10:11:11.129Z</time></trkpt><trkpt lat="46.0496408" lon="13.58675"><ele>143.0</ele><time>2026-05-03T10:11:12.13Z</time></trkpt><trkpt lat="46.049597" lon="13.5868592"><ele>143.0</ele><time>2026-05-03T10:11:13.129Z</time></trkpt><trkpt lat="46.0495454" lon="13.5869482"><ele>143.0</ele><time>2026-05-03T10:11:14.129Z</time></trkpt><trkpt lat="46.0494911" lon="13.5870256"><ele>143.0</ele><time>2026-05-03T10:11:15.129Z</time></trkpt><trkpt lat="46.0494439" lon="13.587103"><ele>143.0</ele><time>2026-05-03T10:11:16.13Z</time></trkpt><trkpt lat="46.0494251" lon="13.5872621"><ele>143.0</ele><time>2026-05-03T10:11:18.129Z</time></trkpt><trkpt lat="46.0495132" lon="13.5872651"><ele>143.0</ele><time>2026-05-03T10:11:20.13Z</time></trkpt><trkpt lat="46.0495716" lon="13.5872035"><ele>143.0</ele><time>2026-05-03T10:11:21.13Z</time></trkpt><trkpt lat="46.0496393" lon="13.5871217"><ele>143.0</ele><time>2026-05-03T10:11:22.13Z</time></trkpt><trkpt lat="46.0497052" lon="13.5870277"><ele>143.0</ele><time>2026-05-03T10:11:23.129Z</time></trkpt><trkpt lat="46.0497611" lon="13.5869215"><ele>143.0</ele><time>2026-05-03T10:11:24.13Z</time></trkpt><trkpt lat="46.0498105" lon="13.5868078"><ele>143.0</ele><time>2026-05-03T10:11:25.129Z</time></trkpt><trkpt lat="46.049858" lon="13.5866778"><ele>143.0</ele><time>2026-05-03T10:11:26.129Z</time></trkpt><trkpt lat="46.0499041" lon="13.5865514"><ele>143.0</ele><time>2026-05-03T10:11:27.13Z</time></trkpt><trkpt lat="46.0499554" lon="13.5864268"><ele>144.20000000000002</ele><time>2026-05-03T10:11:28.129Z</time></trkpt><trkpt lat="46.0500205" lon="13.5863083"><ele>145.4</ele><time>2026-05-03T10:11:29.13Z</time></trkpt><trkpt lat="46.0500959" lon="13.5862145"><ele>146.60000000000002</ele><time>2026-05-03T10:11:30.13Z</time></trkpt><trkpt lat="46.0501798" lon="13.5861403"><ele>147.8</ele><time>2026-05-03T10:11:31.129Z</time></trkpt><trkpt lat="46.0502734" lon="13.5860807"><ele>149.0</ele><time>2026-05-03T10:11:32.129Z</time></trkpt><trkpt lat="46.0503703" lon="13.5860351"><ele>149.0</ele><time>2026-05-03T10:11:33.13Z</time></trkpt><trkpt lat="46.0504632" lon="13.5859754"><ele>149.0</ele><time>2026-05-03T10:11:34.13Z</time></trkpt><trkpt lat="46.0505514" lon="13.5858782"><ele>149.0</ele><time>2026-05-03T10:11:35.13Z</time></trkpt><trkpt lat="46.0506287" lon="13.585772"><ele>149.0</ele><time>2026-05-03T10:11:36.13Z</time></trkpt><trkpt lat="46.0507089" lon="13.5856721"><ele>149.0</ele><time>2026-05-03T10:11:37.13Z</time></trkpt><trkpt lat="46.0507784" lon="13.5855791"><ele>151.16666666666666</ele><time>2026-05-03T10:11:38.13Z</time></trkpt><trkpt lat="46.0508463" lon="13.585488"><ele>153.33333333333331</ele><time>2026-05-03T10:11:39.129Z</time></trkpt><trkpt lat="46.0508942" lon="13.5853879"><ele>155.5</ele><time>2026-05-03T10:11:40.13Z</time></trkpt><trkpt lat="46.0509257" lon="13.5853022"><ele>157.66666666666666</ele><time>2026-05-03T10:11:41.13Z</time></trkpt><trkpt lat="46.0509368" lon="13.5852055"><ele>159.83333333333334</ele><time>2026-05-03T10:11:42.129Z</time></trkpt><trkpt lat="46.0509482" lon="13.585107"><ele>162.0</ele><time>2026-05-03T10:11:43.13Z</time></trkpt><trkpt lat="46.051002" lon="13.584985"><ele>162.0</ele><time>2026-05-03T10:11:45.13Z</time></trkpt><trkpt lat="46.0511114" lon="13.5850434"><ele>162.0</ele><time>2026-05-03T10:11:47.13Z</time></trkpt><trkpt lat="46.0511309" lon="13.5851339"><ele>162.0</ele><time>2026-05-03T10:11:48.13Z</time></trkpt><trkpt lat="46.051112" lon="13.5852289"><ele>162.0</ele><time>2026-05-03T10:11:49.129Z</time></trkpt><trkpt lat="46.0510728" lon="13.585339"><ele>162.0</ele><time>2026-05-03T10:11:50.129Z</time></trkpt><trkpt lat="46.0510273" lon="13.5854534"><ele>162.0</ele><time>2026-05-03T10:11:51.13Z</time></trkpt><trkpt lat="46.0509852" lon="13.5855674"><ele>164.6</ele><time>2026-05-03T10:11:52.129Z</time></trkpt><trkpt lat="46.0509387" lon="13.5856806"><ele>167.2</ele><time>2026-05-03T10:11:53.13Z</time></trkpt><trkpt lat="46.050889" lon="13.5857871"><ele>169.8</ele><time>2026-05-03T10:11:54.129Z</time></trkpt><trkpt lat="46.0508332" lon="13.5858943"><ele>172.4</ele><time>2026-05-03T10:11:55.13Z</time></trkpt><trkpt lat="46.0507883" lon="13.5860114"><ele>175.0</ele><time>2026-05-03T10:11:56.13Z</time></trkpt><trkpt lat="46.0507463" lon="13.586131"><ele>176.5</ele><time>2026-05-03T10:11:57.129Z</time></trkpt><trkpt lat="46.0507116" lon="13.5862458"><ele>178.0</ele><time>2026-05-03T10:11:58.129Z</time></trkpt><trkpt lat="46.0506927" lon="13.586347"><ele>179.5</ele><time>2026-05-03T10:11:59.129Z</time></trkpt><trkpt lat="46.0506877" lon="13.5864375"><ele>181.0</ele><time>2026-05-03T10:12:00.13Z</time></trkpt><trkpt lat="46.0507357" lon="13.5865242"><ele>182.5</ele><time>2026-05-03T10:12:02.13Z</time></trkpt><trkpt lat="46.0508077" lon="13.5863987"><ele>184.0</ele><time>2026-05-03T10:12:04.129Z</time></trkpt><trkpt lat="46.0508537" lon="13.5863011"><ele>184.0</ele><time>2026-05-03T10:12:05.13Z</time></trkpt><trkpt lat="46.0509031" lon="13.5862021"><ele>184.0</ele><time>2026-05-03T10:12:06.13Z</time></trkpt><trkpt lat="46.0509639" lon="13.5861201"><ele>184.0</ele><time>2026-05-03T10:12:07.13Z</time></trkpt><trkpt lat="46.0510302" lon="13.5860507"><ele>184.0</ele><time>2026-05-03T10:12:08.13Z</time></trkpt><trkpt lat="46.0510986" lon="13.5859808"><ele>184.0</ele><time>2026-05-03T10:12:09.129Z</time></trkpt><trkpt lat="46.0511628" lon="13.5858946"><ele>184.0</ele><time>2026-05-03T10:12:10.13Z</time></trkpt><trkpt lat="46.0512181" lon="13.5857949"><ele>182.5</ele><time>2026-05-03T10:12:11.13Z</time></trkpt><trkpt lat="46.0512559" lon="13.5856897"><ele>181.0</ele><time>2026-05-03T10:12:12.13Z</time></trkpt><trkpt lat="46.0512832" lon="13.5855747"><ele>179.5</ele><time>2026-05-03T10:12:13.13Z</time></trkpt><trkpt lat="46.0513101" lon="13.5854723"><ele>178.0</ele><time>2026-05-03T10:12:14.13Z</time></trkpt><trkpt lat="46.051351" lon="13.5854008"><ele>176.5</ele><time>2026-05-03T10:12:15.129Z</time></trkpt><trkpt lat="46.0514312" lon="13.5854318"><ele>175.0</ele><time>2026-05-03T10:12:17.13Z</time></trkpt><trkpt lat="46.0514007" lon="13.5856202"><ele>175.0</ele><time>2026-05-03T10:12:19.13Z</time></trkpt><trkpt lat="46.0513541" lon="13.5857391"><ele>175.0</ele><time>2026-05-03T10:12:20.13Z</time></trkpt><trkpt lat="46.0513139" lon="13.5858456"><ele>175.0</ele><time>2026-05-03T10:12:21.13Z</time></trkpt><trkpt lat="46.051276" lon="13.5859614"><ele>175.0</ele><time>2026-05-03T10:12:22.129Z</time></trkpt><trkpt lat="46.0512317" lon="13.5860811"><ele>175.0</ele><time>2026-05-03T10:12:23.13Z</time></trkpt><trkpt lat="46.0511886" lon="13.5861984"><ele>176.5</ele><time>2026-05-03T10:12:24.129Z</time></trkpt><trkpt lat="46.0511455" lon="13.5863094"><ele>178.0</ele><time>2026-05-03T10:12:25.129Z</time></trkpt><trkpt lat="46.0511105" lon="13.5864019"><ele>179.5</ele><time>2026-05-03T10:12:26.129Z</time></trkpt><trkpt lat="46.0510917" lon="13.5864985"><ele>181.0</ele><time>2026-05-03T10:12:27.129Z</time></trkpt><trkpt lat="46.0510998" lon="13.5866039"><ele>182.5</ele><time>2026-05-03T10:12:28.13Z</time></trkpt><trkpt lat="46.0511195" lon="13.5867106"><ele>184.0</ele><time>2026-05-03T10:12:29.129Z</time></trkpt><trkpt lat="46.0511414" lon="13.5868386"><ele>184.0</ele><time>2026-05-03T10:12:30.129Z</time></trkpt><trkpt lat="46.0511601" lon="13.5869504"><ele>184.0</ele><time>2026-05-03T10:12:31.13Z</time></trkpt><trkpt lat="46.0511736" lon="13.587051"><ele>184.0</ele><time>2026-05-03T10:12:32.13Z</time></trkpt><trkpt lat="46.0511695" lon="13.5871539"><ele>184.0</ele><time>2026-05-03T10:12:33.13Z</time></trkpt><trkpt lat="46.0511509" lon="13.5872549"><ele>184.0</ele><time>2026-05-03T10:12:34.13Z</time></trkpt><trkpt lat="46.0511213" lon="13.5873539"><ele>184.0</ele><time>2026-05-03T10:12:35.129Z</time></trkpt><trkpt lat="46.051084" lon="13.5874446"><ele>184.0</ele><time>2026-05-03T10:12:36.13Z</time></trkpt><trkpt lat="46.0510594" lon="13.587533"><ele>185.16666666666669</ele><time>2026-05-03T10:12:37.13Z</time></trkpt><trkpt lat="46.0510213" lon="13.5876076"><ele>186.33333333333334</ele><time>2026-05-03T10:12:38.129Z</time></trkpt><trkpt lat="46.0509653" lon="13.5877508"><ele>187.5</ele><time>2026-05-03T10:12:40.13Z</time></trkpt><trkpt lat="46.0509552" lon="13.5879363"><ele>188.66666666666666</ele><time>2026-05-03T10:12:42.13Z</time></trkpt><trkpt lat="46.0509634" lon="13.5880292"><ele>189.83333333333331</ele><time>2026-05-03T10:12:43.13Z</time></trkpt><trkpt lat="46.0509776" lon="13.588128"><ele>191.0</ele><time>2026-05-03T10:12:44.13Z</time></trkpt><trkpt lat="46.050995" lon="13.5882189"><ele>192.85714285714286</ele><time>2026-05-03T10:12:45.13Z</time></trkpt><trkpt lat="46.0510062" lon="13.5883216"><ele>194.7142857142857</ele><time>2026-05-03T10:12:46.13Z</time></trkpt><trkpt lat="46.0510064" lon="13.5884204"><ele>196.57142857142856</ele><time>2026-05-03T10:12:47.13Z</time></trkpt><trkpt lat="46.050992" lon="13.5885188"><ele>198.42857142857144</ele><time>2026-05-03T10:12:48.13Z</time></trkpt><trkpt lat="46.0509596" lon="13.5885988"><ele>200.28571428571428</ele><time>2026-05-03T10:12:49.129Z</time></trkpt><trkpt lat="46.0509409" lon="13.5887185"><ele>202.14285714285714</ele><time>2026-05-03T10:12:51.129Z</time></trkpt><trkpt lat="46.0509951" lon="13.5887714"><ele>204.0</ele><time>2026-05-03T10:12:53.13Z</time></trkpt><trkpt lat="46.0510647" lon="13.5886926"><ele>204.0</ele><time>2026-05-03T10:12:55.13Z</time></trkpt><trkpt lat="46.051089" lon="13.5886083"><ele>204.0</ele><time>2026-05-03T10:12:56.13Z</time></trkpt><trkpt lat="46.0511116" lon="13.5884977"><ele>204.0</ele><time>2026-05-03T10:12:57.13Z</time></trkpt><trkpt lat="46.0511253" lon="13.588397"><ele>204.0</ele><time>2026-05-03T10:12:58.13Z</time></trkpt><trkpt lat="46.0511453" lon="13.5882899"><ele>204.0</ele><time>2026-05-03T10:12:59.13Z</time></trkpt><trkpt lat="46.0511714" lon="13.5882011"><ele>204.0</ele><time>2026-05-03T10:13:00.13Z</time></trkpt><trkpt lat="46.0512043" lon="13.5881124"><ele>204.0</ele><time>2026-05-03T10:13:01.13Z</time></trkpt><trkpt lat="46.0512438" lon="13.5880327"><ele>204.0</ele><time>2026-05-03T10:13:02.13Z</time></trkpt><trkpt lat="46.0513016" lon="13.5879678"><ele>204.0</ele><time>2026-05-03T10:13:03.13Z</time></trkpt><trkpt lat="46.0513646" lon="13.5879099"><ele>204.0</ele><time>2026-05-03T10:13:04.13Z</time></trkpt><trkpt lat="46.0514313" lon="13.587867"><ele>204.0</ele><time>2026-05-03T10:13:05.13Z</time></trkpt><trkpt lat="46.0515046" lon="13.5878239"><ele>204.0</ele><time>2026-05-03T10:13:06.13Z</time></trkpt><trkpt lat="46.0515766" lon="13.5877595"><ele>204.0</ele><time>2026-05-03T10:13:07.13Z</time></trkpt><trkpt lat="46.0516407" lon="13.5876673"><ele>206.66666666666666</ele><time>2026-05-03T10:13:08.13Z</time></trkpt><trkpt lat="46.0516908" lon="13.5875746"><ele>209.33333333333331</ele><time>2026-05-03T10:13:09.13Z</time></trkpt><trkpt lat="46.0517323" lon="13.5874768"><ele>212.0</ele><time>2026-05-03T10:13:10.13Z</time></trkpt><trkpt lat="46.0517768" lon="13.5873831"><ele>214.66666666666666</ele><time>2026-05-03T10:13:11.129Z</time></trkpt><trkpt lat="46.051828" lon="13.5872955"><ele>217.33333333333331</ele><time>2026-05-03T10:13:12.13Z</time></trkpt><trkpt lat="46.0518938" lon="13.5872188"><ele>220.0</ele><time>2026-05-03T10:13:13.13Z</time></trkpt><trkpt lat="46.0519705" lon="13.5871417"><ele>219.99999999999997</ele><time>2026-05-03T10:13:14.13Z</time></trkpt><trkpt lat="46.0520416" lon="13.5870504"><ele>220.0</ele><time>2026-05-03T10:13:15.13Z</time></trkpt><trkpt lat="46.052096" lon="13.5869583"><ele>220.0</ele><time>2026-05-03T10:13:16.13Z</time></trkpt><trkpt lat="46.0521405" lon="13.5868645"><ele>220.0</ele><time>2026-05-03T10:13:17.129Z</time></trkpt><trkpt lat="46.0521687" lon="13.5867702"><ele>219.99999999999997</ele><time>2026-05-03T10:13:18.13Z</time></trkpt><trkpt lat="46.0521824" lon="13.586663"><ele>220.0</ele><time>2026-05-03T10:13:19.129Z</time></trkpt><trkpt lat="46.052194" lon="13.5865703"><ele>219.0</ele><time>2026-05-03T10:13:20.13Z</time></trkpt><trkpt lat="46.0522759" lon="13.5864616"><ele>218.0</ele><time>2026-05-03T10:13:22.129Z</time></trkpt><trkpt lat="46.0524036" lon="13.5864115"><ele>217.0</ele><time>2026-05-03T10:13:24.13Z</time></trkpt><trkpt lat="46.0525067" lon="13.5864448"><ele>216.0</ele><time>2026-05-03T10:13:26.13Z</time></trkpt><trkpt lat="46.0525446" lon="13.5865382"><ele>215.0</ele><time>2026-05-03T10:13:28.13Z</time></trkpt><trkpt lat="46.0524955" lon="13.5866318"><ele>215.00000000000003</ele><time>2026-05-03T10:13:30.129Z</time></trkpt><trkpt lat="46.052431" lon="13.5867034"><ele>215.0</ele><time>2026-05-03T10:13:31.13Z</time></trkpt><trkpt lat="46.0523742" lon="13.5867783"><ele>215.0</ele><time>2026-05-03T10:13:32.13Z</time></trkpt><trkpt lat="46.0523282" lon="13.5868649"><ele>215.0</ele><time>2026-05-03T10:13:33.13Z</time></trkpt><trkpt lat="46.0523017" lon="13.5869655"><ele>215.00000000000003</ele><time>2026-05-03T10:13:34.13Z</time></trkpt><trkpt lat="46.0522819" lon="13.5870771"><ele>215.0</ele><time>2026-05-03T10:13:35.13Z</time></trkpt><trkpt lat="46.0522643" lon="13.5871921"><ele>215.83333333333334</ele><time>2026-05-03T10:13:36.13Z</time></trkpt><trkpt lat="46.0522567" lon="13.5873105"><ele>216.66666666666669</ele><time>2026-05-03T10:13:37.13Z</time></trkpt><trkpt lat="46.0522386" lon="13.587435"><ele>217.5</ele><time>2026-05-03T10:13:38.13Z</time></trkpt><trkpt lat="46.0522142" lon="13.5875582"><ele>218.33333333333331</ele><time>2026-05-03T10:13:39.129Z</time></trkpt><trkpt lat="46.0521925" lon="13.5876747"><ele>219.16666666666666</ele><time>2026-05-03T10:13:40.13Z</time></trkpt><trkpt lat="46.0521706" lon="13.587792"><ele>220.0</ele><time>2026-05-03T10:13:41.129Z</time></trkpt><trkpt lat="46.0521375" lon="13.5879108"><ele>221.66666666666666</ele><time>2026-05-03T10:13:42.13Z</time></trkpt><trkpt lat="46.0520931" lon="13.5880258"><ele>223.33333333333331</ele><time>2026-05-03T10:13:43.13Z</time></trkpt><trkpt lat="46.0520424" lon="13.5881413"><ele>225.0</ele><time>2026-05-03T10:13:44.129Z</time></trkpt><trkpt lat="46.0520054" lon="13.5882539"><ele>226.66666666666669</ele><time>2026-05-03T10:13:45.129Z</time></trkpt><trkpt lat="46.0519734" lon="13.5883727"><ele>228.33333333333334</ele><time>2026-05-03T10:13:46.129Z</time></trkpt><trkpt lat="46.0519498" lon="13.5884902"><ele>230.0</ele><time>2026-05-03T10:13:47.13Z</time></trkpt><trkpt lat="46.0519263" lon="13.5885942"><ele>230.00000000000003</ele><time>2026-05-03T10:13:48.13Z</time></trkpt><trkpt lat="46.0518989" lon="13.588733"><ele>230.0</ele><time>2026-05-03T10:13:50.13Z</time></trkpt><trkpt lat="46.0519765" lon="13.5887593"><ele>230.0</ele><time>2026-05-03T10:13:53.129Z</time></trkpt><trkpt lat="46.0520165" lon="13.5886469"><ele>230.0</ele><time>2026-05-03T10:13:55.129Z</time></trkpt><trkpt lat="46.0520416" lon="13.5885606"><ele>230.00000000000003</ele><time>2026-05-03T10:13:56.13Z</time></trkpt><trkpt lat="46.0520659" lon="13.5884688"><ele>230.0</ele><time>2026-05-03T10:13:57.13Z</time></trkpt><trkpt lat="46.0521424" lon="13.5883341"><ele>230.00000000000003</ele><time>2026-05-03T10:13:59.13Z</time></trkpt><trkpt lat="46.0522075" lon="13.5882543"><ele>230.0</ele><time>2026-05-03T10:14:00.129Z</time></trkpt><trkpt lat="46.0522845" lon="13.5881715"><ele>230.0</ele><time>2026-05-03T10:14:01.13Z</time></trkpt><trkpt lat="46.0523555" lon="13.5880918"><ele>230.0</ele><time>2026-05-03T10:14:02.13Z</time></trkpt><trkpt lat="46.0524161" lon="13.5880223"><ele>230.00000000000003</ele><time>2026-05-03T10:14:03.13Z</time></trkpt><trkpt lat="46.0524785" lon="13.5879578"><ele>230.0</ele><time>2026-05-03T10:14:04.13Z</time></trkpt><trkpt lat="46.0525374" lon="13.5878933"><ele>234.0</ele><time>2026-05-03T10:14:05.13Z</time></trkpt><trkpt lat="46.0525914" lon="13.587834"><ele>238.0</ele><time>2026-05-03T10:14:06.13Z</time></trkpt><trkpt lat="46.0526442" lon="13.587773"><ele>242.0</ele><time>2026-05-03T10:14:07.13Z</time></trkpt><trkpt lat="46.0527324" lon="13.5876518"><ele>246.0</ele><time>2026-05-03T10:14:09.13Z</time></trkpt><trkpt lat="46.0528169" lon="13.5875007"><ele>250.0</ele><time>2026-05-03T10:14:11.13Z</time></trkpt><trkpt lat="46.0528682" lon="13.5874181"><ele>249.99999999999997</ele><time>2026-05-03T10:14:12.13Z</time></trkpt><trkpt lat="46.0529309" lon="13.5873376"><ele>250.0</ele><time>2026-05-03T10:14:13.129Z</time></trkpt><trkpt lat="46.0529951" lon="13.5872595"><ele>250.0</ele><time>2026-05-03T10:14:14.13Z</time></trkpt><trkpt lat="46.0530615" lon="13.5871798"><ele>250.0</ele><time>2026-05-03T10:14:15.13Z</time></trkpt><trkpt lat="46.0531257" lon="13.5870945"><ele>249.99999999999997</ele><time>2026-05-03T10:14:16.13Z</time></trkpt><trkpt lat="46.0531845" lon="13.5870051"><ele>250.0</ele><time>2026-05-03T10:14:17.13Z</time></trkpt><trkpt lat="46.0532427" lon="13.5869309"><ele>253.33333333333331</ele><time>2026-05-03T10:14:18.129Z</time></trkpt><trkpt lat="46.0533074" lon="13.5868673"><ele>256.66666666666663</ele><time>2026-05-03T10:14:19.129Z</time></trkpt><trkpt lat="46.0533728" lon="13.5867969"><ele>260.0</ele><time>2026-05-03T10:14:20.13Z</time></trkpt><trkpt lat="46.05344" lon="13.58673"><ele>263.3333333333333</ele><time>2026-05-03T10:14:21.128Z</time></trkpt><trkpt lat="46.0535101" lon="13.5866601"><ele>266.6666666666667</ele><time>2026-05-03T10:14:22.129Z</time></trkpt><trkpt lat="46.0535781" lon="13.5865871"><ele>270.0</ele><time>2026-05-03T10:14:23.129Z</time></trkpt><trkpt lat="46.0536424" lon="13.5865113"><ele>270.0</ele><time>2026-05-03T10:14:24.129Z</time></trkpt><trkpt lat="46.0536996" lon="13.5864342"><ele>270.0</ele><time>2026-05-03T10:14:25.129Z</time></trkpt><trkpt lat="46.0537567" lon="13.586346"><ele>270.0</ele><time>2026-05-03T10:14:26.129Z</time></trkpt><trkpt lat="46.0538022" lon="13.5862514"><ele>270.0</ele><time>2026-05-03T10:14:27.129Z</time></trkpt><trkpt lat="46.0538392" lon="13.586145"><ele>270.0</ele><time>2026-05-03T10:14:28.129Z</time></trkpt><trkpt lat="46.0538722" lon="13.586038"><ele>270.0</ele><time>2026-05-03T10:14:29.129Z</time></trkpt><trkpt lat="46.0539002" lon="13.5859357"><ele>269.1428571428571</ele><time>2026-05-03T10:14:30.129Z</time></trkpt><trkpt lat="46.0539233" lon="13.5858392"><ele>268.2857142857143</ele><time>2026-05-03T10:14:31.129Z</time></trkpt><trkpt lat="46.0539318" lon="13.5857425"><ele>267.42857142857144</ele><time>2026-05-03T10:14:32.128Z</time></trkpt><trkpt lat="46.0539338" lon="13.5856425"><ele>266.57142857142856</ele><time>2026-05-03T10:14:33.129Z</time></trkpt><trkpt lat="46.0539186" lon="13.585541"><ele>265.7142857142857</ele><time>2026-05-03T10:14:34.128Z</time></trkpt><trkpt lat="46.0539115" lon="13.5854384"><ele>264.85714285714283</ele><time>2026-05-03T10:14:35.129Z</time></trkpt><trkpt lat="46.0539158" lon="13.5853271"><ele>264.0</ele><time>2026-05-03T10:14:36.129Z</time></trkpt><trkpt lat="46.0539258" lon="13.5852191"><ele>264.0</ele><time>2026-05-03T10:14:37.129Z</time></trkpt><trkpt lat="46.0539346" lon="13.5851028"><ele>264.0</ele><time>2026-05-03T10:14:38.129Z</time></trkpt><trkpt lat="46.0539289" lon="13.5849898"><ele>264.0</ele><time>2026-05-03T10:14:39.129Z</time></trkpt><trkpt lat="46.0539151" lon="13.5848881"><ele>264.0</ele><time>2026-05-03T10:14:40.129Z</time></trkpt><trkpt lat="46.0538968" lon="13.5847932"><ele>264.0</ele><time>2026-05-03T10:14:41.129Z</time></trkpt><trkpt lat="46.0538847" lon="13.5846955"><ele>264.0</ele><time>2026-05-03T10:14:42.129Z</time></trkpt><trkpt lat="46.0538642" lon="13.5845994"><ele>264.0</ele><time>2026-05-03T10:14:43.128Z</time></trkpt><trkpt lat="46.0538367" lon="13.5844687"><ele>264.0</ele><time>2026-05-03T10:14:45.129Z</time></trkpt><trkpt lat="46.0538568" lon="13.5843539"><ele>264.0</ele><time>2026-05-03T10:14:47.128Z</time></trkpt><trkpt lat="46.0539117" lon="13.5843057"><ele>264.0</ele><time>2026-05-03T10:14:49.129Z</time></trkpt><trkpt lat="46.0539598" lon="13.5843677"><ele>264.0</ele><time>2026-05-03T10:14:51.128Z</time></trkpt><trkpt lat="46.0539661" lon="13.5844874"><ele>264.0</ele><time>2026-05-03T10:14:53.128Z</time></trkpt><trkpt lat="46.0539708" lon="13.584584"><ele>264.0</ele><time>2026-05-03T10:14:54.128Z</time></trkpt><trkpt lat="46.0539928" lon="13.5846893"><ele>264.0</ele><time>2026-05-03T10:14:55.128Z</time></trkpt><trkpt lat="46.0540265" lon="13.584789"><ele>264.0</ele><time>2026-05-03T10:14:56.129Z</time></trkpt><trkpt lat="46.0540586" lon="13.5848732"><ele>264.0</ele><time>2026-05-03T10:14:57.129Z</time></trkpt><trkpt lat="46.0540906" lon="13.5849629"><ele>264.0</ele><time>2026-05-03T10:14:58.129Z</time></trkpt><trkpt lat="46.0541252" lon="13.5850546"><ele>264.0</ele><time>2026-05-03T10:14:59.129Z</time></trkpt><trkpt lat="46.0541508" lon="13.5851509"><ele>264.0</ele><time>2026-05-03T10:15:00.129Z</time></trkpt><trkpt lat="46.0541769" lon="13.5852492"><ele>264.0</ele><time>2026-05-03T10:15:01.129Z</time></trkpt><trkpt lat="46.0542086" lon="13.5853497"><ele>264.0</ele><time>2026-05-03T10:15:02.129Z</time></trkpt><trkpt lat="46.0542453" lon="13.5854513"><ele>270.1666666666667</ele><time>2026-05-03T10:15:03.129Z</time></trkpt><trkpt lat="46.0542805" lon="13.5855336"><ele>276.3333333333333</ele><time>2026-05-03T10:15:04.129Z</time></trkpt><trkpt lat="46.0543581" lon="13.585685"><ele>282.5</ele><time>2026-05-03T10:15:06.128Z</time></trkpt><trkpt lat="46.0543915" lon="13.585769"><ele>288.66666666666663</ele><time>2026-05-03T10:15:07.129Z</time></trkpt><trkpt lat="46.0544064" lon="13.5858617"><ele>294.8333333333333</ele><time>2026-05-03T10:15:08.129Z</time></trkpt><trkpt lat="46.0544056" lon="13.5859667"><ele>301.0</ele><time>2026-05-03T10:15:09.129Z</time></trkpt><trkpt lat="46.0543966" lon="13.5860836"><ele>302.3333333333333</ele><time>2026-05-03T10:15:10.129Z</time></trkpt><trkpt lat="46.0543981" lon="13.5862118"><ele>303.66666666666663</ele><time>2026-05-03T10:15:11.129Z</time></trkpt><trkpt lat="46.054406" lon="13.5863385"><ele>305.0</ele><time>2026-05-03T10:15:12.129Z</time></trkpt><trkpt lat="46.0544177" lon="13.5864517"><ele>306.3333333333333</ele><time>2026-05-03T10:15:13.129Z</time></trkpt><trkpt lat="46.0544176" lon="13.5865568"><ele>307.6666666666667</ele><time>2026-05-03T10:15:14.129Z</time></trkpt><trkpt lat="46.054408" lon="13.5866597"><ele>309.0</ele><time>2026-05-03T10:15:15.128Z</time></trkpt><trkpt lat="46.0543789" lon="13.5867723"><ele>309.0</ele><time>2026-05-03T10:15:16.129Z</time></trkpt><trkpt lat="46.0543381" lon="13.5868848"><ele>309.0</ele><time>2026-05-03T10:15:17.129Z</time></trkpt><trkpt lat="46.0543052" lon="13.5869969"><ele>309.0</ele><time>2026-05-03T10:15:18.128Z</time></trkpt><trkpt lat="46.0542687" lon="13.5871118"><ele>309.0</ele><time>2026-05-03T10:15:19.129Z</time></trkpt><trkpt lat="46.0542307" lon="13.587246"><ele>309.0</ele><time>2026-05-03T10:15:20.129Z</time></trkpt><trkpt lat="46.0541979" lon="13.5873857"><ele>307.2</ele><time>2026-05-03T10:15:21.129Z</time></trkpt><trkpt lat="46.0541557" lon="13.5875216"><ele>305.4</ele><time>2026-05-03T10:15:22.129Z</time></trkpt><trkpt lat="46.0541102" lon="13.5876538"><ele>303.6</ele><time>2026-05-03T10:15:23.128Z</time></trkpt><trkpt lat="46.0540667" lon="13.587784"><ele>301.8</ele><time>2026-05-03T10:15:24.128Z</time></trkpt><trkpt lat="46.0540273" lon="13.5879038"><ele>300.0</ele><time>2026-05-03T10:15:25.128Z</time></trkpt><trkpt lat="46.054004" lon="13.5880181"><ele>300.0</ele><time>2026-05-03T10:15:26.129Z</time></trkpt><trkpt lat="46.0539859" lon="13.5881298"><ele>300.0</ele><time>2026-05-03T10:15:27.128Z</time></trkpt><trkpt lat="46.0539664" lon="13.5882867"><ele>300.0</ele><time>2026-05-03T10:15:29.129Z</time></trkpt><trkpt lat="46.0539719" lon="13.5883844"><ele>300.0</ele><time>2026-05-03T10:15:31.128Z</time></trkpt><trkpt lat="46.054047" lon="13.5883608"><ele>300.0</ele><time>2026-05-03T10:15:34.128Z</time></trkpt><trkpt lat="46.0540753" lon="13.5881962"><ele>300.0</ele><time>2026-05-03T10:15:36.128Z</time></trkpt><trkpt lat="46.0540992" lon="13.5881036"><ele>300.0</ele><time>2026-05-03T10:15:37.129Z</time></trkpt><trkpt lat="46.0541277" lon="13.5880138"><ele>300.0</ele><time>2026-05-03T10:15:38.128Z</time></trkpt><trkpt lat="46.0541751" lon="13.5879178"><ele>300.0</ele><time>2026-05-03T10:15:39.128Z</time></trkpt><trkpt lat="46.0542269" lon="13.5878263"><ele>300.0</ele><time>2026-05-03T10:15:40.128Z</time></trkpt><trkpt lat="46.0542938" lon="13.5877292"><ele>300.0</ele><time>2026-05-03T10:15:41.128Z</time></trkpt><trkpt lat="46.0543648" lon="13.5876301"><ele>305.0</ele><time>2026-05-03T10:15:42.129Z</time></trkpt><trkpt lat="46.0544393" lon="13.5875305"><ele>310.0</ele><time>2026-05-03T10:15:43.129Z</time></trkpt><trkpt lat="46.0545142" lon="13.5874266"><ele>315.0</ele><time>2026-05-03T10:15:44.129Z</time></trkpt><trkpt lat="46.0545869" lon="13.5873261"><ele>320.0</ele><time>2026-05-03T10:15:45.129Z</time></trkpt><trkpt lat="46.0546561" lon="13.5872214"><ele>325.0</ele><time>2026-05-03T10:15:46.128Z</time></trkpt><trkpt lat="46.0547191" lon="13.5871279"><ele>325.0</ele><time>2026-05-03T10:15:47.129Z</time></trkpt><trkpt lat="46.0547788" lon="13.5870411"><ele>325.0</ele><time>2026-05-03T10:15:48.129Z</time></trkpt><trkpt lat="46.054843" lon="13.5869627"><ele>325.0</ele><time>2026-05-03T10:15:49.129Z</time></trkpt><trkpt lat="46.0549111" lon="13.586889"><ele>325.0</ele><time>2026-05-03T10:15:50.129Z</time></trkpt><trkpt lat="46.0549779" lon="13.5868276"><ele>325.0</ele><time>2026-05-03T10:15:51.128Z</time></trkpt><trkpt lat="46.0550377" lon="13.5867745"><ele>325.0</ele><time>2026-05-03T10:15:52.129Z</time></trkpt><trkpt lat="46.055091" lon="13.5867102"><ele>327.7142857142857</ele><time>2026-05-03T10:15:53.128Z</time></trkpt><trkpt lat="46.0551242" lon="13.5866314"><ele>330.42857142857144</ele><time>2026-05-03T10:15:54.129Z</time></trkpt><trkpt lat="46.0551343" lon="13.5865363"><ele>333.14285714285717</ele><time>2026-05-03T10:15:55.128Z</time></trkpt><trkpt lat="46.0551393" lon="13.586433"><ele>335.8571428571429</ele><time>2026-05-03T10:15:56.128Z</time></trkpt><trkpt lat="46.055154" lon="13.5863351"><ele>338.57142857142856</ele><time>2026-05-03T10:15:57.129Z</time></trkpt><trkpt lat="46.0551885" lon="13.5862366"><ele>341.28571428571433</ele><time>2026-05-03T10:15:58.129Z</time></trkpt><trkpt lat="46.0552343" lon="13.5861436"><ele>344.0</ele><time>2026-05-03T10:15:59.129Z</time></trkpt><trkpt lat="46.0552778" lon="13.5860582"><ele>344.0</ele><time>2026-05-03T10:16:00.129Z</time></trkpt><trkpt lat="46.0553083" lon="13.585961"><ele>344.0</ele><time>2026-05-03T10:16:01.128Z</time></trkpt><trkpt lat="46.0553226" lon="13.5858596"><ele>344.0</ele><time>2026-05-03T10:16:02.129Z</time></trkpt><trkpt lat="46.0553156" lon="13.5857473"><ele>344.0</ele><time>2026-05-03T10:16:03.129Z</time></trkpt><trkpt lat="46.0552985" lon="13.5856496"><ele>344.0</ele><time>2026-05-03T10:16:04.129Z</time></trkpt><trkpt lat="46.0552193" lon="13.5854765"><ele>344.0</ele><time>2026-05-03T10:16:06.128Z</time></trkpt><trkpt lat="46.055166" lon="13.5853593"><ele>345.1666666666667</ele><time>2026-05-03T10:16:07.129Z</time></trkpt><trkpt lat="46.0551199" lon="13.5852638"><ele>346.33333333333337</ele><time>2026-05-03T10:16:08.129Z</time></trkpt><trkpt lat="46.0550804" lon="13.5851596"><ele>347.5</ele><time>2026-05-03T10:16:09.129Z</time></trkpt><trkpt lat="46.0550578" lon="13.5850458"><ele>348.6666666666667</ele><time>2026-05-03T10:16:10.129Z</time></trkpt><trkpt lat="46.0550501" lon="13.5849231"><ele>349.8333333333333</ele><time>2026-05-03T10:16:11.129Z</time></trkpt><trkpt lat="46.0550558" lon="13.5847994"><ele>351.0</ele><time>2026-05-03T10:16:12.129Z</time></trkpt><trkpt lat="46.0550671" lon="13.584671"><ele>351.0</ele><time>2026-05-03T10:16:13.128Z</time></trkpt><trkpt lat="46.0550793" lon="13.5845688"><ele>351.0</ele><time>2026-05-03T10:16:14.129Z</time></trkpt><trkpt lat="46.0551456" lon="13.5844185"><ele>351.0</ele><time>2026-05-03T10:16:16.129Z</time></trkpt><trkpt lat="46.0552003" lon="13.5843578"><ele>351.0</ele><time>2026-05-03T10:16:17.129Z</time></trkpt><trkpt lat="46.0552657" lon="13.5842944"><ele>351.0</ele><time>2026-05-03T10:16:18.129Z</time></trkpt><trkpt lat="46.0553401" lon="13.5842348"><ele>351.0</ele><time>2026-05-03T10:16:19.129Z</time></trkpt><trkpt lat="46.055398" lon="13.5841709"><ele>350.1666666666667</ele><time>2026-05-03T10:16:20.129Z</time></trkpt><trkpt lat="46.0554455" lon="13.5841023"><ele>349.3333333333333</ele><time>2026-05-03T10:16:21.129Z</time></trkpt><trkpt lat="46.0554801" lon="13.5839351"><ele>348.5</ele><time>2026-05-03T10:16:23.129Z</time></trkpt><trkpt lat="46.0554791" lon="13.5838391"><ele>347.66666666666663</ele><time>2026-05-03T10:16:24.129Z</time></trkpt><trkpt lat="46.0554746" lon="13.583737"><ele>346.8333333333333</ele><time>2026-05-03T10:16:25.129Z</time></trkpt><trkpt lat="46.0554593" lon="13.5836467"><ele>346.0</ele><time>2026-05-03T10:16:26.128Z</time></trkpt><trkpt lat="46.0554316" lon="13.5834695"><ele>345.4</ele><time>2026-05-03T10:16:28.129Z</time></trkpt><trkpt lat="46.0554649" lon="13.5833166"><ele>344.8</ele><time>2026-05-03T10:16:30.129Z</time></trkpt><trkpt lat="46.0555533" lon="13.5832131"><ele>344.2</ele><time>2026-05-03T10:16:32.129Z</time></trkpt><trkpt lat="46.0556214" lon="13.5831494"><ele>343.59999999999997</ele><time>2026-05-03T10:16:33.129Z</time></trkpt><trkpt lat="46.0557012" lon="13.5830864"><ele>343.0</ele><time>2026-05-03T10:16:34.129Z</time></trkpt><trkpt lat="46.0557893" lon="13.5830197"><ele>349.66666666666663</ele><time>2026-05-03T10:16:35.129Z</time></trkpt><trkpt lat="46.0558789" lon="13.5829495"><ele>356.3333333333333</ele><time>2026-05-03T10:16:36.128Z</time></trkpt><trkpt lat="46.0559508" lon="13.5828712"><ele>363.0</ele><time>2026-05-03T10:16:37.129Z</time></trkpt><trkpt lat="46.0560127" lon="13.582804"><ele>369.6666666666667</ele><time>2026-05-03T10:16:38.129Z</time></trkpt><trkpt lat="46.0560611" lon="13.5827394"><ele>376.33333333333337</ele><time>2026-05-03T10:16:39.128Z</time></trkpt><trkpt lat="46.0561004" lon="13.5826324"><ele>383.0</ele><time>2026-05-03T10:16:41.128Z</time></trkpt><trkpt lat="46.0560392" lon="13.5825575"><ele>383.0</ele><time>2026-05-03T10:16:43.128Z</time></trkpt><trkpt lat="46.0559494" lon="13.5824525"><ele>383.0</ele><time>2026-05-03T10:16:45.129Z</time></trkpt><trkpt lat="46.0559016" lon="13.5823488"><ele>383.0</ele><time>2026-05-03T10:16:46.129Z</time></trkpt><trkpt lat="46.0558673" lon="13.582248"><ele>383.0</ele><time>2026-05-03T10:16:47.129Z</time></trkpt><trkpt lat="46.0558253" lon="13.5821408"><ele>383.0</ele><time>2026-05-03T10:16:48.128Z</time></trkpt><trkpt lat="46.0557835" lon="13.5820237"><ele>376.83333333333337</ele><time>2026-05-03T10:16:49.128Z</time></trkpt><trkpt lat="46.0557466" lon="13.581916"><ele>370.6666666666667</ele><time>2026-05-03T10:16:50.128Z</time></trkpt><trkpt lat="46.0557173" lon="13.5818113"><ele>364.5</ele><time>2026-05-03T10:16:51.129Z</time></trkpt><trkpt lat="46.0556994" lon="13.5816955"><ele>358.3333333333333</ele><time>2026-05-03T10:16:52.129Z</time></trkpt><trkpt lat="46.0556911" lon="13.5815605"><ele>352.16666666666663</ele><time>2026-05-03T10:16:53.129Z</time></trkpt><trkpt lat="46.0556932" lon="13.5814166"><ele>346.0</ele><time>2026-05-03T10:16:54.128Z</time></trkpt><trkpt lat="46.0556912" lon="13.5812834"><ele>346.16666666666663</ele><time>2026-05-03T10:16:55.128Z</time></trkpt><trkpt lat="46.0556866" lon="13.5811572"><ele>346.3333333333333</ele><time>2026-05-03T10:16:56.129Z</time></trkpt><trkpt lat="46.0556962" lon="13.5810567"><ele>346.5</ele><time>2026-05-03T10:16:57.128Z</time></trkpt><trkpt lat="46.0557377" lon="13.5809688"><ele>346.6666666666667</ele><time>2026-05-03T10:16:58.129Z</time></trkpt><trkpt lat="46.0557914" lon="13.5808911"><ele>346.83333333333337</ele><time>2026-05-03T10:16:59.129Z</time></trkpt><trkpt lat="46.0558549" lon="13.5808208"><ele>347.0</ele><time>2026-05-03T10:17:00.128Z</time></trkpt><trkpt lat="46.055904" lon="13.5807254"><ele>356.8</ele><time>2026-05-03T10:17:01.129Z</time></trkpt><trkpt lat="46.0559349" lon="13.5806169"><ele>366.6</ele><time>2026-05-03T10:17:02.128Z</time></trkpt><trkpt lat="46.0559548" lon="13.5804894"><ele>376.40000000000003</ele><time>2026-05-03T10:17:03.129Z</time></trkpt><trkpt lat="46.055962" lon="13.5803467"><ele>386.20000000000005</ele><time>2026-05-03T10:17:04.129Z</time></trkpt><trkpt lat="46.0559601" lon="13.5802034"><ele>396.0</ele><time>2026-05-03T10:17:05.128Z</time></trkpt><trkpt lat="46.0559641" lon="13.5800592"><ele>396.0</ele><time>2026-05-03T10:17:06.128Z</time></trkpt><trkpt lat="46.0559714" lon="13.5799128"><ele>396.0</ele><time>2026-05-03T10:17:07.129Z</time></trkpt><trkpt lat="46.0559862" lon="13.5797819"><ele>396.0</ele><time>2026-05-03T10:17:08.129Z</time></trkpt><trkpt lat="46.0560049" lon="13.579662"><ele>396.0</ele><time>2026-05-03T10:17:09.128Z</time></trkpt><trkpt lat="46.0560351" lon="13.5795537"><ele>396.0</ele><time>2026-05-03T10:17:10.129Z</time></trkpt><trkpt lat="46.0560865" lon="13.5794445"><ele>393.6</ele><time>2026-05-03T10:17:11.129Z</time></trkpt><trkpt lat="46.0561484" lon="13.5793126"><ele>391.20000000000005</ele><time>2026-05-03T10:17:12.128Z</time></trkpt><trkpt lat="46.0562062" lon="13.5791713"><ele>388.79999999999995</ele><time>2026-05-03T10:17:13.129Z</time></trkpt><trkpt lat="46.0562481" lon="13.5790529"><ele>386.4</ele><time>2026-05-03T10:17:14.129Z</time></trkpt><trkpt lat="46.0562887" lon="13.5789374"><ele>384.0</ele><time>2026-05-03T10:17:15.128Z</time></trkpt><trkpt lat="46.0563247" lon="13.5788141"><ele>384.0</ele><time>2026-05-03T10:17:16.128Z</time></trkpt><trkpt lat="46.0563504" lon="13.578687"><ele>384.0</ele><time>2026-05-03T10:17:17.129Z</time></trkpt><trkpt lat="46.0563615" lon="13.578566"><ele>384.0</ele><time>2026-05-03T10:17:18.128Z</time></trkpt><trkpt lat="46.0563811" lon="13.5784501"><ele>384.0</ele><time>2026-05-03T10:17:19.128Z</time></trkpt><trkpt lat="46.0564104" lon="13.5783412"><ele>384.0</ele><time>2026-05-03T10:17:20.129Z</time></trkpt><trkpt lat="46.0564527" lon="13.5782275"><ele>384.0</ele><time>2026-05-03T10:17:21.129Z</time></trkpt><trkpt lat="46.0564856" lon="13.5781128"><ele>382.0</ele><time>2026-05-03T10:17:22.129Z</time></trkpt><trkpt lat="46.0564858" lon="13.5780104"><ele>380.0</ele><time>2026-05-03T10:17:23.129Z</time></trkpt><trkpt lat="46.0564815" lon="13.5778828"><ele>378.0</ele><time>2026-05-03T10:17:24.128Z</time></trkpt><trkpt lat="46.0564746" lon="13.5777467"><ele>376.0</ele><time>2026-05-03T10:17:25.128Z</time></trkpt><trkpt lat="46.0564857" lon="13.5776283"><ele>374.0</ele><time>2026-05-03T10:17:26.129Z</time></trkpt><trkpt lat="46.0565048" lon="13.5775205"><ele>372.0</ele><time>2026-05-03T10:17:27.129Z</time></trkpt><trkpt lat="46.0565364" lon="13.5774219"><ele>370.1666666666667</ele><time>2026-05-03T10:17:28.128Z</time></trkpt><trkpt lat="46.0565889" lon="13.5773443"><ele>368.3333333333333</ele><time>2026-05-03T10:17:29.129Z</time></trkpt><trkpt lat="46.0566556" lon="13.5773053"><ele>366.5</ele><time>2026-05-03T10:17:30.128Z</time></trkpt><trkpt lat="46.0567308" lon="13.5772667"><ele>364.66666666666663</ele><time>2026-05-03T10:17:31.129Z</time></trkpt><trkpt lat="46.0568157" lon="13.5772399"><ele>362.8333333333333</ele><time>2026-05-03T10:17:32.129Z</time></trkpt><trkpt lat="46.0569122" lon="13.5772183"><ele>361.0</ele><time>2026-05-03T10:17:33.129Z</time></trkpt><trkpt lat="46.0570014" lon="13.5772141"><ele>367.66666666666663</ele><time>2026-05-03T10:17:34.128Z</time></trkpt><trkpt lat="46.057072" lon="13.5772013"><ele>374.3333333333333</ele><time>2026-05-03T10:17:35.128Z</time></trkpt><trkpt lat="46.0571251" lon="13.5770904"><ele>381.0</ele><time>2026-05-03T10:17:37.128Z</time></trkpt><trkpt lat="46.057111" lon="13.5770005"><ele>387.66666666666663</ele><time>2026-05-03T10:17:38.128Z</time></trkpt><trkpt lat="46.0570914" lon="13.5768999"><ele>394.3333333333333</ele><time>2026-05-03T10:17:39.129Z</time></trkpt><trkpt lat="46.0570668" lon="13.5768048"><ele>401.0</ele><time>2026-05-03T10:17:40.129Z</time></trkpt><trkpt lat="46.0570547" lon="13.5766904"><ele>401.0</ele><time>2026-05-03T10:17:41.128Z</time></trkpt><trkpt lat="46.0570716" lon="13.5765637"><ele>401.0</ele><time>2026-05-03T10:17:42.128Z</time></trkpt><trkpt lat="46.0571182" lon="13.5764297"><ele>401.0</ele><time>2026-05-03T10:17:43.128Z</time></trkpt><trkpt lat="46.0571752" lon="13.5763306"><ele>401.0</ele><time>2026-05-03T10:17:44.129Z</time></trkpt><trkpt lat="46.0572519" lon="13.5762385"><ele>401.0</ele><time>2026-05-03T10:17:45.128Z</time></trkpt><trkpt lat="46.0573423" lon="13.5761609"><ele>395.8</ele><time>2026-05-03T10:17:46.129Z</time></trkpt><trkpt lat="46.0574269" lon="13.5760945"><ele>390.6</ele><time>2026-05-03T10:17:47.128Z</time></trkpt><trkpt lat="46.0574946" lon="13.576036"><ele>385.4</ele><time>2026-05-03T10:17:48.129Z</time></trkpt><trkpt lat="46.0575778" lon="13.5759883"><ele>380.2</ele><time>2026-05-03T10:17:49.129Z</time></trkpt><trkpt lat="46.0576854" lon="13.5759473"><ele>375.0</ele><time>2026-05-03T10:17:50.129Z</time></trkpt><trkpt lat="46.057798" lon="13.5759226"><ele>385.5</ele><time>2026-05-03T10:17:51.129Z</time></trkpt><trkpt lat="46.0578912" lon="13.5759102"><ele>396.0</ele><time>2026-05-03T10:17:52.128Z</time></trkpt><trkpt lat="46.0579652" lon="13.5758703"><ele>406.5</ele><time>2026-05-03T10:17:53.129Z</time></trkpt><trkpt lat="46.0580284" lon="13.5758376"><ele>417.0</ele><time>2026-05-03T10:17:54.128Z</time></trkpt><trkpt lat="46.0580603" lon="13.5757376"><ele>427.5</ele><time>2026-05-03T10:17:56.128Z</time></trkpt><trkpt lat="46.058041" lon="13.5756044"><ele>438.0</ele><time>2026-05-03T10:17:58.128Z</time></trkpt><trkpt lat="46.05801" lon="13.5755112"><ele>438.0</ele><time>2026-05-03T10:17:59.129Z</time></trkpt><trkpt lat="46.0579732" lon="13.5753926"><ele>437.99999999999994</ele><time>2026-05-03T10:18:00.128Z</time></trkpt><trkpt lat="46.0579496" lon="13.5752627"><ele>437.99999999999994</ele><time>2026-05-03T10:18:01.129Z</time></trkpt><trkpt lat="46.057926" lon="13.5751309"><ele>438.0</ele><time>2026-05-03T10:18:02.129Z</time></trkpt><trkpt lat="46.0579061" lon="13.5749929"><ele>438.0</ele><time>2026-05-03T10:18:03.129Z</time></trkpt><trkpt lat="46.057883" lon="13.5748574"><ele>436.0</ele><time>2026-05-03T10:18:04.129Z</time></trkpt><trkpt lat="46.057863" lon="13.5747437"><ele>433.99999999999994</ele><time>2026-05-03T10:18:05.128Z</time></trkpt><trkpt lat="46.0578479" lon="13.5746328"><ele>431.99999999999994</ele><time>2026-05-03T10:18:06.129Z</time></trkpt><trkpt lat="46.057852" lon="13.5745095"><ele>430.0</ele><time>2026-05-03T10:18:07.129Z</time></trkpt><trkpt lat="46.0578821" lon="13.5743665"><ele>428.0</ele><time>2026-05-03T10:18:08.129Z</time></trkpt><trkpt lat="46.0579133" lon="13.5742193"><ele>427.8333333333333</ele><time>2026-05-03T10:18:09.129Z</time></trkpt><trkpt lat="46.057932" lon="13.5740784"><ele>427.66666666666663</ele><time>2026-05-03T10:18:10.129Z</time></trkpt><trkpt lat="46.0579585" lon="13.573965"><ele>427.5</ele><time>2026-05-03T10:18:11.128Z</time></trkpt><trkpt lat="46.0579906" lon="13.5738604"><ele>427.33333333333337</ele><time>2026-05-03T10:18:12.129Z</time></trkpt><trkpt lat="46.0580389" lon="13.5737535"><ele>427.1666666666667</ele><time>2026-05-03T10:18:13.128Z</time></trkpt><trkpt lat="46.0580952" lon="13.5736406"><ele>427.0</ele><time>2026-05-03T10:18:14.129Z</time></trkpt><trkpt lat="46.0581532" lon="13.5735276"><ele>429.0</ele><time>2026-05-03T10:18:15.129Z</time></trkpt><trkpt lat="46.0581969" lon="13.5734253"><ele>431.00000000000006</ele><time>2026-05-03T10:18:16.128Z</time></trkpt><trkpt lat="46.0582374" lon="13.5733125"><ele>433.00000000000006</ele><time>2026-05-03T10:18:17.128Z</time></trkpt><trkpt lat="46.0582795" lon="13.5731965"><ele>435.0</ele><time>2026-05-03T10:18:18.129Z</time></trkpt><trkpt lat="46.0583278" lon="13.5730817"><ele>437.0</ele><time>2026-05-03T10:18:19.128Z</time></trkpt><trkpt lat="46.0583765" lon="13.5729626"><ele>441.16666666666663</ele><time>2026-05-03T10:18:20.128Z</time></trkpt><trkpt lat="46.0584034" lon="13.5728446"><ele>445.3333333333333</ele><time>2026-05-03T10:18:21.128Z</time></trkpt><trkpt lat="46.0584255" lon="13.572719"><ele>449.5</ele><time>2026-05-03T10:18:22.129Z</time></trkpt><trkpt lat="46.0584347" lon="13.5725993"><ele>453.66666666666663</ele><time>2026-05-03T10:18:23.129Z</time></trkpt><trkpt lat="46.0584406" lon="13.5724794"><ele>457.8333333333333</ele><time>2026-05-03T10:18:24.129Z</time></trkpt><trkpt lat="46.0584563" lon="13.5723656"><ele>462.0</ele><time>2026-05-03T10:18:25.128Z</time></trkpt><trkpt lat="46.0584795" lon="13.5722672"><ele>462.0</ele><time>2026-05-03T10:18:26.128Z</time></trkpt><trkpt lat="46.0585193" lon="13.5721241"><ele>462.00000000000006</ele><time>2026-05-03T10:18:28.127Z</time></trkpt><trkpt lat="46.0585764" lon="13.5720538"><ele>462.00000000000006</ele><time>2026-05-03T10:18:30.127Z</time></trkpt><trkpt lat="46.0586364" lon="13.5721071"><ele>462.0</ele><time>2026-05-03T10:18:32.128Z</time></trkpt><trkpt lat="46.0586445" lon="13.5722391"><ele>462.0</ele><time>2026-05-03T10:18:34.128Z</time></trkpt><trkpt lat="46.0586111" lon="13.5723894"><ele>462.0</ele><time>2026-05-03T10:18:36.128Z</time></trkpt><trkpt lat="46.0585863" lon="13.5724822"><ele>462.0</ele><time>2026-05-03T10:18:37.128Z</time></trkpt><trkpt lat="46.0585721" lon="13.572584"><ele>462.0</ele><time>2026-05-03T10:18:38.127Z</time></trkpt><trkpt lat="46.0585757" lon="13.5726928"><ele>462.0</ele><time>2026-05-03T10:18:39.127Z</time></trkpt><trkpt lat="46.0585836" lon="13.5728177"><ele>462.0</ele><time>2026-05-03T10:18:40.127Z</time></trkpt><trkpt lat="46.0585809" lon="13.5729283"><ele>462.0</ele><time>2026-05-03T10:18:41.128Z</time></trkpt><trkpt lat="46.0585657" lon="13.5730515"><ele>463.5</ele><time>2026-05-03T10:18:42.128Z</time></trkpt><trkpt lat="46.058541" lon="13.573174"><ele>465.0</ele><time>2026-05-03T10:18:43.128Z</time></trkpt><trkpt lat="46.058522" lon="13.5732875"><ele>466.5</ele><time>2026-05-03T10:18:44.127Z</time></trkpt><trkpt lat="46.0585013" lon="13.573395"><ele>468.0</ele><time>2026-05-03T10:18:45.128Z</time></trkpt><trkpt lat="46.0584961" lon="13.5734959"><ele>469.5</ele><time>2026-05-03T10:18:46.128Z</time></trkpt><trkpt lat="46.0585039" lon="13.5735914"><ele>471.0</ele><time>2026-05-03T10:18:47.127Z</time></trkpt><trkpt lat="46.0585283" lon="13.5737042"><ele>471.0</ele><time>2026-05-03T10:18:48.128Z</time></trkpt><trkpt lat="46.0585587" lon="13.5738312"><ele>471.0</ele><time>2026-05-03T10:18:49.127Z</time></trkpt><trkpt lat="46.0585851" lon="13.5739536"><ele>471.0</ele><time>2026-05-03T10:18:50.128Z</time></trkpt><trkpt lat="46.0586044" lon="13.574078"><ele>471.0</ele><time>2026-05-03T10:18:51.128Z</time></trkpt><trkpt lat="46.0586144" lon="13.5741935"><ele>471.0</ele><time>2026-05-03T10:18:52.128Z</time></trkpt><trkpt lat="46.0586333" lon="13.5742925"><ele>471.0</ele><time>2026-05-03T10:18:53.128Z</time></trkpt><trkpt lat="46.0586674" lon="13.5744232"><ele>471.0</ele><time>2026-05-03T10:18:55.128Z</time></trkpt><trkpt lat="46.0587614" lon="13.5743931"><ele>471.0</ele><time>2026-05-03T10:18:57.128Z</time></trkpt><trkpt lat="46.0588576" lon="13.5743266"><ele>471.0</ele><time>2026-05-03T10:18:59.128Z</time></trkpt><trkpt lat="46.0589072" lon="13.5741795"><ele>471.0</ele><time>2026-05-03T10:19:01.128Z</time></trkpt><trkpt lat="46.0589074" lon="13.5740789"><ele>471.0</ele><time>2026-05-03T10:19:02.127Z</time></trkpt><trkpt lat="46.0588901" lon="13.5739727"><ele>471.0</ele><time>2026-05-03T10:19:03.128Z</time></trkpt><trkpt lat="46.0588756" lon="13.573864"><ele>471.0</ele><time>2026-05-03T10:19:04.128Z</time></trkpt><trkpt lat="46.0588727" lon="13.5737704"><ele>471.0</ele><time>2026-05-03T10:19:05.128Z</time></trkpt><trkpt lat="46.0588943" lon="13.5736791"><ele>471.0</ele><time>2026-05-03T10:19:06.128Z</time></trkpt><trkpt lat="46.0589114" lon="13.573591"><ele>471.0</ele><time>2026-05-03T10:19:07.128Z</time></trkpt><trkpt lat="46.0589095" lon="13.5734445"><ele>471.0</ele><time>2026-05-03T10:19:09.128Z</time></trkpt><trkpt lat="46.0588945" lon="13.5733284"><ele>471.0</ele><time>2026-05-03T10:19:41.128Z</time></trkpt><trkpt lat="46.0589049" lon="13.5731822"><ele>471.0</ele><time>2026-05-03T10:19:43.127Z</time></trkpt><trkpt lat="46.0589514" lon="13.5730063"><ele>471.0</ele><time>2026-05-03T10:19:45.128Z</time></trkpt><trkpt lat="46.0589846" lon="13.572902"><ele>471.0</ele><time>2026-05-03T10:19:46.128Z</time></trkpt><trkpt lat="46.0590128" lon="13.5727917"><ele>471.0</ele><time>2026-05-03T10:19:47.128Z</time></trkpt><trkpt lat="46.0590454" lon="13.5726803"><ele>469.5</ele><time>2026-05-03T10:19:48.127Z</time></trkpt><trkpt lat="46.0590888" lon="13.5725902"><ele>468.0</ele><time>2026-05-03T10:19:49.128Z</time></trkpt><trkpt lat="46.059137" lon="13.5725149"><ele>466.5</ele><time>2026-05-03T10:19:50.127Z</time></trkpt><trkpt lat="46.0591885" lon="13.572429"><ele>465.0</ele><time>2026-05-03T10:19:51.127Z</time></trkpt><trkpt lat="46.0592277" lon="13.5723509"><ele>463.5</ele><time>2026-05-03T10:19:52.127Z</time></trkpt><trkpt lat="46.0592894" lon="13.5722577"><ele>462.0</ele><time>2026-05-03T10:19:54.128Z</time></trkpt><trkpt lat="46.0593753" lon="13.5722949"><ele>469.20000000000005</ele><time>2026-05-03T10:19:57.128Z</time></trkpt><trkpt lat="46.0593543" lon="13.572453"><ele>476.40000000000003</ele><time>2026-05-03T10:19:59.128Z</time></trkpt><trkpt lat="46.0592882" lon="13.5726039"><ele>483.59999999999997</ele><time>2026-05-03T10:20:01.128Z</time></trkpt><trkpt lat="46.0592537" lon="13.5726976"><ele>490.79999999999995</ele><time>2026-05-03T10:20:02.127Z</time></trkpt><trkpt lat="46.0592332" lon="13.5727923"><ele>498.0</ele><time>2026-05-03T10:20:03.128Z</time></trkpt><trkpt lat="46.0592467" lon="13.572957"><ele>498.59999999999997</ele><time>2026-05-03T10:20:05.127Z</time></trkpt><trkpt lat="46.059316" lon="13.573114"><ele>499.19999999999993</ele><time>2026-05-03T10:20:07.128Z</time></trkpt><trkpt lat="46.0593918" lon="13.5731888"><ele>499.8</ele><time>2026-05-03T10:20:08.128Z</time></trkpt><trkpt lat="46.0594585" lon="13.5732679"><ele>500.4</ele><time>2026-05-03T10:20:09.128Z</time></trkpt><trkpt lat="46.0595194" lon="13.5733377"><ele>501.0</ele><time>2026-05-03T10:20:10.128Z</time></trkpt><trkpt lat="46.0595735" lon="13.5734119"><ele>501.0</ele><time>2026-05-03T10:20:11.128Z</time></trkpt><trkpt lat="46.0596198" lon="13.5735017"><ele>501.0</ele><time>2026-05-03T10:20:12.128Z</time></trkpt><trkpt lat="46.0596542" lon="13.5735934"><ele>501.0</ele><time>2026-05-03T10:20:13.128Z</time></trkpt><trkpt lat="46.0596592" lon="13.5737033"><ele>501.0</ele><time>2026-05-03T10:20:14.128Z</time></trkpt><trkpt lat="46.059647" lon="13.5738292"><ele>501.0</ele><time>2026-05-03T10:20:15.128Z</time></trkpt><trkpt lat="46.0596496" lon="13.5739681"><ele>501.0</ele><time>2026-05-03T10:20:16.128Z</time></trkpt><trkpt lat="46.0596422" lon="13.5740888"><ele>501.0</ele><time>2026-05-03T10:20:17.128Z</time></trkpt><trkpt lat="46.0596262" lon="13.5742139"><ele>501.0</ele><time>2026-05-03T10:20:18.128Z</time></trkpt><trkpt lat="46.0596067" lon="13.5743297"><ele>501.0</ele><time>2026-05-03T10:20:19.128Z</time></trkpt><trkpt lat="46.0595837" lon="13.5744339"><ele>501.0</ele><time>2026-05-03T10:20:20.128Z</time></trkpt><trkpt lat="46.0595524" lon="13.5745238"><ele>501.0</ele><time>2026-05-03T10:20:21.128Z</time></trkpt><trkpt lat="46.0595168" lon="13.574684"><ele>501.0</ele><time>2026-05-03T10:20:23.128Z</time></trkpt><trkpt lat="46.059547" lon="13.5747892"><ele>501.0</ele><time>2026-05-03T10:20:25.127Z</time></trkpt><trkpt lat="46.0596324" lon="13.5747742"><ele>501.0</ele><time>2026-05-03T10:20:27.128Z</time></trkpt><trkpt lat="46.0596642" lon="13.5746929"><ele>501.0</ele><time>2026-05-03T10:20:29.128Z</time></trkpt><trkpt lat="46.0596774" lon="13.574554"><ele>501.0</ele><time>2026-05-03T10:20:31.128Z</time></trkpt><trkpt lat="46.0597026" lon="13.5744571"><ele>501.0</ele><time>2026-05-03T10:20:32.128Z</time></trkpt><trkpt lat="46.0597253" lon="13.5743619"><ele>501.0</ele><time>2026-05-03T10:20:33.128Z</time></trkpt><trkpt lat="46.059752" lon="13.5742553"><ele>500.6666666666667</ele><time>2026-05-03T10:20:34.128Z</time></trkpt><trkpt lat="46.0597855" lon="13.5741552"><ele>500.33333333333337</ele><time>2026-05-03T10:20:35.128Z</time></trkpt><trkpt lat="46.0598297" lon="13.5740593"><ele>500.0</ele><time>2026-05-03T10:20:36.128Z</time></trkpt><trkpt lat="46.0598808" lon="13.5739615"><ele>499.6666666666667</ele><time>2026-05-03T10:20:37.128Z</time></trkpt><trkpt lat="46.0599313" lon="13.5738613"><ele>499.33333333333337</ele><time>2026-05-03T10:20:38.128Z</time></trkpt><trkpt lat="46.0599769" lon="13.5737578"><ele>499.0</ele><time>2026-05-03T10:20:39.128Z</time></trkpt><trkpt lat="46.0600283" lon="13.5736555"><ele>503.50000000000006</ele><time>2026-05-03T10:20:40.128Z</time></trkpt><trkpt lat="46.0600762" lon="13.5735776"><ele>508.0</ele><time>2026-05-03T10:20:41.128Z</time></trkpt><trkpt lat="46.0601313" lon="13.5735114"><ele>512.5</ele><time>2026-05-03T10:20:42.128Z</time></trkpt><trkpt lat="46.0602034" lon="13.5734665"><ele>517.0</ele><time>2026-05-03T10:20:43.128Z</time></trkpt><trkpt lat="46.0602806" lon="13.5734294"><ele>521.5</ele><time>2026-05-03T10:20:44.128Z</time></trkpt><trkpt lat="46.0603602" lon="13.5733911"><ele>526.0</ele><time>2026-05-03T10:20:45.128Z</time></trkpt><trkpt lat="46.0604354" lon="13.5733601"><ele>526.0</ele><time>2026-05-03T10:20:46.128Z</time></trkpt><trkpt lat="46.0605086" lon="13.573321"><ele>526.0</ele><time>2026-05-03T10:20:47.128Z</time></trkpt><trkpt lat="46.0605833" lon="13.5732608"><ele>526.0</ele><time>2026-05-03T10:20:48.128Z</time></trkpt><trkpt lat="46.0606319" lon="13.5731617"><ele>526.0</ele><time>2026-05-03T10:20:49.128Z</time></trkpt><trkpt lat="46.0606734" lon="13.5730592"><ele>526.0</ele><time>2026-05-03T10:20:50.128Z</time></trkpt><trkpt lat="46.0607113" lon="13.5729678"><ele>526.0</ele><time>2026-05-03T10:20:51.128Z</time></trkpt><trkpt lat="46.060745" lon="13.5728857"><ele>528.1666666666667</ele><time>2026-05-03T10:20:52.127Z</time></trkpt><trkpt lat="46.0607959" lon="13.5728274"><ele>530.3333333333334</ele><time>2026-05-03T10:20:53.128Z</time></trkpt><trkpt lat="46.0608685" lon="13.57279"><ele>532.5</ele><time>2026-05-03T10:20:54.128Z</time></trkpt><trkpt lat="46.0609469" lon="13.5727758"><ele>534.6666666666666</ele><time>2026-05-03T10:20:55.127Z</time></trkpt><trkpt lat="46.0610303" lon="13.5727509"><ele>536.8333333333333</ele><time>2026-05-03T10:20:56.128Z</time></trkpt><trkpt lat="46.0611144" lon="13.5727314"><ele>539.0</ele><time>2026-05-03T10:20:57.128Z</time></trkpt><trkpt lat="46.0611902" lon="13.5726933"><ele>539.0</ele><time>2026-05-03T10:20:58.127Z</time></trkpt><trkpt lat="46.0612691" lon="13.5726306"><ele>539.0</ele><time>2026-05-03T10:20:59.128Z</time></trkpt><trkpt lat="46.061343" lon="13.5725549"><ele>539.0</ele><time>2026-05-03T10:21:00.127Z</time></trkpt><trkpt lat="46.0614093" lon="13.5724738"><ele>539.0</ele><time>2026-05-03T10:21:01.128Z</time></trkpt><trkpt lat="46.0614699" lon="13.5723862"><ele>539.0</ele><time>2026-05-03T10:21:02.128Z</time></trkpt><trkpt lat="46.0615198" lon="13.5722928"><ele>539.0</ele><time>2026-05-03T10:21:03.128Z</time></trkpt><trkpt lat="46.0615571" lon="13.5721862"><ele>539.0</ele><time>2026-05-03T10:21:04.128Z</time></trkpt><trkpt lat="46.0615897" lon="13.5720856"><ele>539.0</ele><time>2026-05-03T10:21:05.127Z</time></trkpt><trkpt lat="46.0616034" lon="13.5719754"><ele>539.0</ele><time>2026-05-03T10:21:06.128Z</time></trkpt><trkpt lat="46.0615927" lon="13.5718637"><ele>539.0</ele><time>2026-05-03T10:21:07.128Z</time></trkpt><trkpt lat="46.061575" lon="13.571748"><ele>539.0</ele><time>2026-05-03T10:21:08.128Z</time></trkpt><trkpt lat="46.0615614" lon="13.5716404"><ele>539.0</ele><time>2026-05-03T10:21:09.127Z</time></trkpt><trkpt lat="46.0615652" lon="13.5715185"><ele>538.8333333333333</ele><time>2026-05-03T10:21:10.128Z</time></trkpt><trkpt lat="46.0615939" lon="13.5714105"><ele>538.6666666666666</ele><time>2026-05-03T10:21:11.128Z</time></trkpt><trkpt lat="46.0616477" lon="13.5713245"><ele>538.5</ele><time>2026-05-03T10:21:12.127Z</time></trkpt><trkpt lat="46.0617062" lon="13.571244"><ele>538.3333333333334</ele><time>2026-05-03T10:21:13.128Z</time></trkpt><trkpt lat="46.0617861" lon="13.5711725"><ele>538.1666666666667</ele><time>2026-05-03T10:21:15.128Z</time></trkpt><trkpt lat="46.0618194" lon="13.5712746"><ele>538.0</ele><time>2026-05-03T10:21:18.128Z</time></trkpt><trkpt lat="46.061745" lon="13.5713605"><ele>541.4</ele><time>2026-05-03T10:21:20.128Z</time></trkpt><trkpt lat="46.0617149" lon="13.5715135"><ele>544.8</ele><time>2026-05-03T10:21:22.127Z</time></trkpt><trkpt lat="46.061736" lon="13.571677"><ele>548.2</ele><time>2026-05-03T10:21:24.128Z</time></trkpt><trkpt lat="46.0617713" lon="13.5717674"><ele>551.6</ele><time>2026-05-03T10:21:25.128Z</time></trkpt><trkpt lat="46.0617876" lon="13.571864"><ele>555.0</ele><time>2026-05-03T10:21:26.128Z</time></trkpt><trkpt lat="46.0617986" lon="13.571997"><ele>555.0</ele><time>2026-05-03T10:21:28.127Z</time></trkpt><trkpt lat="46.0618907" lon="13.5719845"><ele>555.0</ele><time>2026-05-03T10:21:31.127Z</time></trkpt><trkpt lat="46.0619149" lon="13.5718329"><ele>555.0</ele><time>2026-05-03T10:21:33.128Z</time></trkpt><trkpt lat="46.0619211" lon="13.5717324"><ele>555.0</ele><time>2026-05-03T10:21:34.128Z</time></trkpt><trkpt lat="46.0619248" lon="13.5716133"><ele>555.0</ele><time>2026-05-03T10:21:35.128Z</time></trkpt><trkpt lat="46.0619277" lon="13.5715022"><ele>555.0</ele><time>2026-05-03T10:21:36.128Z</time></trkpt><trkpt lat="46.0619733" lon="13.5713527"><ele>555.0</ele><time>2026-05-03T10:21:38.127Z</time></trkpt><trkpt lat="46.0620304" lon="13.5712931"><ele>555.0</ele><time>2026-05-03T10:21:39.128Z</time></trkpt><trkpt lat="46.0620933" lon="13.5712393"><ele>555.0</ele><time>2026-05-03T10:21:40.127Z</time></trkpt><trkpt lat="46.0621598" lon="13.5711893"><ele>555.0</ele><time>2026-05-03T10:21:41.128Z</time></trkpt><trkpt lat="46.0622344" lon="13.5711476"><ele>555.0</ele><time>2026-05-03T10:21:42.128Z</time></trkpt><trkpt lat="46.0623168" lon="13.5711212"><ele>555.0</ele><time>2026-05-03T10:21:43.128Z</time></trkpt><trkpt lat="46.0624028" lon="13.5711098"><ele>555.8333333333334</ele><time>2026-05-03T10:21:44.128Z</time></trkpt><trkpt lat="46.0624725" lon="13.5710861"><ele>556.6666666666666</ele><time>2026-05-03T10:21:45.128Z</time></trkpt><trkpt lat="46.0625547" lon="13.5710392"><ele>557.5</ele><time>2026-05-03T10:21:47.128Z</time></trkpt><trkpt lat="46.0624908" lon="13.5709371"><ele>558.3333333333333</ele><time>2026-05-03T10:21:50.127Z</time></trkpt><trkpt lat="46.0624083" lon="13.5708682"><ele>559.1666666666666</ele><time>2026-05-03T10:21:51.128Z</time></trkpt><trkpt lat="46.0623349" lon="13.5708026"><ele>560.0</ele><time>2026-05-03T10:21:52.128Z</time></trkpt><trkpt lat="46.0622681" lon="13.5707272"><ele>560.0</ele><time>2026-05-03T10:21:53.128Z</time></trkpt><trkpt lat="46.0622009" lon="13.5706454"><ele>560.0</ele><time>2026-05-03T10:21:54.128Z</time></trkpt><trkpt lat="46.0621462" lon="13.5705531"><ele>560.0</ele><time>2026-05-03T10:21:55.128Z</time></trkpt><trkpt lat="46.0620963" lon="13.5704488"><ele>560.0</ele><time>2026-05-03T10:21:56.127Z</time></trkpt><trkpt lat="46.0620493" lon="13.5703371"><ele>560.0</ele><time>2026-05-03T10:21:57.128Z</time></trkpt><trkpt lat="46.0620214" lon="13.5702373"><ele>560.0</ele><time>2026-05-03T10:21:58.128Z</time></trkpt><trkpt lat="46.0620115" lon="13.5701464"><ele>561.0</ele><time>2026-05-03T10:21:59.127Z</time></trkpt><trkpt lat="46.0620164" lon="13.5700451"><ele>562.0</ele><time>2026-05-03T10:22:00.128Z</time></trkpt><trkpt lat="46.062049" lon="13.5699456"><ele>563.0</ele><time>2026-05-03T10:22:01.127Z</time></trkpt><trkpt lat="46.0620901" lon="13.5698627"><ele>564.0</ele><time>2026-05-03T10:22:02.128Z</time></trkpt><trkpt lat="46.0621423" lon="13.5697737"><ele>565.0</ele><time>2026-05-03T10:22:03.127Z</time></trkpt><trkpt lat="46.0622" lon="13.5696819"><ele>566.0</ele><time>2026-05-03T10:22:04.128Z</time></trkpt><trkpt lat="46.0622461" lon="13.5695876"><ele>564.5</ele><time>2026-05-03T10:22:05.128Z</time></trkpt><trkpt lat="46.0622802" lon="13.5694858"><ele>563.0</ele><time>2026-05-03T10:22:06.127Z</time></trkpt><trkpt lat="46.0623084" lon="13.5693762"><ele>561.5</ele><time>2026-05-03T10:22:07.128Z</time></trkpt><trkpt lat="46.062331" lon="13.5692607"><ele>560.0</ele><time>2026-05-03T10:22:08.128Z</time></trkpt><trkpt lat="46.0623536" lon="13.5691388"><ele>558.5</ele><time>2026-05-03T10:22:09.128Z</time></trkpt><trkpt lat="46.0623757" lon="13.5690155"><ele>557.0</ele><time>2026-05-03T10:22:10.128Z</time></trkpt><trkpt lat="46.0624004" lon="13.5689014"><ele>557.0</ele><time>2026-05-03T10:22:11.127Z</time></trkpt><trkpt lat="46.0624288" lon="13.5687912"><ele>557.0</ele><time>2026-05-03T10:22:12.128Z</time></trkpt><trkpt lat="46.0624709" lon="13.5686936"><ele>557.0</ele><time>2026-05-03T10:22:13.127Z</time></trkpt><trkpt lat="46.0625335" lon="13.5686042"><ele>557.0</ele><time>2026-05-03T10:22:14.127Z</time></trkpt><trkpt lat="46.0626094" lon="13.5684949"><ele>557.0</ele><time>2026-05-03T10:22:15.128Z</time></trkpt><trkpt lat="46.0626824" lon="13.56839"><ele>563.3333333333333</ele><time>2026-05-03T10:22:16.128Z</time></trkpt><trkpt lat="46.062742" lon="13.5682906"><ele>569.6666666666666</ele><time>2026-05-03T10:22:17.128Z</time></trkpt><trkpt lat="46.0627783" lon="13.568187"><ele>576.0</ele><time>2026-05-03T10:22:18.128Z</time></trkpt><trkpt lat="46.0627972" lon="13.5680955"><ele>582.3333333333334</ele><time>2026-05-03T10:22:19.128Z</time></trkpt><trkpt lat="46.0628348" lon="13.5679779"><ele>588.6666666666667</ele><time>2026-05-03T10:22:21.128Z</time></trkpt><trkpt lat="46.0628895" lon="13.5679165"><ele>595.0</ele><time>2026-05-03T10:22:23.127Z</time></trkpt><trkpt lat="46.0629162" lon="13.5680416"><ele>595.0</ele><time>2026-05-03T10:22:26.126Z</time></trkpt><trkpt lat="46.0628671" lon="13.5682255"><ele>595.0</ele><time>2026-05-03T10:22:28.127Z</time></trkpt><trkpt lat="46.0628381" lon="13.5683436"><ele>595.0</ele><time>2026-05-03T10:22:29.127Z</time></trkpt><trkpt lat="46.062802" lon="13.5684565"><ele>595.0</ele><time>2026-05-03T10:22:30.126Z</time></trkpt><trkpt lat="46.0627498" lon="13.5685563"><ele>595.0</ele><time>2026-05-03T10:22:31.126Z</time></trkpt><trkpt lat="46.0626876" lon="13.5686496"><ele>595.3333333333334</ele><time>2026-05-03T10:22:32.127Z</time></trkpt><trkpt lat="46.0626427" lon="13.5687324"><ele>595.6666666666667</ele><time>2026-05-03T10:22:33.127Z</time></trkpt><trkpt lat="46.0626099" lon="13.5688291"><ele>596.0</ele><time>2026-05-03T10:22:34.126Z</time></trkpt><trkpt lat="46.0626045" lon="13.568925"><ele>596.3333333333334</ele><time>2026-05-03T10:22:35.126Z</time></trkpt><trkpt lat="46.0626026" lon="13.5690273"><ele>596.6666666666666</ele><time>2026-05-03T10:22:36.126Z</time></trkpt><trkpt lat="46.0625987" lon="13.5691421"><ele>597.0</ele><time>2026-05-03T10:22:37.127Z</time></trkpt><trkpt lat="46.0625845" lon="13.5692789"><ele>597.0</ele><time>2026-05-03T10:22:38.127Z</time></trkpt><trkpt lat="46.0625651" lon="13.5694099"><ele>597.0</ele><time>2026-05-03T10:22:39.127Z</time></trkpt><trkpt lat="46.0625494" lon="13.5695353"><ele>597.0</ele><time>2026-05-03T10:22:40.127Z</time></trkpt><trkpt lat="46.062534" lon="13.5696523"><ele>597.0</ele><time>2026-05-03T10:22:41.127Z</time></trkpt><trkpt lat="46.0625375" lon="13.5697572"><ele>597.0</ele><time>2026-05-03T10:22:42.127Z</time></trkpt><trkpt lat="46.0625669" lon="13.5698419"><ele>597.0</ele><time>2026-05-03T10:22:43.127Z</time></trkpt><trkpt lat="46.0626827" lon="13.5699571"><ele>596.6</ele><time>2026-05-03T10:22:45.127Z</time></trkpt><trkpt lat="46.0627687" lon="13.5700209"><ele>596.2</ele><time>2026-05-03T10:22:46.127Z</time></trkpt><trkpt lat="46.0628531" lon="13.5700812"><ele>595.8</ele><time>2026-05-03T10:22:47.127Z</time></trkpt><trkpt lat="46.0629405" lon="13.5701344"><ele>595.4</ele><time>2026-05-03T10:22:48.126Z</time></trkpt><trkpt lat="46.063026" lon="13.5701811"><ele>595.0</ele><time>2026-05-03T10:22:49.126Z</time></trkpt><trkpt lat="46.0631042" lon="13.5702241"><ele>595.0</ele><time>2026-05-03T10:22:50.126Z</time></trkpt><trkpt lat="46.0631855" lon="13.5702649"><ele>595.0</ele><time>2026-05-03T10:22:51.127Z</time></trkpt><trkpt lat="46.0632691" lon="13.5702986"><ele>595.0</ele><time>2026-05-03T10:22:52.127Z</time></trkpt><trkpt lat="46.0633572" lon="13.5703343"><ele>595.0</ele><time>2026-05-03T10:22:53.127Z</time></trkpt><trkpt lat="46.0634488" lon="13.5703768"><ele>595.0</ele><time>2026-05-03T10:22:54.127Z</time></trkpt><trkpt lat="46.0635418" lon="13.5704224"><ele>596.1666666666667</ele><time>2026-05-03T10:22:55.127Z</time></trkpt><trkpt lat="46.0636337" lon="13.5704761"><ele>597.3333333333334</ele><time>2026-05-03T10:22:56.127Z</time></trkpt><trkpt lat="46.0637204" lon="13.5705177"><ele>598.5</ele><time>2026-05-03T10:22:57.126Z</time></trkpt><trkpt lat="46.0638062" lon="13.5705498"><ele>599.6666666666666</ele><time>2026-05-03T10:22:58.127Z</time></trkpt><trkpt lat="46.0638882" lon="13.570577"><ele>600.8333333333333</ele><time>2026-05-03T10:22:59.127Z</time></trkpt><trkpt lat="46.0639534" lon="13.5705847"><ele>602.0</ele><time>2026-05-03T10:23:00.127Z</time></trkpt><trkpt lat="46.0640312" lon="13.570612"><ele>602.0</ele><time>2026-05-03T10:23:02.126Z</time></trkpt><trkpt lat="46.0640526" lon="13.5707743"><ele>602.0</ele><time>2026-05-03T10:23:04.127Z</time></trkpt><trkpt lat="46.063985" lon="13.5709388"><ele>602.0</ele><time>2026-05-03T10:23:06.126Z</time></trkpt><trkpt lat="46.0639302" lon="13.5710233"><ele>602.0</ele><time>2026-05-03T10:23:07.127Z</time></trkpt><trkpt lat="46.0638744" lon="13.5711004"><ele>602.0</ele><time>2026-05-03T10:23:08.127Z</time></trkpt><trkpt lat="46.0638259" lon="13.5711733"><ele>603.8000000000001</ele><time>2026-05-03T10:23:09.127Z</time></trkpt><trkpt lat="46.0637775" lon="13.5712785"><ele>605.6</ele><time>2026-05-03T10:23:10.127Z</time></trkpt><trkpt lat="46.0637431" lon="13.5714004"><ele>607.4000000000001</ele><time>2026-05-03T10:23:11.127Z</time></trkpt><trkpt lat="46.0636892" lon="13.5715249"><ele>609.2</ele><time>2026-05-03T10:23:12.126Z</time></trkpt><trkpt lat="46.0636304" lon="13.5716595"><ele>611.0</ele><time>2026-05-03T10:23:13.126Z</time></trkpt><trkpt lat="46.0635709" lon="13.5717815"><ele>611.0</ele><time>2026-05-03T10:23:14.127Z</time></trkpt><trkpt lat="46.063519" lon="13.5719017"><ele>611.0</ele><time>2026-05-03T10:23:15.126Z</time></trkpt><trkpt lat="46.0634676" lon="13.572005"><ele>611.0</ele><time>2026-05-03T10:23:16.126Z</time></trkpt><trkpt lat="46.0634191" lon="13.5721003"><ele>611.0</ele><time>2026-05-03T10:23:17.126Z</time></trkpt><trkpt lat="46.0633776" lon="13.5722557"><ele>611.0</ele><time>2026-05-03T10:23:19.127Z</time></trkpt><trkpt lat="46.0634024" lon="13.5723986"><ele>612.3333333333333</ele><time>2026-05-03T10:23:21.127Z</time></trkpt><trkpt lat="46.0634406" lon="13.5724921"><ele>613.6666666666666</ele><time>2026-05-03T10:23:22.127Z</time></trkpt><trkpt lat="46.0635079" lon="13.5725879"><ele>615.0</ele><time>2026-05-03T10:23:24.126Z</time></trkpt><trkpt lat="46.063569" lon="13.5725578"><ele>616.3333333333334</ele><time>2026-05-03T10:23:26.127Z</time></trkpt><trkpt lat="46.0635665" lon="13.5724385"><ele>617.6666666666667</ele><time>2026-05-03T10:23:28.127Z</time></trkpt><trkpt lat="46.0635556" lon="13.5723425"><ele>619.0</ele><time>2026-05-03T10:23:29.127Z</time></trkpt><trkpt lat="46.06357" lon="13.5722049"><ele>619.0</ele><time>2026-05-03T10:23:31.126Z</time></trkpt><trkpt lat="46.0636492" lon="13.5722411"><ele>619.0</ele><time>2026-05-03T10:23:34.126Z</time></trkpt><trkpt lat="46.0636671" lon="13.5723609"><ele>619.0</ele><time>2026-05-03T10:23:36.127Z</time></trkpt><trkpt lat="46.0636998" lon="13.5724665"><ele>619.0</ele><time>2026-05-03T10:23:38.127Z</time></trkpt><trkpt lat="46.0637599" lon="13.5724386"><ele>619.0</ele><time>2026-05-03T10:23:40.127Z</time></trkpt><trkpt lat="46.063768" lon="13.572329"><ele>619.0</ele><time>2026-05-03T10:23:42.127Z</time></trkpt><trkpt lat="46.0637866" lon="13.5721571"><ele>617.4</ele><time>2026-05-03T10:23:44.127Z</time></trkpt><trkpt lat="46.0638695" lon="13.5720129"><ele>615.8</ele><time>2026-05-03T10:23:46.127Z</time></trkpt><trkpt lat="46.0639287" lon="13.5719379"><ele>614.2</ele><time>2026-05-03T10:23:47.126Z</time></trkpt><trkpt lat="46.0639906" lon="13.5718617"><ele>612.6</ele><time>2026-05-03T10:23:48.126Z</time></trkpt><trkpt lat="46.0640583" lon="13.5717908"><ele>611.0</ele><time>2026-05-03T10:23:49.127Z</time></trkpt><trkpt lat="46.0641251" lon="13.5717148"><ele>615.8333333333333</ele><time>2026-05-03T10:23:50.127Z</time></trkpt><trkpt lat="46.0641875" lon="13.5716367"><ele>620.6666666666666</ele><time>2026-05-03T10:23:51.126Z</time></trkpt><trkpt lat="46.0642423" lon="13.5715561"><ele>625.5</ele><time>2026-05-03T10:23:52.127Z</time></trkpt><trkpt lat="46.0642925" lon="13.571483"><ele>630.3333333333334</ele><time>2026-05-03T10:23:53.126Z</time></trkpt><trkpt lat="46.0643417" lon="13.5714224"><ele>635.1666666666667</ele><time>2026-05-03T10:23:54.126Z</time></trkpt><trkpt lat="46.0644679" lon="13.5713668"><ele>640.0</ele><time>2026-05-03T10:23:56.126Z</time></trkpt><trkpt lat="46.0645478" lon="13.5713422"><ele>640.0</ele><time>2026-05-03T10:23:57.127Z</time></trkpt><trkpt lat="46.0646092" lon="13.5712961"><ele>640.0</ele><time>2026-05-03T10:23:58.126Z</time></trkpt><trkpt lat="46.0646626" lon="13.5712269"><ele>640.0</ele><time>2026-05-03T10:23:59.127Z</time></trkpt><trkpt lat="46.0647354" lon="13.571119"><ele>640.0</ele><time>2026-05-03T10:24:01.127Z</time></trkpt><trkpt lat="46.0647961" lon="13.5711929"><ele>640.0</ele><time>2026-05-03T10:24:04.127Z</time></trkpt><trkpt lat="46.064766" lon="13.5712849"><ele>640.0</ele><time>2026-05-03T10:24:05.126Z</time></trkpt><trkpt lat="46.0647176" lon="13.5713657"><ele>640.0</ele><time>2026-05-03T10:24:06.127Z</time></trkpt><trkpt lat="46.0646181" lon="13.5714892"><ele>640.0</ele><time>2026-05-03T10:24:08.127Z</time></trkpt><trkpt lat="46.0645507" lon="13.5715219"><ele>640.0</ele><time>2026-05-03T10:24:09.127Z</time></trkpt><trkpt lat="46.0644867" lon="13.5715481"><ele>640.0</ele><time>2026-05-03T10:24:10.127Z</time></trkpt><trkpt lat="46.06443" lon="13.5715884"><ele>640.0</ele><time>2026-05-03T10:24:11.127Z</time></trkpt><trkpt lat="46.0643815" lon="13.5716513"><ele>640.0</ele><time>2026-05-03T10:24:12.126Z</time></trkpt><trkpt lat="46.0643527" lon="13.5717324"><ele>640.0</ele><time>2026-05-03T10:24:13.127Z</time></trkpt><trkpt lat="46.0643432" lon="13.5718271"><ele>640.0</ele><time>2026-05-03T10:24:14.127Z</time></trkpt><trkpt lat="46.0643438" lon="13.5719272"><ele>640.0</ele><time>2026-05-03T10:24:15.127Z</time></trkpt><trkpt lat="46.0643671" lon="13.5720612"><ele>640.0</ele><time>2026-05-03T10:24:17.126Z</time></trkpt><trkpt lat="46.0644536" lon="13.572059"><ele>640.0</ele><time>2026-05-03T10:24:19.126Z</time></trkpt><trkpt lat="46.0644681" lon="13.5718842"><ele>640.0</ele><time>2026-05-03T10:24:21.127Z</time></trkpt><trkpt lat="46.0645551" lon="13.5718464"><ele>640.0</ele><time>2026-05-03T10:24:23.127Z</time></trkpt><trkpt lat="46.0645965" lon="13.5719931"><ele>640.0</ele><time>2026-05-03T10:24:25.126Z</time></trkpt><trkpt lat="46.0646136" lon="13.5720838"><ele>640.0</ele><time>2026-05-03T10:24:26.126Z</time></trkpt><trkpt lat="46.0646379" lon="13.5721763"><ele>640.0</ele><time>2026-05-03T10:24:27.127Z</time></trkpt><trkpt lat="46.0646861" lon="13.5723107"><ele>640.0</ele><time>2026-05-03T10:24:29.127Z</time></trkpt><trkpt lat="46.0647104" lon="13.572412"><ele>640.0</ele><time>2026-05-03T10:24:32.126Z</time></trkpt><trkpt lat="46.0647429" lon="13.5725145"><ele>640.7142857142857</ele><time>2026-05-03T10:24:40.127Z</time></trkpt><trkpt lat="46.0647158" lon="13.5724295"><ele>641.4285714285714</ele><time>2026-05-03T10:26:50.126Z</time></trkpt><trkpt lat="46.0646852" lon="13.5723461"><ele>642.1428571428571</ele><time>2026-05-03T10:26:57.126Z</time></trkpt><trkpt lat="46.0647001" lon="13.5722557"><ele>642.8571428571429</ele><time>2026-05-03T10:27:25.478Z</time></trkpt><trkpt lat="46.0646762" lon="13.5723514"><ele>643.5714285714286</ele><time>2026-05-03T10:27:39.126Z</time></trkpt><trkpt lat="46.0646048" lon="13.5723213"><ele>644.2857142857143</ele><time>2026-05-03T10:28:06.126Z</time></trkpt><trkpt lat="46.0646662" lon="13.572375"><ele>645.0</ele><time>2026-05-03T10:28:57.126Z</time></trkpt><trkpt lat="46.0647038" lon="13.5722882"><ele>645.0</ele><time>2026-05-03T10:29:02.162Z</time></trkpt><trkpt lat="46.0646279" lon="13.5722819"><ele>645.0</ele><time>2026-05-03T10:42:10.123Z</time></trkpt><trkpt lat="46.0646762" lon="13.5723562"><ele>645.0</ele><time>2026-05-03T10:43:12.123Z</time></trkpt><trkpt lat="46.0647188" lon="13.5724258"><ele>645.0</ele><time>2026-05-03T10:43:19.144Z</time></trkpt><trkpt lat="46.0647494" lon="13.5725108"><ele>645.0</ele><time>2026-05-03T10:43:25.164Z</time></trkpt><trkpt lat="46.0649336" lon="13.5725379"><ele>646.6666666666666</ele><time>2026-05-03T10:45:52.122Z</time></trkpt><trkpt lat="46.0650342" lon="13.5724743"><ele>648.3333333333334</ele><time>2026-05-03T10:45:54.122Z</time></trkpt><trkpt lat="46.0651091" lon="13.572343"><ele>650.0</ele><time>2026-05-03T10:45:56.121Z</time></trkpt><trkpt lat="46.0651062" lon="13.5722507"><ele>651.6666666666667</ele><time>2026-05-03T10:45:57.122Z</time></trkpt><trkpt lat="46.0650865" lon="13.5721542"><ele>653.3333333333334</ele><time>2026-05-03T10:45:58.121Z</time></trkpt><trkpt lat="46.0650623" lon="13.5720396"><ele>655.0</ele><time>2026-05-03T10:45:59.122Z</time></trkpt><trkpt lat="46.0650387" lon="13.5719145"><ele>655.5</ele><time>2026-05-03T10:46:00.121Z</time></trkpt><trkpt lat="46.0650171" lon="13.5718213"><ele>656.0</ele><time>2026-05-03T10:46:01.122Z</time></trkpt><trkpt lat="46.0650209" lon="13.571675"><ele>656.5</ele><time>2026-05-03T10:46:03.122Z</time></trkpt><trkpt lat="46.0651178" lon="13.5716796"><ele>657.0</ele><time>2026-05-03T10:46:05.122Z</time></trkpt><trkpt lat="46.065184" lon="13.5717352"><ele>657.5</ele><time>2026-05-03T10:46:06.122Z</time></trkpt><trkpt lat="46.0652548" lon="13.5717942"><ele>658.0</ele><time>2026-05-03T10:46:07.121Z</time></trkpt><trkpt lat="46.0653344" lon="13.5718453"><ele>658.0</ele><time>2026-05-03T10:46:08.122Z</time></trkpt><trkpt lat="46.0654129" lon="13.57191"><ele>658.0</ele><time>2026-05-03T10:46:09.122Z</time></trkpt><trkpt lat="46.0654823" lon="13.5719484"><ele>658.0</ele><time>2026-05-03T10:46:10.121Z</time></trkpt><trkpt lat="46.0655731" lon="13.5718833"><ele>658.0</ele><time>2026-05-03T10:46:12.121Z</time></trkpt><trkpt lat="46.0655138" lon="13.5717772"><ele>658.0</ele><time>2026-05-03T10:46:14.122Z</time></trkpt><trkpt lat="46.0654467" lon="13.5717311"><ele>658.0</ele><time>2026-05-03T10:46:15.122Z</time></trkpt><trkpt lat="46.0653388" lon="13.5716532"><ele>658.0</ele><time>2026-05-03T10:46:17.122Z</time></trkpt><trkpt lat="46.0652662" lon="13.5715407"><ele>658.0</ele><time>2026-05-03T10:46:19.122Z</time></trkpt><trkpt lat="46.0653077" lon="13.5714439"><ele>658.0</ele><time>2026-05-03T10:46:21.122Z</time></trkpt><trkpt lat="46.0654105" lon="13.5714815"><ele>658.0</ele><time>2026-05-03T10:46:23.121Z</time></trkpt><trkpt lat="46.0655026" lon="13.5715414"><ele>658.0</ele><time>2026-05-03T10:46:25.122Z</time></trkpt><trkpt lat="46.0656006" lon="13.5716074"><ele>658.0</ele><time>2026-05-03T10:46:27.122Z</time></trkpt><trkpt lat="46.065722" lon="13.5716629"><ele>658.0</ele><time>2026-05-03T10:46:29.122Z</time></trkpt><trkpt lat="46.0658089" lon="13.5717157"><ele>658.0</ele><time>2026-05-03T10:46:30.121Z</time></trkpt><trkpt lat="46.0659174" lon="13.5717702"><ele>658.0</ele><time>2026-05-03T10:46:31.121Z</time></trkpt><trkpt lat="46.0660216" lon="13.571832"><ele>658.0</ele><time>2026-05-03T10:46:32.122Z</time></trkpt><trkpt lat="46.0661266" lon="13.571878"><ele>663.5</ele><time>2026-05-03T10:46:33.121Z</time></trkpt><trkpt lat="46.0662585" lon="13.571889"><ele>669.0</ele><time>2026-05-03T10:46:34.122Z</time></trkpt><trkpt lat="46.066375" lon="13.5718872"><ele>674.5</ele><time>2026-05-03T10:46:35.122Z</time></trkpt><trkpt lat="46.0664827" lon="13.57187"><ele>680.0</ele><time>2026-05-03T10:46:36.121Z</time></trkpt><trkpt lat="46.0665879" lon="13.5718403"><ele>682.5</ele><time>2026-05-03T10:46:37.122Z</time></trkpt><trkpt lat="46.0666875" lon="13.5717949"><ele>685.0</ele><time>2026-05-03T10:46:38.121Z</time></trkpt><trkpt lat="46.0667727" lon="13.571734"><ele>687.5</ele><time>2026-05-03T10:46:39.122Z</time></trkpt><trkpt lat="46.0668449" lon="13.5716609"><ele>690.0</ele><time>2026-05-03T10:46:40.121Z</time></trkpt><trkpt lat="46.0669085" lon="13.5716022"><ele>692.5</ele><time>2026-05-03T10:46:41.121Z</time></trkpt><trkpt lat="46.0669722" lon="13.5715954"><ele>695.0</ele><time>2026-05-03T10:46:42.121Z</time></trkpt><trkpt lat="46.0670538" lon="13.571647"><ele>695.0</ele><time>2026-05-03T10:46:43.122Z</time></trkpt><trkpt lat="46.0671373" lon="13.5717485"><ele>695.0</ele><time>2026-05-03T10:46:44.122Z</time></trkpt><trkpt lat="46.0672267" lon="13.5718303"><ele>695.0</ele><time>2026-05-03T10:46:45.121Z</time></trkpt><trkpt lat="46.0673241" lon="13.5719049"><ele>695.0</ele><time>2026-05-03T10:46:46.122Z</time></trkpt><trkpt lat="46.0674281" lon="13.5719934"><ele>695.0</ele><time>2026-05-03T10:46:47.121Z</time></trkpt><trkpt lat="46.0675364" lon="13.5720686"><ele>694.2</ele><time>2026-05-03T10:46:48.122Z</time></trkpt><trkpt lat="46.0676394" lon="13.5721279"><ele>693.4</ele><time>2026-05-03T10:46:49.121Z</time></trkpt><trkpt lat="46.0677417" lon="13.5721892"><ele>692.5999999999999</ele><time>2026-05-03T10:46:50.122Z</time></trkpt><trkpt lat="46.0678473" lon="13.572252"><ele>691.8</ele><time>2026-05-03T10:46:51.121Z</time></trkpt><trkpt lat="46.0679478" lon="13.5723236"><ele>691.0</ele><time>2026-05-03T10:46:52.122Z</time></trkpt><trkpt lat="46.0680467" lon="13.5724029"><ele>691.0</ele><time>2026-05-03T10:46:53.121Z</time></trkpt><trkpt lat="46.0681386" lon="13.5725006"><ele>691.0</ele><time>2026-05-03T10:46:54.122Z</time></trkpt><trkpt lat="46.0681895" lon="13.5726035"><ele>691.0</ele><time>2026-05-03T10:46:55.121Z</time></trkpt><trkpt lat="46.0682356" lon="13.5727664"><ele>691.0</ele><time>2026-05-03T10:46:56.122Z</time></trkpt><trkpt lat="46.0682575" lon="13.572914"><ele>691.0</ele><time>2026-05-03T10:46:57.122Z</time></trkpt><trkpt lat="46.068262" lon="13.5730535"><ele>692.0</ele><time>2026-05-03T10:46:58.121Z</time></trkpt><trkpt lat="46.0682549" lon="13.5731986"><ele>693.0</ele><time>2026-05-03T10:46:59.122Z</time></trkpt><trkpt lat="46.0682233" lon="13.5733316"><ele>694.0</ele><time>2026-05-03T10:47:00.122Z</time></trkpt><trkpt lat="46.0681728" lon="13.5734475"><ele>695.0</ele><time>2026-05-03T10:47:01.122Z</time></trkpt><trkpt lat="46.0681309" lon="13.5735513"><ele>696.0</ele><time>2026-05-03T10:47:02.121Z</time></trkpt><trkpt lat="46.0681216" lon="13.573673"><ele>697.8333333333334</ele><time>2026-05-03T10:47:03.122Z</time></trkpt><trkpt lat="46.0681358" lon="13.5738087"><ele>699.6666666666666</ele><time>2026-05-03T10:47:04.122Z</time></trkpt><trkpt lat="46.0681545" lon="13.5739157"><ele>701.5</ele><time>2026-05-03T10:47:05.122Z</time></trkpt><trkpt lat="46.0681823" lon="13.5740005"><ele>703.3333333333333</ele><time>2026-05-03T10:47:06.121Z</time></trkpt><trkpt lat="46.0682502" lon="13.5741251"><ele>705.1666666666666</ele><time>2026-05-03T10:47:08.122Z</time></trkpt><trkpt lat="46.0683373" lon="13.5740804"><ele>707.0</ele><time>2026-05-03T10:47:10.122Z</time></trkpt><trkpt lat="46.0682788" lon="13.5739009"><ele>709.0</ele><time>2026-05-03T10:47:12.122Z</time></trkpt><trkpt lat="46.0682842" lon="13.5737806"><ele>711.0</ele><time>2026-05-03T10:47:13.121Z</time></trkpt><trkpt lat="46.0683306" lon="13.5736766"><ele>713.0</ele><time>2026-05-03T10:47:14.122Z</time></trkpt><trkpt lat="46.068388" lon="13.5736348"><ele>715.0</ele><time>2026-05-03T10:47:15.122Z</time></trkpt><trkpt lat="46.0684725" lon="13.5737159"><ele>717.0</ele><time>2026-05-03T10:47:17.122Z</time></trkpt><trkpt lat="46.0684943" lon="13.5738129"><ele>719.0</ele><time>2026-05-03T10:47:18.121Z</time></trkpt><trkpt lat="46.0684989" lon="13.5739137"><ele>719.0</ele><time>2026-05-03T10:47:19.122Z</time></trkpt><trkpt lat="46.0685592" lon="13.5740437"><ele>719.0</ele><time>2026-05-03T10:47:21.122Z</time></trkpt><trkpt lat="46.0686376" lon="13.5740139"><ele>719.0</ele><time>2026-05-03T10:47:23.122Z</time></trkpt><trkpt lat="46.0686461" lon="13.5738146"><ele>719.0</ele><time>2026-05-03T10:47:25.122Z</time></trkpt><trkpt lat="46.0686368" lon="13.5736957"><ele>719.0</ele><time>2026-05-03T10:47:26.122Z</time></trkpt><trkpt lat="46.0686385" lon="13.5735808"><ele>719.0</ele><time>2026-05-03T10:47:27.122Z</time></trkpt><trkpt lat="46.0686449" lon="13.5734592"><ele>719.0</ele><time>2026-05-03T10:47:28.121Z</time></trkpt><trkpt lat="46.0686526" lon="13.5733422"><ele>719.0</ele><time>2026-05-03T10:47:29.122Z</time></trkpt><trkpt lat="46.0686607" lon="13.5732398"><ele>719.0</ele><time>2026-05-03T10:47:30.122Z</time></trkpt><trkpt lat="46.068666" lon="13.5731401"><ele>719.0</ele><time>2026-05-03T10:47:31.122Z</time></trkpt><trkpt lat="46.0686701" lon="13.573046"><ele>719.0</ele><time>2026-05-03T10:47:32.121Z</time></trkpt><trkpt lat="46.0686784" lon="13.5728696"><ele>718.2</ele><time>2026-05-03T10:47:34.122Z</time></trkpt><trkpt lat="46.0686762" lon="13.5727146"><ele>717.4000000000001</ele><time>2026-05-03T10:47:36.122Z</time></trkpt><trkpt lat="46.0686767" lon="13.5725519"><ele>716.6</ele><time>2026-05-03T10:47:38.122Z</time></trkpt><trkpt lat="46.0686677" lon="13.5724574"><ele>715.8</ele><time>2026-05-03T10:47:39.122Z</time></trkpt><trkpt lat="46.0686508" lon="13.5723608"><ele>715.0</ele><time>2026-05-03T10:47:40.121Z</time></trkpt><trkpt lat="46.0686173" lon="13.5721901"><ele>715.0</ele><time>2026-05-03T10:47:42.122Z</time></trkpt><trkpt lat="46.0685979" lon="13.5720944"><ele>715.0</ele><time>2026-05-03T10:47:43.122Z</time></trkpt><trkpt lat="46.068591" lon="13.5719934"><ele>715.0</ele><time>2026-05-03T10:47:44.122Z</time></trkpt><trkpt lat="46.068602" lon="13.5718893"><ele>715.0</ele><time>2026-05-03T10:47:45.122Z</time></trkpt><trkpt lat="46.0686287" lon="13.5718005"><ele>715.0</ele><time>2026-05-03T10:47:46.122Z</time></trkpt><trkpt lat="46.0686569" lon="13.5717192"><ele>715.0</ele><time>2026-05-03T10:47:47.121Z</time></trkpt><trkpt lat="46.0686989" lon="13.5715644"><ele>717.0</ele><time>2026-05-03T10:47:49.122Z</time></trkpt><trkpt lat="46.0687" lon="13.5714603"><ele>719.0</ele><time>2026-05-03T10:47:50.122Z</time></trkpt><trkpt lat="46.0686815" lon="13.5713543"><ele>721.0</ele><time>2026-05-03T10:47:51.121Z</time></trkpt><trkpt lat="46.0686512" lon="13.5712507"><ele>723.0</ele><time>2026-05-03T10:47:52.121Z</time></trkpt><trkpt lat="46.0686159" lon="13.5711522"><ele>725.0</ele><time>2026-05-03T10:47:53.122Z</time></trkpt><trkpt lat="46.0685905" lon="13.5710569"><ele>727.0</ele><time>2026-05-03T10:47:54.122Z</time></trkpt><trkpt lat="46.0685673" lon="13.5709487"><ele>728.6</ele><time>2026-05-03T10:47:55.122Z</time></trkpt><trkpt lat="46.0685494" lon="13.5708407"><ele>730.2</ele><time>2026-05-03T10:47:56.122Z</time></trkpt><trkpt lat="46.0685369" lon="13.5707284"><ele>731.8</ele><time>2026-05-03T10:47:57.121Z</time></trkpt><trkpt lat="46.0685365" lon="13.5705922"><ele>733.4</ele><time>2026-05-03T10:47:58.122Z</time></trkpt><trkpt lat="46.0685548" lon="13.5704426"><ele>735.0</ele><time>2026-05-03T10:47:59.122Z</time></trkpt><trkpt lat="46.0685774" lon="13.5703039"><ele>735.0</ele><time>2026-05-03T10:48:00.122Z</time></trkpt><trkpt lat="46.0685997" lon="13.5701738"><ele>735.0</ele><time>2026-05-03T10:48:01.121Z</time></trkpt><trkpt lat="46.0686163" lon="13.5700497"><ele>735.0</ele><time>2026-05-03T10:48:02.122Z</time></trkpt><trkpt lat="46.0686172" lon="13.5699239"><ele>735.0</ele><time>2026-05-03T10:48:03.122Z</time></trkpt><trkpt lat="46.0686005" lon="13.5697951"><ele>735.0</ele><time>2026-05-03T10:48:04.121Z</time></trkpt><trkpt lat="46.0685642" lon="13.5696602"><ele>735.0</ele><time>2026-05-03T10:48:05.122Z</time></trkpt><trkpt lat="46.0685164" lon="13.5695397"><ele>735.0</ele><time>2026-05-03T10:48:06.122Z</time></trkpt><trkpt lat="46.0684727" lon="13.5694234"><ele>735.0</ele><time>2026-05-03T10:48:07.122Z</time></trkpt><trkpt lat="46.0684289" lon="13.5693051"><ele>735.0</ele><time>2026-05-03T10:48:08.122Z</time></trkpt><trkpt lat="46.0683845" lon="13.5691968"><ele>735.0</ele><time>2026-05-03T10:48:09.122Z</time></trkpt><trkpt lat="46.0683353" lon="13.5691013"><ele>734.6666666666666</ele><time>2026-05-03T10:48:10.122Z</time></trkpt><trkpt lat="46.0682919" lon="13.5689976"><ele>734.3333333333334</ele><time>2026-05-03T10:48:11.122Z</time></trkpt><trkpt lat="46.0682486" lon="13.5689155"><ele>734.0</ele><time>2026-05-03T10:48:12.122Z</time></trkpt><trkpt lat="46.0682154" lon="13.5688294"><ele>733.6666666666667</ele><time>2026-05-03T10:48:13.121Z</time></trkpt><trkpt lat="46.0681835" lon="13.5687491"><ele>733.3333333333334</ele><time>2026-05-03T10:48:14.121Z</time></trkpt><trkpt lat="46.0681449" lon="13.5686062"><ele>733.0</ele><time>2026-05-03T10:48:16.121Z</time></trkpt><trkpt lat="46.0681299" lon="13.5684855"><ele>732.5999999999999</ele><time>2026-05-03T10:48:18.121Z</time></trkpt><trkpt lat="46.0681407" lon="13.5683617"><ele>732.1999999999999</ele><time>2026-05-03T10:48:20.12Z</time></trkpt><trkpt lat="46.0681784" lon="13.5682467"><ele>731.8</ele><time>2026-05-03T10:48:22.121Z</time></trkpt><trkpt lat="46.0682729" lon="13.5681701"><ele>731.4</ele><time>2026-05-03T10:48:24.121Z</time></trkpt><trkpt lat="46.0683284" lon="13.5681221"><ele>731.0</ele><time>2026-05-03T10:48:25.121Z</time></trkpt><trkpt lat="46.0684209" lon="13.5680265"><ele>731.0</ele><time>2026-05-03T10:48:27.121Z</time></trkpt><trkpt lat="46.0684584" lon="13.5678784"><ele>731.0</ele><time>2026-05-03T10:48:29.121Z</time></trkpt><trkpt lat="46.0684696" lon="13.5677855"><ele>731.0</ele><time>2026-05-03T10:48:30.12Z</time></trkpt><trkpt lat="46.0685169" lon="13.5676359"><ele>731.0</ele><time>2026-05-03T10:48:32.12Z</time></trkpt><trkpt lat="46.0685881" lon="13.5675198"><ele>731.0</ele><time>2026-05-03T10:48:34.121Z</time></trkpt><trkpt lat="46.0686564" lon="13.5674214"><ele>731.8333333333333</ele><time>2026-05-03T10:48:36.121Z</time></trkpt><trkpt lat="46.0687386" lon="13.5672998"><ele>732.6666666666666</ele><time>2026-05-03T10:48:38.121Z</time></trkpt><trkpt lat="46.0687919" lon="13.5672278"><ele>733.5</ele><time>2026-05-03T10:48:39.12Z</time></trkpt><trkpt lat="46.0688459" lon="13.5671626"><ele>734.3333333333334</ele><time>2026-05-03T10:48:40.12Z</time></trkpt><trkpt lat="46.0688984" lon="13.5670885"><ele>735.1666666666667</ele><time>2026-05-03T10:48:41.121Z</time></trkpt><trkpt lat="46.0689475" lon="13.5670072"><ele>736.0</ele><time>2026-05-03T10:48:42.12Z</time></trkpt><trkpt lat="46.0689896" lon="13.5669148"><ele>736.6666666666667</ele><time>2026-05-03T10:48:43.121Z</time></trkpt><trkpt lat="46.0690207" lon="13.5668243"><ele>737.3333333333334</ele><time>2026-05-03T10:48:44.121Z</time></trkpt><trkpt lat="46.0690461" lon="13.5667347"><ele>738.0</ele><time>2026-05-03T10:48:45.12Z</time></trkpt><trkpt lat="46.0690639" lon="13.5666457"><ele>738.6666666666666</ele><time>2026-05-03T10:48:46.121Z</time></trkpt><trkpt lat="46.0690703" lon="13.5665534"><ele>739.3333333333333</ele><time>2026-05-03T10:48:47.121Z</time></trkpt><trkpt lat="46.0690667" lon="13.5663757"><ele>740.0</ele><time>2026-05-03T10:48:49.121Z</time></trkpt><trkpt lat="46.0690265" lon="13.5662213"><ele>738.8</ele><time>2026-05-03T10:48:51.121Z</time></trkpt><trkpt lat="46.068961" lon="13.5660854"><ele>737.6</ele><time>2026-05-03T10:48:53.121Z</time></trkpt><trkpt lat="46.0688636" lon="13.5659735"><ele>736.4000000000001</ele><time>2026-05-03T10:48:55.121Z</time></trkpt><trkpt lat="46.0688085" lon="13.56591"><ele>735.2</ele><time>2026-05-03T10:48:56.12Z</time></trkpt><trkpt lat="46.0687576" lon="13.5658466"><ele>734.0</ele><time>2026-05-03T10:48:57.121Z</time></trkpt><trkpt lat="46.0686718" lon="13.5657455"><ele>734.0</ele><time>2026-05-03T10:48:59.121Z</time></trkpt><trkpt lat="46.0685594" lon="13.5657711"><ele>734.0</ele><time>2026-05-03T10:49:01.121Z</time></trkpt><trkpt lat="46.0684883" lon="13.5658138"><ele>734.0</ele><time>2026-05-03T10:49:02.121Z</time></trkpt><trkpt lat="46.068397" lon="13.565882"><ele>734.0</ele><time>2026-05-03T10:49:04.12Z</time></trkpt><trkpt lat="46.0683147" lon="13.5659336"><ele>734.0</ele><time>2026-05-03T10:49:07.121Z</time></trkpt><trkpt lat="46.0682161" lon="13.5659864"><ele>734.5714285714286</ele><time>2026-05-03T10:49:09.121Z</time></trkpt><trkpt lat="46.0681562" lon="13.5660196"><ele>735.1428571428572</ele><time>2026-05-03T10:49:10.121Z</time></trkpt><trkpt lat="46.0680895" lon="13.5660614"><ele>735.7142857142858</ele><time>2026-05-03T10:49:11.12Z</time></trkpt><trkpt lat="46.0680214" lon="13.5661038"><ele>736.2857142857142</ele><time>2026-05-03T10:49:12.121Z</time></trkpt><trkpt lat="46.0679557" lon="13.5661572"><ele>736.8571428571429</ele><time>2026-05-03T10:49:13.12Z</time></trkpt><trkpt lat="46.067887" lon="13.5661968"><ele>737.4285714285714</ele><time>2026-05-03T10:49:14.12Z</time></trkpt><trkpt lat="46.067824" lon="13.5662246"><ele>738.0</ele><time>2026-05-03T10:49:15.121Z</time></trkpt><trkpt lat="46.067751" lon="13.5662278"><ele>738.0</ele><time>2026-05-03T10:49:16.121Z</time></trkpt><trkpt lat="46.067677" lon="13.5662269"><ele>738.0</ele><time>2026-05-03T10:49:17.121Z</time></trkpt><trkpt lat="46.0675939" lon="13.5662047"><ele>738.0</ele><time>2026-05-03T10:49:18.12Z</time></trkpt><trkpt lat="46.0675249" lon="13.5661653"><ele>738.0</ele><time>2026-05-03T10:49:19.12Z</time></trkpt><trkpt lat="46.0674243" lon="13.5660308"><ele>738.0</ele><time>2026-05-03T10:49:21.12Z</time></trkpt><trkpt lat="46.0673953" lon="13.5659425"><ele>738.0</ele><time>2026-05-03T10:49:22.121Z</time></trkpt><trkpt lat="46.0674155" lon="13.5658279"><ele>739.2</ele><time>2026-05-03T10:49:23.12Z</time></trkpt><trkpt lat="46.0674435" lon="13.5657048"><ele>740.4</ele><time>2026-05-03T10:49:24.121Z</time></trkpt><trkpt lat="46.0674735" lon="13.5655856"><ele>741.6</ele><time>2026-05-03T10:49:25.121Z</time></trkpt><trkpt lat="46.0675052" lon="13.5654547"><ele>742.8000000000001</ele><time>2026-05-03T10:49:26.121Z</time></trkpt><trkpt lat="46.0675303" lon="13.5653268"><ele>744.0</ele><time>2026-05-03T10:49:27.121Z</time></trkpt><trkpt lat="46.0675559" lon="13.5651946"><ele>744.8333333333334</ele><time>2026-05-03T10:49:28.121Z</time></trkpt><trkpt lat="46.0675749" lon="13.5650682"><ele>745.6666666666666</ele><time>2026-05-03T10:49:29.121Z</time></trkpt><trkpt lat="46.0675841" lon="13.5649586"><ele>746.5</ele><time>2026-05-03T10:49:30.12Z</time></trkpt><trkpt lat="46.0675772" lon="13.5648491"><ele>747.3333333333333</ele><time>2026-05-03T10:49:31.121Z</time></trkpt><trkpt lat="46.0675602" lon="13.5647416"><ele>748.1666666666666</ele><time>2026-05-03T10:49:32.121Z</time></trkpt><trkpt lat="46.0675338" lon="13.5646574"><ele>749.0</ele><time>2026-05-03T10:49:33.121Z</time></trkpt><trkpt lat="46.0675216" lon="13.5644813"><ele>750.8000000000001</ele><time>2026-05-03T10:49:35.121Z</time></trkpt><trkpt lat="46.0675566" lon="13.5643817"><ele>752.6</ele><time>2026-05-03T10:49:36.12Z</time></trkpt><trkpt lat="46.0676188" lon="13.5643156"><ele>754.4</ele><time>2026-05-03T10:49:37.12Z</time></trkpt><trkpt lat="46.0676878" lon="13.5642427"><ele>756.2</ele><time>2026-05-03T10:49:38.12Z</time></trkpt><trkpt lat="46.067775" lon="13.5641439"><ele>758.0</ele><time>2026-05-03T10:49:39.121Z</time></trkpt><trkpt lat="46.0678565" lon="13.5640383"><ele>758.0</ele><time>2026-05-03T10:49:40.121Z</time></trkpt><trkpt lat="46.0679307" lon="13.5639283"><ele>758.0</ele><time>2026-05-03T10:49:41.121Z</time></trkpt><trkpt lat="46.0679952" lon="13.5638293"><ele>758.0</ele><time>2026-05-03T10:49:42.121Z</time></trkpt><trkpt lat="46.0680575" lon="13.5637298"><ele>758.0</ele><time>2026-05-03T10:49:43.12Z</time></trkpt><trkpt lat="46.0681169" lon="13.5636318"><ele>758.0</ele><time>2026-05-03T10:49:44.121Z</time></trkpt><trkpt lat="46.0681706" lon="13.5635126"><ele>760.4</ele><time>2026-05-03T10:49:45.121Z</time></trkpt><trkpt lat="46.0682233" lon="13.5633779"><ele>762.8</ele><time>2026-05-03T10:49:46.121Z</time></trkpt><trkpt lat="46.0682651" lon="13.5632478"><ele>765.2</ele><time>2026-05-03T10:49:47.121Z</time></trkpt><trkpt lat="46.0682964" lon="13.5631143"><ele>767.6</ele><time>2026-05-03T10:49:48.121Z</time></trkpt><trkpt lat="46.0683223" lon="13.562987"><ele>770.0</ele><time>2026-05-03T10:49:49.121Z</time></trkpt><trkpt lat="46.0683462" lon="13.5628733"><ele>766.5000000000001</ele><time>2026-05-03T10:49:50.12Z</time></trkpt><trkpt lat="46.068367" lon="13.5627641"><ele>763.0</ele><time>2026-05-03T10:49:51.121Z</time></trkpt><trkpt lat="46.0683858" lon="13.5626624"><ele>759.5</ele><time>2026-05-03T10:49:52.12Z</time></trkpt><trkpt lat="46.068419" lon="13.56256"><ele>756.0</ele><time>2026-05-03T10:49:53.121Z</time></trkpt><trkpt lat="46.0684518" lon="13.5624494"><ele>752.5</ele><time>2026-05-03T10:49:54.12Z</time></trkpt><trkpt lat="46.0684925" lon="13.5623261"><ele>749.0</ele><time>2026-05-03T10:49:55.121Z</time></trkpt><trkpt lat="46.068526" lon="13.5622038"><ele>749.0</ele><time>2026-05-03T10:49:56.12Z</time></trkpt><trkpt lat="46.0685568" lon="13.5620881"><ele>749.0</ele><time>2026-05-03T10:49:57.121Z</time></trkpt><trkpt lat="46.0685912" lon="13.5619635"><ele>749.0</ele><time>2026-05-03T10:49:58.121Z</time></trkpt><trkpt lat="46.0686171" lon="13.561839"><ele>749.0</ele><time>2026-05-03T10:49:59.121Z</time></trkpt><trkpt lat="46.068645" lon="13.5617116"><ele>749.0</ele><time>2026-05-03T10:50:00.121Z</time></trkpt><trkpt lat="46.0686809" lon="13.5615777"><ele>750.2</ele><time>2026-05-03T10:50:01.121Z</time></trkpt><trkpt lat="46.0687113" lon="13.5614369"><ele>751.4000000000001</ele><time>2026-05-03T10:50:02.121Z</time></trkpt><trkpt lat="46.0687243" lon="13.5612945"><ele>752.6</ele><time>2026-05-03T10:50:03.121Z</time></trkpt><trkpt lat="46.0687398" lon="13.561157"><ele>753.8</ele><time>2026-05-03T10:50:04.121Z</time></trkpt><trkpt lat="46.0687496" lon="13.5610163"><ele>755.0</ele><time>2026-05-03T10:50:05.121Z</time></trkpt><trkpt lat="46.0687546" lon="13.5608775"><ele>755.0</ele><time>2026-05-03T10:50:06.12Z</time></trkpt><trkpt lat="46.0687618" lon="13.5607434"><ele>755.0</ele><time>2026-05-03T10:50:07.121Z</time></trkpt><trkpt lat="46.0687717" lon="13.5606158"><ele>755.0</ele><time>2026-05-03T10:50:08.121Z</time></trkpt><trkpt lat="46.0687802" lon="13.5604751"><ele>755.0</ele><time>2026-05-03T10:50:09.121Z</time></trkpt><trkpt lat="46.06878" lon="13.5603341"><ele>755.0</ele><time>2026-05-03T10:50:10.121Z</time></trkpt><trkpt lat="46.068782" lon="13.5601957"><ele>755.0</ele><time>2026-05-03T10:50:11.121Z</time></trkpt><trkpt lat="46.0687971" lon="13.5600502"><ele>755.0</ele><time>2026-05-03T10:50:12.121Z</time></trkpt><trkpt lat="46.0688134" lon="13.5599199"><ele>755.0</ele><time>2026-05-03T10:50:13.121Z</time></trkpt><trkpt lat="46.0688352" lon="13.5597896"><ele>755.0</ele><time>2026-05-03T10:50:14.121Z</time></trkpt><trkpt lat="46.0688641" lon="13.5596652"><ele>755.0</ele><time>2026-05-03T10:50:15.121Z</time></trkpt><trkpt lat="46.0688913" lon="13.5595451"><ele>754.3333333333333</ele><time>2026-05-03T10:50:16.121Z</time></trkpt><trkpt lat="46.0689143" lon="13.5594245"><ele>753.6666666666666</ele><time>2026-05-03T10:50:17.121Z</time></trkpt><trkpt lat="46.0689299" lon="13.55931"><ele>753.0</ele><time>2026-05-03T10:50:18.121Z</time></trkpt><trkpt lat="46.0689448" lon="13.5591869"><ele>752.3333333333334</ele><time>2026-05-03T10:50:19.121Z</time></trkpt><trkpt lat="46.0689528" lon="13.5590713"><ele>751.6666666666667</ele><time>2026-05-03T10:50:20.121Z</time></trkpt><trkpt lat="46.068941" lon="13.5589463"><ele>751.0</ele><time>2026-05-03T10:50:21.12Z</time></trkpt><trkpt lat="46.0689196" lon="13.5588225"><ele>751.0</ele><time>2026-05-03T10:50:22.12Z</time></trkpt><trkpt lat="46.0688887" lon="13.5587106"><ele>751.0</ele><time>2026-05-03T10:50:23.121Z</time></trkpt><trkpt lat="46.0688632" lon="13.5586074"><ele>751.0</ele><time>2026-05-03T10:50:24.12Z</time></trkpt><trkpt lat="46.0688287" lon="13.5584939"><ele>751.0</ele><time>2026-05-03T10:50:25.121Z</time></trkpt><trkpt lat="46.0688074" lon="13.5583693"><ele>751.0</ele><time>2026-05-03T10:50:26.12Z</time></trkpt><trkpt lat="46.0688059" lon="13.5582512"><ele>751.0</ele><time>2026-05-03T10:50:27.121Z</time></trkpt><trkpt lat="46.0688263" lon="13.5581332"><ele>750.5999999999999</ele><time>2026-05-03T10:50:28.121Z</time></trkpt><trkpt lat="46.0688524" lon="13.5580098"><ele>750.2</ele><time>2026-05-03T10:50:29.12Z</time></trkpt><trkpt lat="46.0688819" lon="13.5578818"><ele>749.8</ele><time>2026-05-03T10:50:30.12Z</time></trkpt><trkpt lat="46.0689157" lon="13.5577555"><ele>749.4000000000001</ele><time>2026-05-03T10:50:31.121Z</time></trkpt><trkpt lat="46.0689548" lon="13.5576284"><ele>749.0</ele><time>2026-05-03T10:50:32.121Z</time></trkpt><trkpt lat="46.0689916" lon="13.5575021"><ele>748.8000000000001</ele><time>2026-05-03T10:50:33.12Z</time></trkpt><trkpt lat="46.069032" lon="13.5573663"><ele>748.6</ele><time>2026-05-03T10:50:34.121Z</time></trkpt><trkpt lat="46.0690737" lon="13.5572297"><ele>748.4</ele><time>2026-05-03T10:50:35.121Z</time></trkpt><trkpt lat="46.0691112" lon="13.5570972"><ele>748.2</ele><time>2026-05-03T10:50:36.12Z</time></trkpt><trkpt lat="46.0691453" lon="13.5569733"><ele>748.0</ele><time>2026-05-03T10:50:37.12Z</time></trkpt><trkpt lat="46.069178" lon="13.556849"><ele>740.4</ele><time>2026-05-03T10:50:38.121Z</time></trkpt><trkpt lat="46.0692189" lon="13.5567216"><ele>732.8</ele><time>2026-05-03T10:50:39.121Z</time></trkpt><trkpt lat="46.069256" lon="13.5565771"><ele>725.2</ele><time>2026-05-03T10:50:40.121Z</time></trkpt><trkpt lat="46.0692814" lon="13.5564407"><ele>717.6</ele><time>2026-05-03T10:50:41.121Z</time></trkpt><trkpt lat="46.0693016" lon="13.5563016"><ele>710.0</ele><time>2026-05-03T10:50:42.12Z</time></trkpt><trkpt lat="46.0693187" lon="13.5561595"><ele>710.0</ele><time>2026-05-03T10:50:43.121Z</time></trkpt><trkpt lat="46.06934" lon="13.5560117"><ele>710.0</ele><time>2026-05-03T10:50:44.12Z</time></trkpt><trkpt lat="46.0693592" lon="13.5558633"><ele>710.0</ele><time>2026-05-03T10:50:45.121Z</time></trkpt><trkpt lat="46.0693843" lon="13.5557143"><ele>710.0</ele><time>2026-05-03T10:50:46.12Z</time></trkpt><trkpt lat="46.0694155" lon="13.5555729"><ele>710.0</ele><time>2026-05-03T10:50:47.121Z</time></trkpt><trkpt lat="46.069451" lon="13.5554338"><ele>709.6</ele><time>2026-05-03T10:50:48.121Z</time></trkpt><trkpt lat="46.0694986" lon="13.5553038"><ele>709.2</ele><time>2026-05-03T10:50:49.121Z</time></trkpt><trkpt lat="46.0695465" lon="13.5551774"><ele>708.8</ele><time>2026-05-03T10:50:50.121Z</time></trkpt><trkpt lat="46.0695822" lon="13.5550583"><ele>708.4</ele><time>2026-05-03T10:50:51.121Z</time></trkpt><trkpt lat="46.0696169" lon="13.5549416"><ele>708.0</ele><time>2026-05-03T10:50:52.121Z</time></trkpt><trkpt lat="46.0696583" lon="13.5548224"><ele>708.0</ele><time>2026-05-03T10:50:53.121Z</time></trkpt><trkpt lat="46.0696952" lon="13.5547064"><ele>708.0</ele><time>2026-05-03T10:50:54.12Z</time></trkpt><trkpt lat="46.069737" lon="13.5545913"><ele>708.0</ele><time>2026-05-03T10:50:55.121Z</time></trkpt><trkpt lat="46.0697674" lon="13.5544765"><ele>708.0</ele><time>2026-05-03T10:50:56.121Z</time></trkpt><trkpt lat="46.069793" lon="13.5543454"><ele>708.0</ele><time>2026-05-03T10:50:57.121Z</time></trkpt><trkpt lat="46.0698012" lon="13.5542152"><ele>708.0</ele><time>2026-05-03T10:50:58.12Z</time></trkpt><trkpt lat="46.0697979" lon="13.5540899"><ele>708.3333333333334</ele><time>2026-05-03T10:50:59.12Z</time></trkpt><trkpt lat="46.0698004" lon="13.5539624"><ele>708.6666666666666</ele><time>2026-05-03T10:51:00.12Z</time></trkpt><trkpt lat="46.0698133" lon="13.5538376"><ele>709.0</ele><time>2026-05-03T10:51:01.12Z</time></trkpt><trkpt lat="46.0698456" lon="13.5537176"><ele>709.3333333333333</ele><time>2026-05-03T10:51:02.121Z</time></trkpt><trkpt lat="46.0698836" lon="13.5536054"><ele>709.6666666666666</ele><time>2026-05-03T10:51:03.121Z</time></trkpt><trkpt lat="46.0699085" lon="13.5534895"><ele>710.0</ele><time>2026-05-03T10:51:04.121Z</time></trkpt><trkpt lat="46.0699201" lon="13.5533706"><ele>710.2</ele><time>2026-05-03T10:51:05.12Z</time></trkpt><trkpt lat="46.0699077" lon="13.5532445"><ele>710.4</ele><time>2026-05-03T10:51:06.12Z</time></trkpt><trkpt lat="46.0698983" lon="13.5531134"><ele>710.5999999999999</ele><time>2026-05-03T10:51:07.121Z</time></trkpt><trkpt lat="46.0698987" lon="13.5529839"><ele>710.8</ele><time>2026-05-03T10:51:08.121Z</time></trkpt><trkpt lat="46.0699119" lon="13.5528401"><ele>711.0</ele><time>2026-05-03T10:51:09.121Z</time></trkpt><trkpt lat="46.0699359" lon="13.5527038"><ele>705.1999999999999</ele><time>2026-05-03T10:51:10.121Z</time></trkpt><trkpt lat="46.0699653" lon="13.5525733"><ele>699.4</ele><time>2026-05-03T10:51:11.121Z</time></trkpt><trkpt lat="46.0699938" lon="13.5524461"><ele>693.6</ele><time>2026-05-03T10:51:12.121Z</time></trkpt><trkpt lat="46.0700309" lon="13.5523101"><ele>687.8</ele><time>2026-05-03T10:51:13.121Z</time></trkpt><trkpt lat="46.0700661" lon="13.5521795"><ele>682.0</ele><time>2026-05-03T10:51:14.121Z</time></trkpt><trkpt lat="46.0700971" lon="13.5520602"><ele>682.3333333333334</ele><time>2026-05-03T10:51:15.121Z</time></trkpt><trkpt lat="46.0701255" lon="13.5519631"><ele>682.6666666666667</ele><time>2026-05-03T10:51:16.121Z</time></trkpt><trkpt lat="46.070145" lon="13.5518637"><ele>683.0</ele><time>2026-05-03T10:51:17.121Z</time></trkpt><trkpt lat="46.0701626" lon="13.5517633"><ele>683.3333333333334</ele><time>2026-05-03T10:51:18.121Z</time></trkpt><trkpt lat="46.0701739" lon="13.5516606"><ele>683.6666666666666</ele><time>2026-05-03T10:51:19.121Z</time></trkpt><trkpt lat="46.0701753" lon="13.5515408"><ele>684.0</ele><time>2026-05-03T10:51:20.12Z</time></trkpt><trkpt lat="46.0701744" lon="13.5513982"><ele>684.0</ele><time>2026-05-03T10:51:21.121Z</time></trkpt><trkpt lat="46.070156" lon="13.5512619"><ele>684.0</ele><time>2026-05-03T10:51:22.121Z</time></trkpt><trkpt lat="46.0701295" lon="13.5511386"><ele>684.0</ele><time>2026-05-03T10:51:23.121Z</time></trkpt><trkpt lat="46.0701054" lon="13.551013"><ele>684.0</ele><time>2026-05-03T10:51:24.12Z</time></trkpt><trkpt lat="46.0700576" lon="13.5509001"><ele>684.0</ele><time>2026-05-03T10:51:25.121Z</time></trkpt><trkpt lat="46.0700053" lon="13.5507933"><ele>683.5</ele><time>2026-05-03T10:51:26.12Z</time></trkpt><trkpt lat="46.0699537" lon="13.5507007"><ele>683.0</ele><time>2026-05-03T10:51:27.121Z</time></trkpt><trkpt lat="46.0698965" lon="13.5506356"><ele>682.5</ele><time>2026-05-03T10:51:28.121Z</time></trkpt><trkpt lat="46.0698286" lon="13.5505814"><ele>682.0</ele><time>2026-05-03T10:51:29.121Z</time></trkpt><trkpt lat="46.0697517" lon="13.5505217"><ele>681.5</ele><time>2026-05-03T10:51:30.12Z</time></trkpt><trkpt lat="46.0696777" lon="13.5504664"><ele>681.0</ele><time>2026-05-03T10:51:31.121Z</time></trkpt><trkpt lat="46.0695954" lon="13.5504035"><ele>678.8</ele><time>2026-05-03T10:51:32.121Z</time></trkpt><trkpt lat="46.0695137" lon="13.5503315"><ele>676.5999999999999</ele><time>2026-05-03T10:51:33.121Z</time></trkpt><trkpt lat="46.0694268" lon="13.5502566"><ele>674.4</ele><time>2026-05-03T10:51:34.121Z</time></trkpt><trkpt lat="46.0693416" lon="13.5501818"><ele>672.2</ele><time>2026-05-03T10:51:35.121Z</time></trkpt><trkpt lat="46.0692548" lon="13.5500964"><ele>670.0</ele><time>2026-05-03T10:51:36.12Z</time></trkpt><trkpt lat="46.0691752" lon="13.5500168"><ele>668.4</ele><time>2026-05-03T10:51:37.121Z</time></trkpt><trkpt lat="46.0690918" lon="13.5499176"><ele>666.8</ele><time>2026-05-03T10:51:38.12Z</time></trkpt><trkpt lat="46.0690107" lon="13.5498254"><ele>665.2</ele><time>2026-05-03T10:51:39.121Z</time></trkpt><trkpt lat="46.0689257" lon="13.5497403"><ele>663.6</ele><time>2026-05-03T10:51:40.121Z</time></trkpt><trkpt lat="46.0688495" lon="13.5496361"><ele>662.0</ele><time>2026-05-03T10:51:41.12Z</time></trkpt><trkpt lat="46.068789" lon="13.5495487"><ele>660.1428571428571</ele><time>2026-05-03T10:51:42.121Z</time></trkpt><trkpt lat="46.0687278" lon="13.5494694"><ele>658.2857142857142</ele><time>2026-05-03T10:51:43.121Z</time></trkpt><trkpt lat="46.0686725" lon="13.5493894"><ele>656.4285714285713</ele><time>2026-05-03T10:51:44.121Z</time></trkpt><trkpt lat="46.0686142" lon="13.5493146"><ele>654.5714285714286</ele><time>2026-05-03T10:51:45.121Z</time></trkpt><trkpt lat="46.0685444" lon="13.5492718"><ele>652.7142857142857</ele><time>2026-05-03T10:51:46.12Z</time></trkpt><trkpt lat="46.06848" lon="13.5492511"><ele>650.8571428571428</ele><time>2026-05-03T10:51:47.121Z</time></trkpt><trkpt lat="46.0684161" lon="13.5492382"><ele>649.0</ele><time>2026-05-03T10:51:48.12Z</time></trkpt><trkpt lat="46.0682868" lon="13.5493047"><ele>645.5</ele><time>2026-05-03T10:51:50.121Z</time></trkpt><trkpt lat="46.0682208" lon="13.549373"><ele>642.0</ele><time>2026-05-03T10:51:51.121Z</time></trkpt><trkpt lat="46.0681775" lon="13.5494654"><ele>638.5</ele><time>2026-05-03T10:51:52.12Z</time></trkpt><trkpt lat="46.0681259" lon="13.5495742"><ele>635.0</ele><time>2026-05-03T10:51:53.121Z</time></trkpt><trkpt lat="46.0680792" lon="13.5496844"><ele>631.5</ele><time>2026-05-03T10:51:54.12Z</time></trkpt><trkpt lat="46.0680369" lon="13.5498016"><ele>628.0</ele><time>2026-05-03T10:51:55.121Z</time></trkpt><trkpt lat="46.0679962" lon="13.5498997"><ele>628.0</ele><time>2026-05-03T10:51:56.121Z</time></trkpt><trkpt lat="46.0679508" lon="13.5500014"><ele>628.0</ele><time>2026-05-03T10:51:57.12Z</time></trkpt><trkpt lat="46.0679058" lon="13.5501126"><ele>628.0</ele><time>2026-05-03T10:51:58.121Z</time></trkpt><trkpt lat="46.0678707" lon="13.5502174"><ele>628.0</ele><time>2026-05-03T10:51:59.121Z</time></trkpt><trkpt lat="46.067829" lon="13.5503365"><ele>628.0</ele><time>2026-05-03T10:52:00.121Z</time></trkpt><trkpt lat="46.0678069" lon="13.5504666"><ele>628.0</ele><time>2026-05-03T10:52:01.121Z</time></trkpt><trkpt lat="46.0677786" lon="13.5506054"><ele>630.6666666666667</ele><time>2026-05-03T10:52:02.12Z</time></trkpt><trkpt lat="46.0677535" lon="13.5507299"><ele>633.3333333333334</ele><time>2026-05-03T10:52:03.12Z</time></trkpt><trkpt lat="46.0677349" lon="13.5508566"><ele>636.0</ele><time>2026-05-03T10:52:04.121Z</time></trkpt><trkpt lat="46.0677162" lon="13.5509716"><ele>638.6666666666666</ele><time>2026-05-03T10:52:05.12Z</time></trkpt><trkpt lat="46.0676999" lon="13.5510822"><ele>641.3333333333333</ele><time>2026-05-03T10:52:06.121Z</time></trkpt><trkpt lat="46.0676941" lon="13.5511799"><ele>644.0</ele><time>2026-05-03T10:52:07.12Z</time></trkpt><trkpt lat="46.0676797" lon="13.5512754"><ele>647.4000000000001</ele><time>2026-05-03T10:52:08.12Z</time></trkpt><trkpt lat="46.0676198" lon="13.5513976"><ele>650.8</ele><time>2026-05-03T10:52:10.121Z</time></trkpt><trkpt lat="46.0675339" lon="13.551415"><ele>654.2</ele><time>2026-05-03T10:52:12.12Z</time></trkpt><trkpt lat="46.0674641" lon="13.5513689"><ele>657.5999999999999</ele><time>2026-05-03T10:52:13.12Z</time></trkpt><trkpt lat="46.0673783" lon="13.5513231"><ele>661.0</ele><time>2026-05-03T10:52:14.119Z</time></trkpt><trkpt lat="46.0672974" lon="13.5512616"><ele>657.0</ele><time>2026-05-03T10:52:15.119Z</time></trkpt><trkpt lat="46.0672234" lon="13.5511856"><ele>653.0</ele><time>2026-05-03T10:52:16.12Z</time></trkpt><trkpt lat="46.0671658" lon="13.5511109"><ele>649.0</ele><time>2026-05-03T10:52:17.119Z</time></trkpt><trkpt lat="46.0671005" lon="13.551031"><ele>645.0</ele><time>2026-05-03T10:52:18.12Z</time></trkpt><trkpt lat="46.0670359" lon="13.5509551"><ele>641.0</ele><time>2026-05-03T10:52:19.12Z</time></trkpt><trkpt lat="46.0669743" lon="13.5508856"><ele>637.0</ele><time>2026-05-03T10:52:20.119Z</time></trkpt><trkpt lat="46.0668616" lon="13.5507922"><ele>637.0</ele><time>2026-05-03T10:52:22.12Z</time></trkpt><trkpt lat="46.0667621" lon="13.5507696"><ele>637.0</ele><time>2026-05-03T10:52:24.12Z</time></trkpt><trkpt lat="46.0666613" lon="13.5508556"><ele>637.0</ele><time>2026-05-03T10:52:26.119Z</time></trkpt><trkpt lat="46.0666059" lon="13.5509054"><ele>637.0</ele><time>2026-05-03T10:52:27.119Z</time></trkpt><trkpt lat="46.0665051" lon="13.5510011"><ele>637.0</ele><time>2026-05-03T10:52:29.12Z</time></trkpt><trkpt lat="46.0664085" lon="13.551088"><ele>641.4000000000001</ele><time>2026-05-03T10:52:31.12Z</time></trkpt><trkpt lat="46.0662987" lon="13.55105"><ele>645.8000000000001</ele><time>2026-05-03T10:52:33.119Z</time></trkpt><trkpt lat="46.0662511" lon="13.5509763"><ele>650.2</ele><time>2026-05-03T10:52:34.119Z</time></trkpt><trkpt lat="46.0662003" lon="13.5508594"><ele>654.6</ele><time>2026-05-03T10:52:35.12Z</time></trkpt><trkpt lat="46.0661502" lon="13.550736"><ele>659.0</ele><time>2026-05-03T10:52:36.119Z</time></trkpt><trkpt lat="46.0660956" lon="13.5506142"><ele>659.0</ele><time>2026-05-03T10:52:37.12Z</time></trkpt><trkpt lat="46.0660536" lon="13.550493"><ele>659.0</ele><time>2026-05-03T10:52:38.12Z</time></trkpt><trkpt lat="46.0660294" lon="13.550384"><ele>659.0</ele><time>2026-05-03T10:52:39.12Z</time></trkpt><trkpt lat="46.065996" lon="13.5502744"><ele>659.0</ele><time>2026-05-03T10:52:40.12Z</time></trkpt><trkpt lat="46.0659712" lon="13.5501712"><ele>659.0</ele><time>2026-05-03T10:52:41.12Z</time></trkpt><trkpt lat="46.0659309" lon="13.5500578"><ele>659.0</ele><time>2026-05-03T10:52:42.12Z</time></trkpt><trkpt lat="46.0658896" lon="13.5499454"><ele>655.5</ele><time>2026-05-03T10:52:43.119Z</time></trkpt><trkpt lat="46.0658633" lon="13.5498347"><ele>652.0</ele><time>2026-05-03T10:52:44.12Z</time></trkpt><trkpt lat="46.0658255" lon="13.5497272"><ele>648.5</ele><time>2026-05-03T10:52:45.12Z</time></trkpt><trkpt lat="46.0657892" lon="13.5496067"><ele>645.0</ele><time>2026-05-03T10:52:46.12Z</time></trkpt><trkpt lat="46.0657405" lon="13.5495107"><ele>641.5</ele><time>2026-05-03T10:52:47.12Z</time></trkpt><trkpt lat="46.0656781" lon="13.5494233"><ele>638.0</ele><time>2026-05-03T10:52:48.12Z</time></trkpt><trkpt lat="46.065603" lon="13.5493585"><ele>636.1666666666666</ele><time>2026-05-03T10:52:49.12Z</time></trkpt><trkpt lat="46.0655246" lon="13.5492917"><ele>634.3333333333333</ele><time>2026-05-03T10:52:50.12Z</time></trkpt><trkpt lat="46.0654499" lon="13.5492475"><ele>632.5</ele><time>2026-05-03T10:52:51.119Z</time></trkpt><trkpt lat="46.0653679" lon="13.5492146"><ele>630.6666666666666</ele><time>2026-05-03T10:52:52.12Z</time></trkpt><trkpt lat="46.0652907" lon="13.5492016"><ele>628.8333333333334</ele><time>2026-05-03T10:52:53.119Z</time></trkpt><trkpt lat="46.0652052" lon="13.5492008"><ele>627.0</ele><time>2026-05-03T10:52:54.12Z</time></trkpt><trkpt lat="46.0651198" lon="13.549227"><ele>627.0</ele><time>2026-05-03T10:52:55.119Z</time></trkpt><trkpt lat="46.0650367" lon="13.5492611"><ele>627.0</ele><time>2026-05-03T10:52:56.119Z</time></trkpt><trkpt lat="46.064964" lon="13.5493109"><ele>627.0</ele><time>2026-05-03T10:52:57.12Z</time></trkpt><trkpt lat="46.0648855" lon="13.5493548"><ele>627.0</ele><time>2026-05-03T10:52:58.119Z</time></trkpt><trkpt lat="46.0648147" lon="13.5493902"><ele>627.0</ele><time>2026-05-03T10:52:59.119Z</time></trkpt><trkpt lat="46.0647185" lon="13.5493974"><ele>627.0</ele><time>2026-05-03T10:53:01.12Z</time></trkpt><trkpt lat="46.0646346" lon="13.549321"><ele>629.0</ele><time>2026-05-03T10:53:03.12Z</time></trkpt><trkpt lat="46.0645889" lon="13.5492115"><ele>631.0</ele><time>2026-05-03T10:53:04.119Z</time></trkpt><trkpt lat="46.0645519" lon="13.5490976"><ele>633.0</ele><time>2026-05-03T10:53:05.119Z</time></trkpt><trkpt lat="46.0645075" lon="13.549012"><ele>635.0</ele><time>2026-05-03T10:53:06.119Z</time></trkpt><trkpt lat="46.0644458" lon="13.5489297"><ele>637.0</ele><time>2026-05-03T10:53:07.119Z</time></trkpt><trkpt lat="46.0643722" lon="13.5488618"><ele>639.0</ele><time>2026-05-03T10:53:08.119Z</time></trkpt><trkpt lat="46.0642951" lon="13.5488015"><ele>639.0</ele><time>2026-05-03T10:53:09.119Z</time></trkpt><trkpt lat="46.0642074" lon="13.5487518"><ele>639.0</ele><time>2026-05-03T10:53:10.12Z</time></trkpt><trkpt lat="46.0641182" lon="13.5487299"><ele>639.0</ele><time>2026-05-03T10:53:11.12Z</time></trkpt><trkpt lat="46.0640303" lon="13.548713"><ele>639.0</ele><time>2026-05-03T10:53:12.12Z</time></trkpt><trkpt lat="46.0639428" lon="13.5486884"><ele>639.0</ele><time>2026-05-03T10:53:13.12Z</time></trkpt><trkpt lat="46.063855" lon="13.5486632"><ele>637.3333333333334</ele><time>2026-05-03T10:53:14.12Z</time></trkpt><trkpt lat="46.0637841" lon="13.5486518"><ele>635.6666666666666</ele><time>2026-05-03T10:53:15.12Z</time></trkpt><trkpt lat="46.0637091" lon="13.5486266"><ele>634.0</ele><time>2026-05-03T10:53:16.12Z</time></trkpt><trkpt lat="46.0636345" lon="13.5485852"><ele>632.3333333333333</ele><time>2026-05-03T10:53:17.12Z</time></trkpt><trkpt lat="46.0635616" lon="13.5485245"><ele>630.6666666666666</ele><time>2026-05-03T10:53:18.12Z</time></trkpt><trkpt lat="46.0634916" lon="13.5484413"><ele>629.0</ele><time>2026-05-03T10:53:19.12Z</time></trkpt><trkpt lat="46.0634284" lon="13.5483395"><ele>629.0</ele><time>2026-05-03T10:53:20.119Z</time></trkpt><trkpt lat="46.0633719" lon="13.5482295"><ele>629.0</ele><time>2026-05-03T10:53:21.12Z</time></trkpt><trkpt lat="46.0633153" lon="13.5481289"><ele>629.0</ele><time>2026-05-03T10:53:22.119Z</time></trkpt><trkpt lat="46.0632577" lon="13.5480407"><ele>629.0</ele><time>2026-05-03T10:53:23.12Z</time></trkpt><trkpt lat="46.0631893" lon="13.5479568"><ele>629.0</ele><time>2026-05-03T10:53:24.119Z</time></trkpt><trkpt lat="46.0631171" lon="13.5478874"><ele>629.0</ele><time>2026-05-03T10:53:25.119Z</time></trkpt><trkpt lat="46.0630403" lon="13.5478397"><ele>631.6666666666666</ele><time>2026-05-03T10:53:26.12Z</time></trkpt><trkpt lat="46.0629645" lon="13.5477945"><ele>634.3333333333333</ele><time>2026-05-03T10:53:27.12Z</time></trkpt><trkpt lat="46.0629054" lon="13.5477377"><ele>637.0</ele><time>2026-05-03T10:53:28.119Z</time></trkpt><trkpt lat="46.0628627" lon="13.5476469"><ele>639.6666666666666</ele><time>2026-05-03T10:53:29.12Z</time></trkpt><trkpt lat="46.0628407" lon="13.5475223"><ele>642.3333333333334</ele><time>2026-05-03T10:53:30.12Z</time></trkpt><trkpt lat="46.0628076" lon="13.5473965"><ele>645.0</ele><time>2026-05-03T10:53:31.12Z</time></trkpt><trkpt lat="46.062771" lon="13.5472697"><ele>645.0</ele><time>2026-05-03T10:53:32.12Z</time></trkpt><trkpt lat="46.062729" lon="13.5471408"><ele>645.0</ele><time>2026-05-03T10:53:33.119Z</time></trkpt><trkpt lat="46.0626819" lon="13.5470209"><ele>645.0</ele><time>2026-05-03T10:53:34.12Z</time></trkpt><trkpt lat="46.0626257" lon="13.5469363"><ele>645.0</ele><time>2026-05-03T10:53:35.119Z</time></trkpt><trkpt lat="46.0625738" lon="13.546855"><ele>645.0</ele><time>2026-05-03T10:53:36.119Z</time></trkpt><trkpt lat="46.0625307" lon="13.5467887"><ele>645.0</ele><time>2026-05-03T10:53:37.12Z</time></trkpt><trkpt lat="46.0624553" lon="13.5466394"><ele>644.5</ele><time>2026-05-03T10:53:39.12Z</time></trkpt><trkpt lat="46.0624026" lon="13.5464736"><ele>644.0</ele><time>2026-05-03T10:53:41.12Z</time></trkpt><trkpt lat="46.0623733" lon="13.5463882"><ele>643.5</ele><time>2026-05-03T10:53:42.12Z</time></trkpt><trkpt lat="46.0623433" lon="13.5463058"><ele>643.0</ele><time>2026-05-03T10:53:43.119Z</time></trkpt><trkpt lat="46.0622929" lon="13.5461703"><ele>642.5</ele><time>2026-05-03T10:53:45.12Z</time></trkpt><trkpt lat="46.0622607" lon="13.5460923"><ele>642.0</ele><time>2026-05-03T10:53:46.12Z</time></trkpt><trkpt lat="46.0621858" lon="13.5459969"><ele>637.2</ele><time>2026-05-03T10:53:48.12Z</time></trkpt><trkpt lat="46.0620916" lon="13.5459477"><ele>632.4000000000001</ele><time>2026-05-03T10:53:50.12Z</time></trkpt><trkpt lat="46.0619881" lon="13.5459351"><ele>627.5999999999999</ele><time>2026-05-03T10:53:52.119Z</time></trkpt><trkpt lat="46.0618917" lon="13.5459135"><ele>622.8</ele><time>2026-05-03T10:53:54.12Z</time></trkpt><trkpt lat="46.0617783" lon="13.5458682"><ele>618.0</ele><time>2026-05-03T10:53:56.12Z</time></trkpt><trkpt lat="46.0616739" lon="13.5458117"><ele>618.1666666666666</ele><time>2026-05-03T10:53:58.12Z</time></trkpt><trkpt lat="46.0615585" lon="13.5457336"><ele>618.3333333333334</ele><time>2026-05-03T10:54:00.12Z</time></trkpt><trkpt lat="46.0614999" lon="13.5456888"><ele>618.5</ele><time>2026-05-03T10:54:01.12Z</time></trkpt><trkpt lat="46.0614493" lon="13.5456336"><ele>618.6666666666667</ele><time>2026-05-03T10:54:02.12Z</time></trkpt><trkpt lat="46.06141" lon="13.5455564"><ele>618.8333333333334</ele><time>2026-05-03T10:54:03.12Z</time></trkpt><trkpt lat="46.0613764" lon="13.5454792"><ele>619.0</ele><time>2026-05-03T10:54:04.119Z</time></trkpt><trkpt lat="46.0613501" lon="13.545378"><ele>619.0</ele><time>2026-05-03T10:54:05.12Z</time></trkpt><trkpt lat="46.0613128" lon="13.5452772"><ele>619.0</ele><time>2026-05-03T10:54:06.12Z</time></trkpt><trkpt lat="46.0612694" lon="13.5451736"><ele>619.0</ele><time>2026-05-03T10:54:07.119Z</time></trkpt><trkpt lat="46.0612267" lon="13.5450768"><ele>619.0</ele><time>2026-05-03T10:54:08.119Z</time></trkpt><trkpt lat="46.0611897" lon="13.5449963"><ele>619.0</ele><time>2026-05-03T10:54:09.119Z</time></trkpt><trkpt lat="46.0611535" lon="13.5448374"><ele>619.0</ele><time>2026-05-03T10:54:11.119Z</time></trkpt><trkpt lat="46.061117" lon="13.5446744"><ele>619.0</ele><time>2026-05-03T10:54:13.12Z</time></trkpt><trkpt lat="46.0610916" lon="13.5445884"><ele>619.0</ele><time>2026-05-03T10:54:14.12Z</time></trkpt><trkpt lat="46.0610512" lon="13.544494"><ele>619.0</ele><time>2026-05-03T10:54:15.119Z</time></trkpt><trkpt lat="46.0610112" lon="13.5443974"><ele>619.0</ele><time>2026-05-03T10:54:16.12Z</time></trkpt><trkpt lat="46.0609715" lon="13.5443049"><ele>619.0</ele><time>2026-05-03T10:54:17.12Z</time></trkpt><trkpt lat="46.0609388" lon="13.5442188"><ele>619.0</ele><time>2026-05-03T10:54:18.119Z</time></trkpt><trkpt lat="46.0608926" lon="13.5441334"><ele>619.0</ele><time>2026-05-03T10:54:19.12Z</time></trkpt><trkpt lat="46.0608467" lon="13.5440476"><ele>619.3333333333334</ele><time>2026-05-03T10:54:20.12Z</time></trkpt><trkpt lat="46.060792" lon="13.5439496"><ele>619.6666666666667</ele><time>2026-05-03T10:54:21.12Z</time></trkpt><trkpt lat="46.0607355" lon="13.5438485"><ele>620.0</ele><time>2026-05-03T10:54:22.119Z</time></trkpt><trkpt lat="46.0606909" lon="13.5437433"><ele>620.3333333333334</ele><time>2026-05-03T10:54:23.12Z</time></trkpt><trkpt lat="46.0606501" lon="13.5436298"><ele>620.6666666666666</ele><time>2026-05-03T10:54:24.12Z</time></trkpt><trkpt lat="46.060606" lon="13.5435156"><ele>621.0</ele><time>2026-05-03T10:54:25.12Z</time></trkpt><trkpt lat="46.0605674" lon="13.5434015"><ele>618.4</ele><time>2026-05-03T10:54:26.119Z</time></trkpt><trkpt lat="46.0605253" lon="13.543288"><ele>615.8</ele><time>2026-05-03T10:54:27.119Z</time></trkpt><trkpt lat="46.0604842" lon="13.5431737"><ele>613.1999999999999</ele><time>2026-05-03T10:54:28.12Z</time></trkpt><trkpt lat="46.0604441" lon="13.5430519"><ele>610.6</ele><time>2026-05-03T10:54:29.12Z</time></trkpt><trkpt lat="46.0604008" lon="13.5429332"><ele>608.0</ele><time>2026-05-03T10:54:30.12Z</time></trkpt><trkpt lat="46.0603552" lon="13.542811"><ele>605.3333333333333</ele><time>2026-05-03T10:54:31.12Z</time></trkpt><trkpt lat="46.0603066" lon="13.5427058"><ele>602.6666666666666</ele><time>2026-05-03T10:54:32.12Z</time></trkpt><trkpt lat="46.060267" lon="13.5425899"><ele>600.0</ele><time>2026-05-03T10:54:33.119Z</time></trkpt><trkpt lat="46.0602173" lon="13.5424867"><ele>597.3333333333334</ele><time>2026-05-03T10:54:34.12Z</time></trkpt><trkpt lat="46.0601563" lon="13.5423881"><ele>594.6666666666667</ele><time>2026-05-03T10:54:35.12Z</time></trkpt><trkpt lat="46.060101" lon="13.5422882"><ele>592.0</ele><time>2026-05-03T10:54:36.119Z</time></trkpt><trkpt lat="46.0600476" lon="13.5421914"><ele>592.0</ele><time>2026-05-03T10:54:37.12Z</time></trkpt><trkpt lat="46.0599927" lon="13.542086"><ele>592.0</ele><time>2026-05-03T10:54:38.12Z</time></trkpt><trkpt lat="46.0599347" lon="13.5420006"><ele>592.0</ele><time>2026-05-03T10:54:39.12Z</time></trkpt><trkpt lat="46.0598706" lon="13.5419235"><ele>592.0</ele><time>2026-05-03T10:54:40.12Z</time></trkpt><trkpt lat="46.0598" lon="13.541841"><ele>592.0</ele><time>2026-05-03T10:54:41.119Z</time></trkpt><trkpt lat="46.0597406" lon="13.5417595"><ele>592.0</ele><time>2026-05-03T10:54:42.12Z</time></trkpt><trkpt lat="46.0596978" lon="13.5416658"><ele>590.8000000000001</ele><time>2026-05-03T10:54:43.12Z</time></trkpt><trkpt lat="46.0596706" lon="13.5415509"><ele>589.6</ele><time>2026-05-03T10:54:44.12Z</time></trkpt><trkpt lat="46.0596386" lon="13.5414291"><ele>588.4000000000001</ele><time>2026-05-03T10:54:45.12Z</time></trkpt><trkpt lat="46.0595923" lon="13.5413035"><ele>587.2</ele><time>2026-05-03T10:54:46.119Z</time></trkpt><trkpt lat="46.0595371" lon="13.5411852"><ele>586.0</ele><time>2026-05-03T10:54:47.12Z</time></trkpt><trkpt lat="46.059471" lon="13.5410882"><ele>582.6</ele><time>2026-05-03T10:54:48.12Z</time></trkpt><trkpt lat="46.0594044" lon="13.54098"><ele>579.2</ele><time>2026-05-03T10:54:49.12Z</time></trkpt><trkpt lat="46.0593449" lon="13.5408802"><ele>575.8</ele><time>2026-05-03T10:54:50.12Z</time></trkpt><trkpt lat="46.0592907" lon="13.54078"><ele>572.4</ele><time>2026-05-03T10:54:51.12Z</time></trkpt><trkpt lat="46.0592356" lon="13.5406896"><ele>569.0</ele><time>2026-05-03T10:54:52.119Z</time></trkpt><trkpt lat="46.0591856" lon="13.5405821"><ele>569.0</ele><time>2026-05-03T10:54:53.12Z</time></trkpt><trkpt lat="46.0591363" lon="13.5404859"><ele>569.0</ele><time>2026-05-03T10:54:54.12Z</time></trkpt><trkpt lat="46.0590857" lon="13.5403985"><ele>569.0</ele><time>2026-05-03T10:54:55.12Z</time></trkpt><trkpt lat="46.0590264" lon="13.5403063"><ele>569.0</ele><time>2026-05-03T10:54:56.12Z</time></trkpt><trkpt lat="46.0589678" lon="13.540218"><ele>569.0</ele><time>2026-05-03T10:54:57.12Z</time></trkpt><trkpt lat="46.0589054" lon="13.5401295"><ele>569.0</ele><time>2026-05-03T10:54:58.119Z</time></trkpt><trkpt lat="46.0588421" lon="13.5400358"><ele>566.0</ele><time>2026-05-03T10:54:59.119Z</time></trkpt><trkpt lat="46.0587852" lon="13.5399409"><ele>563.0</ele><time>2026-05-03T10:55:00.119Z</time></trkpt><trkpt lat="46.0587372" lon="13.539865"><ele>560.0</ele><time>2026-05-03T10:55:01.12Z</time></trkpt><trkpt lat="46.0586899" lon="13.5397471"><ele>557.0</ele><time>2026-05-03T10:55:03.12Z</time></trkpt><trkpt lat="46.058627" lon="13.5396521"><ele>554.0</ele><time>2026-05-03T10:55:05.12Z</time></trkpt><trkpt lat="46.0585211" lon="13.5396316"><ele>554.0</ele><time>2026-05-03T10:55:07.12Z</time></trkpt><trkpt lat="46.0584515" lon="13.5396377"><ele>554.0</ele><time>2026-05-03T10:55:08.119Z</time></trkpt><trkpt lat="46.058331" lon="13.539652"><ele>554.0</ele><time>2026-05-03T10:55:10.12Z</time></trkpt><trkpt lat="46.0582674" lon="13.5396584"><ele>554.0</ele><time>2026-05-03T10:55:11.12Z</time></trkpt><trkpt lat="46.0581977" lon="13.5396567"><ele>554.0</ele><time>2026-05-03T10:55:12.119Z</time></trkpt><trkpt lat="46.0581317" lon="13.5396563"><ele>554.0</ele><time>2026-05-03T10:55:13.12Z</time></trkpt><trkpt lat="46.0580583" lon="13.5396492"><ele>551.5714285714286</ele><time>2026-05-03T10:55:14.119Z</time></trkpt><trkpt lat="46.0579937" lon="13.5396702"><ele>549.1428571428571</ele><time>2026-05-03T10:55:15.12Z</time></trkpt><trkpt lat="46.0579323" lon="13.5397015"><ele>546.7142857142857</ele><time>2026-05-03T10:55:16.119Z</time></trkpt><trkpt lat="46.0578779" lon="13.53975"><ele>544.2857142857142</ele><time>2026-05-03T10:55:17.119Z</time></trkpt><trkpt lat="46.0578234" lon="13.5397969"><ele>541.8571428571429</ele><time>2026-05-03T10:55:18.12Z</time></trkpt><trkpt lat="46.057766" lon="13.5398694"><ele>539.4285714285713</ele><time>2026-05-03T10:55:19.12Z</time></trkpt><trkpt lat="46.0577099" lon="13.5399446"><ele>537.0</ele><time>2026-05-03T10:55:20.119Z</time></trkpt><trkpt lat="46.0576559" lon="13.5400294"><ele>537.0</ele><time>2026-05-03T10:55:21.12Z</time></trkpt><trkpt lat="46.057598" lon="13.5401153"><ele>537.0</ele><time>2026-05-03T10:55:22.12Z</time></trkpt><trkpt lat="46.0575299" lon="13.5402006"><ele>537.0</ele><time>2026-05-03T10:55:23.12Z</time></trkpt><trkpt lat="46.057487" lon="13.5402837"><ele>537.0</ele><time>2026-05-03T10:55:24.12Z</time></trkpt><trkpt lat="46.0574539" lon="13.5403802"><ele>537.0</ele><time>2026-05-03T10:55:25.12Z</time></trkpt><trkpt lat="46.0574303" lon="13.5404815"><ele>537.0</ele><time>2026-05-03T10:55:26.12Z</time></trkpt><trkpt lat="46.0573995" lon="13.540574"><ele>534.0</ele><time>2026-05-03T10:55:27.12Z</time></trkpt><trkpt lat="46.057363" lon="13.5406637"><ele>531.0</ele><time>2026-05-03T10:55:28.12Z</time></trkpt><trkpt lat="46.0573149" lon="13.5407512"><ele>528.0</ele><time>2026-05-03T10:55:29.12Z</time></trkpt><trkpt lat="46.057267" lon="13.5408345"><ele>525.0</ele><time>2026-05-03T10:55:30.12Z</time></trkpt><trkpt lat="46.057209" lon="13.5409146"><ele>522.0</ele><time>2026-05-03T10:55:31.12Z</time></trkpt><trkpt lat="46.0571427" lon="13.5409773"><ele>519.0</ele><time>2026-05-03T10:55:32.119Z</time></trkpt><trkpt lat="46.0570708" lon="13.541046"><ele>519.0</ele><time>2026-05-03T10:55:33.12Z</time></trkpt><trkpt lat="46.0569959" lon="13.5411047"><ele>519.0</ele><time>2026-05-03T10:55:34.12Z</time></trkpt><trkpt lat="46.0569303" lon="13.5411686"><ele>519.0</ele><time>2026-05-03T10:55:35.12Z</time></trkpt><trkpt lat="46.0568621" lon="13.541239"><ele>519.0</ele><time>2026-05-03T10:55:36.119Z</time></trkpt><trkpt lat="46.0568029" lon="13.5413097"><ele>519.0</ele><time>2026-05-03T10:55:37.12Z</time></trkpt><trkpt lat="46.0567448" lon="13.5413907"><ele>519.0</ele><time>2026-05-03T10:55:38.119Z</time></trkpt><trkpt lat="46.0566895" lon="13.5414803"><ele>521.2</ele><time>2026-05-03T10:55:39.12Z</time></trkpt><trkpt lat="46.0566376" lon="13.5415682"><ele>523.4</ele><time>2026-05-03T10:55:40.12Z</time></trkpt><trkpt lat="46.0565644" lon="13.5417117"><ele>525.6</ele><time>2026-05-03T10:55:42.12Z</time></trkpt><trkpt lat="46.0565114" lon="13.5418431"><ele>527.8</ele><time>2026-05-03T10:55:44.12Z</time></trkpt><trkpt lat="46.0564812" lon="13.5419286"><ele>530.0</ele><time>2026-05-03T10:55:46.119Z</time></trkpt><trkpt lat="46.0564046" lon="13.5418718"><ele>524.4</ele><time>2026-05-03T10:55:49.12Z</time></trkpt><trkpt lat="46.0563827" lon="13.5416745"><ele>518.8</ele><time>2026-05-03T10:55:51.12Z</time></trkpt><trkpt lat="46.0564042" lon="13.5415568"><ele>513.2</ele><time>2026-05-03T10:55:52.12Z</time></trkpt><trkpt lat="46.0564285" lon="13.5414278"><ele>507.6</ele><time>2026-05-03T10:55:53.119Z</time></trkpt><trkpt lat="46.05646" lon="13.541303"><ele>502.0</ele><time>2026-05-03T10:55:54.12Z</time></trkpt><trkpt lat="46.0564959" lon="13.5411765"><ele>500.6666666666667</ele><time>2026-05-03T10:55:55.12Z</time></trkpt><trkpt lat="46.0565543" lon="13.5410569"><ele>499.33333333333337</ele><time>2026-05-03T10:55:56.12Z</time></trkpt><trkpt lat="46.0566143" lon="13.5409538"><ele>498.0</ele><time>2026-05-03T10:55:57.119Z</time></trkpt><trkpt lat="46.0566549" lon="13.5408658"><ele>496.66666666666663</ele><time>2026-05-03T10:55:58.119Z</time></trkpt><trkpt lat="46.0566743" lon="13.540774"><ele>495.3333333333333</ele><time>2026-05-03T10:55:59.119Z</time></trkpt><trkpt lat="46.0566542" lon="13.5406505"><ele>494.0</ele><time>2026-05-03T10:56:00.119Z</time></trkpt><trkpt lat="46.0565971" lon="13.5405129"><ele>493.75</ele><time>2026-05-03T10:56:01.12Z</time></trkpt><trkpt lat="46.0565386" lon="13.5403574"><ele>493.5</ele><time>2026-05-03T10:56:02.119Z</time></trkpt><trkpt lat="46.0564791" lon="13.5402027"><ele>493.25</ele><time>2026-05-03T10:56:03.119Z</time></trkpt><trkpt lat="46.0564129" lon="13.5400844"><ele>493.0</ele><time>2026-05-03T10:56:04.12Z</time></trkpt><trkpt lat="46.0563469" lon="13.5399672"><ele>493.0</ele><time>2026-05-03T10:56:05.12Z</time></trkpt><trkpt lat="46.0562798" lon="13.5398448"><ele>492.99999999999994</ele><time>2026-05-03T10:56:06.12Z</time></trkpt><trkpt lat="46.0562219" lon="13.5397181"><ele>492.99999999999994</ele><time>2026-05-03T10:56:07.12Z</time></trkpt><trkpt lat="46.0561663" lon="13.5395761"><ele>493.0</ele><time>2026-05-03T10:56:08.12Z</time></trkpt><trkpt lat="46.0561161" lon="13.5394321"><ele>493.0</ele><time>2026-05-03T10:56:09.12Z</time></trkpt><trkpt lat="46.0560629" lon="13.5392834"><ele>493.5</ele><time>2026-05-03T10:56:10.12Z</time></trkpt><trkpt lat="46.0560204" lon="13.5391194"><ele>494.0</ele><time>2026-05-03T10:56:11.119Z</time></trkpt><trkpt lat="46.0559939" lon="13.5389483"><ele>494.5</ele><time>2026-05-03T10:56:12.12Z</time></trkpt><trkpt lat="46.0559797" lon="13.5387695"><ele>495.0</ele><time>2026-05-03T10:56:13.12Z</time></trkpt><trkpt lat="46.0559869" lon="13.5385871"><ele>495.0</ele><time>2026-05-03T10:56:14.119Z</time></trkpt><trkpt lat="46.0560139" lon="13.5383987"><ele>495.0</ele><time>2026-05-03T10:56:15.119Z</time></trkpt><trkpt lat="46.0560441" lon="13.5382297"><ele>495.0</ele><time>2026-05-03T10:56:16.118Z</time></trkpt><trkpt lat="46.0560649" lon="13.538084"><ele>495.0</ele><time>2026-05-03T10:56:17.119Z</time></trkpt><trkpt lat="46.0560875" lon="13.5379804"><ele>495.0</ele><time>2026-05-03T10:56:18.119Z</time></trkpt><trkpt lat="46.0561135" lon="13.5378868"><ele>495.0</ele><time>2026-05-03T10:56:19.119Z</time></trkpt><trkpt lat="46.0561555" lon="13.5377358"><ele>492.0</ele><time>2026-05-03T10:56:21.119Z</time></trkpt><trkpt lat="46.0561665" lon="13.5376456"><ele>492.0</ele><time>2026-05-03T10:56:23.119Z</time></trkpt><trkpt lat="46.0561796" lon="13.5375252"><ele>492.0</ele><time>2026-05-03T10:56:36.119Z</time></trkpt></trkseg><trkseg><trkpt lat="46.0562292" lon="13.5374527"><ele>492.0</ele><time>2026-05-03T11:37:08.202Z</time></trkpt><trkpt lat="46.0562519" lon="13.5373671"><ele>492.0</ele><time>2026-05-03T11:37:12.131Z</time></trkpt><trkpt lat="46.0562812" lon="13.5372649"><ele>492.0</ele><time>2026-05-03T11:37:39.131Z</time></trkpt><trkpt lat="46.0563109" lon="13.5371812"><ele>492.0</ele><time>2026-05-03T11:37:41.131Z</time></trkpt><trkpt lat="46.0563629" lon="13.5370817"><ele>492.0</ele><time>2026-05-03T11:37:44.131Z</time></trkpt><trkpt lat="46.0564329" lon="13.5370116"><ele>492.0</ele><time>2026-05-03T11:37:47.131Z</time></trkpt><trkpt lat="46.0565108" lon="13.5369399"><ele>491.5</ele><time>2026-05-03T11:37:50.131Z</time></trkpt><trkpt lat="46.056583" lon="13.5368761"><ele>491.0</ele><time>2026-05-03T11:37:52.131Z</time></trkpt><trkpt lat="46.0566592" lon="13.5368263"><ele>490.5</ele><time>2026-05-03T11:37:54.131Z</time></trkpt><trkpt lat="46.0567518" lon="13.5367687"><ele>490.0</ele><time>2026-05-03T11:37:57.131Z</time></trkpt><trkpt lat="46.0568379" lon="13.5367098"><ele>489.5</ele><time>2026-05-03T11:37:59.131Z</time></trkpt><trkpt lat="46.0568822" lon="13.53664"><ele>489.0</ele><time>2026-05-03T11:38:00.13Z</time></trkpt><trkpt lat="46.0569496" lon="13.5364932"><ele>489.0</ele><time>2026-05-03T11:38:02.13Z</time></trkpt><trkpt lat="46.0570155" lon="13.5363487"><ele>489.0</ele><time>2026-05-03T11:38:04.131Z</time></trkpt><trkpt lat="46.0570642" lon="13.5361991"><ele>489.0</ele><time>2026-05-03T11:38:06.131Z</time></trkpt><trkpt lat="46.0571207" lon="13.5360626"><ele>489.0</ele><time>2026-05-03T11:38:08.131Z</time></trkpt><trkpt lat="46.0571939" lon="13.5359322"><ele>488.28571428571433</ele><time>2026-05-03T11:38:10.13Z</time></trkpt><trkpt lat="46.0572529" lon="13.5358628"><ele>487.5714285714286</ele><time>2026-05-03T11:38:11.131Z</time></trkpt><trkpt lat="46.0573223" lon="13.5358069"><ele>486.8571428571429</ele><time>2026-05-03T11:38:12.131Z</time></trkpt><trkpt lat="46.0573889" lon="13.5357603"><ele>486.1428571428571</ele><time>2026-05-03T11:38:13.131Z</time></trkpt><trkpt lat="46.0574545" lon="13.5357178"><ele>485.4285714285714</ele><time>2026-05-03T11:38:14.131Z</time></trkpt><trkpt lat="46.0575207" lon="13.5356815"><ele>484.71428571428567</ele><time>2026-05-03T11:38:15.131Z</time></trkpt><trkpt lat="46.0575873" lon="13.5356409"><ele>484.0</ele><time>2026-05-03T11:38:16.13Z</time></trkpt><trkpt lat="46.0576588" lon="13.5356062"><ele>484.00000000000006</ele><time>2026-05-03T11:38:17.131Z</time></trkpt><trkpt lat="46.0577425" lon="13.5355861"><ele>484.0</ele><time>2026-05-03T11:38:18.131Z</time></trkpt><trkpt lat="46.0578259" lon="13.5355712"><ele>484.0</ele><time>2026-05-03T11:38:19.13Z</time></trkpt><trkpt lat="46.0579081" lon="13.5355734"><ele>484.0</ele><time>2026-05-03T11:38:20.131Z</time></trkpt><trkpt lat="46.0579911" lon="13.5355769"><ele>484.00000000000006</ele><time>2026-05-03T11:38:21.131Z</time></trkpt><trkpt lat="46.0580628" lon="13.5355954"><ele>484.0</ele><time>2026-05-03T11:38:22.131Z</time></trkpt><trkpt lat="46.058129" lon="13.5356136"><ele>484.00000000000006</ele><time>2026-05-03T11:38:23.131Z</time></trkpt><trkpt lat="46.0581924" lon="13.5356182"><ele>484.0</ele><time>2026-05-03T11:38:24.13Z</time></trkpt><trkpt lat="46.0583065" lon="13.5356282"><ele>484.0</ele><time>2026-05-03T11:38:26.13Z</time></trkpt><trkpt lat="46.0583883" lon="13.5356016"><ele>484.0</ele><time>2026-05-03T11:38:28.131Z</time></trkpt><trkpt lat="46.0584064" lon="13.5354795"><ele>484.00000000000006</ele><time>2026-05-03T11:38:30.131Z</time></trkpt><trkpt lat="46.0583522" lon="13.5353823"><ele>484.0</ele><time>2026-05-03T11:38:32.131Z</time></trkpt><trkpt lat="46.0582775" lon="13.5353084"><ele>481.00000000000006</ele><time>2026-05-03T11:38:34.13Z</time></trkpt><trkpt lat="46.0581979" lon="13.5352857"><ele>478.0</ele><time>2026-05-03T11:38:35.13Z</time></trkpt><trkpt lat="46.0581152" lon="13.5352458"><ele>475.0</ele><time>2026-05-03T11:38:36.131Z</time></trkpt><trkpt lat="46.0580223" lon="13.5351899"><ele>472.0</ele><time>2026-05-03T11:38:37.13Z</time></trkpt><trkpt lat="46.0579459" lon="13.5351289"><ele>469.00000000000006</ele><time>2026-05-03T11:38:38.131Z</time></trkpt><trkpt lat="46.0578815" lon="13.53506"><ele>466.0</ele><time>2026-05-03T11:38:39.131Z</time></trkpt><trkpt lat="46.0578237" lon="13.5350036"><ele>466.00000000000006</ele><time>2026-05-03T11:38:40.13Z</time></trkpt><trkpt lat="46.0577563" lon="13.534904"><ele>466.0</ele><time>2026-05-03T11:38:42.131Z</time></trkpt><trkpt lat="46.0576933" lon="13.5348495"><ele>466.0</ele><time>2026-05-03T11:38:43.131Z</time></trkpt><trkpt lat="46.0576308" lon="13.5347946"><ele>466.0</ele><time>2026-05-03T11:38:44.13Z</time></trkpt><trkpt lat="46.0575641" lon="13.5347531"><ele>466.00000000000006</ele><time>2026-05-03T11:38:45.131Z</time></trkpt><trkpt lat="46.0574872" lon="13.5347193"><ele>466.0</ele><time>2026-05-03T11:38:46.131Z</time></trkpt><trkpt lat="46.0574035" lon="13.5347074"><ele>465.50000000000006</ele><time>2026-05-03T11:38:47.131Z</time></trkpt><trkpt lat="46.0573182" lon="13.534702"><ele>465.0</ele><time>2026-05-03T11:38:48.131Z</time></trkpt><trkpt lat="46.0572363" lon="13.534708"><ele>464.5</ele><time>2026-05-03T11:38:49.131Z</time></trkpt><trkpt lat="46.0571464" lon="13.5347083"><ele>464.0</ele><time>2026-05-03T11:38:50.131Z</time></trkpt><trkpt lat="46.0570573" lon="13.5347195"><ele>463.50000000000006</ele><time>2026-05-03T11:38:51.131Z</time></trkpt><trkpt lat="46.0569657" lon="13.5347282"><ele>463.0</ele><time>2026-05-03T11:38:52.131Z</time></trkpt><trkpt lat="46.0568724" lon="13.5347231"><ele>463.00000000000006</ele><time>2026-05-03T11:38:53.131Z</time></trkpt><trkpt lat="46.056782" lon="13.5347082"><ele>463.0</ele><time>2026-05-03T11:38:54.131Z</time></trkpt><trkpt lat="46.0567013" lon="13.5346897"><ele>463.0</ele><time>2026-05-03T11:38:55.131Z</time></trkpt><trkpt lat="46.056613" lon="13.5346812"><ele>463.0</ele><time>2026-05-03T11:38:56.13Z</time></trkpt><trkpt lat="46.0565339" lon="13.5346586"><ele>463.00000000000006</ele><time>2026-05-03T11:38:57.131Z</time></trkpt><trkpt lat="46.0564466" lon="13.5346357"><ele>463.0</ele><time>2026-05-03T11:38:58.131Z</time></trkpt><trkpt lat="46.0563567" lon="13.5346137"><ele>462.59999999999997</ele><time>2026-05-03T11:38:59.13Z</time></trkpt><trkpt lat="46.0562684" lon="13.534579"><ele>462.19999999999993</ele><time>2026-05-03T11:39:00.13Z</time></trkpt><trkpt lat="46.0561834" lon="13.5345289"><ele>461.8</ele><time>2026-05-03T11:39:01.13Z</time></trkpt><trkpt lat="46.0561045" lon="13.5344676"><ele>461.4</ele><time>2026-05-03T11:39:02.13Z</time></trkpt><trkpt lat="46.0560262" lon="13.5343915"><ele>461.0</ele><time>2026-05-03T11:39:03.131Z</time></trkpt><trkpt lat="46.0559539" lon="13.5343011"><ele>458.6</ele><time>2026-05-03T11:39:04.131Z</time></trkpt><trkpt lat="46.0558942" lon="13.5341907"><ele>456.20000000000005</ele><time>2026-05-03T11:39:05.131Z</time></trkpt><trkpt lat="46.0558351" lon="13.5340871"><ele>453.79999999999995</ele><time>2026-05-03T11:39:06.131Z</time></trkpt><trkpt lat="46.0557657" lon="13.5339809"><ele>451.4</ele><time>2026-05-03T11:39:07.13Z</time></trkpt><trkpt lat="46.0556832" lon="13.5338718"><ele>449.0</ele><time>2026-05-03T11:39:08.131Z</time></trkpt><trkpt lat="46.0555912" lon="13.5337809"><ele>445.0</ele><time>2026-05-03T11:39:09.131Z</time></trkpt><trkpt lat="46.0554953" lon="13.5336979"><ele>441.0</ele><time>2026-05-03T11:39:10.131Z</time></trkpt><trkpt lat="46.0553897" lon="13.5336145"><ele>437.0</ele><time>2026-05-03T11:39:11.131Z</time></trkpt><trkpt lat="46.0552965" lon="13.533518"><ele>433.0</ele><time>2026-05-03T11:39:12.131Z</time></trkpt><trkpt lat="46.0552154" lon="13.5333976"><ele>433.0</ele><time>2026-05-03T11:39:13.13Z</time></trkpt><trkpt lat="46.0551141" lon="13.5332909"><ele>433.0</ele><time>2026-05-03T11:39:14.13Z</time></trkpt><trkpt lat="46.0550265" lon="13.5332187"><ele>433.0</ele><time>2026-05-03T11:39:15.131Z</time></trkpt><trkpt lat="46.0549208" lon="13.5331423"><ele>433.0</ele><time>2026-05-03T11:39:16.131Z</time></trkpt><trkpt lat="46.0548202" lon="13.5330637"><ele>434.2</ele><time>2026-05-03T11:39:17.13Z</time></trkpt><trkpt lat="46.054721" lon="13.5329842"><ele>435.4</ele><time>2026-05-03T11:39:18.131Z</time></trkpt><trkpt lat="46.0546337" lon="13.5329161"><ele>436.59999999999997</ele><time>2026-05-03T11:39:19.131Z</time></trkpt><trkpt lat="46.0545352" lon="13.53285"><ele>437.79999999999995</ele><time>2026-05-03T11:39:20.131Z</time></trkpt><trkpt lat="46.0544352" lon="13.5327776"><ele>439.0</ele><time>2026-05-03T11:39:21.13Z</time></trkpt><trkpt lat="46.0543408" lon="13.532708"><ele>435.0</ele><time>2026-05-03T11:39:22.131Z</time></trkpt><trkpt lat="46.0542431" lon="13.5326433"><ele>431.0</ele><time>2026-05-03T11:39:23.131Z</time></trkpt><trkpt lat="46.0541401" lon="13.5325933"><ele>427.0</ele><time>2026-05-03T11:39:24.131Z</time></trkpt><trkpt lat="46.0540487" lon="13.5325557"><ele>423.0</ele><time>2026-05-03T11:39:25.131Z</time></trkpt><trkpt lat="46.0539664" lon="13.5325386"><ele>419.0</ele><time>2026-05-03T11:39:26.131Z</time></trkpt><trkpt lat="46.0538504" lon="13.5325396"><ele>418.6</ele><time>2026-05-03T11:39:28.13Z</time></trkpt><trkpt lat="46.0537441" lon="13.5325899"><ele>418.2</ele><time>2026-05-03T11:39:30.13Z</time></trkpt><trkpt lat="46.0536539" lon="13.5325595"><ele>417.8</ele><time>2026-05-03T11:39:32.13Z</time></trkpt><trkpt lat="46.0536204" lon="13.5323931"><ele>417.40000000000003</ele><time>2026-05-03T11:39:33.131Z</time></trkpt><trkpt lat="46.0537186" lon="13.5323575"><ele>417.0</ele><time>2026-05-03T11:39:35.131Z</time></trkpt><trkpt lat="46.053796" lon="13.5323548"><ele>417.0</ele><time>2026-05-03T11:39:36.131Z</time></trkpt><trkpt lat="46.0538815" lon="13.5323466"><ele>417.0</ele><time>2026-05-03T11:39:37.131Z</time></trkpt><trkpt lat="46.0539737" lon="13.5323206"><ele>417.0</ele><time>2026-05-03T11:39:38.13Z</time></trkpt><trkpt lat="46.0540691" lon="13.5322641"><ele>417.0</ele><time>2026-05-03T11:39:39.131Z</time></trkpt><trkpt lat="46.0541575" lon="13.5321885"><ele>417.0</ele><time>2026-05-03T11:39:40.131Z</time></trkpt><trkpt lat="46.0542432" lon="13.5321069"><ele>410.75</ele><time>2026-05-03T11:39:41.13Z</time></trkpt><trkpt lat="46.0543339" lon="13.5320362"><ele>404.5</ele><time>2026-05-03T11:39:42.13Z</time></trkpt><trkpt lat="46.0544383" lon="13.5319855"><ele>398.25</ele><time>2026-05-03T11:39:43.13Z</time></trkpt><trkpt lat="46.0545575" lon="13.5319631"><ele>392.0</ele><time>2026-05-03T11:39:44.131Z</time></trkpt><trkpt lat="46.0546833" lon="13.5320009"><ele>397.25</ele><time>2026-05-03T11:39:45.13Z</time></trkpt><trkpt lat="46.0547937" lon="13.5320769"><ele>402.5</ele><time>2026-05-03T11:39:46.13Z</time></trkpt><trkpt lat="46.0548905" lon="13.5321689"><ele>407.75</ele><time>2026-05-03T11:39:47.131Z</time></trkpt><trkpt lat="46.0549871" lon="13.5322586"><ele>413.0</ele><time>2026-05-03T11:39:48.13Z</time></trkpt><trkpt lat="46.0550841" lon="13.5323353"><ele>413.0</ele><time>2026-05-03T11:39:49.13Z</time></trkpt><trkpt lat="46.0552071" lon="13.5323612"><ele>413.0</ele><time>2026-05-03T11:39:50.13Z</time></trkpt><trkpt lat="46.0553366" lon="13.5323525"><ele>413.0</ele><time>2026-05-03T11:39:51.13Z</time></trkpt><trkpt lat="46.0554466" lon="13.5323186"><ele>413.0</ele><time>2026-05-03T11:39:52.131Z</time></trkpt><trkpt lat="46.0555603" lon="13.5322613"><ele>413.0</ele><time>2026-05-03T11:39:53.131Z</time></trkpt><trkpt lat="46.0556729" lon="13.5321724"><ele>413.0</ele><time>2026-05-03T11:39:54.131Z</time></trkpt><trkpt lat="46.0557803" lon="13.5320767"><ele>413.0</ele><time>2026-05-03T11:39:55.131Z</time></trkpt><trkpt lat="46.0558866" lon="13.5319927"><ele>413.0</ele><time>2026-05-03T11:39:56.131Z</time></trkpt><trkpt lat="46.0559881" lon="13.5319182"><ele>408.3333333333333</ele><time>2026-05-03T11:39:57.131Z</time></trkpt><trkpt lat="46.056075" lon="13.5318524"><ele>403.66666666666663</ele><time>2026-05-03T11:39:58.13Z</time></trkpt><trkpt lat="46.0561204" lon="13.5317638"><ele>399.0</ele><time>2026-05-03T11:39:59.131Z</time></trkpt><trkpt lat="46.0561335" lon="13.5316615"><ele>394.33333333333337</ele><time>2026-05-03T11:40:00.131Z</time></trkpt><trkpt lat="46.0561042" lon="13.5315751"><ele>389.6666666666667</ele><time>2026-05-03T11:40:01.131Z</time></trkpt><trkpt lat="46.0559691" lon="13.5315948"><ele>385.0</ele><time>2026-05-03T11:40:03.13Z</time></trkpt><trkpt lat="46.0558782" lon="13.5316426"><ele>385.8</ele><time>2026-05-03T11:40:04.131Z</time></trkpt><trkpt lat="46.0557796" lon="13.5316696"><ele>386.6</ele><time>2026-05-03T11:40:05.131Z</time></trkpt><trkpt lat="46.055691" lon="13.5317024"><ele>387.4</ele><time>2026-05-03T11:40:06.131Z</time></trkpt><trkpt lat="46.055609" lon="13.5317414"><ele>388.2</ele><time>2026-05-03T11:40:07.131Z</time></trkpt><trkpt lat="46.0555226" lon="13.5318076"><ele>389.0</ele><time>2026-05-03T11:40:08.131Z</time></trkpt><trkpt lat="46.0554345" lon="13.5318872"><ele>389.0</ele><time>2026-05-03T11:40:09.13Z</time></trkpt><trkpt lat="46.0553419" lon="13.531941"><ele>389.0</ele><time>2026-05-03T11:40:10.131Z</time></trkpt><trkpt lat="46.0552588" lon="13.531958"><ele>389.0</ele><time>2026-05-03T11:40:11.131Z</time></trkpt><trkpt lat="46.0551693" lon="13.531893"><ele>389.0</ele><time>2026-05-03T11:40:12.131Z</time></trkpt><trkpt lat="46.0550977" lon="13.5317888"><ele>389.0</ele><time>2026-05-03T11:40:13.131Z</time></trkpt><trkpt lat="46.0550211" lon="13.53165"><ele>389.75</ele><time>2026-05-03T11:40:14.13Z</time></trkpt><trkpt lat="46.0549387" lon="13.5315251"><ele>390.5</ele><time>2026-05-03T11:40:15.131Z</time></trkpt><trkpt lat="46.0548406" lon="13.5314447"><ele>391.25</ele><time>2026-05-03T11:40:16.131Z</time></trkpt><trkpt lat="46.0547357" lon="13.5313735"><ele>392.0</ele><time>2026-05-03T11:40:17.131Z</time></trkpt><trkpt lat="46.054622" lon="13.5313126"><ele>392.0</ele><time>2026-05-03T11:40:18.131Z</time></trkpt><trkpt lat="46.0544968" lon="13.5312874"><ele>392.0</ele><time>2026-05-03T11:40:19.131Z</time></trkpt><trkpt lat="46.0543673" lon="13.5312862"><ele>392.0</ele><time>2026-05-03T11:40:20.131Z</time></trkpt><trkpt lat="46.0542498" lon="13.5313151"><ele>392.0</ele><time>2026-05-03T11:40:21.131Z</time></trkpt><trkpt lat="46.0541369" lon="13.5313533"><ele>391.0</ele><time>2026-05-03T11:40:22.13Z</time></trkpt><trkpt lat="46.0540165" lon="13.5313867"><ele>390.0</ele><time>2026-05-03T11:40:23.131Z</time></trkpt><trkpt lat="46.0539015" lon="13.5313889"><ele>389.0</ele><time>2026-05-03T11:40:24.131Z</time></trkpt><trkpt lat="46.0537846" lon="13.53133"><ele>388.0</ele><time>2026-05-03T11:40:25.13Z</time></trkpt><trkpt lat="46.0536768" lon="13.5312431"><ele>388.0</ele><time>2026-05-03T11:40:26.131Z</time></trkpt><trkpt lat="46.0535608" lon="13.5312028"><ele>388.0</ele><time>2026-05-03T11:40:27.13Z</time></trkpt><trkpt lat="46.0534492" lon="13.5312223"><ele>388.0</ele><time>2026-05-03T11:40:28.131Z</time></trkpt><trkpt lat="46.053336" lon="13.5312456"><ele>388.0</ele><time>2026-05-03T11:40:29.131Z</time></trkpt><trkpt lat="46.0532336" lon="13.5312653"><ele>388.0</ele><time>2026-05-03T11:40:30.13Z</time></trkpt><trkpt lat="46.0531622" lon="13.5312151"><ele>392.25</ele><time>2026-05-03T11:40:31.13Z</time></trkpt><trkpt lat="46.0531246" lon="13.5310847"><ele>396.5</ele><time>2026-05-03T11:40:32.129Z</time></trkpt><trkpt lat="46.0531258" lon="13.5309257"><ele>400.75</ele><time>2026-05-03T11:40:33.13Z</time></trkpt><trkpt lat="46.0531732" lon="13.5307641"><ele>405.0</ele><time>2026-05-03T11:40:34.13Z</time></trkpt><trkpt lat="46.0532338" lon="13.530564"><ele>394.75</ele><time>2026-05-03T11:40:35.13Z</time></trkpt><trkpt lat="46.0533087" lon="13.5303872"><ele>384.5</ele><time>2026-05-03T11:40:36.129Z</time></trkpt><trkpt lat="46.0533677" lon="13.5302187"><ele>374.25</ele><time>2026-05-03T11:40:37.13Z</time></trkpt><trkpt lat="46.0534017" lon="13.530035"><ele>364.0</ele><time>2026-05-03T11:40:38.13Z</time></trkpt><trkpt lat="46.0534208" lon="13.5298428"><ele>364.0</ele><time>2026-05-03T11:40:39.13Z</time></trkpt><trkpt lat="46.0534648" lon="13.5296699"><ele>364.0</ele><time>2026-05-03T11:40:40.129Z</time></trkpt><trkpt lat="46.05354" lon="13.5295148"><ele>364.0</ele><time>2026-05-03T11:40:41.13Z</time></trkpt><trkpt lat="46.0536378" lon="13.5293695"><ele>364.0</ele><time>2026-05-03T11:40:42.13Z</time></trkpt><trkpt lat="46.053732" lon="13.5292276"><ele>364.5</ele><time>2026-05-03T11:40:43.13Z</time></trkpt><trkpt lat="46.0537997" lon="13.529087"><ele>365.0</ele><time>2026-05-03T11:40:44.13Z</time></trkpt><trkpt lat="46.0538571" lon="13.5289389"><ele>365.5</ele><time>2026-05-03T11:40:45.13Z</time></trkpt><trkpt lat="46.0538974" lon="13.5287706"><ele>366.0</ele><time>2026-05-03T11:40:46.13Z</time></trkpt><trkpt lat="46.0538935" lon="13.5286107"><ele>365.0</ele><time>2026-05-03T11:40:47.13Z</time></trkpt><trkpt lat="46.0538409" lon="13.5284613"><ele>364.0</ele><time>2026-05-03T11:40:48.13Z</time></trkpt><trkpt lat="46.0537725" lon="13.5283595"><ele>363.0</ele><time>2026-05-03T11:40:49.13Z</time></trkpt><trkpt lat="46.0536971" lon="13.5282622"><ele>362.0</ele><time>2026-05-03T11:40:50.13Z</time></trkpt><trkpt lat="46.0536489" lon="13.5281237"><ele>361.0</ele><time>2026-05-03T11:40:51.13Z</time></trkpt><trkpt lat="46.0536511" lon="13.5279748"><ele>361.0</ele><time>2026-05-03T11:40:52.129Z</time></trkpt><trkpt lat="46.0536929" lon="13.5278154"><ele>361.0</ele><time>2026-05-03T11:40:53.13Z</time></trkpt><trkpt lat="46.0537527" lon="13.5276461"><ele>361.0</ele><time>2026-05-03T11:40:54.13Z</time></trkpt><trkpt lat="46.0538124" lon="13.5274591"><ele>361.0</ele><time>2026-05-03T11:40:55.13Z</time></trkpt><trkpt lat="46.0538579" lon="13.5272566"><ele>359.66666666666663</ele><time>2026-05-03T11:40:56.129Z</time></trkpt><trkpt lat="46.0538779" lon="13.5270429"><ele>358.3333333333333</ele><time>2026-05-03T11:40:57.13Z</time></trkpt><trkpt lat="46.0538757" lon="13.5268213"><ele>357.0</ele><time>2026-05-03T11:40:58.129Z</time></trkpt><trkpt lat="46.0538719" lon="13.5265959"><ele>357.0</ele><time>2026-05-03T11:40:59.13Z</time></trkpt><trkpt lat="46.0538687" lon="13.5263729"><ele>357.0</ele><time>2026-05-03T11:41:00.13Z</time></trkpt><trkpt lat="46.0538654" lon="13.5261593"><ele>357.0</ele><time>2026-05-03T11:41:01.13Z</time></trkpt><trkpt lat="46.0538544" lon="13.5259474"><ele>356.5</ele><time>2026-05-03T11:41:02.13Z</time></trkpt><trkpt lat="46.0538451" lon="13.5257385"><ele>356.0</ele><time>2026-05-03T11:41:03.129Z</time></trkpt><trkpt lat="46.0538242" lon="13.5255412"><ele>355.5</ele><time>2026-05-03T11:41:04.13Z</time></trkpt><trkpt lat="46.0538085" lon="13.5253547"><ele>355.0</ele><time>2026-05-03T11:41:05.13Z</time></trkpt><trkpt lat="46.0538134" lon="13.5251696"><ele>353.75</ele><time>2026-05-03T11:41:06.13Z</time></trkpt><trkpt lat="46.0538415" lon="13.5249952"><ele>352.5</ele><time>2026-05-03T11:41:07.13Z</time></trkpt><trkpt lat="46.0538819" lon="13.5248433"><ele>351.25</ele><time>2026-05-03T11:41:08.129Z</time></trkpt><trkpt lat="46.053964" lon="13.524724"><ele>350.0</ele><time>2026-05-03T11:41:09.13Z</time></trkpt><trkpt lat="46.0540696" lon="13.5246385"><ele>340.75</ele><time>2026-05-03T11:41:10.13Z</time></trkpt><trkpt lat="46.0541642" lon="13.5245334"><ele>331.5</ele><time>2026-05-03T11:41:11.129Z</time></trkpt><trkpt lat="46.0542394" lon="13.5243778"><ele>322.25</ele><time>2026-05-03T11:41:12.13Z</time></trkpt><trkpt lat="46.0542857" lon="13.524184"><ele>313.0</ele><time>2026-05-03T11:41:13.13Z</time></trkpt><trkpt lat="46.0543086" lon="13.5240014"><ele>313.0</ele><time>2026-05-03T11:41:14.13Z</time></trkpt><trkpt lat="46.0543323" lon="13.5238291"><ele>313.0</ele><time>2026-05-03T11:41:15.13Z</time></trkpt><trkpt lat="46.0543584" lon="13.5236575"><ele>313.0</ele><time>2026-05-03T11:41:16.13Z</time></trkpt><trkpt lat="46.0543762" lon="13.5234777"><ele>313.0</ele><time>2026-05-03T11:41:17.13Z</time></trkpt><trkpt lat="46.0544093" lon="13.5232891"><ele>312.5</ele><time>2026-05-03T11:41:18.129Z</time></trkpt><trkpt lat="46.0544559" lon="13.5231024"><ele>312.0</ele><time>2026-05-03T11:41:19.13Z</time></trkpt><trkpt lat="46.0545125" lon="13.5229139"><ele>311.5</ele><time>2026-05-03T11:41:20.13Z</time></trkpt><trkpt lat="46.0545611" lon="13.522708"><ele>311.0</ele><time>2026-05-03T11:41:21.13Z</time></trkpt><trkpt lat="46.0545922" lon="13.5225025"><ele>310.0</ele><time>2026-05-03T11:41:22.13Z</time></trkpt><trkpt lat="46.0546083" lon="13.5223056"><ele>309.0</ele><time>2026-05-03T11:41:23.13Z</time></trkpt><trkpt lat="46.0546126" lon="13.5221093"><ele>308.0</ele><time>2026-05-03T11:41:24.13Z</time></trkpt><trkpt lat="46.0545999" lon="13.5218966"><ele>307.0</ele><time>2026-05-03T11:41:25.13Z</time></trkpt><trkpt lat="46.0545686" lon="13.5216769"><ele>306.0</ele><time>2026-05-03T11:41:26.13Z</time></trkpt><trkpt lat="46.0545396" lon="13.5214668"><ele>305.0</ele><time>2026-05-03T11:41:27.13Z</time></trkpt><trkpt lat="46.0545109" lon="13.5212609"><ele>304.0</ele><time>2026-05-03T11:41:28.13Z</time></trkpt><trkpt lat="46.0544752" lon="13.5210795"><ele>303.0</ele><time>2026-05-03T11:41:29.13Z</time></trkpt><trkpt lat="46.0544249" lon="13.5209125"><ele>302.0</ele><time>2026-05-03T11:41:30.129Z</time></trkpt><trkpt lat="46.0543609" lon="13.5207706"><ele>301.0</ele><time>2026-05-03T11:41:31.129Z</time></trkpt><trkpt lat="46.054266" lon="13.5206732"><ele>300.0</ele><time>2026-05-03T11:41:32.13Z</time></trkpt><trkpt lat="46.0541689" lon="13.5206162"><ele>299.0</ele><time>2026-05-03T11:41:33.129Z</time></trkpt><trkpt lat="46.054074" lon="13.5205946"><ele>298.0</ele><time>2026-05-03T11:41:34.13Z</time></trkpt><trkpt lat="46.0539807" lon="13.5205681"><ele>298.0</ele><time>2026-05-03T11:41:35.13Z</time></trkpt><trkpt lat="46.053904" lon="13.520534"><ele>298.0</ele><time>2026-05-03T11:41:36.13Z</time></trkpt><trkpt lat="46.0538746" lon="13.5203783"><ele>298.0</ele><time>2026-05-03T11:41:38.129Z</time></trkpt><trkpt lat="46.0539311" lon="13.5203261"><ele>298.0</ele><time>2026-05-03T11:41:39.129Z</time></trkpt><trkpt lat="46.0540484" lon="13.5202947"><ele>298.0</ele><time>2026-05-03T11:41:40.13Z</time></trkpt><trkpt lat="46.0541623" lon="13.5202928"><ele>294.25</ele><time>2026-05-03T11:41:41.13Z</time></trkpt><trkpt lat="46.0542784" lon="13.5202765"><ele>290.5</ele><time>2026-05-03T11:41:42.13Z</time></trkpt><trkpt lat="46.0543962" lon="13.5202414"><ele>286.75</ele><time>2026-05-03T11:41:43.13Z</time></trkpt><trkpt lat="46.054517" lon="13.52022"><ele>283.0</ele><time>2026-05-03T11:41:44.13Z</time></trkpt><trkpt lat="46.0546475" lon="13.5201917"><ele>283.0</ele><time>2026-05-03T11:41:45.13Z</time></trkpt><trkpt lat="46.0547502" lon="13.5201008"><ele>283.0</ele><time>2026-05-03T11:41:46.129Z</time></trkpt><trkpt lat="46.0548069" lon="13.5199594"><ele>283.0</ele><time>2026-05-03T11:41:47.13Z</time></trkpt><trkpt lat="46.0548423" lon="13.5197522"><ele>283.0</ele><time>2026-05-03T11:41:48.129Z</time></trkpt><trkpt lat="46.0548926" lon="13.5195258"><ele>279.66666666666663</ele><time>2026-05-03T11:41:49.13Z</time></trkpt><trkpt lat="46.0549608" lon="13.5193404"><ele>276.3333333333333</ele><time>2026-05-03T11:41:50.13Z</time></trkpt><trkpt lat="46.0550484" lon="13.5191485"><ele>273.0</ele><time>2026-05-03T11:41:51.129Z</time></trkpt><trkpt lat="46.0551419" lon="13.5189563"><ele>273.0</ele><time>2026-05-03T11:41:52.13Z</time></trkpt><trkpt lat="46.0552262" lon="13.5187626"><ele>273.0</ele><time>2026-05-03T11:41:53.129Z</time></trkpt><trkpt lat="46.0552936" lon="13.5185573"><ele>273.0</ele><time>2026-05-03T11:41:54.13Z</time></trkpt><trkpt lat="46.0553518" lon="13.5183569"><ele>275.5</ele><time>2026-05-03T11:41:55.13Z</time></trkpt><trkpt lat="46.0554046" lon="13.5181641"><ele>278.0</ele><time>2026-05-03T11:41:56.13Z</time></trkpt><trkpt lat="46.0554599" lon="13.5179682"><ele>280.5</ele><time>2026-05-03T11:41:57.13Z</time></trkpt><trkpt lat="46.0555192" lon="13.517768"><ele>283.0</ele><time>2026-05-03T11:41:58.13Z</time></trkpt><trkpt lat="46.0555867" lon="13.5175657"><ele>280.0</ele><time>2026-05-03T11:41:59.13Z</time></trkpt><trkpt lat="46.0556599" lon="13.5173661"><ele>277.0</ele><time>2026-05-03T11:42:00.13Z</time></trkpt><trkpt lat="46.0557423" lon="13.5171684"><ele>274.0</ele><time>2026-05-03T11:42:01.13Z</time></trkpt><trkpt lat="46.0558311" lon="13.5169721"><ele>274.0</ele><time>2026-05-03T11:42:02.13Z</time></trkpt><trkpt lat="46.0559175" lon="13.5167928"><ele>274.0</ele><time>2026-05-03T11:42:03.13Z</time></trkpt><trkpt lat="46.0560086" lon="13.516618"><ele>274.0</ele><time>2026-05-03T11:42:04.13Z</time></trkpt><trkpt lat="46.0561013" lon="13.5164443"><ele>274.0</ele><time>2026-05-03T11:42:05.13Z</time></trkpt><trkpt lat="46.056191" lon="13.5162707"><ele>274.0</ele><time>2026-05-03T11:42:06.129Z</time></trkpt><trkpt lat="46.0562787" lon="13.5160942"><ele>274.0</ele><time>2026-05-03T11:42:07.13Z</time></trkpt><trkpt lat="46.0563636" lon="13.515906"><ele>275.66666666666663</ele><time>2026-05-03T11:42:08.13Z</time></trkpt><trkpt lat="46.0564498" lon="13.5157129"><ele>277.3333333333333</ele><time>2026-05-03T11:42:09.13Z</time></trkpt><trkpt lat="46.0565377" lon="13.5155187"><ele>279.0</ele><time>2026-05-03T11:42:10.13Z</time></trkpt><trkpt lat="46.0566119" lon="13.5153311"><ele>276.75</ele><time>2026-05-03T11:42:11.129Z</time></trkpt><trkpt lat="46.056671" lon="13.5151529"><ele>274.5</ele><time>2026-05-03T11:42:12.13Z</time></trkpt><trkpt lat="46.0567163" lon="13.5149782"><ele>272.25</ele><time>2026-05-03T11:42:13.129Z</time></trkpt><trkpt lat="46.0567582" lon="13.51482"><ele>270.0</ele><time>2026-05-03T11:42:14.13Z</time></trkpt><trkpt lat="46.0568187" lon="13.5146807"><ele>268.75</ele><time>2026-05-03T11:42:15.13Z</time></trkpt><trkpt lat="46.0568921" lon="13.5145397"><ele>267.5</ele><time>2026-05-03T11:42:16.13Z</time></trkpt><trkpt lat="46.0569453" lon="13.5143781"><ele>266.25</ele><time>2026-05-03T11:42:17.13Z</time></trkpt><trkpt lat="46.056965" lon="13.5141733"><ele>265.0</ele><time>2026-05-03T11:42:18.13Z</time></trkpt><trkpt lat="46.0570078" lon="13.513973"><ele>265.0</ele><time>2026-05-03T11:42:19.13Z</time></trkpt><trkpt lat="46.0570867" lon="13.513784"><ele>265.0</ele><time>2026-05-03T11:42:20.13Z</time></trkpt><trkpt lat="46.0571896" lon="13.5136116"><ele>265.0</ele><time>2026-05-03T11:42:21.13Z</time></trkpt><trkpt lat="46.0572966" lon="13.5134402"><ele>263.0</ele><time>2026-05-03T11:42:22.13Z</time></trkpt><trkpt lat="46.0573918" lon="13.5132716"><ele>261.0</ele><time>2026-05-03T11:42:23.13Z</time></trkpt><trkpt lat="46.057487" lon="13.5131018"><ele>259.0</ele><time>2026-05-03T11:42:24.13Z</time></trkpt><trkpt lat="46.057576" lon="13.5129295"><ele>256.5</ele><time>2026-05-03T11:42:25.129Z</time></trkpt><trkpt lat="46.0576616" lon="13.5127581"><ele>254.0</ele><time>2026-05-03T11:42:26.13Z</time></trkpt><trkpt lat="46.0577448" lon="13.5125912"><ele>251.5</ele><time>2026-05-03T11:42:27.129Z</time></trkpt><trkpt lat="46.057837" lon="13.5124351"><ele>249.0</ele><time>2026-05-03T11:42:28.13Z</time></trkpt><trkpt lat="46.0579365" lon="13.5123032"><ele>249.0</ele><time>2026-05-03T11:42:29.13Z</time></trkpt><trkpt lat="46.0580405" lon="13.5121728"><ele>249.0</ele><time>2026-05-03T11:42:30.129Z</time></trkpt><trkpt lat="46.0581429" lon="13.5120486"><ele>249.0</ele><time>2026-05-03T11:42:31.13Z</time></trkpt><trkpt lat="46.0582403" lon="13.511925"><ele>249.0</ele><time>2026-05-03T11:42:32.129Z</time></trkpt><trkpt lat="46.0583306" lon="13.511795"><ele>249.5</ele><time>2026-05-03T11:42:33.13Z</time></trkpt><trkpt lat="46.0584061" lon="13.5116457"><ele>250.0</ele><time>2026-05-03T11:42:34.13Z</time></trkpt><trkpt lat="46.0584515" lon="13.5114917"><ele>250.5</ele><time>2026-05-03T11:42:35.13Z</time></trkpt><trkpt lat="46.0584574" lon="13.511315"><ele>251.0</ele><time>2026-05-03T11:42:36.13Z</time></trkpt><trkpt lat="46.0584403" lon="13.511109"><ele>248.0</ele><time>2026-05-03T11:42:37.129Z</time></trkpt><trkpt lat="46.0583931" lon="13.5108823"><ele>245.0</ele><time>2026-05-03T11:42:38.13Z</time></trkpt><trkpt lat="46.0583194" lon="13.5106396"><ele>242.0</ele><time>2026-05-03T11:42:39.13Z</time></trkpt><trkpt lat="46.0582319" lon="13.5104201"><ele>234.33333333333334</ele><time>2026-05-03T11:42:40.129Z</time></trkpt><trkpt lat="46.0581553" lon="13.5102196"><ele>226.66666666666669</ele><time>2026-05-03T11:42:41.13Z</time></trkpt><trkpt lat="46.058095" lon="13.5100166"><ele>219.0</ele><time>2026-05-03T11:42:42.13Z</time></trkpt><trkpt lat="46.0580524" lon="13.5098084"><ele>219.0</ele><time>2026-05-03T11:42:43.13Z</time></trkpt><trkpt lat="46.058026" lon="13.5096128"><ele>219.0</ele><time>2026-05-03T11:42:44.129Z</time></trkpt><trkpt lat="46.0580102" lon="13.5094328"><ele>219.0</ele><time>2026-05-03T11:42:45.129Z</time></trkpt><trkpt lat="46.0580121" lon="13.5092781"><ele>219.0</ele><time>2026-05-03T11:42:46.13Z</time></trkpt><trkpt lat="46.058016" lon="13.5091416"><ele>218.66666666666666</ele><time>2026-05-03T11:42:47.13Z</time></trkpt><trkpt lat="46.0580197" lon="13.5090253"><ele>218.33333333333331</ele><time>2026-05-03T11:42:48.13Z</time></trkpt><trkpt lat="46.0579999" lon="13.5089377"><ele>218.0</ele><time>2026-05-03T11:42:49.13Z</time></trkpt><trkpt lat="46.0579338" lon="13.5089085"><ele>217.66666666666666</ele><time>2026-05-03T11:42:50.13Z</time></trkpt><trkpt lat="46.0578582" lon="13.5090313"><ele>217.33333333333331</ele><time>2026-05-03T11:42:52.13Z</time></trkpt><trkpt lat="46.0578364" lon="13.5091909"><ele>217.0</ele><time>2026-05-03T11:42:53.13Z</time></trkpt><trkpt lat="46.0578114" lon="13.5093698"><ele>217.0</ele><time>2026-05-03T11:42:54.13Z</time></trkpt><trkpt lat="46.0577643" lon="13.5095355"><ele>217.0</ele><time>2026-05-03T11:42:55.13Z</time></trkpt><trkpt lat="46.057732" lon="13.509697"><ele>217.0</ele><time>2026-05-03T11:42:56.13Z</time></trkpt><trkpt lat="46.0577312" lon="13.5098475"><ele>217.0</ele><time>2026-05-03T11:42:57.13Z</time></trkpt><trkpt lat="46.0577272" lon="13.5099734"><ele>217.0</ele><time>2026-05-03T11:42:58.13Z</time></trkpt><trkpt lat="46.0577087" lon="13.5100743"><ele>217.0</ele><time>2026-05-03T11:42:59.13Z</time></trkpt><trkpt lat="46.0576049" lon="13.5101028"><ele>217.0</ele><time>2026-05-03T11:43:01.13Z</time></trkpt><trkpt lat="46.0575851" lon="13.5100084"><ele>217.0</ele><time>2026-05-03T11:43:02.13Z</time></trkpt><trkpt lat="46.0575557" lon="13.5098533"><ele>217.0</ele><time>2026-05-03T11:43:03.13Z</time></trkpt><trkpt lat="46.0575305" lon="13.5096609"><ele>217.0</ele><time>2026-05-03T11:43:04.13Z</time></trkpt><trkpt lat="46.0574818" lon="13.5094556"><ele>211.66666666666666</ele><time>2026-05-03T11:43:05.13Z</time></trkpt><trkpt lat="46.0574178" lon="13.5092513"><ele>206.33333333333331</ele><time>2026-05-03T11:43:06.129Z</time></trkpt><trkpt lat="46.0573503" lon="13.5090423"><ele>201.0</ele><time>2026-05-03T11:43:07.13Z</time></trkpt><trkpt lat="46.0572823" lon="13.5088381"><ele>199.0</ele><time>2026-05-03T11:43:08.13Z</time></trkpt><trkpt lat="46.0572105" lon="13.5086488"><ele>197.0</ele><time>2026-05-03T11:43:09.13Z</time></trkpt><trkpt lat="46.057143" lon="13.508456"><ele>195.0</ele><time>2026-05-03T11:43:10.129Z</time></trkpt><trkpt lat="46.0570817" lon="13.5082675"><ele>193.0</ele><time>2026-05-03T11:43:11.13Z</time></trkpt><trkpt lat="46.0570433" lon="13.5080596"><ele>191.5</ele><time>2026-05-03T11:43:12.13Z</time></trkpt><trkpt lat="46.0570331" lon="13.5078512"><ele>190.0</ele><time>2026-05-03T11:43:13.129Z</time></trkpt><trkpt lat="46.0570082" lon="13.5076399"><ele>188.5</ele><time>2026-05-03T11:43:14.129Z</time></trkpt><trkpt lat="46.0569631" lon="13.5074273"><ele>187.0</ele><time>2026-05-03T11:43:15.13Z</time></trkpt><trkpt lat="46.0569218" lon="13.5072252"><ele>185.0</ele><time>2026-05-03T11:43:16.13Z</time></trkpt><trkpt lat="46.0569088" lon="13.5070183"><ele>183.0</ele><time>2026-05-03T11:43:17.13Z</time></trkpt><trkpt lat="46.0569268" lon="13.5067897"><ele>181.0</ele><time>2026-05-03T11:43:18.13Z</time></trkpt><trkpt lat="46.056967" lon="13.5065588"><ele>181.0</ele><time>2026-05-03T11:43:19.129Z</time></trkpt><trkpt lat="46.0570147" lon="13.5063388"><ele>181.0</ele><time>2026-05-03T11:43:20.13Z</time></trkpt><trkpt lat="46.0570607" lon="13.5061244"><ele>181.0</ele><time>2026-05-03T11:43:21.129Z</time></trkpt><trkpt lat="46.0571123" lon="13.5059128"><ele>177.0</ele><time>2026-05-03T11:43:22.13Z</time></trkpt><trkpt lat="46.057166" lon="13.505692"><ele>173.0</ele><time>2026-05-03T11:43:23.129Z</time></trkpt><trkpt lat="46.0572218" lon="13.5054703"><ele>169.0</ele><time>2026-05-03T11:43:24.13Z</time></trkpt><trkpt lat="46.0572758" lon="13.5052536"><ele>174.0</ele><time>2026-05-03T11:43:25.13Z</time></trkpt><trkpt lat="46.057335" lon="13.5050454"><ele>179.0</ele><time>2026-05-03T11:43:26.13Z</time></trkpt><trkpt lat="46.0573966" lon="13.504838"><ele>184.0</ele><time>2026-05-03T11:43:27.13Z</time></trkpt><trkpt lat="46.0574524" lon="13.5046284"><ele>179.33333333333334</ele><time>2026-05-03T11:43:28.13Z</time></trkpt><trkpt lat="46.0574983" lon="13.5044144"><ele>174.66666666666666</ele><time>2026-05-03T11:43:29.13Z</time></trkpt><trkpt lat="46.0575253" lon="13.5042078"><ele>170.0</ele><time>2026-05-03T11:43:30.13Z</time></trkpt><trkpt lat="46.0575406" lon="13.5039798"><ele>166.66666666666666</ele><time>2026-05-03T11:43:31.13Z</time></trkpt><trkpt lat="46.0575601" lon="13.5037399"><ele>163.33333333333334</ele><time>2026-05-03T11:43:32.13Z</time></trkpt><trkpt lat="46.0575871" lon="13.5034975"><ele>160.0</ele><time>2026-05-03T11:43:33.13Z</time></trkpt><trkpt lat="46.057618" lon="13.503257"><ele>160.0</ele><time>2026-05-03T11:43:34.129Z</time></trkpt><trkpt lat="46.0576432" lon="13.5030251"><ele>160.0</ele><time>2026-05-03T11:43:35.13Z</time></trkpt><trkpt lat="46.0576547" lon="13.5027933"><ele>160.0</ele><time>2026-05-03T11:43:36.13Z</time></trkpt><trkpt lat="46.0576704" lon="13.5025732"><ele>157.66666666666669</ele><time>2026-05-03T11:43:37.129Z</time></trkpt><trkpt lat="46.0576867" lon="13.5023539"><ele>155.33333333333334</ele><time>2026-05-03T11:43:38.13Z</time></trkpt><trkpt lat="46.057687" lon="13.50213"><ele>153.0</ele><time>2026-05-03T11:43:39.129Z</time></trkpt><trkpt lat="46.0576627" lon="13.5019114"><ele>153.0</ele><time>2026-05-03T11:43:40.129Z</time></trkpt><trkpt lat="46.057612" lon="13.5016921"><ele>153.0</ele><time>2026-05-03T11:43:41.129Z</time></trkpt><trkpt lat="46.0575418" lon="13.501499"><ele>153.0</ele><time>2026-05-03T11:43:42.13Z</time></trkpt><trkpt lat="46.057447" lon="13.5013319"><ele>146.66666666666666</ele><time>2026-05-03T11:43:43.129Z</time></trkpt><trkpt lat="46.0573232" lon="13.5011867"><ele>140.33333333333331</ele><time>2026-05-03T11:43:44.129Z</time></trkpt><trkpt lat="46.0571909" lon="13.5010386"><ele>134.0</ele><time>2026-05-03T11:43:45.129Z</time></trkpt><trkpt lat="46.0570679" lon="13.5008852"><ele>134.0</ele><time>2026-05-03T11:43:46.13Z</time></trkpt><trkpt lat="46.0569531" lon="13.5007293"><ele>134.0</ele><time>2026-05-03T11:43:47.13Z</time></trkpt><trkpt lat="46.056846" lon="13.5005748"><ele>134.0</ele><time>2026-05-03T11:43:48.129Z</time></trkpt><trkpt lat="46.0567494" lon="13.5004172"><ele>136.0</ele><time>2026-05-03T11:43:49.129Z</time></trkpt><trkpt lat="46.0566642" lon="13.5002604"><ele>138.0</ele><time>2026-05-03T11:43:50.13Z</time></trkpt><trkpt lat="46.0566007" lon="13.5001183"><ele>140.0</ele><time>2026-05-03T11:43:51.13Z</time></trkpt><trkpt lat="46.0565528" lon="13.4999813"><ele>142.0</ele><time>2026-05-03T11:43:52.13Z</time></trkpt><trkpt lat="46.0565275" lon="13.4998557"><ele>142.0</ele><time>2026-05-03T11:43:53.13Z</time></trkpt><trkpt lat="46.0565108" lon="13.4997468"><ele>142.0</ele><time>2026-05-03T11:43:54.13Z</time></trkpt><trkpt lat="46.056479" lon="13.4996678"><ele>142.0</ele><time>2026-05-03T11:43:55.129Z</time></trkpt><trkpt lat="46.0563866" lon="13.4997245"><ele>142.0</ele><time>2026-05-03T11:43:57.13Z</time></trkpt><trkpt lat="46.056381" lon="13.4998306"><ele>142.0</ele><time>2026-05-03T11:43:58.13Z</time></trkpt><trkpt lat="46.0564226" lon="13.4999417"><ele>142.0</ele><time>2026-05-03T11:43:59.13Z</time></trkpt><trkpt lat="46.0564719" lon="13.5000667"><ele>142.0</ele><time>2026-05-03T11:44:00.13Z</time></trkpt><trkpt lat="46.0565099" lon="13.5001693"><ele>142.0</ele><time>2026-05-03T11:44:01.13Z</time></trkpt><trkpt lat="46.0565249" lon="13.5002754"><ele>142.0</ele><time>2026-05-03T11:44:02.13Z</time></trkpt><trkpt lat="46.0565021" lon="13.500362"><ele>142.0</ele><time>2026-05-03T11:44:03.129Z</time></trkpt><trkpt lat="46.0564498" lon="13.500413"><ele>142.0</ele><time>2026-05-03T11:44:04.13Z</time></trkpt><trkpt lat="46.0563857" lon="13.5003666"><ele>142.0</ele><time>2026-05-03T11:44:05.129Z</time></trkpt><trkpt lat="46.0563352" lon="13.5002508"><ele>142.0</ele><time>2026-05-03T11:44:06.13Z</time></trkpt><trkpt lat="46.0562882" lon="13.5001012"><ele>142.0</ele><time>2026-05-03T11:44:07.13Z</time></trkpt><trkpt lat="46.0562441" lon="13.4999378"><ele>142.0</ele><time>2026-05-03T11:44:08.129Z</time></trkpt><trkpt lat="46.0562048" lon="13.499764"><ele>142.0</ele><time>2026-05-03T11:44:09.129Z</time></trkpt><trkpt lat="46.0561719" lon="13.4995788"><ele>139.5</ele><time>2026-05-03T11:44:10.129Z</time></trkpt><trkpt lat="46.0561372" lon="13.4993937"><ele>137.0</ele><time>2026-05-03T11:44:11.13Z</time></trkpt><trkpt lat="46.0561077" lon="13.4992181"><ele>134.5</ele><time>2026-05-03T11:44:12.129Z</time></trkpt><trkpt lat="46.0560761" lon="13.4990462"><ele>132.0</ele><time>2026-05-03T11:44:13.13Z</time></trkpt><trkpt lat="46.0560473" lon="13.4988765"><ele>128.75</ele><time>2026-05-03T11:44:14.13Z</time></trkpt><trkpt lat="46.0560165" lon="13.4987149"><ele>125.5</ele><time>2026-05-03T11:44:15.13Z</time></trkpt><trkpt lat="46.0559757" lon="13.4985502"><ele>122.25</ele><time>2026-05-03T11:44:16.13Z</time></trkpt><trkpt lat="46.0559279" lon="13.498392"><ele>119.0</ele><time>2026-05-03T11:44:17.13Z</time></trkpt><trkpt lat="46.055888" lon="13.4982606"><ele>118.99999999999999</ele><time>2026-05-03T11:44:18.129Z</time></trkpt><trkpt lat="46.0558535" lon="13.4981505"><ele>119.0</ele><time>2026-05-03T11:44:19.13Z</time></trkpt><trkpt lat="46.0558157" lon="13.4980676"><ele>119.0</ele><time>2026-05-03T11:44:20.13Z</time></trkpt><trkpt lat="46.055749" lon="13.4979625"><ele>119.0</ele><time>2026-05-03T11:44:22.13Z</time></trkpt><trkpt lat="46.0557371" lon="13.497861"><ele>118.99999999999999</ele><time>2026-05-03T11:44:24.13Z</time></trkpt><trkpt lat="46.0558227" lon="13.4977896"><ele>119.0</ele><time>2026-05-03T11:44:26.13Z</time></trkpt><trkpt lat="46.0559055" lon="13.4977668"><ele>116.6</ele><time>2026-05-03T11:44:27.129Z</time></trkpt><trkpt lat="46.0559964" lon="13.4977275"><ele>114.2</ele><time>2026-05-03T11:44:28.13Z</time></trkpt><trkpt lat="46.0560936" lon="13.4976851"><ele>111.79999999999998</ele><time>2026-05-03T11:44:29.13Z</time></trkpt><trkpt lat="46.0561944" lon="13.4976277"><ele>109.39999999999999</ele><time>2026-05-03T11:44:30.13Z</time></trkpt><trkpt lat="46.0563006" lon="13.4975829"><ele>107.0</ele><time>2026-05-03T11:44:31.13Z</time></trkpt><trkpt lat="46.0564078" lon="13.4975539"><ele>107.0</ele><time>2026-05-03T11:44:32.129Z</time></trkpt><trkpt lat="46.0565191" lon="13.4975295"><ele>107.0</ele><time>2026-05-03T11:44:33.13Z</time></trkpt><trkpt lat="46.0566337" lon="13.4975114"><ele>107.0</ele><time>2026-05-03T11:44:34.13Z</time></trkpt><trkpt lat="46.0567569" lon="13.4974986"><ele>107.0</ele><time>2026-05-03T11:44:35.13Z</time></trkpt><trkpt lat="46.0568821" lon="13.4974933"><ele>108.5</ele><time>2026-05-03T11:44:36.129Z</time></trkpt><trkpt lat="46.057009" lon="13.4975013"><ele>110.0</ele><time>2026-05-03T11:44:37.129Z</time></trkpt><trkpt lat="46.0571347" lon="13.4975396"><ele>111.5</ele><time>2026-05-03T11:44:38.128Z</time></trkpt><trkpt lat="46.0572615" lon="13.4976067"><ele>113.0</ele><time>2026-05-03T11:44:39.129Z</time></trkpt><trkpt lat="46.0573773" lon="13.4977072"><ele>111.33333333333333</ele><time>2026-05-03T11:44:40.129Z</time></trkpt><trkpt lat="46.0575044" lon="13.4978014"><ele>109.66666666666666</ele><time>2026-05-03T11:44:41.129Z</time></trkpt><trkpt lat="46.0576453" lon="13.497874"><ele>108.0</ele><time>2026-05-03T11:44:42.129Z</time></trkpt><trkpt lat="46.057806" lon="13.4979199"><ele>111.75</ele><time>2026-05-03T11:44:43.129Z</time></trkpt><trkpt lat="46.0579559" lon="13.4979607"><ele>115.5</ele><time>2026-05-03T11:44:44.129Z</time></trkpt><trkpt lat="46.0580939" lon="13.4980186"><ele>119.25</ele><time>2026-05-03T11:44:45.128Z</time></trkpt><trkpt lat="46.0582155" lon="13.4980838"><ele>123.0</ele><time>2026-05-03T11:44:46.129Z</time></trkpt><trkpt lat="46.0583331" lon="13.4981522"><ele>123.0</ele><time>2026-05-03T11:44:47.129Z</time></trkpt><trkpt lat="46.0584436" lon="13.4982277"><ele>123.0</ele><time>2026-05-03T11:44:48.129Z</time></trkpt><trkpt lat="46.0585467" lon="13.4983117"><ele>123.0</ele><time>2026-05-03T11:44:49.129Z</time></trkpt><trkpt lat="46.0586419" lon="13.4984533"><ele>123.0</ele><time>2026-05-03T11:44:50.129Z</time></trkpt><trkpt lat="46.0587245" lon="13.4986091"><ele>132.5</ele><time>2026-05-03T11:44:51.129Z</time></trkpt><trkpt lat="46.0587959" lon="13.498769"><ele>142.0</ele><time>2026-05-03T11:44:52.129Z</time></trkpt><trkpt lat="46.0588625" lon="13.4989277"><ele>151.5</ele><time>2026-05-03T11:44:53.128Z</time></trkpt><trkpt lat="46.058924" lon="13.4990851"><ele>161.0</ele><time>2026-05-03T11:44:54.129Z</time></trkpt><trkpt lat="46.0589643" lon="13.4992463"><ele>161.0</ele><time>2026-05-03T11:44:55.129Z</time></trkpt><trkpt lat="46.0589886" lon="13.4994268"><ele>161.0</ele><time>2026-05-03T11:44:56.128Z</time></trkpt><trkpt lat="46.0590165" lon="13.499627"><ele>161.0</ele><time>2026-05-03T11:44:57.129Z</time></trkpt><trkpt lat="46.0590577" lon="13.4998198"><ele>161.0</ele><time>2026-05-03T11:44:58.128Z</time></trkpt><trkpt lat="46.059089" lon="13.5000042"><ele>166.0</ele><time>2026-05-03T11:44:59.129Z</time></trkpt><trkpt lat="46.0591124" lon="13.5001826"><ele>171.0</ele><time>2026-05-03T11:45:00.129Z</time></trkpt><trkpt lat="46.0591385" lon="13.5003661"><ele>176.0</ele><time>2026-05-03T11:45:01.129Z</time></trkpt><trkpt lat="46.0591709" lon="13.5005495"><ele>181.0</ele><time>2026-05-03T11:45:02.128Z</time></trkpt><trkpt lat="46.0592115" lon="13.5007438"><ele>174.0</ele><time>2026-05-03T11:45:03.129Z</time></trkpt><trkpt lat="46.0592698" lon="13.5009447"><ele>167.0</ele><time>2026-05-03T11:45:04.128Z</time></trkpt><trkpt lat="46.059339" lon="13.5011495"><ele>160.0</ele><time>2026-05-03T11:45:05.128Z</time></trkpt><trkpt lat="46.0594222" lon="13.5013404"><ele>160.0</ele><time>2026-05-03T11:45:06.129Z</time></trkpt><trkpt lat="46.0595123" lon="13.5015066"><ele>160.0</ele><time>2026-05-03T11:45:07.129Z</time></trkpt><trkpt lat="46.0596262" lon="13.5016457"><ele>160.0</ele><time>2026-05-03T11:45:08.129Z</time></trkpt><trkpt lat="46.0597563" lon="13.5017651"><ele>160.0</ele><time>2026-05-03T11:45:09.129Z</time></trkpt><trkpt lat="46.0598949" lon="13.5018628"><ele>160.0</ele><time>2026-05-03T11:45:10.129Z</time></trkpt><trkpt lat="46.060041" lon="13.5019545"><ele>160.0</ele><time>2026-05-03T11:45:11.129Z</time></trkpt><trkpt lat="46.0601935" lon="13.5020417"><ele>153.66666666666669</ele><time>2026-05-03T11:45:12.128Z</time></trkpt><trkpt lat="46.0603476" lon="13.5021412"><ele>147.33333333333334</ele><time>2026-05-03T11:45:13.129Z</time></trkpt><trkpt lat="46.0604908" lon="13.5022421"><ele>141.0</ele><time>2026-05-03T11:45:14.129Z</time></trkpt><trkpt lat="46.0606314" lon="13.5023279"><ele>141.0</ele><time>2026-05-03T11:45:15.129Z</time></trkpt><trkpt lat="46.0607655" lon="13.5024128"><ele>141.0</ele><time>2026-05-03T11:45:16.129Z</time></trkpt><trkpt lat="46.0608989" lon="13.502502"><ele>141.0</ele><time>2026-05-03T11:45:17.128Z</time></trkpt><trkpt lat="46.0610278" lon="13.5026048"><ele>141.0</ele><time>2026-05-03T11:45:18.129Z</time></trkpt><trkpt lat="46.061153" lon="13.5027126"><ele>142.5</ele><time>2026-05-03T11:45:19.129Z</time></trkpt><trkpt lat="46.0612682" lon="13.502831"><ele>144.0</ele><time>2026-05-03T11:45:20.128Z</time></trkpt><trkpt lat="46.0613767" lon="13.5029552"><ele>145.5</ele><time>2026-05-03T11:45:21.129Z</time></trkpt><trkpt lat="46.0614774" lon="13.5030868"><ele>147.0</ele><time>2026-05-03T11:45:22.129Z</time></trkpt><trkpt lat="46.0615704" lon="13.5032298"><ele>142.0</ele><time>2026-05-03T11:45:23.129Z</time></trkpt><trkpt lat="46.0616442" lon="13.5033772"><ele>137.0</ele><time>2026-05-03T11:45:24.129Z</time></trkpt><trkpt lat="46.0616923" lon="13.5035343"><ele>132.0</ele><time>2026-05-03T11:45:25.129Z</time></trkpt><trkpt lat="46.061726" lon="13.5036891"><ele>127.0</ele><time>2026-05-03T11:45:26.128Z</time></trkpt><trkpt lat="46.0617555" lon="13.5038414"><ele>127.0</ele><time>2026-05-03T11:45:27.128Z</time></trkpt><trkpt lat="46.061778" lon="13.5040067"><ele>127.0</ele><time>2026-05-03T11:45:28.128Z</time></trkpt><trkpt lat="46.0617759" lon="13.5041715"><ele>127.0</ele><time>2026-05-03T11:45:29.128Z</time></trkpt><trkpt lat="46.0617513" lon="13.504341"><ele>127.0</ele><time>2026-05-03T11:45:30.129Z</time></trkpt><trkpt lat="46.0617094" lon="13.504503"><ele>125.39999999999999</ele><time>2026-05-03T11:45:31.129Z</time></trkpt><trkpt lat="46.0616472" lon="13.5046543"><ele>123.79999999999998</ele><time>2026-05-03T11:45:32.129Z</time></trkpt><trkpt lat="46.0615719" lon="13.5047824"><ele>122.2</ele><time>2026-05-03T11:45:33.129Z</time></trkpt><trkpt lat="46.0614998" lon="13.5048821"><ele>120.6</ele><time>2026-05-03T11:45:34.129Z</time></trkpt><trkpt lat="46.0614343" lon="13.5049697"><ele>119.0</ele><time>2026-05-03T11:45:35.128Z</time></trkpt><trkpt lat="46.0613798" lon="13.5050546"><ele>122.2</ele><time>2026-05-03T11:45:36.128Z</time></trkpt><trkpt lat="46.0613248" lon="13.5051297"><ele>125.4</ele><time>2026-05-03T11:45:37.128Z</time></trkpt><trkpt lat="46.0612745" lon="13.5051961"><ele>128.6</ele><time>2026-05-03T11:45:38.129Z</time></trkpt><trkpt lat="46.061196" lon="13.505314"><ele>131.8</ele><time>2026-05-03T11:45:40.129Z</time></trkpt><trkpt lat="46.0611289" lon="13.5054146"><ele>135.0</ele><time>2026-05-03T11:45:42.128Z</time></trkpt><trkpt lat="46.0610707" lon="13.5055282"><ele>135.0</ele><time>2026-05-03T11:45:44.129Z</time></trkpt><trkpt lat="46.0610272" lon="13.505597"><ele>135.0</ele><time>2026-05-03T11:45:45.129Z</time></trkpt><trkpt lat="46.0609795" lon="13.5056706"><ele>135.0</ele><time>2026-05-03T11:45:46.128Z</time></trkpt><trkpt lat="46.0609256" lon="13.5057238"><ele>135.0</ele><time>2026-05-03T11:45:47.128Z</time></trkpt><trkpt lat="46.0608606" lon="13.5057791"><ele>135.0</ele><time>2026-05-03T11:45:48.129Z</time></trkpt><trkpt lat="46.060787" lon="13.5058436"><ele>135.0</ele><time>2026-05-03T11:45:49.129Z</time></trkpt><trkpt lat="46.0607187" lon="13.5059239"><ele>142.6</ele><time>2026-05-03T11:45:50.129Z</time></trkpt><trkpt lat="46.0606555" lon="13.5060175"><ele>150.2</ele><time>2026-05-03T11:45:51.129Z</time></trkpt><trkpt lat="46.0606006" lon="13.5061135"><ele>157.8</ele><time>2026-05-03T11:45:52.129Z</time></trkpt><trkpt lat="46.0605551" lon="13.5062272"><ele>165.4</ele><time>2026-05-03T11:45:53.129Z</time></trkpt><trkpt lat="46.0605061" lon="13.5063499"><ele>173.0</ele><time>2026-05-03T11:45:54.128Z</time></trkpt><trkpt lat="46.0604554" lon="13.5064737"><ele>173.0</ele><time>2026-05-03T11:45:55.129Z</time></trkpt><trkpt lat="46.0604008" lon="13.50659"><ele>173.0</ele><time>2026-05-03T11:45:56.128Z</time></trkpt><trkpt lat="46.0603558" lon="13.5066863"><ele>173.0</ele><time>2026-05-03T11:45:57.129Z</time></trkpt><trkpt lat="46.0603262" lon="13.5067844"><ele>173.0</ele><time>2026-05-03T11:45:58.129Z</time></trkpt><trkpt lat="46.0603101" lon="13.5068847"><ele>173.0</ele><time>2026-05-03T11:45:59.129Z</time></trkpt><trkpt lat="46.0603017" lon="13.5069998"><ele>173.0</ele><time>2026-05-03T11:46:00.128Z</time></trkpt><trkpt lat="46.0602959" lon="13.5071517"><ele>173.60000000000002</ele><time>2026-05-03T11:46:01.129Z</time></trkpt><trkpt lat="46.0602904" lon="13.5073174"><ele>174.20000000000002</ele><time>2026-05-03T11:46:02.129Z</time></trkpt><trkpt lat="46.0602879" lon="13.5074733"><ele>174.8</ele><time>2026-05-03T11:46:03.129Z</time></trkpt><trkpt lat="46.0602991" lon="13.5076322"><ele>175.4</ele><time>2026-05-03T11:46:04.129Z</time></trkpt><trkpt lat="46.0603271" lon="13.5077912"><ele>176.0</ele><time>2026-05-03T11:46:05.129Z</time></trkpt><trkpt lat="46.0603712" lon="13.5079578"><ele>176.0</ele><time>2026-05-03T11:46:06.129Z</time></trkpt><trkpt lat="46.0604304" lon="13.5081321"><ele>176.0</ele><time>2026-05-03T11:46:07.129Z</time></trkpt><trkpt lat="46.0604923" lon="13.5083032"><ele>176.0</ele><time>2026-05-03T11:46:08.129Z</time></trkpt><trkpt lat="46.0605516" lon="13.5084689"><ele>176.0</ele><time>2026-05-03T11:46:09.129Z</time></trkpt><trkpt lat="46.060602" lon="13.508635"><ele>179.0</ele><time>2026-05-03T11:46:10.129Z</time></trkpt><trkpt lat="46.0606464" lon="13.5088069"><ele>182.0</ele><time>2026-05-03T11:46:11.128Z</time></trkpt><trkpt lat="46.0606857" lon="13.508998"><ele>185.0</ele><time>2026-05-03T11:46:12.128Z</time></trkpt><trkpt lat="46.060717" lon="13.5091926"><ele>188.0</ele><time>2026-05-03T11:46:13.128Z</time></trkpt><trkpt lat="46.0607589" lon="13.5093714"><ele>175.75</ele><time>2026-05-03T11:46:14.128Z</time></trkpt><trkpt lat="46.060806" lon="13.509545"><ele>163.5</ele><time>2026-05-03T11:46:15.128Z</time></trkpt><trkpt lat="46.0608617" lon="13.5097113"><ele>151.25</ele><time>2026-05-03T11:46:16.129Z</time></trkpt><trkpt lat="46.0609179" lon="13.5098656"><ele>139.0</ele><time>2026-05-03T11:46:17.129Z</time></trkpt><trkpt lat="46.0609846" lon="13.5100017"><ele>139.0</ele><time>2026-05-03T11:46:18.128Z</time></trkpt><trkpt lat="46.061062" lon="13.5101307"><ele>139.0</ele><time>2026-05-03T11:46:19.129Z</time></trkpt><trkpt lat="46.0611462" lon="13.5102554"><ele>139.0</ele><time>2026-05-03T11:46:20.129Z</time></trkpt><trkpt lat="46.0612347" lon="13.5103793"><ele>139.0</ele><time>2026-05-03T11:46:21.129Z</time></trkpt><trkpt lat="46.0613257" lon="13.5104989"><ele>135.0</ele><time>2026-05-03T11:46:22.129Z</time></trkpt><trkpt lat="46.0614243" lon="13.5106215"><ele>131.0</ele><time>2026-05-03T11:46:23.128Z</time></trkpt><trkpt lat="46.0615219" lon="13.5107457"><ele>127.0</ele><time>2026-05-03T11:46:24.129Z</time></trkpt><trkpt lat="46.0616167" lon="13.5108691"><ele>123.0</ele><time>2026-05-03T11:46:25.128Z</time></trkpt><trkpt lat="46.061708" lon="13.5110011"><ele>123.0</ele><time>2026-05-03T11:46:26.129Z</time></trkpt><trkpt lat="46.0617946" lon="13.5111437"><ele>123.0</ele><time>2026-05-03T11:46:27.129Z</time></trkpt><trkpt lat="46.061875" lon="13.5112872"><ele>123.0</ele><time>2026-05-03T11:46:28.129Z</time></trkpt><trkpt lat="46.0619477" lon="13.5114264"><ele>123.0</ele><time>2026-05-03T11:46:29.129Z</time></trkpt><trkpt lat="46.0620144" lon="13.5115562"><ele>126.5</ele><time>2026-05-03T11:46:30.128Z</time></trkpt><trkpt lat="46.0620661" lon="13.5116865"><ele>130.0</ele><time>2026-05-03T11:46:31.129Z</time></trkpt><trkpt lat="46.062107" lon="13.5118073"><ele>133.5</ele><time>2026-05-03T11:46:32.129Z</time></trkpt><trkpt lat="46.0621277" lon="13.5119204"><ele>137.0</ele><time>2026-05-03T11:46:33.128Z</time></trkpt><trkpt lat="46.0621291" lon="13.5120311"><ele>140.5</ele><time>2026-05-03T11:46:34.128Z</time></trkpt><trkpt lat="46.0621083" lon="13.5121612"><ele>144.0</ele><time>2026-05-03T11:46:35.129Z</time></trkpt><trkpt lat="46.0620665" lon="13.5122981"><ele>145.0</ele><time>2026-05-03T11:46:36.129Z</time></trkpt><trkpt lat="46.0620064" lon="13.5124503"><ele>146.0</ele><time>2026-05-03T11:46:37.129Z</time></trkpt><trkpt lat="46.0619373" lon="13.5126062"><ele>147.0</ele><time>2026-05-03T11:46:38.128Z</time></trkpt><trkpt lat="46.0618664" lon="13.5127672"><ele>148.0</ele><time>2026-05-03T11:46:39.129Z</time></trkpt><trkpt lat="46.0618006" lon="13.5129353"><ele>145.5</ele><time>2026-05-03T11:46:40.128Z</time></trkpt><trkpt lat="46.0617399" lon="13.513103"><ele>143.0</ele><time>2026-05-03T11:46:41.129Z</time></trkpt><trkpt lat="46.0616886" lon="13.5132837"><ele>140.5</ele><time>2026-05-03T11:46:42.129Z</time></trkpt><trkpt lat="46.0616445" lon="13.513463"><ele>138.0</ele><time>2026-05-03T11:46:43.128Z</time></trkpt><trkpt lat="46.0616056" lon="13.5136461"><ele>149.0</ele><time>2026-05-03T11:46:44.128Z</time></trkpt><trkpt lat="46.0615744" lon="13.5138167"><ele>160.0</ele><time>2026-05-03T11:46:45.129Z</time></trkpt><trkpt lat="46.0615511" lon="13.513976"><ele>171.0</ele><time>2026-05-03T11:46:46.129Z</time></trkpt><trkpt lat="46.0615381" lon="13.5141353"><ele>182.0</ele><time>2026-05-03T11:46:47.129Z</time></trkpt><trkpt lat="46.0615508" lon="13.5143048"><ele>182.0</ele><time>2026-05-03T11:46:48.129Z</time></trkpt><trkpt lat="46.0615954" lon="13.5144794"><ele>182.0</ele><time>2026-05-03T11:46:49.129Z</time></trkpt><trkpt lat="46.0616532" lon="13.5146485"><ele>182.0</ele><time>2026-05-03T11:46:50.129Z</time></trkpt><trkpt lat="46.0617064" lon="13.5147835"><ele>182.0</ele><time>2026-05-03T11:46:51.129Z</time></trkpt><trkpt lat="46.0617687" lon="13.5149158"><ele>177.33333333333331</ele><time>2026-05-03T11:47:18.128Z</time></trkpt><trkpt lat="46.0618003" lon="13.5150083"><ele>172.66666666666666</ele><time>2026-05-03T11:47:19.129Z</time></trkpt><trkpt lat="46.0618326" lon="13.5151262"><ele>168.0</ele><time>2026-05-03T11:47:20.129Z</time></trkpt><trkpt lat="46.0618657" lon="13.5152465"><ele>163.33333333333334</ele><time>2026-05-03T11:47:21.129Z</time></trkpt><trkpt lat="46.0619016" lon="13.5153596"><ele>158.66666666666669</ele><time>2026-05-03T11:47:22.128Z</time></trkpt><trkpt lat="46.061933" lon="13.5154735"><ele>154.0</ele><time>2026-05-03T11:47:23.129Z</time></trkpt><trkpt lat="46.061969" lon="13.5155854"><ele>154.0</ele><time>2026-05-03T11:47:24.129Z</time></trkpt><trkpt lat="46.0620028" lon="13.5157184"><ele>154.0</ele><time>2026-05-03T11:47:25.129Z</time></trkpt><trkpt lat="46.0620461" lon="13.5158509"><ele>154.0</ele><time>2026-05-03T11:47:26.129Z</time></trkpt><trkpt lat="46.0620844" lon="13.5159745"><ele>154.0</ele><time>2026-05-03T11:47:27.129Z</time></trkpt><trkpt lat="46.0621256" lon="13.516104"><ele>154.0</ele><time>2026-05-03T11:47:28.129Z</time></trkpt><trkpt lat="46.0621673" lon="13.5162449"><ele>157.0</ele><time>2026-05-03T11:47:29.128Z</time></trkpt><trkpt lat="46.0622112" lon="13.5163962"><ele>160.0</ele><time>2026-05-03T11:47:30.129Z</time></trkpt><trkpt lat="46.0622561" lon="13.5165424"><ele>163.0</ele><time>2026-05-03T11:47:31.128Z</time></trkpt><trkpt lat="46.0622986" lon="13.5166854"><ele>166.0</ele><time>2026-05-03T11:47:32.128Z</time></trkpt><trkpt lat="46.0623352" lon="13.5168349"><ele>169.0</ele><time>2026-05-03T11:47:33.128Z</time></trkpt><trkpt lat="46.0623664" lon="13.5169854"><ele>172.0</ele><time>2026-05-03T11:47:34.129Z</time></trkpt><trkpt lat="46.0624024" lon="13.5171371"><ele>175.0</ele><time>2026-05-03T11:47:35.129Z</time></trkpt><trkpt lat="46.0624294" lon="13.5172926"><ele>178.0</ele><time>2026-05-03T11:47:36.129Z</time></trkpt><trkpt lat="46.0624477" lon="13.517461"><ele>181.0</ele><time>2026-05-03T11:47:37.128Z</time></trkpt><trkpt lat="46.0624689" lon="13.5176367"><ele>172.0</ele><time>2026-05-03T11:47:38.129Z</time></trkpt><trkpt lat="46.0624949" lon="13.5178102"><ele>163.0</ele><time>2026-05-03T11:47:39.129Z</time></trkpt><trkpt lat="46.0625233" lon="13.5179819"><ele>154.0</ele><time>2026-05-03T11:47:40.129Z</time></trkpt><trkpt lat="46.0625504" lon="13.5181439"><ele>145.0</ele><time>2026-05-03T11:47:41.129Z</time></trkpt><trkpt lat="46.0625863" lon="13.5182966"><ele>145.0</ele><time>2026-05-03T11:47:42.129Z</time></trkpt><trkpt lat="46.062627" lon="13.5184421"><ele>145.0</ele><time>2026-05-03T11:47:43.129Z</time></trkpt><trkpt lat="46.0626704" lon="13.5185822"><ele>145.0</ele><time>2026-05-03T11:47:44.128Z</time></trkpt><trkpt lat="46.0627145" lon="13.5187227"><ele>145.0</ele><time>2026-05-03T11:47:45.129Z</time></trkpt><trkpt lat="46.0627571" lon="13.5188651"><ele>145.0</ele><time>2026-05-03T11:47:46.129Z</time></trkpt><trkpt lat="46.062799" lon="13.5190064"><ele>149.0</ele><time>2026-05-03T11:47:47.129Z</time></trkpt><trkpt lat="46.0628475" lon="13.5191472"><ele>153.0</ele><time>2026-05-03T11:47:48.129Z</time></trkpt><trkpt lat="46.0628974" lon="13.519291"><ele>157.0</ele><time>2026-05-03T11:47:49.128Z</time></trkpt><trkpt lat="46.0629414" lon="13.5194422"><ele>161.0</ele><time>2026-05-03T11:47:50.128Z</time></trkpt><trkpt lat="46.0629915" lon="13.5195973"><ele>165.20000000000002</ele><time>2026-05-03T11:47:51.129Z</time></trkpt><trkpt lat="46.0630441" lon="13.5197426"><ele>169.4</ele><time>2026-05-03T11:47:52.128Z</time></trkpt><trkpt lat="46.0630976" lon="13.5198852"><ele>173.6</ele><time>2026-05-03T11:47:53.129Z</time></trkpt><trkpt lat="46.0631592" lon="13.5200204"><ele>177.8</ele><time>2026-05-03T11:47:54.129Z</time></trkpt><trkpt lat="46.0632263" lon="13.5201438"><ele>182.0</ele><time>2026-05-03T11:47:55.129Z</time></trkpt><trkpt lat="46.0632982" lon="13.5202465"><ele>178.2</ele><time>2026-05-03T11:47:56.129Z</time></trkpt><trkpt lat="46.0633766" lon="13.5203303"><ele>174.39999999999998</ele><time>2026-05-03T11:47:57.129Z</time></trkpt><trkpt lat="46.0634612" lon="13.5204148"><ele>170.60000000000002</ele><time>2026-05-03T11:47:58.128Z</time></trkpt><trkpt lat="46.0635509" lon="13.5204889"><ele>166.8</ele><time>2026-05-03T11:47:59.128Z</time></trkpt><trkpt lat="46.0636417" lon="13.5205638"><ele>163.0</ele><time>2026-05-03T11:48:00.129Z</time></trkpt><trkpt lat="46.0637252" lon="13.5206289"><ele>163.0</ele><time>2026-05-03T11:48:01.129Z</time></trkpt><trkpt lat="46.0638016" lon="13.5206903"><ele>163.0</ele><time>2026-05-03T11:48:02.129Z</time></trkpt><trkpt lat="46.0638754" lon="13.5207536"><ele>163.0</ele><time>2026-05-03T11:48:03.129Z</time></trkpt><trkpt lat="46.0639576" lon="13.520822"><ele>163.0</ele><time>2026-05-03T11:48:04.128Z</time></trkpt><trkpt lat="46.0640452" lon="13.5208983"><ele>163.0</ele><time>2026-05-03T11:48:05.129Z</time></trkpt><trkpt lat="46.0641267" lon="13.5209829"><ele>162.20000000000002</ele><time>2026-05-03T11:48:06.128Z</time></trkpt><trkpt lat="46.0642057" lon="13.521071"><ele>161.4</ele><time>2026-05-03T11:48:07.129Z</time></trkpt><trkpt lat="46.0642869" lon="13.5211586"><ele>160.60000000000002</ele><time>2026-05-03T11:48:08.129Z</time></trkpt><trkpt lat="46.0643671" lon="13.5212472"><ele>159.8</ele><time>2026-05-03T11:48:09.129Z</time></trkpt><trkpt lat="46.064444" lon="13.5213444"><ele>159.0</ele><time>2026-05-03T11:48:10.129Z</time></trkpt><trkpt lat="46.0645227" lon="13.5214564"><ele>159.0</ele><time>2026-05-03T11:48:11.129Z</time></trkpt><trkpt lat="46.0646054" lon="13.5215735"><ele>159.0</ele><time>2026-05-03T11:48:12.128Z</time></trkpt><trkpt lat="46.0646836" lon="13.5216911"><ele>159.0</ele><time>2026-05-03T11:48:13.128Z</time></trkpt><trkpt lat="46.0647609" lon="13.5218145"><ele>159.0</ele><time>2026-05-03T11:48:14.128Z</time></trkpt><trkpt lat="46.0648339" lon="13.5219269"><ele>159.0</ele><time>2026-05-03T11:48:15.128Z</time></trkpt><trkpt lat="46.0648991" lon="13.5220314"><ele>159.0</ele><time>2026-05-03T11:48:16.128Z</time></trkpt><trkpt lat="46.0649514" lon="13.5221313"><ele>159.0</ele><time>2026-05-03T11:48:17.129Z</time></trkpt><trkpt lat="46.0649907" lon="13.5222393"><ele>159.0</ele><time>2026-05-03T11:48:18.129Z</time></trkpt><trkpt lat="46.0650303" lon="13.5223531"><ele>159.0</ele><time>2026-05-03T11:48:19.129Z</time></trkpt><trkpt lat="46.0650756" lon="13.5224825"><ele>158.6</ele><time>2026-05-03T11:48:20.129Z</time></trkpt><trkpt lat="46.0651197" lon="13.522627"><ele>158.2</ele><time>2026-05-03T11:48:21.129Z</time></trkpt><trkpt lat="46.0651668" lon="13.5227786"><ele>157.79999999999998</ele><time>2026-05-03T11:48:22.128Z</time></trkpt><trkpt lat="46.0652066" lon="13.5229261"><ele>157.4</ele><time>2026-05-03T11:48:23.128Z</time></trkpt><trkpt lat="46.0652477" lon="13.5230789"><ele>157.0</ele><time>2026-05-03T11:48:24.129Z</time></trkpt><trkpt lat="46.0652927" lon="13.5232407"><ele>157.0</ele><time>2026-05-03T11:48:25.129Z</time></trkpt><trkpt lat="46.0653357" lon="13.5233824"><ele>157.0</ele><time>2026-05-03T11:48:26.129Z</time></trkpt><trkpt lat="46.0653748" lon="13.5235243"><ele>157.0</ele><time>2026-05-03T11:48:27.128Z</time></trkpt><trkpt lat="46.0654152" lon="13.5236621"><ele>157.0</ele><time>2026-05-03T11:48:28.128Z</time></trkpt><trkpt lat="46.0654606" lon="13.523796"><ele>157.0</ele><time>2026-05-03T11:48:29.129Z</time></trkpt><trkpt lat="46.065517" lon="13.5239283"><ele>158.0</ele><time>2026-05-03T11:48:30.128Z</time></trkpt><trkpt lat="46.0655851" lon="13.5240518"><ele>159.0</ele><time>2026-05-03T11:48:31.129Z</time></trkpt><trkpt lat="46.0656606" lon="13.5241682"><ele>160.0</ele><time>2026-05-03T11:48:32.129Z</time></trkpt><trkpt lat="46.0657405" lon="13.5242762"><ele>161.0</ele><time>2026-05-03T11:48:33.128Z</time></trkpt><trkpt lat="46.0658236" lon="13.5243895"><ele>162.0</ele><time>2026-05-03T11:48:34.129Z</time></trkpt><trkpt lat="46.0659123" lon="13.5244999"><ele>159.5</ele><time>2026-05-03T11:48:35.128Z</time></trkpt><trkpt lat="46.0659937" lon="13.5246117"><ele>157.0</ele><time>2026-05-03T11:48:36.128Z</time></trkpt><trkpt lat="46.0660768" lon="13.5247324"><ele>154.5</ele><time>2026-05-03T11:48:37.129Z</time></trkpt><trkpt lat="46.0661517" lon="13.5248722"><ele>152.0</ele><time>2026-05-03T11:48:38.127Z</time></trkpt><trkpt lat="46.066221" lon="13.5250219"><ele>152.0</ele><time>2026-05-03T11:48:39.128Z</time></trkpt><trkpt lat="46.0662896" lon="13.5251695"><ele>152.0</ele><time>2026-05-03T11:48:40.127Z</time></trkpt><trkpt lat="46.0663522" lon="13.5253281"><ele>152.0</ele><time>2026-05-03T11:48:41.128Z</time></trkpt><trkpt lat="46.0664079" lon="13.5254821"><ele>152.0</ele><time>2026-05-03T11:48:42.128Z</time></trkpt><trkpt lat="46.0664611" lon="13.52563"><ele>148.25</ele><time>2026-05-03T11:48:43.128Z</time></trkpt><trkpt lat="46.0665165" lon="13.5257736"><ele>144.5</ele><time>2026-05-03T11:48:44.127Z</time></trkpt><trkpt lat="46.0665639" lon="13.5259224"><ele>140.75</ele><time>2026-05-03T11:48:45.128Z</time></trkpt><trkpt lat="46.0665981" lon="13.5260812"><ele>137.0</ele><time>2026-05-03T11:48:46.128Z</time></trkpt><trkpt lat="46.0666237" lon="13.5262511"><ele>137.0</ele><time>2026-05-03T11:48:47.128Z</time></trkpt><trkpt lat="46.0666356" lon="13.5264179"><ele>137.0</ele><time>2026-05-03T11:48:48.128Z</time></trkpt><trkpt lat="46.0666399" lon="13.5265926"><ele>137.0</ele><time>2026-05-03T11:48:49.128Z</time></trkpt><trkpt lat="46.0666241" lon="13.5267735"><ele>137.0</ele><time>2026-05-03T11:48:50.128Z</time></trkpt><trkpt lat="46.0666073" lon="13.5269449"><ele>151.0</ele><time>2026-05-03T11:48:51.128Z</time></trkpt><trkpt lat="46.0665872" lon="13.5271142"><ele>165.0</ele><time>2026-05-03T11:48:52.128Z</time></trkpt><trkpt lat="46.066553" lon="13.5272867"><ele>179.0</ele><time>2026-05-03T11:48:53.128Z</time></trkpt><trkpt lat="46.0665154" lon="13.5274555"><ele>193.0</ele><time>2026-05-03T11:48:54.128Z</time></trkpt><trkpt lat="46.0664787" lon="13.5276175"><ele>193.0</ele><time>2026-05-03T11:48:55.128Z</time></trkpt><trkpt lat="46.0664431" lon="13.5277881"><ele>193.0</ele><time>2026-05-03T11:48:56.127Z</time></trkpt><trkpt lat="46.0664061" lon="13.5279549"><ele>193.0</ele><time>2026-05-03T11:48:57.127Z</time></trkpt><trkpt lat="46.0663737" lon="13.5281162"><ele>193.0</ele><time>2026-05-03T11:48:58.128Z</time></trkpt><trkpt lat="46.0663445" lon="13.5282838"><ele>192.75</ele><time>2026-05-03T11:48:59.128Z</time></trkpt><trkpt lat="46.0663119" lon="13.5284598"><ele>192.5</ele><time>2026-05-03T11:49:00.128Z</time></trkpt><trkpt lat="46.0662796" lon="13.528631"><ele>192.25</ele><time>2026-05-03T11:49:01.128Z</time></trkpt><trkpt lat="46.0662586" lon="13.5287937"><ele>192.0</ele><time>2026-05-03T11:49:02.128Z</time></trkpt><trkpt lat="46.0662498" lon="13.5289469"><ele>192.0</ele><time>2026-05-03T11:49:03.128Z</time></trkpt><trkpt lat="46.0662516" lon="13.5290935"><ele>192.0</ele><time>2026-05-03T11:49:04.128Z</time></trkpt><trkpt lat="46.0662583" lon="13.5292568"><ele>192.0</ele><time>2026-05-03T11:49:05.128Z</time></trkpt><trkpt lat="46.0662687" lon="13.5294214"><ele>192.0</ele><time>2026-05-03T11:49:06.127Z</time></trkpt><trkpt lat="46.0662783" lon="13.5295786"><ele>192.0</ele><time>2026-05-03T11:49:07.128Z</time></trkpt><trkpt lat="46.0662854" lon="13.5297146"><ele>193.5</ele><time>2026-05-03T11:49:08.128Z</time></trkpt><trkpt lat="46.0662952" lon="13.5298321"><ele>195.0</ele><time>2026-05-03T11:49:09.128Z</time></trkpt><trkpt lat="46.0663153" lon="13.5299314"><ele>196.5</ele><time>2026-05-03T11:49:10.127Z</time></trkpt><trkpt lat="46.0663538" lon="13.5300408"><ele>198.0</ele><time>2026-05-03T11:49:11.128Z</time></trkpt><trkpt lat="46.0664057" lon="13.5301532"><ele>199.5</ele><time>2026-05-03T11:49:12.128Z</time></trkpt><trkpt lat="46.0664562" lon="13.5302452"><ele>201.0</ele><time>2026-05-03T11:49:13.127Z</time></trkpt><trkpt lat="46.0665134" lon="13.5303222"><ele>205.0</ele><time>2026-05-03T11:49:14.127Z</time></trkpt><trkpt lat="46.0665772" lon="13.5303921"><ele>209.0</ele><time>2026-05-03T11:49:15.128Z</time></trkpt><trkpt lat="46.0666479" lon="13.5304596"><ele>213.00000000000003</ele><time>2026-05-03T11:49:16.128Z</time></trkpt><trkpt lat="46.0667337" lon="13.5305053"><ele>217.0</ele><time>2026-05-03T11:49:17.128Z</time></trkpt><trkpt lat="46.0668405" lon="13.5305405"><ele>221.0</ele><time>2026-05-03T11:49:18.128Z</time></trkpt><trkpt lat="46.0669389" lon="13.5305796"><ele>209.20000000000002</ele><time>2026-05-03T11:49:19.128Z</time></trkpt><trkpt lat="46.0670208" lon="13.5306007"><ele>197.40000000000003</ele><time>2026-05-03T11:49:20.128Z</time></trkpt><trkpt lat="46.067113" lon="13.5306019"><ele>185.6</ele><time>2026-05-03T11:49:21.128Z</time></trkpt><trkpt lat="46.0672088" lon="13.5305868"><ele>173.8</ele><time>2026-05-03T11:49:22.128Z</time></trkpt><trkpt lat="46.0673062" lon="13.5305529"><ele>162.0</ele><time>2026-05-03T11:49:23.128Z</time></trkpt><trkpt lat="46.0674054" lon="13.5305102"><ele>159.2</ele><time>2026-05-03T11:49:24.128Z</time></trkpt><trkpt lat="46.067497" lon="13.530469"><ele>156.39999999999998</ele><time>2026-05-03T11:49:25.127Z</time></trkpt><trkpt lat="46.0675894" lon="13.5304321"><ele>153.60000000000002</ele><time>2026-05-03T11:49:26.128Z</time></trkpt><trkpt lat="46.0676912" lon="13.5303919"><ele>150.8</ele><time>2026-05-03T11:49:27.128Z</time></trkpt><trkpt lat="46.067796" lon="13.5303475"><ele>148.0</ele><time>2026-05-03T11:49:28.128Z</time></trkpt><trkpt lat="46.0679035" lon="13.5303041"><ele>146.0</ele><time>2026-05-03T11:49:29.128Z</time></trkpt><trkpt lat="46.067997" lon="13.5302641"><ele>144.0</ele><time>2026-05-03T11:49:30.127Z</time></trkpt><trkpt lat="46.0680823" lon="13.5302279"><ele>142.0</ele><time>2026-05-03T11:49:31.128Z</time></trkpt><trkpt lat="46.0681689" lon="13.5302032"><ele>140.0</ele><time>2026-05-03T11:49:32.128Z</time></trkpt><trkpt lat="46.0682514" lon="13.5301944"><ele>138.0</ele><time>2026-05-03T11:49:33.128Z</time></trkpt><trkpt lat="46.0683207" lon="13.5302014"><ele>136.0</ele><time>2026-05-03T11:49:34.128Z</time></trkpt><trkpt lat="46.0684023" lon="13.530246"><ele>136.0</ele><time>2026-05-03T11:49:35.128Z</time></trkpt><trkpt lat="46.0684911" lon="13.5303351"><ele>136.0</ele><time>2026-05-03T11:49:36.128Z</time></trkpt><trkpt lat="46.0686012" lon="13.5304632"><ele>136.0</ele><time>2026-05-03T11:49:37.128Z</time></trkpt><trkpt lat="46.0686994" lon="13.5305943"><ele>136.0</ele><time>2026-05-03T11:49:38.128Z</time></trkpt><trkpt lat="46.068795" lon="13.5307231"><ele>135.75</ele><time>2026-05-03T11:49:39.128Z</time></trkpt><trkpt lat="46.068886" lon="13.530841"><ele>135.5</ele><time>2026-05-03T11:49:40.128Z</time></trkpt><trkpt lat="46.0689686" lon="13.5309604"><ele>135.25</ele><time>2026-05-03T11:49:41.127Z</time></trkpt><trkpt lat="46.0690515" lon="13.5310727"><ele>135.0</ele><time>2026-05-03T11:49:42.128Z</time></trkpt><trkpt lat="46.0691283" lon="13.5311913"><ele>137.2</ele><time>2026-05-03T11:49:43.127Z</time></trkpt><trkpt lat="46.0691967" lon="13.5313213"><ele>139.4</ele><time>2026-05-03T11:49:44.127Z</time></trkpt><trkpt lat="46.0692524" lon="13.5314525"><ele>141.6</ele><time>2026-05-03T11:49:45.127Z</time></trkpt><trkpt lat="46.0692863" lon="13.5315829"><ele>143.8</ele><time>2026-05-03T11:49:46.128Z</time></trkpt><trkpt lat="46.0692946" lon="13.5317156"><ele>146.0</ele><time>2026-05-03T11:49:47.128Z</time></trkpt><trkpt lat="46.0692814" lon="13.5318457"><ele>146.0</ele><time>2026-05-03T11:49:48.128Z</time></trkpt><trkpt lat="46.0692516" lon="13.5319695"><ele>146.0</ele><time>2026-05-03T11:49:49.128Z</time></trkpt><trkpt lat="46.0692092" lon="13.532097"><ele>146.0</ele><time>2026-05-03T11:49:50.128Z</time></trkpt><trkpt lat="46.0691699" lon="13.5322316"><ele>146.0</ele><time>2026-05-03T11:49:51.128Z</time></trkpt><trkpt lat="46.0691515" lon="13.5323709"><ele>146.0</ele><time>2026-05-03T11:49:52.128Z</time></trkpt><trkpt lat="46.069157" lon="13.5325283"><ele>148.0</ele><time>2026-05-03T11:49:53.128Z</time></trkpt><trkpt lat="46.0691592" lon="13.5326948"><ele>150.0</ele><time>2026-05-03T11:49:54.128Z</time></trkpt><trkpt lat="46.0691695" lon="13.532862"><ele>152.0</ele><time>2026-05-03T11:49:55.128Z</time></trkpt><trkpt lat="46.069181" lon="13.5330218"><ele>154.0</ele><time>2026-05-03T11:49:56.128Z</time></trkpt><trkpt lat="46.0692052" lon="13.5331909"><ele>156.75</ele><time>2026-05-03T11:49:57.128Z</time></trkpt><trkpt lat="46.0692482" lon="13.5333594"><ele>159.5</ele><time>2026-05-03T11:49:58.128Z</time></trkpt><trkpt lat="46.0693046" lon="13.5335272"><ele>162.25</ele><time>2026-05-03T11:49:59.128Z</time></trkpt><trkpt lat="46.0693533" lon="13.5336801"><ele>165.0</ele><time>2026-05-03T11:50:00.127Z</time></trkpt><trkpt lat="46.0694002" lon="13.5338263"><ele>168.6</ele><time>2026-05-03T11:50:01.128Z</time></trkpt><trkpt lat="46.0694458" lon="13.533969"><ele>172.2</ele><time>2026-05-03T11:50:02.128Z</time></trkpt><trkpt lat="46.0694908" lon="13.5341109"><ele>175.8</ele><time>2026-05-03T11:50:03.128Z</time></trkpt><trkpt lat="46.0695498" lon="13.5342503"><ele>179.4</ele><time>2026-05-03T11:50:04.128Z</time></trkpt><trkpt lat="46.0696062" lon="13.5343918"><ele>183.0</ele><time>2026-05-03T11:50:05.128Z</time></trkpt><trkpt lat="46.0696641" lon="13.5345384"><ele>187.2</ele><time>2026-05-03T11:50:06.128Z</time></trkpt><trkpt lat="46.0697226" lon="13.5346778"><ele>191.4</ele><time>2026-05-03T11:50:07.128Z</time></trkpt><trkpt lat="46.0697831" lon="13.534815"><ele>195.6</ele><time>2026-05-03T11:50:08.128Z</time></trkpt><trkpt lat="46.0698461" lon="13.5349377"><ele>199.79999999999998</ele><time>2026-05-03T11:50:09.128Z</time></trkpt><trkpt lat="46.0699059" lon="13.5350501"><ele>204.0</ele><time>2026-05-03T11:50:10.128Z</time></trkpt><trkpt lat="46.0699761" lon="13.5351533"><ele>198.5</ele><time>2026-05-03T11:50:11.127Z</time></trkpt><trkpt lat="46.0700578" lon="13.5352372"><ele>193.0</ele><time>2026-05-03T11:50:12.128Z</time></trkpt><trkpt lat="46.0701605" lon="13.5353025"><ele>187.5</ele><time>2026-05-03T11:50:13.128Z</time></trkpt><trkpt lat="46.070276" lon="13.5353417"><ele>182.0</ele><time>2026-05-03T11:50:14.128Z</time></trkpt><trkpt lat="46.0703917" lon="13.5353933"><ele>182.0</ele><time>2026-05-03T11:50:15.128Z</time></trkpt><trkpt lat="46.0705034" lon="13.5354392"><ele>182.0</ele><time>2026-05-03T11:50:16.127Z</time></trkpt><trkpt lat="46.0706171" lon="13.5354776"><ele>182.0</ele><time>2026-05-03T11:50:17.128Z</time></trkpt><trkpt lat="46.0707259" lon="13.5355068"><ele>182.0</ele><time>2026-05-03T11:50:18.128Z</time></trkpt><trkpt lat="46.0708494" lon="13.5355112"><ele>178.25</ele><time>2026-05-03T11:50:19.127Z</time></trkpt><trkpt lat="46.0709735" lon="13.5354982"><ele>174.5</ele><time>2026-05-03T11:50:20.127Z</time></trkpt><trkpt lat="46.0710911" lon="13.5354851"><ele>170.75</ele><time>2026-05-03T11:50:21.127Z</time></trkpt><trkpt lat="46.071204" lon="13.5354681"><ele>167.0</ele><time>2026-05-03T11:50:22.128Z</time></trkpt><trkpt lat="46.0713374" lon="13.5354415"><ele>167.0</ele><time>2026-05-03T11:50:23.128Z</time></trkpt><trkpt lat="46.0714661" lon="13.5354085"><ele>167.0</ele><time>2026-05-03T11:50:24.127Z</time></trkpt><trkpt lat="46.0715898" lon="13.5353659"><ele>167.0</ele><time>2026-05-03T11:50:25.127Z</time></trkpt><trkpt lat="46.0717165" lon="13.5353323"><ele>167.0</ele><time>2026-05-03T11:50:26.128Z</time></trkpt><trkpt lat="46.0718242" lon="13.5353101"><ele>166.2</ele><time>2026-05-03T11:50:27.128Z</time></trkpt><trkpt lat="46.071928" lon="13.5352968"><ele>165.39999999999998</ele><time>2026-05-03T11:50:28.128Z</time></trkpt><trkpt lat="46.0720362" lon="13.5353003"><ele>164.60000000000002</ele><time>2026-05-03T11:50:29.127Z</time></trkpt><trkpt lat="46.0721429" lon="13.5353523"><ele>163.8</ele><time>2026-05-03T11:50:30.128Z</time></trkpt><trkpt lat="46.0722395" lon="13.5354337"><ele>163.0</ele><time>2026-05-03T11:50:31.128Z</time></trkpt><trkpt lat="46.0723461" lon="13.5355085"><ele>162.0</ele><time>2026-05-03T11:50:32.128Z</time></trkpt><trkpt lat="46.0724548" lon="13.5355867"><ele>161.0</ele><time>2026-05-03T11:50:33.128Z</time></trkpt><trkpt lat="46.0725682" lon="13.5356846"><ele>160.0</ele><time>2026-05-03T11:50:34.128Z</time></trkpt><trkpt lat="46.0726743" lon="13.5357743"><ele>159.0</ele><time>2026-05-03T11:50:35.128Z</time></trkpt><trkpt lat="46.0727802" lon="13.5358724"><ele>159.0</ele><time>2026-05-03T11:50:36.128Z</time></trkpt><trkpt lat="46.0728893" lon="13.5359713"><ele>159.0</ele><time>2026-05-03T11:50:37.127Z</time></trkpt><trkpt lat="46.0729979" lon="13.5360652"><ele>159.0</ele><time>2026-05-03T11:50:38.128Z</time></trkpt><trkpt lat="46.073101" lon="13.5361682"><ele>159.0</ele><time>2026-05-03T11:50:39.127Z</time></trkpt><trkpt lat="46.0732036" lon="13.5362836"><ele>160.0</ele><time>2026-05-03T11:50:40.128Z</time></trkpt><trkpt lat="46.0733133" lon="13.5363958"><ele>161.0</ele><time>2026-05-03T11:50:41.128Z</time></trkpt><trkpt lat="46.0734259" lon="13.5365103"><ele>162.0</ele><time>2026-05-03T11:50:42.128Z</time></trkpt><trkpt lat="46.0735343" lon="13.5366233"><ele>163.0</ele><time>2026-05-03T11:50:43.128Z</time></trkpt><trkpt lat="46.0736397" lon="13.5367404"><ele>163.0</ele><time>2026-05-03T11:50:44.128Z</time></trkpt><trkpt lat="46.0737373" lon="13.5368674"><ele>163.0</ele><time>2026-05-03T11:50:45.127Z</time></trkpt><trkpt lat="46.0738186" lon="13.5369906"><ele>163.0</ele><time>2026-05-03T11:50:46.128Z</time></trkpt><trkpt lat="46.0738933" lon="13.5371195"><ele>163.0</ele><time>2026-05-03T11:50:47.128Z</time></trkpt><trkpt lat="46.0739654" lon="13.5372616"><ele>161.25</ele><time>2026-05-03T11:50:48.128Z</time></trkpt><trkpt lat="46.074036" lon="13.5373976"><ele>159.5</ele><time>2026-05-03T11:50:49.127Z</time></trkpt><trkpt lat="46.074102" lon="13.5375349"><ele>157.75</ele><time>2026-05-03T11:50:50.128Z</time></trkpt><trkpt lat="46.0741739" lon="13.537664"><ele>156.0</ele><time>2026-05-03T11:50:51.128Z</time></trkpt><trkpt lat="46.0742505" lon="13.5377778"><ele>161.0</ele><time>2026-05-03T11:50:52.128Z</time></trkpt><trkpt lat="46.0743302" lon="13.5378979"><ele>166.0</ele><time>2026-05-03T11:50:53.127Z</time></trkpt><trkpt lat="46.0744146" lon="13.538022"><ele>171.0</ele><time>2026-05-03T11:50:54.128Z</time></trkpt><trkpt lat="46.0745118" lon="13.5381443"><ele>176.0</ele><time>2026-05-03T11:50:55.128Z</time></trkpt><trkpt lat="46.0746184" lon="13.5382626"><ele>176.0</ele><time>2026-05-03T11:50:56.128Z</time></trkpt><trkpt lat="46.0747256" lon="13.5383804"><ele>176.0</ele><time>2026-05-03T11:50:57.128Z</time></trkpt><trkpt lat="46.0748315" lon="13.5384979"><ele>176.0</ele><time>2026-05-03T11:50:58.128Z</time></trkpt><trkpt lat="46.0749399" lon="13.5386174"><ele>176.0</ele><time>2026-05-03T11:50:59.127Z</time></trkpt><trkpt lat="46.0750319" lon="13.5387274"><ele>173.25</ele><time>2026-05-03T11:51:00.127Z</time></trkpt><trkpt lat="46.0751233" lon="13.5388434"><ele>170.5</ele><time>2026-05-03T11:51:01.128Z</time></trkpt><trkpt lat="46.0752142" lon="13.5389526"><ele>167.75</ele><time>2026-05-03T11:51:02.128Z</time></trkpt><trkpt lat="46.0753166" lon="13.5390591"><ele>165.0</ele><time>2026-05-03T11:51:03.128Z</time></trkpt><trkpt lat="46.0754168" lon="13.5391607"><ele>165.0</ele><time>2026-05-03T11:51:04.127Z</time></trkpt><trkpt lat="46.0755151" lon="13.5392536"><ele>165.0</ele><time>2026-05-03T11:51:05.128Z</time></trkpt><trkpt lat="46.0756137" lon="13.5393459"><ele>165.0</ele><time>2026-05-03T11:51:06.128Z</time></trkpt><trkpt lat="46.0757206" lon="13.5394468"><ele>165.0</ele><time>2026-05-03T11:51:07.128Z</time></trkpt><trkpt lat="46.0758235" lon="13.5395428"><ele>165.5</ele><time>2026-05-03T11:51:08.127Z</time></trkpt><trkpt lat="46.0759252" lon="13.5396358"><ele>166.0</ele><time>2026-05-03T11:51:09.128Z</time></trkpt><trkpt lat="46.0760225" lon="13.5397239"><ele>166.5</ele><time>2026-05-03T11:51:10.127Z</time></trkpt><trkpt lat="46.0761145" lon="13.5398157"><ele>167.0</ele><time>2026-05-03T11:51:11.127Z</time></trkpt><trkpt lat="46.0761981" lon="13.5399053"><ele>167.0</ele><time>2026-05-03T11:51:12.128Z</time></trkpt><trkpt lat="46.0762628" lon="13.5399989"><ele>167.0</ele><time>2026-05-03T11:51:13.128Z</time></trkpt><trkpt lat="46.0763098" lon="13.5400882"><ele>167.0</ele><time>2026-05-03T11:51:14.128Z</time></trkpt><trkpt lat="46.0763493" lon="13.5401983"><ele>167.0</ele><time>2026-05-03T11:51:15.128Z</time></trkpt><trkpt lat="46.0763797" lon="13.5403139"><ele>167.0</ele><time>2026-05-03T11:51:16.128Z</time></trkpt><trkpt lat="46.0763989" lon="13.5404586"><ele>167.0</ele><time>2026-05-03T11:51:17.127Z</time></trkpt><trkpt lat="46.0764214" lon="13.5405977"><ele>172.8</ele><time>2026-05-03T11:51:18.128Z</time></trkpt><trkpt lat="46.0764411" lon="13.5407301"><ele>178.6</ele><time>2026-05-03T11:51:19.127Z</time></trkpt><trkpt lat="46.0764541" lon="13.5408498"><ele>184.4</ele><time>2026-05-03T11:51:20.128Z</time></trkpt><trkpt lat="46.0764527" lon="13.5409787"><ele>190.20000000000002</ele><time>2026-05-03T11:51:21.128Z</time></trkpt><trkpt lat="46.076432" lon="13.5411085"><ele>196.0</ele><time>2026-05-03T11:51:22.128Z</time></trkpt><trkpt lat="46.076418" lon="13.5412491"><ele>200.60000000000002</ele><time>2026-05-03T11:51:23.128Z</time></trkpt><trkpt lat="46.0764274" lon="13.5413905"><ele>205.2</ele><time>2026-05-03T11:51:24.128Z</time></trkpt><trkpt lat="46.0764556" lon="13.5415379"><ele>209.79999999999998</ele><time>2026-05-03T11:51:25.128Z</time></trkpt><trkpt lat="46.0764974" lon="13.5417056"><ele>214.39999999999998</ele><time>2026-05-03T11:51:26.127Z</time></trkpt><trkpt lat="46.0765472" lon="13.5418638"><ele>219.0</ele><time>2026-05-03T11:51:27.128Z</time></trkpt><trkpt lat="46.0766069" lon="13.5420136"><ele>208.0</ele><time>2026-05-03T11:51:28.128Z</time></trkpt><trkpt lat="46.0766696" lon="13.5421699"><ele>197.0</ele><time>2026-05-03T11:51:29.127Z</time></trkpt><trkpt lat="46.0767378" lon="13.5423119"><ele>186.0</ele><time>2026-05-03T11:51:30.127Z</time></trkpt><trkpt lat="46.0768094" lon="13.5424418"><ele>175.0</ele><time>2026-05-03T11:51:31.128Z</time></trkpt><trkpt lat="46.0768797" lon="13.5425731"><ele>175.0</ele><time>2026-05-03T11:51:32.128Z</time></trkpt><trkpt lat="46.0769521" lon="13.5426985"><ele>175.0</ele><time>2026-05-03T11:51:33.128Z</time></trkpt><trkpt lat="46.0770281" lon="13.5428187"><ele>175.0</ele><time>2026-05-03T11:51:34.128Z</time></trkpt><trkpt lat="46.0771056" lon="13.5429291"><ele>175.0</ele><time>2026-05-03T11:51:35.127Z</time></trkpt><trkpt lat="46.0771799" lon="13.5430207"><ele>175.0</ele><time>2026-05-03T11:51:36.127Z</time></trkpt><trkpt lat="46.0772559" lon="13.5431026"><ele>173.75</ele><time>2026-05-03T11:51:37.128Z</time></trkpt><trkpt lat="46.0773598" lon="13.5431754"><ele>172.5</ele><time>2026-05-03T11:51:38.128Z</time></trkpt><trkpt lat="46.0774761" lon="13.5432317"><ele>171.25</ele><time>2026-05-03T11:51:39.127Z</time></trkpt><trkpt lat="46.0775955" lon="13.5432963"><ele>170.0</ele><time>2026-05-03T11:51:40.127Z</time></trkpt><trkpt lat="46.0777133" lon="13.54337"><ele>170.0</ele><time>2026-05-03T11:51:41.128Z</time></trkpt><trkpt lat="46.077836" lon="13.5434274"><ele>170.0</ele><time>2026-05-03T11:51:42.128Z</time></trkpt><trkpt lat="46.0779449" lon="13.5434754"><ele>170.0</ele><time>2026-05-03T11:51:43.128Z</time></trkpt><trkpt lat="46.0780547" lon="13.5435188"><ele>170.0</ele><time>2026-05-03T11:51:44.128Z</time></trkpt><trkpt lat="46.078179" lon="13.5435522"><ele>167.5</ele><time>2026-05-03T11:51:45.128Z</time></trkpt><trkpt lat="46.0783258" lon="13.5435576"><ele>165.0</ele><time>2026-05-03T11:51:46.128Z</time></trkpt><trkpt lat="46.0784625" lon="13.5435576"><ele>162.5</ele><time>2026-05-03T11:51:47.127Z</time></trkpt><trkpt lat="46.0786048" lon="13.5435739"><ele>160.0</ele><time>2026-05-03T11:51:48.127Z</time></trkpt><trkpt lat="46.0787442" lon="13.5436034"><ele>160.0</ele><time>2026-05-03T11:51:49.127Z</time></trkpt><trkpt lat="46.0788842" lon="13.5436497"><ele>160.0</ele><time>2026-05-03T11:51:50.127Z</time></trkpt><trkpt lat="46.0790203" lon="13.5436973"><ele>160.0</ele><time>2026-05-03T11:51:51.128Z</time></trkpt><trkpt lat="46.0791511" lon="13.5437439"><ele>160.0</ele><time>2026-05-03T11:51:52.128Z</time></trkpt><trkpt lat="46.0792815" lon="13.5437796"><ele>165.25</ele><time>2026-05-03T11:51:53.127Z</time></trkpt><trkpt lat="46.0794138" lon="13.5438136"><ele>170.5</ele><time>2026-05-03T11:51:54.128Z</time></trkpt><trkpt lat="46.0795502" lon="13.5438519"><ele>175.75</ele><time>2026-05-03T11:51:55.127Z</time></trkpt><trkpt lat="46.0796893" lon="13.5438966"><ele>181.0</ele><time>2026-05-03T11:51:56.128Z</time></trkpt><trkpt lat="46.0798252" lon="13.5439337"><ele>179.0</ele><time>2026-05-03T11:51:57.128Z</time></trkpt><trkpt lat="46.0799576" lon="13.5439667"><ele>177.0</ele><time>2026-05-03T11:51:58.127Z</time></trkpt><trkpt lat="46.0800834" lon="13.5440025"><ele>175.0</ele><time>2026-05-03T11:51:59.128Z</time></trkpt><trkpt lat="46.0802158" lon="13.5440389"><ele>173.0</ele><time>2026-05-03T11:52:00.128Z</time></trkpt><trkpt lat="46.0803503" lon="13.5440718"><ele>173.0</ele><time>2026-05-03T11:52:01.127Z</time></trkpt><trkpt lat="46.0804815" lon="13.5441161"><ele>173.0</ele><time>2026-05-03T11:52:02.127Z</time></trkpt><trkpt lat="46.0806148" lon="13.54417"><ele>173.0</ele><time>2026-05-03T11:52:03.128Z</time></trkpt><trkpt lat="46.0807477" lon="13.5442328"><ele>173.0</ele><time>2026-05-03T11:52:04.127Z</time></trkpt><trkpt lat="46.0808835" lon="13.5442855"><ele>170.5</ele><time>2026-05-03T11:52:05.128Z</time></trkpt><trkpt lat="46.0810098" lon="13.5443233"><ele>168.0</ele><time>2026-05-03T11:52:06.128Z</time></trkpt><trkpt lat="46.0811348" lon="13.5443464"><ele>165.5</ele><time>2026-05-03T11:52:07.128Z</time></trkpt><trkpt lat="46.0812533" lon="13.544361"><ele>163.0</ele><time>2026-05-03T11:52:08.128Z</time></trkpt><trkpt lat="46.0813628" lon="13.544363"><ele>163.0</ele><time>2026-05-03T11:52:09.128Z</time></trkpt><trkpt lat="46.0814668" lon="13.5443589"><ele>163.0</ele><time>2026-05-03T11:52:10.127Z</time></trkpt><trkpt lat="46.0815714" lon="13.5443749"><ele>163.0</ele><time>2026-05-03T11:52:11.128Z</time></trkpt><trkpt lat="46.0816685" lon="13.5443869"><ele>163.0</ele><time>2026-05-03T11:52:12.127Z</time></trkpt><trkpt lat="46.0817691" lon="13.5443876"><ele>163.0</ele><time>2026-05-03T11:52:13.128Z</time></trkpt><trkpt lat="46.0818617" lon="13.5443748"><ele>162.5</ele><time>2026-05-03T11:52:14.127Z</time></trkpt><trkpt lat="46.0819336" lon="13.5443691"><ele>162.0</ele><time>2026-05-03T11:52:15.128Z</time></trkpt><trkpt lat="46.0820018" lon="13.5443785"><ele>161.5</ele><time>2026-05-03T11:52:16.128Z</time></trkpt><trkpt lat="46.0821038" lon="13.5444569"><ele>161.0</ele><time>2026-05-03T11:52:18.128Z</time></trkpt><trkpt lat="46.0821423" lon="13.544549"><ele>160.5</ele><time>2026-05-03T11:52:19.127Z</time></trkpt><trkpt lat="46.0821606" lon="13.5446448"><ele>160.0</ele><time>2026-05-03T11:52:20.127Z</time></trkpt><trkpt lat="46.0821695" lon="13.5447569"><ele>164.8</ele><time>2026-05-03T11:52:21.128Z</time></trkpt><trkpt lat="46.0821601" lon="13.5449046"><ele>169.6</ele><time>2026-05-03T11:52:22.128Z</time></trkpt><trkpt lat="46.082156" lon="13.5450502"><ele>174.39999999999998</ele><time>2026-05-03T11:52:23.128Z</time></trkpt><trkpt lat="46.0821574" lon="13.5451847"><ele>179.2</ele><time>2026-05-03T11:52:24.127Z</time></trkpt><trkpt lat="46.0821748" lon="13.545308"><ele>184.0</ele><time>2026-05-03T11:52:25.128Z</time></trkpt><trkpt lat="46.0822083" lon="13.5454235"><ele>185.79999999999998</ele><time>2026-05-03T11:52:26.128Z</time></trkpt><trkpt lat="46.0822592" lon="13.5455333"><ele>187.6</ele><time>2026-05-03T11:52:27.128Z</time></trkpt><trkpt lat="46.0823209" lon="13.5456493"><ele>189.4</ele><time>2026-05-03T11:52:28.128Z</time></trkpt><trkpt lat="46.0823851" lon="13.5457614"><ele>191.2</ele><time>2026-05-03T11:52:29.127Z</time></trkpt><trkpt lat="46.0824431" lon="13.5458617"><ele>193.0</ele><time>2026-05-03T11:52:30.128Z</time></trkpt><trkpt lat="46.0824865" lon="13.5459615"><ele>187.25</ele><time>2026-05-03T11:52:31.128Z</time></trkpt><trkpt lat="46.0825137" lon="13.5460847"><ele>181.5</ele><time>2026-05-03T11:52:32.127Z</time></trkpt><trkpt lat="46.0825276" lon="13.5462472"><ele>175.75</ele><time>2026-05-03T11:52:33.127Z</time></trkpt><trkpt lat="46.0825396" lon="13.5464248"><ele>170.0</ele><time>2026-05-03T11:52:34.128Z</time></trkpt><trkpt lat="46.0825542" lon="13.5466086"><ele>170.0</ele><time>2026-05-03T11:52:35.128Z</time></trkpt><trkpt lat="46.082563" lon="13.5467778"><ele>170.0</ele><time>2026-05-03T11:52:36.128Z</time></trkpt><trkpt lat="46.0825677" lon="13.5469142"><ele>170.0</ele><time>2026-05-03T11:52:37.126Z</time></trkpt><trkpt lat="46.0825704" lon="13.5470165"><ele>170.0</ele><time>2026-05-03T11:52:38.126Z</time></trkpt><trkpt lat="46.0825709" lon="13.5471888"><ele>170.0</ele><time>2026-05-03T11:52:40.127Z</time></trkpt><trkpt lat="46.0825618" lon="13.5473632"><ele>169.66666666666666</ele><time>2026-05-03T11:52:42.127Z</time></trkpt><trkpt lat="46.0825554" lon="13.5475332"><ele>169.33333333333331</ele><time>2026-05-03T11:52:44.127Z</time></trkpt><trkpt lat="46.0825399" lon="13.5476354"><ele>169.0</ele><time>2026-05-03T11:52:45.126Z</time></trkpt><trkpt lat="46.0825168" lon="13.5477382"><ele>168.66666666666666</ele><time>2026-05-03T11:52:46.127Z</time></trkpt><trkpt lat="46.0824917" lon="13.547841"><ele>168.33333333333334</ele><time>2026-05-03T11:52:47.127Z</time></trkpt><trkpt lat="46.0824624" lon="13.5479572"><ele>168.0</ele><time>2026-05-03T11:52:48.127Z</time></trkpt><trkpt lat="46.0824295" lon="13.5480635"><ele>177.4</ele><time>2026-05-03T11:52:49.127Z</time></trkpt><trkpt lat="46.0824023" lon="13.5481811"><ele>186.8</ele><time>2026-05-03T11:52:50.127Z</time></trkpt><trkpt lat="46.0823671" lon="13.5483031"><ele>196.2</ele><time>2026-05-03T11:52:51.127Z</time></trkpt><trkpt lat="46.082325" lon="13.5484223"><ele>205.6</ele><time>2026-05-03T11:52:52.127Z</time></trkpt><trkpt lat="46.0822765" lon="13.5485442"><ele>215.0</ele><time>2026-05-03T11:52:53.127Z</time></trkpt><trkpt lat="46.0822245" lon="13.5486618"><ele>214.6</ele><time>2026-05-03T11:52:54.126Z</time></trkpt><trkpt lat="46.0821749" lon="13.5487819"><ele>214.2</ele><time>2026-05-03T11:52:55.127Z</time></trkpt><trkpt lat="46.0821219" lon="13.5488992"><ele>213.8</ele><time>2026-05-03T11:52:56.127Z</time></trkpt><trkpt lat="46.0820655" lon="13.5490187"><ele>213.4</ele><time>2026-05-03T11:52:57.126Z</time></trkpt><trkpt lat="46.0819985" lon="13.5491322"><ele>213.0</ele><time>2026-05-03T11:52:58.127Z</time></trkpt><trkpt lat="46.0819251" lon="13.5492528"><ele>213.0</ele><time>2026-05-03T11:52:59.127Z</time></trkpt><trkpt lat="46.081861" lon="13.5493914"><ele>213.0</ele><time>2026-05-03T11:53:00.126Z</time></trkpt><trkpt lat="46.081811" lon="13.5495313"><ele>213.0</ele><time>2026-05-03T11:53:01.127Z</time></trkpt><trkpt lat="46.0817659" lon="13.5496437"><ele>213.0</ele><time>2026-05-03T11:53:02.126Z</time></trkpt><trkpt lat="46.0817308" lon="13.5497467"><ele>213.0</ele><time>2026-05-03T11:53:03.127Z</time></trkpt><trkpt lat="46.0817037" lon="13.5498492"><ele>212.66666666666666</ele><time>2026-05-03T11:53:04.127Z</time></trkpt><trkpt lat="46.081695" lon="13.5499646"><ele>212.33333333333331</ele><time>2026-05-03T11:53:05.127Z</time></trkpt><trkpt lat="46.0816972" lon="13.5500876"><ele>212.0</ele><time>2026-05-03T11:53:06.127Z</time></trkpt><trkpt lat="46.0816989" lon="13.5502151"><ele>211.66666666666666</ele><time>2026-05-03T11:53:07.126Z</time></trkpt><trkpt lat="46.0817154" lon="13.5503487"><ele>211.33333333333331</ele><time>2026-05-03T11:53:08.127Z</time></trkpt><trkpt lat="46.0817398" lon="13.5504593"><ele>211.0</ele><time>2026-05-03T11:53:09.127Z</time></trkpt><trkpt lat="46.0817737" lon="13.5505613"><ele>216.16666666666666</ele><time>2026-05-03T11:53:10.127Z</time></trkpt><trkpt lat="46.0818254" lon="13.5506689"><ele>221.33333333333331</ele><time>2026-05-03T11:53:11.127Z</time></trkpt><trkpt lat="46.0818788" lon="13.5507751"><ele>226.5</ele><time>2026-05-03T11:53:12.126Z</time></trkpt><trkpt lat="46.0819295" lon="13.5508745"><ele>231.66666666666669</ele><time>2026-05-03T11:53:13.126Z</time></trkpt><trkpt lat="46.0819931" lon="13.5509464"><ele>236.83333333333334</ele><time>2026-05-03T11:53:14.127Z</time></trkpt><trkpt lat="46.0820818" lon="13.5509969"><ele>242.0</ele><time>2026-05-03T11:53:15.127Z</time></trkpt><trkpt lat="46.0821766" lon="13.5510611"><ele>242.0</ele><time>2026-05-03T11:53:16.126Z</time></trkpt><trkpt lat="46.082279" lon="13.5511527"><ele>242.0</ele><time>2026-05-03T11:53:17.127Z</time></trkpt><trkpt lat="46.0823761" lon="13.5512459"><ele>242.0</ele><time>2026-05-03T11:53:18.127Z</time></trkpt><trkpt lat="46.0824792" lon="13.5513462"><ele>242.0</ele><time>2026-05-03T11:53:19.127Z</time></trkpt><trkpt lat="46.0825665" lon="13.5514501"><ele>230.6</ele><time>2026-05-03T11:53:20.127Z</time></trkpt><trkpt lat="46.0826507" lon="13.5515618"><ele>219.2</ele><time>2026-05-03T11:53:21.127Z</time></trkpt><trkpt lat="46.0827346" lon="13.5516497"><ele>207.8</ele><time>2026-05-03T11:53:22.127Z</time></trkpt><trkpt lat="46.0828227" lon="13.5517288"><ele>196.4</ele><time>2026-05-03T11:53:23.127Z</time></trkpt><trkpt lat="46.0829173" lon="13.5518015"><ele>185.0</ele><time>2026-05-03T11:53:24.127Z</time></trkpt><trkpt lat="46.08301" lon="13.551873"><ele>185.0</ele><time>2026-05-03T11:53:25.126Z</time></trkpt><trkpt lat="46.0831141" lon="13.5519403"><ele>185.0</ele><time>2026-05-03T11:53:26.127Z</time></trkpt><trkpt lat="46.0831999" lon="13.5520263"><ele>185.0</ele><time>2026-05-03T11:53:27.126Z</time></trkpt><trkpt lat="46.083289" lon="13.5521353"><ele>185.0</ele><time>2026-05-03T11:53:28.126Z</time></trkpt><trkpt lat="46.0833721" lon="13.5522458"><ele>185.0</ele><time>2026-05-03T11:53:29.127Z</time></trkpt><trkpt lat="46.0834448" lon="13.5523521"><ele>184.0</ele><time>2026-05-03T11:53:30.126Z</time></trkpt><trkpt lat="46.0835062" lon="13.5524516"><ele>183.0</ele><time>2026-05-03T11:53:31.127Z</time></trkpt><trkpt lat="46.0835501" lon="13.5525449"><ele>182.0</ele><time>2026-05-03T11:53:32.126Z</time></trkpt><trkpt lat="46.0835763" lon="13.5527182"><ele>181.0</ele><time>2026-05-03T11:53:34.127Z</time></trkpt><trkpt lat="46.0835669" lon="13.5528162"><ele>180.0</ele><time>2026-05-03T11:53:35.127Z</time></trkpt><trkpt lat="46.0835294" lon="13.5529422"><ele>183.4</ele><time>2026-05-03T11:53:36.127Z</time></trkpt><trkpt lat="46.0834849" lon="13.5530654"><ele>186.8</ele><time>2026-05-03T11:53:37.127Z</time></trkpt><trkpt lat="46.0834459" lon="13.5531963"><ele>190.2</ele><time>2026-05-03T11:53:38.127Z</time></trkpt><trkpt lat="46.083415" lon="13.5533596"><ele>193.6</ele><time>2026-05-03T11:53:39.127Z</time></trkpt><trkpt lat="46.0833907" lon="13.5535411"><ele>197.0</ele><time>2026-05-03T11:53:40.127Z</time></trkpt><trkpt lat="46.0833831" lon="13.5537207"><ele>197.25</ele><time>2026-05-03T11:53:41.127Z</time></trkpt><trkpt lat="46.0833802" lon="13.5538985"><ele>197.5</ele><time>2026-05-03T11:53:42.126Z</time></trkpt><trkpt lat="46.083384" lon="13.55409"><ele>197.75</ele><time>2026-05-03T11:53:43.127Z</time></trkpt><trkpt lat="46.0833975" lon="13.5542762"><ele>198.0</ele><time>2026-05-03T11:53:44.127Z</time></trkpt><trkpt lat="46.0834103" lon="13.5544755"><ele>198.0</ele><time>2026-05-03T11:53:45.127Z</time></trkpt><trkpt lat="46.0834204" lon="13.5546676"><ele>198.0</ele><time>2026-05-03T11:53:46.127Z</time></trkpt><trkpt lat="46.0834298" lon="13.5548557"><ele>198.0</ele><time>2026-05-03T11:53:47.126Z</time></trkpt><trkpt lat="46.08345" lon="13.5550281"><ele>198.0</ele><time>2026-05-03T11:53:48.127Z</time></trkpt><trkpt lat="46.0834658" lon="13.5551895"><ele>198.0</ele><time>2026-05-03T11:53:49.126Z</time></trkpt><trkpt lat="46.0834794" lon="13.5553454"><ele>198.0</ele><time>2026-05-03T11:53:50.127Z</time></trkpt><trkpt lat="46.0835052" lon="13.5554976"><ele>198.0</ele><time>2026-05-03T11:53:51.126Z</time></trkpt><trkpt lat="46.0835386" lon="13.5556544"><ele>198.0</ele><time>2026-05-03T11:53:52.127Z</time></trkpt><trkpt lat="46.0836124" lon="13.5557814"><ele>198.0</ele><time>2026-05-03T11:53:53.126Z</time></trkpt><trkpt lat="46.0836898" lon="13.5558988"><ele>198.60000000000002</ele><time>2026-05-03T11:53:54.126Z</time></trkpt><trkpt lat="46.083762" lon="13.5560289"><ele>199.20000000000002</ele><time>2026-05-03T11:53:55.127Z</time></trkpt><trkpt lat="46.0838394" lon="13.5561385"><ele>199.8</ele><time>2026-05-03T11:53:56.127Z</time></trkpt><trkpt lat="46.0839107" lon="13.5562432"><ele>200.4</ele><time>2026-05-03T11:53:57.127Z</time></trkpt><trkpt lat="46.0839772" lon="13.5563571"><ele>201.0</ele><time>2026-05-03T11:53:58.127Z</time></trkpt><trkpt lat="46.0840367" lon="13.556486"><ele>201.60000000000002</ele><time>2026-05-03T11:53:59.126Z</time></trkpt><trkpt lat="46.0840922" lon="13.5566158"><ele>202.2</ele><time>2026-05-03T11:54:00.127Z</time></trkpt><trkpt lat="46.0841373" lon="13.5567464"><ele>202.8</ele><time>2026-05-03T11:54:01.127Z</time></trkpt><trkpt lat="46.0841734" lon="13.55688"><ele>203.39999999999998</ele><time>2026-05-03T11:54:02.127Z</time></trkpt><trkpt lat="46.0841949" lon="13.5570284"><ele>204.0</ele><time>2026-05-03T11:54:03.127Z</time></trkpt><trkpt lat="46.0842108" lon="13.5571922"><ele>200.39999999999998</ele><time>2026-05-03T11:54:04.126Z</time></trkpt><trkpt lat="46.0842388" lon="13.5573307"><ele>196.8</ele><time>2026-05-03T11:54:05.127Z</time></trkpt><trkpt lat="46.0842698" lon="13.5574524"><ele>193.2</ele><time>2026-05-03T11:54:06.126Z</time></trkpt><trkpt lat="46.0843247" lon="13.5575678"><ele>189.60000000000002</ele><time>2026-05-03T11:54:07.127Z</time></trkpt><trkpt lat="46.084398" lon="13.5576757"><ele>186.0</ele><time>2026-05-03T11:54:08.127Z</time></trkpt><trkpt lat="46.0844764" lon="13.5577832"><ele>192.25</ele><time>2026-05-03T11:54:09.127Z</time></trkpt><trkpt lat="46.0845575" lon="13.5578987"><ele>198.5</ele><time>2026-05-03T11:54:10.127Z</time></trkpt><trkpt lat="46.0846455" lon="13.5580226"><ele>204.75</ele><time>2026-05-03T11:54:11.127Z</time></trkpt><trkpt lat="46.0847244" lon="13.5581487"><ele>211.0</ele><time>2026-05-03T11:54:12.126Z</time></trkpt><trkpt lat="46.0847986" lon="13.5582541"><ele>211.0</ele><time>2026-05-03T11:54:13.127Z</time></trkpt><trkpt lat="46.0848586" lon="13.5583509"><ele>211.0</ele><time>2026-05-03T11:54:14.127Z</time></trkpt><trkpt lat="46.0849157" lon="13.5584384"><ele>211.0</ele><time>2026-05-03T11:54:15.127Z</time></trkpt><trkpt lat="46.0849756" lon="13.5585371"><ele>211.0</ele><time>2026-05-03T11:54:16.127Z</time></trkpt><trkpt lat="46.0850213" lon="13.5586552"><ele>211.0</ele><time>2026-05-03T11:54:17.127Z</time></trkpt><trkpt lat="46.0850584" lon="13.558781"><ele>206.25</ele><time>2026-05-03T11:54:18.126Z</time></trkpt><trkpt lat="46.0850917" lon="13.5589451"><ele>201.5</ele><time>2026-05-03T11:54:19.127Z</time></trkpt><trkpt lat="46.085114" lon="13.5591252"><ele>196.75</ele><time>2026-05-03T11:54:20.127Z</time></trkpt><trkpt lat="46.0851242" lon="13.5592768"><ele>192.0</ele><time>2026-05-03T11:54:21.126Z</time></trkpt><trkpt lat="46.0851169" lon="13.5594188"><ele>197.2</ele><time>2026-05-03T11:54:22.126Z</time></trkpt><trkpt lat="46.0851148" lon="13.5595731"><ele>202.39999999999998</ele><time>2026-05-03T11:54:23.127Z</time></trkpt><trkpt lat="46.0851389" lon="13.5597276"><ele>207.60000000000002</ele><time>2026-05-03T11:54:24.127Z</time></trkpt><trkpt lat="46.0851835" lon="13.5598852"><ele>212.8</ele><time>2026-05-03T11:54:25.127Z</time></trkpt><trkpt lat="46.0852284" lon="13.5600318"><ele>218.0</ele><time>2026-05-03T11:54:26.127Z</time></trkpt><trkpt lat="46.0852877" lon="13.5601633"><ele>218.0</ele><time>2026-05-03T11:54:27.126Z</time></trkpt><trkpt lat="46.0853541" lon="13.5602948"><ele>218.0</ele><time>2026-05-03T11:54:28.127Z</time></trkpt><trkpt lat="46.0854251" lon="13.5604271"><ele>218.0</ele><time>2026-05-03T11:54:29.126Z</time></trkpt><trkpt lat="46.0855029" lon="13.5605551"><ele>218.0</ele><time>2026-05-03T11:54:30.127Z</time></trkpt><trkpt lat="46.0855728" lon="13.5606826"><ele>216.60000000000002</ele><time>2026-05-03T11:54:31.127Z</time></trkpt><trkpt lat="46.0856448" lon="13.5608097"><ele>215.20000000000002</ele><time>2026-05-03T11:54:32.127Z</time></trkpt><trkpt lat="46.0857115" lon="13.5609361"><ele>213.8</ele><time>2026-05-03T11:54:33.127Z</time></trkpt><trkpt lat="46.0857725" lon="13.5610647"><ele>212.4</ele><time>2026-05-03T11:54:34.127Z</time></trkpt><trkpt lat="46.085816" lon="13.561197"><ele>211.0</ele><time>2026-05-03T11:54:35.127Z</time></trkpt><trkpt lat="46.08585" lon="13.5613463"><ele>211.0</ele><time>2026-05-03T11:54:36.127Z</time></trkpt><trkpt lat="46.0858871" lon="13.5615196"><ele>211.0</ele><time>2026-05-03T11:54:37.127Z</time></trkpt><trkpt lat="46.0859447" lon="13.5616877"><ele>211.0</ele><time>2026-05-03T11:54:38.127Z</time></trkpt><trkpt lat="46.0859999" lon="13.5618472"><ele>211.0</ele><time>2026-05-03T11:54:39.127Z</time></trkpt><trkpt lat="46.0860687" lon="13.5619866"><ele>215.0</ele><time>2026-05-03T11:54:40.127Z</time></trkpt><trkpt lat="46.0861522" lon="13.5621212"><ele>219.0</ele><time>2026-05-03T11:54:41.127Z</time></trkpt><trkpt lat="46.0862347" lon="13.5622456"><ele>223.0</ele><time>2026-05-03T11:54:42.127Z</time></trkpt><trkpt lat="46.0863188" lon="13.5623711"><ele>227.0</ele><time>2026-05-03T11:54:43.127Z</time></trkpt><trkpt lat="46.0864056" lon="13.562509"><ele>227.0</ele><time>2026-05-03T11:54:44.127Z</time></trkpt><trkpt lat="46.0864857" lon="13.5626572"><ele>227.0</ele><time>2026-05-03T11:54:45.126Z</time></trkpt><trkpt lat="46.0865522" lon="13.5627952"><ele>227.0</ele><time>2026-05-03T11:54:46.126Z</time></trkpt><trkpt lat="46.0866099" lon="13.5629351"><ele>227.0</ele><time>2026-05-03T11:54:47.126Z</time></trkpt><trkpt lat="46.0866647" lon="13.5630756"><ele>223.5</ele><time>2026-05-03T11:54:48.126Z</time></trkpt><trkpt lat="46.0867065" lon="13.5632287"><ele>220.0</ele><time>2026-05-03T11:54:49.127Z</time></trkpt><trkpt lat="46.0867425" lon="13.5633897"><ele>216.5</ele><time>2026-05-03T11:54:50.126Z</time></trkpt><trkpt lat="46.0867694" lon="13.5635547"><ele>213.0</ele><time>2026-05-03T11:54:51.127Z</time></trkpt><trkpt lat="46.0867769" lon="13.5637286"><ele>213.0</ele><time>2026-05-03T11:54:52.127Z</time></trkpt><trkpt lat="46.0867935" lon="13.5639029"><ele>213.0</ele><time>2026-05-03T11:54:53.126Z</time></trkpt><trkpt lat="46.0868237" lon="13.5640523"><ele>213.0</ele><time>2026-05-03T11:54:54.127Z</time></trkpt><trkpt lat="46.0868727" lon="13.5641861"><ele>213.0</ele><time>2026-05-03T11:54:55.127Z</time></trkpt><trkpt lat="46.0869356" lon="13.5643085"><ele>213.0</ele><time>2026-05-03T11:54:56.126Z</time></trkpt><trkpt lat="46.0870082" lon="13.564408"><ele>213.0</ele><time>2026-05-03T11:54:57.126Z</time></trkpt><trkpt lat="46.0870586" lon="13.5644927"><ele>213.0</ele><time>2026-05-03T11:54:58.127Z</time></trkpt><trkpt lat="46.0870971" lon="13.5645912"><ele>213.0</ele><time>2026-05-03T11:54:59.126Z</time></trkpt><trkpt lat="46.0871136" lon="13.5646956"><ele>213.0</ele><time>2026-05-03T11:55:00.126Z</time></trkpt><trkpt lat="46.087109" lon="13.5648051"><ele>213.0</ele><time>2026-05-03T11:55:01.127Z</time></trkpt><trkpt lat="46.087085" lon="13.5649501"><ele>213.0</ele><time>2026-05-03T11:55:02.127Z</time></trkpt><trkpt lat="46.0870613" lon="13.565119"><ele>215.25</ele><time>2026-05-03T11:55:03.127Z</time></trkpt><trkpt lat="46.0870473" lon="13.5652982"><ele>217.5</ele><time>2026-05-03T11:55:04.126Z</time></trkpt><trkpt lat="46.0870438" lon="13.5654738"><ele>219.75</ele><time>2026-05-03T11:55:05.126Z</time></trkpt><trkpt lat="46.0870385" lon="13.565638"><ele>222.0</ele><time>2026-05-03T11:55:06.127Z</time></trkpt><trkpt lat="46.0870313" lon="13.5658085"><ele>222.25</ele><time>2026-05-03T11:55:07.127Z</time></trkpt><trkpt lat="46.0870333" lon="13.5659822"><ele>222.5</ele><time>2026-05-03T11:55:08.127Z</time></trkpt><trkpt lat="46.0870363" lon="13.5661576"><ele>222.75</ele><time>2026-05-03T11:55:09.126Z</time></trkpt><trkpt lat="46.0870445" lon="13.5663224"><ele>223.0</ele><time>2026-05-03T11:55:10.126Z</time></trkpt><trkpt lat="46.0870561" lon="13.5664839"><ele>222.99999999999997</ele><time>2026-05-03T11:55:11.127Z</time></trkpt><trkpt lat="46.0870825" lon="13.5666212"><ele>223.0</ele><time>2026-05-03T11:55:12.127Z</time></trkpt><trkpt lat="46.0871099" lon="13.5667471"><ele>223.0</ele><time>2026-05-03T11:55:13.127Z</time></trkpt><trkpt lat="46.0871338" lon="13.5668334"><ele>223.0</ele><time>2026-05-03T11:55:14.127Z</time></trkpt><trkpt lat="46.0871709" lon="13.5669199"><ele>222.99999999999997</ele><time>2026-05-03T11:55:15.127Z</time></trkpt><trkpt lat="46.0871981" lon="13.5670273"><ele>223.0</ele><time>2026-05-03T11:55:17.127Z</time></trkpt><trkpt lat="46.0871907" lon="13.5671891"><ele>222.83333333333331</ele><time>2026-05-03T11:55:19.126Z</time></trkpt><trkpt lat="46.087197" lon="13.5673032"><ele>222.66666666666666</ele><time>2026-05-03T11:55:20.127Z</time></trkpt><trkpt lat="46.0871947" lon="13.5673954"><ele>222.5</ele><time>2026-05-03T11:55:21.127Z</time></trkpt><trkpt lat="46.0871969" lon="13.567492"><ele>222.33333333333331</ele><time>2026-05-03T11:55:23.127Z</time></trkpt><trkpt lat="46.0872371" lon="13.5675701"><ele>222.16666666666666</ele><time>2026-05-03T11:57:24.126Z</time></trkpt><trkpt lat="46.0873226" lon="13.5677142"><ele>222.0</ele><time>2026-05-03T11:57:26.126Z</time></trkpt><trkpt lat="46.0873719" lon="13.5678007"><ele>220.8</ele><time>2026-05-03T11:57:27.126Z</time></trkpt><trkpt lat="46.0874382" lon="13.5678999"><ele>219.6</ele><time>2026-05-03T11:57:28.126Z</time></trkpt><trkpt lat="46.0875198" lon="13.5680003"><ele>218.40000000000003</ele><time>2026-05-03T11:57:29.125Z</time></trkpt><trkpt lat="46.0876092" lon="13.5681006"><ele>217.20000000000002</ele><time>2026-05-03T11:57:30.126Z</time></trkpt><trkpt lat="46.0877118" lon="13.5682043"><ele>216.0</ele><time>2026-05-03T11:57:31.125Z</time></trkpt><trkpt lat="46.0878123" lon="13.5683124"><ele>216.0</ele><time>2026-05-03T11:57:32.126Z</time></trkpt><trkpt lat="46.0878996" lon="13.5684001"><ele>216.00000000000003</ele><time>2026-05-03T11:57:33.126Z</time></trkpt><trkpt lat="46.0879681" lon="13.5684933"><ele>216.00000000000003</ele><time>2026-05-03T11:57:34.126Z</time></trkpt><trkpt lat="46.0880366" lon="13.5685994"><ele>216.0</ele><time>2026-05-03T11:57:35.126Z</time></trkpt><trkpt lat="46.0880856" lon="13.5687096"><ele>216.0</ele><time>2026-05-03T11:57:36.126Z</time></trkpt><trkpt lat="46.0881273" lon="13.5688437"><ele>213.0</ele><time>2026-05-03T11:57:37.126Z</time></trkpt><trkpt lat="46.0881722" lon="13.5689751"><ele>210.0</ele><time>2026-05-03T11:57:38.126Z</time></trkpt><trkpt lat="46.0882144" lon="13.5691237"><ele>207.0</ele><time>2026-05-03T11:57:39.126Z</time></trkpt><trkpt lat="46.0882644" lon="13.5692874"><ele>204.0</ele><time>2026-05-03T11:57:40.126Z</time></trkpt><trkpt lat="46.0882942" lon="13.5694444"><ele>205.5</ele><time>2026-05-03T11:57:41.125Z</time></trkpt><trkpt lat="46.0883061" lon="13.5695924"><ele>207.0</ele><time>2026-05-03T11:57:42.126Z</time></trkpt><trkpt lat="46.0883024" lon="13.5697386"><ele>208.5</ele><time>2026-05-03T11:57:43.126Z</time></trkpt><trkpt lat="46.088283" lon="13.5699146"><ele>210.0</ele><time>2026-05-03T11:57:44.126Z</time></trkpt><trkpt lat="46.0882662" lon="13.5701211"><ele>222.0</ele><time>2026-05-03T11:57:45.126Z</time></trkpt><trkpt lat="46.0882416" lon="13.5703291"><ele>234.0</ele><time>2026-05-03T11:57:46.126Z</time></trkpt><trkpt lat="46.0882186" lon="13.5705298"><ele>246.0</ele><time>2026-05-03T11:57:47.126Z</time></trkpt><trkpt lat="46.0882017" lon="13.5707348"><ele>258.0</ele><time>2026-05-03T11:57:48.126Z</time></trkpt><trkpt lat="46.0881786" lon="13.5709259"><ele>259.0</ele><time>2026-05-03T11:57:49.125Z</time></trkpt><trkpt lat="46.0881507" lon="13.5711183"><ele>260.0</ele><time>2026-05-03T11:57:50.126Z</time></trkpt><trkpt lat="46.0881242" lon="13.5712996"><ele>261.0</ele><time>2026-05-03T11:57:51.126Z</time></trkpt><trkpt lat="46.0880884" lon="13.571489"><ele>262.0</ele><time>2026-05-03T11:57:52.126Z</time></trkpt><trkpt lat="46.0880516" lon="13.5716762"><ele>259.75</ele><time>2026-05-03T11:57:53.126Z</time></trkpt><trkpt lat="46.0880125" lon="13.5718588"><ele>257.5</ele><time>2026-05-03T11:57:54.126Z</time></trkpt><trkpt lat="46.0879697" lon="13.5720292"><ele>255.25</ele><time>2026-05-03T11:57:55.126Z</time></trkpt><trkpt lat="46.0879244" lon="13.5722161"><ele>253.0</ele><time>2026-05-03T11:57:56.126Z</time></trkpt><trkpt lat="46.0878673" lon="13.5723833"><ele>249.75</ele><time>2026-05-03T11:57:57.126Z</time></trkpt><trkpt lat="46.0878213" lon="13.5725719"><ele>246.5</ele><time>2026-05-03T11:57:58.126Z</time></trkpt><trkpt lat="46.0877889" lon="13.5727482"><ele>243.25</ele><time>2026-05-03T11:57:59.125Z</time></trkpt><trkpt lat="46.0877373" lon="13.5728555"><ele>240.0</ele><time>2026-05-03T11:58:00.126Z</time></trkpt><trkpt lat="46.0877045" lon="13.5729831"><ele>237.85714285714286</ele><time>2026-05-03T11:58:01.125Z</time></trkpt><trkpt lat="46.0876893" lon="13.5730974"><ele>235.71428571428572</ele><time>2026-05-03T11:58:02.126Z</time></trkpt><trkpt lat="46.0876861" lon="13.5731981"><ele>233.57142857142858</ele><time>2026-05-03T11:58:03.126Z</time></trkpt><trkpt lat="46.0877061" lon="13.5732942"><ele>231.42857142857144</ele><time>2026-05-03T11:58:04.126Z</time></trkpt><trkpt lat="46.0877498" lon="13.5733738"><ele>229.28571428571428</ele><time>2026-05-03T11:58:05.126Z</time></trkpt><trkpt lat="46.0878098" lon="13.573431"><ele>227.14285714285717</ele><time>2026-05-03T11:58:06.126Z</time></trkpt><trkpt lat="46.0878823" lon="13.5734598"><ele>225.00000000000003</ele><time>2026-05-03T11:58:07.125Z</time></trkpt><trkpt lat="46.087971" lon="13.5734639"><ele>225.0</ele><time>2026-05-03T11:58:08.126Z</time></trkpt><trkpt lat="46.0880797" lon="13.573434"><ele>225.0</ele><time>2026-05-03T11:58:09.126Z</time></trkpt><trkpt lat="46.0881649" lon="13.5734216"><ele>225.0</ele><time>2026-05-03T11:58:10.126Z</time></trkpt><trkpt lat="46.0882683" lon="13.5734884"><ele>225.0</ele><time>2026-05-03T11:58:12.126Z</time></trkpt><trkpt lat="46.0883131" lon="13.5735555"><ele>225.0</ele><time>2026-05-03T11:58:13.126Z</time></trkpt><trkpt lat="46.0883587" lon="13.5736475"><ele>224.6</ele><time>2026-05-03T11:58:14.126Z</time></trkpt><trkpt lat="46.0883761" lon="13.5737606"><ele>224.2</ele><time>2026-05-03T11:58:15.125Z</time></trkpt><trkpt lat="46.0884042" lon="13.5738459"><ele>223.8</ele><time>2026-05-03T11:58:16.125Z</time></trkpt><trkpt lat="46.0884874" lon="13.5739353"><ele>223.4</ele><time>2026-05-03T11:58:18.125Z</time></trkpt><trkpt lat="46.0886107" lon="13.5739162"><ele>223.0</ele><time>2026-05-03T11:58:20.126Z</time></trkpt><trkpt lat="46.0886808" lon="13.573851"><ele>223.0</ele><time>2026-05-03T11:58:21.125Z</time></trkpt><trkpt lat="46.0887624" lon="13.5737313"><ele>223.0</ele><time>2026-05-03T11:58:22.126Z</time></trkpt><trkpt lat="46.088811" lon="13.5736508"><ele>223.0</ele><time>2026-05-03T11:58:23.125Z</time></trkpt><trkpt lat="46.0889326" lon="13.5735876"><ele>223.0</ele><time>2026-05-03T11:58:25.126Z</time></trkpt><trkpt lat="46.089015" lon="13.5735996"><ele>223.0</ele><time>2026-05-03T11:58:26.125Z</time></trkpt><trkpt lat="46.089092" lon="13.5736623"><ele>222.0</ele><time>2026-05-03T11:58:27.126Z</time></trkpt><trkpt lat="46.0891737" lon="13.5737558"><ele>221.0</ele><time>2026-05-03T11:58:28.126Z</time></trkpt><trkpt lat="46.0892743" lon="13.573878"><ele>220.0</ele><time>2026-05-03T11:58:29.126Z</time></trkpt><trkpt lat="46.089366" lon="13.5739697"><ele>219.0</ele><time>2026-05-03T11:58:30.126Z</time></trkpt><trkpt lat="46.0894506" lon="13.5740643"><ele>219.0</ele><time>2026-05-03T11:58:31.126Z</time></trkpt><trkpt lat="46.0895062" lon="13.5741549"><ele>218.99999999999997</ele><time>2026-05-03T11:58:32.126Z</time></trkpt><trkpt lat="46.0895466" lon="13.574309"><ele>218.99999999999997</ele><time>2026-05-03T11:58:34.126Z</time></trkpt><trkpt lat="46.0895412" lon="13.5745246"><ele>219.0</ele><time>2026-05-03T11:58:36.126Z</time></trkpt><trkpt lat="46.0895577" lon="13.5746223"><ele>219.0</ele><time>2026-05-03T11:58:37.125Z</time></trkpt><trkpt lat="46.0896394" lon="13.5747372"><ele>218.2</ele><time>2026-05-03T11:58:39.126Z</time></trkpt><trkpt lat="46.0897811" lon="13.5747405"><ele>217.39999999999998</ele><time>2026-05-03T11:58:41.126Z</time></trkpt><trkpt lat="46.0898589" lon="13.5747267"><ele>216.6</ele><time>2026-05-03T11:58:42.126Z</time></trkpt><trkpt lat="46.089925" lon="13.5747216"><ele>215.8</ele><time>2026-05-03T11:58:43.126Z</time></trkpt><trkpt lat="46.0900294" lon="13.5747875"><ele>215.0</ele><time>2026-05-03T11:58:45.126Z</time></trkpt><trkpt lat="46.0900862" lon="13.5748817"><ele>215.0</ele><time>2026-05-03T11:58:46.126Z</time></trkpt><trkpt lat="46.0901388" lon="13.5750291"><ele>215.0</ele><time>2026-05-03T11:58:47.126Z</time></trkpt><trkpt lat="46.0901986" lon="13.5751886"><ele>215.0</ele><time>2026-05-03T11:58:48.126Z</time></trkpt><trkpt lat="46.0902677" lon="13.5753596"><ele>215.0</ele><time>2026-05-03T11:58:49.125Z</time></trkpt><trkpt lat="46.0903357" lon="13.575523"><ele>219.75</ele><time>2026-05-03T11:58:50.126Z</time></trkpt><trkpt lat="46.0904066" lon="13.5756879"><ele>224.5</ele><time>2026-05-03T11:58:51.126Z</time></trkpt><trkpt lat="46.0904805" lon="13.5758489"><ele>229.25</ele><time>2026-05-03T11:58:52.126Z</time></trkpt><trkpt lat="46.0905423" lon="13.5760077"><ele>234.0</ele><time>2026-05-03T11:58:53.125Z</time></trkpt><trkpt lat="46.0906066" lon="13.5761633"><ele>236.6</ele><time>2026-05-03T11:58:54.126Z</time></trkpt><trkpt lat="46.0906615" lon="13.5763135"><ele>239.2</ele><time>2026-05-03T11:58:55.126Z</time></trkpt><trkpt lat="46.0907115" lon="13.5764336"><ele>241.79999999999998</ele><time>2026-05-03T11:58:56.126Z</time></trkpt><trkpt lat="46.0907695" lon="13.5765342"><ele>244.39999999999998</ele><time>2026-05-03T11:58:57.125Z</time></trkpt><trkpt lat="46.0908285" lon="13.5766004"><ele>247.0</ele><time>2026-05-03T11:58:58.126Z</time></trkpt><trkpt lat="46.0908959" lon="13.5766507"><ele>240.2</ele><time>2026-05-03T11:58:59.126Z</time></trkpt><trkpt lat="46.0909677" lon="13.5766729"><ele>233.39999999999998</ele><time>2026-05-03T11:59:00.126Z</time></trkpt><trkpt lat="46.0910448" lon="13.5766702"><ele>226.60000000000002</ele><time>2026-05-03T11:59:01.126Z</time></trkpt><trkpt lat="46.0911097" lon="13.5766333"><ele>219.8</ele><time>2026-05-03T11:59:02.126Z</time></trkpt><trkpt lat="46.0912039" lon="13.576465"><ele>213.0</ele><time>2026-05-03T11:59:04.126Z</time></trkpt><trkpt lat="46.091272" lon="13.5763609"><ele>213.0</ele><time>2026-05-03T11:59:05.125Z</time></trkpt><trkpt lat="46.0913358" lon="13.5762763"><ele>213.0</ele><time>2026-05-03T11:59:06.126Z</time></trkpt><trkpt lat="46.0914066" lon="13.5762168"><ele>213.0</ele><time>2026-05-03T11:59:07.126Z</time></trkpt><trkpt lat="46.0914769" lon="13.5761796"><ele>213.0</ele><time>2026-05-03T11:59:08.125Z</time></trkpt><trkpt lat="46.0915817" lon="13.5762016"><ele>213.0</ele><time>2026-05-03T11:59:10.126Z</time></trkpt><trkpt lat="46.0916462" lon="13.576287"><ele>213.0</ele><time>2026-05-03T11:59:11.125Z</time></trkpt><trkpt lat="46.0916992" lon="13.5764012"><ele>214.0</ele><time>2026-05-03T11:59:12.125Z</time></trkpt><trkpt lat="46.0917899" lon="13.5766271"><ele>215.0</ele><time>2026-05-03T11:59:14.126Z</time></trkpt><trkpt lat="46.0918284" lon="13.5767554"><ele>216.0</ele><time>2026-05-03T11:59:15.125Z</time></trkpt><trkpt lat="46.0919" lon="13.5768602"><ele>217.0</ele><time>2026-05-03T11:59:16.126Z</time></trkpt><trkpt lat="46.0919874" lon="13.5769378"><ele>217.0</ele><time>2026-05-03T11:59:17.126Z</time></trkpt><trkpt lat="46.0920959" lon="13.5770124"><ele>217.0</ele><time>2026-05-03T11:59:18.126Z</time></trkpt><trkpt lat="46.0922136" lon="13.5770895"><ele>217.0</ele><time>2026-05-03T11:59:19.125Z</time></trkpt><trkpt lat="46.0923161" lon="13.5771538"><ele>217.0</ele><time>2026-05-03T11:59:20.125Z</time></trkpt><trkpt lat="46.0923848" lon="13.5772423"><ele>220.2</ele><time>2026-05-03T11:59:21.126Z</time></trkpt><trkpt lat="46.0924626" lon="13.5773419"><ele>223.39999999999998</ele><time>2026-05-03T11:59:22.126Z</time></trkpt><trkpt lat="46.0925435" lon="13.5774503"><ele>226.60000000000002</ele><time>2026-05-03T11:59:23.125Z</time></trkpt><trkpt lat="46.0926334" lon="13.5775455"><ele>229.8</ele><time>2026-05-03T11:59:24.126Z</time></trkpt><trkpt lat="46.0927052" lon="13.5776258"><ele>233.0</ele><time>2026-05-03T11:59:25.126Z</time></trkpt><trkpt lat="46.092776" lon="13.577691"><ele>233.0</ele><time>2026-05-03T11:59:26.125Z</time></trkpt><trkpt lat="46.0928604" lon="13.5777425"><ele>233.0</ele><time>2026-05-03T11:59:27.126Z</time></trkpt><trkpt lat="46.0929553" lon="13.5777854"><ele>233.0</ele><time>2026-05-03T11:59:28.126Z</time></trkpt><trkpt lat="46.0930631" lon="13.5778343"><ele>233.0</ele><time>2026-05-03T11:59:29.125Z</time></trkpt><trkpt lat="46.093154" lon="13.577879"><ele>233.0</ele><time>2026-05-03T11:59:30.126Z</time></trkpt><trkpt lat="46.093236" lon="13.5779351"><ele>236.5</ele><time>2026-05-03T11:59:31.126Z</time></trkpt><trkpt lat="46.0933269" lon="13.5780118"><ele>240.0</ele><time>2026-05-03T11:59:32.126Z</time></trkpt><trkpt lat="46.0934442" lon="13.5780737"><ele>243.5</ele><time>2026-05-03T11:59:33.126Z</time></trkpt><trkpt lat="46.0935491" lon="13.5781425"><ele>247.0</ele><time>2026-05-03T11:59:34.126Z</time></trkpt><trkpt lat="46.0936866" lon="13.5781883"><ele>247.0</ele><time>2026-05-03T11:59:35.126Z</time></trkpt><trkpt lat="46.0937729" lon="13.5782424"><ele>247.0</ele><time>2026-05-03T11:59:36.126Z</time></trkpt><trkpt lat="46.0938736" lon="13.5782962"><ele>247.0</ele><time>2026-05-03T11:59:37.126Z</time></trkpt><trkpt lat="46.0939675" lon="13.5783348"><ele>247.0</ele><time>2026-05-03T11:59:38.125Z</time></trkpt><trkpt lat="46.0940601" lon="13.5783482"><ele>247.0</ele><time>2026-05-03T11:59:39.126Z</time></trkpt><trkpt lat="46.0941485" lon="13.5783364"><ele>245.0</ele><time>2026-05-03T11:59:40.126Z</time></trkpt><trkpt lat="46.0942324" lon="13.5783032"><ele>243.0</ele><time>2026-05-03T11:59:41.126Z</time></trkpt><trkpt lat="46.0943136" lon="13.5782485"><ele>241.0</ele><time>2026-05-03T11:59:42.126Z</time></trkpt><trkpt lat="46.094382" lon="13.578198"><ele>239.0</ele><time>2026-05-03T11:59:43.126Z</time></trkpt><trkpt lat="46.0944908" lon="13.5781819"><ele>237.0</ele><time>2026-05-03T11:59:45.126Z</time></trkpt><trkpt lat="46.0945792" lon="13.5782585"><ele>237.0</ele><time>2026-05-03T11:59:47.126Z</time></trkpt><trkpt lat="46.0946881" lon="13.5783974"><ele>237.0</ele><time>2026-05-03T11:59:49.126Z</time></trkpt><trkpt lat="46.0947771" lon="13.57848"><ele>237.0</ele><time>2026-05-03T11:59:50.126Z</time></trkpt><trkpt lat="46.0948784" lon="13.5785636"><ele>237.0</ele><time>2026-05-03T11:59:51.126Z</time></trkpt><trkpt lat="46.0949914" lon="13.5786603"><ele>240.39999999999998</ele><time>2026-05-03T11:59:52.126Z</time></trkpt><trkpt lat="46.0950707" lon="13.5787401"><ele>243.79999999999998</ele><time>2026-05-03T11:59:53.126Z</time></trkpt><trkpt lat="46.095149" lon="13.5788099"><ele>247.2</ele><time>2026-05-03T11:59:54.126Z</time></trkpt><trkpt lat="46.0951969" lon="13.578926"><ele>250.6</ele><time>2026-05-03T11:59:56.126Z</time></trkpt><trkpt lat="46.0951697" lon="13.5790812"><ele>254.0</ele><time>2026-05-03T11:59:58.126Z</time></trkpt><trkpt lat="46.0950847" lon="13.5792697"><ele>254.0</ele><time>2026-05-03T12:00:00.125Z</time></trkpt><trkpt lat="46.0950185" lon="13.5794073"><ele>254.0</ele><time>2026-05-03T12:00:01.125Z</time></trkpt><trkpt lat="46.0949472" lon="13.5795661"><ele>254.0</ele><time>2026-05-03T12:00:02.126Z</time></trkpt><trkpt lat="46.0948768" lon="13.5797273"><ele>254.0</ele><time>2026-05-03T12:00:03.126Z</time></trkpt><trkpt lat="46.0948115" lon="13.5798942"><ele>257.2</ele><time>2026-05-03T12:00:04.126Z</time></trkpt><trkpt lat="46.0947408" lon="13.580035"><ele>260.4</ele><time>2026-05-03T12:00:05.126Z</time></trkpt><trkpt lat="46.0946664" lon="13.5801698"><ele>263.6</ele><time>2026-05-03T12:00:06.126Z</time></trkpt><trkpt lat="46.0945995" lon="13.5802843"><ele>266.8</ele><time>2026-05-03T12:00:07.126Z</time></trkpt><trkpt lat="46.0945473" lon="13.5803765"><ele>270.0</ele><time>2026-05-03T12:00:08.125Z</time></trkpt><trkpt lat="46.0945105" lon="13.5804712"><ele>270.0</ele><time>2026-05-03T12:00:09.126Z</time></trkpt><trkpt lat="46.0944938" lon="13.5806553"><ele>270.0</ele><time>2026-05-03T12:00:11.126Z</time></trkpt><trkpt lat="46.0945447" lon="13.5808241"><ele>270.0</ele><time>2026-05-03T12:00:13.125Z</time></trkpt><trkpt lat="46.0946024" lon="13.5808894"><ele>270.0</ele><time>2026-05-03T12:00:14.126Z</time></trkpt><trkpt lat="46.0946736" lon="13.5809307"><ele>270.0</ele><time>2026-05-03T12:00:15.125Z</time></trkpt><trkpt lat="46.0947496" lon="13.5809371"><ele>270.0</ele><time>2026-05-03T12:00:16.126Z</time></trkpt><trkpt lat="46.0948107" lon="13.5809035"><ele>270.0</ele><time>2026-05-03T12:00:17.125Z</time></trkpt><trkpt lat="46.0948832" lon="13.5808487"><ele>270.0</ele><time>2026-05-03T12:00:18.126Z</time></trkpt><trkpt lat="46.0949694" lon="13.5807584"><ele>270.0</ele><time>2026-05-03T12:00:19.126Z</time></trkpt><trkpt lat="46.0950303" lon="13.5806719"><ele>270.0</ele><time>2026-05-03T12:00:20.126Z</time></trkpt><trkpt lat="46.0950889" lon="13.5806185"><ele>270.0</ele><time>2026-05-03T12:00:21.126Z</time></trkpt><trkpt lat="46.0951585" lon="13.5805785"><ele>266.6666666666667</ele><time>2026-05-03T12:00:22.126Z</time></trkpt><trkpt lat="46.0952286" lon="13.5805635"><ele>263.3333333333333</ele><time>2026-05-03T12:00:23.126Z</time></trkpt><trkpt lat="46.0952993" lon="13.5805868"><ele>260.0</ele><time>2026-05-03T12:00:24.126Z</time></trkpt><trkpt lat="46.0953791" lon="13.5806485"><ele>256.66666666666663</ele><time>2026-05-03T12:00:25.125Z</time></trkpt><trkpt lat="46.0954658" lon="13.5807194"><ele>253.33333333333331</ele><time>2026-05-03T12:00:26.126Z</time></trkpt><trkpt lat="46.0955615" lon="13.5807715"><ele>250.0</ele><time>2026-05-03T12:00:27.126Z</time></trkpt><trkpt lat="46.0956598" lon="13.5808029"><ele>250.0</ele><time>2026-05-03T12:00:28.126Z</time></trkpt><trkpt lat="46.0957525" lon="13.5808245"><ele>250.0</ele><time>2026-05-03T12:00:29.125Z</time></trkpt><trkpt lat="46.0958165" lon="13.5808598"><ele>250.0</ele><time>2026-05-03T12:00:30.125Z</time></trkpt><trkpt lat="46.0958773" lon="13.5809092"><ele>250.0</ele><time>2026-05-03T12:00:31.125Z</time></trkpt><trkpt lat="46.0959079" lon="13.5811322"><ele>250.0</ele><time>2026-05-03T12:00:33.125Z</time></trkpt><trkpt lat="46.0959167" lon="13.5812493"><ele>252.2</ele><time>2026-05-03T12:00:34.125Z</time></trkpt><trkpt lat="46.0959612" lon="13.5813382"><ele>254.4</ele><time>2026-05-03T12:00:35.125Z</time></trkpt><trkpt lat="46.0960441" lon="13.5814009"><ele>256.6</ele><time>2026-05-03T12:00:36.125Z</time></trkpt><trkpt lat="46.096135" lon="13.5814352"><ele>258.8</ele><time>2026-05-03T12:00:37.125Z</time></trkpt><trkpt lat="46.0962315" lon="13.5814179"><ele>261.0</ele><time>2026-05-03T12:00:38.124Z</time></trkpt><trkpt lat="46.0963168" lon="13.5813612"><ele>261.0</ele><time>2026-05-03T12:00:39.125Z</time></trkpt><trkpt lat="46.0963765" lon="13.5812924"><ele>261.0</ele><time>2026-05-03T12:00:40.125Z</time></trkpt><trkpt lat="46.0964207" lon="13.5812016"><ele>261.0</ele><time>2026-05-03T12:00:42.124Z</time></trkpt><trkpt lat="46.0964927" lon="13.5810795"><ele>261.0</ele><time>2026-05-03T12:00:45.124Z</time></trkpt><trkpt lat="46.0965479" lon="13.5810068"><ele>261.0</ele><time>2026-05-03T12:00:46.124Z</time></trkpt><trkpt lat="46.0966046" lon="13.5809253"><ele>261.0</ele><time>2026-05-03T12:00:47.125Z</time></trkpt><trkpt lat="46.096657" lon="13.5808655"><ele>257.8</ele><time>2026-05-03T12:00:48.124Z</time></trkpt><trkpt lat="46.0967628" lon="13.5808402"><ele>254.60000000000002</ele><time>2026-05-03T12:00:50.125Z</time></trkpt><trkpt lat="46.0968338" lon="13.5808659"><ele>251.4</ele><time>2026-05-03T12:00:51.124Z</time></trkpt><trkpt lat="46.0969383" lon="13.5809269"><ele>248.2</ele><time>2026-05-03T12:00:52.125Z</time></trkpt><trkpt lat="46.0970596" lon="13.5809922"><ele>245.0</ele><time>2026-05-03T12:00:53.125Z</time></trkpt><trkpt lat="46.0971719" lon="13.5810412"><ele>245.0</ele><time>2026-05-03T12:00:54.124Z</time></trkpt><trkpt lat="46.097262" lon="13.5810845"><ele>245.0</ele><time>2026-05-03T12:00:55.124Z</time></trkpt><trkpt lat="46.0973425" lon="13.5811477"><ele>245.0</ele><time>2026-05-03T12:00:56.124Z</time></trkpt><trkpt lat="46.0974069" lon="13.581208"><ele>245.0</ele><time>2026-05-03T12:00:57.125Z</time></trkpt><trkpt lat="46.0974562" lon="13.5812736"><ele>245.0</ele><time>2026-05-03T12:00:58.124Z</time></trkpt><trkpt lat="46.0975304" lon="13.5814355"><ele>247.6</ele><time>2026-05-03T12:01:00.125Z</time></trkpt><trkpt lat="46.0975506" lon="13.5815654"><ele>250.2</ele><time>2026-05-03T12:01:01.125Z</time></trkpt><trkpt lat="46.0975634" lon="13.581725"><ele>252.8</ele><time>2026-05-03T12:01:02.125Z</time></trkpt><trkpt lat="46.097572" lon="13.5819095"><ele>255.4</ele><time>2026-05-03T12:01:03.125Z</time></trkpt><trkpt lat="46.0975824" lon="13.5820683"><ele>258.0</ele><time>2026-05-03T12:01:04.125Z</time></trkpt><trkpt lat="46.0975877" lon="13.5821915"><ele>258.6666666666667</ele><time>2026-05-03T12:01:05.125Z</time></trkpt><trkpt lat="46.0976091" lon="13.5823029"><ele>259.3333333333333</ele><time>2026-05-03T12:01:06.125Z</time></trkpt><trkpt lat="46.0976418" lon="13.5824099"><ele>260.0</ele><time>2026-05-03T12:01:07.125Z</time></trkpt><trkpt lat="46.0976402" lon="13.5825058"><ele>260.66666666666663</ele><time>2026-05-03T12:01:08.125Z</time></trkpt><trkpt lat="46.0976205" lon="13.5826037"><ele>261.3333333333333</ele><time>2026-05-03T12:01:09.125Z</time></trkpt><trkpt lat="46.0975927" lon="13.5827175"><ele>262.0</ele><time>2026-05-03T12:01:10.125Z</time></trkpt><trkpt lat="46.0975404" lon="13.5828821"><ele>262.0</ele><time>2026-05-03T12:01:11.125Z</time></trkpt><trkpt lat="46.0974191" lon="13.583061"><ele>262.0</ele><time>2026-05-03T12:01:12.124Z</time></trkpt><trkpt lat="46.0973907" lon="13.583224"><ele>262.0</ele><time>2026-05-03T12:01:13.125Z</time></trkpt><trkpt lat="46.0973814" lon="13.5833946"><ele>262.0</ele><time>2026-05-03T12:01:14.125Z</time></trkpt><trkpt lat="46.0973864" lon="13.5835687"><ele>267.2</ele><time>2026-05-03T12:01:15.125Z</time></trkpt><trkpt lat="46.0973886" lon="13.583758"><ele>272.4</ele><time>2026-05-03T12:01:16.125Z</time></trkpt><trkpt lat="46.0973753" lon="13.5839215"><ele>277.6</ele><time>2026-05-03T12:01:17.125Z</time></trkpt><trkpt lat="46.0973624" lon="13.5840482"><ele>282.8</ele><time>2026-05-03T12:01:18.125Z</time></trkpt><trkpt lat="46.0973417" lon="13.5841603"><ele>288.0</ele><time>2026-05-03T12:01:19.125Z</time></trkpt><trkpt lat="46.0973364" lon="13.5842652"><ele>288.0</ele><time>2026-05-03T12:01:20.125Z</time></trkpt><trkpt lat="46.0973792" lon="13.5844124"><ele>288.0</ele><time>2026-05-03T12:01:22.124Z</time></trkpt><trkpt lat="46.0974653" lon="13.5844594"><ele>288.0</ele><time>2026-05-03T12:01:24.124Z</time></trkpt><trkpt lat="46.0975815" lon="13.5844094"><ele>288.0</ele><time>2026-05-03T12:01:26.125Z</time></trkpt><trkpt lat="46.0976423" lon="13.5843072"><ele>288.0</ele><time>2026-05-03T12:01:28.124Z</time></trkpt><trkpt lat="46.0976805" lon="13.5841921"><ele>283.0</ele><time>2026-05-03T12:01:29.125Z</time></trkpt><trkpt lat="46.0977409" lon="13.5840676"><ele>278.0</ele><time>2026-05-03T12:01:30.124Z</time></trkpt><trkpt lat="46.0978095" lon="13.5839341"><ele>273.0</ele><time>2026-05-03T12:01:31.124Z</time></trkpt><trkpt lat="46.0978837" lon="13.5838033"><ele>268.0</ele><time>2026-05-03T12:01:32.124Z</time></trkpt><trkpt lat="46.0979465" lon="13.5836724"><ele>263.0</ele><time>2026-05-03T12:01:33.124Z</time></trkpt><trkpt lat="46.0980003" lon="13.583555"><ele>262.8</ele><time>2026-05-03T12:01:34.124Z</time></trkpt><trkpt lat="46.0980395" lon="13.5834693"><ele>262.6</ele><time>2026-05-03T12:01:35.125Z</time></trkpt><trkpt lat="46.0981289" lon="13.5833784"><ele>262.4</ele><time>2026-05-03T12:01:37.125Z</time></trkpt><trkpt lat="46.0982389" lon="13.5833737"><ele>262.2</ele><time>2026-05-03T12:01:39.124Z</time></trkpt><trkpt lat="46.0983159" lon="13.5834262"><ele>262.0</ele><time>2026-05-03T12:01:40.125Z</time></trkpt><trkpt lat="46.0983999" lon="13.5834963"><ele>262.2</ele><time>2026-05-03T12:01:41.124Z</time></trkpt><trkpt lat="46.0984528" lon="13.5835682"><ele>262.4</ele><time>2026-05-03T12:01:42.125Z</time></trkpt><trkpt lat="46.0985607" lon="13.5836332"><ele>262.6</ele><time>2026-05-03T12:01:43.125Z</time></trkpt><trkpt lat="46.0986519" lon="13.5836865"><ele>262.8</ele><time>2026-05-03T12:01:44.125Z</time></trkpt><trkpt lat="46.0987272" lon="13.5837543"><ele>263.0</ele><time>2026-05-03T12:01:45.125Z</time></trkpt><trkpt lat="46.0987994" lon="13.5838243"><ele>263.0</ele><time>2026-05-03T12:01:46.125Z</time></trkpt><trkpt lat="46.0988676" lon="13.5839238"><ele>263.0</ele><time>2026-05-03T12:01:47.125Z</time></trkpt><trkpt lat="46.098931" lon="13.5840309"><ele>263.0</ele><time>2026-05-03T12:01:48.124Z</time></trkpt><trkpt lat="46.0989711" lon="13.5841676"><ele>263.0</ele><time>2026-05-03T12:01:49.125Z</time></trkpt><trkpt lat="46.0990146" lon="13.5842874"><ele>263.0</ele><time>2026-05-03T12:01:50.124Z</time></trkpt><trkpt lat="46.0990509" lon="13.5843884"><ele>263.0</ele><time>2026-05-03T12:01:51.124Z</time></trkpt><trkpt lat="46.0990602" lon="13.5844819"><ele>263.0</ele><time>2026-05-03T12:01:52.125Z</time></trkpt><trkpt lat="46.0990655" lon="13.5845801"><ele>263.0</ele><time>2026-05-03T12:01:53.124Z</time></trkpt><trkpt lat="46.0990453" lon="13.5846868"><ele>263.0</ele><time>2026-05-03T12:01:54.125Z</time></trkpt><trkpt lat="46.0990058" lon="13.5847809"><ele>263.0</ele><time>2026-05-03T12:01:55.125Z</time></trkpt><trkpt lat="46.0989435" lon="13.5848827"><ele>263.0</ele><time>2026-05-03T12:01:56.125Z</time></trkpt><trkpt lat="46.0988624" lon="13.584988"><ele>263.0</ele><time>2026-05-03T12:01:57.125Z</time></trkpt><trkpt lat="46.098785" lon="13.5850634"><ele>263.0</ele><time>2026-05-03T12:01:58.125Z</time></trkpt><trkpt lat="46.0987156" lon="13.585117"><ele>263.0</ele><time>2026-05-03T12:01:59.124Z</time></trkpt><trkpt lat="46.098647" lon="13.5852323"><ele>263.0</ele><time>2026-05-03T12:02:01.125Z</time></trkpt><trkpt lat="46.0985987" lon="13.5853549"><ele>263.0</ele><time>2026-05-03T12:02:03.125Z</time></trkpt><trkpt lat="46.0985842" lon="13.5854465"><ele>263.0</ele><time>2026-05-03T12:02:04.124Z</time></trkpt><trkpt lat="46.0986003" lon="13.5855596"><ele>263.0</ele><time>2026-05-03T12:02:05.125Z</time></trkpt><trkpt lat="46.0986376" lon="13.5856806"><ele>263.0</ele><time>2026-05-03T12:02:06.124Z</time></trkpt><trkpt lat="46.0986779" lon="13.5857908"><ele>263.0</ele><time>2026-05-03T12:02:07.125Z</time></trkpt><trkpt lat="46.0987067" lon="13.5858915"><ele>263.0</ele><time>2026-05-03T12:02:08.125Z</time></trkpt><trkpt lat="46.0987191" lon="13.5859901"><ele>263.0</ele><time>2026-05-03T12:02:09.125Z</time></trkpt><trkpt lat="46.0986977" lon="13.5862206"><ele>263.6</ele><time>2026-05-03T12:02:11.125Z</time></trkpt><trkpt lat="46.0986671" lon="13.5863476"><ele>264.20000000000005</ele><time>2026-05-03T12:02:12.124Z</time></trkpt><trkpt lat="46.098644" lon="13.5864553"><ele>264.8</ele><time>2026-05-03T12:02:13.125Z</time></trkpt><trkpt lat="46.0986669" lon="13.5866088"><ele>265.40000000000003</ele><time>2026-05-03T12:02:15.125Z</time></trkpt><trkpt lat="46.0987781" lon="13.5867328"><ele>266.0</ele><time>2026-05-03T12:02:17.124Z</time></trkpt><trkpt lat="46.0988347" lon="13.5868042"><ele>266.0</ele><time>2026-05-03T12:02:18.125Z</time></trkpt><trkpt lat="46.0989155" lon="13.58692"><ele>266.0</ele><time>2026-05-03T12:02:20.124Z</time></trkpt><trkpt lat="46.0990031" lon="13.5870034"><ele>266.0</ele><time>2026-05-03T12:02:22.124Z</time></trkpt><trkpt lat="46.0990802" lon="13.5870136"><ele>266.0</ele><time>2026-05-03T12:02:24.125Z</time></trkpt><trkpt lat="46.0991337" lon="13.5869436"><ele>266.0</ele><time>2026-05-03T12:02:26.125Z</time></trkpt><trkpt lat="46.0991091" lon="13.5867889"><ele>266.0</ele><time>2026-05-03T12:02:28.124Z</time></trkpt><trkpt lat="46.0989971" lon="13.5865212"><ele>266.0</ele><time>2026-05-03T12:02:30.124Z</time></trkpt><trkpt lat="46.098964" lon="13.5863153"><ele>266.0</ele><time>2026-05-03T12:02:31.125Z</time></trkpt><trkpt lat="46.0989578" lon="13.5860902"><ele>265.25</ele><time>2026-05-03T12:02:32.125Z</time></trkpt><trkpt lat="46.098963" lon="13.585899"><ele>264.5</ele><time>2026-05-03T12:02:33.125Z</time></trkpt><trkpt lat="46.098965" lon="13.5857179"><ele>263.75</ele><time>2026-05-03T12:02:34.125Z</time></trkpt><trkpt lat="46.0989781" lon="13.5855426"><ele>263.0</ele><time>2026-05-03T12:02:35.125Z</time></trkpt><trkpt lat="46.0990129" lon="13.585363"><ele>263.25</ele><time>2026-05-03T12:02:36.124Z</time></trkpt><trkpt lat="46.0990765" lon="13.5851987"><ele>263.5</ele><time>2026-05-03T12:02:37.125Z</time></trkpt><trkpt lat="46.0991456" lon="13.5850776"><ele>263.75</ele><time>2026-05-03T12:02:38.125Z</time></trkpt><trkpt lat="46.0992357" lon="13.5849926"><ele>264.0</ele><time>2026-05-03T12:02:39.125Z</time></trkpt><trkpt lat="46.0993445" lon="13.5849185"><ele>261.25</ele><time>2026-05-03T12:02:40.124Z</time></trkpt><trkpt lat="46.0994609" lon="13.5848854"><ele>258.5</ele><time>2026-05-03T12:02:41.125Z</time></trkpt><trkpt lat="46.0995736" lon="13.5848671"><ele>255.75</ele><time>2026-05-03T12:02:42.125Z</time></trkpt><trkpt lat="46.0996847" lon="13.5848226"><ele>253.0</ele><time>2026-05-03T12:02:43.125Z</time></trkpt><trkpt lat="46.0997971" lon="13.5848154"><ele>253.0</ele><time>2026-05-03T12:02:44.124Z</time></trkpt><trkpt lat="46.0999092" lon="13.584889"><ele>253.0</ele><time>2026-05-03T12:02:45.125Z</time></trkpt><trkpt lat="46.0999994" lon="13.5849822"><ele>253.0</ele><time>2026-05-03T12:02:46.125Z</time></trkpt><trkpt lat="46.100068" lon="13.5850418"><ele>253.0</ele><time>2026-05-03T12:02:47.125Z</time></trkpt><trkpt lat="46.1001474" lon="13.5849755"><ele>253.0</ele><time>2026-05-03T12:02:49.125Z</time></trkpt><trkpt lat="46.1001224" lon="13.5848645"><ele>252.75</ele><time>2026-05-03T12:02:50.124Z</time></trkpt><trkpt lat="46.1000472" lon="13.5847487"><ele>252.5</ele><time>2026-05-03T12:02:51.125Z</time></trkpt><trkpt lat="46.0999407" lon="13.5846023"><ele>252.25</ele><time>2026-05-03T12:02:52.124Z</time></trkpt><trkpt lat="46.0998301" lon="13.5844553"><ele>252.0</ele><time>2026-05-03T12:02:53.124Z</time></trkpt><trkpt lat="46.0997251" lon="13.5842957"><ele>252.0</ele><time>2026-05-03T12:02:54.124Z</time></trkpt><trkpt lat="46.0996359" lon="13.5841289"><ele>252.0</ele><time>2026-05-03T12:02:55.125Z</time></trkpt><trkpt lat="46.0995529" lon="13.5839435"><ele>252.0</ele><time>2026-05-03T12:02:56.125Z</time></trkpt><trkpt lat="46.0994852" lon="13.58376"><ele>252.0</ele><time>2026-05-03T12:02:57.124Z</time></trkpt><trkpt lat="46.0994211" lon="13.5835833"><ele>248.2</ele><time>2026-05-03T12:02:58.124Z</time></trkpt><trkpt lat="46.0993744" lon="13.5834045"><ele>244.39999999999998</ele><time>2026-05-03T12:02:59.124Z</time></trkpt><trkpt lat="46.0993529" lon="13.5832549"><ele>240.60000000000002</ele><time>2026-05-03T12:03:00.125Z</time></trkpt><trkpt lat="46.099347" lon="13.5831121"><ele>236.8</ele><time>2026-05-03T12:03:01.124Z</time></trkpt><trkpt lat="46.0993372" lon="13.5829795"><ele>233.0</ele><time>2026-05-03T12:03:02.125Z</time></trkpt><trkpt lat="46.0993337" lon="13.5828526"><ele>230.66666666666669</ele><time>2026-05-03T12:03:03.124Z</time></trkpt><trkpt lat="46.0993384" lon="13.58268"><ele>228.33333333333334</ele><time>2026-05-03T12:03:05.125Z</time></trkpt><trkpt lat="46.0993397" lon="13.5825859"><ele>226.0</ele><time>2026-05-03T12:03:07.125Z</time></trkpt><trkpt lat="46.0993324" lon="13.5824949"><ele>223.66666666666669</ele><time>2026-05-03T12:03:50.124Z</time></trkpt><trkpt lat="46.0993071" lon="13.5823801"><ele>221.33333333333334</ele><time>2026-05-03T12:03:51.125Z</time></trkpt><trkpt lat="46.099287" lon="13.5822402"><ele>219.0</ele><time>2026-05-03T12:03:52.125Z</time></trkpt><trkpt lat="46.0992669" lon="13.5820732"><ele>219.25</ele><time>2026-05-03T12:03:53.124Z</time></trkpt><trkpt lat="46.0992427" lon="13.5819082"><ele>219.5</ele><time>2026-05-03T12:03:54.125Z</time></trkpt><trkpt lat="46.0992118" lon="13.5817262"><ele>219.75</ele><time>2026-05-03T12:03:55.124Z</time></trkpt><trkpt lat="46.0991701" lon="13.5815419"><ele>220.0</ele><time>2026-05-03T12:03:56.125Z</time></trkpt><trkpt lat="46.0991146" lon="13.581359"><ele>218.25</ele><time>2026-05-03T12:03:57.125Z</time></trkpt><trkpt lat="46.0990376" lon="13.5811817"><ele>216.5</ele><time>2026-05-03T12:03:58.125Z</time></trkpt><trkpt lat="46.0989566" lon="13.5810169"><ele>214.75</ele><time>2026-05-03T12:03:59.125Z</time></trkpt><trkpt lat="46.0988854" lon="13.5808779"><ele>213.0</ele><time>2026-05-03T12:04:00.125Z</time></trkpt><trkpt lat="46.0988285" lon="13.5807598"><ele>213.0</ele><time>2026-05-03T12:04:01.125Z</time></trkpt><trkpt lat="46.0987919" lon="13.5806517"><ele>213.0</ele><time>2026-05-03T12:04:02.125Z</time></trkpt><trkpt lat="46.0987782" lon="13.5805553"><ele>213.0</ele><time>2026-05-03T12:04:03.124Z</time></trkpt><trkpt lat="46.0987719" lon="13.5804585"><ele>213.0</ele><time>2026-05-03T12:04:04.125Z</time></trkpt><trkpt lat="46.098763" lon="13.5803574"><ele>213.0</ele><time>2026-05-03T12:04:05.125Z</time></trkpt><trkpt lat="46.0987445" lon="13.5802264"><ele>213.0</ele><time>2026-05-03T12:04:06.125Z</time></trkpt><trkpt lat="46.0987187" lon="13.5800646"><ele>213.5</ele><time>2026-05-03T12:04:07.125Z</time></trkpt><trkpt lat="46.0986741" lon="13.5798911"><ele>214.0</ele><time>2026-05-03T12:04:08.124Z</time></trkpt><trkpt lat="46.0986158" lon="13.5797179"><ele>214.5</ele><time>2026-05-03T12:04:09.124Z</time></trkpt><trkpt lat="46.0985381" lon="13.5795761"><ele>215.0</ele><time>2026-05-03T12:04:10.125Z</time></trkpt><trkpt lat="46.0984593" lon="13.5794464"><ele>214.00000000000003</ele><time>2026-05-03T12:04:11.125Z</time></trkpt><trkpt lat="46.0983847" lon="13.5793437"><ele>213.0</ele><time>2026-05-03T12:04:12.125Z</time></trkpt><trkpt lat="46.0983037" lon="13.5792652"><ele>212.0</ele><time>2026-05-03T12:04:13.125Z</time></trkpt><trkpt lat="46.0982382" lon="13.579205"><ele>211.0</ele><time>2026-05-03T12:04:14.124Z</time></trkpt><trkpt lat="46.0981468" lon="13.5791419"><ele>210.00000000000003</ele><time>2026-05-03T12:04:16.125Z</time></trkpt><trkpt lat="46.0980877" lon="13.5791044"><ele>209.0</ele><time>2026-05-03T12:07:44.124Z</time></trkpt><trkpt lat="46.0979799" lon="13.5790353"><ele>209.0</ele><time>2026-05-03T12:07:59.124Z</time></trkpt><trkpt lat="46.09792" lon="13.5789989"><ele>209.0</ele><time>2026-05-03T12:08:00.123Z</time></trkpt><trkpt lat="46.0978504" lon="13.5789445"><ele>209.0</ele><time>2026-05-03T12:08:01.123Z</time></trkpt><trkpt lat="46.0977551" lon="13.5789048"><ele>209.0</ele><time>2026-05-03T12:08:02.123Z</time></trkpt><trkpt lat="46.0976518" lon="13.578881"><ele>209.0</ele><time>2026-05-03T12:08:03.124Z</time></trkpt><trkpt lat="46.0975471" lon="13.578866"><ele>209.0</ele><time>2026-05-03T12:08:04.124Z</time></trkpt><trkpt lat="46.0974347" lon="13.578855"><ele>209.0</ele><time>2026-05-03T12:08:05.124Z</time></trkpt><trkpt lat="46.0973221" lon="13.5788395"><ele>209.0</ele><time>2026-05-03T12:08:06.124Z</time></trkpt><trkpt lat="46.0972065" lon="13.5788257"><ele>209.0</ele><time>2026-05-03T12:08:07.124Z</time></trkpt><trkpt lat="46.0970952" lon="13.5788113"><ele>209.0</ele><time>2026-05-03T12:08:08.124Z</time></trkpt><trkpt lat="46.0969975" lon="13.5788048"><ele>209.0</ele><time>2026-05-03T12:08:09.124Z</time></trkpt><trkpt lat="46.0969108" lon="13.5787976"><ele>209.0</ele><time>2026-05-03T12:08:10.124Z</time></trkpt><trkpt lat="46.096836" lon="13.578782"><ele>209.0</ele><time>2026-05-03T12:08:11.124Z</time></trkpt><trkpt lat="46.0967602" lon="13.5786908"><ele>209.0</ele><time>2026-05-03T12:08:13.124Z</time></trkpt><trkpt lat="46.0967657" lon="13.5784938"><ele>208.39999999999998</ele><time>2026-05-03T12:08:15.124Z</time></trkpt><trkpt lat="46.0967436" lon="13.5783521"><ele>207.8</ele><time>2026-05-03T12:08:16.124Z</time></trkpt><trkpt lat="46.0966989" lon="13.5782371"><ele>207.2</ele><time>2026-05-03T12:08:17.124Z</time></trkpt><trkpt lat="46.0966336" lon="13.578148"><ele>206.60000000000002</ele><time>2026-05-03T12:08:18.124Z</time></trkpt><trkpt lat="46.0965503" lon="13.57806"><ele>206.0</ele><time>2026-05-03T12:08:19.123Z</time></trkpt><trkpt lat="46.0964643" lon="13.5779627"><ele>207.20000000000002</ele><time>2026-05-03T12:08:20.124Z</time></trkpt><trkpt lat="46.0963973" lon="13.5778483"><ele>208.4</ele><time>2026-05-03T12:08:21.124Z</time></trkpt><trkpt lat="46.0963416" lon="13.57771"><ele>209.6</ele><time>2026-05-03T12:08:22.123Z</time></trkpt><trkpt lat="46.0962953" lon="13.5775573"><ele>210.8</ele><time>2026-05-03T12:08:23.124Z</time></trkpt><trkpt lat="46.0962539" lon="13.5774188"><ele>212.0</ele><time>2026-05-03T12:08:24.124Z</time></trkpt><trkpt lat="46.0962179" lon="13.5773041"><ele>212.00000000000003</ele><time>2026-05-03T12:08:25.124Z</time></trkpt><trkpt lat="46.0961798" lon="13.5772208"><ele>212.0</ele><time>2026-05-03T12:08:26.124Z</time></trkpt><trkpt lat="46.0961279" lon="13.5771411"><ele>212.0</ele><time>2026-05-03T12:08:27.124Z</time></trkpt><trkpt lat="46.0960769" lon="13.5770568"><ele>212.0</ele><time>2026-05-03T12:08:28.124Z</time></trkpt><trkpt lat="46.096039" lon="13.5769672"><ele>212.00000000000003</ele><time>2026-05-03T12:08:29.124Z</time></trkpt><trkpt lat="46.0959771" lon="13.5768747"><ele>212.0</ele><time>2026-05-03T12:08:30.124Z</time></trkpt><trkpt lat="46.0959126" lon="13.5767628"><ele>212.0</ele><time>2026-05-03T12:08:31.124Z</time></trkpt><trkpt lat="46.0958268" lon="13.5766512"><ele>212.0</ele><time>2026-05-03T12:08:32.123Z</time></trkpt><trkpt lat="46.0957481" lon="13.5765359"><ele>212.0</ele><time>2026-05-03T12:08:33.124Z</time></trkpt><trkpt lat="46.0957102" lon="13.5764207"><ele>212.0</ele><time>2026-05-03T12:08:34.124Z</time></trkpt><trkpt lat="46.0956287" lon="13.5763245"><ele>212.0</ele><time>2026-05-03T12:08:35.124Z</time></trkpt><trkpt lat="46.0955394" lon="13.5762603"><ele>216.2</ele><time>2026-05-03T12:08:36.124Z</time></trkpt><trkpt lat="46.0954468" lon="13.5761857"><ele>220.39999999999998</ele><time>2026-05-03T12:08:37.123Z</time></trkpt><trkpt lat="46.0953635" lon="13.5760981"><ele>224.60000000000002</ele><time>2026-05-03T12:08:38.123Z</time></trkpt><trkpt lat="46.0952852" lon="13.576011"><ele>228.8</ele><time>2026-05-03T12:08:39.123Z</time></trkpt><trkpt lat="46.0952218" lon="13.5758896"><ele>233.0</ele><time>2026-05-03T12:08:40.124Z</time></trkpt><trkpt lat="46.0951796" lon="13.575743"><ele>233.0</ele><time>2026-05-03T12:08:41.123Z</time></trkpt><trkpt lat="46.0951465" lon="13.5755868"><ele>233.0</ele><time>2026-05-03T12:08:42.124Z</time></trkpt><trkpt lat="46.095108" lon="13.5754402"><ele>233.0</ele><time>2026-05-03T12:08:43.124Z</time></trkpt><trkpt lat="46.0950617" lon="13.5753112"><ele>233.0</ele><time>2026-05-03T12:08:44.123Z</time></trkpt><trkpt lat="46.0949824" lon="13.5751947"><ele>233.0</ele><time>2026-05-03T12:08:45.124Z</time></trkpt><trkpt lat="46.0948981" lon="13.5750713"><ele>234.8</ele><time>2026-05-03T12:08:46.123Z</time></trkpt><trkpt lat="46.0948201" lon="13.5749544"><ele>236.60000000000002</ele><time>2026-05-03T12:08:47.122Z</time></trkpt><trkpt lat="46.094733" lon="13.574871"><ele>238.39999999999998</ele><time>2026-05-03T12:08:48.122Z</time></trkpt><trkpt lat="46.0946378" lon="13.5748645"><ele>240.2</ele><time>2026-05-03T12:08:49.122Z</time></trkpt><trkpt lat="46.0945517" lon="13.5748729"><ele>242.0</ele><time>2026-05-03T12:08:50.123Z</time></trkpt><trkpt lat="46.0944787" lon="13.5748621"><ele>242.0</ele><time>2026-05-03T12:08:51.123Z</time></trkpt><trkpt lat="46.094406" lon="13.5747979"><ele>242.0</ele><time>2026-05-03T12:08:52.123Z</time></trkpt><trkpt lat="46.0943267" lon="13.5747093"><ele>242.0</ele><time>2026-05-03T12:08:53.122Z</time></trkpt><trkpt lat="46.0942384" lon="13.5746386"><ele>242.0</ele><time>2026-05-03T12:08:54.122Z</time></trkpt><trkpt lat="46.0941548" lon="13.5746387"><ele>242.0</ele><time>2026-05-03T12:08:55.122Z</time></trkpt><trkpt lat="46.0940511" lon="13.5746581"><ele>242.6</ele><time>2026-05-03T12:08:56.123Z</time></trkpt><trkpt lat="46.0939396" lon="13.5746952"><ele>243.2</ele><time>2026-05-03T12:08:57.122Z</time></trkpt><trkpt lat="46.0938504" lon="13.5747329"><ele>243.8</ele><time>2026-05-03T12:08:58.123Z</time></trkpt><trkpt lat="46.0937733" lon="13.574745"><ele>244.4</ele><time>2026-05-03T12:08:59.123Z</time></trkpt><trkpt lat="46.0937008" lon="13.5746188"><ele>245.0</ele><time>2026-05-03T12:09:01.123Z</time></trkpt><trkpt lat="46.0937203" lon="13.5745095"><ele>245.00000000000003</ele><time>2026-05-03T12:09:02.123Z</time></trkpt><trkpt lat="46.093767" lon="13.5744035"><ele>245.0</ele><time>2026-05-03T12:09:03.122Z</time></trkpt><trkpt lat="46.0938106" lon="13.5742843"><ele>245.0</ele><time>2026-05-03T12:09:04.123Z</time></trkpt><trkpt lat="46.0938017" lon="13.5741505"><ele>245.0</ele><time>2026-05-03T12:09:05.123Z</time></trkpt><trkpt lat="46.0937625" lon="13.5740355"><ele>245.00000000000003</ele><time>2026-05-03T12:09:06.123Z</time></trkpt><trkpt lat="46.0937329" lon="13.5739473"><ele>245.0</ele><time>2026-05-03T12:09:07.122Z</time></trkpt><trkpt lat="46.0937581" lon="13.573863"><ele>245.0</ele><time>2026-05-03T12:09:08.122Z</time></trkpt><trkpt lat="46.0938176" lon="13.573806"><ele>245.0</ele><time>2026-05-03T12:09:09.123Z</time></trkpt><trkpt lat="46.0939153" lon="13.573777"><ele>245.0</ele><time>2026-05-03T12:09:10.123Z</time></trkpt><trkpt lat="46.0940219" lon="13.5737399"><ele>245.0</ele><time>2026-05-03T12:09:11.122Z</time></trkpt><trkpt lat="46.094127" lon="13.5736625"><ele>245.0</ele><time>2026-05-03T12:09:12.123Z</time></trkpt><trkpt lat="46.0942068" lon="13.5735489"><ele>249.0</ele><time>2026-05-03T12:09:13.122Z</time></trkpt><trkpt lat="46.0942764" lon="13.5734478"><ele>253.0</ele><time>2026-05-03T12:09:14.122Z</time></trkpt><trkpt lat="46.0943648" lon="13.5733639"><ele>257.0</ele><time>2026-05-03T12:09:15.123Z</time></trkpt><trkpt lat="46.0944712" lon="13.5733048"><ele>261.0</ele><time>2026-05-03T12:09:16.123Z</time></trkpt><trkpt lat="46.0945815" lon="13.5732693"><ele>265.0</ele><time>2026-05-03T12:09:17.123Z</time></trkpt><trkpt lat="46.094695" lon="13.5732036"><ele>265.0</ele><time>2026-05-03T12:09:18.123Z</time></trkpt><trkpt lat="46.0948004" lon="13.5731132"><ele>265.0</ele><time>2026-05-03T12:09:19.122Z</time></trkpt><trkpt lat="46.0948907" lon="13.5729968"><ele>265.0</ele><time>2026-05-03T12:09:20.122Z</time></trkpt><trkpt lat="46.0949834" lon="13.5728782"><ele>265.0</ele><time>2026-05-03T12:09:21.123Z</time></trkpt><trkpt lat="46.0950758" lon="13.5727641"><ele>268.25</ele><time>2026-05-03T12:09:22.123Z</time></trkpt><trkpt lat="46.0951638" lon="13.5726519"><ele>271.5</ele><time>2026-05-03T12:09:23.122Z</time></trkpt><trkpt lat="46.0952472" lon="13.5725349"><ele>274.75</ele><time>2026-05-03T12:09:24.122Z</time></trkpt><trkpt lat="46.0953189" lon="13.5724012"><ele>278.0</ele><time>2026-05-03T12:09:25.123Z</time></trkpt><trkpt lat="46.0953663" lon="13.5722583"><ele>278.0</ele><time>2026-05-03T12:09:26.122Z</time></trkpt><trkpt lat="46.0954031" lon="13.5721065"><ele>278.0</ele><time>2026-05-03T12:09:27.123Z</time></trkpt><trkpt lat="46.0954392" lon="13.5719778"><ele>278.0</ele><time>2026-05-03T12:09:28.123Z</time></trkpt><trkpt lat="46.0954605" lon="13.5718711"><ele>278.0</ele><time>2026-05-03T12:09:29.123Z</time></trkpt><trkpt lat="46.0955433" lon="13.5718474"><ele>278.0</ele><time>2026-05-03T12:09:31.123Z</time></trkpt><trkpt lat="46.0955269" lon="13.5720367"><ele>278.0</ele><time>2026-05-03T12:09:33.123Z</time></trkpt><trkpt lat="46.0954829" lon="13.5721803"><ele>278.0</ele><time>2026-05-03T12:09:34.122Z</time></trkpt><trkpt lat="46.0954372" lon="13.5723262"><ele>278.0</ele><time>2026-05-03T12:09:35.123Z</time></trkpt><trkpt lat="46.0954023" lon="13.5724878"><ele>278.0</ele><time>2026-05-03T12:09:36.123Z</time></trkpt><trkpt lat="46.095372" lon="13.5726444"><ele>278.0</ele><time>2026-05-03T12:09:37.122Z</time></trkpt><trkpt lat="46.0953342" lon="13.572801"><ele>278.0</ele><time>2026-05-03T12:09:38.123Z</time></trkpt><trkpt lat="46.0952923" lon="13.572945"><ele>278.0</ele><time>2026-05-03T12:09:39.122Z</time></trkpt><trkpt lat="46.0952432" lon="13.5730831"><ele>278.0</ele><time>2026-05-03T12:09:40.123Z</time></trkpt><trkpt lat="46.0952005" lon="13.5731885"><ele>278.0</ele><time>2026-05-03T12:09:41.123Z</time></trkpt><trkpt lat="46.0951682" lon="13.5732915"><ele>277.8</ele><time>2026-05-03T12:09:42.122Z</time></trkpt><trkpt lat="46.0951651" lon="13.5734153"><ele>277.6</ele><time>2026-05-03T12:09:43.123Z</time></trkpt><trkpt lat="46.0952001" lon="13.5735633"><ele>277.4</ele><time>2026-05-03T12:09:44.123Z</time></trkpt><trkpt lat="46.0952569" lon="13.5736939"><ele>277.2</ele><time>2026-05-03T12:09:45.123Z</time></trkpt><trkpt lat="46.0953207" lon="13.5737581"><ele>277.0</ele><time>2026-05-03T12:09:46.122Z</time></trkpt><trkpt lat="46.0954028" lon="13.5737279"><ele>280.25</ele><time>2026-05-03T12:09:47.123Z</time></trkpt><trkpt lat="46.0955137" lon="13.5736641"><ele>283.5</ele><time>2026-05-03T12:09:48.123Z</time></trkpt><trkpt lat="46.0956346" lon="13.5735884"><ele>286.75</ele><time>2026-05-03T12:09:49.123Z</time></trkpt><trkpt lat="46.0957479" lon="13.5735076"><ele>290.0</ele><time>2026-05-03T12:09:50.122Z</time></trkpt><trkpt lat="46.0958538" lon="13.5734413"><ele>294.2</ele><time>2026-05-03T12:09:51.123Z</time></trkpt><trkpt lat="46.0959603" lon="13.5733919"><ele>298.4</ele><time>2026-05-03T12:09:52.122Z</time></trkpt><trkpt lat="46.0960607" lon="13.5733777"><ele>302.6</ele><time>2026-05-03T12:09:53.122Z</time></trkpt><trkpt lat="46.0961649" lon="13.5734102"><ele>306.8</ele><time>2026-05-03T12:09:54.122Z</time></trkpt><trkpt lat="46.0962453" lon="13.5734635"><ele>311.0</ele><time>2026-05-03T12:09:55.122Z</time></trkpt><trkpt lat="46.0963103" lon="13.5734994"><ele>311.0</ele><time>2026-05-03T12:09:56.122Z</time></trkpt><trkpt lat="46.0963811" lon="13.573405"><ele>311.0</ele><time>2026-05-03T12:09:58.122Z</time></trkpt><trkpt lat="46.0963502" lon="13.573302"><ele>311.0</ele><time>2026-05-03T12:09:59.122Z</time></trkpt><trkpt lat="46.0962503" lon="13.5732248"><ele>311.0</ele><time>2026-05-03T12:10:00.123Z</time></trkpt><trkpt lat="46.0961461" lon="13.5731444"><ele>311.0</ele><time>2026-05-03T12:10:01.123Z</time></trkpt><trkpt lat="46.0960462" lon="13.5730924"><ele>311.0</ele><time>2026-05-03T12:10:02.123Z</time></trkpt><trkpt lat="46.0959599" lon="13.5730621"><ele>311.0</ele><time>2026-05-03T12:10:03.122Z</time></trkpt><trkpt lat="46.0958952" lon="13.5730433"><ele>311.0</ele><time>2026-05-03T12:10:04.123Z</time></trkpt><trkpt lat="46.0958386" lon="13.5728917"><ele>311.0</ele><time>2026-05-03T12:10:06.123Z</time></trkpt><trkpt lat="46.095892" lon="13.5728234"><ele>311.0</ele><time>2026-05-03T12:10:07.123Z</time></trkpt><trkpt lat="46.0959777" lon="13.5728233"><ele>311.0</ele><time>2026-05-03T12:10:08.123Z</time></trkpt><trkpt lat="46.0960961" lon="13.5728613"><ele>311.0</ele><time>2026-05-03T12:10:09.123Z</time></trkpt><trkpt lat="46.0962071" lon="13.5729041"><ele>311.0</ele><time>2026-05-03T12:10:10.123Z</time></trkpt><trkpt lat="46.0963073" lon="13.5729451"><ele>311.0</ele><time>2026-05-03T12:10:11.122Z</time></trkpt><trkpt lat="46.096407" lon="13.5729813"><ele>311.0</ele><time>2026-05-03T12:10:12.122Z</time></trkpt><trkpt lat="46.0965075" lon="13.5730071"><ele>311.0</ele><time>2026-05-03T12:10:13.123Z</time></trkpt><trkpt lat="46.0966085" lon="13.5730149"><ele>313.8</ele><time>2026-05-03T12:10:14.123Z</time></trkpt><trkpt lat="46.0967052" lon="13.57302"><ele>316.6</ele><time>2026-05-03T12:10:15.123Z</time></trkpt><trkpt lat="46.0967999" lon="13.5730518"><ele>319.4</ele><time>2026-05-03T12:10:16.122Z</time></trkpt><trkpt lat="46.0968861" lon="13.5731376"><ele>322.2</ele><time>2026-05-03T12:10:17.123Z</time></trkpt><trkpt lat="46.0969758" lon="13.573222"><ele>325.0</ele><time>2026-05-03T12:10:18.123Z</time></trkpt><trkpt lat="46.0970789" lon="13.5733057"><ele>325.0</ele><time>2026-05-03T12:10:19.123Z</time></trkpt><trkpt lat="46.0971751" lon="13.5734056"><ele>325.0</ele><time>2026-05-03T12:10:20.122Z</time></trkpt><trkpt lat="46.0972618" lon="13.5735114"><ele>325.0</ele><time>2026-05-03T12:10:21.123Z</time></trkpt><trkpt lat="46.0973345" lon="13.5736133"><ele>325.0</ele><time>2026-05-03T12:10:22.123Z</time></trkpt><trkpt lat="46.0973967" lon="13.5737193"><ele>325.0</ele><time>2026-05-03T12:10:23.123Z</time></trkpt><trkpt lat="46.0974481" lon="13.5737808"><ele>325.0</ele><time>2026-05-03T12:10:24.123Z</time></trkpt><trkpt lat="46.0975283" lon="13.5737804"><ele>325.0</ele><time>2026-05-03T12:10:26.122Z</time></trkpt><trkpt lat="46.0974908" lon="13.5736378"><ele>325.0</ele><time>2026-05-03T12:10:28.123Z</time></trkpt><trkpt lat="46.0974483" lon="13.5735269"><ele>325.0</ele><time>2026-05-03T12:10:29.123Z</time></trkpt><trkpt lat="46.0974214" lon="13.5734007"><ele>325.0</ele><time>2026-05-03T12:10:30.122Z</time></trkpt><trkpt lat="46.0973932" lon="13.5732817"><ele>325.0</ele><time>2026-05-03T12:10:31.123Z</time></trkpt><trkpt lat="46.097361" lon="13.5731489"><ele>325.0</ele><time>2026-05-03T12:10:32.122Z</time></trkpt><trkpt lat="46.0973321" lon="13.5730113"><ele>325.0</ele><time>2026-05-03T12:10:33.123Z</time></trkpt><trkpt lat="46.0972993" lon="13.5728727"><ele>325.0</ele><time>2026-05-03T12:10:34.122Z</time></trkpt><trkpt lat="46.0972674" lon="13.5727386"><ele>325.0</ele><time>2026-05-03T12:10:35.123Z</time></trkpt><trkpt lat="46.0972414" lon="13.5726147"><ele>328.2</ele><time>2026-05-03T12:10:36.123Z</time></trkpt><trkpt lat="46.0972159" lon="13.5724977"><ele>331.4</ele><time>2026-05-03T12:10:37.123Z</time></trkpt><trkpt lat="46.0971851" lon="13.5723877"><ele>334.6</ele><time>2026-05-03T12:10:38.123Z</time></trkpt><trkpt lat="46.0971255" lon="13.5722991"><ele>337.8</ele><time>2026-05-03T12:10:39.122Z</time></trkpt><trkpt lat="46.0970403" lon="13.5722126"><ele>341.0</ele><time>2026-05-03T12:10:40.123Z</time></trkpt><trkpt lat="46.0969384" lon="13.5721334"><ele>341.0</ele><time>2026-05-03T12:10:41.123Z</time></trkpt><trkpt lat="46.0968389" lon="13.5720736"><ele>341.0</ele><time>2026-05-03T12:10:42.123Z</time></trkpt><trkpt lat="46.0967297" lon="13.572042"><ele>341.0</ele><time>2026-05-03T12:10:43.123Z</time></trkpt><trkpt lat="46.0966284" lon="13.5720242"><ele>341.0</ele><time>2026-05-03T12:10:44.122Z</time></trkpt><trkpt lat="46.0965513" lon="13.5720012"><ele>341.0</ele><time>2026-05-03T12:10:45.123Z</time></trkpt><trkpt lat="46.0964979" lon="13.5719417"><ele>342.8</ele><time>2026-05-03T12:10:46.123Z</time></trkpt><trkpt lat="46.0965264" lon="13.5718042"><ele>344.6</ele><time>2026-05-03T12:10:48.123Z</time></trkpt><trkpt lat="46.096609" lon="13.5717706"><ele>346.4</ele><time>2026-05-03T12:10:49.123Z</time></trkpt><trkpt lat="46.0967202" lon="13.5717723"><ele>348.2</ele><time>2026-05-03T12:10:50.122Z</time></trkpt><trkpt lat="46.0968427" lon="13.571782"><ele>350.0</ele><time>2026-05-03T12:10:51.123Z</time></trkpt><trkpt lat="46.0969553" lon="13.5717684"><ele>350.0</ele><time>2026-05-03T12:10:52.123Z</time></trkpt><trkpt lat="46.0970674" lon="13.571768"><ele>350.0</ele><time>2026-05-03T12:10:53.123Z</time></trkpt><trkpt lat="46.0971674" lon="13.571778"><ele>350.0</ele><time>2026-05-03T12:10:54.122Z</time></trkpt><trkpt lat="46.0972558" lon="13.5717894"><ele>350.0</ele><time>2026-05-03T12:10:55.123Z</time></trkpt><trkpt lat="46.0973293" lon="13.5718156"><ele>350.0</ele><time>2026-05-03T12:10:56.122Z</time></trkpt><trkpt lat="46.0974003" lon="13.5717574"><ele>350.0</ele><time>2026-05-03T12:10:58.122Z</time></trkpt><trkpt lat="46.0973302" lon="13.5716593"><ele>350.0</ele><time>2026-05-03T12:11:00.123Z</time></trkpt><trkpt lat="46.0972231" lon="13.5716169"><ele>350.0</ele><time>2026-05-03T12:11:02.123Z</time></trkpt><trkpt lat="46.0971547" lon="13.5715936"><ele>350.0</ele><time>2026-05-03T12:11:03.123Z</time></trkpt><trkpt lat="46.0970915" lon="13.5715575"><ele>350.0</ele><time>2026-05-03T12:11:04.123Z</time></trkpt><trkpt lat="46.0970174" lon="13.5714178"><ele>350.0</ele><time>2026-05-03T12:11:06.122Z</time></trkpt><trkpt lat="46.0970194" lon="13.5712673"><ele>350.0</ele><time>2026-05-03T12:11:08.123Z</time></trkpt><trkpt lat="46.0970846" lon="13.5712234"><ele>350.0</ele><time>2026-05-03T12:11:09.123Z</time></trkpt><trkpt lat="46.097162" lon="13.5711013"><ele>350.0</ele><time>2026-05-03T12:11:11.123Z</time></trkpt><trkpt lat="46.0972237" lon="13.5710545"><ele>350.0</ele><time>2026-05-03T12:11:12.123Z</time></trkpt><trkpt lat="46.0972937" lon="13.5710315"><ele>350.0</ele><time>2026-05-03T12:11:13.122Z</time></trkpt><trkpt lat="46.0973636" lon="13.5709995"><ele>350.2</ele><time>2026-05-03T12:11:14.123Z</time></trkpt><trkpt lat="46.0974184" lon="13.5709536"><ele>350.4</ele><time>2026-05-03T12:11:15.123Z</time></trkpt><trkpt lat="46.0974918" lon="13.5709253"><ele>350.6</ele><time>2026-05-03T12:11:17.122Z</time></trkpt><trkpt lat="46.0975685" lon="13.5708072"><ele>350.8</ele><time>2026-05-03T12:11:28.123Z</time></trkpt><trkpt lat="46.0976325" lon="13.5706727"><ele>351.0</ele><time>2026-05-03T12:11:30.123Z</time></trkpt><trkpt lat="46.0977172" lon="13.5705541"><ele>353.6666666666667</ele><time>2026-05-03T12:11:32.123Z</time></trkpt><trkpt lat="46.0977694" lon="13.5705014"><ele>356.3333333333333</ele><time>2026-05-03T12:11:33.122Z</time></trkpt><trkpt lat="46.0978252" lon="13.5704506"><ele>359.0</ele><time>2026-05-03T12:11:34.123Z</time></trkpt><trkpt lat="46.0979283" lon="13.5703522"><ele>361.66666666666663</ele><time>2026-05-03T12:11:36.123Z</time></trkpt><trkpt lat="46.0979862" lon="13.5702988"><ele>364.3333333333333</ele><time>2026-05-03T12:11:37.122Z</time></trkpt><trkpt lat="46.0980463" lon="13.5702263"><ele>367.0</ele><time>2026-05-03T12:11:38.123Z</time></trkpt><trkpt lat="46.0980929" lon="13.5701614"><ele>367.0</ele><time>2026-05-03T12:11:39.123Z</time></trkpt><trkpt lat="46.0981675" lon="13.5700423"><ele>367.0</ele><time>2026-05-03T12:11:41.123Z</time></trkpt><trkpt lat="46.0981916" lon="13.5699115"><ele>367.0</ele><time>2026-05-03T12:11:43.123Z</time></trkpt><trkpt lat="46.0981257" lon="13.5698182"><ele>367.0</ele><time>2026-05-03T12:11:45.122Z</time></trkpt><trkpt lat="46.0980567" lon="13.5697599"><ele>367.0</ele><time>2026-05-03T12:11:46.123Z</time></trkpt><trkpt lat="46.0979899" lon="13.5697173"><ele>367.0</ele><time>2026-05-03T12:11:47.123Z</time></trkpt><trkpt lat="46.0979289" lon="13.5696644"><ele>367.0</ele><time>2026-05-03T12:11:48.123Z</time></trkpt><trkpt lat="46.097867" lon="13.5695993"><ele>367.0</ele><time>2026-05-03T12:11:49.122Z</time></trkpt><trkpt lat="46.0978042" lon="13.569528"><ele>367.0</ele><time>2026-05-03T12:11:50.123Z</time></trkpt><trkpt lat="46.0977439" lon="13.5694637"><ele>367.0</ele><time>2026-05-03T12:11:51.122Z</time></trkpt><trkpt lat="46.0976772" lon="13.5694059"><ele>367.0</ele><time>2026-05-03T12:11:52.123Z</time></trkpt><trkpt lat="46.0976134" lon="13.5693553"><ele>367.0</ele><time>2026-05-03T12:11:53.123Z</time></trkpt><trkpt lat="46.0975604" lon="13.5693052"><ele>367.0</ele><time>2026-05-03T12:11:54.123Z</time></trkpt><trkpt lat="46.0975052" lon="13.5692565"><ele>367.0</ele><time>2026-05-03T12:11:55.123Z</time></trkpt><trkpt lat="46.0974446" lon="13.5692048"><ele>367.0</ele><time>2026-05-03T12:11:56.123Z</time></trkpt><trkpt lat="46.0973742" lon="13.5691484"><ele>367.0</ele><time>2026-05-03T12:11:57.122Z</time></trkpt><trkpt lat="46.0972889" lon="13.5691045"><ele>367.0</ele><time>2026-05-03T12:11:58.122Z</time></trkpt><trkpt lat="46.0972021" lon="13.5690635"><ele>367.0</ele><time>2026-05-03T12:11:59.123Z</time></trkpt><trkpt lat="46.0971102" lon="13.5690312"><ele>367.0</ele><time>2026-05-03T12:12:00.123Z</time></trkpt><trkpt lat="46.0970223" lon="13.568982"><ele>367.0</ele><time>2026-05-03T12:12:01.123Z</time></trkpt><trkpt lat="46.0969385" lon="13.5689371"><ele>367.0</ele><time>2026-05-03T12:12:02.122Z</time></trkpt><trkpt lat="46.0968606" lon="13.5688922"><ele>367.0</ele><time>2026-05-03T12:12:03.123Z</time></trkpt><trkpt lat="46.0967848" lon="13.5688403"><ele>367.0</ele><time>2026-05-03T12:12:04.123Z</time></trkpt><trkpt lat="46.0967036" lon="13.5687865"><ele>367.0</ele><time>2026-05-03T12:12:05.123Z</time></trkpt><trkpt lat="46.0966213" lon="13.5687246"><ele>367.0</ele><time>2026-05-03T12:12:06.123Z</time></trkpt><trkpt lat="46.0965481" lon="13.5686597"><ele>367.0</ele><time>2026-05-03T12:12:07.123Z</time></trkpt><trkpt lat="46.0964781" lon="13.5685973"><ele>367.0</ele><time>2026-05-03T12:12:08.123Z</time></trkpt><trkpt lat="46.0964069" lon="13.5685321"><ele>367.0</ele><time>2026-05-03T12:12:09.122Z</time></trkpt><trkpt lat="46.0963426" lon="13.5684783"><ele>367.0</ele><time>2026-05-03T12:12:10.123Z</time></trkpt><trkpt lat="46.0962861" lon="13.5684133"><ele>366.2857142857143</ele><time>2026-05-03T12:12:11.123Z</time></trkpt><trkpt lat="46.0962439" lon="13.5683375"><ele>365.5714285714286</ele><time>2026-05-03T12:12:12.123Z</time></trkpt><trkpt lat="46.0962094" lon="13.5682612"><ele>364.8571428571429</ele><time>2026-05-03T12:12:13.123Z</time></trkpt><trkpt lat="46.0961762" lon="13.5681769"><ele>364.1428571428571</ele><time>2026-05-03T12:12:14.123Z</time></trkpt><trkpt lat="46.0961596" lon="13.568083"><ele>363.42857142857144</ele><time>2026-05-03T12:12:15.123Z</time></trkpt><trkpt lat="46.0961507" lon="13.5679925"><ele>362.7142857142857</ele><time>2026-05-03T12:12:16.123Z</time></trkpt><trkpt lat="46.0961526" lon="13.5678241"><ele>362.0</ele><time>2026-05-03T12:12:18.123Z</time></trkpt><trkpt lat="46.0962016" lon="13.5676386"><ele>362.0</ele><time>2026-05-03T12:12:20.123Z</time></trkpt><trkpt lat="46.0962358" lon="13.5675246"><ele>362.0</ele><time>2026-05-03T12:12:21.123Z</time></trkpt><trkpt lat="46.0962694" lon="13.5674154"><ele>362.0</ele><time>2026-05-03T12:12:22.123Z</time></trkpt><trkpt lat="46.0962928" lon="13.5673158"><ele>362.0</ele><time>2026-05-03T12:12:23.122Z</time></trkpt><trkpt lat="46.0963101" lon="13.5672158"><ele>362.0</ele><time>2026-05-03T12:12:24.123Z</time></trkpt><trkpt lat="46.0963176" lon="13.5671197"><ele>362.0</ele><time>2026-05-03T12:12:25.123Z</time></trkpt><trkpt lat="46.0963298" lon="13.5670242"><ele>362.0</ele><time>2026-05-03T12:12:26.123Z</time></trkpt><trkpt lat="46.0963637" lon="13.5668576"><ele>365.6</ele><time>2026-05-03T12:12:28.123Z</time></trkpt><trkpt lat="46.096371" lon="13.566681"><ele>369.20000000000005</ele><time>2026-05-03T12:12:30.123Z</time></trkpt><trkpt lat="46.0963596" lon="13.5665644"><ele>372.8</ele><time>2026-05-03T12:12:31.123Z</time></trkpt><trkpt lat="46.0963524" lon="13.5663889"><ele>376.4</ele><time>2026-05-03T12:12:33.123Z</time></trkpt><trkpt lat="46.0963148" lon="13.5662868"><ele>380.0</ele><time>2026-05-03T12:12:35.123Z</time></trkpt><trkpt lat="46.096234" lon="13.5662761"><ele>380.0</ele><time>2026-05-03T12:12:37.123Z</time></trkpt><trkpt lat="46.0961629" lon="13.5663105"><ele>380.0</ele><time>2026-05-03T12:12:39.122Z</time></trkpt><trkpt lat="46.0960411" lon="13.566389"><ele>380.0</ele><time>2026-05-03T12:12:41.123Z</time></trkpt><trkpt lat="46.0959748" lon="13.5664011"><ele>380.0</ele><time>2026-05-03T12:12:42.123Z</time></trkpt><trkpt lat="46.0958973" lon="13.5664048"><ele>380.0</ele><time>2026-05-03T12:12:43.122Z</time></trkpt><trkpt lat="46.0958331" lon="13.5663844"><ele>380.0</ele><time>2026-05-03T12:12:44.123Z</time></trkpt><trkpt lat="46.0957699" lon="13.5663633"><ele>378.33333333333337</ele><time>2026-05-03T12:12:45.122Z</time></trkpt><trkpt lat="46.0957084" lon="13.5663288"><ele>376.6666666666667</ele><time>2026-05-03T12:12:46.122Z</time></trkpt><trkpt lat="46.0956313" lon="13.5662807"><ele>375.0</ele><time>2026-05-03T12:12:47.122Z</time></trkpt><trkpt lat="46.0955531" lon="13.5662182"><ele>373.3333333333333</ele><time>2026-05-03T12:12:48.121Z</time></trkpt><trkpt lat="46.0954722" lon="13.5661799"><ele>371.66666666666663</ele><time>2026-05-03T12:12:49.121Z</time></trkpt><trkpt lat="46.095408" lon="13.5661447"><ele>370.0</ele><time>2026-05-03T12:12:50.121Z</time></trkpt><trkpt lat="46.0953187" lon="13.5660351"><ele>373.5</ele><time>2026-05-03T12:12:52.122Z</time></trkpt><trkpt lat="46.0952339" lon="13.5659322"><ele>377.0</ele><time>2026-05-03T12:12:54.122Z</time></trkpt><trkpt lat="46.095172" lon="13.5659054"><ele>380.5</ele><time>2026-05-03T12:12:55.122Z</time></trkpt><trkpt lat="46.09509" lon="13.5658801"><ele>384.0</ele><time>2026-05-03T12:12:56.122Z</time></trkpt><trkpt lat="46.0950136" lon="13.5658391"><ele>387.50000000000006</ele><time>2026-05-03T12:12:57.121Z</time></trkpt><trkpt lat="46.094939" lon="13.5657911"><ele>391.0</ele><time>2026-05-03T12:12:58.122Z</time></trkpt><trkpt lat="46.0948641" lon="13.5657452"><ele>391.20000000000005</ele><time>2026-05-03T12:12:59.121Z</time></trkpt><trkpt lat="46.094792" lon="13.5656989"><ele>391.40000000000003</ele><time>2026-05-03T12:13:00.121Z</time></trkpt><trkpt lat="46.0947317" lon="13.5656689"><ele>391.6</ele><time>2026-05-03T12:13:01.122Z</time></trkpt><trkpt lat="46.0946137" lon="13.565606"><ele>391.8</ele><time>2026-05-03T12:13:03.121Z</time></trkpt><trkpt lat="46.0945481" lon="13.5655976"><ele>392.0</ele><time>2026-05-03T12:13:04.122Z</time></trkpt><trkpt lat="46.0944194" lon="13.5656183"><ele>391.99999999999994</ele><time>2026-05-03T12:13:06.122Z</time></trkpt><trkpt lat="46.0943517" lon="13.56565"><ele>392.0</ele><time>2026-05-03T12:13:07.121Z</time></trkpt><trkpt lat="46.0942891" lon="13.5656727"><ele>392.0</ele><time>2026-05-03T12:13:08.121Z</time></trkpt><trkpt lat="46.0941991" lon="13.5657454"><ele>392.0</ele><time>2026-05-03T12:13:10.122Z</time></trkpt><trkpt lat="46.094094" lon="13.5658524"><ele>391.99999999999994</ele><time>2026-05-03T12:13:12.122Z</time></trkpt><trkpt lat="46.0940348" lon="13.5658983"><ele>392.0</ele><time>2026-05-03T12:13:13.121Z</time></trkpt><trkpt lat="46.0939764" lon="13.5659396"><ele>393.8</ele><time>2026-05-03T12:13:14.122Z</time></trkpt><trkpt lat="46.093916" lon="13.5659737"><ele>395.6</ele><time>2026-05-03T12:13:15.122Z</time></trkpt><trkpt lat="46.0938513" lon="13.5659894"><ele>397.40000000000003</ele><time>2026-05-03T12:13:16.121Z</time></trkpt><trkpt lat="46.0937331" lon="13.5660377"><ele>399.20000000000005</ele><time>2026-05-03T12:13:18.121Z</time></trkpt><trkpt lat="46.0936212" lon="13.5660588"><ele>401.0</ele><time>2026-05-03T12:13:20.122Z</time></trkpt><trkpt lat="46.093518" lon="13.56606"><ele>401.0</ele><time>2026-05-03T12:13:22.122Z</time></trkpt><trkpt lat="46.0934346" lon="13.5659553"><ele>401.0</ele><time>2026-05-03T12:13:24.122Z</time></trkpt><trkpt lat="46.093361" lon="13.5658416"><ele>401.0</ele><time>2026-05-03T12:13:26.121Z</time></trkpt><trkpt lat="46.0933346" lon="13.565723"><ele>401.0</ele><time>2026-05-03T12:13:28.122Z</time></trkpt><trkpt lat="46.0933695" lon="13.5655667"><ele>401.0</ele><time>2026-05-03T12:13:30.122Z</time></trkpt><trkpt lat="46.0934195" lon="13.5654897"><ele>400.99999999999994</ele><time>2026-05-03T12:13:31.122Z</time></trkpt><trkpt lat="46.0934799" lon="13.5654345"><ele>401.0</ele><time>2026-05-03T12:13:32.121Z</time></trkpt><trkpt lat="46.0936183" lon="13.5652786"><ele>401.0</ele><time>2026-05-03T12:13:35.121Z</time></trkpt><trkpt lat="46.0936628" lon="13.5652136"><ele>401.0</ele><time>2026-05-03T12:13:36.122Z</time></trkpt><trkpt lat="46.093714" lon="13.5651561"><ele>400.99999999999994</ele><time>2026-05-03T12:13:37.122Z</time></trkpt><trkpt lat="46.0937649" lon="13.5650978"><ele>401.0</ele><time>2026-05-03T12:13:38.121Z</time></trkpt><trkpt lat="46.0938171" lon="13.5650346"><ele>402.66666666666663</ele><time>2026-05-03T12:13:39.122Z</time></trkpt><trkpt lat="46.0938914" lon="13.56492"><ele>404.3333333333333</ele><time>2026-05-03T12:13:41.122Z</time></trkpt><trkpt lat="46.0938897" lon="13.5648159"><ele>406.0</ele><time>2026-05-03T12:13:43.122Z</time></trkpt><trkpt lat="46.0938248" lon="13.5647727"><ele>407.66666666666663</ele><time>2026-05-03T12:13:45.122Z</time></trkpt><trkpt lat="46.0937579" lon="13.5647579"><ele>409.3333333333333</ele><time>2026-05-03T12:13:46.122Z</time></trkpt><trkpt lat="46.0936474" lon="13.564739"><ele>411.0</ele><time>2026-05-03T12:13:48.122Z</time></trkpt><trkpt lat="46.0935802" lon="13.5646049"><ele>410.2857142857143</ele><time>2026-05-03T12:13:50.122Z</time></trkpt><trkpt lat="46.093585" lon="13.5645036"><ele>409.57142857142856</ele><time>2026-05-03T12:13:51.122Z</time></trkpt><trkpt lat="46.0936059" lon="13.5644154"><ele>408.8571428571429</ele><time>2026-05-03T12:13:52.122Z</time></trkpt><trkpt lat="46.0936287" lon="13.5643289"><ele>408.1428571428571</ele><time>2026-05-03T12:13:53.122Z</time></trkpt><trkpt lat="46.0936486" lon="13.5642326"><ele>407.42857142857144</ele><time>2026-05-03T12:13:54.122Z</time></trkpt><trkpt lat="46.0936723" lon="13.5641458"><ele>406.7142857142857</ele><time>2026-05-03T12:13:55.121Z</time></trkpt><trkpt lat="46.093696" lon="13.5640539"><ele>406.0</ele><time>2026-05-03T12:13:56.122Z</time></trkpt><trkpt lat="46.0937155" lon="13.563955"><ele>406.0</ele><time>2026-05-03T12:13:57.122Z</time></trkpt><trkpt lat="46.0937496" lon="13.5638083"><ele>406.0</ele><time>2026-05-03T12:13:59.122Z</time></trkpt><trkpt lat="46.0937835" lon="13.5637018"><ele>406.0</ele><time>2026-05-03T12:14:01.121Z</time></trkpt><trkpt lat="46.0938384" lon="13.5635521"><ele>406.0</ele><time>2026-05-03T12:14:03.122Z</time></trkpt><trkpt lat="46.0939123" lon="13.5634067"><ele>406.0</ele><time>2026-05-03T12:14:05.121Z</time></trkpt><trkpt lat="46.093947" lon="13.5633255"><ele>404.50000000000006</ele><time>2026-05-03T12:14:06.122Z</time></trkpt><trkpt lat="46.0939846" lon="13.5632496"><ele>403.0</ele><time>2026-05-03T12:14:07.121Z</time></trkpt><trkpt lat="46.0940175" lon="13.5631678"><ele>401.5</ele><time>2026-05-03T12:14:08.122Z</time></trkpt><trkpt lat="46.0940731" lon="13.5630181"><ele>400.0</ele><time>2026-05-03T12:14:10.122Z</time></trkpt><trkpt lat="46.0940841" lon="13.5628302"><ele>398.50000000000006</ele><time>2026-05-03T12:14:12.121Z</time></trkpt><trkpt lat="46.0940868" lon="13.5627378"><ele>397.0</ele><time>2026-05-03T12:14:13.122Z</time></trkpt><trkpt lat="46.0940961" lon="13.562644"><ele>396.8</ele><time>2026-05-03T12:14:14.121Z</time></trkpt><trkpt lat="46.0941057" lon="13.5625478"><ele>396.6</ele><time>2026-05-03T12:14:15.121Z</time></trkpt><trkpt lat="46.0941195" lon="13.5624461"><ele>396.40000000000003</ele><time>2026-05-03T12:14:16.122Z</time></trkpt><trkpt lat="46.0941237" lon="13.5622628"><ele>396.20000000000005</ele><time>2026-05-03T12:14:18.121Z</time></trkpt><trkpt lat="46.0940878" lon="13.5620757"><ele>396.0</ele><time>2026-05-03T12:14:20.121Z</time></trkpt><trkpt lat="46.0940747" lon="13.5619702"><ele>396.0</ele><time>2026-05-03T12:14:21.121Z</time></trkpt><trkpt lat="46.0940575" lon="13.5618652"><ele>396.0</ele><time>2026-05-03T12:14:22.122Z</time></trkpt><trkpt lat="46.094049" lon="13.5617609"><ele>396.0</ele><time>2026-05-03T12:14:23.122Z</time></trkpt><trkpt lat="46.094052" lon="13.5616586"><ele>396.0</ele><time>2026-05-03T12:14:24.122Z</time></trkpt><trkpt lat="46.0940519" lon="13.5615651"><ele>396.0</ele><time>2026-05-03T12:14:25.121Z</time></trkpt><trkpt lat="46.094089" lon="13.5613982"><ele>396.0</ele><time>2026-05-03T12:14:27.122Z</time></trkpt><trkpt lat="46.0941257" lon="13.5613103"><ele>403.7142857142857</ele><time>2026-05-03T12:14:28.122Z</time></trkpt><trkpt lat="46.0941687" lon="13.5612308"><ele>411.42857142857144</ele><time>2026-05-03T12:14:29.121Z</time></trkpt><trkpt lat="46.0942057" lon="13.5611417"><ele>419.14285714285717</ele><time>2026-05-03T12:14:30.122Z</time></trkpt><trkpt lat="46.0942274" lon="13.5610509"><ele>426.8571428571429</ele><time>2026-05-03T12:14:31.122Z</time></trkpt><trkpt lat="46.0942395" lon="13.5609492"><ele>434.57142857142856</ele><time>2026-05-03T12:14:32.122Z</time></trkpt><trkpt lat="46.0942573" lon="13.5608306"><ele>442.28571428571433</ele><time>2026-05-03T12:14:33.122Z</time></trkpt><trkpt lat="46.0942577" lon="13.5607149"><ele>450.00000000000006</ele><time>2026-05-03T12:14:34.121Z</time></trkpt><trkpt lat="46.094249" lon="13.5605953"><ele>450.0</ele><time>2026-05-03T12:14:35.122Z</time></trkpt><trkpt lat="46.0942407" lon="13.5604882"><ele>450.0</ele><time>2026-05-03T12:14:36.122Z</time></trkpt><trkpt lat="46.0942329" lon="13.560381"><ele>450.0</ele><time>2026-05-03T12:14:37.122Z</time></trkpt><trkpt lat="46.0942123" lon="13.5602847"><ele>450.0</ele><time>2026-05-03T12:14:38.122Z</time></trkpt><trkpt lat="46.0941625" lon="13.5601274"><ele>450.0</ele><time>2026-05-03T12:14:40.121Z</time></trkpt><trkpt lat="46.0941198" lon="13.5600461"><ele>450.0</ele><time>2026-05-03T12:14:41.122Z</time></trkpt><trkpt lat="46.0940668" lon="13.5599674"><ele>453.8333333333333</ele><time>2026-05-03T12:14:42.122Z</time></trkpt><trkpt lat="46.0939535" lon="13.5598869"><ele>457.66666666666663</ele><time>2026-05-03T12:14:44.122Z</time></trkpt><trkpt lat="46.0938847" lon="13.5598513"><ele>461.5</ele><time>2026-05-03T12:14:45.121Z</time></trkpt><trkpt lat="46.0938232" lon="13.5598199"><ele>465.3333333333333</ele><time>2026-05-03T12:14:46.122Z</time></trkpt><trkpt lat="46.0937598" lon="13.5597944"><ele>469.16666666666663</ele><time>2026-05-03T12:14:47.122Z</time></trkpt><trkpt lat="46.0936913" lon="13.5597944"><ele>473.0</ele><time>2026-05-03T12:14:48.122Z</time></trkpt><trkpt lat="46.0936268" lon="13.559821"><ele>473.0</ele><time>2026-05-03T12:14:49.122Z</time></trkpt><trkpt lat="46.0935515" lon="13.5598526"><ele>472.99999999999994</ele><time>2026-05-03T12:14:50.121Z</time></trkpt><trkpt lat="46.0934754" lon="13.5598835"><ele>472.99999999999994</ele><time>2026-05-03T12:14:51.121Z</time></trkpt><trkpt lat="46.0933706" lon="13.5599403"><ele>473.0</ele><time>2026-05-03T12:14:53.122Z</time></trkpt><trkpt lat="46.0932556" lon="13.5599917"><ele>473.0</ele><time>2026-05-03T12:14:55.122Z</time></trkpt><trkpt lat="46.0931894" lon="13.5600056"><ele>474.16666666666663</ele><time>2026-05-03T12:14:56.122Z</time></trkpt><trkpt lat="46.0931175" lon="13.560011"><ele>475.3333333333333</ele><time>2026-05-03T12:14:57.122Z</time></trkpt><trkpt lat="46.0930405" lon="13.5600211"><ele>476.5</ele><time>2026-05-03T12:14:58.122Z</time></trkpt><trkpt lat="46.0929569" lon="13.5600373"><ele>477.66666666666663</ele><time>2026-05-03T12:14:59.122Z</time></trkpt><trkpt lat="46.092878" lon="13.5600629"><ele>478.8333333333333</ele><time>2026-05-03T12:15:00.122Z</time></trkpt><trkpt lat="46.0928066" lon="13.560087"><ele>480.0</ele><time>2026-05-03T12:15:01.122Z</time></trkpt><trkpt lat="46.0927437" lon="13.5600955"><ele>480.0</ele><time>2026-05-03T12:15:02.122Z</time></trkpt><trkpt lat="46.0926209" lon="13.5601204"><ele>480.0</ele><time>2026-05-03T12:15:04.122Z</time></trkpt><trkpt lat="46.0925144" lon="13.5600888"><ele>480.0</ele><time>2026-05-03T12:15:06.122Z</time></trkpt><trkpt lat="46.0924701" lon="13.5599808"><ele>480.0</ele><time>2026-05-03T12:15:08.122Z</time></trkpt><trkpt lat="46.0924652" lon="13.5597935"><ele>480.0</ele><time>2026-05-03T12:15:10.122Z</time></trkpt><trkpt lat="46.0924662" lon="13.5596851"><ele>480.0</ele><time>2026-05-03T12:15:11.122Z</time></trkpt><trkpt lat="46.0924689" lon="13.5595843"><ele>480.0</ele><time>2026-05-03T12:15:12.121Z</time></trkpt><trkpt lat="46.0924785" lon="13.559481"><ele>480.0</ele><time>2026-05-03T12:15:13.122Z</time></trkpt><trkpt lat="46.0924902" lon="13.5593695"><ele>480.0</ele><time>2026-05-03T12:15:14.122Z</time></trkpt><trkpt lat="46.0925063" lon="13.5592613"><ele>480.0</ele><time>2026-05-03T12:15:15.122Z</time></trkpt><trkpt lat="46.0925323" lon="13.559155"><ele>480.3333333333333</ele><time>2026-05-03T12:15:16.122Z</time></trkpt><trkpt lat="46.0925661" lon="13.5590486"><ele>480.66666666666663</ele><time>2026-05-03T12:15:17.122Z</time></trkpt><trkpt lat="46.0926014" lon="13.5589402"><ele>481.0</ele><time>2026-05-03T12:15:18.122Z</time></trkpt><trkpt lat="46.0926413" lon="13.5588335"><ele>481.3333333333333</ele><time>2026-05-03T12:15:19.122Z</time></trkpt><trkpt lat="46.0926799" lon="13.5587249"><ele>481.66666666666663</ele><time>2026-05-03T12:15:20.122Z</time></trkpt><trkpt lat="46.0927198" lon="13.5586041"><ele>482.0</ele><time>2026-05-03T12:15:21.121Z</time></trkpt><trkpt lat="46.0927621" lon="13.5584802"><ele>480.49999999999994</ele><time>2026-05-03T12:15:22.122Z</time></trkpt><trkpt lat="46.0927873" lon="13.5583636"><ele>479.0</ele><time>2026-05-03T12:15:23.121Z</time></trkpt><trkpt lat="46.092804" lon="13.558236"><ele>477.5</ele><time>2026-05-03T12:15:24.122Z</time></trkpt><trkpt lat="46.0928254" lon="13.5581256"><ele>476.0</ele><time>2026-05-03T12:15:25.122Z</time></trkpt><trkpt lat="46.0928434" lon="13.5580053"><ele>474.49999999999994</ele><time>2026-05-03T12:15:26.122Z</time></trkpt><trkpt lat="46.0928531" lon="13.5578816"><ele>473.0</ele><time>2026-05-03T12:15:27.121Z</time></trkpt><trkpt lat="46.0928745" lon="13.5577551"><ele>472.28571428571433</ele><time>2026-05-03T12:15:28.122Z</time></trkpt><trkpt lat="46.0928952" lon="13.5576452"><ele>471.57142857142856</ele><time>2026-05-03T12:15:29.121Z</time></trkpt><trkpt lat="46.0929162" lon="13.5575343"><ele>470.8571428571429</ele><time>2026-05-03T12:15:30.122Z</time></trkpt><trkpt lat="46.0929359" lon="13.5574318"><ele>470.14285714285717</ele><time>2026-05-03T12:15:31.121Z</time></trkpt><trkpt lat="46.0929594" lon="13.557326"><ele>469.42857142857144</ele><time>2026-05-03T12:15:32.121Z</time></trkpt><trkpt lat="46.0929765" lon="13.5572316"><ele>468.7142857142857</ele><time>2026-05-03T12:15:33.122Z</time></trkpt><trkpt lat="46.0929794" lon="13.5571401"><ele>468.0</ele><time>2026-05-03T12:15:34.122Z</time></trkpt><trkpt lat="46.0929858" lon="13.5570427"><ele>468.8571428571429</ele><time>2026-05-03T12:15:35.122Z</time></trkpt><trkpt lat="46.0929795" lon="13.5569493"><ele>469.7142857142858</ele><time>2026-05-03T12:15:36.122Z</time></trkpt><trkpt lat="46.0929592" lon="13.5568613"><ele>470.57142857142856</ele><time>2026-05-03T12:15:37.122Z</time></trkpt><trkpt lat="46.092892" lon="13.5567346"><ele>471.42857142857144</ele><time>2026-05-03T12:15:39.122Z</time></trkpt><trkpt lat="46.0928285" lon="13.5566861"><ele>472.2857142857143</ele><time>2026-05-03T12:15:40.121Z</time></trkpt><trkpt lat="46.0927673" lon="13.5566368"><ele>473.1428571428571</ele><time>2026-05-03T12:15:41.121Z</time></trkpt><trkpt lat="46.0927117" lon="13.5565901"><ele>473.99999999999994</ele><time>2026-05-03T12:15:42.122Z</time></trkpt><trkpt lat="46.0926276" lon="13.5564593"><ele>474.0</ele><time>2026-05-03T12:15:44.122Z</time></trkpt><trkpt lat="46.0926003" lon="13.5563636"><ele>474.0</ele><time>2026-05-03T12:15:45.122Z</time></trkpt><trkpt lat="46.0925558" lon="13.5562755"><ele>474.0</ele><time>2026-05-03T12:15:46.122Z</time></trkpt><trkpt lat="46.0925116" lon="13.5561915"><ele>474.0</ele><time>2026-05-03T12:15:47.122Z</time></trkpt><trkpt lat="46.09248" lon="13.5561089"><ele>474.0</ele><time>2026-05-03T12:15:48.122Z</time></trkpt><trkpt lat="46.0924307" lon="13.5559495"><ele>474.0</ele><time>2026-05-03T12:15:50.122Z</time></trkpt><trkpt lat="46.0924093" lon="13.5557693"><ele>469.8333333333333</ele><time>2026-05-03T12:15:52.122Z</time></trkpt><trkpt lat="46.0924157" lon="13.5556617"><ele>465.66666666666663</ele><time>2026-05-03T12:15:53.122Z</time></trkpt><trkpt lat="46.0924106" lon="13.5555493"><ele>461.5</ele><time>2026-05-03T12:15:54.122Z</time></trkpt><trkpt lat="46.0923973" lon="13.5554455"><ele>457.3333333333333</ele><time>2026-05-03T12:15:55.121Z</time></trkpt><trkpt lat="46.0923794" lon="13.5553584"><ele>453.16666666666663</ele><time>2026-05-03T12:15:56.121Z</time></trkpt><trkpt lat="46.0923631" lon="13.5552512"><ele>449.0</ele><time>2026-05-03T12:15:57.122Z</time></trkpt><trkpt lat="46.0923561" lon="13.555122"><ele>449.0</ele><time>2026-05-03T12:15:58.122Z</time></trkpt><trkpt lat="46.0923522" lon="13.5549816"><ele>449.0</ele><time>2026-05-03T12:15:59.121Z</time></trkpt><trkpt lat="46.0923367" lon="13.5548463"><ele>449.0</ele><time>2026-05-03T12:16:00.122Z</time></trkpt><trkpt lat="46.0923153" lon="13.5547238"><ele>449.0</ele><time>2026-05-03T12:16:01.121Z</time></trkpt><trkpt lat="46.0922809" lon="13.5546006"><ele>449.0</ele><time>2026-05-03T12:16:02.122Z</time></trkpt><trkpt lat="46.0922338" lon="13.5544842"><ele>453.0</ele><time>2026-05-03T12:16:03.121Z</time></trkpt><trkpt lat="46.092177" lon="13.5543806"><ele>457.0</ele><time>2026-05-03T12:16:04.121Z</time></trkpt><trkpt lat="46.0921216" lon="13.554289"><ele>461.0</ele><time>2026-05-03T12:16:05.121Z</time></trkpt><trkpt lat="46.0920752" lon="13.5542071"><ele>465.0</ele><time>2026-05-03T12:16:06.122Z</time></trkpt><trkpt lat="46.0920192" lon="13.5540496"><ele>469.0</ele><time>2026-05-03T12:16:08.122Z</time></trkpt><trkpt lat="46.0920034" lon="13.5538927"><ele>469.00000000000006</ele><time>2026-05-03T12:16:10.122Z</time></trkpt><trkpt lat="46.0920065" lon="13.5537842"><ele>469.0</ele><time>2026-05-03T12:16:11.121Z</time></trkpt><trkpt lat="46.0920029" lon="13.5536704"><ele>469.0</ele><time>2026-05-03T12:16:12.121Z</time></trkpt><trkpt lat="46.0919801" lon="13.5535703"><ele>469.0</ele><time>2026-05-03T12:16:13.122Z</time></trkpt><trkpt lat="46.0919411" lon="13.5534632"><ele>469.00000000000006</ele><time>2026-05-03T12:16:14.122Z</time></trkpt><trkpt lat="46.0918972" lon="13.5533652"><ele>469.0</ele><time>2026-05-03T12:16:15.121Z</time></trkpt><trkpt lat="46.0918687" lon="13.5532674"><ele>470.33333333333337</ele><time>2026-05-03T12:16:16.122Z</time></trkpt><trkpt lat="46.0918538" lon="13.5531552"><ele>471.6666666666667</ele><time>2026-05-03T12:16:17.121Z</time></trkpt><trkpt lat="46.0918498" lon="13.5530572"><ele>473.0</ele><time>2026-05-03T12:16:18.122Z</time></trkpt><trkpt lat="46.0918547" lon="13.5529641"><ele>474.33333333333337</ele><time>2026-05-03T12:16:19.121Z</time></trkpt><trkpt lat="46.0918645" lon="13.5527841"><ele>475.6666666666667</ele><time>2026-05-03T12:16:21.122Z</time></trkpt><trkpt lat="46.0918696" lon="13.552693"><ele>477.0</ele><time>2026-05-03T12:16:22.122Z</time></trkpt><trkpt lat="46.0918723" lon="13.5525995"><ele>477.0</ele><time>2026-05-03T12:16:23.122Z</time></trkpt><trkpt lat="46.0918724" lon="13.5525007"><ele>477.0</ele><time>2026-05-03T12:16:24.122Z</time></trkpt><trkpt lat="46.0918632" lon="13.5524023"><ele>477.0</ele><time>2026-05-03T12:16:25.122Z</time></trkpt><trkpt lat="46.0918559" lon="13.5522421"><ele>477.0</ele><time>2026-05-03T12:16:27.122Z</time></trkpt><trkpt lat="46.0918849" lon="13.5520592"><ele>477.0</ele><time>2026-05-03T12:16:29.122Z</time></trkpt><trkpt lat="46.0919098" lon="13.5519648"><ele>477.0</ele><time>2026-05-03T12:16:30.121Z</time></trkpt><trkpt lat="46.09197" lon="13.5517714"><ele>475.5</ele><time>2026-05-03T12:16:32.121Z</time></trkpt><trkpt lat="46.0920057" lon="13.5516786"><ele>474.0</ele><time>2026-05-03T12:16:33.121Z</time></trkpt><trkpt lat="46.0920411" lon="13.5515974"><ele>472.5</ele><time>2026-05-03T12:16:34.122Z</time></trkpt><trkpt lat="46.0920927" lon="13.55146"><ele>471.0</ele><time>2026-05-03T12:16:36.122Z</time></trkpt><trkpt lat="46.0920831" lon="13.5513561"><ele>469.5</ele><time>2026-05-03T12:16:38.122Z</time></trkpt><trkpt lat="46.0920083" lon="13.5513383"><ele>468.0</ele><time>2026-05-03T12:16:40.122Z</time></trkpt><trkpt lat="46.0919239" lon="13.5513721"><ele>468.0</ele><time>2026-05-03T12:16:42.121Z</time></trkpt><trkpt lat="46.0918386" lon="13.5513911"><ele>468.0</ele><time>2026-05-03T12:16:44.121Z</time></trkpt><trkpt lat="46.0917609" lon="13.5513813"><ele>468.0</ele><time>2026-05-03T12:16:46.12Z</time></trkpt><trkpt lat="46.0916846" lon="13.551354"><ele>468.0</ele><time>2026-05-03T12:16:48.121Z</time></trkpt><trkpt lat="46.0916563" lon="13.5512643"><ele>468.0</ele><time>2026-05-03T12:16:50.12Z</time></trkpt><trkpt lat="46.0916988" lon="13.5511524"><ele>468.0</ele><time>2026-05-03T12:16:53.121Z</time></trkpt><trkpt lat="46.0917374" lon="13.5510687"><ele>466.3333333333333</ele><time>2026-05-03T12:16:55.121Z</time></trkpt><trkpt lat="46.0917788" lon="13.5509831"><ele>464.66666666666663</ele><time>2026-05-03T12:16:56.121Z</time></trkpt><trkpt lat="46.0918266" lon="13.5509038"><ele>463.0</ele><time>2026-05-03T12:16:57.121Z</time></trkpt><trkpt lat="46.0918684" lon="13.5508261"><ele>461.3333333333333</ele><time>2026-05-03T12:16:58.12Z</time></trkpt><trkpt lat="46.0919048" lon="13.5507503"><ele>459.66666666666663</ele><time>2026-05-03T12:16:59.12Z</time></trkpt><trkpt lat="46.0919753" lon="13.5506089"><ele>458.0</ele><time>2026-05-03T12:17:01.121Z</time></trkpt><trkpt lat="46.0919741" lon="13.5504832"><ele>458.0</ele><time>2026-05-03T12:17:03.121Z</time></trkpt><trkpt lat="46.0918626" lon="13.5504468"><ele>457.99999999999994</ele><time>2026-05-03T12:17:05.121Z</time></trkpt><trkpt lat="46.0918413" lon="13.5503101"><ele>457.99999999999994</ele><time>2026-05-03T12:17:08.121Z</time></trkpt><trkpt lat="46.0918837" lon="13.5501552"><ele>458.0</ele><time>2026-05-03T12:17:10.121Z</time></trkpt><trkpt lat="46.0918684" lon="13.5500665"><ele>458.0</ele><time>2026-05-03T12:17:12.12Z</time></trkpt><trkpt lat="46.0917911" lon="13.5501385"><ele>455.59999999999997</ele><time>2026-05-03T12:18:22.121Z</time></trkpt><trkpt lat="46.0917195" lon="13.5502127"><ele>453.19999999999993</ele><time>2026-05-03T12:18:25.121Z</time></trkpt><trkpt lat="46.0916295" lon="13.5503292"><ele>450.8</ele><time>2026-05-03T12:19:02.12Z</time></trkpt><trkpt lat="46.0915614" lon="13.5503999"><ele>448.4</ele><time>2026-05-03T12:19:03.12Z</time></trkpt><trkpt lat="46.0914893" lon="13.5504689"><ele>446.0</ele><time>2026-05-03T12:19:04.121Z</time></trkpt><trkpt lat="46.0914101" lon="13.5505375"><ele>443.0</ele><time>2026-05-03T12:19:05.121Z</time></trkpt><trkpt lat="46.0913316" lon="13.5506061"><ele>440.0</ele><time>2026-05-03T12:19:06.12Z</time></trkpt><trkpt lat="46.0912505" lon="13.5506782"><ele>437.0</ele><time>2026-05-03T12:19:07.121Z</time></trkpt><trkpt lat="46.0911715" lon="13.5507622"><ele>434.0</ele><time>2026-05-03T12:19:08.12Z</time></trkpt><trkpt lat="46.0910917" lon="13.5508657"><ele>431.0</ele><time>2026-05-03T12:19:09.12Z</time></trkpt><trkpt lat="46.0910356" lon="13.5509676"><ele>430.99999999999994</ele><time>2026-05-03T12:19:10.12Z</time></trkpt><trkpt lat="46.0909919" lon="13.5510683"><ele>431.0</ele><time>2026-05-03T12:19:11.121Z</time></trkpt><trkpt lat="46.090939" lon="13.5511274"><ele>431.0</ele><time>2026-05-03T12:19:12.121Z</time></trkpt><trkpt lat="46.0908767" lon="13.55117"><ele>431.0</ele><time>2026-05-03T12:19:13.121Z</time></trkpt><trkpt lat="46.0908031" lon="13.5510576"><ele>430.99999999999994</ele><time>2026-05-03T12:19:15.121Z</time></trkpt><trkpt lat="46.090848" lon="13.5509695"><ele>431.0</ele><time>2026-05-03T12:19:16.12Z</time></trkpt><trkpt lat="46.0909179" lon="13.5508815"><ele>431.0</ele><time>2026-05-03T12:19:17.121Z</time></trkpt><trkpt lat="46.09101" lon="13.5507724"><ele>431.0</ele><time>2026-05-03T12:19:18.121Z</time></trkpt><trkpt lat="46.0910873" lon="13.5506375"><ele>431.0</ele><time>2026-05-03T12:19:19.121Z</time></trkpt><trkpt lat="46.0911629" lon="13.5505078"><ele>431.0</ele><time>2026-05-03T12:19:20.12Z</time></trkpt><trkpt lat="46.0912295" lon="13.5503912"><ele>428.6</ele><time>2026-05-03T12:19:21.12Z</time></trkpt><trkpt lat="46.0912826" lon="13.5502851"><ele>426.20000000000005</ele><time>2026-05-03T12:19:22.121Z</time></trkpt><trkpt lat="46.091304" lon="13.5501694"><ele>423.79999999999995</ele><time>2026-05-03T12:19:23.121Z</time></trkpt><trkpt lat="46.0912701" lon="13.5500519"><ele>421.4</ele><time>2026-05-03T12:19:24.121Z</time></trkpt><trkpt lat="46.0912044" lon="13.5499426"><ele>419.0</ele><time>2026-05-03T12:19:25.121Z</time></trkpt><trkpt lat="46.0911453" lon="13.5498407"><ele>419.0</ele><time>2026-05-03T12:19:26.12Z</time></trkpt><trkpt lat="46.0911132" lon="13.549711"><ele>419.0</ele><time>2026-05-03T12:19:27.12Z</time></trkpt><trkpt lat="46.0911002" lon="13.5495654"><ele>419.0</ele><time>2026-05-03T12:19:28.12Z</time></trkpt><trkpt lat="46.0911127" lon="13.5494279"><ele>419.0</ele><time>2026-05-03T12:19:29.121Z</time></trkpt><trkpt lat="46.0911433" lon="13.5492972"><ele>419.0</ele><time>2026-05-03T12:19:30.12Z</time></trkpt><trkpt lat="46.0911804" lon="13.549156"><ele>418.0</ele><time>2026-05-03T12:19:31.12Z</time></trkpt><trkpt lat="46.0912261" lon="13.5490115"><ele>417.0</ele><time>2026-05-03T12:19:32.121Z</time></trkpt><trkpt lat="46.0912758" lon="13.5488685"><ele>416.0</ele><time>2026-05-03T12:19:33.121Z</time></trkpt><trkpt lat="46.0913421" lon="13.5487622"><ele>415.0</ele><time>2026-05-03T12:19:34.12Z</time></trkpt><trkpt lat="46.0914161" lon="13.5486875"><ele>414.0</ele><time>2026-05-03T12:19:35.121Z</time></trkpt><trkpt lat="46.0915149" lon="13.5486443"><ele>414.75</ele><time>2026-05-03T12:19:36.121Z</time></trkpt><trkpt lat="46.091635" lon="13.5486082"><ele>415.5</ele><time>2026-05-03T12:19:37.121Z</time></trkpt><trkpt lat="46.0917618" lon="13.5485485"><ele>416.25</ele><time>2026-05-03T12:19:38.121Z</time></trkpt><trkpt lat="46.0918818" lon="13.5484643"><ele>417.0</ele><time>2026-05-03T12:19:39.121Z</time></trkpt><trkpt lat="46.0919787" lon="13.5483806"><ele>417.0</ele><time>2026-05-03T12:19:40.121Z</time></trkpt><trkpt lat="46.0920532" lon="13.5483075"><ele>417.0</ele><time>2026-05-03T12:19:41.121Z</time></trkpt><trkpt lat="46.0921039" lon="13.5482337"><ele>417.0</ele><time>2026-05-03T12:19:42.121Z</time></trkpt><trkpt lat="46.092047" lon="13.5480888"><ele>417.0</ele><time>2026-05-03T12:19:44.121Z</time></trkpt><trkpt lat="46.0919717" lon="13.548077"><ele>417.0</ele><time>2026-05-03T12:19:45.121Z</time></trkpt><trkpt lat="46.0918716" lon="13.548121"><ele>417.0</ele><time>2026-05-03T12:19:46.121Z</time></trkpt><trkpt lat="46.0917628" lon="13.5481727"><ele>417.0</ele><time>2026-05-03T12:19:47.12Z</time></trkpt><trkpt lat="46.0916387" lon="13.5481882"><ele>417.0</ele><time>2026-05-03T12:19:48.121Z</time></trkpt><trkpt lat="46.091537" lon="13.5481749"><ele>417.0</ele><time>2026-05-03T12:19:49.121Z</time></trkpt><trkpt lat="46.0914304" lon="13.5481348"><ele>415.40000000000003</ele><time>2026-05-03T12:19:50.121Z</time></trkpt><trkpt lat="46.0913275" lon="13.5480838"><ele>413.8</ele><time>2026-05-03T12:19:51.121Z</time></trkpt><trkpt lat="46.0912251" lon="13.5480348"><ele>412.2</ele><time>2026-05-03T12:19:52.12Z</time></trkpt><trkpt lat="46.0911185" lon="13.5480347"><ele>410.6</ele><time>2026-05-03T12:19:53.121Z</time></trkpt><trkpt lat="46.0910067" lon="13.5480907"><ele>409.0</ele><time>2026-05-03T12:19:54.12Z</time></trkpt><trkpt lat="46.0908834" lon="13.5481847"><ele>406.75</ele><time>2026-05-03T12:19:55.121Z</time></trkpt><trkpt lat="46.0907548" lon="13.5482874"><ele>404.5</ele><time>2026-05-03T12:19:56.121Z</time></trkpt><trkpt lat="46.0906271" lon="13.5483701"><ele>402.25</ele><time>2026-05-03T12:19:57.121Z</time></trkpt><trkpt lat="46.0905091" lon="13.5484536"><ele>400.0</ele><time>2026-05-03T12:19:58.12Z</time></trkpt><trkpt lat="46.0903933" lon="13.5485392"><ele>400.0</ele><time>2026-05-03T12:19:59.121Z</time></trkpt><trkpt lat="46.0902852" lon="13.5486159"><ele>400.0</ele><time>2026-05-03T12:20:00.121Z</time></trkpt><trkpt lat="46.0901798" lon="13.548695"><ele>400.0</ele><time>2026-05-03T12:20:01.121Z</time></trkpt><trkpt lat="46.0900818" lon="13.5487633"><ele>400.0</ele><time>2026-05-03T12:20:02.121Z</time></trkpt><trkpt lat="46.0899893" lon="13.5488109"><ele>400.0</ele><time>2026-05-03T12:20:03.121Z</time></trkpt><trkpt lat="46.0898823" lon="13.548833"><ele>397.75</ele><time>2026-05-03T12:20:04.12Z</time></trkpt><trkpt lat="46.0897754" lon="13.548828"><ele>395.5</ele><time>2026-05-03T12:20:05.121Z</time></trkpt><trkpt lat="46.0896671" lon="13.5487793"><ele>393.25</ele><time>2026-05-03T12:20:06.12Z</time></trkpt><trkpt lat="46.0895566" lon="13.5487224"><ele>391.0</ele><time>2026-05-03T12:20:07.12Z</time></trkpt><trkpt lat="46.0894428" lon="13.548634"><ele>391.0</ele><time>2026-05-03T12:20:08.121Z</time></trkpt><trkpt lat="46.0893255" lon="13.5485307"><ele>391.0</ele><time>2026-05-03T12:20:09.121Z</time></trkpt><trkpt lat="46.0892181" lon="13.5484194"><ele>391.0</ele><time>2026-05-03T12:20:10.121Z</time></trkpt><trkpt lat="46.0891282" lon="13.5483012"><ele>391.0</ele><time>2026-05-03T12:20:11.12Z</time></trkpt><trkpt lat="46.089043" lon="13.5481971"><ele>388.4</ele><time>2026-05-03T12:20:12.121Z</time></trkpt><trkpt lat="46.0889569" lon="13.5480952"><ele>385.8</ele><time>2026-05-03T12:20:13.121Z</time></trkpt><trkpt lat="46.0888648" lon="13.5480055"><ele>383.2</ele><time>2026-05-03T12:20:14.12Z</time></trkpt><trkpt lat="46.0887636" lon="13.5479527"><ele>380.59999999999997</ele><time>2026-05-03T12:20:15.121Z</time></trkpt><trkpt lat="46.0886563" lon="13.5479355"><ele>378.0</ele><time>2026-05-03T12:20:16.121Z</time></trkpt><trkpt lat="46.0885453" lon="13.5479565"><ele>378.0</ele><time>2026-05-03T12:20:17.121Z</time></trkpt><trkpt lat="46.0884523" lon="13.5480195"><ele>378.0</ele><time>2026-05-03T12:20:18.12Z</time></trkpt><trkpt lat="46.0883665" lon="13.5481099"><ele>378.0</ele><time>2026-05-03T12:20:19.121Z</time></trkpt><trkpt lat="46.0882902" lon="13.5482126"><ele>378.0</ele><time>2026-05-03T12:20:20.121Z</time></trkpt><trkpt lat="46.0882221" lon="13.548326"><ele>378.0</ele><time>2026-05-03T12:20:21.12Z</time></trkpt><trkpt lat="46.0881701" lon="13.5484734"><ele>374.0</ele><time>2026-05-03T12:20:22.121Z</time></trkpt><trkpt lat="46.0881265" lon="13.5486358"><ele>370.0</ele><time>2026-05-03T12:20:23.12Z</time></trkpt><trkpt lat="46.0880923" lon="13.5487914"><ele>366.0</ele><time>2026-05-03T12:20:24.121Z</time></trkpt><trkpt lat="46.0880627" lon="13.5489337"><ele>362.0</ele><time>2026-05-03T12:20:25.121Z</time></trkpt><trkpt lat="46.0880613" lon="13.5490753"><ele>358.0</ele><time>2026-05-03T12:20:26.12Z</time></trkpt><trkpt lat="46.088087" lon="13.5492139"><ele>358.0</ele><time>2026-05-03T12:20:27.121Z</time></trkpt><trkpt lat="46.0881569" lon="13.5493308"><ele>358.0</ele><time>2026-05-03T12:20:28.12Z</time></trkpt><trkpt lat="46.0882429" lon="13.5493963"><ele>358.0</ele><time>2026-05-03T12:20:29.12Z</time></trkpt><trkpt lat="46.0883357" lon="13.5494487"><ele>358.0</ele><time>2026-05-03T12:20:30.121Z</time></trkpt><trkpt lat="46.0884195" lon="13.5495093"><ele>358.0</ele><time>2026-05-03T12:20:31.12Z</time></trkpt><trkpt lat="46.088461" lon="13.5496165"><ele>356.2</ele><time>2026-05-03T12:20:32.121Z</time></trkpt><trkpt lat="46.0884598" lon="13.5497234"><ele>354.4</ele><time>2026-05-03T12:20:33.12Z</time></trkpt><trkpt lat="46.0884096" lon="13.5498005"><ele>352.59999999999997</ele><time>2026-05-03T12:20:34.121Z</time></trkpt><trkpt lat="46.088323" lon="13.5498481"><ele>350.79999999999995</ele><time>2026-05-03T12:20:35.121Z</time></trkpt><trkpt lat="46.0882024" lon="13.5499225"><ele>349.0</ele><time>2026-05-03T12:20:36.121Z</time></trkpt><trkpt lat="46.088078" lon="13.5500299"><ele>349.0</ele><time>2026-05-03T12:20:37.12Z</time></trkpt><trkpt lat="46.0879564" lon="13.5501374"><ele>349.0</ele><time>2026-05-03T12:20:38.121Z</time></trkpt><trkpt lat="46.0878534" lon="13.5502468"><ele>349.0</ele><time>2026-05-03T12:20:39.12Z</time></trkpt><trkpt lat="46.087757" lon="13.5503494"><ele>349.0</ele><time>2026-05-03T12:20:40.12Z</time></trkpt><trkpt lat="46.0877032" lon="13.5504754"><ele>347.79999999999995</ele><time>2026-05-03T12:20:41.12Z</time></trkpt><trkpt lat="46.0876518" lon="13.5506157"><ele>346.59999999999997</ele><time>2026-05-03T12:20:42.12Z</time></trkpt><trkpt lat="46.0876061" lon="13.5507602"><ele>345.4</ele><time>2026-05-03T12:20:43.12Z</time></trkpt><trkpt lat="46.0875709" lon="13.5509147"><ele>344.2</ele><time>2026-05-03T12:20:44.12Z</time></trkpt><trkpt lat="46.0875596" lon="13.5510766"><ele>343.0</ele><time>2026-05-03T12:20:45.119Z</time></trkpt><trkpt lat="46.0875905" lon="13.5512384"><ele>341.0</ele><time>2026-05-03T12:20:46.12Z</time></trkpt><trkpt lat="46.0876625" lon="13.5513886"><ele>339.0</ele><time>2026-05-03T12:20:47.12Z</time></trkpt><trkpt lat="46.087759" lon="13.5515266"><ele>337.0</ele><time>2026-05-03T12:20:48.12Z</time></trkpt><trkpt lat="46.0878586" lon="13.5516828"><ele>335.0</ele><time>2026-05-03T12:20:49.119Z</time></trkpt><trkpt lat="46.0879203" lon="13.5518538"><ele>335.0</ele><time>2026-05-03T12:20:50.12Z</time></trkpt><trkpt lat="46.0879463" lon="13.5520261"><ele>335.0</ele><time>2026-05-03T12:20:51.12Z</time></trkpt><trkpt lat="46.0879759" lon="13.5522052"><ele>335.0</ele><time>2026-05-03T12:20:52.12Z</time></trkpt><trkpt lat="46.0880389" lon="13.5523736"><ele>335.0</ele><time>2026-05-03T12:20:53.12Z</time></trkpt><trkpt lat="46.0881224" lon="13.5525453"><ele>332.5</ele><time>2026-05-03T12:20:54.12Z</time></trkpt><trkpt lat="46.0882012" lon="13.5527209"><ele>330.0</ele><time>2026-05-03T12:20:55.119Z</time></trkpt><trkpt lat="46.0882839" lon="13.5528851"><ele>327.5</ele><time>2026-05-03T12:20:56.119Z</time></trkpt><trkpt lat="46.088375" lon="13.5530274"><ele>325.0</ele><time>2026-05-03T12:20:57.12Z</time></trkpt><trkpt lat="46.0884773" lon="13.5531507"><ele>325.0</ele><time>2026-05-03T12:20:58.119Z</time></trkpt><trkpt lat="46.088568" lon="13.5532728"><ele>325.0</ele><time>2026-05-03T12:20:59.119Z</time></trkpt><trkpt lat="46.0886393" lon="13.5533909"><ele>325.0</ele><time>2026-05-03T12:21:00.119Z</time></trkpt><trkpt lat="46.0886874" lon="13.5535132"><ele>325.0</ele><time>2026-05-03T12:21:01.119Z</time></trkpt><trkpt lat="46.0887048" lon="13.5536423"><ele>325.0</ele><time>2026-05-03T12:21:02.12Z</time></trkpt><trkpt lat="46.0886851" lon="13.5537673"><ele>321.5</ele><time>2026-05-03T12:21:03.12Z</time></trkpt><trkpt lat="46.0886501" lon="13.5539373"><ele>318.0</ele><time>2026-05-03T12:21:04.119Z</time></trkpt><trkpt lat="46.088636" lon="13.5541389"><ele>314.5</ele><time>2026-05-03T12:21:05.12Z</time></trkpt><trkpt lat="46.0886489" lon="13.5543583"><ele>311.0</ele><time>2026-05-03T12:21:06.12Z</time></trkpt><trkpt lat="46.0886627" lon="13.5545649"><ele>310.0</ele><time>2026-05-03T12:21:07.12Z</time></trkpt><trkpt lat="46.0886775" lon="13.5547741"><ele>309.0</ele><time>2026-05-03T12:21:08.119Z</time></trkpt><trkpt lat="46.08871" lon="13.55498"><ele>308.0</ele><time>2026-05-03T12:21:09.12Z</time></trkpt><trkpt lat="46.0887519" lon="13.5551722"><ele>307.0</ele><time>2026-05-03T12:21:10.12Z</time></trkpt><trkpt lat="46.0888003" lon="13.5553626"><ele>305.8</ele><time>2026-05-03T12:21:11.12Z</time></trkpt><trkpt lat="46.0888589" lon="13.5555109"><ele>304.6</ele><time>2026-05-03T12:21:12.12Z</time></trkpt><trkpt lat="46.0889368" lon="13.5556175"><ele>303.40000000000003</ele><time>2026-05-03T12:21:13.119Z</time></trkpt><trkpt lat="46.0889999" lon="13.5557111"><ele>302.2</ele><time>2026-05-03T12:21:14.119Z</time></trkpt><trkpt lat="46.0890171" lon="13.5558305"><ele>301.0</ele><time>2026-05-03T12:21:15.12Z</time></trkpt><trkpt lat="46.0889972" lon="13.5559942"><ele>301.0</ele><time>2026-05-03T12:21:16.119Z</time></trkpt><trkpt lat="46.0889454" lon="13.5561997"><ele>301.0</ele><time>2026-05-03T12:21:17.119Z</time></trkpt><trkpt lat="46.0889211" lon="13.5563843"><ele>301.0</ele><time>2026-05-03T12:21:18.119Z</time></trkpt><trkpt lat="46.0888991" lon="13.5565456"><ele>301.0</ele><time>2026-05-03T12:21:19.12Z</time></trkpt><trkpt lat="46.0888935" lon="13.5566854"><ele>300.5</ele><time>2026-05-03T12:21:20.119Z</time></trkpt><trkpt lat="46.0889258" lon="13.5567872"><ele>300.0</ele><time>2026-05-03T12:21:21.12Z</time></trkpt><trkpt lat="46.0890072" lon="13.5568607"><ele>299.5</ele><time>2026-05-03T12:21:22.12Z</time></trkpt><trkpt lat="46.0890836" lon="13.5569187"><ele>299.0</ele><time>2026-05-03T12:21:23.12Z</time></trkpt><trkpt lat="46.0891369" lon="13.5569829"><ele>298.5</ele><time>2026-05-03T12:21:24.12Z</time></trkpt><trkpt lat="46.0891409" lon="13.5570774"><ele>298.0</ele><time>2026-05-03T12:21:25.119Z</time></trkpt><trkpt lat="46.0890854" lon="13.557136"><ele>298.0</ele><time>2026-05-03T12:21:26.12Z</time></trkpt><trkpt lat="46.0889778" lon="13.5571727"><ele>298.0</ele><time>2026-05-03T12:21:27.12Z</time></trkpt><trkpt lat="46.0888716" lon="13.5572059"><ele>298.0</ele><time>2026-05-03T12:21:28.119Z</time></trkpt><trkpt lat="46.0887876" lon="13.557269"><ele>298.0</ele><time>2026-05-03T12:21:29.12Z</time></trkpt><trkpt lat="46.088741" lon="13.5573814"><ele>298.0</ele><time>2026-05-03T12:21:30.119Z</time></trkpt><trkpt lat="46.0887233" lon="13.557504"><ele>298.0</ele><time>2026-05-03T12:21:31.12Z</time></trkpt><trkpt lat="46.0887079" lon="13.5576188"><ele>298.0</ele><time>2026-05-03T12:21:32.12Z</time></trkpt><trkpt lat="46.0886576" lon="13.5577257"><ele>298.0</ele><time>2026-05-03T12:21:33.12Z</time></trkpt><trkpt lat="46.0885529" lon="13.5577971"><ele>298.0</ele><time>2026-05-03T12:21:34.12Z</time></trkpt><trkpt lat="46.0884209" lon="13.5577861"><ele>298.0</ele><time>2026-05-03T12:21:35.12Z</time></trkpt><trkpt lat="46.088307" lon="13.5577331"><ele>291.75</ele><time>2026-05-03T12:21:36.119Z</time></trkpt><trkpt lat="46.0881972" lon="13.5576497"><ele>285.5</ele><time>2026-05-03T12:21:37.119Z</time></trkpt><trkpt lat="46.0880885" lon="13.5575892"><ele>279.25</ele><time>2026-05-03T12:21:38.12Z</time></trkpt><trkpt lat="46.0879696" lon="13.557566"><ele>273.0</ele><time>2026-05-03T12:21:39.119Z</time></trkpt><trkpt lat="46.0878412" lon="13.5575633"><ele>273.0</ele><time>2026-05-03T12:21:40.12Z</time></trkpt><trkpt lat="46.0877178" lon="13.557612"><ele>273.0</ele><time>2026-05-03T12:21:41.12Z</time></trkpt><trkpt lat="46.0876327" lon="13.5576919"><ele>273.0</ele><time>2026-05-03T12:21:42.12Z</time></trkpt><trkpt lat="46.0875721" lon="13.5577289"><ele>273.0</ele><time>2026-05-03T12:21:43.12Z</time></trkpt><trkpt lat="46.0874865" lon="13.5576481"><ele>273.0</ele><time>2026-05-03T12:21:45.12Z</time></trkpt><trkpt lat="46.0875155" lon="13.5575654"><ele>273.0</ele><time>2026-05-03T12:21:46.119Z</time></trkpt><trkpt lat="46.0875868" lon="13.557506"><ele>273.0</ele><time>2026-05-03T12:21:47.12Z</time></trkpt><trkpt lat="46.0876956" lon="13.5574498"><ele>273.0</ele><time>2026-05-03T12:21:48.12Z</time></trkpt><trkpt lat="46.0878067" lon="13.5573739"><ele>273.0</ele><time>2026-05-03T12:21:49.119Z</time></trkpt><trkpt lat="46.0879127" lon="13.557335"><ele>273.0</ele><time>2026-05-03T12:21:50.119Z</time></trkpt><trkpt lat="46.0879902" lon="13.557332"><ele>273.0</ele><time>2026-05-03T12:21:51.12Z</time></trkpt><trkpt lat="46.0880588" lon="13.5572067"><ele>273.0</ele><time>2026-05-03T12:21:53.12Z</time></trkpt><trkpt lat="46.0881401" lon="13.5572706"><ele>273.0</ele><time>2026-05-03T12:21:54.12Z</time></trkpt><trkpt lat="46.0880603" lon="13.5571684"><ele>273.0</ele><time>2026-05-03T12:21:56.12Z</time></trkpt><trkpt lat="46.0879523" lon="13.5571706"><ele>273.0</ele><time>2026-05-03T12:21:57.119Z</time></trkpt><trkpt lat="46.0878238" lon="13.5571908"><ele>273.0</ele><time>2026-05-03T12:21:58.119Z</time></trkpt><trkpt lat="46.0877078" lon="13.5572019"><ele>273.0</ele><time>2026-05-03T12:21:59.12Z</time></trkpt><trkpt lat="46.0875948" lon="13.5571885"><ele>273.0</ele><time>2026-05-03T12:22:00.12Z</time></trkpt><trkpt lat="46.0874811" lon="13.5571723"><ele>273.0</ele><time>2026-05-03T12:22:01.12Z</time></trkpt><trkpt lat="46.0873657" lon="13.5571624"><ele>264.6</ele><time>2026-05-03T12:22:02.119Z</time></trkpt><trkpt lat="46.0872621" lon="13.5571784"><ele>256.20000000000005</ele><time>2026-05-03T12:22:03.119Z</time></trkpt><trkpt lat="46.0871821" lon="13.557232"><ele>247.8</ele><time>2026-05-03T12:22:04.119Z</time></trkpt><trkpt lat="46.0871454" lon="13.5573141"><ele>239.4</ele><time>2026-05-03T12:22:05.12Z</time></trkpt><trkpt lat="46.0871338" lon="13.5574271"><ele>231.0</ele><time>2026-05-03T12:22:06.12Z</time></trkpt><trkpt lat="46.0871633" lon="13.557603"><ele>231.0</ele><time>2026-05-03T12:22:07.12Z</time></trkpt><trkpt lat="46.0872129" lon="13.5578132"><ele>231.0</ele><time>2026-05-03T12:22:08.119Z</time></trkpt><trkpt lat="46.087259" lon="13.5580292"><ele>231.0</ele><time>2026-05-03T12:22:09.119Z</time></trkpt><trkpt lat="46.0873106" lon="13.5582549"><ele>227.0</ele><time>2026-05-03T12:22:10.12Z</time></trkpt><trkpt lat="46.0873639" lon="13.558474"><ele>223.0</ele><time>2026-05-03T12:22:11.12Z</time></trkpt><trkpt lat="46.0874201" lon="13.5586843"><ele>219.0</ele><time>2026-05-03T12:22:12.12Z</time></trkpt><trkpt lat="46.0874676" lon="13.5588867"><ele>219.25</ele><time>2026-05-03T12:22:13.12Z</time></trkpt><trkpt lat="46.0875078" lon="13.559095"><ele>219.5</ele><time>2026-05-03T12:22:14.12Z</time></trkpt><trkpt lat="46.0875492" lon="13.5592911"><ele>219.75</ele><time>2026-05-03T12:22:15.12Z</time></trkpt><trkpt lat="46.0876074" lon="13.5594747"><ele>220.0</ele><time>2026-05-03T12:22:16.12Z</time></trkpt><trkpt lat="46.0876946" lon="13.5596545"><ele>220.0</ele><time>2026-05-03T12:22:17.12Z</time></trkpt><trkpt lat="46.0877913" lon="13.5598544"><ele>220.0</ele><time>2026-05-03T12:22:18.12Z</time></trkpt><trkpt lat="46.0878662" lon="13.5600565"><ele>220.0</ele><time>2026-05-03T12:22:19.119Z</time></trkpt><trkpt lat="46.0879289" lon="13.5602556"><ele>213.33333333333331</ele><time>2026-05-03T12:22:20.12Z</time></trkpt><trkpt lat="46.0880072" lon="13.5604382"><ele>206.66666666666669</ele><time>2026-05-03T12:22:21.12Z</time></trkpt><trkpt lat="46.0881116" lon="13.560622"><ele>200.0</ele><time>2026-05-03T12:22:22.119Z</time></trkpt><trkpt lat="46.0882328" lon="13.560804"><ele>200.0</ele><time>2026-05-03T12:22:23.12Z</time></trkpt><trkpt lat="46.0883472" lon="13.5609866"><ele>200.0</ele><time>2026-05-03T12:22:24.119Z</time></trkpt><trkpt lat="46.088453" lon="13.5611676"><ele>200.0</ele><time>2026-05-03T12:22:25.12Z</time></trkpt><trkpt lat="46.0885573" lon="13.5613465"><ele>200.25</ele><time>2026-05-03T12:22:26.119Z</time></trkpt><trkpt lat="46.0886503" lon="13.5615177"><ele>200.5</ele><time>2026-05-03T12:22:27.12Z</time></trkpt><trkpt lat="46.0887271" lon="13.5616908"><ele>200.75</ele><time>2026-05-03T12:22:28.119Z</time></trkpt><trkpt lat="46.0887985" lon="13.5618659"><ele>201.0</ele><time>2026-05-03T12:22:29.12Z</time></trkpt><trkpt lat="46.0888653" lon="13.5620331"><ele>201.0</ele><time>2026-05-03T12:22:30.12Z</time></trkpt><trkpt lat="46.0889291" lon="13.562209"><ele>201.0</ele><time>2026-05-03T12:22:31.119Z</time></trkpt><trkpt lat="46.0889956" lon="13.562404"><ele>201.0</ele><time>2026-05-03T12:22:32.12Z</time></trkpt><trkpt lat="46.0890502" lon="13.5626019"><ele>201.0</ele><time>2026-05-03T12:22:33.119Z</time></trkpt><trkpt lat="46.0890873" lon="13.5628071"><ele>208.25</ele><time>2026-05-03T12:22:34.12Z</time></trkpt><trkpt lat="46.0891208" lon="13.5630129"><ele>215.5</ele><time>2026-05-03T12:22:35.119Z</time></trkpt><trkpt lat="46.0891405" lon="13.5632232"><ele>222.75</ele><time>2026-05-03T12:22:36.12Z</time></trkpt><trkpt lat="46.0891485" lon="13.5634329"><ele>230.0</ele><time>2026-05-03T12:22:37.12Z</time></trkpt><trkpt lat="46.089155" lon="13.5636303"><ele>229.75</ele><time>2026-05-03T12:22:38.119Z</time></trkpt><trkpt lat="46.0891466" lon="13.563809"><ele>229.5</ele><time>2026-05-03T12:22:39.119Z</time></trkpt><trkpt lat="46.0891111" lon="13.5639858"><ele>229.25</ele><time>2026-05-03T12:22:40.12Z</time></trkpt><trkpt lat="46.0890587" lon="13.5641692"><ele>229.0</ele><time>2026-05-03T12:22:41.119Z</time></trkpt><trkpt lat="46.0890144" lon="13.5643634"><ele>217.0</ele><time>2026-05-03T12:22:42.119Z</time></trkpt><trkpt lat="46.0889799" lon="13.564572"><ele>205.0</ele><time>2026-05-03T12:22:43.12Z</time></trkpt><trkpt lat="46.088955" lon="13.5647934"><ele>193.0</ele><time>2026-05-03T12:22:44.12Z</time></trkpt><trkpt lat="46.0889417" lon="13.5650055"><ele>193.0</ele><time>2026-05-03T12:22:45.12Z</time></trkpt><trkpt lat="46.0889267" lon="13.5652044"><ele>193.0</ele><time>2026-05-03T12:22:46.12Z</time></trkpt><trkpt lat="46.0889147" lon="13.5653704"><ele>193.0</ele><time>2026-05-03T12:22:47.12Z</time></trkpt><trkpt lat="46.0889232" lon="13.565521"><ele>193.0</ele><time>2026-05-03T12:22:48.119Z</time></trkpt><trkpt lat="46.0889791" lon="13.5656883"><ele>193.0</ele><time>2026-05-03T12:22:49.12Z</time></trkpt><trkpt lat="46.0890806" lon="13.5658745"><ele>193.0</ele><time>2026-05-03T12:22:50.12Z</time></trkpt><trkpt lat="46.0891841" lon="13.5660157"><ele>193.0</ele><time>2026-05-03T12:22:51.119Z</time></trkpt><trkpt lat="46.0892572" lon="13.5661507"><ele>193.0</ele><time>2026-05-03T12:22:52.119Z</time></trkpt><trkpt lat="46.0893251" lon="13.5662723"><ele>194.83333333333331</ele><time>2026-05-03T12:22:53.12Z</time></trkpt><trkpt lat="46.0893706" lon="13.5663618"><ele>196.66666666666666</ele><time>2026-05-03T12:22:54.119Z</time></trkpt><trkpt lat="46.089403" lon="13.5664534"><ele>198.5</ele><time>2026-05-03T12:22:55.12Z</time></trkpt><trkpt lat="46.0893895" lon="13.566592"><ele>200.33333333333331</ele><time>2026-05-03T12:22:57.119Z</time></trkpt><trkpt lat="46.0892942" lon="13.5665653"><ele>202.16666666666666</ele><time>2026-05-03T12:23:00.12Z</time></trkpt><trkpt lat="46.0892326" lon="13.5664883"><ele>204.0</ele><time>2026-05-03T12:23:01.12Z</time></trkpt><trkpt lat="46.089166" lon="13.5664101"><ele>201.79999999999998</ele><time>2026-05-03T12:23:02.12Z</time></trkpt><trkpt lat="46.089084" lon="13.5663208"><ele>199.6</ele><time>2026-05-03T12:23:03.12Z</time></trkpt><trkpt lat="46.0890028" lon="13.5662183"><ele>197.4</ele><time>2026-05-03T12:23:04.12Z</time></trkpt><trkpt lat="46.08893" lon="13.5660957"><ele>195.2</ele><time>2026-05-03T12:23:05.12Z</time></trkpt><trkpt lat="46.0888498" lon="13.5659705"><ele>193.0</ele><time>2026-05-03T12:23:06.12Z</time></trkpt><trkpt lat="46.0887662" lon="13.5658418"><ele>193.0</ele><time>2026-05-03T12:23:07.12Z</time></trkpt><trkpt lat="46.0886956" lon="13.5657247"><ele>193.0</ele><time>2026-05-03T12:23:08.12Z</time></trkpt><trkpt lat="46.088642" lon="13.5656006"><ele>193.0</ele><time>2026-05-03T12:23:09.12Z</time></trkpt><trkpt lat="46.0886178" lon="13.5654496"><ele>193.0</ele><time>2026-05-03T12:23:10.12Z</time></trkpt><trkpt lat="46.0886298" lon="13.5652841"><ele>193.0</ele><time>2026-05-03T12:23:11.119Z</time></trkpt><trkpt lat="46.0886609" lon="13.5651025"><ele>193.0</ele><time>2026-05-03T12:23:12.12Z</time></trkpt><trkpt lat="46.088691" lon="13.5649245"><ele>193.0</ele><time>2026-05-03T12:23:13.12Z</time></trkpt><trkpt lat="46.0886984" lon="13.5647426"><ele>193.0</ele><time>2026-05-03T12:23:14.12Z</time></trkpt><trkpt lat="46.0886882" lon="13.5645624"><ele>193.0</ele><time>2026-05-03T12:23:15.12Z</time></trkpt><trkpt lat="46.0886711" lon="13.5643864"><ele>193.25</ele><time>2026-05-03T12:23:16.119Z</time></trkpt><trkpt lat="46.088656" lon="13.5642041"><ele>193.5</ele><time>2026-05-03T12:23:17.12Z</time></trkpt><trkpt lat="46.0886423" lon="13.5640226"><ele>193.75</ele><time>2026-05-03T12:23:18.12Z</time></trkpt><trkpt lat="46.0886253" lon="13.5638432"><ele>194.0</ele><time>2026-05-03T12:23:19.12Z</time></trkpt><trkpt lat="46.0886032" lon="13.5636622"><ele>195.0</ele><time>2026-05-03T12:23:20.119Z</time></trkpt><trkpt lat="46.0885612" lon="13.5634847"><ele>196.0</ele><time>2026-05-03T12:23:21.12Z</time></trkpt><trkpt lat="46.0885085" lon="13.5633132"><ele>197.0</ele><time>2026-05-03T12:23:22.12Z</time></trkpt><trkpt lat="46.0884491" lon="13.5631364"><ele>198.0</ele><time>2026-05-03T12:23:23.119Z</time></trkpt><trkpt lat="46.0883944" lon="13.5629533"><ele>198.75</ele><time>2026-05-03T12:23:24.119Z</time></trkpt><trkpt lat="46.0883427" lon="13.5627611"><ele>199.5</ele><time>2026-05-03T12:23:25.119Z</time></trkpt><trkpt lat="46.0882931" lon="13.5625624"><ele>200.25</ele><time>2026-05-03T12:23:26.119Z</time></trkpt><trkpt lat="46.0882424" lon="13.5623704"><ele>201.0</ele><time>2026-05-03T12:23:27.12Z</time></trkpt><trkpt lat="46.0881911" lon="13.5621876"><ele>198.25</ele><time>2026-05-03T12:23:28.12Z</time></trkpt><trkpt lat="46.088138" lon="13.5620141"><ele>195.5</ele><time>2026-05-03T12:23:29.119Z</time></trkpt><trkpt lat="46.0880739" lon="13.5618427"><ele>192.75</ele><time>2026-05-03T12:23:30.12Z</time></trkpt><trkpt lat="46.0879825" lon="13.5616871"><ele>190.0</ele><time>2026-05-03T12:23:31.12Z</time></trkpt><trkpt lat="46.0878667" lon="13.5615463"><ele>190.0</ele><time>2026-05-03T12:23:32.119Z</time></trkpt><trkpt lat="46.0877543" lon="13.5614073"><ele>190.0</ele><time>2026-05-03T12:23:33.119Z</time></trkpt><trkpt lat="46.0876384" lon="13.5612645"><ele>190.0</ele><time>2026-05-03T12:23:34.12Z</time></trkpt><trkpt lat="46.0875233" lon="13.5611199"><ele>188.0</ele><time>2026-05-03T12:23:35.12Z</time></trkpt><trkpt lat="46.0874047" lon="13.560965"><ele>186.0</ele><time>2026-05-03T12:23:36.119Z</time></trkpt><trkpt lat="46.0872969" lon="13.5608169"><ele>184.0</ele><time>2026-05-03T12:23:37.12Z</time></trkpt><trkpt lat="46.0871886" lon="13.5606716"><ele>184.0</ele><time>2026-05-03T12:23:38.119Z</time></trkpt><trkpt lat="46.0870757" lon="13.560557"><ele>184.0</ele><time>2026-05-03T12:23:39.12Z</time></trkpt><trkpt lat="46.0869734" lon="13.5604388"><ele>184.0</ele><time>2026-05-03T12:23:40.12Z</time></trkpt><trkpt lat="46.0868795" lon="13.5603113"><ele>184.0</ele><time>2026-05-03T12:23:41.119Z</time></trkpt><trkpt lat="46.0867953" lon="13.5601668"><ele>182.25</ele><time>2026-05-03T12:23:42.12Z</time></trkpt><trkpt lat="46.0867116" lon="13.560009"><ele>180.5</ele><time>2026-05-03T12:23:43.12Z</time></trkpt><trkpt lat="46.0866251" lon="13.55984"><ele>178.75</ele><time>2026-05-03T12:23:44.12Z</time></trkpt><trkpt lat="46.0865397" lon="13.5596537"><ele>177.0</ele><time>2026-05-03T12:23:45.12Z</time></trkpt><trkpt lat="46.0864621" lon="13.5594654"><ele>177.0</ele><time>2026-05-03T12:23:46.12Z</time></trkpt><trkpt lat="46.0863952" lon="13.5592651"><ele>177.0</ele><time>2026-05-03T12:23:47.12Z</time></trkpt><trkpt lat="46.086333" lon="13.5590524"><ele>177.0</ele><time>2026-05-03T12:23:48.119Z</time></trkpt><trkpt lat="46.0862741" lon="13.5588218"><ele>178.66666666666666</ele><time>2026-05-03T12:23:49.119Z</time></trkpt><trkpt lat="46.086216" lon="13.5585967"><ele>180.33333333333331</ele><time>2026-05-03T12:23:50.12Z</time></trkpt><trkpt lat="46.0861501" lon="13.5583787"><ele>182.0</ele><time>2026-05-03T12:23:51.119Z</time></trkpt><trkpt lat="46.0860771" lon="13.5581633"><ele>182.0</ele><time>2026-05-03T12:23:52.12Z</time></trkpt><trkpt lat="46.0860036" lon="13.5579525"><ele>182.0</ele><time>2026-05-03T12:23:53.12Z</time></trkpt><trkpt lat="46.0859263" lon="13.5577435"><ele>182.0</ele><time>2026-05-03T12:23:54.12Z</time></trkpt><trkpt lat="46.0858462" lon="13.557535"><ele>178.66666666666666</ele><time>2026-05-03T12:23:55.12Z</time></trkpt><trkpt lat="46.0857617" lon="13.5573306"><ele>175.33333333333334</ele><time>2026-05-03T12:23:56.12Z</time></trkpt><trkpt lat="46.0856832" lon="13.5571313"><ele>172.0</ele><time>2026-05-03T12:23:57.12Z</time></trkpt><trkpt lat="46.0856083" lon="13.5569368"><ele>172.0</ele><time>2026-05-03T12:23:58.12Z</time></trkpt><trkpt lat="46.0855348" lon="13.5567597"><ele>172.0</ele><time>2026-05-03T12:23:59.119Z</time></trkpt><trkpt lat="46.0854451" lon="13.5565759"><ele>172.0</ele><time>2026-05-03T12:24:00.119Z</time></trkpt><trkpt lat="46.08534" lon="13.5564057"><ele>172.0</ele><time>2026-05-03T12:24:01.12Z</time></trkpt><trkpt lat="46.0852389" lon="13.5562363"><ele>172.0</ele><time>2026-05-03T12:24:02.12Z</time></trkpt><trkpt lat="46.0851219" lon="13.5560762"><ele>172.0</ele><time>2026-05-03T12:24:03.119Z</time></trkpt><trkpt lat="46.0849979" lon="13.5559243"><ele>172.75</ele><time>2026-05-03T12:24:04.12Z</time></trkpt><trkpt lat="46.0848683" lon="13.5557957"><ele>173.5</ele><time>2026-05-03T12:24:05.12Z</time></trkpt><trkpt lat="46.0847487" lon="13.5556679"><ele>174.25</ele><time>2026-05-03T12:24:06.119Z</time></trkpt><trkpt lat="46.0846365" lon="13.5555431"><ele>175.0</ele><time>2026-05-03T12:24:07.12Z</time></trkpt><trkpt lat="46.0845242" lon="13.5554296"><ele>174.75</ele><time>2026-05-03T12:24:08.12Z</time></trkpt><trkpt lat="46.0844226" lon="13.5552987"><ele>174.5</ele><time>2026-05-03T12:24:09.119Z</time></trkpt><trkpt lat="46.084344" lon="13.555129"><ele>174.25</ele><time>2026-05-03T12:24:10.119Z</time></trkpt><trkpt lat="46.0842735" lon="13.5549242"><ele>174.0</ele><time>2026-05-03T12:24:11.12Z</time></trkpt><trkpt lat="46.0842202" lon="13.5547214"><ele>173.75</ele><time>2026-05-03T12:24:12.12Z</time></trkpt><trkpt lat="46.0841882" lon="13.5545362"><ele>173.5</ele><time>2026-05-03T12:24:13.12Z</time></trkpt><trkpt lat="46.0841638" lon="13.5543516"><ele>173.25</ele><time>2026-05-03T12:24:14.12Z</time></trkpt><trkpt lat="46.0841643" lon="13.5541465"><ele>173.0</ele><time>2026-05-03T12:24:15.12Z</time></trkpt><trkpt lat="46.0841872" lon="13.5539295"><ele>173.0</ele><time>2026-05-03T12:24:16.12Z</time></trkpt><trkpt lat="46.0842291" lon="13.5537266"><ele>173.0</ele><time>2026-05-03T12:24:17.119Z</time></trkpt><trkpt lat="46.0842733" lon="13.5535298"><ele>173.0</ele><time>2026-05-03T12:24:18.119Z</time></trkpt><trkpt lat="46.084315" lon="13.5533442"><ele>173.0</ele><time>2026-05-03T12:24:19.12Z</time></trkpt><trkpt lat="46.0843592" lon="13.5531622"><ele>172.25</ele><time>2026-05-03T12:24:20.12Z</time></trkpt><trkpt lat="46.0844155" lon="13.5529773"><ele>171.5</ele><time>2026-05-03T12:24:21.119Z</time></trkpt><trkpt lat="46.0844763" lon="13.552795"><ele>170.75</ele><time>2026-05-03T12:24:22.119Z</time></trkpt><trkpt lat="46.0845342" lon="13.5526064"><ele>170.0</ele><time>2026-05-03T12:24:23.12Z</time></trkpt><trkpt lat="46.084591" lon="13.5524224"><ele>169.75</ele><time>2026-05-03T12:24:24.12Z</time></trkpt><trkpt lat="46.0846536" lon="13.5522545"><ele>169.5</ele><time>2026-05-03T12:24:25.12Z</time></trkpt><trkpt lat="46.084703" lon="13.552075"><ele>169.25</ele><time>2026-05-03T12:24:26.12Z</time></trkpt><trkpt lat="46.0847291" lon="13.5518897"><ele>169.0</ele><time>2026-05-03T12:24:27.12Z</time></trkpt><trkpt lat="46.0847277" lon="13.5516983"><ele>169.75</ele><time>2026-05-03T12:24:28.12Z</time></trkpt><trkpt lat="46.0847058" lon="13.5515162"><ele>170.5</ele><time>2026-05-03T12:24:29.119Z</time></trkpt><trkpt lat="46.084658" lon="13.5513502"><ele>171.25</ele><time>2026-05-03T12:24:30.119Z</time></trkpt><trkpt lat="46.0845915" lon="13.5511972"><ele>172.0</ele><time>2026-05-03T12:24:31.12Z</time></trkpt><trkpt lat="46.0845059" lon="13.5510543"><ele>172.25</ele><time>2026-05-03T12:24:32.12Z</time></trkpt><trkpt lat="46.0844087" lon="13.5509375"><ele>172.5</ele><time>2026-05-03T12:24:33.12Z</time></trkpt><trkpt lat="46.0842964" lon="13.5508592"><ele>172.75</ele><time>2026-05-03T12:24:34.12Z</time></trkpt><trkpt lat="46.0841559" lon="13.5508199"><ele>173.0</ele><time>2026-05-03T12:24:35.12Z</time></trkpt><trkpt lat="46.0839982" lon="13.5508007"><ele>173.0</ele><time>2026-05-03T12:24:36.12Z</time></trkpt><trkpt lat="46.0838339" lon="13.550779"><ele>173.0</ele><time>2026-05-03T12:24:37.12Z</time></trkpt><trkpt lat="46.0836782" lon="13.5507567"><ele>173.0</ele><time>2026-05-03T12:24:38.12Z</time></trkpt><trkpt lat="46.0835324" lon="13.5507416"><ele>173.0</ele><time>2026-05-03T12:24:39.119Z</time></trkpt><trkpt lat="46.0833995" lon="13.5507353"><ele>173.0</ele><time>2026-05-03T12:24:40.12Z</time></trkpt><trkpt lat="46.0832749" lon="13.5507271"><ele>173.0</ele><time>2026-05-03T12:24:41.119Z</time></trkpt><trkpt lat="46.083169" lon="13.55067"><ele>173.0</ele><time>2026-05-03T12:24:42.12Z</time></trkpt><trkpt lat="46.0830792" lon="13.5505804"><ele>171.0</ele><time>2026-05-03T12:24:43.12Z</time></trkpt><trkpt lat="46.0830085" lon="13.5504283"><ele>169.0</ele><time>2026-05-03T12:24:44.12Z</time></trkpt><trkpt lat="46.0829748" lon="13.5502705"><ele>167.0</ele><time>2026-05-03T12:24:45.119Z</time></trkpt><trkpt lat="46.0829764" lon="13.5500977"><ele>165.0</ele><time>2026-05-03T12:24:46.118Z</time></trkpt><trkpt lat="46.0829989" lon="13.5499268"><ele>164.25</ele><time>2026-05-03T12:24:47.118Z</time></trkpt><trkpt lat="46.0830287" lon="13.5497289"><ele>163.5</ele><time>2026-05-03T12:24:48.118Z</time></trkpt><trkpt lat="46.0830536" lon="13.5495162"><ele>162.75</ele><time>2026-05-03T12:24:49.119Z</time></trkpt><trkpt lat="46.0830874" lon="13.5492995"><ele>162.0</ele><time>2026-05-03T12:24:50.118Z</time></trkpt><trkpt lat="46.0831252" lon="13.5490934"><ele>161.66666666666666</ele><time>2026-05-03T12:24:51.119Z</time></trkpt><trkpt lat="46.0831653" lon="13.5488856"><ele>161.33333333333331</ele><time>2026-05-03T12:24:52.118Z</time></trkpt><trkpt lat="46.0832166" lon="13.5486701"><ele>161.0</ele><time>2026-05-03T12:24:53.119Z</time></trkpt><trkpt lat="46.0832734" lon="13.548453"><ele>163.33333333333331</ele><time>2026-05-03T12:24:54.118Z</time></trkpt><trkpt lat="46.0833283" lon="13.5482345"><ele>165.66666666666666</ele><time>2026-05-03T12:24:55.118Z</time></trkpt><trkpt lat="46.0833755" lon="13.5480096"><ele>168.0</ele><time>2026-05-03T12:24:56.119Z</time></trkpt><trkpt lat="46.0834248" lon="13.5477967"><ele>168.0</ele><time>2026-05-03T12:24:57.119Z</time></trkpt><trkpt lat="46.0834771" lon="13.5475873"><ele>168.0</ele><time>2026-05-03T12:24:58.119Z</time></trkpt><trkpt lat="46.0835227" lon="13.5473864"><ele>168.0</ele><time>2026-05-03T12:24:59.119Z</time></trkpt><trkpt lat="46.0835592" lon="13.5471957"><ele>168.0</ele><time>2026-05-03T12:25:00.118Z</time></trkpt><trkpt lat="46.0835901" lon="13.5470119"><ele>167.0</ele><time>2026-05-03T12:25:01.119Z</time></trkpt><trkpt lat="46.083609" lon="13.5468292"><ele>166.0</ele><time>2026-05-03T12:25:02.119Z</time></trkpt><trkpt lat="46.0836085" lon="13.5466423"><ele>165.0</ele><time>2026-05-03T12:25:03.119Z</time></trkpt><trkpt lat="46.0835768" lon="13.5464608"><ele>164.0</ele><time>2026-05-03T12:25:04.119Z</time></trkpt><trkpt lat="46.083538" lon="13.5462592"><ele>164.0</ele><time>2026-05-03T12:25:05.119Z</time></trkpt><trkpt lat="46.0835002" lon="13.546056"><ele>164.0</ele><time>2026-05-03T12:25:06.118Z</time></trkpt><trkpt lat="46.0834688" lon="13.5458345"><ele>164.0</ele><time>2026-05-03T12:25:07.118Z</time></trkpt><trkpt lat="46.083439" lon="13.5456091"><ele>164.0</ele><time>2026-05-03T12:25:08.119Z</time></trkpt><trkpt lat="46.083408" lon="13.5454035"><ele>164.0</ele><time>2026-05-03T12:25:09.118Z</time></trkpt><trkpt lat="46.083384" lon="13.5451983"><ele>164.0</ele><time>2026-05-03T12:25:10.119Z</time></trkpt><trkpt lat="46.0833503" lon="13.5449981"><ele>164.0</ele><time>2026-05-03T12:25:11.119Z</time></trkpt><trkpt lat="46.0833127" lon="13.544792"><ele>162.66666666666666</ele><time>2026-05-03T12:25:12.119Z</time></trkpt><trkpt lat="46.0832658" lon="13.544584"><ele>161.33333333333334</ele><time>2026-05-03T12:25:13.119Z</time></trkpt><trkpt lat="46.083213" lon="13.5443768"><ele>160.0</ele><time>2026-05-03T12:25:14.118Z</time></trkpt><trkpt lat="46.0831444" lon="13.5441769"><ele>160.0</ele><time>2026-05-03T12:25:15.119Z</time></trkpt><trkpt lat="46.0830683" lon="13.5439799"><ele>160.0</ele><time>2026-05-03T12:25:16.118Z</time></trkpt><trkpt lat="46.0829967" lon="13.543795"><ele>160.0</ele><time>2026-05-03T12:25:17.119Z</time></trkpt><trkpt lat="46.0829315" lon="13.5436266"><ele>160.0</ele><time>2026-05-03T12:25:18.118Z</time></trkpt><trkpt lat="46.0828788" lon="13.5434807"><ele>160.33333333333334</ele><time>2026-05-03T12:25:19.119Z</time></trkpt><trkpt lat="46.0828349" lon="13.5433465"><ele>160.66666666666669</ele><time>2026-05-03T12:25:20.119Z</time></trkpt><trkpt lat="46.0827966" lon="13.5432333"><ele>161.0</ele><time>2026-05-03T12:25:21.119Z</time></trkpt><trkpt lat="46.0827529" lon="13.5431289"><ele>161.33333333333334</ele><time>2026-05-03T12:25:22.119Z</time></trkpt><trkpt lat="46.0827152" lon="13.5430497"><ele>161.66666666666666</ele><time>2026-05-03T12:25:23.119Z</time></trkpt><trkpt lat="46.082671" lon="13.5429435"><ele>162.0</ele><time>2026-05-03T12:25:25.119Z</time></trkpt><trkpt lat="46.0826714" lon="13.542824"><ele>162.0</ele><time>2026-05-03T12:25:28.118Z</time></trkpt><trkpt lat="46.082696" lon="13.5427071"><ele>162.0</ele><time>2026-05-03T12:25:30.119Z</time></trkpt><trkpt lat="46.0827352" lon="13.5425298"><ele>162.0</ele><time>2026-05-03T12:25:32.119Z</time></trkpt><trkpt lat="46.082755" lon="13.5424219"><ele>162.0</ele><time>2026-05-03T12:25:33.119Z</time></trkpt><trkpt lat="46.0827724" lon="13.5423073"><ele>162.0</ele><time>2026-05-03T12:25:34.119Z</time></trkpt><trkpt lat="46.0827996" lon="13.542199"><ele>162.0</ele><time>2026-05-03T12:25:35.118Z</time></trkpt><trkpt lat="46.0828369" lon="13.5420902"><ele>162.0</ele><time>2026-05-03T12:25:36.118Z</time></trkpt><trkpt lat="46.0828732" lon="13.5419759"><ele>162.0</ele><time>2026-05-03T12:25:37.119Z</time></trkpt><trkpt lat="46.0829073" lon="13.5418786"><ele>162.0</ele><time>2026-05-03T12:25:38.119Z</time></trkpt><trkpt lat="46.0829423" lon="13.5417839"><ele>162.0</ele><time>2026-05-03T12:25:39.118Z</time></trkpt><trkpt lat="46.0829812" lon="13.5416776"><ele>162.0</ele><time>2026-05-03T12:25:40.119Z</time></trkpt><trkpt lat="46.0830188" lon="13.541577"><ele>165.16666666666666</ele><time>2026-05-03T12:25:41.119Z</time></trkpt><trkpt lat="46.083051" lon="13.5414783"><ele>168.33333333333334</ele><time>2026-05-03T12:25:42.119Z</time></trkpt><trkpt lat="46.0830816" lon="13.5413739"><ele>171.5</ele><time>2026-05-03T12:25:43.118Z</time></trkpt><trkpt lat="46.0831111" lon="13.5412719"><ele>174.66666666666669</ele><time>2026-05-03T12:25:44.119Z</time></trkpt><trkpt lat="46.0831495" lon="13.5411626"><ele>177.83333333333334</ele><time>2026-05-03T12:25:45.119Z</time></trkpt><trkpt lat="46.0831944" lon="13.5410528"><ele>181.0</ele><time>2026-05-03T12:25:46.119Z</time></trkpt><trkpt lat="46.0832406" lon="13.5409491"><ele>180.5</ele><time>2026-05-03T12:25:47.119Z</time></trkpt><trkpt lat="46.0832836" lon="13.5408497"><ele>180.0</ele><time>2026-05-03T12:25:48.119Z</time></trkpt><trkpt lat="46.0833245" lon="13.5407537"><ele>179.5</ele><time>2026-05-03T12:25:49.119Z</time></trkpt><trkpt lat="46.0833521" lon="13.5406467"><ele>179.0</ele><time>2026-05-03T12:25:50.119Z</time></trkpt><trkpt lat="46.0833723" lon="13.5405446"><ele>178.5</ele><time>2026-05-03T12:25:51.119Z</time></trkpt><trkpt lat="46.0834024" lon="13.5404548"><ele>178.0</ele><time>2026-05-03T12:25:52.119Z</time></trkpt><trkpt lat="46.083445" lon="13.5403707"><ele>179.66666666666669</ele><time>2026-05-03T12:25:53.118Z</time></trkpt><trkpt lat="46.0834855" lon="13.5402832"><ele>181.33333333333334</ele><time>2026-05-03T12:25:54.119Z</time></trkpt><trkpt lat="46.083544" lon="13.5402037"><ele>183.0</ele><time>2026-05-03T12:25:55.119Z</time></trkpt><trkpt lat="46.0836167" lon="13.5401305"><ele>184.66666666666666</ele><time>2026-05-03T12:25:56.119Z</time></trkpt><trkpt lat="46.083687" lon="13.5400582"><ele>186.33333333333331</ele><time>2026-05-03T12:25:57.119Z</time></trkpt><trkpt lat="46.0837559" lon="13.539999"><ele>188.0</ele><time>2026-05-03T12:25:58.119Z</time></trkpt><trkpt lat="46.0838248" lon="13.5399473"><ele>188.0</ele><time>2026-05-03T12:25:59.119Z</time></trkpt><trkpt lat="46.0838947" lon="13.5399126"><ele>188.0</ele><time>2026-05-03T12:26:00.119Z</time></trkpt><trkpt lat="46.0839695" lon="13.5398717"><ele>188.0</ele><time>2026-05-03T12:26:01.119Z</time></trkpt><trkpt lat="46.0840416" lon="13.5398498"><ele>188.0</ele><time>2026-05-03T12:26:02.118Z</time></trkpt><trkpt lat="46.0841595" lon="13.5397688"><ele>188.0</ele><time>2026-05-03T12:26:04.119Z</time></trkpt><trkpt lat="46.0842315" lon="13.5396369"><ele>187.16666666666666</ele><time>2026-05-03T12:26:06.118Z</time></trkpt><trkpt lat="46.0842643" lon="13.5395481"><ele>186.33333333333331</ele><time>2026-05-03T12:26:07.118Z</time></trkpt><trkpt lat="46.0843052" lon="13.5393806"><ele>185.5</ele><time>2026-05-03T12:26:09.119Z</time></trkpt><trkpt lat="46.0843306" lon="13.5392931"><ele>184.66666666666666</ele><time>2026-05-03T12:26:10.119Z</time></trkpt><trkpt lat="46.0843773" lon="13.5392251"><ele>183.83333333333334</ele><time>2026-05-03T12:26:11.118Z</time></trkpt><trkpt lat="46.084433" lon="13.5391548"><ele>183.0</ele><time>2026-05-03T12:26:12.118Z</time></trkpt><trkpt lat="46.0844855" lon="13.5391017"><ele>183.0</ele><time>2026-05-03T12:26:13.118Z</time></trkpt><trkpt lat="46.0845563" lon="13.5390563"><ele>183.0</ele><time>2026-05-03T12:26:14.118Z</time></trkpt><trkpt lat="46.084624" lon="13.5390443"><ele>183.0</ele><time>2026-05-03T12:26:15.119Z</time></trkpt><trkpt lat="46.0846892" lon="13.5390548"><ele>183.0</ele><time>2026-05-03T12:26:16.118Z</time></trkpt><trkpt lat="46.0847683" lon="13.5390496"><ele>183.0</ele><time>2026-05-03T12:26:17.119Z</time></trkpt><trkpt lat="46.0848507" lon="13.5390477"><ele>183.0</ele><time>2026-05-03T12:26:18.119Z</time></trkpt><trkpt lat="46.0849205" lon="13.5390617"><ele>183.0</ele><time>2026-05-03T12:26:19.119Z</time></trkpt><trkpt lat="46.0850404" lon="13.5390712"><ele>184.2</ele><time>2026-05-03T12:26:21.119Z</time></trkpt><trkpt lat="46.0851132" lon="13.5390551"><ele>185.4</ele><time>2026-05-03T12:26:22.118Z</time></trkpt><trkpt lat="46.0852374" lon="13.5389963"><ele>186.6</ele><time>2026-05-03T12:26:24.119Z</time></trkpt><trkpt lat="46.0852983" lon="13.5389451"><ele>187.79999999999998</ele><time>2026-05-03T12:26:25.118Z</time></trkpt><trkpt lat="46.0853524" lon="13.5388895"><ele>189.0</ele><time>2026-05-03T12:26:26.118Z</time></trkpt><trkpt lat="46.0854737" lon="13.5388567"><ele>189.0</ele><time>2026-05-03T12:26:28.119Z</time></trkpt><trkpt lat="46.0855413" lon="13.5388298"><ele>189.0</ele><time>2026-05-03T12:26:29.118Z</time></trkpt><trkpt lat="46.0856216" lon="13.5388326"><ele>189.0</ele><time>2026-05-03T12:26:30.119Z</time></trkpt><trkpt lat="46.0857083" lon="13.53882"><ele>189.0</ele><time>2026-05-03T12:26:31.119Z</time></trkpt><trkpt lat="46.085801" lon="13.5388046"><ele>189.0</ele><time>2026-05-03T12:26:32.119Z</time></trkpt><trkpt lat="46.0858819" lon="13.5387776"><ele>189.0</ele><time>2026-05-03T12:26:33.119Z</time></trkpt><trkpt lat="46.0859663" lon="13.5387625"><ele>189.16666666666666</ele><time>2026-05-03T12:26:34.119Z</time></trkpt><trkpt lat="46.0860444" lon="13.5387396"><ele>189.33333333333334</ele><time>2026-05-03T12:26:35.119Z</time></trkpt><trkpt lat="46.0861216" lon="13.538711"><ele>189.5</ele><time>2026-05-03T12:26:36.118Z</time></trkpt><trkpt lat="46.0861778" lon="13.5386697"><ele>189.66666666666669</ele><time>2026-05-03T12:26:37.119Z</time></trkpt><trkpt lat="46.0862479" lon="13.5386365"><ele>189.83333333333334</ele><time>2026-05-03T12:26:38.118Z</time></trkpt><trkpt lat="46.0863406" lon="13.5386069"><ele>190.0</ele><time>2026-05-03T12:26:40.118Z</time></trkpt><trkpt lat="46.0864204" lon="13.538666"><ele>192.0</ele><time>2026-05-03T12:26:42.118Z</time></trkpt><trkpt lat="46.0864698" lon="13.5387248"><ele>194.0</ele><time>2026-05-03T12:26:43.118Z</time></trkpt><trkpt lat="46.0865424" lon="13.5388696"><ele>196.0</ele><time>2026-05-03T12:26:45.119Z</time></trkpt><trkpt lat="46.0866399" lon="13.5390012"><ele>198.0</ele><time>2026-05-03T12:26:47.119Z</time></trkpt><trkpt lat="46.0867153" lon="13.5390793"><ele>200.0</ele><time>2026-05-03T12:26:48.119Z</time></trkpt><trkpt lat="46.0867907" lon="13.5391433"><ele>200.83333333333334</ele><time>2026-05-03T12:26:49.119Z</time></trkpt><trkpt lat="46.0868639" lon="13.5391743"><ele>201.66666666666669</ele><time>2026-05-03T12:26:50.118Z</time></trkpt><trkpt lat="46.0869315" lon="13.5391996"><ele>202.5</ele><time>2026-05-03T12:26:51.118Z</time></trkpt><trkpt lat="46.087021" lon="13.5392043"><ele>203.33333333333331</ele><time>2026-05-03T12:26:53.119Z</time></trkpt><trkpt lat="46.0871057" lon="13.5391754"><ele>204.16666666666666</ele><time>2026-05-03T12:26:55.119Z</time></trkpt><trkpt lat="46.0871811" lon="13.5391464"><ele>205.0</ele><time>2026-05-03T12:26:56.119Z</time></trkpt><trkpt lat="46.0872649" lon="13.5391509"><ele>204.99999999999997</ele><time>2026-05-03T12:26:57.119Z</time></trkpt><trkpt lat="46.0873386" lon="13.5391227"><ele>205.0</ele><time>2026-05-03T12:26:58.119Z</time></trkpt><trkpt lat="46.0874119" lon="13.5390641"><ele>205.0</ele><time>2026-05-03T12:26:59.119Z</time></trkpt><trkpt lat="46.0874703" lon="13.5390099"><ele>205.0</ele><time>2026-05-03T12:27:00.119Z</time></trkpt><trkpt lat="46.0875334" lon="13.5388523"><ele>204.99999999999997</ele><time>2026-05-03T12:27:02.119Z</time></trkpt><trkpt lat="46.0875626" lon="13.5387603"><ele>205.0</ele><time>2026-05-03T12:27:03.119Z</time></trkpt><trkpt lat="46.0876419" lon="13.5386303"><ele>206.2</ele><time>2026-05-03T12:27:05.118Z</time></trkpt><trkpt lat="46.0877628" lon="13.5385392"><ele>207.4</ele><time>2026-05-03T12:27:07.118Z</time></trkpt><trkpt lat="46.0878409" lon="13.5385249"><ele>208.60000000000002</ele><time>2026-05-03T12:27:08.119Z</time></trkpt><trkpt lat="46.0879238" lon="13.5385238"><ele>209.8</ele><time>2026-05-03T12:27:09.119Z</time></trkpt><trkpt lat="46.087989" lon="13.5385385"><ele>211.0</ele><time>2026-05-03T12:27:10.119Z</time></trkpt><trkpt lat="46.0881024" lon="13.5385695"><ele>210.99999999999997</ele><time>2026-05-03T12:27:12.119Z</time></trkpt><trkpt lat="46.0882133" lon="13.5386445"><ele>211.0</ele><time>2026-05-03T12:27:14.118Z</time></trkpt><trkpt lat="46.0882816" lon="13.5386718"><ele>211.0</ele><time>2026-05-03T12:27:15.119Z</time></trkpt><trkpt lat="46.0883484" lon="13.5386977"><ele>211.0</ele><time>2026-05-03T12:27:16.118Z</time></trkpt><trkpt lat="46.0884129" lon="13.5387068"><ele>210.99999999999997</ele><time>2026-05-03T12:27:17.119Z</time></trkpt><trkpt lat="46.0885145" lon="13.5386339"><ele>211.0</ele><time>2026-05-03T12:27:19.119Z</time></trkpt><trkpt lat="46.088602" lon="13.538515"><ele>211.85714285714286</ele><time>2026-05-03T12:27:21.118Z</time></trkpt><trkpt lat="46.0886507" lon="13.5384428"><ele>212.71428571428572</ele><time>2026-05-03T12:27:22.119Z</time></trkpt><trkpt lat="46.088701" lon="13.5383824"><ele>213.57142857142856</ele><time>2026-05-03T12:27:23.118Z</time></trkpt><trkpt lat="46.0887569" lon="13.538321"><ele>214.42857142857144</ele><time>2026-05-03T12:27:24.118Z</time></trkpt><trkpt lat="46.0888146" lon="13.5382545"><ele>215.28571428571428</ele><time>2026-05-03T12:27:25.119Z</time></trkpt><trkpt lat="46.0888701" lon="13.5381901"><ele>216.14285714285714</ele><time>2026-05-03T12:27:26.119Z</time></trkpt><trkpt lat="46.0889311" lon="13.53812"><ele>217.0</ele><time>2026-05-03T12:27:27.118Z</time></trkpt><trkpt lat="46.0889915" lon="13.5380504"><ele>216.99999999999997</ele><time>2026-05-03T12:27:28.118Z</time></trkpt><trkpt lat="46.0890494" lon="13.5379726"><ele>217.0</ele><time>2026-05-03T12:27:29.118Z</time></trkpt><trkpt lat="46.0891057" lon="13.5379101"><ele>217.0</ele><time>2026-05-03T12:27:30.119Z</time></trkpt><trkpt lat="46.0892112" lon="13.5378037"><ele>217.0</ele><time>2026-05-03T12:27:32.118Z</time></trkpt><trkpt lat="46.089264" lon="13.537741"><ele>216.99999999999997</ele><time>2026-05-03T12:27:33.119Z</time></trkpt><trkpt lat="46.0893151" lon="13.5376857"><ele>217.0</ele><time>2026-05-03T12:27:34.119Z</time></trkpt><trkpt lat="46.0893849" lon="13.5376295"><ele>219.49999999999997</ele><time>2026-05-03T12:27:36.119Z</time></trkpt><trkpt lat="46.0894325" lon="13.5377163"><ele>222.0</ele><time>2026-05-03T12:27:39.119Z</time></trkpt><trkpt lat="46.0893546" lon="13.5378673"><ele>224.5</ele><time>2026-05-03T12:27:41.118Z</time></trkpt><trkpt lat="46.0893128" lon="13.5379607"><ele>227.0</ele><time>2026-05-03T12:27:42.119Z</time></trkpt><trkpt lat="46.0892833" lon="13.5380557"><ele>229.49999999999997</ele><time>2026-05-03T12:27:43.119Z</time></trkpt><trkpt lat="46.0892578" lon="13.5381562"><ele>232.0</ele><time>2026-05-03T12:27:44.119Z</time></trkpt><trkpt lat="46.0892301" lon="13.538271"><ele>232.83333333333331</ele><time>2026-05-03T12:27:45.119Z</time></trkpt><trkpt lat="46.0891971" lon="13.5383819"><ele>233.66666666666666</ele><time>2026-05-03T12:27:46.118Z</time></trkpt><trkpt lat="46.0891699" lon="13.5384875"><ele>234.5</ele><time>2026-05-03T12:27:47.118Z</time></trkpt><trkpt lat="46.0891526" lon="13.5385798"><ele>235.33333333333331</ele><time>2026-05-03T12:27:48.119Z</time></trkpt><trkpt lat="46.0891328" lon="13.5386805"><ele>236.16666666666666</ele><time>2026-05-03T12:27:49.119Z</time></trkpt><trkpt lat="46.08912" lon="13.5387814"><ele>237.0</ele><time>2026-05-03T12:27:50.119Z</time></trkpt><trkpt lat="46.08912" lon="13.5389261"><ele>237.0</ele><time>2026-05-03T12:27:52.118Z</time></trkpt><trkpt lat="46.0891793" lon="13.5389958"><ele>237.0</ele><time>2026-05-03T12:27:54.119Z</time></trkpt><trkpt lat="46.0892518" lon="13.5390227"><ele>237.0</ele><time>2026-05-03T12:27:56.118Z</time></trkpt><trkpt lat="46.0893344" lon="13.5390256"><ele>237.0</ele><time>2026-05-03T12:27:58.119Z</time></trkpt><trkpt lat="46.0894001" lon="13.5390356"><ele>237.0</ele><time>2026-05-03T12:27:59.119Z</time></trkpt><trkpt lat="46.0895102" lon="13.5389883"><ele>237.0</ele><time>2026-05-03T12:28:01.119Z</time></trkpt><trkpt lat="46.089625" lon="13.5389037"><ele>237.0</ele><time>2026-05-03T12:28:03.118Z</time></trkpt><trkpt lat="46.089689" lon="13.5388566"><ele>237.0</ele><time>2026-05-03T12:28:04.118Z</time></trkpt><trkpt lat="46.0897531" lon="13.5387872"><ele>237.0</ele><time>2026-05-03T12:28:05.119Z</time></trkpt><trkpt lat="46.0898129" lon="13.5387077"><ele>237.0</ele><time>2026-05-03T12:28:06.119Z</time></trkpt><trkpt lat="46.0898652" lon="13.5386261"><ele>237.0</ele><time>2026-05-03T12:28:07.119Z</time></trkpt><trkpt lat="46.0899075" lon="13.5385404"><ele>237.0</ele><time>2026-05-03T12:28:08.119Z</time></trkpt><trkpt lat="46.0899486" lon="13.5384457"><ele>239.71428571428567</ele><time>2026-05-03T12:28:09.118Z</time></trkpt><trkpt lat="46.0899935" lon="13.5383539"><ele>242.42857142857142</ele><time>2026-05-03T12:28:10.118Z</time></trkpt><trkpt lat="46.0900406" lon="13.5382635"><ele>245.1428571428571</ele><time>2026-05-03T12:28:11.119Z</time></trkpt><trkpt lat="46.0900873" lon="13.5381804"><ele>247.85714285714283</ele><time>2026-05-03T12:28:12.118Z</time></trkpt><trkpt lat="46.0901359" lon="13.5381055"><ele>250.57142857142856</ele><time>2026-05-03T12:28:13.119Z</time></trkpt><trkpt lat="46.0901804" lon="13.5380276"><ele>253.28571428571428</ele><time>2026-05-03T12:28:14.118Z</time></trkpt><trkpt lat="46.0902251" lon="13.5379606"><ele>256.0</ele><time>2026-05-03T12:28:15.118Z</time></trkpt><trkpt lat="46.0903298" lon="13.5378981"><ele>256.3333333333333</ele><time>2026-05-03T12:28:17.119Z</time></trkpt><trkpt lat="46.0903922" lon="13.5378789"><ele>256.66666666666663</ele><time>2026-05-03T12:28:18.118Z</time></trkpt><trkpt lat="46.0904696" lon="13.53787"><ele>257.0</ele><time>2026-05-03T12:28:19.119Z</time></trkpt><trkpt lat="46.0905574" lon="13.5378572"><ele>257.3333333333333</ele><time>2026-05-03T12:28:20.119Z</time></trkpt><trkpt lat="46.0906432" lon="13.5378508"><ele>257.6666666666667</ele><time>2026-05-03T12:28:21.119Z</time></trkpt><trkpt lat="46.090708" lon="13.537846"><ele>258.0</ele><time>2026-05-03T12:28:22.119Z</time></trkpt><trkpt lat="46.0908035" lon="13.5378672"><ele>257.6</ele><time>2026-05-03T12:28:24.118Z</time></trkpt><trkpt lat="46.0908106" lon="13.5379661"><ele>257.20000000000005</ele><time>2026-05-03T12:28:26.119Z</time></trkpt><trkpt lat="46.0907676" lon="13.5380849"><ele>256.8</ele><time>2026-05-03T12:28:28.119Z</time></trkpt><trkpt lat="46.0907198" lon="13.5382646"><ele>256.40000000000003</ele><time>2026-05-03T12:28:30.119Z</time></trkpt><trkpt lat="46.0906842" lon="13.5383704"><ele>256.0</ele><time>2026-05-03T12:28:31.119Z</time></trkpt><trkpt lat="46.0906555" lon="13.5385027"><ele>255.99999999999997</ele><time>2026-05-03T12:28:32.118Z</time></trkpt><trkpt lat="46.0906274" lon="13.5386396"><ele>256.0</ele><time>2026-05-03T12:28:33.118Z</time></trkpt><trkpt lat="46.0906004" lon="13.5387607"><ele>256.0</ele><time>2026-05-03T12:28:34.119Z</time></trkpt><trkpt lat="46.090571" lon="13.5388758"><ele>256.0</ele><time>2026-05-03T12:28:35.119Z</time></trkpt><trkpt lat="46.0905414" lon="13.5389922"><ele>255.99999999999997</ele><time>2026-05-03T12:28:36.118Z</time></trkpt><trkpt lat="46.0905099" lon="13.5390972"><ele>256.0</ele><time>2026-05-03T12:28:37.118Z</time></trkpt><trkpt lat="46.0904787" lon="13.5391898"><ele>256.2</ele><time>2026-05-03T12:28:38.119Z</time></trkpt><trkpt lat="46.0904413" lon="13.5393336"><ele>256.40000000000003</ele><time>2026-05-03T12:28:40.118Z</time></trkpt><trkpt lat="46.0904925" lon="13.5394231"><ele>256.6</ele><time>2026-05-03T12:28:43.117Z</time></trkpt><trkpt lat="46.0905587" lon="13.5392889"><ele>256.8</ele><time>2026-05-03T12:28:45.117Z</time></trkpt><trkpt lat="46.0905984" lon="13.5391761"><ele>257.0</ele><time>2026-05-03T12:28:46.117Z</time></trkpt><trkpt lat="46.0906376" lon="13.5390661"><ele>257.0</ele><time>2026-05-03T12:28:47.117Z</time></trkpt><trkpt lat="46.0906849" lon="13.5389507"><ele>257.0</ele><time>2026-05-03T12:28:48.118Z</time></trkpt><trkpt lat="46.0907356" lon="13.5388241"><ele>257.0</ele><time>2026-05-03T12:28:49.118Z</time></trkpt><trkpt lat="46.0907791" lon="13.5387114"><ele>257.0</ele><time>2026-05-03T12:28:50.118Z</time></trkpt><trkpt lat="46.0908178" lon="13.5386096"><ele>257.0</ele><time>2026-05-03T12:28:51.117Z</time></trkpt><trkpt lat="46.0908629" lon="13.5385"><ele>261.1666666666667</ele><time>2026-05-03T12:28:52.117Z</time></trkpt><trkpt lat="46.0909012" lon="13.5383827"><ele>265.33333333333337</ele><time>2026-05-03T12:28:53.117Z</time></trkpt><trkpt lat="46.0909312" lon="13.5382811"><ele>269.5</ele><time>2026-05-03T12:28:54.117Z</time></trkpt><trkpt lat="46.0909641" lon="13.5382021"><ele>273.6666666666667</ele><time>2026-05-03T12:28:55.118Z</time></trkpt><trkpt lat="46.0910068" lon="13.5381233"><ele>277.8333333333333</ele><time>2026-05-03T12:28:56.118Z</time></trkpt><trkpt lat="46.0910553" lon="13.5380401"><ele>282.0</ele><time>2026-05-03T12:28:57.118Z</time></trkpt><trkpt lat="46.0911077" lon="13.5379575"><ele>280.8333333333333</ele><time>2026-05-03T12:28:58.118Z</time></trkpt><trkpt lat="46.091164" lon="13.5378769"><ele>279.6666666666667</ele><time>2026-05-03T12:28:59.118Z</time></trkpt><trkpt lat="46.0912141" lon="13.5377849"><ele>278.5</ele><time>2026-05-03T12:29:00.117Z</time></trkpt><trkpt lat="46.0912586" lon="13.5376999"><ele>277.33333333333337</ele><time>2026-05-03T12:29:01.118Z</time></trkpt><trkpt lat="46.091298" lon="13.5376027"><ele>276.1666666666667</ele><time>2026-05-03T12:29:02.118Z</time></trkpt><trkpt lat="46.0913446" lon="13.5374937"><ele>275.0</ele><time>2026-05-03T12:29:03.117Z</time></trkpt><trkpt lat="46.091389" lon="13.5373888"><ele>275.0</ele><time>2026-05-03T12:29:04.118Z</time></trkpt><trkpt lat="46.091436" lon="13.5372754"><ele>275.0</ele><time>2026-05-03T12:29:05.118Z</time></trkpt><trkpt lat="46.0914797" lon="13.5371672"><ele>275.0</ele><time>2026-05-03T12:29:06.117Z</time></trkpt><trkpt lat="46.0915172" lon="13.5370632"><ele>275.0</ele><time>2026-05-03T12:29:07.118Z</time></trkpt><trkpt lat="46.0915614" lon="13.536965"><ele>275.0</ele><time>2026-05-03T12:29:08.118Z</time></trkpt><trkpt lat="46.0916081" lon="13.5368812"><ele>275.0</ele><time>2026-05-03T12:29:09.118Z</time></trkpt><trkpt lat="46.091652" lon="13.5368071"><ele>280.0</ele><time>2026-05-03T12:29:10.118Z</time></trkpt><trkpt lat="46.0917501" lon="13.5367419"><ele>285.0</ele><time>2026-05-03T12:29:12.117Z</time></trkpt><trkpt lat="46.0918395" lon="13.5367631"><ele>290.0</ele><time>2026-05-03T12:29:14.118Z</time></trkpt><trkpt lat="46.0919065" lon="13.5367823"><ele>295.0</ele><time>2026-05-03T12:29:16.118Z</time></trkpt><trkpt lat="46.0919935" lon="13.5366541"><ele>300.0</ele><time>2026-05-03T12:29:19.117Z</time></trkpt><trkpt lat="46.0920499" lon="13.5365959"><ele>300.0</ele><time>2026-05-03T12:29:20.118Z</time></trkpt><trkpt lat="46.0921068" lon="13.5365234"><ele>300.0</ele><time>2026-05-03T12:29:21.117Z</time></trkpt><trkpt lat="46.0921566" lon="13.536436"><ele>300.0</ele><time>2026-05-03T12:29:22.118Z</time></trkpt><trkpt lat="46.0921936" lon="13.5363488"><ele>300.0</ele><time>2026-05-03T12:29:23.118Z</time></trkpt><trkpt lat="46.0922236" lon="13.5362529"><ele>300.0</ele><time>2026-05-03T12:29:24.118Z</time></trkpt><trkpt lat="46.0922485" lon="13.536147"><ele>300.0</ele><time>2026-05-03T12:29:25.118Z</time></trkpt><trkpt lat="46.0922675" lon="13.5360351"><ele>299.57142857142856</ele><time>2026-05-03T12:29:26.118Z</time></trkpt><trkpt lat="46.0922733" lon="13.5359181"><ele>299.1428571428571</ele><time>2026-05-03T12:29:27.118Z</time></trkpt><trkpt lat="46.092278" lon="13.5358091"><ele>298.7142857142857</ele><time>2026-05-03T12:29:28.118Z</time></trkpt><trkpt lat="46.0922696" lon="13.5357103"><ele>298.2857142857143</ele><time>2026-05-03T12:29:29.118Z</time></trkpt><trkpt lat="46.0922534" lon="13.5356144"><ele>297.8571428571429</ele><time>2026-05-03T12:29:30.118Z</time></trkpt><trkpt lat="46.09224" lon="13.5355152"><ele>297.42857142857144</ele><time>2026-05-03T12:29:31.117Z</time></trkpt><trkpt lat="46.0922185" lon="13.535426"><ele>297.0</ele><time>2026-05-03T12:29:32.118Z</time></trkpt><trkpt lat="46.0921979" lon="13.5352786"><ele>296.0</ele><time>2026-05-03T12:29:34.117Z</time></trkpt><trkpt lat="46.0922236" lon="13.5351644"><ele>295.0</ele><time>2026-05-03T12:29:36.117Z</time></trkpt><trkpt lat="46.0923187" lon="13.5350915"><ele>294.0</ele><time>2026-05-03T12:29:38.117Z</time></trkpt><trkpt lat="46.0923849" lon="13.5350709"><ele>293.0</ele><time>2026-05-03T12:29:39.118Z</time></trkpt><trkpt lat="46.0924608" lon="13.5350397"><ele>292.0</ele><time>2026-05-03T12:29:40.117Z</time></trkpt><trkpt lat="46.0925356" lon="13.5349951"><ele>291.0</ele><time>2026-05-03T12:29:41.117Z</time></trkpt><trkpt lat="46.0926099" lon="13.5349413"><ele>296.6666666666667</ele><time>2026-05-03T12:29:42.117Z</time></trkpt><trkpt lat="46.0926857" lon="13.5348913"><ele>302.3333333333333</ele><time>2026-05-03T12:29:43.118Z</time></trkpt><trkpt lat="46.0927469" lon="13.5348357"><ele>308.0</ele><time>2026-05-03T12:29:44.118Z</time></trkpt><trkpt lat="46.0927972" lon="13.5347786"><ele>313.66666666666663</ele><time>2026-05-03T12:29:45.118Z</time></trkpt><trkpt lat="46.0928964" lon="13.534675"><ele>319.3333333333333</ele><time>2026-05-03T12:29:47.118Z</time></trkpt><trkpt lat="46.0929568" lon="13.5346351"><ele>325.0</ele><time>2026-05-03T12:29:48.118Z</time></trkpt><trkpt lat="46.0930216" lon="13.5345999"><ele>325.0</ele><time>2026-05-03T12:29:49.118Z</time></trkpt><trkpt lat="46.0930912" lon="13.5345659"><ele>325.0</ele><time>2026-05-03T12:29:50.118Z</time></trkpt><trkpt lat="46.0931586" lon="13.5345272"><ele>325.0</ele><time>2026-05-03T12:29:51.118Z</time></trkpt><trkpt lat="46.0932341" lon="13.5344919"><ele>325.0</ele><time>2026-05-03T12:29:52.117Z</time></trkpt><trkpt lat="46.0933082" lon="13.5344638"><ele>325.0</ele><time>2026-05-03T12:29:53.118Z</time></trkpt><trkpt lat="46.0933818" lon="13.5344266"><ele>325.0</ele><time>2026-05-03T12:29:54.117Z</time></trkpt><trkpt lat="46.093459" lon="13.5344009"><ele>323.8333333333333</ele><time>2026-05-03T12:29:55.118Z</time></trkpt><trkpt lat="46.0935336" lon="13.5343765"><ele>322.66666666666663</ele><time>2026-05-03T12:29:56.118Z</time></trkpt><trkpt lat="46.0936397" lon="13.5343217"><ele>321.5</ele><time>2026-05-03T12:29:58.118Z</time></trkpt><trkpt lat="46.0937012" lon="13.5342873"><ele>320.3333333333333</ele><time>2026-05-03T12:29:59.117Z</time></trkpt><trkpt lat="46.0937658" lon="13.5342501"><ele>319.1666666666667</ele><time>2026-05-03T12:30:00.118Z</time></trkpt><trkpt lat="46.0938282" lon="13.5342196"><ele>318.0</ele><time>2026-05-03T12:30:01.118Z</time></trkpt><trkpt lat="46.093898" lon="13.5341933"><ele>318.0</ele><time>2026-05-03T12:30:02.118Z</time></trkpt><trkpt lat="46.0939717" lon="13.5341762"><ele>318.0</ele><time>2026-05-03T12:30:03.118Z</time></trkpt><trkpt lat="46.0940418" lon="13.5341551"><ele>318.0</ele><time>2026-05-03T12:30:04.118Z</time></trkpt><trkpt lat="46.0941396" lon="13.5340808"><ele>318.0</ele><time>2026-05-03T12:30:06.118Z</time></trkpt><trkpt lat="46.0942319" lon="13.5339831"><ele>318.0</ele><time>2026-05-03T12:30:08.117Z</time></trkpt><trkpt lat="46.0942765" lon="13.5338882"><ele>318.0</ele><time>2026-05-03T12:30:10.117Z</time></trkpt><trkpt lat="46.09425" lon="13.5337899"><ele>318.0</ele><time>2026-05-03T12:30:13.118Z</time></trkpt><trkpt lat="46.0941661" lon="13.5338053"><ele>318.0</ele><time>2026-05-03T12:30:16.118Z</time></trkpt><trkpt lat="46.0940619" lon="13.5338374"><ele>318.0</ele><time>2026-05-03T12:30:18.118Z</time></trkpt><trkpt lat="46.0939153" lon="13.5337839"><ele>318.0</ele><time>2026-05-03T12:30:20.117Z</time></trkpt><trkpt lat="46.0938327" lon="13.5337297"><ele>319.6</ele><time>2026-05-03T12:30:21.118Z</time></trkpt><trkpt lat="46.0937585" lon="13.5336776"><ele>321.20000000000005</ele><time>2026-05-03T12:30:22.118Z</time></trkpt><trkpt lat="46.0936891" lon="13.5336342"><ele>322.8</ele><time>2026-05-03T12:30:23.117Z</time></trkpt><trkpt lat="46.09356" lon="13.5335768"><ele>324.40000000000003</ele><time>2026-05-03T12:30:25.118Z</time></trkpt><trkpt lat="46.0934771" lon="13.533543"><ele>326.0</ele><time>2026-05-03T12:30:26.118Z</time></trkpt><trkpt lat="46.0933972" lon="13.5334997"><ele>326.0</ele><time>2026-05-03T12:30:27.118Z</time></trkpt><trkpt lat="46.093313" lon="13.5334537"><ele>326.0</ele><time>2026-05-03T12:30:28.118Z</time></trkpt><trkpt lat="46.0932249" lon="13.5333971"><ele>326.0</ele><time>2026-05-03T12:30:29.118Z</time></trkpt><trkpt lat="46.0931355" lon="13.5333481"><ele>326.0</ele><time>2026-05-03T12:30:30.117Z</time></trkpt><trkpt lat="46.0930585" lon="13.5333106"><ele>326.0</ele><time>2026-05-03T12:30:31.118Z</time></trkpt><trkpt lat="46.0929888" lon="13.5332817"><ele>326.0</ele><time>2026-05-03T12:30:32.118Z</time></trkpt><trkpt lat="46.0929241" lon="13.5332477"><ele>322.2</ele><time>2026-05-03T12:30:33.118Z</time></trkpt><trkpt lat="46.092866" lon="13.53321"><ele>318.40000000000003</ele><time>2026-05-03T12:30:34.117Z</time></trkpt><trkpt lat="46.0927897" lon="13.533078"><ele>314.6</ele><time>2026-05-03T12:30:36.117Z</time></trkpt><trkpt lat="46.0927773" lon="13.5328933"><ele>310.8</ele><time>2026-05-03T12:30:38.118Z</time></trkpt><trkpt lat="46.0927798" lon="13.5327731"><ele>307.0</ele><time>2026-05-03T12:30:39.118Z</time></trkpt><trkpt lat="46.0927823" lon="13.5326428"><ele>307.0</ele><time>2026-05-03T12:30:40.118Z</time></trkpt><trkpt lat="46.0927888" lon="13.5325199"><ele>307.0</ele><time>2026-05-03T12:30:41.118Z</time></trkpt><trkpt lat="46.0927912" lon="13.5324044"><ele>307.0</ele><time>2026-05-03T12:30:42.117Z</time></trkpt><trkpt lat="46.0927994" lon="13.5322849"><ele>307.0</ele><time>2026-05-03T12:30:43.117Z</time></trkpt><trkpt lat="46.0928154" lon="13.5321559"><ele>307.0</ele><time>2026-05-03T12:30:44.118Z</time></trkpt><trkpt lat="46.0928303" lon="13.532025"><ele>307.0</ele><time>2026-05-03T12:30:45.117Z</time></trkpt><trkpt lat="46.0928464" lon="13.5318982"><ele>307.8333333333333</ele><time>2026-05-03T12:30:46.118Z</time></trkpt><trkpt lat="46.0928496" lon="13.5317724"><ele>308.66666666666663</ele><time>2026-05-03T12:30:47.118Z</time></trkpt><trkpt lat="46.0928493" lon="13.5316469"><ele>309.5</ele><time>2026-05-03T12:30:48.118Z</time></trkpt><trkpt lat="46.0928336" lon="13.5315099"><ele>310.3333333333333</ele><time>2026-05-03T12:30:49.118Z</time></trkpt><trkpt lat="46.0928208" lon="13.5313965"><ele>311.1666666666667</ele><time>2026-05-03T12:30:50.118Z</time></trkpt><trkpt lat="46.0928167" lon="13.5312997"><ele>312.0</ele><time>2026-05-03T12:30:51.118Z</time></trkpt><trkpt lat="46.0928272" lon="13.5311888"><ele>313.8</ele><time>2026-05-03T12:30:52.118Z</time></trkpt><trkpt lat="46.0928268" lon="13.5310674"><ele>315.6</ele><time>2026-05-03T12:30:53.118Z</time></trkpt><trkpt lat="46.0928198" lon="13.5309502"><ele>317.40000000000003</ele><time>2026-05-03T12:30:54.118Z</time></trkpt><trkpt lat="46.0927764" lon="13.5307822"><ele>319.2</ele><time>2026-05-03T12:30:56.118Z</time></trkpt><trkpt lat="46.0927415" lon="13.5306113"><ele>321.0</ele><time>2026-05-03T12:30:58.117Z</time></trkpt><trkpt lat="46.092737" lon="13.5304909"><ele>322.1666666666667</ele><time>2026-05-03T12:30:59.118Z</time></trkpt><trkpt lat="46.0927413" lon="13.5303552"><ele>323.3333333333333</ele><time>2026-05-03T12:31:00.117Z</time></trkpt><trkpt lat="46.0927484" lon="13.5302355"><ele>324.5</ele><time>2026-05-03T12:31:01.117Z</time></trkpt><trkpt lat="46.0927568" lon="13.5301171"><ele>325.66666666666663</ele><time>2026-05-03T12:31:02.118Z</time></trkpt><trkpt lat="46.0927666" lon="13.529996"><ele>326.8333333333333</ele><time>2026-05-03T12:31:03.118Z</time></trkpt><trkpt lat="46.0927775" lon="13.5298831"><ele>328.0</ele><time>2026-05-03T12:31:04.118Z</time></trkpt><trkpt lat="46.0927993" lon="13.5297143"><ele>328.0</ele><time>2026-05-03T12:31:06.117Z</time></trkpt><trkpt lat="46.0928203" lon="13.5296286"><ele>328.0</ele><time>2026-05-03T12:31:07.118Z</time></trkpt><trkpt lat="46.0928595" lon="13.5295374"><ele>328.0</ele><time>2026-05-03T12:31:08.118Z</time></trkpt><trkpt lat="46.092895" lon="13.5294442"><ele>328.0</ele><time>2026-05-03T12:31:09.118Z</time></trkpt><trkpt lat="46.0929366" lon="13.5293587"><ele>328.0</ele><time>2026-05-03T12:31:10.118Z</time></trkpt><trkpt lat="46.0929661" lon="13.5292258"><ele>328.0</ele><time>2026-05-03T12:31:12.117Z</time></trkpt><trkpt lat="46.0929261" lon="13.5291294"><ele>329.79999999999995</ele><time>2026-05-03T12:31:14.118Z</time></trkpt><trkpt lat="46.0928542" lon="13.5291062"><ele>331.6</ele><time>2026-05-03T12:31:16.118Z</time></trkpt><trkpt lat="46.0927606" lon="13.5290784"><ele>333.4</ele><time>2026-05-03T12:31:18.118Z</time></trkpt><trkpt lat="46.0927208" lon="13.5289847"><ele>335.20000000000005</ele><time>2026-05-03T12:31:20.117Z</time></trkpt><trkpt lat="46.0927012" lon="13.5287935"><ele>337.0</ele><time>2026-05-03T12:31:22.117Z</time></trkpt><trkpt lat="46.0926863" lon="13.5286904"><ele>337.0</ele><time>2026-05-03T12:31:23.117Z</time></trkpt><trkpt lat="46.0926683" lon="13.5285946"><ele>337.0</ele><time>2026-05-03T12:31:24.118Z</time></trkpt><trkpt lat="46.0926169" lon="13.5285024"><ele>337.0</ele><time>2026-05-03T12:31:26.118Z</time></trkpt><trkpt lat="46.0925607" lon="13.5284388"><ele>337.0</ele><time>2026-05-03T12:31:28.118Z</time></trkpt><trkpt lat="46.0924832" lon="13.5284382"><ele>337.0</ele><time>2026-05-03T12:31:30.118Z</time></trkpt><trkpt lat="46.0924448" lon="13.5285385"><ele>337.0</ele><time>2026-05-03T12:31:32.117Z</time></trkpt><trkpt lat="46.0924496" lon="13.5287359"><ele>337.0</ele><time>2026-05-03T12:31:34.118Z</time></trkpt><trkpt lat="46.0924529" lon="13.5288474"><ele>337.0</ele><time>2026-05-03T12:31:35.118Z</time></trkpt><trkpt lat="46.0924438" lon="13.5289476"><ele>337.0</ele><time>2026-05-03T12:31:36.118Z</time></trkpt><trkpt lat="46.0924013" lon="13.5290782"><ele>337.0</ele><time>2026-05-03T12:31:38.118Z</time></trkpt><trkpt lat="46.0923561" lon="13.5291591"><ele>337.0</ele><time>2026-05-03T12:31:39.118Z</time></trkpt><trkpt lat="46.092309" lon="13.529252"><ele>337.0</ele><time>2026-05-03T12:31:40.117Z</time></trkpt><trkpt lat="46.0922613" lon="13.5293599"><ele>341.66666666666663</ele><time>2026-05-03T12:31:41.118Z</time></trkpt><trkpt lat="46.0922179" lon="13.5294596"><ele>346.3333333333333</ele><time>2026-05-03T12:31:42.118Z</time></trkpt><trkpt lat="46.0921812" lon="13.5295553"><ele>351.0</ele><time>2026-05-03T12:31:43.118Z</time></trkpt><trkpt lat="46.092141" lon="13.5296536"><ele>355.6666666666667</ele><time>2026-05-03T12:31:44.118Z</time></trkpt><trkpt lat="46.0920967" lon="13.5297554"><ele>360.33333333333337</ele><time>2026-05-03T12:31:45.118Z</time></trkpt><trkpt lat="46.0920592" lon="13.5298617"><ele>365.0</ele><time>2026-05-03T12:31:46.118Z</time></trkpt><trkpt lat="46.0920207" lon="13.5299658"><ele>365.0</ele><time>2026-05-03T12:31:47.118Z</time></trkpt><trkpt lat="46.0919844" lon="13.5300702"><ele>365.0</ele><time>2026-05-03T12:31:48.118Z</time></trkpt><trkpt lat="46.091945" lon="13.5301833"><ele>365.0</ele><time>2026-05-03T12:31:49.117Z</time></trkpt><trkpt lat="46.0919106" lon="13.5302829"><ele>365.0</ele><time>2026-05-03T12:31:50.118Z</time></trkpt><trkpt lat="46.0918808" lon="13.5303915"><ele>365.0</ele><time>2026-05-03T12:31:51.118Z</time></trkpt><trkpt lat="46.0918555" lon="13.5305075"><ele>365.0</ele><time>2026-05-03T12:31:52.118Z</time></trkpt><trkpt lat="46.0918355" lon="13.5306203"><ele>362.5</ele><time>2026-05-03T12:31:53.117Z</time></trkpt><trkpt lat="46.091777" lon="13.5307829"><ele>360.0</ele><time>2026-05-03T12:31:55.118Z</time></trkpt><trkpt lat="46.0917353" lon="13.5308544"><ele>357.5</ele><time>2026-05-03T12:31:56.117Z</time></trkpt><trkpt lat="46.0916894" lon="13.5309258"><ele>355.0</ele><time>2026-05-03T12:31:57.117Z</time></trkpt><trkpt lat="46.0916551" lon="13.5310023"><ele>352.5</ele><time>2026-05-03T12:31:58.117Z</time></trkpt><trkpt lat="46.0916403" lon="13.5310962"><ele>350.0</ele><time>2026-05-03T12:31:59.118Z</time></trkpt><trkpt lat="46.0916252" lon="13.5311995"><ele>350.7142857142857</ele><time>2026-05-03T12:32:00.118Z</time></trkpt><trkpt lat="46.0916073" lon="13.5312892"><ele>351.42857142857144</ele><time>2026-05-03T12:32:01.118Z</time></trkpt><trkpt lat="46.0915757" lon="13.5313969"><ele>352.1428571428571</ele><time>2026-05-03T12:32:02.117Z</time></trkpt><trkpt lat="46.0915385" lon="13.5314944"><ele>352.8571428571429</ele><time>2026-05-03T12:32:03.118Z</time></trkpt><trkpt lat="46.0915015" lon="13.5315849"><ele>353.57142857142856</ele><time>2026-05-03T12:32:04.118Z</time></trkpt><trkpt lat="46.0914598" lon="13.531654"><ele>354.2857142857143</ele><time>2026-05-03T12:32:05.118Z</time></trkpt><trkpt lat="46.0914065" lon="13.5317112"><ele>355.0</ele><time>2026-05-03T12:32:06.118Z</time></trkpt><trkpt lat="46.0913362" lon="13.5317653"><ele>355.0</ele><time>2026-05-03T12:32:07.117Z</time></trkpt><trkpt lat="46.0912666" lon="13.5318084"><ele>355.0</ele><time>2026-05-03T12:32:08.117Z</time></trkpt><trkpt lat="46.0911948" lon="13.5318527"><ele>355.0</ele><time>2026-05-03T12:32:09.118Z</time></trkpt><trkpt lat="46.0911189" lon="13.5318768"><ele>355.0</ele><time>2026-05-03T12:32:10.117Z</time></trkpt><trkpt lat="46.0910538" lon="13.5318933"><ele>355.0</ele><time>2026-05-03T12:32:11.117Z</time></trkpt><trkpt lat="46.0909765" lon="13.5318818"><ele>355.0</ele><time>2026-05-03T12:32:12.118Z</time></trkpt><trkpt lat="46.0908978" lon="13.5318651"><ele>355.0</ele><time>2026-05-03T12:32:13.118Z</time></trkpt><trkpt lat="46.0908182" lon="13.5318465"><ele>355.0</ele><time>2026-05-03T12:32:14.118Z</time></trkpt><trkpt lat="46.0907296" lon="13.5318218"><ele>355.0</ele><time>2026-05-03T12:32:15.118Z</time></trkpt><trkpt lat="46.0906442" lon="13.531812"><ele>355.0</ele><time>2026-05-03T12:32:16.118Z</time></trkpt><trkpt lat="46.0905757" lon="13.5317876"><ele>355.0</ele><time>2026-05-03T12:32:17.118Z</time></trkpt><trkpt lat="46.0905026" lon="13.5318028"><ele>355.0</ele><time>2026-05-03T12:32:19.118Z</time></trkpt><trkpt lat="46.0904276" lon="13.5318872"><ele>354.3333333333333</ele><time>2026-05-03T12:32:21.118Z</time></trkpt><trkpt lat="46.0903842" lon="13.531985"><ele>353.66666666666663</ele><time>2026-05-03T12:32:22.118Z</time></trkpt><trkpt lat="46.0903316" lon="13.5320914"><ele>353.0</ele><time>2026-05-03T12:32:23.117Z</time></trkpt><trkpt lat="46.0902798" lon="13.5321938"><ele>352.3333333333333</ele><time>2026-05-03T12:32:24.118Z</time></trkpt><trkpt lat="46.0902255" lon="13.5322953"><ele>351.6666666666667</ele><time>2026-05-03T12:32:25.118Z</time></trkpt><trkpt lat="46.0901653" lon="13.5323831"><ele>351.0</ele><time>2026-05-03T12:32:26.117Z</time></trkpt><trkpt lat="46.0901072" lon="13.5324621"><ele>351.0</ele><time>2026-05-03T12:32:27.118Z</time></trkpt><trkpt lat="46.0900449" lon="13.5325296"><ele>351.0</ele><time>2026-05-03T12:32:28.118Z</time></trkpt><trkpt lat="46.0899782" lon="13.5326115"><ele>351.0</ele><time>2026-05-03T12:32:29.118Z</time></trkpt><trkpt lat="46.0899125" lon="13.532701"><ele>351.0</ele><time>2026-05-03T12:32:30.118Z</time></trkpt><trkpt lat="46.0898443" lon="13.5327789"><ele>351.0</ele><time>2026-05-03T12:32:31.117Z</time></trkpt><trkpt lat="46.0897826" lon="13.5328612"><ele>351.0</ele><time>2026-05-03T12:32:32.118Z</time></trkpt><trkpt lat="46.0897256" lon="13.5329455"><ele>352.8333333333333</ele><time>2026-05-03T12:32:33.118Z</time></trkpt><trkpt lat="46.0896788" lon="13.5330199"><ele>354.6666666666667</ele><time>2026-05-03T12:32:34.117Z</time></trkpt><trkpt lat="46.0896442" lon="13.5331068"><ele>356.5</ele><time>2026-05-03T12:32:35.117Z</time></trkpt><trkpt lat="46.0895845" lon="13.5332557"><ele>358.33333333333337</ele><time>2026-05-03T12:32:37.117Z</time></trkpt><trkpt lat="46.0895536" lon="13.5333414"><ele>360.1666666666667</ele><time>2026-05-03T12:32:38.118Z</time></trkpt><trkpt lat="46.0895242" lon="13.5334273"><ele>362.0</ele><time>2026-05-03T12:32:39.118Z</time></trkpt><trkpt lat="46.0894471" lon="13.5335676"><ele>362.0</ele><time>2026-05-03T12:32:41.118Z</time></trkpt><trkpt lat="46.0893847" lon="13.5336359"><ele>362.0</ele><time>2026-05-03T12:32:42.118Z</time></trkpt><trkpt lat="46.0893181" lon="13.5336969"><ele>362.0</ele><time>2026-05-03T12:32:43.117Z</time></trkpt><trkpt lat="46.0892475" lon="13.533758"><ele>362.0</ele><time>2026-05-03T12:32:44.116Z</time></trkpt><trkpt lat="46.0891839" lon="13.5338301"><ele>362.0</ele><time>2026-05-03T12:32:45.117Z</time></trkpt><trkpt lat="46.0891079" lon="13.5339283"><ele>362.0</ele><time>2026-05-03T12:32:46.117Z</time></trkpt><trkpt lat="46.0890259" lon="13.5340283"><ele>361.83333333333337</ele><time>2026-05-03T12:32:47.117Z</time></trkpt><trkpt lat="46.0889614" lon="13.5341122"><ele>361.6666666666667</ele><time>2026-05-03T12:32:48.117Z</time></trkpt><trkpt lat="46.0888949" lon="13.5341874"><ele>361.5</ele><time>2026-05-03T12:32:49.116Z</time></trkpt><trkpt lat="46.0888281" lon="13.5342763"><ele>361.3333333333333</ele><time>2026-05-03T12:32:50.117Z</time></trkpt><trkpt lat="46.0887637" lon="13.5343683"><ele>361.16666666666663</ele><time>2026-05-03T12:32:51.117Z</time></trkpt><trkpt lat="46.0887055" lon="13.5344538"><ele>361.0</ele><time>2026-05-03T12:32:52.116Z</time></trkpt><trkpt lat="46.088654" lon="13.5345226"><ele>356.4</ele><time>2026-05-03T12:32:53.117Z</time></trkpt><trkpt lat="46.0885995" lon="13.5345945"><ele>351.8</ele><time>2026-05-03T12:32:54.116Z</time></trkpt><trkpt lat="46.0885473" lon="13.534674"><ele>347.2</ele><time>2026-05-03T12:32:55.117Z</time></trkpt><trkpt lat="46.0885008" lon="13.5347563"><ele>342.59999999999997</ele><time>2026-05-03T12:32:56.117Z</time></trkpt><trkpt lat="46.0884051" lon="13.5348683"><ele>338.0</ele><time>2026-05-03T12:32:58.117Z</time></trkpt><trkpt lat="46.0883001" lon="13.5349121"><ele>334.6666666666667</ele><time>2026-05-03T12:33:00.117Z</time></trkpt><trkpt lat="46.0882352" lon="13.5348952"><ele>331.33333333333337</ele><time>2026-05-03T12:33:01.117Z</time></trkpt><trkpt lat="46.0881664" lon="13.5348547"><ele>328.0</ele><time>2026-05-03T12:33:02.117Z</time></trkpt><trkpt lat="46.0880962" lon="13.5348066"><ele>324.6666666666667</ele><time>2026-05-03T12:33:03.117Z</time></trkpt><trkpt lat="46.0880246" lon="13.5347539"><ele>321.3333333333333</ele><time>2026-05-03T12:33:04.117Z</time></trkpt><trkpt lat="46.0879529" lon="13.5346971"><ele>318.0</ele><time>2026-05-03T12:33:05.117Z</time></trkpt><trkpt lat="46.0878494" lon="13.5345921"><ele>321.4</ele><time>2026-05-03T12:33:07.117Z</time></trkpt><trkpt lat="46.0877937" lon="13.5344797"><ele>324.8</ele><time>2026-05-03T12:33:09.117Z</time></trkpt><trkpt lat="46.0877772" lon="13.5342718"><ele>328.2</ele><time>2026-05-03T12:33:11.117Z</time></trkpt><trkpt lat="46.0877704" lon="13.5341509"><ele>331.6</ele><time>2026-05-03T12:33:12.117Z</time></trkpt><trkpt lat="46.0877585" lon="13.5340491"><ele>335.0</ele><time>2026-05-03T12:33:13.117Z</time></trkpt><trkpt lat="46.0877357" lon="13.5339509"><ele>335.0</ele><time>2026-05-03T12:33:14.117Z</time></trkpt><trkpt lat="46.0877158" lon="13.533855"><ele>335.0</ele><time>2026-05-03T12:33:15.116Z</time></trkpt><trkpt lat="46.0876778" lon="13.5337517"><ele>335.0</ele><time>2026-05-03T12:33:16.117Z</time></trkpt><trkpt lat="46.0876172" lon="13.5336602"><ele>335.0</ele><time>2026-05-03T12:33:17.117Z</time></trkpt><trkpt lat="46.0875454" lon="13.5335745"><ele>335.0</ele><time>2026-05-03T12:33:18.117Z</time></trkpt><trkpt lat="46.087481" lon="13.5334994"><ele>335.0</ele><time>2026-05-03T12:33:19.117Z</time></trkpt><trkpt lat="46.0874259" lon="13.5334055"><ele>336.83333333333337</ele><time>2026-05-03T12:33:20.117Z</time></trkpt><trkpt lat="46.0873799" lon="13.5332951"><ele>338.6666666666667</ele><time>2026-05-03T12:33:21.116Z</time></trkpt><trkpt lat="46.0873336" lon="13.5331867"><ele>340.5</ele><time>2026-05-03T12:33:22.116Z</time></trkpt><trkpt lat="46.0872803" lon="13.5330948"><ele>342.3333333333333</ele><time>2026-05-03T12:33:23.117Z</time></trkpt><trkpt lat="46.0872236" lon="13.5330179"><ele>344.16666666666663</ele><time>2026-05-03T12:33:24.117Z</time></trkpt><trkpt lat="46.0871778" lon="13.5329459"><ele>346.0</ele><time>2026-05-03T12:33:25.117Z</time></trkpt><trkpt lat="46.08714" lon="13.5328634"><ele>351.0</ele><time>2026-05-03T12:33:26.117Z</time></trkpt><trkpt lat="46.0870839" lon="13.532691"><ele>356.0</ele><time>2026-05-03T12:33:28.117Z</time></trkpt><trkpt lat="46.0870714" lon="13.532588"><ele>361.0</ele><time>2026-05-03T12:33:29.117Z</time></trkpt><trkpt lat="46.0870493" lon="13.5324865"><ele>366.0</ele><time>2026-05-03T12:33:30.116Z</time></trkpt><trkpt lat="46.087021" lon="13.5323989"><ele>371.0</ele><time>2026-05-03T12:33:31.116Z</time></trkpt><trkpt lat="46.086946" lon="13.5322823"><ele>371.0</ele><time>2026-05-03T12:33:33.116Z</time></trkpt><trkpt lat="46.08686" lon="13.5322846"><ele>371.0</ele><time>2026-05-03T12:33:35.117Z</time></trkpt><trkpt lat="46.0867606" lon="13.5323795"><ele>371.0</ele><time>2026-05-03T12:33:37.116Z</time></trkpt><trkpt lat="46.0867088" lon="13.5324536"><ele>371.0</ele><time>2026-05-03T12:33:38.117Z</time></trkpt><trkpt lat="46.0866517" lon="13.5325344"><ele>371.0</ele><time>2026-05-03T12:33:39.117Z</time></trkpt><trkpt lat="46.0865857" lon="13.5326215"><ele>371.0</ele><time>2026-05-03T12:33:40.116Z</time></trkpt><trkpt lat="46.08653" lon="13.5327173"><ele>373.1666666666667</ele><time>2026-05-03T12:33:41.116Z</time></trkpt><trkpt lat="46.0864846" lon="13.532819"><ele>375.33333333333337</ele><time>2026-05-03T12:33:42.116Z</time></trkpt><trkpt lat="46.086445" lon="13.5329193"><ele>377.5</ele><time>2026-05-03T12:33:43.117Z</time></trkpt><trkpt lat="46.0864044" lon="13.532997"><ele>379.6666666666667</ele><time>2026-05-03T12:33:44.117Z</time></trkpt><trkpt lat="46.0863127" lon="13.5330856"><ele>381.8333333333333</ele><time>2026-05-03T12:33:46.117Z</time></trkpt><trkpt lat="46.0862446" lon="13.5331155"><ele>384.0</ele><time>2026-05-03T12:33:47.117Z</time></trkpt><trkpt lat="46.0861704" lon="13.533148"><ele>379.99999999999994</ele><time>2026-05-03T12:33:48.117Z</time></trkpt><trkpt lat="46.0860945" lon="13.5331903"><ele>376.0</ele><time>2026-05-03T12:33:49.117Z</time></trkpt><trkpt lat="46.0860244" lon="13.5332116"><ele>372.0</ele><time>2026-05-03T12:33:50.117Z</time></trkpt><trkpt lat="46.0859556" lon="13.5332249"><ele>368.0</ele><time>2026-05-03T12:33:51.117Z</time></trkpt><trkpt lat="46.0858879" lon="13.533221"><ele>364.0</ele><time>2026-05-03T12:33:52.117Z</time></trkpt><trkpt lat="46.085817" lon="13.5332031"><ele>359.99999999999994</ele><time>2026-05-03T12:33:53.117Z</time></trkpt><trkpt lat="46.0857533" lon="13.5331714"><ele>356.0</ele><time>2026-05-03T12:33:54.116Z</time></trkpt><trkpt lat="46.0856935" lon="13.5330976"><ele>354.0</ele><time>2026-05-03T12:33:55.117Z</time></trkpt><trkpt lat="46.0856302" lon="13.5330126"><ele>352.0</ele><time>2026-05-03T12:33:56.116Z</time></trkpt><trkpt lat="46.0855588" lon="13.5329125"><ele>350.0</ele><time>2026-05-03T12:33:57.117Z</time></trkpt><trkpt lat="46.08549" lon="13.532815"><ele>348.0</ele><time>2026-05-03T12:33:58.117Z</time></trkpt><trkpt lat="46.085435" lon="13.5327395"><ele>346.0</ele><time>2026-05-03T12:33:59.117Z</time></trkpt><trkpt lat="46.0853788" lon="13.5326883"><ele>344.0</ele><time>2026-05-03T12:34:00.117Z</time></trkpt><trkpt lat="46.0852687" lon="13.5326083"><ele>350.0</ele><time>2026-05-03T12:34:02.117Z</time></trkpt><trkpt lat="46.0851406" lon="13.5325787"><ele>356.0</ele><time>2026-05-03T12:34:04.116Z</time></trkpt><trkpt lat="46.0850592" lon="13.532605"><ele>362.0</ele><time>2026-05-03T12:34:05.117Z</time></trkpt><trkpt lat="46.0849852" lon="13.5326464"><ele>368.0</ele><time>2026-05-03T12:34:06.117Z</time></trkpt><trkpt lat="46.0848854" lon="13.5326927"><ele>374.0</ele><time>2026-05-03T12:34:08.116Z</time></trkpt><trkpt lat="46.0847536" lon="13.532681"><ele>375.79999999999995</ele><time>2026-05-03T12:34:10.116Z</time></trkpt><trkpt lat="46.0846759" lon="13.5326591"><ele>377.59999999999997</ele><time>2026-05-03T12:34:11.117Z</time></trkpt><trkpt lat="46.0846109" lon="13.5326559"><ele>379.4</ele><time>2026-05-03T12:34:12.116Z</time></trkpt><trkpt lat="46.0845003" lon="13.5326328"><ele>381.2</ele><time>2026-05-03T12:34:14.117Z</time></trkpt><trkpt lat="46.0844064" lon="13.5325778"><ele>383.0</ele><time>2026-05-03T12:34:16.117Z</time></trkpt><trkpt lat="46.084314" lon="13.5325662"><ele>383.0</ele><time>2026-05-03T12:34:18.117Z</time></trkpt><trkpt lat="46.0842547" lon="13.5326574"><ele>383.0</ele><time>2026-05-03T12:34:20.116Z</time></trkpt><trkpt lat="46.0842026" lon="13.5327247"><ele>383.0</ele><time>2026-05-03T12:34:21.117Z</time></trkpt><trkpt lat="46.08414" lon="13.5327892"><ele>383.0</ele><time>2026-05-03T12:34:22.117Z</time></trkpt><trkpt lat="46.0840758" lon="13.5328435"><ele>383.0</ele><time>2026-05-03T12:34:23.117Z</time></trkpt><trkpt lat="46.0840266" lon="13.5329105"><ele>383.0</ele><time>2026-05-03T12:34:24.116Z</time></trkpt><trkpt lat="46.0839817" lon="13.5330142"><ele>385.1666666666667</ele><time>2026-05-03T12:34:25.116Z</time></trkpt><trkpt lat="46.0839341" lon="13.5331216"><ele>387.33333333333337</ele><time>2026-05-03T12:34:26.116Z</time></trkpt><trkpt lat="46.0838926" lon="13.5332232"><ele>389.5</ele><time>2026-05-03T12:34:27.117Z</time></trkpt><trkpt lat="46.0838571" lon="13.5333215"><ele>391.6666666666667</ele><time>2026-05-03T12:34:28.117Z</time></trkpt><trkpt lat="46.083816" lon="13.5334195"><ele>393.8333333333333</ele><time>2026-05-03T12:34:29.117Z</time></trkpt><trkpt lat="46.0837703" lon="13.533501"><ele>396.0</ele><time>2026-05-03T12:34:30.117Z</time></trkpt><trkpt lat="46.0837302" lon="13.5335881"><ele>396.0</ele><time>2026-05-03T12:34:31.116Z</time></trkpt><trkpt lat="46.0836852" lon="13.5336575"><ele>396.0</ele><time>2026-05-03T12:34:32.117Z</time></trkpt><trkpt lat="46.0836321" lon="13.5337259"><ele>396.0</ele><time>2026-05-03T12:34:33.117Z</time></trkpt><trkpt lat="46.0835764" lon="13.533785"><ele>396.0</ele><time>2026-05-03T12:34:34.117Z</time></trkpt><trkpt lat="46.0835057" lon="13.5338294"><ele>396.0</ele><time>2026-05-03T12:34:35.117Z</time></trkpt><trkpt lat="46.0834348" lon="13.533895"><ele>396.0</ele><time>2026-05-03T12:34:36.117Z</time></trkpt><trkpt lat="46.0833188" lon="13.5340004"><ele>394.20000000000005</ele><time>2026-05-03T12:34:38.117Z</time></trkpt><trkpt lat="46.0832545" lon="13.5341507"><ele>392.40000000000003</ele><time>2026-05-03T12:36:31.116Z</time></trkpt><trkpt lat="46.0831702" lon="13.5342844"><ele>390.6</ele><time>2026-05-03T12:36:33.116Z</time></trkpt><trkpt lat="46.0831174" lon="13.5343599"><ele>388.8</ele><time>2026-05-03T12:36:34.116Z</time></trkpt><trkpt lat="46.0830501" lon="13.5344256"><ele>387.0</ele><time>2026-05-03T12:36:35.116Z</time></trkpt><trkpt lat="46.0829647" lon="13.5344889"><ele>387.0</ele><time>2026-05-03T12:36:36.117Z</time></trkpt><trkpt lat="46.0828777" lon="13.5345451"><ele>387.0</ele><time>2026-05-03T12:36:37.117Z</time></trkpt><trkpt lat="46.082796" lon="13.5345885"><ele>387.0</ele><time>2026-05-03T12:36:38.117Z</time></trkpt><trkpt lat="46.0827191" lon="13.5346102"><ele>387.0</ele><time>2026-05-03T12:36:39.116Z</time></trkpt><trkpt lat="46.0826337" lon="13.5346074"><ele>387.0</ele><time>2026-05-03T12:36:40.116Z</time></trkpt><trkpt lat="46.0825448" lon="13.5345912"><ele>387.0</ele><time>2026-05-03T12:36:41.117Z</time></trkpt><trkpt lat="46.0824596" lon="13.5345508"><ele>387.0</ele><time>2026-05-03T12:36:42.116Z</time></trkpt><trkpt lat="46.0823886" lon="13.534487"><ele>387.0</ele><time>2026-05-03T12:36:43.117Z</time></trkpt><trkpt lat="46.0823368" lon="13.5343407"><ele>387.0</ele><time>2026-05-03T12:36:45.117Z</time></trkpt><trkpt lat="46.0823988" lon="13.5342256"><ele>387.0</ele><time>2026-05-03T12:36:47.117Z</time></trkpt><trkpt lat="46.0824745" lon="13.5341999"><ele>387.0</ele><time>2026-05-03T12:36:48.117Z</time></trkpt><trkpt lat="46.0825592" lon="13.5341933"><ele>387.0</ele><time>2026-05-03T12:36:49.117Z</time></trkpt><trkpt lat="46.0826448" lon="13.5341715"><ele>387.0</ele><time>2026-05-03T12:36:50.117Z</time></trkpt><trkpt lat="46.0827093" lon="13.5341346"><ele>387.0</ele><time>2026-05-03T12:36:51.117Z</time></trkpt><trkpt lat="46.0827591" lon="13.5340556"><ele>387.0</ele><time>2026-05-03T12:36:52.117Z</time></trkpt><trkpt lat="46.0827936" lon="13.5339617"><ele>387.0</ele><time>2026-05-03T12:36:53.117Z</time></trkpt><trkpt lat="46.0828179" lon="13.5338379"><ele>387.0</ele><time>2026-05-03T12:36:54.117Z</time></trkpt><trkpt lat="46.0828381" lon="13.53372"><ele>388.14285714285717</ele><time>2026-05-03T12:36:55.117Z</time></trkpt><trkpt lat="46.0828727" lon="13.5336223"><ele>389.28571428571433</ele><time>2026-05-03T12:36:56.116Z</time></trkpt><trkpt lat="46.0829065" lon="13.5335374"><ele>390.42857142857144</ele><time>2026-05-03T12:36:57.116Z</time></trkpt><trkpt lat="46.0829472" lon="13.5334561"><ele>391.57142857142856</ele><time>2026-05-03T12:36:58.117Z</time></trkpt><trkpt lat="46.082995" lon="13.5333771"><ele>392.7142857142857</ele><time>2026-05-03T12:36:59.116Z</time></trkpt><trkpt lat="46.0830485" lon="13.5332966"><ele>393.85714285714283</ele><time>2026-05-03T12:37:00.117Z</time></trkpt><trkpt lat="46.0831102" lon="13.5332278"><ele>395.0</ele><time>2026-05-03T12:37:01.117Z</time></trkpt><trkpt lat="46.0831878" lon="13.5331527"><ele>395.16666666666663</ele><time>2026-05-03T12:37:02.116Z</time></trkpt><trkpt lat="46.0832661" lon="13.5330819"><ele>395.3333333333333</ele><time>2026-05-03T12:37:03.117Z</time></trkpt><trkpt lat="46.0833383" lon="13.5330138"><ele>395.5</ele><time>2026-05-03T12:37:04.116Z</time></trkpt><trkpt lat="46.0834051" lon="13.5329299"><ele>395.66666666666663</ele><time>2026-05-03T12:37:05.117Z</time></trkpt><trkpt lat="46.0834683" lon="13.5328502"><ele>395.8333333333333</ele><time>2026-05-03T12:37:06.117Z</time></trkpt><trkpt lat="46.0835172" lon="13.5327678"><ele>396.0</ele><time>2026-05-03T12:37:07.116Z</time></trkpt><trkpt lat="46.0835595" lon="13.5326849"><ele>398.5</ele><time>2026-05-03T12:37:08.115Z</time></trkpt><trkpt lat="46.0835903" lon="13.5325969"><ele>401.0</ele><time>2026-05-03T12:37:09.115Z</time></trkpt><trkpt lat="46.0836222" lon="13.5324991"><ele>403.5</ele><time>2026-05-03T12:37:10.116Z</time></trkpt><trkpt lat="46.0836461" lon="13.5323931"><ele>406.0</ele><time>2026-05-03T12:37:11.115Z</time></trkpt><trkpt lat="46.0836718" lon="13.5322761"><ele>408.5</ele><time>2026-05-03T12:37:12.116Z</time></trkpt><trkpt lat="46.0836946" lon="13.5321616"><ele>411.0</ele><time>2026-05-03T12:37:13.116Z</time></trkpt><trkpt lat="46.0837173" lon="13.5320439"><ele>412.3333333333333</ele><time>2026-05-03T12:37:14.116Z</time></trkpt><trkpt lat="46.0837395" lon="13.5319265"><ele>413.66666666666663</ele><time>2026-05-03T12:37:15.116Z</time></trkpt><trkpt lat="46.0837616" lon="13.531813"><ele>415.0</ele><time>2026-05-03T12:37:16.116Z</time></trkpt><trkpt lat="46.0837838" lon="13.5317151"><ele>416.3333333333333</ele><time>2026-05-03T12:37:17.116Z</time></trkpt><trkpt lat="46.0838144" lon="13.531609"><ele>417.66666666666663</ele><time>2026-05-03T12:37:18.116Z</time></trkpt><trkpt lat="46.0838536" lon="13.5315012"><ele>419.0</ele><time>2026-05-03T12:37:19.116Z</time></trkpt><trkpt lat="46.083899" lon="13.5314062"><ele>419.0</ele><time>2026-05-03T12:37:20.115Z</time></trkpt><trkpt lat="46.083948" lon="13.5313194"><ele>419.0</ele><time>2026-05-03T12:37:21.116Z</time></trkpt><trkpt lat="46.0839935" lon="13.5312301"><ele>419.0</ele><time>2026-05-03T12:37:22.116Z</time></trkpt><trkpt lat="46.0840447" lon="13.5311332"><ele>419.0</ele><time>2026-05-03T12:37:23.115Z</time></trkpt><trkpt lat="46.0841638" lon="13.5309359"><ele>419.0</ele><time>2026-05-03T12:37:25.116Z</time></trkpt><trkpt lat="46.0842212" lon="13.5308335"><ele>419.66666666666663</ele><time>2026-05-03T12:37:26.115Z</time></trkpt><trkpt lat="46.0842822" lon="13.5307306"><ele>420.3333333333333</ele><time>2026-05-03T12:37:27.116Z</time></trkpt><trkpt lat="46.0843462" lon="13.5306282"><ele>421.0</ele><time>2026-05-03T12:37:28.116Z</time></trkpt><trkpt lat="46.0844185" lon="13.5305494"><ele>421.66666666666663</ele><time>2026-05-03T12:37:29.115Z</time></trkpt><trkpt lat="46.0844799" lon="13.5304827"><ele>422.3333333333333</ele><time>2026-05-03T12:37:30.115Z</time></trkpt><trkpt lat="46.0845415" lon="13.5304093"><ele>423.0</ele><time>2026-05-03T12:37:31.115Z</time></trkpt><trkpt lat="46.0846078" lon="13.5303444"><ele>423.0</ele><time>2026-05-03T12:37:32.116Z</time></trkpt><trkpt lat="46.0847126" lon="13.5303098"><ele>423.0</ele><time>2026-05-03T12:37:34.116Z</time></trkpt><trkpt lat="46.0847826" lon="13.5303861"><ele>423.0</ele><time>2026-05-03T12:37:36.116Z</time></trkpt><trkpt lat="46.0848164" lon="13.530465"><ele>423.0</ele><time>2026-05-03T12:37:37.115Z</time></trkpt><trkpt lat="46.0848466" lon="13.5305589"><ele>423.0</ele><time>2026-05-03T12:37:38.116Z</time></trkpt><trkpt lat="46.0848768" lon="13.5306408"><ele>423.0</ele><time>2026-05-03T12:37:39.116Z</time></trkpt><trkpt lat="46.0849121" lon="13.5307186"><ele>422.5</ele><time>2026-05-03T12:37:40.116Z</time></trkpt><trkpt lat="46.0849601" lon="13.5307926"><ele>422.0</ele><time>2026-05-03T12:37:41.115Z</time></trkpt><trkpt lat="46.0850133" lon="13.5308748"><ele>421.5</ele><time>2026-05-03T12:37:42.116Z</time></trkpt><trkpt lat="46.0850708" lon="13.5309452"><ele>421.0</ele><time>2026-05-03T12:37:43.116Z</time></trkpt><trkpt lat="46.085119" lon="13.5310117"><ele>420.5</ele><time>2026-05-03T12:37:44.115Z</time></trkpt><trkpt lat="46.085211" lon="13.5311292"><ele>420.0</ele><time>2026-05-03T12:37:46.115Z</time></trkpt><trkpt lat="46.0852682" lon="13.5311731"><ele>420.0</ele><time>2026-05-03T12:37:47.115Z</time></trkpt><trkpt lat="46.0853348" lon="13.5311945"><ele>420.0</ele><time>2026-05-03T12:37:48.115Z</time></trkpt><trkpt lat="46.0854109" lon="13.5311997"><ele>420.0</ele><time>2026-05-03T12:37:49.115Z</time></trkpt><trkpt lat="46.0854933" lon="13.5312179"><ele>420.0</ele><time>2026-05-03T12:37:50.116Z</time></trkpt><trkpt lat="46.0855614" lon="13.5312551"><ele>420.0</ele><time>2026-05-03T12:37:51.116Z</time></trkpt><trkpt lat="46.0856233" lon="13.5312962"><ele>420.0</ele><time>2026-05-03T12:37:52.116Z</time></trkpt><trkpt lat="46.0856966" lon="13.5313385"><ele>420.0</ele><time>2026-05-03T12:37:53.116Z</time></trkpt><trkpt lat="46.0857658" lon="13.5313569"><ele>418.5</ele><time>2026-05-03T12:37:54.116Z</time></trkpt><trkpt lat="46.0858413" lon="13.5313519"><ele>417.0</ele><time>2026-05-03T12:37:55.116Z</time></trkpt><trkpt lat="46.0859041" lon="13.5313391"><ele>415.5</ele><time>2026-05-03T12:37:56.116Z</time></trkpt><trkpt lat="46.0859805" lon="13.5312973"><ele>414.0</ele><time>2026-05-03T12:37:57.116Z</time></trkpt><trkpt lat="46.0860626" lon="13.5312478"><ele>412.5</ele><time>2026-05-03T12:37:58.116Z</time></trkpt><trkpt lat="46.0861475" lon="13.5311883"><ele>411.0</ele><time>2026-05-03T12:37:59.116Z</time></trkpt><trkpt lat="46.0862269" lon="13.5311309"><ele>415.0</ele><time>2026-05-03T12:38:00.116Z</time></trkpt><trkpt lat="46.0863035" lon="13.5310767"><ele>419.0</ele><time>2026-05-03T12:38:01.116Z</time></trkpt><trkpt lat="46.0863755" lon="13.5310319"><ele>423.0</ele><time>2026-05-03T12:38:02.116Z</time></trkpt><trkpt lat="46.0864923" lon="13.5308934"><ele>427.0</ele><time>2026-05-03T12:38:04.116Z</time></trkpt><trkpt lat="46.0866063" lon="13.5308231"><ele>431.0</ele><time>2026-05-03T12:38:05.115Z</time></trkpt><trkpt lat="46.0866931" lon="13.5307724"><ele>431.0</ele><time>2026-05-03T12:38:06.116Z</time></trkpt><trkpt lat="46.0867967" lon="13.530704"><ele>431.0</ele><time>2026-05-03T12:38:08.116Z</time></trkpt><trkpt lat="46.0868936" lon="13.5305845"><ele>431.0</ele><time>2026-05-03T12:38:10.116Z</time></trkpt><trkpt lat="46.0869354" lon="13.5304914"><ele>431.0</ele><time>2026-05-03T12:38:11.116Z</time></trkpt><trkpt lat="46.0869857" lon="13.5304366"><ele>431.0</ele><time>2026-05-03T12:38:12.116Z</time></trkpt><trkpt lat="46.0870887" lon="13.5303771"><ele>430.99999999999994</ele><time>2026-05-03T12:38:14.115Z</time></trkpt><trkpt lat="46.0871883" lon="13.5304132"><ele>431.0</ele><time>2026-05-03T12:38:16.116Z</time></trkpt><trkpt lat="46.0872491" lon="13.530446"><ele>431.0</ele><time>2026-05-03T12:38:17.116Z</time></trkpt><trkpt lat="46.087312" lon="13.5304945"><ele>431.0</ele><time>2026-05-03T12:38:18.116Z</time></trkpt><trkpt lat="46.0873751" lon="13.5305484"><ele>430.99999999999994</ele><time>2026-05-03T12:38:19.116Z</time></trkpt><trkpt lat="46.0874369" lon="13.5305917"><ele>431.0</ele><time>2026-05-03T12:38:20.116Z</time></trkpt><trkpt lat="46.0875122" lon="13.530625"><ele>431.99999999999994</ele><time>2026-05-03T12:38:21.116Z</time></trkpt><trkpt lat="46.0875952" lon="13.530641"><ele>433.0</ele><time>2026-05-03T12:38:22.115Z</time></trkpt><trkpt lat="46.0876788" lon="13.5306483"><ele>434.0</ele><time>2026-05-03T12:38:23.116Z</time></trkpt><trkpt lat="46.0877616" lon="13.5306719"><ele>435.0</ele><time>2026-05-03T12:38:24.116Z</time></trkpt><trkpt lat="46.0878476" lon="13.5306843"><ele>435.99999999999994</ele><time>2026-05-03T12:38:25.115Z</time></trkpt><trkpt lat="46.0879257" lon="13.5306903"><ele>437.0</ele><time>2026-05-03T12:38:26.116Z</time></trkpt><trkpt lat="46.0879968" lon="13.5306854"><ele>437.0</ele><time>2026-05-03T12:38:27.116Z</time></trkpt><trkpt lat="46.0880696" lon="13.5306916"><ele>437.0</ele><time>2026-05-03T12:38:28.116Z</time></trkpt><trkpt lat="46.0881338" lon="13.5306735"><ele>437.0</ele><time>2026-05-03T12:38:29.115Z</time></trkpt><trkpt lat="46.0882226" lon="13.530603"><ele>437.0</ele><time>2026-05-03T12:38:31.115Z</time></trkpt><trkpt lat="46.088268" lon="13.5305331"><ele>437.0</ele><time>2026-05-03T12:38:32.115Z</time></trkpt><trkpt lat="46.0883048" lon="13.5304478"><ele>437.0</ele><time>2026-05-03T12:38:33.116Z</time></trkpt><trkpt lat="46.0883336" lon="13.5303532"><ele>437.0</ele><time>2026-05-03T12:38:34.116Z</time></trkpt><trkpt lat="46.0883636" lon="13.5302476"><ele>442.99999999999994</ele><time>2026-05-03T12:38:35.116Z</time></trkpt><trkpt lat="46.0883892" lon="13.5301414"><ele>449.0</ele><time>2026-05-03T12:38:36.116Z</time></trkpt><trkpt lat="46.0884156" lon="13.5300437"><ele>455.0</ele><time>2026-05-03T12:38:37.116Z</time></trkpt><trkpt lat="46.0884385" lon="13.5299358"><ele>461.0</ele><time>2026-05-03T12:38:38.116Z</time></trkpt><trkpt lat="46.0884651" lon="13.5298234"><ele>466.99999999999994</ele><time>2026-05-03T12:38:39.116Z</time></trkpt><trkpt lat="46.0885003" lon="13.5297089"><ele>473.0</ele><time>2026-05-03T12:38:40.115Z</time></trkpt><trkpt lat="46.0885302" lon="13.5296021"><ele>477.16666666666663</ele><time>2026-05-03T12:38:41.116Z</time></trkpt><trkpt lat="46.0885554" lon="13.5294902"><ele>481.3333333333333</ele><time>2026-05-03T12:38:42.116Z</time></trkpt><trkpt lat="46.0885735" lon="13.5293825"><ele>485.5</ele><time>2026-05-03T12:38:43.116Z</time></trkpt><trkpt lat="46.0885915" lon="13.5292701"><ele>489.66666666666663</ele><time>2026-05-03T12:38:44.116Z</time></trkpt><trkpt lat="46.0886189" lon="13.529156"><ele>493.8333333333333</ele><time>2026-05-03T12:38:45.116Z</time></trkpt><trkpt lat="46.0886547" lon="13.5290366"><ele>498.0</ele><time>2026-05-03T12:38:46.116Z</time></trkpt><trkpt lat="46.0886811" lon="13.5289226"><ele>498.0</ele><time>2026-05-03T12:38:47.115Z</time></trkpt><trkpt lat="46.0887092" lon="13.5288122"><ele>497.99999999999994</ele><time>2026-05-03T12:38:48.115Z</time></trkpt><trkpt lat="46.088749" lon="13.5286857"><ele>497.99999999999994</ele><time>2026-05-03T12:38:49.116Z</time></trkpt><trkpt lat="46.0887933" lon="13.5285423"><ele>498.0</ele><time>2026-05-03T12:38:50.116Z</time></trkpt><trkpt lat="46.0888414" lon="13.5284232"><ele>498.0</ele><time>2026-05-03T12:38:51.116Z</time></trkpt><trkpt lat="46.0888925" lon="13.5283026"><ele>500.6666666666667</ele><time>2026-05-03T12:38:52.115Z</time></trkpt><trkpt lat="46.0889365" lon="13.52818"><ele>503.33333333333337</ele><time>2026-05-03T12:38:53.116Z</time></trkpt><trkpt lat="46.0889811" lon="13.5280658"><ele>506.0</ele><time>2026-05-03T12:38:54.115Z</time></trkpt><trkpt lat="46.0890166" lon="13.5279552"><ele>508.6666666666667</ele><time>2026-05-03T12:38:55.116Z</time></trkpt><trkpt lat="46.0890467" lon="13.5278344"><ele>511.33333333333337</ele><time>2026-05-03T12:38:56.116Z</time></trkpt><trkpt lat="46.0890711" lon="13.5277193"><ele>514.0</ele><time>2026-05-03T12:38:57.116Z</time></trkpt><trkpt lat="46.0890892" lon="13.5276035"><ele>511.6</ele><time>2026-05-03T12:38:58.116Z</time></trkpt><trkpt lat="46.0891038" lon="13.5274956"><ele>509.2</ele><time>2026-05-03T12:38:59.116Z</time></trkpt><trkpt lat="46.0891079" lon="13.5273683"><ele>506.80000000000007</ele><time>2026-05-03T12:39:00.116Z</time></trkpt><trkpt lat="46.0891083" lon="13.5272179"><ele>504.40000000000003</ele><time>2026-05-03T12:39:01.116Z</time></trkpt><trkpt lat="46.0891155" lon="13.5270784"><ele>502.0</ele><time>2026-05-03T12:39:02.116Z</time></trkpt><trkpt lat="46.0891262" lon="13.5269495"><ele>502.00000000000006</ele><time>2026-05-03T12:39:03.115Z</time></trkpt><trkpt lat="46.0891403" lon="13.5268291"><ele>502.0</ele><time>2026-05-03T12:39:04.116Z</time></trkpt><trkpt lat="46.0891623" lon="13.5267041"><ele>502.0</ele><time>2026-05-03T12:39:05.116Z</time></trkpt><trkpt lat="46.0891831" lon="13.5265787"><ele>502.0</ele><time>2026-05-03T12:39:06.116Z</time></trkpt><trkpt lat="46.0892019" lon="13.5264504"><ele>502.00000000000006</ele><time>2026-05-03T12:39:07.116Z</time></trkpt><trkpt lat="46.0892175" lon="13.5263201"><ele>502.0</ele><time>2026-05-03T12:39:08.115Z</time></trkpt><trkpt lat="46.0892316" lon="13.5261861"><ele>504.1666666666667</ele><time>2026-05-03T12:39:09.115Z</time></trkpt><trkpt lat="46.0892569" lon="13.526046"><ele>506.33333333333337</ele><time>2026-05-03T12:39:10.116Z</time></trkpt><trkpt lat="46.0892711" lon="13.5259172"><ele>508.5</ele><time>2026-05-03T12:39:11.116Z</time></trkpt><trkpt lat="46.0892821" lon="13.5258024"><ele>510.66666666666663</ele><time>2026-05-03T12:39:12.116Z</time></trkpt><trkpt lat="46.0892989" lon="13.525683"><ele>512.8333333333333</ele><time>2026-05-03T12:39:13.116Z</time></trkpt><trkpt lat="46.0893172" lon="13.525571"><ele>515.0</ele><time>2026-05-03T12:39:14.115Z</time></trkpt><trkpt lat="46.0893371" lon="13.5253877"><ele>515.5</ele><time>2026-05-03T12:39:16.115Z</time></trkpt><trkpt lat="46.0893423" lon="13.5252876"><ele>516.0</ele><time>2026-05-03T12:39:17.116Z</time></trkpt><trkpt lat="46.0893447" lon="13.5251958"><ele>516.5</ele><time>2026-05-03T12:39:18.115Z</time></trkpt><trkpt lat="46.0893478" lon="13.5250554"><ele>517.0</ele><time>2026-05-03T12:39:20.116Z</time></trkpt><trkpt lat="46.0893165" lon="13.5248743"><ele>517.5</ele><time>2026-05-03T12:39:22.115Z</time></trkpt><trkpt lat="46.0892943" lon="13.5247648"><ele>518.0</ele><time>2026-05-03T12:39:23.116Z</time></trkpt><trkpt lat="46.0892759" lon="13.524652"><ele>516.8333333333333</ele><time>2026-05-03T12:39:24.116Z</time></trkpt><trkpt lat="46.0892507" lon="13.5245288"><ele>515.6666666666666</ele><time>2026-05-03T12:39:25.116Z</time></trkpt><trkpt lat="46.0892217" lon="13.524429"><ele>514.5</ele><time>2026-05-03T12:39:26.116Z</time></trkpt><trkpt lat="46.089174" lon="13.5243213"><ele>513.3333333333334</ele><time>2026-05-03T12:39:27.115Z</time></trkpt><trkpt lat="46.0891154" lon="13.5242237"><ele>512.1666666666667</ele><time>2026-05-03T12:39:28.115Z</time></trkpt><trkpt lat="46.0890425" lon="13.5241316"><ele>511.0</ele><time>2026-05-03T12:39:29.116Z</time></trkpt><trkpt lat="46.0889692" lon="13.524041"><ele>516.0</ele><time>2026-05-03T12:39:30.116Z</time></trkpt><trkpt lat="46.0889167" lon="13.523942"><ele>521.0</ele><time>2026-05-03T12:39:31.115Z</time></trkpt><trkpt lat="46.0888645" lon="13.5238539"><ele>526.0</ele><time>2026-05-03T12:39:32.116Z</time></trkpt><trkpt lat="46.0888172" lon="13.5237346"><ele>531.0</ele><time>2026-05-03T12:39:33.115Z</time></trkpt><trkpt lat="46.0887871" lon="13.5236183"><ele>536.0</ele><time>2026-05-03T12:39:34.116Z</time></trkpt><trkpt lat="46.088761" lon="13.5234895"><ele>541.0</ele><time>2026-05-03T12:39:35.115Z</time></trkpt><trkpt lat="46.0887266" lon="13.5233563"><ele>541.0</ele><time>2026-05-03T12:39:36.116Z</time></trkpt><trkpt lat="46.0887129" lon="13.523212"><ele>541.0</ele><time>2026-05-03T12:39:37.115Z</time></trkpt><trkpt lat="46.0887043" lon="13.5230843"><ele>541.0</ele><time>2026-05-03T12:39:38.115Z</time></trkpt><trkpt lat="46.0887016" lon="13.5229602"><ele>541.0</ele><time>2026-05-03T12:39:39.115Z</time></trkpt><trkpt lat="46.0887169" lon="13.5228358"><ele>541.0</ele><time>2026-05-03T12:39:40.116Z</time></trkpt><trkpt lat="46.088712" lon="13.5227027"><ele>542.0</ele><time>2026-05-03T12:39:41.116Z</time></trkpt><trkpt lat="46.0887245" lon="13.5225836"><ele>543.0</ele><time>2026-05-03T12:39:42.116Z</time></trkpt><trkpt lat="46.088737" lon="13.5224491"><ele>544.0</ele><time>2026-05-03T12:39:43.116Z</time></trkpt><trkpt lat="46.0887324" lon="13.5223349"><ele>545.0</ele><time>2026-05-03T12:39:44.116Z</time></trkpt><trkpt lat="46.0887294" lon="13.5222252"><ele>546.0</ele><time>2026-05-03T12:39:45.116Z</time></trkpt><trkpt lat="46.0887315" lon="13.5221279"><ele>547.0</ele><time>2026-05-03T12:39:46.116Z</time></trkpt><trkpt lat="46.0887113" lon="13.5219568"><ele>547.0</ele><time>2026-05-03T12:39:48.115Z</time></trkpt><trkpt lat="46.088691" lon="13.5218498"><ele>547.0</ele><time>2026-05-03T12:39:49.116Z</time></trkpt><trkpt lat="46.088656" lon="13.5217206"><ele>547.0</ele><time>2026-05-03T12:39:50.116Z</time></trkpt><trkpt lat="46.0886397" lon="13.5215893"><ele>547.0</ele><time>2026-05-03T12:39:51.116Z</time></trkpt><trkpt lat="46.088632" lon="13.5214771"><ele>547.0</ele><time>2026-05-03T12:39:52.116Z</time></trkpt><trkpt lat="46.0886296" lon="13.5213426"><ele>547.0</ele><time>2026-05-03T12:39:53.116Z</time></trkpt><trkpt lat="46.0886301" lon="13.5212215"><ele>547.0</ele><time>2026-05-03T12:39:54.116Z</time></trkpt><trkpt lat="46.0886416" lon="13.5211063"><ele>547.0</ele><time>2026-05-03T12:39:55.115Z</time></trkpt><trkpt lat="46.0886563" lon="13.5209912"><ele>547.0</ele><time>2026-05-03T12:39:56.116Z</time></trkpt><trkpt lat="46.0886523" lon="13.5208944"><ele>547.0</ele><time>2026-05-03T12:39:57.116Z</time></trkpt><trkpt lat="46.088649" lon="13.52079"><ele>547.0</ele><time>2026-05-03T12:39:58.115Z</time></trkpt><trkpt lat="46.0886378" lon="13.5206956"><ele>547.0</ele><time>2026-05-03T12:39:59.115Z</time></trkpt><trkpt lat="46.0886353" lon="13.520602"><ele>547.0</ele><time>2026-05-03T12:40:00.116Z</time></trkpt><trkpt lat="46.0886329" lon="13.5204929"><ele>547.5</ele><time>2026-05-03T12:40:01.116Z</time></trkpt><trkpt lat="46.0886296" lon="13.5203959"><ele>548.0</ele><time>2026-05-03T12:40:02.116Z</time></trkpt><trkpt lat="46.0886282" lon="13.5202868"><ele>548.5</ele><time>2026-05-03T12:40:03.116Z</time></trkpt><trkpt lat="46.0886361" lon="13.5201727"><ele>549.0</ele><time>2026-05-03T12:40:04.116Z</time></trkpt><trkpt lat="46.0886441" lon="13.5200596"><ele>549.5</ele><time>2026-05-03T12:40:05.116Z</time></trkpt><trkpt lat="46.0886509" lon="13.519933"><ele>550.0</ele><time>2026-05-03T12:40:06.116Z</time></trkpt><trkpt lat="46.0886526" lon="13.5198354"><ele>550.0</ele><time>2026-05-03T12:40:07.115Z</time></trkpt><trkpt lat="46.0886528" lon="13.51973"><ele>550.0</ele><time>2026-05-03T12:40:08.116Z</time></trkpt><trkpt lat="46.0886548" lon="13.5196257"><ele>550.0</ele><time>2026-05-03T12:40:09.116Z</time></trkpt><trkpt lat="46.0886516" lon="13.5194496"><ele>550.0</ele><time>2026-05-03T12:40:11.116Z</time></trkpt><trkpt lat="46.0886814" lon="13.519361"><ele>550.0</ele><time>2026-05-03T12:40:12.115Z</time></trkpt><trkpt lat="46.0887175" lon="13.5192572"><ele>550.0</ele><time>2026-05-03T12:40:13.116Z</time></trkpt><trkpt lat="46.0887479" lon="13.5191493"><ele>548.0</ele><time>2026-05-03T12:40:14.115Z</time></trkpt><trkpt lat="46.0887898" lon="13.519055"><ele>546.0</ele><time>2026-05-03T12:40:15.116Z</time></trkpt><trkpt lat="46.0888522" lon="13.518973"><ele>544.0</ele><time>2026-05-03T12:40:16.115Z</time></trkpt><trkpt lat="46.0889746" lon="13.5189664"><ele>542.0</ele><time>2026-05-03T12:40:18.116Z</time></trkpt><trkpt lat="46.089043" lon="13.5189214"><ele>540.0</ele><time>2026-05-03T12:40:19.116Z</time></trkpt><trkpt lat="46.0891313" lon="13.5189116"><ele>538.0</ele><time>2026-05-03T12:40:21.116Z</time></trkpt><trkpt lat="46.0892458" lon="13.5188499"><ele>538.0</ele><time>2026-05-03T12:40:23.116Z</time></trkpt><trkpt lat="46.0893097" lon="13.5188458"><ele>538.0</ele><time>2026-05-03T12:40:24.115Z</time></trkpt><trkpt lat="46.0894554" lon="13.518866"><ele>538.0</ele><time>2026-05-03T12:40:26.115Z</time></trkpt><trkpt lat="46.0895205" lon="13.5188809"><ele>538.0</ele><time>2026-05-03T12:40:27.116Z</time></trkpt><trkpt lat="46.0895909" lon="13.5188921"><ele>538.0</ele><time>2026-05-03T12:40:28.116Z</time></trkpt><trkpt lat="46.0896603" lon="13.5188945"><ele>538.0</ele><time>2026-05-03T12:40:29.115Z</time></trkpt><trkpt lat="46.0897252" lon="13.5188929"><ele>538.0</ele><time>2026-05-03T12:40:30.116Z</time></trkpt><trkpt lat="46.089834" lon="13.5189323"><ele>538.0</ele><time>2026-05-03T12:40:32.116Z</time></trkpt><trkpt lat="46.0898995" lon="13.5189638"><ele>538.0</ele><time>2026-05-03T12:40:33.116Z</time></trkpt><trkpt lat="46.0900214" lon="13.5190312"><ele>538.0</ele><time>2026-05-03T12:40:35.116Z</time></trkpt><trkpt lat="46.0900638" lon="13.5191125"><ele>538.0</ele><time>2026-05-03T12:40:36.116Z</time></trkpt><trkpt lat="46.0901188" lon="13.5191792"><ele>537.5</ele><time>2026-05-03T12:40:37.115Z</time></trkpt><trkpt lat="46.0901836" lon="13.5192367"><ele>537.0</ele><time>2026-05-03T12:40:38.116Z</time></trkpt><trkpt lat="46.090242" lon="13.5192977"><ele>536.5</ele><time>2026-05-03T12:40:40.116Z</time></trkpt><trkpt lat="46.0902849" lon="13.5192221"><ele>536.0</ele><time>2026-05-03T12:40:46.116Z</time></trkpt><trkpt lat="46.0903289" lon="13.5191187"><ele>535.5</ele><time>2026-05-03T12:40:47.116Z</time></trkpt><trkpt lat="46.0903831" lon="13.5190076"><ele>535.0</ele><time>2026-05-03T12:40:48.115Z</time></trkpt><trkpt lat="46.0904549" lon="13.5188798"><ele>535.0</ele><time>2026-05-03T12:40:49.116Z</time></trkpt><trkpt lat="46.0905576" lon="13.5187686"><ele>535.0</ele><time>2026-05-03T12:40:50.116Z</time></trkpt><trkpt lat="46.0906708" lon="13.5186727"><ele>535.0</ele><time>2026-05-03T12:40:51.116Z</time></trkpt><trkpt lat="46.0907662" lon="13.5186178"><ele>535.0</ele><time>2026-05-03T12:40:52.115Z</time></trkpt><trkpt lat="46.090871" lon="13.5185368"><ele>540.0</ele><time>2026-05-03T12:40:53.116Z</time></trkpt><trkpt lat="46.0909446" lon="13.5184595"><ele>545.0</ele><time>2026-05-03T12:40:54.115Z</time></trkpt><trkpt lat="46.0910308" lon="13.5183596"><ele>550.0</ele><time>2026-05-03T12:40:55.115Z</time></trkpt><trkpt lat="46.0911087" lon="13.5182774"><ele>555.0</ele><time>2026-05-03T12:40:56.115Z</time></trkpt><trkpt lat="46.0912197" lon="13.5182053"><ele>560.0</ele><time>2026-05-03T12:40:57.115Z</time></trkpt><trkpt lat="46.0913155" lon="13.5181324"><ele>560.0</ele><time>2026-05-03T12:40:58.114Z</time></trkpt><trkpt lat="46.091412" lon="13.518062"><ele>560.0</ele><time>2026-05-03T12:40:59.114Z</time></trkpt><trkpt lat="46.091497" lon="13.517978"><ele>560.0</ele><time>2026-05-03T12:41:00.115Z</time></trkpt><trkpt lat="46.0915743" lon="13.5178951"><ele>560.0</ele><time>2026-05-03T12:41:01.114Z</time></trkpt><trkpt lat="46.0916581" lon="13.5178181"><ele>560.0</ele><time>2026-05-03T12:41:02.114Z</time></trkpt><trkpt lat="46.0917142" lon="13.5177552"><ele>562.6666666666666</ele><time>2026-05-03T12:41:03.115Z</time></trkpt><trkpt lat="46.0917677" lon="13.5176986"><ele>565.3333333333333</ele><time>2026-05-03T12:41:04.114Z</time></trkpt><trkpt lat="46.0918195" lon="13.517634"><ele>568.0</ele><time>2026-05-03T12:41:05.114Z</time></trkpt><trkpt lat="46.0918724" lon="13.5175633"><ele>570.6666666666666</ele><time>2026-05-03T12:41:06.115Z</time></trkpt><trkpt lat="46.0919386" lon="13.5174971"><ele>573.3333333333334</ele><time>2026-05-03T12:41:07.114Z</time></trkpt><trkpt lat="46.0920154" lon="13.5174396"><ele>576.0</ele><time>2026-05-03T12:41:08.115Z</time></trkpt><trkpt lat="46.0921016" lon="13.5173828"><ele>576.0</ele><time>2026-05-03T12:41:09.115Z</time></trkpt><trkpt lat="46.0921838" lon="13.5173254"><ele>576.0</ele><time>2026-05-03T12:41:10.115Z</time></trkpt><trkpt lat="46.0922599" lon="13.5172543"><ele>576.0</ele><time>2026-05-03T12:41:11.115Z</time></trkpt><trkpt lat="46.0923329" lon="13.5171769"><ele>576.0</ele><time>2026-05-03T12:41:12.115Z</time></trkpt><trkpt lat="46.0923922" lon="13.5170723"><ele>576.0</ele><time>2026-05-03T12:41:13.114Z</time></trkpt><trkpt lat="46.0924433" lon="13.5169776"><ele>575.4</ele><time>2026-05-03T12:41:14.115Z</time></trkpt><trkpt lat="46.0924932" lon="13.5169045"><ele>574.8</ele><time>2026-05-03T12:41:15.115Z</time></trkpt><trkpt lat="46.0925572" lon="13.5168527"><ele>574.1999999999999</ele><time>2026-05-03T12:41:17.115Z</time></trkpt><trkpt lat="46.0926289" lon="13.516925"><ele>573.6</ele><time>2026-05-03T12:41:21.115Z</time></trkpt><trkpt lat="46.0926212" lon="13.5171163"><ele>573.0</ele><time>2026-05-03T12:41:23.115Z</time></trkpt><trkpt lat="46.0926302" lon="13.5172477"><ele>573.0</ele><time>2026-05-03T12:41:24.114Z</time></trkpt><trkpt lat="46.0926554" lon="13.5173958"><ele>573.0</ele><time>2026-05-03T12:41:25.114Z</time></trkpt><trkpt lat="46.0926734" lon="13.5175437"><ele>573.0</ele><time>2026-05-03T12:41:26.115Z</time></trkpt><trkpt lat="46.0926912" lon="13.5176954"><ele>573.0</ele><time>2026-05-03T12:41:27.114Z</time></trkpt><trkpt lat="46.0927052" lon="13.5178408"><ele>573.0</ele><time>2026-05-03T12:41:28.114Z</time></trkpt><trkpt lat="46.0927256" lon="13.517988"><ele>572.0</ele><time>2026-05-03T12:41:29.115Z</time></trkpt><trkpt lat="46.0927472" lon="13.5181296"><ele>571.0</ele><time>2026-05-03T12:41:30.114Z</time></trkpt><trkpt lat="46.0927639" lon="13.5182571"><ele>570.0</ele><time>2026-05-03T12:41:31.115Z</time></trkpt><trkpt lat="46.0927714" lon="13.5183677"><ele>569.0</ele><time>2026-05-03T12:41:32.114Z</time></trkpt><trkpt lat="46.0927852" lon="13.5184734"><ele>568.0</ele><time>2026-05-03T12:41:33.115Z</time></trkpt><trkpt lat="46.0928045" lon="13.5185953"><ele>567.0</ele><time>2026-05-03T12:41:34.115Z</time></trkpt><trkpt lat="46.092818" lon="13.5187072"><ele>565.8333333333334</ele><time>2026-05-03T12:41:35.115Z</time></trkpt><trkpt lat="46.0928282" lon="13.5188225"><ele>564.6666666666666</ele><time>2026-05-03T12:41:36.114Z</time></trkpt><trkpt lat="46.0928401" lon="13.5189372"><ele>563.5</ele><time>2026-05-03T12:41:37.115Z</time></trkpt><trkpt lat="46.0928651" lon="13.5190575"><ele>562.3333333333333</ele><time>2026-05-03T12:41:38.115Z</time></trkpt><trkpt lat="46.0928976" lon="13.5191659"><ele>561.1666666666666</ele><time>2026-05-03T12:41:39.115Z</time></trkpt><trkpt lat="46.0929396" lon="13.5192556"><ele>560.0</ele><time>2026-05-03T12:41:40.115Z</time></trkpt><trkpt lat="46.0929875" lon="13.5193243"><ele>560.0</ele><time>2026-05-03T12:41:41.115Z</time></trkpt><trkpt lat="46.0930483" lon="13.5193911"><ele>560.0</ele><time>2026-05-03T12:41:42.115Z</time></trkpt><trkpt lat="46.0931165" lon="13.5194463"><ele>560.0</ele><time>2026-05-03T12:41:43.115Z</time></trkpt><trkpt lat="46.0932036" lon="13.5195041"><ele>560.0</ele><time>2026-05-03T12:41:44.114Z</time></trkpt><trkpt lat="46.0932785" lon="13.5195599"><ele>560.0</ele><time>2026-05-03T12:41:45.115Z</time></trkpt><trkpt lat="46.093335" lon="13.5196029"><ele>560.0</ele><time>2026-05-03T12:41:46.115Z</time></trkpt><trkpt lat="46.0933994" lon="13.5196435"><ele>563.5</ele><time>2026-05-03T12:41:48.114Z</time></trkpt><trkpt lat="46.0934869" lon="13.5196282"><ele>567.0</ele><time>2026-05-03T12:42:08.115Z</time></trkpt><trkpt lat="46.0934997" lon="13.5195068"><ele>570.5</ele><time>2026-05-03T12:42:10.115Z</time></trkpt><trkpt lat="46.0934334" lon="13.5195005"><ele>574.0</ele><time>2026-05-03T12:42:13.115Z</time></trkpt><trkpt lat="46.0934366" lon="13.5196144"><ele>577.5</ele><time>2026-05-03T12:52:04.113Z</time></trkpt><trkpt lat="46.0935229" lon="13.5195871"><ele>581.0</ele><time>2026-05-03T12:52:06.113Z</time></trkpt><trkpt lat="46.0936169" lon="13.5195398"><ele>582.0</ele><time>2026-05-03T12:52:08.113Z</time></trkpt><trkpt lat="46.093719" lon="13.5194839"><ele>583.0</ele><time>2026-05-03T12:52:10.113Z</time></trkpt><trkpt lat="46.0937247" lon="13.5193409"><ele>584.0</ele><time>2026-05-03T12:52:12.113Z</time></trkpt><trkpt lat="46.0937027" lon="13.5192393"><ele>585.0</ele><time>2026-05-03T12:52:13.113Z</time></trkpt><trkpt lat="46.0936779" lon="13.5191301"><ele>586.0</ele><time>2026-05-03T12:52:14.113Z</time></trkpt><trkpt lat="46.0936587" lon="13.5190075"><ele>587.0</ele><time>2026-05-03T12:52:15.113Z</time></trkpt><trkpt lat="46.0936595" lon="13.5188786"><ele>587.0</ele><time>2026-05-03T12:52:16.113Z</time></trkpt><trkpt lat="46.0936665" lon="13.5187535"><ele>587.0</ele><time>2026-05-03T12:52:17.113Z</time></trkpt><trkpt lat="46.0936842" lon="13.5186311"><ele>587.0</ele><time>2026-05-03T12:52:18.113Z</time></trkpt><trkpt lat="46.0936978" lon="13.5184969"><ele>587.0</ele><time>2026-05-03T12:52:19.112Z</time></trkpt><trkpt lat="46.0937085" lon="13.5183691"><ele>587.0</ele><time>2026-05-03T12:52:20.113Z</time></trkpt><trkpt lat="46.0937238" lon="13.5182354"><ele>589.75</ele><time>2026-05-03T12:52:21.113Z</time></trkpt><trkpt lat="46.0937394" lon="13.5180918"><ele>592.5</ele><time>2026-05-03T12:52:22.112Z</time></trkpt><trkpt lat="46.0937605" lon="13.5179255"><ele>595.25</ele><time>2026-05-03T12:52:23.112Z</time></trkpt><trkpt lat="46.0937867" lon="13.5177613"><ele>598.0</ele><time>2026-05-03T12:52:24.112Z</time></trkpt><trkpt lat="46.0938173" lon="13.5175988"><ele>598.0</ele><time>2026-05-03T12:52:25.113Z</time></trkpt><trkpt lat="46.0938514" lon="13.517433"><ele>598.0</ele><time>2026-05-03T12:52:26.113Z</time></trkpt><trkpt lat="46.0938938" lon="13.5172729"><ele>598.0</ele><time>2026-05-03T12:52:27.113Z</time></trkpt><trkpt lat="46.0939306" lon="13.517135"><ele>598.0</ele><time>2026-05-03T12:52:28.113Z</time></trkpt><trkpt lat="46.0939674" lon="13.5170088"><ele>598.0</ele><time>2026-05-03T12:52:29.113Z</time></trkpt><trkpt lat="46.0939878" lon="13.5168916"><ele>593.6</ele><time>2026-05-03T12:52:30.113Z</time></trkpt><trkpt lat="46.0939848" lon="13.5167864"><ele>589.1999999999999</ele><time>2026-05-03T12:52:31.113Z</time></trkpt><trkpt lat="46.093932" lon="13.5167053"><ele>584.8</ele><time>2026-05-03T12:52:32.113Z</time></trkpt><trkpt lat="46.0938479" lon="13.516663"><ele>580.4</ele><time>2026-05-03T12:52:33.112Z</time></trkpt><trkpt lat="46.0937327" lon="13.5166733"><ele>576.0</ele><time>2026-05-03T12:52:34.112Z</time></trkpt><trkpt lat="46.0936052" lon="13.5166961"><ele>576.0</ele><time>2026-05-03T12:52:35.113Z</time></trkpt><trkpt lat="46.0934822" lon="13.5167121"><ele>576.0</ele><time>2026-05-03T12:52:36.113Z</time></trkpt><trkpt lat="46.0933644" lon="13.5167175"><ele>576.0</ele><time>2026-05-03T12:52:37.113Z</time></trkpt><trkpt lat="46.0932518" lon="13.5167135"><ele>576.0</ele><time>2026-05-03T12:52:38.113Z</time></trkpt><trkpt lat="46.0931397" lon="13.5167112"><ele>576.8</ele><time>2026-05-03T12:52:39.113Z</time></trkpt><trkpt lat="46.0930344" lon="13.5167012"><ele>577.6</ele><time>2026-05-03T12:52:40.112Z</time></trkpt><trkpt lat="46.0929378" lon="13.5166929"><ele>578.4</ele><time>2026-05-03T12:52:41.112Z</time></trkpt><trkpt lat="46.0928457" lon="13.5166714"><ele>579.2</ele><time>2026-05-03T12:52:42.112Z</time></trkpt><trkpt lat="46.0927693" lon="13.5166275"><ele>580.0</ele><time>2026-05-03T12:52:43.112Z</time></trkpt><trkpt lat="46.0927112" lon="13.5165409"><ele>580.0</ele><time>2026-05-03T12:52:44.113Z</time></trkpt><trkpt lat="46.0926714" lon="13.516426"><ele>580.0</ele><time>2026-05-03T12:52:45.112Z</time></trkpt><trkpt lat="46.0926455" lon="13.5162904"><ele>580.0</ele><time>2026-05-03T12:52:46.113Z</time></trkpt><trkpt lat="46.0926232" lon="13.5161441"><ele>580.0</ele><time>2026-05-03T12:52:47.112Z</time></trkpt><trkpt lat="46.0926122" lon="13.5159765"><ele>580.0</ele><time>2026-05-03T12:52:48.113Z</time></trkpt><trkpt lat="46.0926066" lon="13.5157904"><ele>580.5</ele><time>2026-05-03T12:52:49.112Z</time></trkpt><trkpt lat="46.0926073" lon="13.5156003"><ele>581.0</ele><time>2026-05-03T12:52:50.113Z</time></trkpt><trkpt lat="46.0926038" lon="13.5154081"><ele>581.5</ele><time>2026-05-03T12:52:51.112Z</time></trkpt><trkpt lat="46.0925986" lon="13.5152254"><ele>582.0</ele><time>2026-05-03T12:52:52.112Z</time></trkpt><trkpt lat="46.0925996" lon="13.5150538"><ele>582.0</ele><time>2026-05-03T12:52:53.112Z</time></trkpt><trkpt lat="46.0925982" lon="13.5148818"><ele>582.0</ele><time>2026-05-03T12:52:54.113Z</time></trkpt><trkpt lat="46.0925867" lon="13.514689"><ele>582.0</ele><time>2026-05-03T12:52:55.112Z</time></trkpt><trkpt lat="46.0925893" lon="13.5144853"><ele>582.0</ele><time>2026-05-03T12:52:56.112Z</time></trkpt><trkpt lat="46.0925986" lon="13.5142807"><ele>582.3333333333334</ele><time>2026-05-03T12:52:57.113Z</time></trkpt><trkpt lat="46.0926239" lon="13.5140499"><ele>582.6666666666667</ele><time>2026-05-03T12:52:58.112Z</time></trkpt><trkpt lat="46.0926618" lon="13.5138153"><ele>583.0</ele><time>2026-05-03T12:52:59.113Z</time></trkpt><trkpt lat="46.0926941" lon="13.5135789"><ele>580.3333333333334</ele><time>2026-05-03T12:53:00.113Z</time></trkpt><trkpt lat="46.0927025" lon="13.5133307"><ele>577.6666666666666</ele><time>2026-05-03T12:53:01.112Z</time></trkpt><trkpt lat="46.0926646" lon="13.5130476"><ele>575.0</ele><time>2026-05-03T12:53:02.113Z</time></trkpt><trkpt lat="46.0926443" lon="13.5128116"><ele>573.0</ele><time>2026-05-03T12:53:03.113Z</time></trkpt><trkpt lat="46.092643" lon="13.5125995"><ele>571.0</ele><time>2026-05-03T12:53:04.113Z</time></trkpt><trkpt lat="46.0926674" lon="13.5123827"><ele>569.0</ele><time>2026-05-03T12:53:05.113Z</time></trkpt><trkpt lat="46.0927175" lon="13.5121683"><ele>567.3333333333333</ele><time>2026-05-03T12:53:06.113Z</time></trkpt><trkpt lat="46.0927799" lon="13.5119686"><ele>565.6666666666666</ele><time>2026-05-03T12:53:07.113Z</time></trkpt><trkpt lat="46.0928621" lon="13.5117724"><ele>564.0</ele><time>2026-05-03T12:53:08.112Z</time></trkpt><trkpt lat="46.0929473" lon="13.5115729"><ele>564.0</ele><time>2026-05-03T12:53:09.113Z</time></trkpt><trkpt lat="46.0930374" lon="13.5113806"><ele>564.0</ele><time>2026-05-03T12:53:10.113Z</time></trkpt><trkpt lat="46.0931243" lon="13.5112019"><ele>564.0</ele><time>2026-05-03T12:53:11.112Z</time></trkpt><trkpt lat="46.0932061" lon="13.5110299"><ele>562.0</ele><time>2026-05-03T12:53:12.113Z</time></trkpt><trkpt lat="46.0932853" lon="13.510841"><ele>560.0</ele><time>2026-05-03T12:53:13.113Z</time></trkpt><trkpt lat="46.0933559" lon="13.5106276"><ele>558.0</ele><time>2026-05-03T12:53:14.112Z</time></trkpt><trkpt lat="46.0934152" lon="13.5103886"><ele>556.0</ele><time>2026-05-03T12:53:15.112Z</time></trkpt><trkpt lat="46.0934562" lon="13.5101519"><ele>554.0</ele><time>2026-05-03T12:53:16.113Z</time></trkpt><trkpt lat="46.0934988" lon="13.5099306"><ele>552.0</ele><time>2026-05-03T12:53:17.113Z</time></trkpt><trkpt lat="46.093528" lon="13.5097082"><ele>549.0</ele><time>2026-05-03T12:53:18.113Z</time></trkpt><trkpt lat="46.0935399" lon="13.5094643"><ele>546.0</ele><time>2026-05-03T12:53:19.113Z</time></trkpt><trkpt lat="46.0935362" lon="13.5091924"><ele>543.0</ele><time>2026-05-03T12:53:20.112Z</time></trkpt><trkpt lat="46.0935237" lon="13.5089156"><ele>539.3333333333334</ele><time>2026-05-03T12:53:21.112Z</time></trkpt><trkpt lat="46.093509" lon="13.5086337"><ele>535.6666666666667</ele><time>2026-05-03T12:53:22.112Z</time></trkpt><trkpt lat="46.0935024" lon="13.5083658"><ele>532.0</ele><time>2026-05-03T12:53:23.112Z</time></trkpt><trkpt lat="46.0934978" lon="13.5081163"><ele>529.0</ele><time>2026-05-03T12:53:24.111Z</time></trkpt><trkpt lat="46.0934938" lon="13.5078732"><ele>526.0</ele><time>2026-05-03T12:53:25.112Z</time></trkpt><trkpt lat="46.0934956" lon="13.5076435"><ele>523.0</ele><time>2026-05-03T12:53:26.111Z</time></trkpt><trkpt lat="46.0934977" lon="13.507423"><ele>523.0</ele><time>2026-05-03T12:53:27.112Z</time></trkpt><trkpt lat="46.0935116" lon="13.507219"><ele>523.0</ele><time>2026-05-03T12:53:28.112Z</time></trkpt><trkpt lat="46.0935405" lon="13.5070412"><ele>523.0</ele><time>2026-05-03T12:53:29.111Z</time></trkpt><trkpt lat="46.0935735" lon="13.5068892"><ele>523.0</ele><time>2026-05-03T12:53:30.112Z</time></trkpt><trkpt lat="46.093583" lon="13.506751"><ele>521.75</ele><time>2026-05-03T12:53:31.112Z</time></trkpt><trkpt lat="46.0935674" lon="13.5066103"><ele>520.5</ele><time>2026-05-03T12:53:32.112Z</time></trkpt><trkpt lat="46.093518" lon="13.5064578"><ele>519.25</ele><time>2026-05-03T12:53:33.112Z</time></trkpt><trkpt lat="46.0934479" lon="13.5063024"><ele>518.0</ele><time>2026-05-03T12:53:34.111Z</time></trkpt><trkpt lat="46.0933841" lon="13.5061696"><ele>516.5</ele><time>2026-05-03T12:53:35.112Z</time></trkpt><trkpt lat="46.0933446" lon="13.5060617"><ele>515.0</ele><time>2026-05-03T12:53:36.112Z</time></trkpt><trkpt lat="46.0932903" lon="13.5059882"><ele>513.5</ele><time>2026-05-03T12:53:37.111Z</time></trkpt><trkpt lat="46.0932223" lon="13.5059725"><ele>512.0</ele><time>2026-05-03T12:53:38.112Z</time></trkpt><trkpt lat="46.0931515" lon="13.5060213"><ele>510.49999999999994</ele><time>2026-05-03T12:53:39.112Z</time></trkpt><trkpt lat="46.0931221" lon="13.5061068"><ele>509.0</ele><time>2026-05-03T12:53:40.112Z</time></trkpt><trkpt lat="46.0931297" lon="13.5063151"><ele>505.25</ele><time>2026-05-03T12:53:42.111Z</time></trkpt><trkpt lat="46.0930013" lon="13.5063032"><ele>501.5</ele><time>2026-05-03T12:53:44.111Z</time></trkpt><trkpt lat="46.092958" lon="13.5062006"><ele>497.75</ele><time>2026-05-03T12:53:45.112Z</time></trkpt><trkpt lat="46.0929425" lon="13.5060267"><ele>494.0</ele><time>2026-05-03T12:53:46.111Z</time></trkpt><trkpt lat="46.0929385" lon="13.5058574"><ele>494.0</ele><time>2026-05-03T12:53:47.111Z</time></trkpt><trkpt lat="46.092958" lon="13.505688"><ele>494.0</ele><time>2026-05-03T12:53:48.112Z</time></trkpt><trkpt lat="46.0929951" lon="13.5055344"><ele>494.0</ele><time>2026-05-03T12:53:49.111Z</time></trkpt><trkpt lat="46.0930535" lon="13.5053838"><ele>494.0</ele><time>2026-05-03T12:53:50.112Z</time></trkpt><trkpt lat="46.0931376" lon="13.5052709"><ele>493.6</ele><time>2026-05-03T12:53:51.112Z</time></trkpt><trkpt lat="46.0931956" lon="13.5051857"><ele>493.2</ele><time>2026-05-03T12:53:52.112Z</time></trkpt><trkpt lat="46.0931632" lon="13.5050346"><ele>492.80000000000007</ele><time>2026-05-03T12:53:54.112Z</time></trkpt><trkpt lat="46.0930951" lon="13.5050272"><ele>492.40000000000003</ele><time>2026-05-03T12:53:55.112Z</time></trkpt><trkpt lat="46.093005" lon="13.5050602"><ele>492.0</ele><time>2026-05-03T12:53:56.111Z</time></trkpt><trkpt lat="46.0928944" lon="13.5050938"><ele>492.0</ele><time>2026-05-03T12:53:57.112Z</time></trkpt><trkpt lat="46.0927805" lon="13.5051042"><ele>492.00000000000006</ele><time>2026-05-03T12:53:58.112Z</time></trkpt><trkpt lat="46.0926836" lon="13.5050974"><ele>492.00000000000006</ele><time>2026-05-03T12:53:59.112Z</time></trkpt><trkpt lat="46.0925881" lon="13.5050303"><ele>492.0</ele><time>2026-05-03T12:54:01.112Z</time></trkpt><trkpt lat="46.0925883" lon="13.5049036"><ele>492.0</ele><time>2026-05-03T12:54:03.112Z</time></trkpt><trkpt lat="46.0926452" lon="13.5048529"><ele>492.0</ele><time>2026-05-03T12:54:05.111Z</time></trkpt><trkpt lat="46.0927921" lon="13.5048309"><ele>492.00000000000006</ele><time>2026-05-03T12:54:07.111Z</time></trkpt><trkpt lat="46.0928918" lon="13.5048152"><ele>492.00000000000006</ele><time>2026-05-03T12:54:08.112Z</time></trkpt><trkpt lat="46.0929982" lon="13.5048061"><ele>492.0</ele><time>2026-05-03T12:54:09.112Z</time></trkpt><trkpt lat="46.0930878" lon="13.5048016"><ele>492.0</ele><time>2026-05-03T12:54:10.112Z</time></trkpt><trkpt lat="46.0931789" lon="13.504796"><ele>492.8333333333333</ele><time>2026-05-03T12:54:11.112Z</time></trkpt><trkpt lat="46.0932559" lon="13.5048075"><ele>493.66666666666663</ele><time>2026-05-03T12:54:12.112Z</time></trkpt><trkpt lat="46.0933269" lon="13.5048506"><ele>494.5</ele><time>2026-05-03T12:54:13.111Z</time></trkpt><trkpt lat="46.0934063" lon="13.504925"><ele>495.3333333333333</ele><time>2026-05-03T12:54:14.112Z</time></trkpt><trkpt lat="46.0934916" lon="13.5049981"><ele>496.16666666666663</ele><time>2026-05-03T12:54:15.111Z</time></trkpt><trkpt lat="46.0935737" lon="13.5050658"><ele>497.0</ele><time>2026-05-03T12:54:16.112Z</time></trkpt><trkpt lat="46.0936509" lon="13.5051309"><ele>496.99999999999994</ele><time>2026-05-03T12:54:17.112Z</time></trkpt><trkpt lat="46.0937242" lon="13.5051927"><ele>497.0</ele><time>2026-05-03T12:54:18.112Z</time></trkpt><trkpt lat="46.0937998" lon="13.5052589"><ele>497.0</ele><time>2026-05-03T12:54:19.112Z</time></trkpt><trkpt lat="46.0938692" lon="13.5053195"><ele>497.0</ele><time>2026-05-03T12:54:20.112Z</time></trkpt><trkpt lat="46.0939411" lon="13.5053785"><ele>496.99999999999994</ele><time>2026-05-03T12:54:21.111Z</time></trkpt><trkpt lat="46.0940096" lon="13.5054303"><ele>497.0</ele><time>2026-05-03T12:54:22.112Z</time></trkpt><trkpt lat="46.0940753" lon="13.5054758"><ele>496.99999999999994</ele><time>2026-05-03T12:54:23.112Z</time></trkpt><trkpt lat="46.0941516" lon="13.5055142"><ele>497.0</ele><time>2026-05-03T12:54:24.112Z</time></trkpt><trkpt lat="46.0942282" lon="13.5055489"><ele>497.0</ele><time>2026-05-03T12:54:25.112Z</time></trkpt><trkpt lat="46.0943037" lon="13.5055694"><ele>497.0</ele><time>2026-05-03T12:54:26.111Z</time></trkpt><trkpt lat="46.0943756" lon="13.5055971"><ele>496.99999999999994</ele><time>2026-05-03T12:54:27.112Z</time></trkpt><trkpt lat="46.0944404" lon="13.5056142"><ele>497.0</ele><time>2026-05-03T12:54:28.111Z</time></trkpt><trkpt lat="46.0945538" lon="13.505606"><ele>496.99999999999994</ele><time>2026-05-03T12:54:30.111Z</time></trkpt><trkpt lat="46.0946119" lon="13.5055686"><ele>497.0</ele><time>2026-05-03T12:54:31.111Z</time></trkpt><trkpt lat="46.0946725" lon="13.5055089"><ele>497.0</ele><time>2026-05-03T12:54:32.112Z</time></trkpt><trkpt lat="46.0947339" lon="13.5054565"><ele>497.0</ele><time>2026-05-03T12:54:33.112Z</time></trkpt><trkpt lat="46.094801" lon="13.5053976"><ele>496.99999999999994</ele><time>2026-05-03T12:54:34.112Z</time></trkpt><trkpt lat="46.0948559" lon="13.5053405"><ele>497.0</ele><time>2026-05-03T12:54:35.111Z</time></trkpt><trkpt lat="46.0949539" lon="13.5052787"><ele>492.16666666666663</ele><time>2026-05-03T12:54:37.111Z</time></trkpt><trkpt lat="46.0950654" lon="13.5052437"><ele>487.3333333333333</ele><time>2026-05-03T12:54:39.112Z</time></trkpt><trkpt lat="46.0951307" lon="13.5052479"><ele>482.5</ele><time>2026-05-03T12:54:40.112Z</time></trkpt><trkpt lat="46.0951969" lon="13.5052575"><ele>477.66666666666663</ele><time>2026-05-03T12:54:41.112Z</time></trkpt><trkpt lat="46.0952615" lon="13.5052715"><ele>472.8333333333333</ele><time>2026-05-03T12:54:42.112Z</time></trkpt><trkpt lat="46.0953326" lon="13.5052631"><ele>468.0</ele><time>2026-05-03T12:54:43.112Z</time></trkpt><trkpt lat="46.0954014" lon="13.5052531"><ele>468.0</ele><time>2026-05-03T12:54:44.111Z</time></trkpt><trkpt lat="46.0954737" lon="13.5052163"><ele>468.0</ele><time>2026-05-03T12:54:45.112Z</time></trkpt><trkpt lat="46.0955405" lon="13.5051562"><ele>468.0</ele><time>2026-05-03T12:54:46.111Z</time></trkpt><trkpt lat="46.0956004" lon="13.5050739"><ele>468.0</ele><time>2026-05-03T12:54:47.112Z</time></trkpt><trkpt lat="46.0956576" lon="13.5049818"><ele>468.0</ele><time>2026-05-03T12:54:48.112Z</time></trkpt><trkpt lat="46.095712" lon="13.5048817"><ele>468.0</ele><time>2026-05-03T12:54:49.112Z</time></trkpt><trkpt lat="46.095768" lon="13.5047859"><ele>466.5</ele><time>2026-05-03T12:54:50.111Z</time></trkpt><trkpt lat="46.0958182" lon="13.5046982"><ele>465.0</ele><time>2026-05-03T12:54:51.112Z</time></trkpt><trkpt lat="46.095878" lon="13.5046133"><ele>463.5</ele><time>2026-05-03T12:54:52.112Z</time></trkpt><trkpt lat="46.0959414" lon="13.50452"><ele>462.0</ele><time>2026-05-03T12:54:53.112Z</time></trkpt><trkpt lat="46.096006" lon="13.5044282"><ele>460.5</ele><time>2026-05-03T12:54:54.111Z</time></trkpt><trkpt lat="46.0960733" lon="13.5043513"><ele>459.0</ele><time>2026-05-03T12:54:55.112Z</time></trkpt><trkpt lat="46.0961448" lon="13.5042797"><ele>458.1666666666667</ele><time>2026-05-03T12:54:56.112Z</time></trkpt><trkpt lat="46.0962199" lon="13.5042066"><ele>457.33333333333337</ele><time>2026-05-03T12:54:57.111Z</time></trkpt><trkpt lat="46.0962891" lon="13.504142"><ele>456.5</ele><time>2026-05-03T12:54:58.111Z</time></trkpt><trkpt lat="46.0963593" lon="13.5040848"><ele>455.6666666666667</ele><time>2026-05-03T12:54:59.111Z</time></trkpt><trkpt lat="46.0964273" lon="13.5040282"><ele>454.83333333333337</ele><time>2026-05-03T12:55:00.112Z</time></trkpt><trkpt lat="46.0964947" lon="13.5039657"><ele>454.0</ele><time>2026-05-03T12:55:01.112Z</time></trkpt><trkpt lat="46.0965477" lon="13.5039011"><ele>453.00000000000006</ele><time>2026-05-03T12:55:02.111Z</time></trkpt><trkpt lat="46.0966034" lon="13.503829"><ele>452.0</ele><time>2026-05-03T12:55:03.111Z</time></trkpt><trkpt lat="46.0966709" lon="13.5037589"><ele>451.0</ele><time>2026-05-03T12:55:04.112Z</time></trkpt><trkpt lat="46.0967445" lon="13.5036783"><ele>450.0</ele><time>2026-05-03T12:55:05.112Z</time></trkpt><trkpt lat="46.0968101" lon="13.5036079"><ele>449.00000000000006</ele><time>2026-05-03T12:55:06.112Z</time></trkpt><trkpt lat="46.0968733" lon="13.5035428"><ele>448.0</ele><time>2026-05-03T12:55:07.112Z</time></trkpt><trkpt lat="46.0969525" lon="13.503496"><ele>448.00000000000006</ele><time>2026-05-03T12:55:08.112Z</time></trkpt><trkpt lat="46.0970237" lon="13.5034644"><ele>448.0</ele><time>2026-05-03T12:55:09.112Z</time></trkpt><trkpt lat="46.0970939" lon="13.5034242"><ele>448.0</ele><time>2026-05-03T12:55:10.111Z</time></trkpt><trkpt lat="46.0971635" lon="13.5033763"><ele>448.0</ele><time>2026-05-03T12:55:11.111Z</time></trkpt><trkpt lat="46.0972396" lon="13.5033365"><ele>448.00000000000006</ele><time>2026-05-03T12:55:12.112Z</time></trkpt><trkpt lat="46.0973159" lon="13.5032952"><ele>448.0</ele><time>2026-05-03T12:55:13.111Z</time></trkpt><trkpt lat="46.0973955" lon="13.5032455"><ele>446.33333333333337</ele><time>2026-05-03T12:55:14.112Z</time></trkpt><trkpt lat="46.0974834" lon="13.5032056"><ele>444.6666666666667</ele><time>2026-05-03T12:55:15.111Z</time></trkpt><trkpt lat="46.0975655" lon="13.5031621"><ele>443.0</ele><time>2026-05-03T12:55:16.112Z</time></trkpt><trkpt lat="46.0976446" lon="13.5031137"><ele>441.33333333333337</ele><time>2026-05-03T12:55:17.111Z</time></trkpt><trkpt lat="46.097727" lon="13.5030744"><ele>439.6666666666667</ele><time>2026-05-03T12:55:18.111Z</time></trkpt><trkpt lat="46.0978084" lon="13.5030264"><ele>438.0</ele><time>2026-05-03T12:55:19.112Z</time></trkpt><trkpt lat="46.0978815" lon="13.5029834"><ele>438.0</ele><time>2026-05-03T12:55:20.112Z</time></trkpt><trkpt lat="46.0979611" lon="13.5029448"><ele>438.0</ele><time>2026-05-03T12:55:21.112Z</time></trkpt><trkpt lat="46.0980414" lon="13.5029062"><ele>438.0</ele><time>2026-05-03T12:55:22.112Z</time></trkpt><trkpt lat="46.0981247" lon="13.5028656"><ele>438.0</ele><time>2026-05-03T12:55:23.112Z</time></trkpt><trkpt lat="46.0982028" lon="13.502815"><ele>438.0</ele><time>2026-05-03T12:55:24.112Z</time></trkpt><trkpt lat="46.0982866" lon="13.5027515"><ele>438.0</ele><time>2026-05-03T12:55:25.112Z</time></trkpt><trkpt lat="46.0983535" lon="13.5026737"><ele>437.2</ele><time>2026-05-03T12:55:26.112Z</time></trkpt><trkpt lat="46.0984299" lon="13.5025847"><ele>436.4</ele><time>2026-05-03T12:55:27.112Z</time></trkpt><trkpt lat="46.0984948" lon="13.5024809"><ele>435.59999999999997</ele><time>2026-05-03T12:55:28.112Z</time></trkpt><trkpt lat="46.0985576" lon="13.5023755"><ele>434.79999999999995</ele><time>2026-05-03T12:55:29.112Z</time></trkpt><trkpt lat="46.0986127" lon="13.5022714"><ele>434.0</ele><time>2026-05-03T12:55:30.112Z</time></trkpt><trkpt lat="46.0986801" lon="13.5021691"><ele>432.6</ele><time>2026-05-03T12:55:31.112Z</time></trkpt><trkpt lat="46.0987421" lon="13.5020575"><ele>431.2</ele><time>2026-05-03T12:55:32.112Z</time></trkpt><trkpt lat="46.0988043" lon="13.5019581"><ele>429.80000000000007</ele><time>2026-05-03T12:55:33.112Z</time></trkpt><trkpt lat="46.0988709" lon="13.5018563"><ele>428.40000000000003</ele><time>2026-05-03T12:55:34.111Z</time></trkpt><trkpt lat="46.0989437" lon="13.5017513"><ele>427.0</ele><time>2026-05-03T12:55:35.112Z</time></trkpt><trkpt lat="46.0990199" lon="13.5016659"><ele>426.83333333333337</ele><time>2026-05-03T12:55:36.111Z</time></trkpt><trkpt lat="46.0990929" lon="13.5015927"><ele>426.6666666666667</ele><time>2026-05-03T12:55:37.112Z</time></trkpt><trkpt lat="46.0991623" lon="13.5015159"><ele>426.5</ele><time>2026-05-03T12:55:38.111Z</time></trkpt><trkpt lat="46.0992238" lon="13.5014249"><ele>426.33333333333337</ele><time>2026-05-03T12:55:39.112Z</time></trkpt><trkpt lat="46.0992824" lon="13.5013276"><ele>426.1666666666667</ele><time>2026-05-03T12:55:40.111Z</time></trkpt><trkpt lat="46.0993216" lon="13.5012195"><ele>426.0</ele><time>2026-05-03T12:55:41.112Z</time></trkpt><trkpt lat="46.0993456" lon="13.5010885"><ele>424.8</ele><time>2026-05-03T12:55:42.112Z</time></trkpt><trkpt lat="46.0993716" lon="13.5009479"><ele>423.6</ele><time>2026-05-03T12:55:43.111Z</time></trkpt><trkpt lat="46.0993972" lon="13.5008032"><ele>422.4</ele><time>2026-05-03T12:55:44.112Z</time></trkpt><trkpt lat="46.0994263" lon="13.5006713"><ele>421.2</ele><time>2026-05-03T12:55:45.111Z</time></trkpt><trkpt lat="46.0994501" lon="13.5005345"><ele>420.0</ele><time>2026-05-03T12:55:46.111Z</time></trkpt><trkpt lat="46.0994696" lon="13.5003974"><ele>418.6</ele><time>2026-05-03T12:55:47.111Z</time></trkpt><trkpt lat="46.0994885" lon="13.5002518"><ele>417.2</ele><time>2026-05-03T12:55:48.111Z</time></trkpt><trkpt lat="46.0995027" lon="13.500113"><ele>415.79999999999995</ele><time>2026-05-03T12:55:49.112Z</time></trkpt><trkpt lat="46.0995108" lon="13.4999757"><ele>414.4</ele><time>2026-05-03T12:55:50.112Z</time></trkpt><trkpt lat="46.0995206" lon="13.4998405"><ele>413.0</ele><time>2026-05-03T12:55:51.112Z</time></trkpt><trkpt lat="46.0995415" lon="13.4997039"><ele>411.59999999999997</ele><time>2026-05-03T12:55:52.111Z</time></trkpt><trkpt lat="46.099564" lon="13.4995716"><ele>410.2</ele><time>2026-05-03T12:55:53.111Z</time></trkpt><trkpt lat="46.0995872" lon="13.4994348"><ele>408.8</ele><time>2026-05-03T12:55:54.112Z</time></trkpt><trkpt lat="46.0996263" lon="13.4992953"><ele>407.4</ele><time>2026-05-03T12:55:55.112Z</time></trkpt><trkpt lat="46.0996813" lon="13.4991385"><ele>406.0</ele><time>2026-05-03T12:55:56.112Z</time></trkpt><trkpt lat="46.0997365" lon="13.4989889"><ele>406.0</ele><time>2026-05-03T12:55:57.111Z</time></trkpt><trkpt lat="46.099784" lon="13.4988599"><ele>406.0</ele><time>2026-05-03T12:55:58.112Z</time></trkpt><trkpt lat="46.0998371" lon="13.4987282"><ele>406.0</ele><time>2026-05-03T12:55:59.111Z</time></trkpt><trkpt lat="46.0998862" lon="13.4985879"><ele>406.0</ele><time>2026-05-03T12:56:00.112Z</time></trkpt><trkpt lat="46.0999261" lon="13.4984617"><ele>406.0</ele><time>2026-05-03T12:56:01.112Z</time></trkpt><trkpt lat="46.0999634" lon="13.4983446"><ele>408.0</ele><time>2026-05-03T12:56:02.112Z</time></trkpt><trkpt lat="46.1000099" lon="13.4982168"><ele>410.0</ele><time>2026-05-03T12:56:03.112Z</time></trkpt><trkpt lat="46.1000469" lon="13.4980866"><ele>412.0</ele><time>2026-05-03T12:56:04.112Z</time></trkpt><trkpt lat="46.100088" lon="13.4979551"><ele>414.0</ele><time>2026-05-03T12:56:05.112Z</time></trkpt><trkpt lat="46.1001334" lon="13.497829"><ele>416.0</ele><time>2026-05-03T12:56:06.112Z</time></trkpt><trkpt lat="46.1001708" lon="13.4976964"><ele>416.0</ele><time>2026-05-03T12:56:07.111Z</time></trkpt><trkpt lat="46.1002054" lon="13.4975591"><ele>416.0</ele><time>2026-05-03T12:56:08.112Z</time></trkpt><trkpt lat="46.1002421" lon="13.4974147"><ele>416.0</ele><time>2026-05-03T12:56:09.111Z</time></trkpt><trkpt lat="46.1002737" lon="13.4972719"><ele>416.0</ele><time>2026-05-03T12:56:10.111Z</time></trkpt><trkpt lat="46.1003058" lon="13.4971183"><ele>416.0</ele><time>2026-05-03T12:56:11.112Z</time></trkpt><trkpt lat="46.1003377" lon="13.4969617"><ele>414.4</ele><time>2026-05-03T12:56:12.112Z</time></trkpt><trkpt lat="46.1003654" lon="13.496811"><ele>412.8</ele><time>2026-05-03T12:56:13.112Z</time></trkpt><trkpt lat="46.1003962" lon="13.4966634"><ele>411.2</ele><time>2026-05-03T12:56:14.112Z</time></trkpt><trkpt lat="46.1004231" lon="13.4965255"><ele>409.59999999999997</ele><time>2026-05-03T12:56:15.112Z</time></trkpt><trkpt lat="46.1004462" lon="13.4963899"><ele>408.0</ele><time>2026-05-03T12:56:16.112Z</time></trkpt><trkpt lat="46.1004727" lon="13.4962549"><ele>405.4</ele><time>2026-05-03T12:56:17.111Z</time></trkpt><trkpt lat="46.1004968" lon="13.4961325"><ele>402.79999999999995</ele><time>2026-05-03T12:56:18.112Z</time></trkpt><trkpt lat="46.1005313" lon="13.4959988"><ele>400.2</ele><time>2026-05-03T12:56:19.111Z</time></trkpt><trkpt lat="46.1005637" lon="13.4958731"><ele>397.6</ele><time>2026-05-03T12:56:20.112Z</time></trkpt><trkpt lat="46.1006031" lon="13.4957464"><ele>395.0</ele><time>2026-05-03T12:56:21.112Z</time></trkpt><trkpt lat="46.1006513" lon="13.4956139"><ele>395.0</ele><time>2026-05-03T12:56:22.112Z</time></trkpt><trkpt lat="46.1007087" lon="13.4954818"><ele>395.0</ele><time>2026-05-03T12:56:23.112Z</time></trkpt><trkpt lat="46.1007649" lon="13.4953565"><ele>395.0</ele><time>2026-05-03T12:56:24.112Z</time></trkpt><trkpt lat="46.1008221" lon="13.4952306"><ele>395.0</ele><time>2026-05-03T12:56:25.112Z</time></trkpt><trkpt lat="46.1008926" lon="13.4950988"><ele>395.0</ele><time>2026-05-03T12:56:26.111Z</time></trkpt><trkpt lat="46.1009536" lon="13.4949794"><ele>396.4</ele><time>2026-05-03T12:56:27.111Z</time></trkpt><trkpt lat="46.1010149" lon="13.4948663"><ele>397.8</ele><time>2026-05-03T12:56:28.111Z</time></trkpt><trkpt lat="46.1010714" lon="13.4947574"><ele>399.20000000000005</ele><time>2026-05-03T12:56:29.112Z</time></trkpt><trkpt lat="46.1011292" lon="13.4946235"><ele>400.6</ele><time>2026-05-03T12:56:30.112Z</time></trkpt><trkpt lat="46.101183" lon="13.4944913"><ele>402.0</ele><time>2026-05-03T12:56:31.112Z</time></trkpt><trkpt lat="46.1012384" lon="13.4943672"><ele>402.0</ele><time>2026-05-03T12:56:32.111Z</time></trkpt><trkpt lat="46.1012921" lon="13.4942488"><ele>402.0</ele><time>2026-05-03T12:56:33.111Z</time></trkpt><trkpt lat="46.1013511" lon="13.4941401"><ele>402.0</ele><time>2026-05-03T12:56:34.111Z</time></trkpt><trkpt lat="46.1014053" lon="13.494033"><ele>402.0</ele><time>2026-05-03T12:56:35.112Z</time></trkpt><trkpt lat="46.1014568" lon="13.4939289"><ele>402.0</ele><time>2026-05-03T12:56:36.111Z</time></trkpt><trkpt lat="46.101505" lon="13.4938327"><ele>402.0</ele><time>2026-05-03T12:56:37.112Z</time></trkpt><trkpt lat="46.1015569" lon="13.4937309"><ele>402.0</ele><time>2026-05-03T12:56:38.111Z</time></trkpt><trkpt lat="46.1016141" lon="13.49363"><ele>402.0</ele><time>2026-05-03T12:56:39.112Z</time></trkpt><trkpt lat="46.1016713" lon="13.4935497"><ele>402.0</ele><time>2026-05-03T12:56:40.112Z</time></trkpt><trkpt lat="46.1017345" lon="13.4934734"><ele>402.0</ele><time>2026-05-03T12:56:41.112Z</time></trkpt><trkpt lat="46.101806" lon="13.4934069"><ele>402.0</ele><time>2026-05-03T12:56:42.111Z</time></trkpt><trkpt lat="46.1018739" lon="13.4933381"><ele>402.0</ele><time>2026-05-03T12:56:43.111Z</time></trkpt><trkpt lat="46.101932" lon="13.4932585"><ele>402.0</ele><time>2026-05-03T12:56:44.112Z</time></trkpt><trkpt lat="46.1019853" lon="13.4931495"><ele>402.0</ele><time>2026-05-03T12:56:45.112Z</time></trkpt><trkpt lat="46.1020404" lon="13.4930135"><ele>402.0</ele><time>2026-05-03T12:56:46.111Z</time></trkpt><trkpt lat="46.1020932" lon="13.4928785"><ele>402.0</ele><time>2026-05-03T12:56:47.112Z</time></trkpt><trkpt lat="46.1021515" lon="13.4927414"><ele>402.40000000000003</ele><time>2026-05-03T12:56:48.112Z</time></trkpt><trkpt lat="46.102211" lon="13.492606"><ele>402.8</ele><time>2026-05-03T12:56:49.112Z</time></trkpt><trkpt lat="46.102266" lon="13.4924679"><ele>403.2</ele><time>2026-05-03T12:56:50.111Z</time></trkpt><trkpt lat="46.1023188" lon="13.4923473"><ele>403.6</ele><time>2026-05-03T12:56:51.111Z</time></trkpt><trkpt lat="46.102368" lon="13.4922177"><ele>404.0</ele><time>2026-05-03T12:56:52.112Z</time></trkpt><trkpt lat="46.1024193" lon="13.4920837"><ele>403.99999999999994</ele><time>2026-05-03T12:56:53.111Z</time></trkpt><trkpt lat="46.1024698" lon="13.4919613"><ele>404.0</ele><time>2026-05-03T12:56:54.112Z</time></trkpt><trkpt lat="46.1025099" lon="13.4918516"><ele>404.0</ele><time>2026-05-03T12:56:55.112Z</time></trkpt><trkpt lat="46.102549" lon="13.4917413"><ele>404.0</ele><time>2026-05-03T12:56:56.112Z</time></trkpt><trkpt lat="46.1025873" lon="13.491629"><ele>403.99999999999994</ele><time>2026-05-03T12:56:57.112Z</time></trkpt><trkpt lat="46.1026216" lon="13.4915288"><ele>404.0</ele><time>2026-05-03T12:56:58.112Z</time></trkpt><trkpt lat="46.1026506" lon="13.4914299"><ele>403.99999999999994</ele><time>2026-05-03T12:56:59.112Z</time></trkpt><trkpt lat="46.1026828" lon="13.4913423"><ele>404.0</ele><time>2026-05-03T12:57:00.112Z</time></trkpt><trkpt lat="46.1027125" lon="13.4912544"><ele>404.0</ele><time>2026-05-03T12:57:01.111Z</time></trkpt><trkpt lat="46.1027427" lon="13.4911731"><ele>404.0</ele><time>2026-05-03T12:57:02.111Z</time></trkpt><trkpt lat="46.1028108" lon="13.4910362"><ele>403.99999999999994</ele><time>2026-05-03T12:57:04.112Z</time></trkpt><trkpt lat="46.1029358" lon="13.4909954"><ele>404.0</ele><time>2026-05-03T12:57:06.112Z</time></trkpt><trkpt lat="46.1030189" lon="13.4910051"><ele>402.2</ele><time>2026-05-03T12:57:07.112Z</time></trkpt><trkpt lat="46.1030784" lon="13.4909752"><ele>400.4</ele><time>2026-05-03T12:57:08.112Z</time></trkpt><trkpt lat="46.10304" lon="13.490825"><ele>398.6</ele><time>2026-05-03T12:57:10.112Z</time></trkpt><trkpt lat="46.1029751" lon="13.4907225"><ele>396.8</ele><time>2026-05-03T12:57:11.111Z</time></trkpt><trkpt lat="46.1029083" lon="13.4906191"><ele>395.0</ele><time>2026-05-03T12:57:12.112Z</time></trkpt><trkpt lat="46.1028374" lon="13.4905016"><ele>391.0</ele><time>2026-05-03T12:57:13.111Z</time></trkpt><trkpt lat="46.1027654" lon="13.4903928"><ele>387.0</ele><time>2026-05-03T12:57:14.112Z</time></trkpt><trkpt lat="46.1027115" lon="13.4903137"><ele>383.0</ele><time>2026-05-03T12:57:15.112Z</time></trkpt><trkpt lat="46.1026674" lon="13.4901661"><ele>379.0</ele><time>2026-05-03T12:57:17.112Z</time></trkpt><trkpt lat="46.1028271" lon="13.4901444"><ele>379.0</ele><time>2026-05-03T12:57:19.111Z</time></trkpt><trkpt lat="46.1029443" lon="13.490149"><ele>379.0</ele><time>2026-05-03T12:57:20.111Z</time></trkpt><trkpt lat="46.1030195" lon="13.4900738"><ele>379.0</ele><time>2026-05-03T12:57:21.112Z</time></trkpt><trkpt lat="46.1030627" lon="13.489967"><ele>379.0</ele><time>2026-05-03T12:57:22.112Z</time></trkpt><trkpt lat="46.1030832" lon="13.4898671"><ele>379.0</ele><time>2026-05-03T12:57:23.112Z</time></trkpt><trkpt lat="46.1030971" lon="13.4897554"><ele>379.0</ele><time>2026-05-03T12:57:24.112Z</time></trkpt><trkpt lat="46.1031059" lon="13.4896279"><ele>375.2</ele><time>2026-05-03T12:57:25.112Z</time></trkpt><trkpt lat="46.1031053" lon="13.4894869"><ele>371.4</ele><time>2026-05-03T12:57:26.112Z</time></trkpt><trkpt lat="46.1031025" lon="13.4893456"><ele>367.6</ele><time>2026-05-03T12:57:27.111Z</time></trkpt><trkpt lat="46.1031058" lon="13.4892094"><ele>363.8</ele><time>2026-05-03T12:57:28.112Z</time></trkpt><trkpt lat="46.1031025" lon="13.489073"><ele>360.0</ele><time>2026-05-03T12:57:29.111Z</time></trkpt><trkpt lat="46.1030953" lon="13.4889456"><ele>360.0</ele><time>2026-05-03T12:57:30.111Z</time></trkpt><trkpt lat="46.1030847" lon="13.4888257"><ele>360.0</ele><time>2026-05-03T12:57:31.112Z</time></trkpt><trkpt lat="46.1030783" lon="13.4887091"><ele>360.0</ele><time>2026-05-03T12:57:32.112Z</time></trkpt><trkpt lat="46.1030779" lon="13.4885843"><ele>360.0</ele><time>2026-05-03T12:57:33.111Z</time></trkpt><trkpt lat="46.1030785" lon="13.4884563"><ele>360.0</ele><time>2026-05-03T12:57:34.111Z</time></trkpt><trkpt lat="46.1030898" lon="13.4883375"><ele>360.0</ele><time>2026-05-03T12:57:35.111Z</time></trkpt><trkpt lat="46.1031027" lon="13.4882234"><ele>358.85714285714283</ele><time>2026-05-03T12:57:36.11Z</time></trkpt><trkpt lat="46.1031049" lon="13.4881124"><ele>357.7142857142857</ele><time>2026-05-03T12:57:37.111Z</time></trkpt><trkpt lat="46.1031057" lon="13.4880018"><ele>356.57142857142856</ele><time>2026-05-03T12:57:38.111Z</time></trkpt><trkpt lat="46.1030879" lon="13.4878967"><ele>355.42857142857144</ele><time>2026-05-03T12:57:39.111Z</time></trkpt><trkpt lat="46.1030569" lon="13.4877983"><ele>354.2857142857143</ele><time>2026-05-03T12:57:40.111Z</time></trkpt><trkpt lat="46.1030326" lon="13.4877045"><ele>353.14285714285717</ele><time>2026-05-03T12:57:41.111Z</time></trkpt><trkpt lat="46.1030201" lon="13.4876037"><ele>352.0</ele><time>2026-05-03T12:57:42.111Z</time></trkpt><trkpt lat="46.1030077" lon="13.4875102"><ele>351.3333333333333</ele><time>2026-05-03T12:57:43.111Z</time></trkpt><trkpt lat="46.1029987" lon="13.4874185"><ele>350.66666666666663</ele><time>2026-05-03T12:57:44.111Z</time></trkpt><trkpt lat="46.1030071" lon="13.4873103"><ele>350.0</ele><time>2026-05-03T12:57:45.111Z</time></trkpt><trkpt lat="46.1030383" lon="13.4872064"><ele>349.3333333333333</ele><time>2026-05-03T12:57:46.111Z</time></trkpt><trkpt lat="46.1030748" lon="13.4870983"><ele>348.6666666666667</ele><time>2026-05-03T12:57:47.111Z</time></trkpt><trkpt lat="46.1031107" lon="13.486999"><ele>348.0</ele><time>2026-05-03T12:57:48.11Z</time></trkpt><trkpt lat="46.103144" lon="13.4869069"><ele>346.5</ele><time>2026-05-03T12:57:49.11Z</time></trkpt><trkpt lat="46.103181" lon="13.486817"><ele>345.0</ele><time>2026-05-03T12:57:50.11Z</time></trkpt><trkpt lat="46.1031949" lon="13.4867165"><ele>343.5</ele><time>2026-05-03T12:57:51.11Z</time></trkpt><trkpt lat="46.1031991" lon="13.4866053"><ele>342.0</ele><time>2026-05-03T12:57:52.111Z</time></trkpt><trkpt lat="46.1032078" lon="13.4865058"><ele>340.5</ele><time>2026-05-03T12:57:53.111Z</time></trkpt><trkpt lat="46.1032175" lon="13.4863955"><ele>339.0</ele><time>2026-05-03T12:57:54.111Z</time></trkpt><trkpt lat="46.1032233" lon="13.4862766"><ele>337.5</ele><time>2026-05-03T12:57:55.11Z</time></trkpt><trkpt lat="46.1032247" lon="13.4861478"><ele>336.0</ele><time>2026-05-03T12:57:56.111Z</time></trkpt><trkpt lat="46.1032198" lon="13.4860167"><ele>334.5</ele><time>2026-05-03T12:57:57.111Z</time></trkpt><trkpt lat="46.1032136" lon="13.4858922"><ele>333.0</ele><time>2026-05-03T12:57:58.111Z</time></trkpt><trkpt lat="46.1031942" lon="13.4857666"><ele>331.5</ele><time>2026-05-03T12:57:59.11Z</time></trkpt><trkpt lat="46.1031753" lon="13.4856523"><ele>330.0</ele><time>2026-05-03T12:58:00.111Z</time></trkpt><trkpt lat="46.1031629" lon="13.485535"><ele>329.3333333333333</ele><time>2026-05-03T12:58:01.11Z</time></trkpt><trkpt lat="46.1031568" lon="13.4854098"><ele>328.6666666666667</ele><time>2026-05-03T12:58:02.111Z</time></trkpt><trkpt lat="46.1031612" lon="13.4852863"><ele>328.0</ele><time>2026-05-03T12:58:03.111Z</time></trkpt><trkpt lat="46.1031675" lon="13.4851635"><ele>327.33333333333337</ele><time>2026-05-03T12:58:04.111Z</time></trkpt><trkpt lat="46.1031709" lon="13.4850377"><ele>326.6666666666667</ele><time>2026-05-03T12:58:05.11Z</time></trkpt><trkpt lat="46.1031778" lon="13.4849155"><ele>326.0</ele><time>2026-05-03T12:58:06.111Z</time></trkpt><trkpt lat="46.1031912" lon="13.4847974"><ele>326.0</ele><time>2026-05-03T12:58:07.11Z</time></trkpt><trkpt lat="46.1031983" lon="13.4846691"><ele>326.0</ele><time>2026-05-03T12:58:08.111Z</time></trkpt><trkpt lat="46.1032031" lon="13.4845422"><ele>326.0</ele><time>2026-05-03T12:58:09.111Z</time></trkpt><trkpt lat="46.1032142" lon="13.4844126"><ele>326.0</ele><time>2026-05-03T12:58:10.111Z</time></trkpt><trkpt lat="46.1032331" lon="13.4842927"><ele>326.0</ele><time>2026-05-03T12:58:11.111Z</time></trkpt><trkpt lat="46.1032538" lon="13.4841841"><ele>326.0</ele><time>2026-05-03T12:58:12.111Z</time></trkpt><trkpt lat="46.1032749" lon="13.4840851"><ele>327.2857142857143</ele><time>2026-05-03T12:58:13.11Z</time></trkpt><trkpt lat="46.1032928" lon="13.4839792"><ele>328.57142857142856</ele><time>2026-05-03T12:58:14.111Z</time></trkpt><trkpt lat="46.1033102" lon="13.4838689"><ele>329.85714285714283</ele><time>2026-05-03T12:58:15.111Z</time></trkpt><trkpt lat="46.1033244" lon="13.4837638"><ele>331.1428571428571</ele><time>2026-05-03T12:58:16.111Z</time></trkpt><trkpt lat="46.1033347" lon="13.4836498"><ele>332.42857142857144</ele><time>2026-05-03T12:58:17.111Z</time></trkpt><trkpt lat="46.1033459" lon="13.483552"><ele>333.71428571428567</ele><time>2026-05-03T12:58:18.111Z</time></trkpt><trkpt lat="46.1033599" lon="13.4834494"><ele>335.0</ele><time>2026-05-03T12:58:19.11Z</time></trkpt><trkpt lat="46.1033726" lon="13.4833426"><ele>335.0</ele><time>2026-05-03T12:58:20.111Z</time></trkpt><trkpt lat="46.1033899" lon="13.4832406"><ele>335.0</ele><time>2026-05-03T12:58:21.11Z</time></trkpt><trkpt lat="46.1034339" lon="13.4831268"><ele>335.0</ele><time>2026-05-03T12:58:22.11Z</time></trkpt><trkpt lat="46.1034833" lon="13.4830299"><ele>335.0</ele><time>2026-05-03T12:58:23.11Z</time></trkpt><trkpt lat="46.1035348" lon="13.4829426"><ele>335.0</ele><time>2026-05-03T12:58:24.11Z</time></trkpt><trkpt lat="46.1036262" lon="13.4828369"><ele>335.0</ele><time>2026-05-03T12:58:26.111Z</time></trkpt><trkpt lat="46.1037335" lon="13.4827685"><ele>335.8</ele><time>2026-05-03T12:58:28.11Z</time></trkpt><trkpt lat="46.1038496" lon="13.4827346"><ele>336.6</ele><time>2026-05-03T12:58:30.11Z</time></trkpt><trkpt lat="46.1039118" lon="13.4827181"><ele>337.4</ele><time>2026-05-03T12:58:31.111Z</time></trkpt><trkpt lat="46.1039695" lon="13.4826765"><ele>338.2</ele><time>2026-05-03T12:58:32.111Z</time></trkpt><trkpt lat="46.1040336" lon="13.482553"><ele>339.0</ele><time>2026-05-03T12:58:34.111Z</time></trkpt><trkpt lat="46.1040855" lon="13.4823802"><ele>339.0</ele><time>2026-05-03T12:58:36.111Z</time></trkpt><trkpt lat="46.1041341" lon="13.4822653"><ele>339.0</ele><time>2026-05-03T12:58:37.11Z</time></trkpt><trkpt lat="46.1041757" lon="13.4821619"><ele>339.0</ele><time>2026-05-03T12:58:38.111Z</time></trkpt><trkpt lat="46.1042113" lon="13.4820628"><ele>339.0</ele><time>2026-05-03T12:58:39.111Z</time></trkpt><trkpt lat="46.1042456" lon="13.4819711"><ele>339.0</ele><time>2026-05-03T12:58:40.111Z</time></trkpt><trkpt lat="46.1042827" lon="13.4818857"><ele>339.0</ele><time>2026-05-03T12:58:41.111Z</time></trkpt><trkpt lat="46.1043213" lon="13.4817995"><ele>336.1428571428571</ele><time>2026-05-03T12:58:42.111Z</time></trkpt><trkpt lat="46.104374" lon="13.4817157"><ele>333.28571428571433</ele><time>2026-05-03T12:58:43.111Z</time></trkpt><trkpt lat="46.104428" lon="13.4816458"><ele>330.42857142857144</ele><time>2026-05-03T12:58:44.111Z</time></trkpt><trkpt lat="46.1044932" lon="13.4815831"><ele>327.57142857142856</ele><time>2026-05-03T12:58:45.11Z</time></trkpt><trkpt lat="46.1045567" lon="13.4815438"><ele>324.71428571428567</ele><time>2026-05-03T12:58:46.11Z</time></trkpt><trkpt lat="46.1046186" lon="13.4814997"><ele>321.8571428571429</ele><time>2026-05-03T12:58:47.11Z</time></trkpt><trkpt lat="46.104678" lon="13.4814627"><ele>319.0</ele><time>2026-05-03T12:58:48.111Z</time></trkpt><trkpt lat="46.1047413" lon="13.4814371"><ele>319.0</ele><time>2026-05-03T12:58:49.111Z</time></trkpt><trkpt lat="46.1048604" lon="13.4814655"><ele>319.0</ele><time>2026-05-03T12:58:51.111Z</time></trkpt><trkpt lat="46.1049604" lon="13.4816024"><ele>319.0</ele><time>2026-05-03T12:58:53.111Z</time></trkpt><trkpt lat="46.1050158" lon="13.4816946"><ele>319.0</ele><time>2026-05-03T12:58:54.11Z</time></trkpt><trkpt lat="46.1050761" lon="13.4817686"><ele>319.0</ele><time>2026-05-03T12:58:55.111Z</time></trkpt><trkpt lat="46.1051421" lon="13.4818409"><ele>319.8333333333333</ele><time>2026-05-03T12:58:56.111Z</time></trkpt><trkpt lat="46.1052023" lon="13.4819134"><ele>320.66666666666663</ele><time>2026-05-03T12:58:57.11Z</time></trkpt><trkpt lat="46.1052536" lon="13.4819843"><ele>321.5</ele><time>2026-05-03T12:58:58.111Z</time></trkpt><trkpt lat="46.1053005" lon="13.4820467"><ele>322.3333333333333</ele><time>2026-05-03T12:58:59.111Z</time></trkpt><trkpt lat="46.1053868" lon="13.4820813"><ele>323.1666666666667</ele><time>2026-05-03T12:59:01.111Z</time></trkpt><trkpt lat="46.1054691" lon="13.4819871"><ele>324.0</ele><time>2026-05-03T12:59:03.111Z</time></trkpt><trkpt lat="46.1055129" lon="13.4819028"><ele>324.0</ele><time>2026-05-03T12:59:04.111Z</time></trkpt><trkpt lat="46.1055566" lon="13.4818012"><ele>324.0</ele><time>2026-05-03T12:59:05.111Z</time></trkpt><trkpt lat="46.1056032" lon="13.4817177"><ele>324.0</ele><time>2026-05-03T12:59:06.111Z</time></trkpt><trkpt lat="46.105659" lon="13.4816317"><ele>324.0</ele><time>2026-05-03T12:59:07.111Z</time></trkpt><trkpt lat="46.1057209" lon="13.4815453"><ele>324.0</ele><time>2026-05-03T12:59:08.11Z</time></trkpt><trkpt lat="46.1057831" lon="13.4814589"><ele>324.0</ele><time>2026-05-03T12:59:09.11Z</time></trkpt><trkpt lat="46.1058464" lon="13.4813718"><ele>324.1666666666667</ele><time>2026-05-03T12:59:10.111Z</time></trkpt><trkpt lat="46.1059081" lon="13.4812874"><ele>324.3333333333333</ele><time>2026-05-03T12:59:11.111Z</time></trkpt><trkpt lat="46.1059748" lon="13.4812012"><ele>324.5</ele><time>2026-05-03T12:59:12.11Z</time></trkpt><trkpt lat="46.1060397" lon="13.4811056"><ele>324.66666666666663</ele><time>2026-05-03T12:59:13.11Z</time></trkpt><trkpt lat="46.106102" lon="13.4810169"><ele>324.8333333333333</ele><time>2026-05-03T12:59:14.111Z</time></trkpt><trkpt lat="46.106164" lon="13.4809243"><ele>325.0</ele><time>2026-05-03T12:59:15.111Z</time></trkpt><trkpt lat="46.1062261" lon="13.4808341"><ele>320.5</ele><time>2026-05-03T12:59:16.11Z</time></trkpt><trkpt lat="46.1062794" lon="13.4807509"><ele>316.0</ele><time>2026-05-03T12:59:17.111Z</time></trkpt><trkpt lat="46.1063329" lon="13.4806696"><ele>311.5</ele><time>2026-05-03T12:59:18.11Z</time></trkpt><trkpt lat="46.1063905" lon="13.4805835"><ele>307.0</ele><time>2026-05-03T12:59:19.111Z</time></trkpt><trkpt lat="46.1064485" lon="13.4805062"><ele>302.5</ele><time>2026-05-03T12:59:20.111Z</time></trkpt><trkpt lat="46.1065069" lon="13.4804287"><ele>298.0</ele><time>2026-05-03T12:59:21.111Z</time></trkpt><trkpt lat="46.1065724" lon="13.4803601"><ele>296.57142857142856</ele><time>2026-05-03T12:59:22.111Z</time></trkpt><trkpt lat="46.1066439" lon="13.4802943"><ele>295.1428571428571</ele><time>2026-05-03T12:59:23.111Z</time></trkpt><trkpt lat="46.1067164" lon="13.480246"><ele>293.7142857142857</ele><time>2026-05-03T12:59:24.11Z</time></trkpt><trkpt lat="46.1067793" lon="13.4802058"><ele>292.2857142857143</ele><time>2026-05-03T12:59:25.111Z</time></trkpt><trkpt lat="46.1068461" lon="13.4801589"><ele>290.8571428571429</ele><time>2026-05-03T12:59:26.11Z</time></trkpt><trkpt lat="46.1069084" lon="13.4801272"><ele>289.42857142857144</ele><time>2026-05-03T12:59:27.111Z</time></trkpt><trkpt lat="46.1069767" lon="13.4801079"><ele>288.0</ele><time>2026-05-03T12:59:28.111Z</time></trkpt><trkpt lat="46.107045" lon="13.4801151"><ele>288.0</ele><time>2026-05-03T12:59:29.11Z</time></trkpt><trkpt lat="46.10711" lon="13.4801319"><ele>288.0</ele><time>2026-05-03T12:59:30.111Z</time></trkpt><trkpt lat="46.1072128" lon="13.4801515"><ele>288.0</ele><time>2026-05-03T12:59:32.111Z</time></trkpt><trkpt lat="46.1072659" lon="13.4801027"><ele>288.0</ele><time>2026-05-03T12:59:34.11Z</time></trkpt><trkpt lat="46.1072301" lon="13.4800157"><ele>288.0</ele><time>2026-05-03T12:59:37.111Z</time></trkpt><trkpt lat="46.1071238" lon="13.479982"><ele>288.0</ele><time>2026-05-03T12:59:39.111Z</time></trkpt><trkpt lat="46.1070466" lon="13.479979"><ele>288.00000000000006</ele><time>2026-05-03T12:59:40.111Z</time></trkpt><trkpt lat="46.1069705" lon="13.4799927"><ele>288.0</ele><time>2026-05-03T12:59:41.111Z</time></trkpt><trkpt lat="46.106892" lon="13.4800037"><ele>288.0</ele><time>2026-05-03T12:59:42.11Z</time></trkpt><trkpt lat="46.1068243" lon="13.4800215"><ele>288.0</ele><time>2026-05-03T12:59:43.11Z</time></trkpt><trkpt lat="46.1067564" lon="13.4800356"><ele>288.0</ele><time>2026-05-03T12:59:44.11Z</time></trkpt><trkpt lat="46.1066919" lon="13.4800466"><ele>288.00000000000006</ele><time>2026-05-03T12:59:45.11Z</time></trkpt><trkpt lat="46.1066211" lon="13.4800609"><ele>288.0</ele><time>2026-05-03T12:59:46.111Z</time></trkpt><trkpt lat="46.1065488" lon="13.4800894"><ele>285.5</ele><time>2026-05-03T12:59:47.11Z</time></trkpt><trkpt lat="46.1064773" lon="13.4801177"><ele>283.0</ele><time>2026-05-03T12:59:48.111Z</time></trkpt><trkpt lat="46.1064028" lon="13.4801589"><ele>280.5</ele><time>2026-05-03T12:59:49.11Z</time></trkpt><trkpt lat="46.1063272" lon="13.4802171"><ele>278.0</ele><time>2026-05-03T12:59:50.111Z</time></trkpt><trkpt lat="46.1062585" lon="13.4802804"><ele>275.5</ele><time>2026-05-03T12:59:51.11Z</time></trkpt><trkpt lat="46.1061792" lon="13.4803397"><ele>273.0</ele><time>2026-05-03T12:59:52.111Z</time></trkpt><trkpt lat="46.1061074" lon="13.4804061"><ele>277.1666666666667</ele><time>2026-05-03T12:59:53.111Z</time></trkpt><trkpt lat="46.106028" lon="13.4804747"><ele>281.3333333333333</ele><time>2026-05-03T12:59:54.11Z</time></trkpt><trkpt lat="46.1059508" lon="13.480547"><ele>285.5</ele><time>2026-05-03T12:59:55.111Z</time></trkpt><trkpt lat="46.1058775" lon="13.4806116"><ele>289.66666666666663</ele><time>2026-05-03T12:59:56.11Z</time></trkpt><trkpt lat="46.105806" lon="13.4806846"><ele>293.8333333333333</ele><time>2026-05-03T12:59:57.111Z</time></trkpt><trkpt lat="46.1057323" lon="13.4807556"><ele>298.0</ele><time>2026-05-03T12:59:58.11Z</time></trkpt><trkpt lat="46.1056623" lon="13.4808224"><ele>300.2</ele><time>2026-05-03T12:59:59.111Z</time></trkpt><trkpt lat="46.1056" lon="13.4808915"><ele>302.4</ele><time>2026-05-03T13:00:00.111Z</time></trkpt><trkpt lat="46.1055534" lon="13.4809615"><ele>304.59999999999997</ele><time>2026-05-03T13:00:01.111Z</time></trkpt><trkpt lat="46.1054647" lon="13.4810704"><ele>306.8</ele><time>2026-05-03T13:00:03.111Z</time></trkpt><trkpt lat="46.1053792" lon="13.4810796"><ele>309.0</ele><time>2026-05-03T13:00:05.111Z</time></trkpt><trkpt lat="46.1053185" lon="13.4809513"><ele>309.0</ele><time>2026-05-03T13:00:07.111Z</time></trkpt><trkpt lat="46.1053041" lon="13.4808527"><ele>309.0</ele><time>2026-05-03T13:00:08.111Z</time></trkpt><trkpt lat="46.1052941" lon="13.4807435"><ele>309.0</ele><time>2026-05-03T13:00:09.111Z</time></trkpt><trkpt lat="46.105314" lon="13.4806025"><ele>309.0</ele><time>2026-05-03T13:00:10.11Z</time></trkpt><trkpt lat="46.105332" lon="13.4804659"><ele>309.0</ele><time>2026-05-03T13:00:11.111Z</time></trkpt><trkpt lat="46.1053295" lon="13.4803475"><ele>309.0</ele><time>2026-05-03T13:00:12.11Z</time></trkpt><trkpt lat="46.1053389" lon="13.4802348"><ele>306.0</ele><time>2026-05-03T13:00:13.111Z</time></trkpt><trkpt lat="46.1053475" lon="13.4801223"><ele>303.0</ele><time>2026-05-03T13:00:14.111Z</time></trkpt><trkpt lat="46.1053554" lon="13.4800096"><ele>300.0</ele><time>2026-05-03T13:00:15.111Z</time></trkpt><trkpt lat="46.1053561" lon="13.4799076"><ele>297.0</ele><time>2026-05-03T13:00:16.11Z</time></trkpt><trkpt lat="46.1053646" lon="13.4798131"><ele>294.0</ele><time>2026-05-03T13:00:17.111Z</time></trkpt><trkpt lat="46.1053558" lon="13.4797208"><ele>291.0</ele><time>2026-05-03T13:00:18.111Z</time></trkpt><trkpt lat="46.1052866" lon="13.479579"><ele>287.8333333333333</ele><time>2026-05-03T13:00:20.111Z</time></trkpt><trkpt lat="46.1052326" lon="13.4795166"><ele>284.6666666666667</ele><time>2026-05-03T13:00:21.111Z</time></trkpt><trkpt lat="46.1051656" lon="13.4794582"><ele>281.5</ele><time>2026-05-03T13:00:22.111Z</time></trkpt><trkpt lat="46.1050841" lon="13.4794224"><ele>278.33333333333337</ele><time>2026-05-03T13:00:23.11Z</time></trkpt><trkpt lat="46.1050077" lon="13.4793893"><ele>275.1666666666667</ele><time>2026-05-03T13:00:24.111Z</time></trkpt><trkpt lat="46.1049443" lon="13.4793512"><ele>272.0</ele><time>2026-05-03T13:00:25.11Z</time></trkpt><trkpt lat="46.1048808" lon="13.4793106"><ele>272.0</ele><time>2026-05-03T13:00:26.111Z</time></trkpt><trkpt lat="46.1048133" lon="13.4792751"><ele>272.0</ele><time>2026-05-03T13:00:27.11Z</time></trkpt><trkpt lat="46.1047502" lon="13.4792485"><ele>272.0</ele><time>2026-05-03T13:00:28.11Z</time></trkpt><trkpt lat="46.1046882" lon="13.47923"><ele>272.0</ele><time>2026-05-03T13:00:29.11Z</time></trkpt><trkpt lat="46.1046101" lon="13.4791726"><ele>272.0</ele><time>2026-05-03T13:00:31.111Z</time></trkpt><trkpt lat="46.1045849" lon="13.4789957"><ele>272.0</ele><time>2026-05-03T13:00:33.111Z</time></trkpt><trkpt lat="46.1045754" lon="13.4788722"><ele>269.8</ele><time>2026-05-03T13:00:34.111Z</time></trkpt><trkpt lat="46.1045496" lon="13.4787361"><ele>267.6</ele><time>2026-05-03T13:00:35.111Z</time></trkpt><trkpt lat="46.1045127" lon="13.4785922"><ele>265.40000000000003</ele><time>2026-05-03T13:00:36.11Z</time></trkpt><trkpt lat="46.1044703" lon="13.4784372"><ele>263.2</ele><time>2026-05-03T13:00:37.111Z</time></trkpt><trkpt lat="46.1044369" lon="13.4782661"><ele>261.0</ele><time>2026-05-03T13:00:38.11Z</time></trkpt><trkpt lat="46.1044025" lon="13.478092"><ele>258.5</ele><time>2026-05-03T13:00:39.111Z</time></trkpt><trkpt lat="46.104381" lon="13.4779276"><ele>256.0</ele><time>2026-05-03T13:00:40.111Z</time></trkpt><trkpt lat="46.1043616" lon="13.4777902"><ele>253.5</ele><time>2026-05-03T13:00:41.111Z</time></trkpt><trkpt lat="46.1043388" lon="13.4776775"><ele>251.0</ele><time>2026-05-03T13:00:42.111Z</time></trkpt><trkpt lat="46.1043066" lon="13.4775932"><ele>248.5</ele><time>2026-05-03T13:00:43.11Z</time></trkpt><trkpt lat="46.1042284" lon="13.4775419"><ele>246.0</ele><time>2026-05-03T13:00:44.111Z</time></trkpt><trkpt lat="46.1041553" lon="13.4775157"><ele>241.20000000000002</ele><time>2026-05-03T13:00:45.111Z</time></trkpt><trkpt lat="46.1040756" lon="13.477532"><ele>236.40000000000003</ele><time>2026-05-03T13:00:46.111Z</time></trkpt><trkpt lat="46.1039862" lon="13.4775882"><ele>231.6</ele><time>2026-05-03T13:00:47.111Z</time></trkpt><trkpt lat="46.1038996" lon="13.4776189"><ele>226.8</ele><time>2026-05-03T13:00:48.111Z</time></trkpt><trkpt lat="46.1038192" lon="13.4776547"><ele>222.0</ele><time>2026-05-03T13:00:49.11Z</time></trkpt><trkpt lat="46.1037421" lon="13.4777424"><ele>222.0</ele><time>2026-05-03T13:00:50.11Z</time></trkpt><trkpt lat="46.1036731" lon="13.4778856"><ele>222.0</ele><time>2026-05-03T13:00:51.111Z</time></trkpt><trkpt lat="46.1036073" lon="13.4780357"><ele>222.0</ele><time>2026-05-03T13:00:52.111Z</time></trkpt><trkpt lat="46.1035521" lon="13.478185"><ele>222.0</ele><time>2026-05-03T13:00:53.111Z</time></trkpt><trkpt lat="46.1034961" lon="13.4783452"><ele>224.75</ele><time>2026-05-03T13:00:54.111Z</time></trkpt><trkpt lat="46.1034281" lon="13.4784973"><ele>227.5</ele><time>2026-05-03T13:00:55.111Z</time></trkpt><trkpt lat="46.1033644" lon="13.478643"><ele>230.25</ele><time>2026-05-03T13:00:56.111Z</time></trkpt><trkpt lat="46.1033058" lon="13.4787842"><ele>233.0</ele><time>2026-05-03T13:00:57.111Z</time></trkpt><trkpt lat="46.103255" lon="13.4789299"><ele>226.0</ele><time>2026-05-03T13:00:58.111Z</time></trkpt><trkpt lat="46.1032091" lon="13.4790786"><ele>219.0</ele><time>2026-05-03T13:00:59.111Z</time></trkpt><trkpt lat="46.1031726" lon="13.4792313"><ele>212.0</ele><time>2026-05-03T13:01:00.11Z</time></trkpt><trkpt lat="46.103122" lon="13.4793816"><ele>205.0</ele><time>2026-05-03T13:01:01.111Z</time></trkpt><trkpt lat="46.1030616" lon="13.4795241"><ele>210.0</ele><time>2026-05-03T13:01:02.11Z</time></trkpt><trkpt lat="46.1029992" lon="13.4796619"><ele>215.0</ele><time>2026-05-03T13:01:03.111Z</time></trkpt><trkpt lat="46.1029249" lon="13.4797928"><ele>220.0</ele><time>2026-05-03T13:01:04.11Z</time></trkpt><trkpt lat="46.1028393" lon="13.4799158"><ele>225.0</ele><time>2026-05-03T13:01:05.111Z</time></trkpt><trkpt lat="46.1027501" lon="13.4800212"><ele>225.0</ele><time>2026-05-03T13:01:06.111Z</time></trkpt><trkpt lat="46.1026546" lon="13.4801202"><ele>225.0</ele><time>2026-05-03T13:01:07.111Z</time></trkpt><trkpt lat="46.1025466" lon="13.4802064"><ele>225.0</ele><time>2026-05-03T13:01:08.111Z</time></trkpt><trkpt lat="46.102441" lon="13.4802909"><ele>225.0</ele><time>2026-05-03T13:01:09.111Z</time></trkpt><trkpt lat="46.1023418" lon="13.4803782"><ele>220.75</ele><time>2026-05-03T13:01:10.111Z</time></trkpt><trkpt lat="46.1022377" lon="13.4804717"><ele>216.5</ele><time>2026-05-03T13:01:11.111Z</time></trkpt><trkpt lat="46.1021393" lon="13.480565"><ele>212.25</ele><time>2026-05-03T13:01:12.111Z</time></trkpt><trkpt lat="46.1020473" lon="13.4806663"><ele>208.0</ele><time>2026-05-03T13:01:13.111Z</time></trkpt><trkpt lat="46.1019629" lon="13.480786"><ele>208.0</ele><time>2026-05-03T13:01:14.11Z</time></trkpt><trkpt lat="46.1018898" lon="13.4809254"><ele>208.0</ele><time>2026-05-03T13:01:15.111Z</time></trkpt><trkpt lat="46.1018256" lon="13.4810789"><ele>208.0</ele><time>2026-05-03T13:01:16.111Z</time></trkpt><trkpt lat="46.1017727" lon="13.4812353"><ele>208.0</ele><time>2026-05-03T13:01:17.111Z</time></trkpt><trkpt lat="46.1017326" lon="13.4813771"><ele>207.83333333333331</ele><time>2026-05-03T13:01:18.111Z</time></trkpt><trkpt lat="46.1016943" lon="13.4814867"><ele>207.66666666666666</ele><time>2026-05-03T13:01:19.111Z</time></trkpt><trkpt lat="46.1016548" lon="13.4815841"><ele>207.5</ele><time>2026-05-03T13:01:20.111Z</time></trkpt><trkpt lat="46.1015892" lon="13.4816271"><ele>207.33333333333331</ele><time>2026-05-03T13:01:21.11Z</time></trkpt><trkpt lat="46.1015125" lon="13.4815951"><ele>207.16666666666666</ele><time>2026-05-03T13:01:22.11Z</time></trkpt><trkpt lat="46.1014331" lon="13.4815433"><ele>207.0</ele><time>2026-05-03T13:01:23.111Z</time></trkpt><trkpt lat="46.1013372" lon="13.4815409"><ele>207.0</ele><time>2026-05-03T13:01:24.11Z</time></trkpt><trkpt lat="46.1012465" lon="13.4816064"><ele>207.0</ele><time>2026-05-03T13:01:25.111Z</time></trkpt><trkpt lat="46.1011708" lon="13.4817185"><ele>207.0</ele><time>2026-05-03T13:01:26.11Z</time></trkpt><trkpt lat="46.1010978" lon="13.4818021"><ele>207.0</ele><time>2026-05-03T13:01:27.111Z</time></trkpt><trkpt lat="46.1010036" lon="13.4818494"><ele>207.0</ele><time>2026-05-03T13:01:28.111Z</time></trkpt><trkpt lat="46.1009077" lon="13.4818598"><ele>207.0</ele><time>2026-05-03T13:01:29.11Z</time></trkpt><trkpt lat="46.1008212" lon="13.481823"><ele>207.0</ele><time>2026-05-03T13:01:30.11Z</time></trkpt><trkpt lat="46.1007224" lon="13.481767"><ele>207.0</ele><time>2026-05-03T13:01:31.111Z</time></trkpt><trkpt lat="46.1006272" lon="13.481674"><ele>207.0</ele><time>2026-05-03T13:01:32.11Z</time></trkpt><trkpt lat="46.1005258" lon="13.4815949"><ele>207.0</ele><time>2026-05-03T13:01:33.109Z</time></trkpt><trkpt lat="46.1004398" lon="13.4814874"><ele>205.8</ele><time>2026-05-03T13:01:34.11Z</time></trkpt><trkpt lat="46.1003641" lon="13.481345"><ele>204.6</ele><time>2026-05-03T13:01:35.109Z</time></trkpt><trkpt lat="46.1002996" lon="13.4812083"><ele>203.4</ele><time>2026-05-03T13:01:36.109Z</time></trkpt><trkpt lat="46.1002163" lon="13.4811133"><ele>202.20000000000002</ele><time>2026-05-03T13:01:37.11Z</time></trkpt><trkpt lat="46.1001529" lon="13.4810403"><ele>201.0</ele><time>2026-05-03T13:01:38.109Z</time></trkpt><trkpt lat="46.100082" lon="13.4810071"><ele>197.0</ele><time>2026-05-03T13:01:39.11Z</time></trkpt><trkpt lat="46.1000001" lon="13.4810232"><ele>193.0</ele><time>2026-05-03T13:01:40.11Z</time></trkpt><trkpt lat="46.0999076" lon="13.4810998"><ele>189.0</ele><time>2026-05-03T13:01:41.11Z</time></trkpt><trkpt lat="46.0998432" lon="13.4812353"><ele>185.0</ele><time>2026-05-03T13:01:42.11Z</time></trkpt><trkpt lat="46.099787" lon="13.4813651"><ele>181.0</ele><time>2026-05-03T13:01:43.11Z</time></trkpt><trkpt lat="46.0997207" lon="13.4814323"><ele>179.8</ele><time>2026-05-03T13:01:44.11Z</time></trkpt><trkpt lat="46.0996401" lon="13.4814616"><ele>178.60000000000002</ele><time>2026-05-03T13:01:45.11Z</time></trkpt><trkpt lat="46.099565" lon="13.4814515"><ele>177.4</ele><time>2026-05-03T13:01:46.11Z</time></trkpt><trkpt lat="46.0995371" lon="13.4813101"><ele>176.2</ele><time>2026-05-03T13:01:48.11Z</time></trkpt><trkpt lat="46.0996026" lon="13.4812216"><ele>175.0</ele><time>2026-05-03T13:01:49.11Z</time></trkpt><trkpt lat="46.0996892" lon="13.4811257"><ele>174.0</ele><time>2026-05-03T13:01:50.109Z</time></trkpt><trkpt lat="46.099764" lon="13.4810115"><ele>173.0</ele><time>2026-05-03T13:01:51.11Z</time></trkpt><trkpt lat="46.0998211" lon="13.4808693"><ele>172.0</ele><time>2026-05-03T13:01:52.109Z</time></trkpt><trkpt lat="46.0998537" lon="13.4807391"><ele>171.0</ele><time>2026-05-03T13:01:53.109Z</time></trkpt><trkpt lat="46.0998999" lon="13.4806186"><ele>170.0</ele><time>2026-05-03T13:01:54.11Z</time></trkpt><trkpt lat="46.0999747" lon="13.4805224"><ele>172.2</ele><time>2026-05-03T13:01:55.11Z</time></trkpt><trkpt lat="46.1000513" lon="13.4804767"><ele>174.4</ele><time>2026-05-03T13:01:56.11Z</time></trkpt><trkpt lat="46.1001297" lon="13.4805479"><ele>176.60000000000002</ele><time>2026-05-03T13:01:57.109Z</time></trkpt><trkpt lat="46.1001955" lon="13.4806735"><ele>178.8</ele><time>2026-05-03T13:01:58.109Z</time></trkpt><trkpt lat="46.1002676" lon="13.4807668"><ele>181.0</ele><time>2026-05-03T13:01:59.11Z</time></trkpt><trkpt lat="46.1003563" lon="13.480886"><ele>181.0</ele><time>2026-05-03T13:02:00.11Z</time></trkpt><trkpt lat="46.1004616" lon="13.4809619"><ele>181.0</ele><time>2026-05-03T13:02:01.109Z</time></trkpt><trkpt lat="46.1005625" lon="13.4810192"><ele>181.0</ele><time>2026-05-03T13:02:02.109Z</time></trkpt><trkpt lat="46.1006512" lon="13.4810617"><ele>181.0</ele><time>2026-05-03T13:02:03.11Z</time></trkpt><trkpt lat="46.1007222" lon="13.4810879"><ele>181.0</ele><time>2026-05-03T13:02:04.11Z</time></trkpt><trkpt lat="46.1008129" lon="13.48091"><ele>181.25</ele><time>2026-05-03T13:02:06.11Z</time></trkpt><trkpt lat="46.1008466" lon="13.4807205"><ele>181.5</ele><time>2026-05-03T13:02:07.11Z</time></trkpt><trkpt lat="46.1008878" lon="13.4805245"><ele>181.75</ele><time>2026-05-03T13:02:08.11Z</time></trkpt><trkpt lat="46.1009261" lon="13.4803279"><ele>182.0</ele><time>2026-05-03T13:02:09.109Z</time></trkpt><trkpt lat="46.10096" lon="13.4801322"><ele>177.75</ele><time>2026-05-03T13:02:10.109Z</time></trkpt><trkpt lat="46.1009892" lon="13.4799476"><ele>173.5</ele><time>2026-05-03T13:02:11.11Z</time></trkpt><trkpt lat="46.1010092" lon="13.4797649"><ele>169.25</ele><time>2026-05-03T13:02:12.11Z</time></trkpt><trkpt lat="46.1010371" lon="13.4795917"><ele>165.0</ele><time>2026-05-03T13:02:13.11Z</time></trkpt><trkpt lat="46.1010805" lon="13.4794527"><ele>164.16666666666666</ele><time>2026-05-03T13:02:14.11Z</time></trkpt><trkpt lat="46.1011266" lon="13.4793473"><ele>163.33333333333334</ele><time>2026-05-03T13:02:15.11Z</time></trkpt><trkpt lat="46.1011726" lon="13.4792663"><ele>162.5</ele><time>2026-05-03T13:02:16.109Z</time></trkpt><trkpt lat="46.1012501" lon="13.4791923"><ele>161.66666666666669</ele><time>2026-05-03T13:02:17.11Z</time></trkpt><trkpt lat="46.1013384" lon="13.4791418"><ele>160.83333333333334</ele><time>2026-05-03T13:02:18.109Z</time></trkpt><trkpt lat="46.1014325" lon="13.479083"><ele>160.0</ele><time>2026-05-03T13:02:19.109Z</time></trkpt><trkpt lat="46.10152" lon="13.4790045"><ele>160.33333333333334</ele><time>2026-05-03T13:02:20.11Z</time></trkpt><trkpt lat="46.1015894" lon="13.4789214"><ele>160.66666666666669</ele><time>2026-05-03T13:02:21.11Z</time></trkpt><trkpt lat="46.1016438" lon="13.4788273"><ele>161.0</ele><time>2026-05-03T13:02:22.109Z</time></trkpt><trkpt lat="46.1016918" lon="13.4787254"><ele>161.33333333333334</ele><time>2026-05-03T13:02:23.11Z</time></trkpt><trkpt lat="46.1017363" lon="13.4786164"><ele>161.66666666666666</ele><time>2026-05-03T13:02:24.11Z</time></trkpt><trkpt lat="46.101769" lon="13.4784905"><ele>162.0</ele><time>2026-05-03T13:02:25.109Z</time></trkpt><trkpt lat="46.1017916" lon="13.4783379"><ele>162.0</ele><time>2026-05-03T13:02:26.11Z</time></trkpt><trkpt lat="46.1018147" lon="13.478183"><ele>162.0</ele><time>2026-05-03T13:02:27.11Z</time></trkpt><trkpt lat="46.1018309" lon="13.4780161"><ele>162.0</ele><time>2026-05-03T13:02:28.11Z</time></trkpt><trkpt lat="46.1018407" lon="13.4778491"><ele>162.0</ele><time>2026-05-03T13:02:29.11Z</time></trkpt><trkpt lat="46.1018461" lon="13.4776815"><ele>161.25</ele><time>2026-05-03T13:02:30.11Z</time></trkpt><trkpt lat="46.1018418" lon="13.4775072"><ele>160.5</ele><time>2026-05-03T13:02:31.109Z</time></trkpt><trkpt lat="46.1018464" lon="13.4773362"><ele>159.75</ele><time>2026-05-03T13:02:32.109Z</time></trkpt><trkpt lat="46.101865" lon="13.4771786"><ele>159.0</ele><time>2026-05-03T13:02:33.11Z</time></trkpt><trkpt lat="46.1018762" lon="13.4770221"><ele>158.8</ele><time>2026-05-03T13:02:34.11Z</time></trkpt><trkpt lat="46.1018784" lon="13.4768562"><ele>158.60000000000002</ele><time>2026-05-03T13:02:35.11Z</time></trkpt><trkpt lat="46.1018709" lon="13.4766942"><ele>158.4</ele><time>2026-05-03T13:02:36.11Z</time></trkpt><trkpt lat="46.1018559" lon="13.4765408"><ele>158.20000000000002</ele><time>2026-05-03T13:02:37.11Z</time></trkpt><trkpt lat="46.1018492" lon="13.4764011"><ele>158.0</ele><time>2026-05-03T13:02:38.11Z</time></trkpt><trkpt lat="46.1018589" lon="13.4762846"><ele>158.16666666666666</ele><time>2026-05-03T13:02:39.11Z</time></trkpt><trkpt lat="46.101873" lon="13.4761838"><ele>158.33333333333331</ele><time>2026-05-03T13:02:40.109Z</time></trkpt><trkpt lat="46.101876" lon="13.4760772"><ele>158.5</ele><time>2026-05-03T13:02:41.11Z</time></trkpt><trkpt lat="46.1018621" lon="13.4759534"><ele>158.66666666666666</ele><time>2026-05-03T13:02:42.11Z</time></trkpt><trkpt lat="46.1018461" lon="13.4758249"><ele>158.83333333333334</ele><time>2026-05-03T13:02:43.109Z</time></trkpt><trkpt lat="46.1018322" lon="13.4757054"><ele>159.0</ele><time>2026-05-03T13:02:44.11Z</time></trkpt><trkpt lat="46.101823" lon="13.4755918"><ele>159.0</ele><time>2026-05-03T13:02:45.11Z</time></trkpt><trkpt lat="46.1018126" lon="13.4754809"><ele>159.0</ele><time>2026-05-03T13:02:46.109Z</time></trkpt><trkpt lat="46.1018317" lon="13.4753371"><ele>159.0</ele><time>2026-05-03T13:02:48.109Z</time></trkpt><trkpt lat="46.1019197" lon="13.4751966"><ele>159.0</ele><time>2026-05-03T13:02:50.109Z</time></trkpt><trkpt lat="46.1019836" lon="13.4751098"><ele>159.0</ele><time>2026-05-03T13:02:51.109Z</time></trkpt><trkpt lat="46.1020629" lon="13.4750452"><ele>158.75</ele><time>2026-05-03T13:02:52.109Z</time></trkpt><trkpt lat="46.1021488" lon="13.4749698"><ele>158.5</ele><time>2026-05-03T13:02:53.109Z</time></trkpt><trkpt lat="46.1022354" lon="13.4748795"><ele>158.25</ele><time>2026-05-03T13:02:54.11Z</time></trkpt><trkpt lat="46.1023256" lon="13.4747581"><ele>158.0</ele><time>2026-05-03T13:02:55.11Z</time></trkpt><trkpt lat="46.1024115" lon="13.4746177"><ele>157.5</ele><time>2026-05-03T13:02:56.11Z</time></trkpt><trkpt lat="46.1024909" lon="13.4744548"><ele>157.0</ele><time>2026-05-03T13:02:57.11Z</time></trkpt><trkpt lat="46.1025434" lon="13.4742904"><ele>156.5</ele><time>2026-05-03T13:02:58.109Z</time></trkpt><trkpt lat="46.1025809" lon="13.4741344"><ele>156.0</ele><time>2026-05-03T13:02:59.11Z</time></trkpt><trkpt lat="46.1026272" lon="13.473991"><ele>156.0</ele><time>2026-05-03T13:03:00.11Z</time></trkpt><trkpt lat="46.1027007" lon="13.4738687"><ele>156.0</ele><time>2026-05-03T13:03:01.11Z</time></trkpt><trkpt lat="46.102794" lon="13.4737558"><ele>156.0</ele><time>2026-05-03T13:03:02.11Z</time></trkpt><trkpt lat="46.1028859" lon="13.4736281"><ele>156.0</ele><time>2026-05-03T13:03:03.11Z</time></trkpt><trkpt lat="46.1029605" lon="13.4734737"><ele>155.25</ele><time>2026-05-03T13:03:04.11Z</time></trkpt><trkpt lat="46.1030334" lon="13.4733182"><ele>154.5</ele><time>2026-05-03T13:03:05.11Z</time></trkpt><trkpt lat="46.1031054" lon="13.4731572"><ele>153.75</ele><time>2026-05-03T13:03:06.109Z</time></trkpt><trkpt lat="46.1031748" lon="13.4729922"><ele>153.0</ele><time>2026-05-03T13:03:07.11Z</time></trkpt><trkpt lat="46.1032404" lon="13.4728098"><ele>152.0</ele><time>2026-05-03T13:03:08.11Z</time></trkpt><trkpt lat="46.1032976" lon="13.4726115"><ele>151.0</ele><time>2026-05-03T13:03:09.109Z</time></trkpt><trkpt lat="46.1033444" lon="13.4723931"><ele>150.0</ele><time>2026-05-03T13:03:10.11Z</time></trkpt><trkpt lat="46.1033955" lon="13.4721742"><ele>149.5</ele><time>2026-05-03T13:03:11.11Z</time></trkpt><trkpt lat="46.1034492" lon="13.4719651"><ele>149.0</ele><time>2026-05-03T13:03:12.11Z</time></trkpt><trkpt lat="46.1034963" lon="13.471766"><ele>148.5</ele><time>2026-05-03T13:03:13.11Z</time></trkpt><trkpt lat="46.1035374" lon="13.4715747"><ele>148.0</ele><time>2026-05-03T13:03:14.11Z</time></trkpt><trkpt lat="46.1035758" lon="13.4713963"><ele>147.8</ele><time>2026-05-03T13:03:15.11Z</time></trkpt><trkpt lat="46.1036117" lon="13.4712456"><ele>147.60000000000002</ele><time>2026-05-03T13:03:16.109Z</time></trkpt><trkpt lat="46.1036558" lon="13.471114"><ele>147.39999999999998</ele><time>2026-05-03T13:03:17.11Z</time></trkpt><trkpt lat="46.1037098" lon="13.471031"><ele>147.2</ele><time>2026-05-03T13:03:18.11Z</time></trkpt><trkpt lat="46.1037888" lon="13.4709661"><ele>147.0</ele><time>2026-05-03T13:03:20.11Z</time></trkpt><trkpt lat="46.1038647" lon="13.4709403"><ele>147.0</ele><time>2026-05-03T13:03:22.11Z</time></trkpt><trkpt lat="46.1039402" lon="13.4709461"><ele>147.0</ele><time>2026-05-03T13:03:23.11Z</time></trkpt><trkpt lat="46.1040282" lon="13.4709843"><ele>147.0</ele><time>2026-05-03T13:03:24.11Z</time></trkpt><trkpt lat="46.1041301" lon="13.4710622"><ele>147.0</ele><time>2026-05-03T13:03:25.11Z</time></trkpt><trkpt lat="46.1042449" lon="13.4711505"><ele>147.0</ele><time>2026-05-03T13:03:26.11Z</time></trkpt><trkpt lat="46.1043679" lon="13.4712447"><ele>147.0</ele><time>2026-05-03T13:03:27.11Z</time></trkpt><trkpt lat="46.1044985" lon="13.4713358"><ele>147.0</ele><time>2026-05-03T13:03:28.11Z</time></trkpt><trkpt lat="46.1046324" lon="13.4714333"><ele>147.0</ele><time>2026-05-03T13:03:29.11Z</time></trkpt><trkpt lat="46.1047595" lon="13.4715337"><ele>147.0</ele><time>2026-05-03T13:03:30.11Z</time></trkpt><trkpt lat="46.1048789" lon="13.4716435"><ele>146.66666666666666</ele><time>2026-05-03T13:03:31.11Z</time></trkpt><trkpt lat="46.1049949" lon="13.4717925"><ele>146.33333333333331</ele><time>2026-05-03T13:03:32.109Z</time></trkpt><trkpt lat="46.1051" lon="13.4719869"><ele>146.0</ele><time>2026-05-03T13:03:33.11Z</time></trkpt><trkpt lat="46.1051963" lon="13.4721895"><ele>146.0</ele><time>2026-05-03T13:03:34.109Z</time></trkpt><trkpt lat="46.105294" lon="13.4723914"><ele>146.0</ele><time>2026-05-03T13:03:35.11Z</time></trkpt><trkpt lat="46.1053906" lon="13.4725829"><ele>146.0</ele><time>2026-05-03T13:03:36.11Z</time></trkpt><trkpt lat="46.1054866" lon="13.4727743"><ele>144.0</ele><time>2026-05-03T13:03:37.109Z</time></trkpt><trkpt lat="46.1055853" lon="13.4729698"><ele>142.0</ele><time>2026-05-03T13:03:38.109Z</time></trkpt><trkpt lat="46.1056825" lon="13.4731576"><ele>140.0</ele><time>2026-05-03T13:03:39.11Z</time></trkpt><trkpt lat="46.1057776" lon="13.4733549"><ele>140.0</ele><time>2026-05-03T13:03:40.109Z</time></trkpt><trkpt lat="46.1058766" lon="13.4735299"><ele>140.0</ele><time>2026-05-03T13:03:41.11Z</time></trkpt><trkpt lat="46.1059835" lon="13.473699"><ele>140.0</ele><time>2026-05-03T13:03:42.11Z</time></trkpt><trkpt lat="46.1061098" lon="13.4738493"><ele>143.33333333333331</ele><time>2026-05-03T13:03:43.11Z</time></trkpt><trkpt lat="46.1062465" lon="13.4739755"><ele>146.66666666666666</ele><time>2026-05-03T13:03:44.11Z</time></trkpt><trkpt lat="46.1063972" lon="13.4740668"><ele>150.0</ele><time>2026-05-03T13:03:45.11Z</time></trkpt><trkpt lat="46.1065529" lon="13.4741435"><ele>146.0</ele><time>2026-05-03T13:03:46.11Z</time></trkpt><trkpt lat="46.1067128" lon="13.4741847"><ele>142.0</ele><time>2026-05-03T13:03:47.11Z</time></trkpt><trkpt lat="46.1068817" lon="13.4742015"><ele>138.0</ele><time>2026-05-03T13:03:48.11Z</time></trkpt><trkpt lat="46.1070547" lon="13.4742168"><ele>138.0</ele><time>2026-05-03T13:03:49.11Z</time></trkpt><trkpt lat="46.107229" lon="13.4742435"><ele>138.0</ele><time>2026-05-03T13:03:50.109Z</time></trkpt><trkpt lat="46.1074036" lon="13.4742685"><ele>138.0</ele><time>2026-05-03T13:03:51.11Z</time></trkpt><trkpt lat="46.1075736" lon="13.4742955"><ele>136.33333333333334</ele><time>2026-05-03T13:03:52.109Z</time></trkpt><trkpt lat="46.1077332" lon="13.474313"><ele>134.66666666666669</ele><time>2026-05-03T13:03:53.11Z</time></trkpt><trkpt lat="46.1078911" lon="13.4743367"><ele>133.0</ele><time>2026-05-03T13:03:54.11Z</time></trkpt><trkpt lat="46.1080521" lon="13.4743608"><ele>133.0</ele><time>2026-05-03T13:03:55.109Z</time></trkpt><trkpt lat="46.1082106" lon="13.4743822"><ele>133.0</ele><time>2026-05-03T13:03:56.11Z</time></trkpt><trkpt lat="46.1083644" lon="13.474401"><ele>133.0</ele><time>2026-05-03T13:03:57.11Z</time></trkpt><trkpt lat="46.1085145" lon="13.4744175"><ele>132.75</ele><time>2026-05-03T13:03:58.109Z</time></trkpt><trkpt lat="46.1086608" lon="13.4744382"><ele>132.5</ele><time>2026-05-03T13:03:59.11Z</time></trkpt><trkpt lat="46.1088007" lon="13.4744703"><ele>132.25</ele><time>2026-05-03T13:04:00.109Z</time></trkpt><trkpt lat="46.1089318" lon="13.4745173"><ele>132.0</ele><time>2026-05-03T13:04:01.11Z</time></trkpt><trkpt lat="46.1090528" lon="13.4745926"><ele>131.75</ele><time>2026-05-03T13:04:02.11Z</time></trkpt><trkpt lat="46.109167" lon="13.4746829"><ele>131.5</ele><time>2026-05-03T13:04:03.109Z</time></trkpt><trkpt lat="46.1092825" lon="13.4747874"><ele>131.25</ele><time>2026-05-03T13:04:04.109Z</time></trkpt><trkpt lat="46.1093997" lon="13.4749001"><ele>131.0</ele><time>2026-05-03T13:04:05.11Z</time></trkpt><trkpt lat="46.1095231" lon="13.4750227"><ele>131.0</ele><time>2026-05-03T13:04:06.11Z</time></trkpt><trkpt lat="46.1096451" lon="13.4751526"><ele>131.0</ele><time>2026-05-03T13:04:07.11Z</time></trkpt><trkpt lat="46.1097655" lon="13.475281"><ele>131.0</ele><time>2026-05-03T13:04:08.11Z</time></trkpt><trkpt lat="46.1098901" lon="13.4754012"><ele>132.5</ele><time>2026-05-03T13:04:09.11Z</time></trkpt><trkpt lat="46.1100152" lon="13.4755148"><ele>134.0</ele><time>2026-05-03T13:04:10.11Z</time></trkpt><trkpt lat="46.1101348" lon="13.4756231"><ele>135.5</ele><time>2026-05-03T13:04:11.11Z</time></trkpt><trkpt lat="46.1102387" lon="13.475742"><ele>137.0</ele><time>2026-05-03T13:04:12.11Z</time></trkpt><trkpt lat="46.1103182" lon="13.475869"><ele>137.0</ele><time>2026-05-03T13:04:13.11Z</time></trkpt><trkpt lat="46.1103822" lon="13.4760156"><ele>137.0</ele><time>2026-05-03T13:04:14.11Z</time></trkpt><trkpt lat="46.1104254" lon="13.476186"><ele>137.0</ele><time>2026-05-03T13:04:15.11Z</time></trkpt><trkpt lat="46.1104658" lon="13.476339"><ele>137.0</ele><time>2026-05-03T13:04:16.11Z</time></trkpt><trkpt lat="46.1105135" lon="13.4764812"><ele>136.5</ele><time>2026-05-03T13:04:17.11Z</time></trkpt><trkpt lat="46.1105816" lon="13.4766087"><ele>136.0</ele><time>2026-05-03T13:04:18.109Z</time></trkpt><trkpt lat="46.1106751" lon="13.4767148"><ele>135.5</ele><time>2026-05-03T13:04:19.11Z</time></trkpt><trkpt lat="46.1107942" lon="13.4768045"><ele>135.0</ele><time>2026-05-03T13:04:20.11Z</time></trkpt><trkpt lat="46.1109066" lon="13.4769039"><ele>136.0</ele><time>2026-05-03T13:04:21.11Z</time></trkpt><trkpt lat="46.1110196" lon="13.477"><ele>137.0</ele><time>2026-05-03T13:04:22.109Z</time></trkpt><trkpt lat="46.1111221" lon="13.4770821"><ele>138.0</ele><time>2026-05-03T13:04:23.11Z</time></trkpt><trkpt lat="46.1112208" lon="13.4771464"><ele>139.0</ele><time>2026-05-03T13:04:24.11Z</time></trkpt><trkpt lat="46.1113129" lon="13.4771969"><ele>139.0</ele><time>2026-05-03T13:04:25.109Z</time></trkpt><trkpt lat="46.1114012" lon="13.4772381"><ele>139.0</ele><time>2026-05-03T13:04:26.11Z</time></trkpt><trkpt lat="46.1114818" lon="13.4772723"><ele>139.0</ele><time>2026-05-03T13:04:27.11Z</time></trkpt><trkpt lat="46.1115542" lon="13.4773049"><ele>139.0</ele><time>2026-05-03T13:04:28.11Z</time></trkpt><trkpt lat="46.111618" lon="13.4773352"><ele>139.0</ele><time>2026-05-03T13:04:29.109Z</time></trkpt><trkpt lat="46.1117089" lon="13.4773795"><ele>139.0</ele><time>2026-05-03T13:04:31.109Z</time></trkpt><trkpt lat="46.1117731" lon="13.4774748"><ele>140.16666666666669</ele><time>2026-05-03T13:04:38.109Z</time></trkpt><trkpt lat="46.1117769" lon="13.4776077"><ele>141.33333333333334</ele><time>2026-05-03T13:04:40.109Z</time></trkpt><trkpt lat="46.1117595" lon="13.4777084"><ele>142.5</ele><time>2026-05-03T13:04:41.11Z</time></trkpt><trkpt lat="46.1117266" lon="13.4778263"><ele>143.66666666666666</ele><time>2026-05-03T13:04:42.109Z</time></trkpt><trkpt lat="46.1116971" lon="13.4779496"><ele>144.83333333333331</ele><time>2026-05-03T13:04:43.11Z</time></trkpt><trkpt lat="46.1116712" lon="13.4780831"><ele>146.0</ele><time>2026-05-03T13:04:44.11Z</time></trkpt><trkpt lat="46.1116503" lon="13.4782242"><ele>146.0</ele><time>2026-05-03T13:04:45.11Z</time></trkpt><trkpt lat="46.1116182" lon="13.4783682"><ele>146.0</ele><time>2026-05-03T13:04:46.109Z</time></trkpt><trkpt lat="46.1115862" lon="13.4785248"><ele>146.0</ele><time>2026-05-03T13:04:47.109Z</time></trkpt><trkpt lat="46.1115552" lon="13.478683"><ele>146.0</ele><time>2026-05-03T13:04:48.11Z</time></trkpt><trkpt lat="46.1115204" lon="13.4788472"><ele>144.25</ele><time>2026-05-03T13:04:49.11Z</time></trkpt><trkpt lat="46.1114876" lon="13.479022"><ele>142.5</ele><time>2026-05-03T13:04:50.11Z</time></trkpt><trkpt lat="46.1114632" lon="13.4792024"><ele>140.75</ele><time>2026-05-03T13:04:51.11Z</time></trkpt><trkpt lat="46.1114609" lon="13.4794033"><ele>139.0</ele><time>2026-05-03T13:04:52.11Z</time></trkpt><trkpt lat="46.1114606" lon="13.4796149"><ele>139.0</ele><time>2026-05-03T13:04:53.109Z</time></trkpt><trkpt lat="46.1114655" lon="13.4798405"><ele>139.0</ele><time>2026-05-03T13:04:54.11Z</time></trkpt><trkpt lat="46.1114677" lon="13.4800611"><ele>139.0</ele><time>2026-05-03T13:04:55.109Z</time></trkpt><trkpt lat="46.1114738" lon="13.4802775"><ele>138.33333333333334</ele><time>2026-05-03T13:04:56.11Z</time></trkpt><trkpt lat="46.1114847" lon="13.4805012"><ele>137.66666666666666</ele><time>2026-05-03T13:04:57.11Z</time></trkpt><trkpt lat="46.1114938" lon="13.4807329"><ele>137.0</ele><time>2026-05-03T13:04:58.11Z</time></trkpt><trkpt lat="46.111502" lon="13.4809633"><ele>137.0</ele><time>2026-05-03T13:04:59.109Z</time></trkpt><trkpt lat="46.1115039" lon="13.4811926"><ele>137.0</ele><time>2026-05-03T13:05:00.109Z</time></trkpt><trkpt lat="46.1115091" lon="13.4814215"><ele>137.0</ele><time>2026-05-03T13:05:01.109Z</time></trkpt><trkpt lat="46.1115171" lon="13.4816496"><ele>137.0</ele><time>2026-05-03T13:05:02.11Z</time></trkpt><trkpt lat="46.1115307" lon="13.4818828"><ele>137.0</ele><time>2026-05-03T13:05:03.11Z</time></trkpt><trkpt lat="46.1115366" lon="13.4821189"><ele>137.0</ele><time>2026-05-03T13:05:04.11Z</time></trkpt><trkpt lat="46.1115474" lon="13.4823526"><ele>140.0</ele><time>2026-05-03T13:05:05.11Z</time></trkpt><trkpt lat="46.1115767" lon="13.4825823"><ele>143.0</ele><time>2026-05-03T13:05:06.11Z</time></trkpt><trkpt lat="46.1116249" lon="13.4828116"><ele>146.0</ele><time>2026-05-03T13:05:07.11Z</time></trkpt><trkpt lat="46.1116921" lon="13.4830368"><ele>146.0</ele><time>2026-05-03T13:05:08.11Z</time></trkpt><trkpt lat="46.111766" lon="13.4832652"><ele>146.0</ele><time>2026-05-03T13:05:09.11Z</time></trkpt><trkpt lat="46.1118375" lon="13.4834927"><ele>146.0</ele><time>2026-05-03T13:05:10.11Z</time></trkpt><trkpt lat="46.1119093" lon="13.4837143"><ele>145.33333333333331</ele><time>2026-05-03T13:05:11.11Z</time></trkpt><trkpt lat="46.1119852" lon="13.4839232"><ele>144.66666666666666</ele><time>2026-05-03T13:05:12.11Z</time></trkpt><trkpt lat="46.1120735" lon="13.4841237"><ele>144.0</ele><time>2026-05-03T13:05:13.11Z</time></trkpt><trkpt lat="46.1121936" lon="13.4842805"><ele>144.0</ele><time>2026-05-03T13:05:14.11Z</time></trkpt><trkpt lat="46.1123224" lon="13.4844196"><ele>144.0</ele><time>2026-05-03T13:05:15.109Z</time></trkpt><trkpt lat="46.1124618" lon="13.4845378"><ele>144.0</ele><time>2026-05-03T13:05:16.109Z</time></trkpt><trkpt lat="46.1126008" lon="13.4846684"><ele>145.0</ele><time>2026-05-03T13:05:17.11Z</time></trkpt><trkpt lat="46.112747" lon="13.4847935"><ele>146.0</ele><time>2026-05-03T13:05:18.11Z</time></trkpt><trkpt lat="46.1128883" lon="13.4849211"><ele>147.0</ele><time>2026-05-03T13:05:19.109Z</time></trkpt><trkpt lat="46.113019" lon="13.4850512"><ele>147.0</ele><time>2026-05-03T13:05:20.109Z</time></trkpt><trkpt lat="46.1131431" lon="13.4851905"><ele>147.0</ele><time>2026-05-03T13:05:21.109Z</time></trkpt><trkpt lat="46.113256" lon="13.4853587"><ele>147.0</ele><time>2026-05-03T13:05:22.11Z</time></trkpt><trkpt lat="46.1133576" lon="13.4855485"><ele>147.0</ele><time>2026-05-03T13:05:23.109Z</time></trkpt><trkpt lat="46.1134412" lon="13.4857535"><ele>147.0</ele><time>2026-05-03T13:05:24.109Z</time></trkpt><trkpt lat="46.1135121" lon="13.4859639"><ele>147.0</ele><time>2026-05-03T13:05:25.11Z</time></trkpt><trkpt lat="46.113584" lon="13.4861703"><ele>146.0</ele><time>2026-05-03T13:05:26.109Z</time></trkpt><trkpt lat="46.1136591" lon="13.4863758"><ele>145.0</ele><time>2026-05-03T13:05:27.11Z</time></trkpt><trkpt lat="46.1137382" lon="13.4865904"><ele>144.0</ele><time>2026-05-03T13:05:28.11Z</time></trkpt><trkpt lat="46.1138175" lon="13.4868064"><ele>144.0</ele><time>2026-05-03T13:05:29.11Z</time></trkpt><trkpt lat="46.1138982" lon="13.4870082"><ele>144.0</ele><time>2026-05-03T13:05:30.109Z</time></trkpt><trkpt lat="46.1139768" lon="13.4872092"><ele>144.0</ele><time>2026-05-03T13:05:31.109Z</time></trkpt><trkpt lat="46.114049" lon="13.4874122"><ele>146.66666666666666</ele><time>2026-05-03T13:05:32.108Z</time></trkpt><trkpt lat="46.1141135" lon="13.4876186"><ele>149.33333333333331</ele><time>2026-05-03T13:05:33.109Z</time></trkpt><trkpt lat="46.1141539" lon="13.4878283"><ele>152.0</ele><time>2026-05-03T13:05:34.109Z</time></trkpt><trkpt lat="46.1141794" lon="13.4880334"><ele>152.0</ele><time>2026-05-03T13:05:35.108Z</time></trkpt><trkpt lat="46.1141938" lon="13.4882282"><ele>152.0</ele><time>2026-05-03T13:05:36.109Z</time></trkpt><trkpt lat="46.1141954" lon="13.4884222"><ele>152.0</ele><time>2026-05-03T13:05:37.109Z</time></trkpt><trkpt lat="46.1141985" lon="13.4885954"><ele>152.0</ele><time>2026-05-03T13:05:38.109Z</time></trkpt><trkpt lat="46.1142186" lon="13.4887725"><ele>151.0</ele><time>2026-05-03T13:05:39.108Z</time></trkpt><trkpt lat="46.1142537" lon="13.4889674"><ele>150.0</ele><time>2026-05-03T13:05:40.108Z</time></trkpt><trkpt lat="46.1142996" lon="13.4891781"><ele>149.0</ele><time>2026-05-03T13:05:41.109Z</time></trkpt><trkpt lat="46.1143503" lon="13.489391"><ele>148.0</ele><time>2026-05-03T13:05:42.109Z</time></trkpt><trkpt lat="46.1143992" lon="13.4896128"><ele>146.66666666666669</ele><time>2026-05-03T13:05:43.109Z</time></trkpt><trkpt lat="46.1144606" lon="13.4898304"><ele>145.33333333333334</ele><time>2026-05-03T13:05:44.109Z</time></trkpt><trkpt lat="46.1145296" lon="13.4900404"><ele>144.0</ele><time>2026-05-03T13:05:45.108Z</time></trkpt><trkpt lat="46.1145995" lon="13.4902429"><ele>143.33333333333334</ele><time>2026-05-03T13:05:46.109Z</time></trkpt><trkpt lat="46.1146736" lon="13.4904364"><ele>142.66666666666669</ele><time>2026-05-03T13:05:47.109Z</time></trkpt><trkpt lat="46.1147578" lon="13.4906351"><ele>142.0</ele><time>2026-05-03T13:05:48.109Z</time></trkpt><trkpt lat="46.114846" lon="13.4908391"><ele>143.66666666666669</ele><time>2026-05-03T13:05:49.109Z</time></trkpt><trkpt lat="46.1149371" lon="13.4910401"><ele>145.33333333333334</ele><time>2026-05-03T13:05:50.109Z</time></trkpt><trkpt lat="46.1150331" lon="13.4912367"><ele>147.0</ele><time>2026-05-03T13:05:51.108Z</time></trkpt><trkpt lat="46.1151209" lon="13.4914256"><ele>147.0</ele><time>2026-05-03T13:05:52.109Z</time></trkpt><trkpt lat="46.1152136" lon="13.4915989"><ele>147.0</ele><time>2026-05-03T13:05:53.109Z</time></trkpt><trkpt lat="46.1153059" lon="13.4917641"><ele>147.0</ele><time>2026-05-03T13:05:54.109Z</time></trkpt><trkpt lat="46.1154068" lon="13.4919071"><ele>147.0</ele><time>2026-05-03T13:05:55.109Z</time></trkpt><trkpt lat="46.1155143" lon="13.4920304"><ele>147.0</ele><time>2026-05-03T13:05:56.109Z</time></trkpt><trkpt lat="46.1156454" lon="13.4921397"><ele>147.0</ele><time>2026-05-03T13:05:57.108Z</time></trkpt><trkpt lat="46.115789" lon="13.4922376"><ele>147.0</ele><time>2026-05-03T13:05:58.108Z</time></trkpt><trkpt lat="46.115942" lon="13.4923393"><ele>147.0</ele><time>2026-05-03T13:05:59.108Z</time></trkpt><trkpt lat="46.1160986" lon="13.4924341"><ele>147.0</ele><time>2026-05-03T13:06:00.109Z</time></trkpt><trkpt lat="46.1162572" lon="13.4925241"><ele>147.0</ele><time>2026-05-03T13:06:01.109Z</time></trkpt><trkpt lat="46.1164151" lon="13.4926018"><ele>148.33333333333334</ele><time>2026-05-03T13:06:02.109Z</time></trkpt><trkpt lat="46.1165793" lon="13.4926669"><ele>149.66666666666669</ele><time>2026-05-03T13:06:03.108Z</time></trkpt><trkpt lat="46.1167446" lon="13.4927335"><ele>151.0</ele><time>2026-05-03T13:06:04.109Z</time></trkpt><trkpt lat="46.1169117" lon="13.4927936"><ele>151.0</ele><time>2026-05-03T13:06:05.109Z</time></trkpt><trkpt lat="46.1170775" lon="13.4928531"><ele>151.0</ele><time>2026-05-03T13:06:06.109Z</time></trkpt><trkpt lat="46.1172449" lon="13.4929165"><ele>151.0</ele><time>2026-05-03T13:06:07.109Z</time></trkpt><trkpt lat="46.1174173" lon="13.4929785"><ele>150.33333333333334</ele><time>2026-05-03T13:06:08.109Z</time></trkpt><trkpt lat="46.1175889" lon="13.4930404"><ele>149.66666666666666</ele><time>2026-05-03T13:06:09.109Z</time></trkpt><trkpt lat="46.1177585" lon="13.4931059"><ele>149.0</ele><time>2026-05-03T13:06:10.108Z</time></trkpt><trkpt lat="46.1179267" lon="13.4931708"><ele>149.0</ele><time>2026-05-03T13:06:11.109Z</time></trkpt><trkpt lat="46.1180889" lon="13.4932289"><ele>149.0</ele><time>2026-05-03T13:06:12.109Z</time></trkpt><trkpt lat="46.1182426" lon="13.4932846"><ele>149.0</ele><time>2026-05-03T13:06:13.109Z</time></trkpt><trkpt lat="46.1183891" lon="13.4933359"><ele>149.25</ele><time>2026-05-03T13:06:14.109Z</time></trkpt><trkpt lat="46.1185169" lon="13.493379"><ele>149.5</ele><time>2026-05-03T13:06:15.109Z</time></trkpt><trkpt lat="46.1186268" lon="13.4934316"><ele>149.75</ele><time>2026-05-03T13:06:16.108Z</time></trkpt><trkpt lat="46.1187212" lon="13.4935065"><ele>150.0</ele><time>2026-05-03T13:06:17.109Z</time></trkpt><trkpt lat="46.1187944" lon="13.4936328"><ele>149.0</ele><time>2026-05-03T13:06:18.109Z</time></trkpt><trkpt lat="46.1188304" lon="13.4937774"><ele>148.0</ele><time>2026-05-03T13:06:19.108Z</time></trkpt><trkpt lat="46.1188272" lon="13.4939181"><ele>147.0</ele><time>2026-05-03T13:06:20.109Z</time></trkpt><trkpt lat="46.1187884" lon="13.4940631"><ele>146.0</ele><time>2026-05-03T13:06:21.108Z</time></trkpt><trkpt lat="46.1187255" lon="13.4941977"><ele>145.0</ele><time>2026-05-03T13:06:22.109Z</time></trkpt><trkpt lat="46.1186283" lon="13.4943277"><ele>145.0</ele><time>2026-05-03T13:06:23.109Z</time></trkpt><trkpt lat="46.118532" lon="13.4944569"><ele>145.0</ele><time>2026-05-03T13:06:24.108Z</time></trkpt><trkpt lat="46.1184341" lon="13.4945873"><ele>145.0</ele><time>2026-05-03T13:06:25.109Z</time></trkpt><trkpt lat="46.1183491" lon="13.4947059"><ele>145.0</ele><time>2026-05-03T13:06:26.108Z</time></trkpt><trkpt lat="46.1182733" lon="13.4948086"><ele>144.6</ele><time>2026-05-03T13:06:27.109Z</time></trkpt><trkpt lat="46.1182179" lon="13.4948911"><ele>144.2</ele><time>2026-05-03T13:06:28.109Z</time></trkpt><trkpt lat="46.1181292" lon="13.4949467"><ele>143.8</ele><time>2026-05-03T13:06:30.108Z</time></trkpt><trkpt lat="46.1180882" lon="13.4948342"><ele>143.4</ele><time>2026-05-03T13:06:32.108Z</time></trkpt><trkpt lat="46.1180422" lon="13.4947127"><ele>143.0</ele><time>2026-05-03T13:06:33.108Z</time></trkpt><trkpt lat="46.1179809" lon="13.4945974"><ele>143.20000000000002</ele><time>2026-05-03T13:06:34.109Z</time></trkpt><trkpt lat="46.1179128" lon="13.4944932"><ele>143.4</ele><time>2026-05-03T13:06:35.108Z</time></trkpt><trkpt lat="46.117838" lon="13.4944075"><ele>143.60000000000002</ele><time>2026-05-03T13:06:36.108Z</time></trkpt><trkpt lat="46.1177613" lon="13.4943268"><ele>143.8</ele><time>2026-05-03T13:06:37.109Z</time></trkpt><trkpt lat="46.11769" lon="13.4942376"><ele>144.0</ele><time>2026-05-03T13:06:38.109Z</time></trkpt><trkpt lat="46.1176155" lon="13.4941489"><ele>144.0</ele><time>2026-05-03T13:06:39.109Z</time></trkpt><trkpt lat="46.1175369" lon="13.4940552"><ele>144.0</ele><time>2026-05-03T13:06:40.108Z</time></trkpt><trkpt lat="46.1174511" lon="13.4939563"><ele>144.0</ele><time>2026-05-03T13:06:41.108Z</time></trkpt><trkpt lat="46.1173581" lon="13.4938701"><ele>144.0</ele><time>2026-05-03T13:06:42.109Z</time></trkpt><trkpt lat="46.1172614" lon="13.4937973"><ele>144.0</ele><time>2026-05-03T13:06:43.109Z</time></trkpt><trkpt lat="46.1171618" lon="13.4937293"><ele>144.2</ele><time>2026-05-03T13:06:44.109Z</time></trkpt><trkpt lat="46.1170575" lon="13.4936657"><ele>144.4</ele><time>2026-05-03T13:06:45.108Z</time></trkpt><trkpt lat="46.1169638" lon="13.4936098"><ele>144.6</ele><time>2026-05-03T13:06:46.108Z</time></trkpt><trkpt lat="46.1168761" lon="13.4935653"><ele>144.8</ele><time>2026-05-03T13:06:47.109Z</time></trkpt><trkpt lat="46.1167895" lon="13.4935236"><ele>145.0</ele><time>2026-05-03T13:06:48.109Z</time></trkpt><trkpt lat="46.1167146" lon="13.4934952"><ele>145.0</ele><time>2026-05-03T13:06:49.109Z</time></trkpt><trkpt lat="46.1166525" lon="13.4934595"><ele>145.0</ele><time>2026-05-03T13:06:50.109Z</time></trkpt><trkpt lat="46.1165358" lon="13.4934087"><ele>145.0</ele><time>2026-05-03T13:06:52.109Z</time></trkpt><trkpt lat="46.1164311" lon="13.4933926"><ele>145.0</ele><time>2026-05-03T13:06:54.109Z</time></trkpt><trkpt lat="46.1163566" lon="13.4933926"><ele>145.0</ele><time>2026-05-03T13:06:56.108Z</time></trkpt><trkpt lat="46.1162609" lon="13.4933988"><ele>144.4</ele><time>2026-05-03T13:06:59.109Z</time></trkpt><trkpt lat="46.1161686" lon="13.4933724"><ele>143.8</ele><time>2026-05-03T13:07:01.109Z</time></trkpt><trkpt lat="46.1160463" lon="13.4933031"><ele>143.2</ele><time>2026-05-03T13:07:03.109Z</time></trkpt><trkpt lat="46.1159742" lon="13.4932655"><ele>142.6</ele><time>2026-05-03T13:07:04.109Z</time></trkpt><trkpt lat="46.115889" lon="13.4932364"><ele>142.0</ele><time>2026-05-03T13:07:05.108Z</time></trkpt><trkpt lat="46.1157979" lon="13.4932019"><ele>141.66666666666669</ele><time>2026-05-03T13:07:06.109Z</time></trkpt><trkpt lat="46.1157139" lon="13.4931622"><ele>141.33333333333334</ele><time>2026-05-03T13:07:07.108Z</time></trkpt><trkpt lat="46.115631" lon="13.4931124"><ele>141.0</ele><time>2026-05-03T13:07:08.109Z</time></trkpt><trkpt lat="46.1155557" lon="13.4930676"><ele>140.66666666666666</ele><time>2026-05-03T13:07:09.109Z</time></trkpt><trkpt lat="46.1154863" lon="13.4930337"><ele>140.33333333333331</ele><time>2026-05-03T13:07:10.109Z</time></trkpt><trkpt lat="46.1154237" lon="13.4930229"><ele>140.0</ele><time>2026-05-03T13:07:11.109Z</time></trkpt><trkpt lat="46.1153082" lon="13.4930728"><ele>140.0</ele><time>2026-05-03T13:07:13.108Z</time></trkpt><trkpt lat="46.1152133" lon="13.4931377"><ele>140.0</ele><time>2026-05-03T13:07:15.108Z</time></trkpt><trkpt lat="46.1151051" lon="13.4931883"><ele>140.0</ele><time>2026-05-03T13:07:17.109Z</time></trkpt><trkpt lat="46.1150344" lon="13.4932301"><ele>140.0</ele><time>2026-05-03T13:07:18.109Z</time></trkpt><trkpt lat="46.1149811" lon="13.4932792"><ele>140.0</ele><time>2026-05-03T13:07:19.109Z</time></trkpt><trkpt lat="46.1148706" lon="13.4933494"><ele>139.66666666666666</ele><time>2026-05-03T13:07:21.109Z</time></trkpt><trkpt lat="46.1148074" lon="13.4933507"><ele>139.33333333333331</ele><time>2026-05-03T13:07:22.108Z</time></trkpt><trkpt lat="46.1147467" lon="13.4933187"><ele>139.0</ele><time>2026-05-03T13:07:23.109Z</time></trkpt><trkpt lat="46.1146539" lon="13.4932103"><ele>138.66666666666666</ele><time>2026-05-03T13:07:25.109Z</time></trkpt><trkpt lat="46.1145987" lon="13.4931323"><ele>138.33333333333334</ele><time>2026-05-03T13:07:28.108Z</time></trkpt><trkpt lat="46.1145929" lon="13.4932244"><ele>138.0</ele><time>2026-05-03T13:07:37.109Z</time></trkpt><trkpt lat="46.1146925" lon="13.493287"><ele>138.0</ele><time>2026-05-03T13:07:39.109Z</time></trkpt><trkpt lat="46.114759" lon="13.4933414"><ele>138.0</ele><time>2026-05-03T13:07:40.109Z</time></trkpt><trkpt lat="46.1148168" lon="13.493383"><ele>138.0</ele><time>2026-05-03T13:07:41.108Z</time></trkpt><trkpt lat="46.1148841" lon="13.4934471"><ele>138.0</ele><time>2026-05-03T13:07:42.109Z</time></trkpt><trkpt lat="46.1149388" lon="13.49352"><ele>138.0</ele><time>2026-05-03T13:07:43.109Z</time></trkpt><trkpt lat="46.1150084" lon="13.4936222"><ele>138.0</ele><time>2026-05-03T13:07:45.109Z</time></trkpt><trkpt lat="46.1150026" lon="13.493714"><ele>137.83333333333334</ele><time>2026-05-03T13:07:47.108Z</time></trkpt><trkpt lat="46.1149116" lon="13.493774"><ele>137.66666666666666</ele><time>2026-05-03T13:07:49.109Z</time></trkpt><trkpt lat="46.1148432" lon="13.4938165"><ele>137.5</ele><time>2026-05-03T13:07:50.109Z</time></trkpt><trkpt lat="46.11478" lon="13.4938599"><ele>137.33333333333331</ele><time>2026-05-03T13:07:51.108Z</time></trkpt><trkpt lat="46.1147037" lon="13.4939215"><ele>137.16666666666666</ele><time>2026-05-03T13:07:53.109Z</time></trkpt><trkpt lat="46.114722" lon="13.4940394"><ele>137.0</ele><time>2026-05-03T13:07:56.109Z</time></trkpt><trkpt lat="46.1147596" lon="13.4941779"><ele>137.0</ele><time>2026-05-03T13:07:58.108Z</time></trkpt><trkpt lat="46.1147684" lon="13.4942714"><ele>137.0</ele><time>2026-05-03T13:07:59.109Z</time></trkpt><trkpt lat="46.1147881" lon="13.494427"><ele>137.0</ele><time>2026-05-03T13:08:01.109Z</time></trkpt><trkpt lat="46.1148041" lon="13.4945238"><ele>137.0</ele><time>2026-05-03T13:08:02.109Z</time></trkpt><trkpt lat="46.1148167" lon="13.4946225"><ele>137.0</ele><time>2026-05-03T13:08:03.109Z</time></trkpt><trkpt lat="46.1148175" lon="13.4947354"><ele>137.0</ele><time>2026-05-03T13:08:04.108Z</time></trkpt><trkpt lat="46.1148168" lon="13.4948406"><ele>137.4</ele><time>2026-05-03T13:08:05.108Z</time></trkpt><trkpt lat="46.1148135" lon="13.4950177"><ele>137.79999999999998</ele><time>2026-05-03T13:08:07.109Z</time></trkpt><trkpt lat="46.114809" lon="13.4951573"><ele>138.2</ele><time>2026-05-03T13:08:09.109Z</time></trkpt><trkpt lat="46.114842" lon="13.4952485"><ele>138.6</ele><time>2026-05-03T13:08:11.108Z</time></trkpt><trkpt lat="46.1148824" lon="13.4953406"><ele>139.0</ele><time>2026-05-03T13:08:13.109Z</time></trkpt><trkpt lat="46.1148835" lon="13.495461"><ele>139.33333333333334</ele><time>2026-05-03T13:08:16.109Z</time></trkpt><trkpt lat="46.1148691" lon="13.4955569"><ele>139.66666666666669</ele><time>2026-05-03T13:08:18.109Z</time></trkpt><trkpt lat="46.1148318" lon="13.4956492"><ele>140.0</ele><time>2026-05-03T13:08:20.109Z</time></trkpt><trkpt lat="46.1147814" lon="13.495756"><ele>140.33333333333334</ele><time>2026-05-03T13:08:22.108Z</time></trkpt><trkpt lat="46.114761" lon="13.4958579"><ele>140.66666666666666</ele><time>2026-05-03T13:08:24.108Z</time></trkpt><trkpt lat="46.1147671" lon="13.4959936"><ele>141.0</ele><time>2026-05-03T13:08:26.108Z</time></trkpt><trkpt lat="46.1147422" lon="13.4961349"><ele>140.66666666666666</ele><time>2026-05-03T13:08:28.108Z</time></trkpt><trkpt lat="46.1147216" lon="13.4962708"><ele>140.33333333333334</ele><time>2026-05-03T13:08:30.108Z</time></trkpt><trkpt lat="46.1147076" lon="13.4963845"><ele>140.0</ele><time>2026-05-03T13:08:32.109Z</time></trkpt><trkpt lat="46.1147056" lon="13.4965166"><ele>139.66666666666669</ele><time>2026-05-03T13:08:34.109Z</time></trkpt><trkpt lat="46.1146958" lon="13.4966334"><ele>139.33333333333334</ele><time>2026-05-03T13:08:36.109Z</time></trkpt><trkpt lat="46.1146636" lon="13.4967486"><ele>139.0</ele><time>2026-05-03T13:08:38.108Z</time></trkpt><trkpt lat="46.1146546" lon="13.4968808"><ele>139.0</ele><time>2026-05-03T13:08:40.109Z</time></trkpt><trkpt lat="46.1146566" lon="13.4969903"><ele>139.0</ele><time>2026-05-03T13:08:42.108Z</time></trkpt><trkpt lat="46.1146183" lon="13.4970685"><ele>139.0</ele><time>2026-05-03T13:08:45.108Z</time></trkpt><trkpt lat="46.1146066" lon="13.4971737"><ele>139.0</ele><time>2026-05-03T13:08:48.109Z</time></trkpt><trkpt lat="46.1145858" lon="13.4973073"><ele>139.0</ele><time>2026-05-03T13:08:51.108Z</time></trkpt><trkpt lat="46.1145871" lon="13.4974131"><ele>139.0</ele><time>2026-05-03T13:08:53.109Z</time></trkpt><trkpt lat="46.1146026" lon="13.4975422"><ele>139.33333333333334</ele><time>2026-05-03T13:08:56.109Z</time></trkpt><trkpt lat="46.1145884" lon="13.4976373"><ele>139.66666666666669</ele><time>2026-05-03T13:08:58.109Z</time></trkpt><trkpt lat="46.1145629" lon="13.4977506"><ele>140.0</ele><time>2026-05-03T13:09:00.109Z</time></trkpt><trkpt lat="46.1145624" lon="13.4978797"><ele>140.33333333333334</ele><time>2026-05-03T13:09:02.108Z</time></trkpt><trkpt lat="46.1145898" lon="13.4980037"><ele>140.66666666666666</ele><time>2026-05-03T13:09:04.109Z</time></trkpt><trkpt lat="46.1145834" lon="13.4981722"><ele>141.0</ele><time>2026-05-03T13:09:06.109Z</time></trkpt><trkpt lat="46.1145689" lon="13.4982652"><ele>141.0</ele><time>2026-05-03T13:09:07.109Z</time></trkpt><trkpt lat="46.1145528" lon="13.4983628"><ele>141.0</ele><time>2026-05-03T13:09:08.109Z</time></trkpt><trkpt lat="46.1145379" lon="13.4984584"><ele>141.0</ele><time>2026-05-03T13:09:09.109Z</time></trkpt><trkpt lat="46.114523" lon="13.4985634"><ele>141.0</ele><time>2026-05-03T13:09:10.109Z</time></trkpt><trkpt lat="46.1145093" lon="13.4986716"><ele>141.0</ele><time>2026-05-03T13:09:11.108Z</time></trkpt><trkpt lat="46.1144958" lon="13.4987806"><ele>141.0</ele><time>2026-05-03T13:09:12.109Z</time></trkpt><trkpt lat="46.1144811" lon="13.4988814"><ele>141.0</ele><time>2026-05-03T13:09:13.109Z</time></trkpt><trkpt lat="46.1144611" lon="13.4990407"><ele>141.0</ele><time>2026-05-03T13:09:15.109Z</time></trkpt><trkpt lat="46.1144825" lon="13.4991785"><ele>141.0</ele><time>2026-05-03T13:09:17.108Z</time></trkpt><trkpt lat="46.1145099" lon="13.4993109"><ele>141.0</ele><time>2026-05-03T13:09:19.109Z</time></trkpt><trkpt lat="46.1144935" lon="13.4994253"><ele>141.0</ele><time>2026-05-03T13:09:21.108Z</time></trkpt><trkpt lat="46.1144288" lon="13.4995992"><ele>141.0</ele><time>2026-05-03T13:09:23.107Z</time></trkpt><trkpt lat="46.1144028" lon="13.4996876"><ele>141.28571428571428</ele><time>2026-05-03T13:09:24.108Z</time></trkpt><trkpt lat="46.1143902" lon="13.4997805"><ele>141.57142857142856</ele><time>2026-05-03T13:09:25.108Z</time></trkpt><trkpt lat="46.1143678" lon="13.4998782"><ele>141.85714285714283</ele><time>2026-05-03T13:09:26.108Z</time></trkpt><trkpt lat="46.1143475" lon="13.4999894"><ele>142.14285714285714</ele><time>2026-05-03T13:09:27.108Z</time></trkpt><trkpt lat="46.1143252" lon="13.5000865"><ele>142.42857142857142</ele><time>2026-05-03T13:09:28.107Z</time></trkpt><trkpt lat="46.1143164" lon="13.5001786"><ele>142.7142857142857</ele><time>2026-05-03T13:09:29.108Z</time></trkpt><trkpt lat="46.1143063" lon="13.5002704"><ele>143.0</ele><time>2026-05-03T13:09:30.108Z</time></trkpt><trkpt lat="46.1142759" lon="13.5004653"><ele>143.5</ele><time>2026-05-03T13:09:32.108Z</time></trkpt><trkpt lat="46.1142608" lon="13.5005894"><ele>144.0</ele><time>2026-05-03T13:09:33.108Z</time></trkpt><trkpt lat="46.1142512" lon="13.5007188"><ele>144.5</ele><time>2026-05-03T13:09:34.108Z</time></trkpt><trkpt lat="46.1142377" lon="13.5008497"><ele>145.0</ele><time>2026-05-03T13:09:35.108Z</time></trkpt><trkpt lat="46.114226" lon="13.5009742"><ele>145.5</ele><time>2026-05-03T13:09:36.108Z</time></trkpt><trkpt lat="46.1142038" lon="13.5010967"><ele>146.0</ele><time>2026-05-03T13:09:37.108Z</time></trkpt><trkpt lat="46.1141877" lon="13.5012256"><ele>146.2</ele><time>2026-05-03T13:09:38.108Z</time></trkpt><trkpt lat="46.114177" lon="13.5013431"><ele>146.39999999999998</ele><time>2026-05-03T13:09:39.108Z</time></trkpt><trkpt lat="46.1141568" lon="13.5014746"><ele>146.6</ele><time>2026-05-03T13:09:40.108Z</time></trkpt><trkpt lat="46.114133" lon="13.5016035"><ele>146.79999999999998</ele><time>2026-05-03T13:09:41.108Z</time></trkpt><trkpt lat="46.1141147" lon="13.5017468"><ele>147.0</ele><time>2026-05-03T13:09:42.107Z</time></trkpt><trkpt lat="46.1140837" lon="13.5018907"><ele>147.4</ele><time>2026-05-03T13:09:43.108Z</time></trkpt><trkpt lat="46.1140561" lon="13.5020434"><ele>147.79999999999998</ele><time>2026-05-03T13:09:44.108Z</time></trkpt><trkpt lat="46.1140257" lon="13.5022011"><ele>148.2</ele><time>2026-05-03T13:09:45.108Z</time></trkpt><trkpt lat="46.1139942" lon="13.5023515"><ele>148.6</ele><time>2026-05-03T13:09:46.108Z</time></trkpt><trkpt lat="46.1139616" lon="13.5025142"><ele>149.0</ele><time>2026-05-03T13:09:47.108Z</time></trkpt><trkpt lat="46.1139338" lon="13.5026793"><ele>149.0</ele><time>2026-05-03T13:09:48.108Z</time></trkpt><trkpt lat="46.1139007" lon="13.5028418"><ele>149.0</ele><time>2026-05-03T13:09:49.108Z</time></trkpt><trkpt lat="46.11387" lon="13.5030051"><ele>149.0</ele><time>2026-05-03T13:09:50.108Z</time></trkpt><trkpt lat="46.1138439" lon="13.5031599"><ele>149.0</ele><time>2026-05-03T13:09:51.107Z</time></trkpt><trkpt lat="46.1138164" lon="13.5033168"><ele>147.8</ele><time>2026-05-03T13:09:52.108Z</time></trkpt><trkpt lat="46.1137892" lon="13.503466"><ele>146.60000000000002</ele><time>2026-05-03T13:09:53.107Z</time></trkpt><trkpt lat="46.1137584" lon="13.5036121"><ele>145.4</ele><time>2026-05-03T13:09:54.108Z</time></trkpt><trkpt lat="46.1137314" lon="13.5037608"><ele>144.20000000000002</ele><time>2026-05-03T13:09:55.108Z</time></trkpt><trkpt lat="46.1137054" lon="13.5039134"><ele>143.0</ele><time>2026-05-03T13:09:56.108Z</time></trkpt><trkpt lat="46.1136819" lon="13.5040593"><ele>143.0</ele><time>2026-05-03T13:09:57.107Z</time></trkpt><trkpt lat="46.113667" lon="13.5042035"><ele>143.0</ele><time>2026-05-03T13:09:58.108Z</time></trkpt><trkpt lat="46.1136495" lon="13.504347"><ele>143.0</ele><time>2026-05-03T13:09:59.108Z</time></trkpt><trkpt lat="46.1136416" lon="13.5044961"><ele>143.0</ele><time>2026-05-03T13:10:00.107Z</time></trkpt><trkpt lat="46.1136347" lon="13.5046385"><ele>143.0</ele><time>2026-05-03T13:10:01.108Z</time></trkpt><trkpt lat="46.1136314" lon="13.5047858"><ele>143.0</ele><time>2026-05-03T13:10:02.108Z</time></trkpt><trkpt lat="46.1136338" lon="13.5049428"><ele>143.0</ele><time>2026-05-03T13:10:03.108Z</time></trkpt><trkpt lat="46.1136407" lon="13.5051024"><ele>143.0</ele><time>2026-05-03T13:10:04.108Z</time></trkpt><trkpt lat="46.1136472" lon="13.5052666"><ele>143.0</ele><time>2026-05-03T13:10:05.108Z</time></trkpt><trkpt lat="46.1136496" lon="13.5054213"><ele>143.0</ele><time>2026-05-03T13:10:06.108Z</time></trkpt><trkpt lat="46.1136585" lon="13.5055715"><ele>143.4</ele><time>2026-05-03T13:10:07.108Z</time></trkpt><trkpt lat="46.1136729" lon="13.5057246"><ele>143.8</ele><time>2026-05-03T13:10:08.108Z</time></trkpt><trkpt lat="46.1136813" lon="13.5058776"><ele>144.2</ele><time>2026-05-03T13:10:09.108Z</time></trkpt><trkpt lat="46.1136881" lon="13.5060366"><ele>144.6</ele><time>2026-05-03T13:10:10.108Z</time></trkpt><trkpt lat="46.1136967" lon="13.5061865"><ele>145.0</ele><time>2026-05-03T13:10:11.108Z</time></trkpt><trkpt lat="46.1137124" lon="13.5063395"><ele>146.0</ele><time>2026-05-03T13:10:12.108Z</time></trkpt><trkpt lat="46.1137254" lon="13.506488"><ele>147.0</ele><time>2026-05-03T13:10:13.108Z</time></trkpt><trkpt lat="46.1137318" lon="13.5066344"><ele>148.0</ele><time>2026-05-03T13:10:14.108Z</time></trkpt><trkpt lat="46.113745" lon="13.5067765"><ele>149.0</ele><time>2026-05-03T13:10:15.107Z</time></trkpt><trkpt lat="46.1137577" lon="13.506918"><ele>150.0</ele><time>2026-05-03T13:10:16.108Z</time></trkpt><trkpt lat="46.1137786" lon="13.5070625"><ele>151.0</ele><time>2026-05-03T13:10:17.108Z</time></trkpt><trkpt lat="46.1138054" lon="13.5072012"><ele>152.0</ele><time>2026-05-03T13:10:18.107Z</time></trkpt><trkpt lat="46.1138322" lon="13.5073378"><ele>153.0</ele><time>2026-05-03T13:10:19.108Z</time></trkpt><trkpt lat="46.1138647" lon="13.507472"><ele>154.0</ele><time>2026-05-03T13:10:20.108Z</time></trkpt><trkpt lat="46.1139013" lon="13.5076018"><ele>155.0</ele><time>2026-05-03T13:10:21.107Z</time></trkpt><trkpt lat="46.113945" lon="13.5077245"><ele>155.0</ele><time>2026-05-03T13:10:22.108Z</time></trkpt><trkpt lat="46.1139944" lon="13.5078444"><ele>155.0</ele><time>2026-05-03T13:10:23.108Z</time></trkpt><trkpt lat="46.1140457" lon="13.5079711"><ele>155.0</ele><time>2026-05-03T13:10:24.107Z</time></trkpt><trkpt lat="46.1140992" lon="13.5080906"><ele>155.0</ele><time>2026-05-03T13:10:25.108Z</time></trkpt><trkpt lat="46.1141576" lon="13.508208"><ele>155.0</ele><time>2026-05-03T13:10:26.108Z</time></trkpt><trkpt lat="46.1142129" lon="13.5083227"><ele>153.66666666666666</ele><time>2026-05-03T13:10:27.108Z</time></trkpt><trkpt lat="46.1142607" lon="13.5084248"><ele>152.33333333333331</ele><time>2026-05-03T13:10:28.107Z</time></trkpt><trkpt lat="46.1143062" lon="13.508502"><ele>151.0</ele><time>2026-05-03T13:10:29.108Z</time></trkpt><trkpt lat="46.1143609" lon="13.5086072"><ele>149.66666666666666</ele><time>2026-05-03T13:10:31.107Z</time></trkpt><trkpt lat="46.1143168" lon="13.5087426"><ele>148.33333333333334</ele><time>2026-05-03T13:10:34.107Z</time></trkpt><trkpt lat="46.1142598" lon="13.5088102"><ele>147.0</ele><time>2026-05-03T13:10:35.107Z</time></trkpt><trkpt lat="46.1141968" lon="13.5088868"><ele>146.66666666666666</ele><time>2026-05-03T13:10:36.108Z</time></trkpt><trkpt lat="46.1141353" lon="13.5089617"><ele>146.33333333333334</ele><time>2026-05-03T13:10:37.108Z</time></trkpt><trkpt lat="46.1140743" lon="13.5090461"><ele>146.0</ele><time>2026-05-03T13:10:38.107Z</time></trkpt><trkpt lat="46.1140122" lon="13.5091345"><ele>145.66666666666669</ele><time>2026-05-03T13:10:39.108Z</time></trkpt><trkpt lat="46.1139358" lon="13.509213"><ele>145.33333333333334</ele><time>2026-05-03T13:10:40.107Z</time></trkpt><trkpt lat="46.1138751" lon="13.5092598"><ele>145.0</ele><time>2026-05-03T13:10:41.107Z</time></trkpt><trkpt lat="46.1138204" lon="13.5093118"><ele>147.6</ele><time>2026-05-03T13:10:42.107Z</time></trkpt><trkpt lat="46.1137422" lon="13.5094409"><ele>150.2</ele><time>2026-05-03T13:10:44.108Z</time></trkpt><trkpt lat="46.1137501" lon="13.5096344"><ele>152.8</ele><time>2026-05-03T13:10:46.108Z</time></trkpt><trkpt lat="46.1137616" lon="13.5097738"><ele>155.4</ele><time>2026-05-03T13:10:47.108Z</time></trkpt><trkpt lat="46.1137738" lon="13.5099064"><ele>158.0</ele><time>2026-05-03T13:10:48.107Z</time></trkpt><trkpt lat="46.1137793" lon="13.5100229"><ele>158.8</ele><time>2026-05-03T13:10:49.108Z</time></trkpt><trkpt lat="46.1137914" lon="13.5101454"><ele>159.60000000000002</ele><time>2026-05-03T13:10:50.108Z</time></trkpt><trkpt lat="46.1138014" lon="13.5102711"><ele>160.39999999999998</ele><time>2026-05-03T13:10:51.108Z</time></trkpt><trkpt lat="46.113815" lon="13.5104042"><ele>161.2</ele><time>2026-05-03T13:10:52.108Z</time></trkpt><trkpt lat="46.1138288" lon="13.5105383"><ele>162.0</ele><time>2026-05-03T13:10:53.108Z</time></trkpt><trkpt lat="46.1138428" lon="13.5106774"><ele>162.0</ele><time>2026-05-03T13:10:54.108Z</time></trkpt><trkpt lat="46.1138562" lon="13.5108336"><ele>162.0</ele><time>2026-05-03T13:10:55.108Z</time></trkpt><trkpt lat="46.1138645" lon="13.5109864"><ele>162.0</ele><time>2026-05-03T13:10:56.107Z</time></trkpt><trkpt lat="46.1138598" lon="13.5111412"><ele>162.0</ele><time>2026-05-03T13:10:57.108Z</time></trkpt><trkpt lat="46.1138579" lon="13.5112942"><ele>162.0</ele><time>2026-05-03T13:10:58.107Z</time></trkpt><trkpt lat="46.1138592" lon="13.5114295"><ele>162.16666666666666</ele><time>2026-05-03T13:10:59.108Z</time></trkpt><trkpt lat="46.1138484" lon="13.5115552"><ele>162.33333333333334</ele><time>2026-05-03T13:11:00.107Z</time></trkpt><trkpt lat="46.1138374" lon="13.5116731"><ele>162.5</ele><time>2026-05-03T13:11:01.108Z</time></trkpt><trkpt lat="46.1138383" lon="13.5117764"><ele>162.66666666666669</ele><time>2026-05-03T13:11:02.108Z</time></trkpt><trkpt lat="46.1138705" lon="13.5118847"><ele>162.83333333333334</ele><time>2026-05-03T13:11:03.108Z</time></trkpt><trkpt lat="46.1138996" lon="13.5120078"><ele>163.0</ele><time>2026-05-03T13:11:04.108Z</time></trkpt><trkpt lat="46.1139302" lon="13.5121364"><ele>165.60000000000002</ele><time>2026-05-03T13:11:05.108Z</time></trkpt><trkpt lat="46.1139589" lon="13.5122712"><ele>168.20000000000002</ele><time>2026-05-03T13:11:06.108Z</time></trkpt><trkpt lat="46.1139887" lon="13.5123976"><ele>170.8</ele><time>2026-05-03T13:11:07.108Z</time></trkpt><trkpt lat="46.1140152" lon="13.5125208"><ele>173.4</ele><time>2026-05-03T13:11:08.108Z</time></trkpt><trkpt lat="46.1140359" lon="13.5126399"><ele>176.0</ele><time>2026-05-03T13:11:09.107Z</time></trkpt><trkpt lat="46.1140498" lon="13.5127613"><ele>176.0</ele><time>2026-05-03T13:11:10.108Z</time></trkpt><trkpt lat="46.1140593" lon="13.512894"><ele>176.0</ele><time>2026-05-03T13:11:11.108Z</time></trkpt><trkpt lat="46.1140678" lon="13.5130289"><ele>176.0</ele><time>2026-05-03T13:11:12.108Z</time></trkpt><trkpt lat="46.1140804" lon="13.5131579"><ele>176.0</ele><time>2026-05-03T13:11:13.107Z</time></trkpt><trkpt lat="46.1141044" lon="13.5132774"><ele>176.0</ele><time>2026-05-03T13:11:14.108Z</time></trkpt><trkpt lat="46.114133" lon="13.513391"><ele>176.0</ele><time>2026-05-03T13:11:15.107Z</time></trkpt><trkpt lat="46.1141624" lon="13.5135059"><ele>174.16666666666666</ele><time>2026-05-03T13:11:16.107Z</time></trkpt><trkpt lat="46.1141986" lon="13.5136143"><ele>172.33333333333331</ele><time>2026-05-03T13:11:17.108Z</time></trkpt><trkpt lat="46.1142338" lon="13.5137117"><ele>170.5</ele><time>2026-05-03T13:11:18.108Z</time></trkpt><trkpt lat="46.1142613" lon="13.5138217"><ele>168.66666666666666</ele><time>2026-05-03T13:11:19.108Z</time></trkpt><trkpt lat="46.1142956" lon="13.5139378"><ele>166.83333333333334</ele><time>2026-05-03T13:11:20.108Z</time></trkpt><trkpt lat="46.1143147" lon="13.514052"><ele>165.0</ele><time>2026-05-03T13:11:21.108Z</time></trkpt><trkpt lat="46.1143307" lon="13.5141493"><ele>165.0</ele><time>2026-05-03T13:11:22.108Z</time></trkpt><trkpt lat="46.1143483" lon="13.5142599"><ele>165.0</ele><time>2026-05-03T13:11:23.107Z</time></trkpt><trkpt lat="46.1143654" lon="13.5143922"><ele>165.0</ele><time>2026-05-03T13:11:24.108Z</time></trkpt><trkpt lat="46.1143924" lon="13.5145474"><ele>165.0</ele><time>2026-05-03T13:11:25.107Z</time></trkpt><trkpt lat="46.114406" lon="13.5147061"><ele>165.0</ele><time>2026-05-03T13:11:26.108Z</time></trkpt><trkpt lat="46.1144159" lon="13.5148493"><ele>165.8</ele><time>2026-05-03T13:11:27.108Z</time></trkpt><trkpt lat="46.1144217" lon="13.5149927"><ele>166.6</ele><time>2026-05-03T13:11:28.108Z</time></trkpt><trkpt lat="46.1144242" lon="13.5151269"><ele>167.39999999999998</ele><time>2026-05-03T13:11:29.108Z</time></trkpt><trkpt lat="46.1144326" lon="13.515252"><ele>168.2</ele><time>2026-05-03T13:11:30.108Z</time></trkpt><trkpt lat="46.1144441" lon="13.5153708"><ele>169.0</ele><time>2026-05-03T13:11:31.107Z</time></trkpt><trkpt lat="46.1144472" lon="13.5154988"><ele>169.5</ele><time>2026-05-03T13:11:32.107Z</time></trkpt><trkpt lat="46.1144358" lon="13.5156057"><ele>170.0</ele><time>2026-05-03T13:11:33.108Z</time></trkpt><trkpt lat="46.1144327" lon="13.5157117"><ele>170.5</ele><time>2026-05-03T13:11:34.108Z</time></trkpt><trkpt lat="46.1144496" lon="13.5158158"><ele>171.0</ele><time>2026-05-03T13:11:35.108Z</time></trkpt><trkpt lat="46.1144773" lon="13.5159164"><ele>171.5</ele><time>2026-05-03T13:11:36.107Z</time></trkpt><trkpt lat="46.1145021" lon="13.5160272"><ele>172.0</ele><time>2026-05-03T13:11:37.108Z</time></trkpt><trkpt lat="46.1145364" lon="13.5161555"><ele>172.0</ele><time>2026-05-03T13:11:38.108Z</time></trkpt><trkpt lat="46.114572" lon="13.5162838"><ele>172.0</ele><time>2026-05-03T13:11:39.107Z</time></trkpt><trkpt lat="46.1146067" lon="13.5164069"><ele>172.0</ele><time>2026-05-03T13:11:40.108Z</time></trkpt><trkpt lat="46.1146357" lon="13.5165287"><ele>172.0</ele><time>2026-05-03T13:11:41.108Z</time></trkpt><trkpt lat="46.1146754" lon="13.5166413"><ele>172.0</ele><time>2026-05-03T13:11:42.108Z</time></trkpt><trkpt lat="46.1147333" lon="13.516746"><ele>172.0</ele><time>2026-05-03T13:11:43.107Z</time></trkpt><trkpt lat="46.1148013" lon="13.5168431"><ele>172.0</ele><time>2026-05-03T13:11:44.108Z</time></trkpt><trkpt lat="46.1148659" lon="13.5169438"><ele>172.0</ele><time>2026-05-03T13:11:45.108Z</time></trkpt><trkpt lat="46.1149199" lon="13.5170425"><ele>172.0</ele><time>2026-05-03T13:11:46.108Z</time></trkpt><trkpt lat="46.1149736" lon="13.5171426"><ele>172.0</ele><time>2026-05-03T13:11:47.108Z</time></trkpt><trkpt lat="46.1150339" lon="13.5172621"><ele>168.0</ele><time>2026-05-03T13:11:48.107Z</time></trkpt><trkpt lat="46.1150936" lon="13.5173681"><ele>164.0</ele><time>2026-05-03T13:11:49.108Z</time></trkpt><trkpt lat="46.1151596" lon="13.5174674"><ele>160.0</ele><time>2026-05-03T13:11:50.108Z</time></trkpt><trkpt lat="46.1152332" lon="13.5175714"><ele>156.0</ele><time>2026-05-03T13:11:51.107Z</time></trkpt><trkpt lat="46.1153013" lon="13.5176685"><ele>152.0</ele><time>2026-05-03T13:11:52.107Z</time></trkpt><trkpt lat="46.1153646" lon="13.517776"><ele>152.0</ele><time>2026-05-03T13:11:53.107Z</time></trkpt><trkpt lat="46.1154234" lon="13.5178673"><ele>152.0</ele><time>2026-05-03T13:11:54.108Z</time></trkpt><trkpt lat="46.1154701" lon="13.5179482"><ele>152.0</ele><time>2026-05-03T13:11:55.107Z</time></trkpt><trkpt lat="46.1155161" lon="13.5180194"><ele>152.0</ele><time>2026-05-03T13:11:56.107Z</time></trkpt><trkpt lat="46.1155676" lon="13.5180744"><ele>152.0</ele><time>2026-05-03T13:11:57.108Z</time></trkpt><trkpt lat="46.1156288" lon="13.5181437"><ele>152.0</ele><time>2026-05-03T13:11:58.108Z</time></trkpt><trkpt lat="46.1156974" lon="13.5182111"><ele>151.83333333333331</ele><time>2026-05-03T13:11:59.108Z</time></trkpt><trkpt lat="46.1157682" lon="13.5182689"><ele>151.66666666666666</ele><time>2026-05-03T13:12:00.108Z</time></trkpt><trkpt lat="46.1158397" lon="13.5183332"><ele>151.5</ele><time>2026-05-03T13:12:01.108Z</time></trkpt><trkpt lat="46.1159148" lon="13.5183978"><ele>151.33333333333334</ele><time>2026-05-03T13:12:02.108Z</time></trkpt><trkpt lat="46.1159997" lon="13.5184561"><ele>151.16666666666669</ele><time>2026-05-03T13:12:03.108Z</time></trkpt><trkpt lat="46.1160769" lon="13.5185014"><ele>151.0</ele><time>2026-05-03T13:12:04.107Z</time></trkpt><trkpt lat="46.1161542" lon="13.5185577"><ele>151.0</ele><time>2026-05-03T13:12:05.108Z</time></trkpt><trkpt lat="46.1162297" lon="13.5186236"><ele>151.0</ele><time>2026-05-03T13:12:06.108Z</time></trkpt><trkpt lat="46.1162943" lon="13.5187088"><ele>151.0</ele><time>2026-05-03T13:12:07.108Z</time></trkpt><trkpt lat="46.1163611" lon="13.5187962"><ele>151.0</ele><time>2026-05-03T13:12:08.108Z</time></trkpt><trkpt lat="46.1164283" lon="13.5188773"><ele>151.0</ele><time>2026-05-03T13:12:09.107Z</time></trkpt><trkpt lat="46.1164988" lon="13.5189556"><ele>151.0</ele><time>2026-05-03T13:12:10.108Z</time></trkpt><trkpt lat="46.1165753" lon="13.5190205"><ele>151.6</ele><time>2026-05-03T13:12:11.108Z</time></trkpt><trkpt lat="46.1166518" lon="13.5190876"><ele>152.2</ele><time>2026-05-03T13:12:12.108Z</time></trkpt><trkpt lat="46.1167265" lon="13.5191528"><ele>152.8</ele><time>2026-05-03T13:12:13.108Z</time></trkpt><trkpt lat="46.1168057" lon="13.5192181"><ele>153.4</ele><time>2026-05-03T13:12:14.108Z</time></trkpt><trkpt lat="46.1168882" lon="13.5192891"><ele>154.0</ele><time>2026-05-03T13:12:15.108Z</time></trkpt><trkpt lat="46.1169711" lon="13.5193681"><ele>154.0</ele><time>2026-05-03T13:12:16.108Z</time></trkpt><trkpt lat="46.1170496" lon="13.5194508"><ele>154.0</ele><time>2026-05-03T13:12:17.108Z</time></trkpt><trkpt lat="46.1171229" lon="13.5195332"><ele>154.0</ele><time>2026-05-03T13:12:18.108Z</time></trkpt><trkpt lat="46.1171925" lon="13.5196042"><ele>154.0</ele><time>2026-05-03T13:12:19.107Z</time></trkpt><trkpt lat="46.1172556" lon="13.5196715"><ele>154.0</ele><time>2026-05-03T13:12:20.108Z</time></trkpt><trkpt lat="46.1173105" lon="13.5197345"><ele>154.0</ele><time>2026-05-03T13:12:21.107Z</time></trkpt><trkpt lat="46.1173527" lon="13.5198168"><ele>153.83333333333334</ele><time>2026-05-03T13:12:22.108Z</time></trkpt><trkpt lat="46.1173817" lon="13.5199055"><ele>153.66666666666669</ele><time>2026-05-03T13:12:23.108Z</time></trkpt><trkpt lat="46.1174131" lon="13.5200219"><ele>153.5</ele><time>2026-05-03T13:12:24.108Z</time></trkpt><trkpt lat="46.1174385" lon="13.5201353"><ele>153.33333333333334</ele><time>2026-05-03T13:12:25.108Z</time></trkpt><trkpt lat="46.1174519" lon="13.5202407"><ele>153.16666666666666</ele><time>2026-05-03T13:12:26.108Z</time></trkpt><trkpt lat="46.1174805" lon="13.5203355"><ele>153.0</ele><time>2026-05-03T13:12:27.108Z</time></trkpt><trkpt lat="46.1175162" lon="13.5204189"><ele>153.0</ele><time>2026-05-03T13:12:28.107Z</time></trkpt><trkpt lat="46.1175589" lon="13.5204932"><ele>153.0</ele><time>2026-05-03T13:12:29.107Z</time></trkpt><trkpt lat="46.1176076" lon="13.5205695"><ele>153.0</ele><time>2026-05-03T13:12:30.108Z</time></trkpt><trkpt lat="46.1176578" lon="13.5206494"><ele>153.0</ele><time>2026-05-03T13:12:31.107Z</time></trkpt><trkpt lat="46.1177205" lon="13.5207293"><ele>153.0</ele><time>2026-05-03T13:12:32.108Z</time></trkpt><trkpt lat="46.1177982" lon="13.52081"><ele>153.0</ele><time>2026-05-03T13:12:33.107Z</time></trkpt><trkpt lat="46.117872" lon="13.5208792"><ele>153.0</ele><time>2026-05-03T13:12:34.107Z</time></trkpt><trkpt lat="46.1179401" lon="13.5209478"><ele>153.0</ele><time>2026-05-03T13:12:35.108Z</time></trkpt><trkpt lat="46.1180002" lon="13.521005"><ele>153.0</ele><time>2026-05-03T13:12:36.107Z</time></trkpt><trkpt lat="46.1180572" lon="13.521062"><ele>153.0</ele><time>2026-05-03T13:12:37.107Z</time></trkpt><trkpt lat="46.1181389" lon="13.5211746"><ele>153.0</ele><time>2026-05-03T13:12:39.108Z</time></trkpt><trkpt lat="46.1181539" lon="13.5213233"><ele>153.0</ele><time>2026-05-03T13:12:41.108Z</time></trkpt><trkpt lat="46.1181332" lon="13.5214145"><ele>153.0</ele><time>2026-05-03T13:12:42.108Z</time></trkpt><trkpt lat="46.1181068" lon="13.5215053"><ele>153.0</ele><time>2026-05-03T13:12:43.108Z</time></trkpt><trkpt lat="46.1180862" lon="13.5216036"><ele>153.0</ele><time>2026-05-03T13:12:44.108Z</time></trkpt><trkpt lat="46.1180782" lon="13.5217729"><ele>153.0</ele><time>2026-05-03T13:12:46.107Z</time></trkpt><trkpt lat="46.1181471" lon="13.5218589"><ele>153.0</ele><time>2026-05-03T13:12:48.107Z</time></trkpt><trkpt lat="46.1182252" lon="13.5218517"><ele>153.0</ele><time>2026-05-03T13:12:49.108Z</time></trkpt><trkpt lat="46.1183141" lon="13.521862"><ele>153.0</ele><time>2026-05-03T13:12:50.108Z</time></trkpt><trkpt lat="46.1184178" lon="13.5219046"><ele>153.0</ele><time>2026-05-03T13:12:51.107Z</time></trkpt><trkpt lat="46.1185225" lon="13.5219644"><ele>153.0</ele><time>2026-05-03T13:12:52.107Z</time></trkpt><trkpt lat="46.1186312" lon="13.5220297"><ele>153.0</ele><time>2026-05-03T13:12:53.107Z</time></trkpt><trkpt lat="46.118743" lon="13.5220873"><ele>153.0</ele><time>2026-05-03T13:12:54.108Z</time></trkpt><trkpt lat="46.1188617" lon="13.5221459"><ele>153.0</ele><time>2026-05-03T13:12:55.108Z</time></trkpt><trkpt lat="46.1189781" lon="13.5222059"><ele>153.0</ele><time>2026-05-03T13:12:56.108Z</time></trkpt><trkpt lat="46.1190979" lon="13.5222597"><ele>153.0</ele><time>2026-05-03T13:12:57.107Z</time></trkpt><trkpt lat="46.1192198" lon="13.5222812"><ele>153.4</ele><time>2026-05-03T13:12:58.108Z</time></trkpt><trkpt lat="46.1193424" lon="13.5222711"><ele>153.8</ele><time>2026-05-03T13:12:59.107Z</time></trkpt><trkpt lat="46.1194587" lon="13.5222707"><ele>154.2</ele><time>2026-05-03T13:13:00.108Z</time></trkpt><trkpt lat="46.1195499" lon="13.5223188"><ele>154.6</ele><time>2026-05-03T13:13:01.107Z</time></trkpt><trkpt lat="46.1196208" lon="13.5224155"><ele>155.0</ele><time>2026-05-03T13:13:02.108Z</time></trkpt><trkpt lat="46.1197088" lon="13.5225282"><ele>155.0</ele><time>2026-05-03T13:13:03.107Z</time></trkpt><trkpt lat="46.1197942" lon="13.5226419"><ele>155.0</ele><time>2026-05-03T13:13:04.108Z</time></trkpt><trkpt lat="46.119868" lon="13.5227654"><ele>155.0</ele><time>2026-05-03T13:13:05.108Z</time></trkpt><trkpt lat="46.1199351" lon="13.522884"><ele>155.0</ele><time>2026-05-03T13:13:06.107Z</time></trkpt><trkpt lat="46.1199956" lon="13.5229919"><ele>155.0</ele><time>2026-05-03T13:13:07.108Z</time></trkpt><trkpt lat="46.1200483" lon="13.5231072"><ele>155.0</ele><time>2026-05-03T13:13:08.108Z</time></trkpt><trkpt lat="46.1200979" lon="13.523225"><ele>155.0</ele><time>2026-05-03T13:13:09.107Z</time></trkpt><trkpt lat="46.1201439" lon="13.5233271"><ele>155.0</ele><time>2026-05-03T13:13:10.108Z</time></trkpt><trkpt lat="46.1201863" lon="13.5234193"><ele>155.0</ele><time>2026-05-03T13:13:11.107Z</time></trkpt><trkpt lat="46.1202235" lon="13.523498"><ele>155.0</ele><time>2026-05-03T13:13:12.107Z</time></trkpt><trkpt lat="46.1202652" lon="13.5236204"><ele>155.0</ele><time>2026-05-03T13:13:14.107Z</time></trkpt><trkpt lat="46.1202668" lon="13.5237403"><ele>155.0</ele><time>2026-05-03T13:13:17.108Z</time></trkpt><trkpt lat="46.1202419" lon="13.5238503"><ele>155.0</ele><time>2026-05-03T13:13:19.108Z</time></trkpt><trkpt lat="46.1202118" lon="13.5239499"><ele>155.0</ele><time>2026-05-03T13:13:21.107Z</time></trkpt><trkpt lat="46.1201839" lon="13.5240641"><ele>155.0</ele><time>2026-05-03T13:13:23.107Z</time></trkpt><trkpt lat="46.1201789" lon="13.5241657"><ele>155.0</ele><time>2026-05-03T13:13:25.107Z</time></trkpt><trkpt lat="46.1201731" lon="13.524334"><ele>155.0</ele><time>2026-05-03T13:14:47.107Z</time></trkpt><trkpt lat="46.120121" lon="13.5242622"><ele>155.0</ele><time>2026-05-03T13:14:53.107Z</time></trkpt></trkseg></trk></gpx>